<?xml version="1.0" encoding="UTF-8" standalone="no" ?>
<gpx xmlns="http://www.topografix.com/GPX/1/1" xmlns:xsi="http://www.w3.org/2001/XMLSchema-instance" xsi:schemaLocation="http://www.topografix.com/GPX/1/1 http://www.topografix.com/GPX/1/1/gpx.xsd" version="1.1" creator="VisuGPX - https://www.visugpx.com">
  <metadata>
    <name>Gascougnolles plaine des ruralies</name>
    <desc><![CDATA[Gascougnolles plaine des ruralies]]></desc>
  </metadata>
  <trk>
    <name><![CDATA[Gascougnolles plaine rurallies]]></name>
    <trkseg>
      <trkpt lat="46.30714" lon="-0.34253">
        <ele>72.684</ele>
        <time>2011-07-03T12:10:09Z</time>
      </trkpt>
      <trkpt lat="46.30715" lon="-0.34253">
        <ele>72.7798</ele>
        <time>2011-07-03T12:10:10Z</time>
      </trkpt>
      <trkpt lat="46.30715" lon="-0.34252">
        <ele>72.8656</ele>
        <time>2011-07-03T12:10:11Z</time>
      </trkpt>
      <trkpt lat="46.30715" lon="-0.34251">
        <ele>72.9438</ele>
        <time>2011-07-03T12:10:12Z</time>
      </trkpt>
      <trkpt lat="46.30716" lon="-0.34249">
        <ele>73.0064</ele>
        <time>2011-07-03T12:10:13Z</time>
      </trkpt>
      <trkpt lat="46.30716" lon="-0.34247">
        <ele>73.0603</ele>
        <time>2011-07-03T12:10:14Z</time>
      </trkpt>
      <trkpt lat="46.30717" lon="-0.34246">
        <ele>73.1062</ele>
        <time>2011-07-03T12:10:15Z</time>
      </trkpt>
      <trkpt lat="46.30718" lon="-0.34244">
        <ele>73.1502</ele>
        <time>2011-07-03T12:10:16Z</time>
      </trkpt>
      <trkpt lat="46.30718" lon="-0.34243">
        <ele>73.1922</ele>
        <time>2011-07-03T12:10:17Z</time>
      </trkpt>
      <trkpt lat="46.30718" lon="-0.34241">
        <ele>73.2343</ele>
        <time>2011-07-03T12:10:18Z</time>
      </trkpt>
      <trkpt lat="46.30719" lon="-0.34239">
        <ele>73.2699</ele>
        <time>2011-07-03T12:10:19Z</time>
      </trkpt>
      <trkpt lat="46.30719" lon="-0.34238">
        <ele>73.3011</ele>
        <time>2011-07-03T12:10:20Z</time>
      </trkpt>
      <trkpt lat="46.3072" lon="-0.34236">
        <ele>73.3273</ele>
        <time>2011-07-03T12:10:21Z</time>
      </trkpt>
      <trkpt lat="46.3072" lon="-0.34234">
        <ele>73.3493</ele>
        <time>2011-07-03T12:10:22Z</time>
      </trkpt>
      <trkpt lat="46.30721" lon="-0.34232">
        <ele>73.3685</ele>
        <time>2011-07-03T12:10:23Z</time>
      </trkpt>
      <trkpt lat="46.30721" lon="-0.34231">
        <ele>73.3883</ele>
        <time>2011-07-03T12:10:24Z</time>
      </trkpt>
      <trkpt lat="46.30721" lon="-0.34229">
        <ele>73.4083</ele>
        <time>2011-07-03T12:10:25Z</time>
      </trkpt>
      <trkpt lat="46.30722" lon="-0.34227">
        <ele>73.4277</ele>
        <time>2011-07-03T12:10:26Z</time>
      </trkpt>
      <trkpt lat="46.30722" lon="-0.34225">
        <ele>73.4491</ele>
        <time>2011-07-03T12:10:27Z</time>
      </trkpt>
      <trkpt lat="46.30723" lon="-0.34223">
        <ele>73.4734</ele>
        <time>2011-07-03T12:10:28Z</time>
      </trkpt>
      <trkpt lat="46.30723" lon="-0.34221">
        <ele>73.4993</ele>
        <time>2011-07-03T12:10:29Z</time>
      </trkpt>
      <trkpt lat="46.30724" lon="-0.3422">
        <ele>73.527</ele>
        <time>2011-07-03T12:10:30Z</time>
      </trkpt>
      <trkpt lat="46.30724" lon="-0.34217">
        <ele>73.5558</ele>
        <time>2011-07-03T12:10:31Z</time>
      </trkpt>
      <trkpt lat="46.30724" lon="-0.34215">
        <ele>73.5839</ele>
        <time>2011-07-03T12:10:32Z</time>
      </trkpt>
      <trkpt lat="46.30724" lon="-0.34213">
        <ele>73.6134</ele>
        <time>2011-07-03T12:10:33Z</time>
      </trkpt>
      <trkpt lat="46.30724" lon="-0.34211">
        <ele>73.6444</ele>
        <time>2011-07-03T12:10:34Z</time>
      </trkpt>
      <trkpt lat="46.30724" lon="-0.34209">
        <ele>73.6758</ele>
        <time>2011-07-03T12:10:35Z</time>
      </trkpt>
      <trkpt lat="46.30724" lon="-0.34207">
        <ele>73.7081</ele>
        <time>2011-07-03T12:10:36Z</time>
      </trkpt>
      <trkpt lat="46.30724" lon="-0.34205">
        <ele>73.7417</ele>
        <time>2011-07-03T12:10:37Z</time>
      </trkpt>
      <trkpt lat="46.30724" lon="-0.34203">
        <ele>73.7766</ele>
        <time>2011-07-03T12:10:38Z</time>
      </trkpt>
      <trkpt lat="46.30724" lon="-0.34201">
        <ele>73.8115</ele>
        <time>2011-07-03T12:10:39Z</time>
      </trkpt>
      <trkpt lat="46.30724" lon="-0.34199">
        <ele>73.848</ele>
        <time>2011-07-03T12:10:40Z</time>
      </trkpt>
      <trkpt lat="46.30724" lon="-0.34197">
        <ele>73.8871</ele>
        <time>2011-07-03T12:10:41Z</time>
      </trkpt>
      <trkpt lat="46.30724" lon="-0.34195">
        <ele>73.9273</ele>
        <time>2011-07-03T12:10:42Z</time>
      </trkpt>
      <trkpt lat="46.30724" lon="-0.34193">
        <ele>73.9673</ele>
        <time>2011-07-03T12:10:43Z</time>
      </trkpt>
      <trkpt lat="46.30724" lon="-0.34191">
        <ele>74.0062</ele>
        <time>2011-07-03T12:10:44Z</time>
      </trkpt>
      <trkpt lat="46.30724" lon="-0.34189">
        <ele>74.0435</ele>
        <time>2011-07-03T12:10:45Z</time>
      </trkpt>
      <trkpt lat="46.30724" lon="-0.34187">
        <ele>74.0827</ele>
        <time>2011-07-03T12:10:46Z</time>
      </trkpt>
      <trkpt lat="46.30724" lon="-0.34185">
        <ele>74.1233</ele>
        <time>2011-07-03T12:10:47Z</time>
      </trkpt>
      <trkpt lat="46.30724" lon="-0.34183">
        <ele>74.1639</ele>
        <time>2011-07-03T12:10:48Z</time>
      </trkpt>
      <trkpt lat="46.30724" lon="-0.34181">
        <ele>74.2059</ele>
        <time>2011-07-03T12:10:49Z</time>
      </trkpt>
      <trkpt lat="46.30724" lon="-0.34179">
        <ele>74.248</ele>
        <time>2011-07-03T12:10:50Z</time>
      </trkpt>
      <trkpt lat="46.30724" lon="-0.34177">
        <ele>74.2895</ele>
        <time>2011-07-03T12:10:51Z</time>
      </trkpt>
      <trkpt lat="46.30725" lon="-0.34176">
        <ele>74.3327</ele>
        <time>2011-07-03T12:10:52Z</time>
      </trkpt>
      <trkpt lat="46.30725" lon="-0.34174">
        <ele>74.3759</ele>
        <time>2011-07-03T12:10:53Z</time>
      </trkpt>
      <trkpt lat="46.30725" lon="-0.34172">
        <ele>74.42</ele>
        <time>2011-07-03T12:10:54Z</time>
      </trkpt>
      <trkpt lat="46.30725" lon="-0.3417">
        <ele>74.4637</ele>
        <time>2011-07-03T12:10:55Z</time>
      </trkpt>
      <trkpt lat="46.30724" lon="-0.34169">
        <ele>74.5075</ele>
        <time>2011-07-03T12:10:56Z</time>
      </trkpt>
      <trkpt lat="46.30724" lon="-0.34167">
        <ele>74.5533</ele>
        <time>2011-07-03T12:10:57Z</time>
      </trkpt>
      <trkpt lat="46.30724" lon="-0.34165">
        <ele>74.6003</ele>
        <time>2011-07-03T12:10:58Z</time>
      </trkpt>
      <trkpt lat="46.30724" lon="-0.34164">
        <ele>74.6481</ele>
        <time>2011-07-03T12:10:59Z</time>
      </trkpt>
      <trkpt lat="46.30724" lon="-0.34162">
        <ele>74.695</ele>
        <time>2011-07-03T12:11:00Z</time>
      </trkpt>
      <trkpt lat="46.30725" lon="-0.3416">
        <ele>74.7412</ele>
        <time>2011-07-03T12:11:01Z</time>
      </trkpt>
      <trkpt lat="46.30725" lon="-0.34159">
        <ele>74.788</ele>
        <time>2011-07-03T12:11:02Z</time>
      </trkpt>
      <trkpt lat="46.30726" lon="-0.34157">
        <ele>74.8353</ele>
        <time>2011-07-03T12:11:03Z</time>
      </trkpt>
      <trkpt lat="46.30725" lon="-0.34155">
        <ele>74.8809</ele>
        <time>2011-07-03T12:11:04Z</time>
      </trkpt>
      <trkpt lat="46.30725" lon="-0.34154">
        <ele>74.9287</ele>
        <time>2011-07-03T12:11:05Z</time>
      </trkpt>
      <trkpt lat="46.30724" lon="-0.34152">
        <ele>74.9772</ele>
        <time>2011-07-03T12:11:06Z</time>
      </trkpt>
      <trkpt lat="46.30724" lon="-0.34151">
        <ele>75.0334</ele>
        <time>2011-07-03T12:11:07Z</time>
      </trkpt>
      <trkpt lat="46.30723" lon="-0.3415">
        <ele>75.0967</ele>
        <time>2011-07-03T12:11:08Z</time>
      </trkpt>
      <trkpt lat="46.30722" lon="-0.3415">
        <ele>75.1596</ele>
        <time>2011-07-03T12:11:09Z</time>
      </trkpt>
      <trkpt lat="46.30721" lon="-0.34149">
        <ele>75.223</ele>
        <time>2011-07-03T12:11:10Z</time>
      </trkpt>
      <trkpt lat="46.30721" lon="-0.3415">
        <ele>75.2858</ele>
        <time>2011-07-03T12:11:11Z</time>
      </trkpt>
      <trkpt lat="46.3072" lon="-0.34149">
        <ele>75.3491</ele>
        <time>2011-07-03T12:11:12Z</time>
      </trkpt>
      <trkpt lat="46.30719" lon="-0.34149">
        <ele>75.4116</ele>
        <time>2011-07-03T12:11:13Z</time>
      </trkpt>
      <trkpt lat="46.30718" lon="-0.34149">
        <ele>75.4735</ele>
        <time>2011-07-03T12:11:14Z</time>
      </trkpt>
      <trkpt lat="46.30716" lon="-0.34149">
        <ele>75.5339</ele>
        <time>2011-07-03T12:11:15Z</time>
      </trkpt>
      <trkpt lat="46.30715" lon="-0.34149">
        <ele>75.5914</ele>
        <time>2011-07-03T12:11:16Z</time>
      </trkpt>
      <trkpt lat="46.30714" lon="-0.34149">
        <ele>75.6471</ele>
        <time>2011-07-03T12:11:17Z</time>
      </trkpt>
      <trkpt lat="46.30713" lon="-0.34149">
        <ele>75.7003</ele>
        <time>2011-07-03T12:11:18Z</time>
      </trkpt>
      <trkpt lat="46.30711" lon="-0.34149">
        <ele>75.7527</ele>
        <time>2011-07-03T12:11:19Z</time>
      </trkpt>
      <trkpt lat="46.3071" lon="-0.34149">
        <ele>75.8047</ele>
        <time>2011-07-03T12:11:20Z</time>
      </trkpt>
      <trkpt lat="46.30709" lon="-0.34148">
        <ele>75.8596</ele>
        <time>2011-07-03T12:11:21Z</time>
      </trkpt>
      <trkpt lat="46.30708" lon="-0.34149">
        <ele>75.913</ele>
        <time>2011-07-03T12:11:22Z</time>
      </trkpt>
      <trkpt lat="46.30706" lon="-0.34149">
        <ele>75.9654</ele>
        <time>2011-07-03T12:11:23Z</time>
      </trkpt>
      <trkpt lat="46.30705" lon="-0.34149">
        <ele>76.0221</ele>
        <time>2011-07-03T12:11:24Z</time>
      </trkpt>
      <trkpt lat="46.30703" lon="-0.34149">
        <ele>76.0781</ele>
        <time>2011-07-03T12:11:25Z</time>
      </trkpt>
      <trkpt lat="46.30702" lon="-0.34149">
        <ele>76.1319</ele>
        <time>2011-07-03T12:11:26Z</time>
      </trkpt>
      <trkpt lat="46.30701" lon="-0.34149">
        <ele>76.1837</ele>
        <time>2011-07-03T12:11:27Z</time>
      </trkpt>
      <trkpt lat="46.307" lon="-0.34149">
        <ele>76.2347</ele>
        <time>2011-07-03T12:11:28Z</time>
      </trkpt>
      <trkpt lat="46.30699" lon="-0.34149">
        <ele>76.2621</ele>
        <time>2011-07-03T12:11:29Z</time>
      </trkpt>
      <trkpt lat="46.30698" lon="-0.3415">
        <ele>76.278</ele>
        <time>2011-07-03T12:11:30Z</time>
      </trkpt>
      <trkpt lat="46.30698" lon="-0.34151">
        <ele>76.2892</ele>
        <time>2011-07-03T12:11:31Z</time>
      </trkpt>
      <trkpt lat="46.30697" lon="-0.34151">
        <ele>76.3005</ele>
        <time>2011-07-03T12:11:32Z</time>
      </trkpt>
      <trkpt lat="46.30696" lon="-0.34152">
        <ele>76.314</ele>
        <time>2011-07-03T12:11:33Z</time>
      </trkpt>
      <trkpt lat="46.30695" lon="-0.34152">
        <ele>76.3285</ele>
        <time>2011-07-03T12:11:34Z</time>
      </trkpt>
      <trkpt lat="46.30693" lon="-0.34152">
        <ele>76.3375</ele>
        <time>2011-07-03T12:11:35Z</time>
      </trkpt>
      <trkpt lat="46.30692" lon="-0.34152">
        <ele>76.3424</ele>
        <time>2011-07-03T12:11:36Z</time>
      </trkpt>
      <trkpt lat="46.3069" lon="-0.34151">
        <ele>76.3465</ele>
        <time>2011-07-03T12:11:37Z</time>
      </trkpt>
      <trkpt lat="46.30689" lon="-0.34151">
        <ele>76.3527</ele>
        <time>2011-07-03T12:11:38Z</time>
      </trkpt>
      <trkpt lat="46.30687" lon="-0.3415">
        <ele>76.3582</ele>
        <time>2011-07-03T12:11:39Z</time>
      </trkpt>
      <trkpt lat="46.30685" lon="-0.34149">
        <ele>76.3688</ele>
        <time>2011-07-03T12:11:40Z</time>
      </trkpt>
      <trkpt lat="46.30683" lon="-0.34148">
        <ele>76.3836</ele>
        <time>2011-07-03T12:11:41Z</time>
      </trkpt>
      <trkpt lat="46.30681" lon="-0.34147">
        <ele>76.407</ele>
        <time>2011-07-03T12:11:42Z</time>
      </trkpt>
      <trkpt lat="46.30679" lon="-0.34147">
        <ele>76.4249</ele>
        <time>2011-07-03T12:11:43Z</time>
      </trkpt>
      <trkpt lat="46.30678" lon="-0.34147">
        <ele>76.4436</ele>
        <time>2011-07-03T12:11:44Z</time>
      </trkpt>
      <trkpt lat="46.30676" lon="-0.34146">
        <ele>76.4642</ele>
        <time>2011-07-03T12:11:45Z</time>
      </trkpt>
      <trkpt lat="46.30674" lon="-0.34146">
        <ele>76.4848</ele>
        <time>2011-07-03T12:11:46Z</time>
      </trkpt>
      <trkpt lat="46.30672" lon="-0.34145">
        <ele>76.4877</ele>
        <time>2011-07-03T12:11:47Z</time>
      </trkpt>
      <trkpt lat="46.3067" lon="-0.34145">
        <ele>76.477</ele>
        <time>2011-07-03T12:11:48Z</time>
      </trkpt>
      <trkpt lat="46.30669" lon="-0.34144">
        <ele>76.4665</ele>
        <time>2011-07-03T12:11:49Z</time>
      </trkpt>
      <trkpt lat="46.30667" lon="-0.34144">
        <ele>76.4391</ele>
        <time>2011-07-03T12:11:50Z</time>
      </trkpt>
      <trkpt lat="46.30666" lon="-0.34144">
        <ele>76.4128</ele>
        <time>2011-07-03T12:11:51Z</time>
      </trkpt>
      <trkpt lat="46.30665" lon="-0.34144">
        <ele>76.3715</ele>
        <time>2011-07-03T12:11:52Z</time>
      </trkpt>
      <trkpt lat="46.30664" lon="-0.34144">
        <ele>76.3154</ele>
        <time>2011-07-03T12:11:53Z</time>
      </trkpt>
      <trkpt lat="46.30663" lon="-0.34144">
        <ele>76.2483</ele>
        <time>2011-07-03T12:11:54Z</time>
      </trkpt>
      <trkpt lat="46.30661" lon="-0.34144">
        <ele>76.1789</ele>
        <time>2011-07-03T12:11:55Z</time>
      </trkpt>
      <trkpt lat="46.30661" lon="-0.34144">
        <ele>76.1098</ele>
        <time>2011-07-03T12:11:56Z</time>
      </trkpt>
      <trkpt lat="46.3066" lon="-0.34144">
        <ele>76.042</ele>
        <time>2011-07-03T12:11:57Z</time>
      </trkpt>
      <trkpt lat="46.30659" lon="-0.34144">
        <ele>75.9757</ele>
        <time>2011-07-03T12:11:58Z</time>
      </trkpt>
      <trkpt lat="46.30658" lon="-0.34143">
        <ele>75.9086</ele>
        <time>2011-07-03T12:11:59Z</time>
      </trkpt>
      <trkpt lat="46.30656" lon="-0.34142">
        <ele>75.8385</ele>
        <time>2011-07-03T12:12:00Z</time>
      </trkpt>
      <trkpt lat="46.30655" lon="-0.34142">
        <ele>75.7567</ele>
        <time>2011-07-03T12:12:01Z</time>
      </trkpt>
      <trkpt lat="46.30654" lon="-0.34141">
        <ele>75.676</ele>
        <time>2011-07-03T12:12:02Z</time>
      </trkpt>
      <trkpt lat="46.30652" lon="-0.3414">
        <ele>75.5962</ele>
        <time>2011-07-03T12:12:03Z</time>
      </trkpt>
      <trkpt lat="46.30651" lon="-0.3414">
        <ele>75.5129</ele>
        <time>2011-07-03T12:12:04Z</time>
      </trkpt>
      <trkpt lat="46.3065" lon="-0.34139">
        <ele>75.4311</ele>
        <time>2011-07-03T12:12:05Z</time>
      </trkpt>
      <trkpt lat="46.30648" lon="-0.34138">
        <ele>75.3429</ele>
        <time>2011-07-03T12:12:06Z</time>
      </trkpt>
      <trkpt lat="46.30647" lon="-0.34138">
        <ele>75.2504</ele>
        <time>2011-07-03T12:12:07Z</time>
      </trkpt>
      <trkpt lat="46.30645" lon="-0.34137">
        <ele>75.1525</ele>
        <time>2011-07-03T12:12:08Z</time>
      </trkpt>
      <trkpt lat="46.30644" lon="-0.34136">
        <ele>75.0475</ele>
        <time>2011-07-03T12:12:09Z</time>
      </trkpt>
      <trkpt lat="46.30642" lon="-0.34135">
        <ele>74.9434</ele>
        <time>2011-07-03T12:12:10Z</time>
      </trkpt>
      <trkpt lat="46.3064" lon="-0.34135">
        <ele>74.8403</ele>
        <time>2011-07-03T12:12:11Z</time>
      </trkpt>
      <trkpt lat="46.30638" lon="-0.34134">
        <ele>74.7386</ele>
        <time>2011-07-03T12:12:12Z</time>
      </trkpt>
      <trkpt lat="46.30636" lon="-0.34133">
        <ele>74.6381</ele>
        <time>2011-07-03T12:12:13Z</time>
      </trkpt>
      <trkpt lat="46.30633" lon="-0.34133">
        <ele>74.5324</ele>
        <time>2011-07-03T12:12:14Z</time>
      </trkpt>
      <trkpt lat="46.30631" lon="-0.34132">
        <ele>74.4181</ele>
        <time>2011-07-03T12:12:15Z</time>
      </trkpt>
      <trkpt lat="46.30628" lon="-0.34132">
        <ele>74.2931</ele>
        <time>2011-07-03T12:12:16Z</time>
      </trkpt>
      <trkpt lat="46.30626" lon="-0.34132">
        <ele>74.158</ele>
        <time>2011-07-03T12:12:17Z</time>
      </trkpt>
      <trkpt lat="46.30624" lon="-0.34132">
        <ele>74.0149</ele>
        <time>2011-07-03T12:12:18Z</time>
      </trkpt>
      <trkpt lat="46.30622" lon="-0.34132">
        <ele>73.8741</ele>
        <time>2011-07-03T12:12:19Z</time>
      </trkpt>
      <trkpt lat="46.3062" lon="-0.34132">
        <ele>73.7247</ele>
        <time>2011-07-03T12:12:20Z</time>
      </trkpt>
      <trkpt lat="46.30618" lon="-0.34132">
        <ele>73.5764</ele>
        <time>2011-07-03T12:12:21Z</time>
      </trkpt>
      <trkpt lat="46.30616" lon="-0.34133">
        <ele>73.4213</ele>
        <time>2011-07-03T12:12:22Z</time>
      </trkpt>
      <trkpt lat="46.30615" lon="-0.34133">
        <ele>73.2645</ele>
        <time>2011-07-03T12:12:23Z</time>
      </trkpt>
      <trkpt lat="46.30613" lon="-0.34134">
        <ele>73.1013</ele>
        <time>2011-07-03T12:12:24Z</time>
      </trkpt>
      <trkpt lat="46.30611" lon="-0.34134">
        <ele>72.9349</ele>
        <time>2011-07-03T12:12:25Z</time>
      </trkpt>
      <trkpt lat="46.3061" lon="-0.34134">
        <ele>72.7715</ele>
        <time>2011-07-03T12:12:26Z</time>
      </trkpt>
      <trkpt lat="46.30609" lon="-0.34134">
        <ele>72.6107</ele>
        <time>2011-07-03T12:12:27Z</time>
      </trkpt>
      <trkpt lat="46.30608" lon="-0.34134">
        <ele>72.4524</ele>
        <time>2011-07-03T12:12:28Z</time>
      </trkpt>
      <trkpt lat="46.30607" lon="-0.34135">
        <ele>72.2972</ele>
        <time>2011-07-03T12:12:29Z</time>
      </trkpt>
      <trkpt lat="46.30605" lon="-0.34135">
        <ele>72.1398</ele>
        <time>2011-07-03T12:12:30Z</time>
      </trkpt>
      <trkpt lat="46.30604" lon="-0.34134">
        <ele>71.9839</ele>
        <time>2011-07-03T12:12:31Z</time>
      </trkpt>
      <trkpt lat="46.30603" lon="-0.34134">
        <ele>71.8295</ele>
        <time>2011-07-03T12:12:32Z</time>
      </trkpt>
      <trkpt lat="46.30602" lon="-0.34135">
        <ele>71.6794</ele>
        <time>2011-07-03T12:12:33Z</time>
      </trkpt>
      <trkpt lat="46.30601" lon="-0.34135">
        <ele>71.5353</ele>
        <time>2011-07-03T12:12:34Z</time>
      </trkpt>
      <trkpt lat="46.306" lon="-0.34135">
        <ele>71.3931</ele>
        <time>2011-07-03T12:12:35Z</time>
      </trkpt>
      <trkpt lat="46.30599" lon="-0.34136">
        <ele>71.2519</ele>
        <time>2011-07-03T12:12:36Z</time>
      </trkpt>
      <trkpt lat="46.30598" lon="-0.34136">
        <ele>71.1081</ele>
        <time>2011-07-03T12:12:37Z</time>
      </trkpt>
      <trkpt lat="46.30597" lon="-0.34136">
        <ele>70.9641</ele>
        <time>2011-07-03T12:12:38Z</time>
      </trkpt>
      <trkpt lat="46.30595" lon="-0.34137">
        <ele>70.8171</ele>
        <time>2011-07-03T12:12:39Z</time>
      </trkpt>
      <trkpt lat="46.30594" lon="-0.34137">
        <ele>70.6706</ele>
        <time>2011-07-03T12:12:40Z</time>
      </trkpt>
      <trkpt lat="46.30593" lon="-0.34139">
        <ele>70.5375</ele>
        <time>2011-07-03T12:12:41Z</time>
      </trkpt>
      <trkpt lat="46.30591" lon="-0.34139">
        <ele>70.4099</ele>
        <time>2011-07-03T12:12:42Z</time>
      </trkpt>
      <trkpt lat="46.30589" lon="-0.34139">
        <ele>70.2856</ele>
        <time>2011-07-03T12:12:43Z</time>
      </trkpt>
      <trkpt lat="46.30587" lon="-0.34139">
        <ele>70.1658</ele>
        <time>2011-07-03T12:12:44Z</time>
      </trkpt>
      <trkpt lat="46.30586" lon="-0.34139">
        <ele>70.0484</ele>
        <time>2011-07-03T12:12:45Z</time>
      </trkpt>
      <trkpt lat="46.30584" lon="-0.34139">
        <ele>69.9355</ele>
        <time>2011-07-03T12:12:46Z</time>
      </trkpt>
      <trkpt lat="46.30583" lon="-0.3414">
        <ele>69.824</ele>
        <time>2011-07-03T12:12:47Z</time>
      </trkpt>
      <trkpt lat="46.30582" lon="-0.34141">
        <ele>69.7123</ele>
        <time>2011-07-03T12:12:48Z</time>
      </trkpt>
      <trkpt lat="46.30581" lon="-0.34141">
        <ele>69.6016</ele>
        <time>2011-07-03T12:12:49Z</time>
      </trkpt>
      <trkpt lat="46.30579" lon="-0.34142">
        <ele>69.4933</ele>
        <time>2011-07-03T12:12:50Z</time>
      </trkpt>
      <trkpt lat="46.30578" lon="-0.34143">
        <ele>69.3943</ele>
        <time>2011-07-03T12:12:51Z</time>
      </trkpt>
      <trkpt lat="46.30577" lon="-0.34143">
        <ele>69.2973</ele>
        <time>2011-07-03T12:12:52Z</time>
      </trkpt>
      <trkpt lat="46.30575" lon="-0.34143">
        <ele>69.2033</ele>
        <time>2011-07-03T12:12:53Z</time>
      </trkpt>
      <trkpt lat="46.30574" lon="-0.34143">
        <ele>69.1163</ele>
        <time>2011-07-03T12:12:54Z</time>
      </trkpt>
      <trkpt lat="46.30572" lon="-0.34143">
        <ele>69.032</ele>
        <time>2011-07-03T12:12:55Z</time>
      </trkpt>
      <trkpt lat="46.3057" lon="-0.34142">
        <ele>68.9497</ele>
        <time>2011-07-03T12:12:56Z</time>
      </trkpt>
      <trkpt lat="46.30569" lon="-0.34142">
        <ele>68.8704</ele>
        <time>2011-07-03T12:12:57Z</time>
      </trkpt>
      <trkpt lat="46.30567" lon="-0.34142">
        <ele>68.7939</ele>
        <time>2011-07-03T12:12:58Z</time>
      </trkpt>
      <trkpt lat="46.30566" lon="-0.34142">
        <ele>68.7192</ele>
        <time>2011-07-03T12:12:59Z</time>
      </trkpt>
      <trkpt lat="46.30565" lon="-0.34141">
        <ele>68.647</ele>
        <time>2011-07-03T12:13:00Z</time>
      </trkpt>
      <trkpt lat="46.30563" lon="-0.3414">
        <ele>68.5769</ele>
        <time>2011-07-03T12:13:01Z</time>
      </trkpt>
      <trkpt lat="46.30562" lon="-0.3414">
        <ele>68.511</ele>
        <time>2011-07-03T12:13:02Z</time>
      </trkpt>
      <trkpt lat="46.30561" lon="-0.3414">
        <ele>68.4496</ele>
        <time>2011-07-03T12:13:03Z</time>
      </trkpt>
      <trkpt lat="46.30559" lon="-0.34139">
        <ele>68.3896</ele>
        <time>2011-07-03T12:13:04Z</time>
      </trkpt>
      <trkpt lat="46.30558" lon="-0.34138">
        <ele>68.3336</ele>
        <time>2011-07-03T12:13:05Z</time>
      </trkpt>
      <trkpt lat="46.30557" lon="-0.34138">
        <ele>68.2804</ele>
        <time>2011-07-03T12:13:06Z</time>
      </trkpt>
      <trkpt lat="46.30556" lon="-0.34138">
        <ele>68.2293</ele>
        <time>2011-07-03T12:13:07Z</time>
      </trkpt>
      <trkpt lat="46.30554" lon="-0.34137">
        <ele>68.1825</ele>
        <time>2011-07-03T12:13:08Z</time>
      </trkpt>
      <trkpt lat="46.30553" lon="-0.34136">
        <ele>68.1411</ele>
        <time>2011-07-03T12:13:09Z</time>
      </trkpt>
      <trkpt lat="46.30552" lon="-0.34135">
        <ele>68.1073</ele>
        <time>2011-07-03T12:13:10Z</time>
      </trkpt>
      <trkpt lat="46.30551" lon="-0.34134">
        <ele>68.0806</ele>
        <time>2011-07-03T12:13:11Z</time>
      </trkpt>
      <trkpt lat="46.30549" lon="-0.34134">
        <ele>68.0589</ele>
        <time>2011-07-03T12:13:12Z</time>
      </trkpt>
      <trkpt lat="46.30548" lon="-0.34133">
        <ele>68.043</ele>
        <time>2011-07-03T12:13:13Z</time>
      </trkpt>
      <trkpt lat="46.30547" lon="-0.34132">
        <ele>68.0296</ele>
        <time>2011-07-03T12:13:14Z</time>
      </trkpt>
      <trkpt lat="46.30545" lon="-0.34131">
        <ele>68.022</ele>
        <time>2011-07-03T12:13:15Z</time>
      </trkpt>
      <trkpt lat="46.30544" lon="-0.3413">
        <ele>68.017</ele>
        <time>2011-07-03T12:13:16Z</time>
      </trkpt>
      <trkpt lat="46.30542" lon="-0.34129">
        <ele>68.0181</ele>
        <time>2011-07-03T12:13:17Z</time>
      </trkpt>
      <trkpt lat="46.30541" lon="-0.34128">
        <ele>68.0214</ele>
        <time>2011-07-03T12:13:18Z</time>
      </trkpt>
      <trkpt lat="46.3054" lon="-0.34128">
        <ele>68.0247</ele>
        <time>2011-07-03T12:13:19Z</time>
      </trkpt>
      <trkpt lat="46.30538" lon="-0.34126">
        <ele>68.0314</ele>
        <time>2011-07-03T12:13:20Z</time>
      </trkpt>
      <trkpt lat="46.30537" lon="-0.34125">
        <ele>68.0407</ele>
        <time>2011-07-03T12:13:21Z</time>
      </trkpt>
      <trkpt lat="46.30536" lon="-0.34124">
        <ele>68.0502</ele>
        <time>2011-07-03T12:13:22Z</time>
      </trkpt>
      <trkpt lat="46.30535" lon="-0.34123">
        <ele>68.0647</ele>
        <time>2011-07-03T12:13:23Z</time>
      </trkpt>
      <trkpt lat="46.30533" lon="-0.34122">
        <ele>68.0799</ele>
        <time>2011-07-03T12:13:24Z</time>
      </trkpt>
      <trkpt lat="46.30532" lon="-0.34122">
        <ele>68.1009</ele>
        <time>2011-07-03T12:13:25Z</time>
      </trkpt>
      <trkpt lat="46.30531" lon="-0.34121">
        <ele>68.1219</ele>
        <time>2011-07-03T12:13:26Z</time>
      </trkpt>
      <trkpt lat="46.3053" lon="-0.34121">
        <ele>68.1431</ele>
        <time>2011-07-03T12:13:27Z</time>
      </trkpt>
      <trkpt lat="46.30529" lon="-0.3412">
        <ele>68.1611</ele>
        <time>2011-07-03T12:13:28Z</time>
      </trkpt>
      <trkpt lat="46.30528" lon="-0.34119">
        <ele>68.1803</ele>
        <time>2011-07-03T12:13:29Z</time>
      </trkpt>
      <trkpt lat="46.30526" lon="-0.34118">
        <ele>68.199</ele>
        <time>2011-07-03T12:13:30Z</time>
      </trkpt>
      <trkpt lat="46.30525" lon="-0.34118">
        <ele>68.218</ele>
        <time>2011-07-03T12:13:31Z</time>
      </trkpt>
      <trkpt lat="46.30524" lon="-0.34117">
        <ele>68.2377</ele>
        <time>2011-07-03T12:13:32Z</time>
      </trkpt>
      <trkpt lat="46.30523" lon="-0.34116">
        <ele>68.2589</ele>
        <time>2011-07-03T12:13:33Z</time>
      </trkpt>
      <trkpt lat="46.30521" lon="-0.34115">
        <ele>68.2826</ele>
        <time>2011-07-03T12:13:34Z</time>
      </trkpt>
      <trkpt lat="46.3052" lon="-0.34114">
        <ele>68.3092</ele>
        <time>2011-07-03T12:13:35Z</time>
      </trkpt>
      <trkpt lat="46.30519" lon="-0.34113">
        <ele>68.3351</ele>
        <time>2011-07-03T12:13:36Z</time>
      </trkpt>
      <trkpt lat="46.30517" lon="-0.34112">
        <ele>68.361</ele>
        <time>2011-07-03T12:13:37Z</time>
      </trkpt>
      <trkpt lat="46.30516" lon="-0.34111">
        <ele>68.387</ele>
        <time>2011-07-03T12:13:38Z</time>
      </trkpt>
      <trkpt lat="46.30515" lon="-0.3411">
        <ele>68.4116</ele>
        <time>2011-07-03T12:13:39Z</time>
      </trkpt>
      <trkpt lat="46.30513" lon="-0.34109">
        <ele>68.4371</ele>
        <time>2011-07-03T12:13:40Z</time>
      </trkpt>
      <trkpt lat="46.30512" lon="-0.34108">
        <ele>68.4625</ele>
        <time>2011-07-03T12:13:41Z</time>
      </trkpt>
      <trkpt lat="46.30511" lon="-0.34107">
        <ele>68.4877</ele>
        <time>2011-07-03T12:13:42Z</time>
      </trkpt>
      <trkpt lat="46.3051" lon="-0.34107">
        <ele>68.5136</ele>
        <time>2011-07-03T12:13:43Z</time>
      </trkpt>
      <trkpt lat="46.30508" lon="-0.34106">
        <ele>68.5407</ele>
        <time>2011-07-03T12:13:44Z</time>
      </trkpt>
      <trkpt lat="46.30507" lon="-0.34106">
        <ele>68.5692</ele>
        <time>2011-07-03T12:13:45Z</time>
      </trkpt>
      <trkpt lat="46.30506" lon="-0.34106">
        <ele>68.5984</ele>
        <time>2011-07-03T12:13:46Z</time>
      </trkpt>
      <trkpt lat="46.30504" lon="-0.34106">
        <ele>68.6264</ele>
        <time>2011-07-03T12:13:47Z</time>
      </trkpt>
      <trkpt lat="46.30503" lon="-0.34106">
        <ele>68.6535</ele>
        <time>2011-07-03T12:13:48Z</time>
      </trkpt>
      <trkpt lat="46.30502" lon="-0.34105">
        <ele>68.6794</ele>
        <time>2011-07-03T12:13:49Z</time>
      </trkpt>
      <trkpt lat="46.305" lon="-0.34105">
        <ele>68.7033</ele>
        <time>2011-07-03T12:13:50Z</time>
      </trkpt>
      <trkpt lat="46.30499" lon="-0.34105">
        <ele>68.7281</ele>
        <time>2011-07-03T12:13:51Z</time>
      </trkpt>
      <trkpt lat="46.30498" lon="-0.34105">
        <ele>68.7529</ele>
        <time>2011-07-03T12:13:52Z</time>
      </trkpt>
      <trkpt lat="46.30497" lon="-0.34104">
        <ele>68.7757</ele>
        <time>2011-07-03T12:13:53Z</time>
      </trkpt>
      <trkpt lat="46.30496" lon="-0.34104">
        <ele>68.8019</ele>
        <time>2011-07-03T12:13:54Z</time>
      </trkpt>
      <trkpt lat="46.30495" lon="-0.34104">
        <ele>68.8261</ele>
        <time>2011-07-03T12:13:55Z</time>
      </trkpt>
      <trkpt lat="46.30494" lon="-0.34104">
        <ele>68.8471</ele>
        <time>2011-07-03T12:13:56Z</time>
      </trkpt>
      <trkpt lat="46.30493" lon="-0.34104">
        <ele>68.8663</ele>
        <time>2011-07-03T12:13:57Z</time>
      </trkpt>
      <trkpt lat="46.30492" lon="-0.34104">
        <ele>68.8852</ele>
        <time>2011-07-03T12:13:58Z</time>
      </trkpt>
      <trkpt lat="46.30491" lon="-0.34104">
        <ele>68.9046</ele>
        <time>2011-07-03T12:13:59Z</time>
      </trkpt>
      <trkpt lat="46.30489" lon="-0.34103">
        <ele>68.924</ele>
        <time>2011-07-03T12:14:00Z</time>
      </trkpt>
      <trkpt lat="46.30488" lon="-0.34103">
        <ele>68.9423</ele>
        <time>2011-07-03T12:14:01Z</time>
      </trkpt>
      <trkpt lat="46.30487" lon="-0.34102">
        <ele>68.9683</ele>
        <time>2011-07-03T12:14:02Z</time>
      </trkpt>
      <trkpt lat="46.30486" lon="-0.341">
        <ele>68.996</ele>
        <time>2011-07-03T12:14:03Z</time>
      </trkpt>
      <trkpt lat="46.30485" lon="-0.34099">
        <ele>69.0227</ele>
        <time>2011-07-03T12:14:04Z</time>
      </trkpt>
      <trkpt lat="46.30484" lon="-0.34099">
        <ele>69.0507</ele>
        <time>2011-07-03T12:14:05Z</time>
      </trkpt>
      <trkpt lat="46.30482" lon="-0.34098">
        <ele>69.0777</ele>
        <time>2011-07-03T12:14:06Z</time>
      </trkpt>
      <trkpt lat="46.30481" lon="-0.34098">
        <ele>69.1061</ele>
        <time>2011-07-03T12:14:07Z</time>
      </trkpt>
      <trkpt lat="46.3048" lon="-0.34097">
        <ele>69.1354</ele>
        <time>2011-07-03T12:14:08Z</time>
      </trkpt>
      <trkpt lat="46.30479" lon="-0.34096">
        <ele>69.1616</ele>
        <time>2011-07-03T12:14:09Z</time>
      </trkpt>
      <trkpt lat="46.30477" lon="-0.34096">
        <ele>69.1885</ele>
        <time>2011-07-03T12:14:10Z</time>
      </trkpt>
      <trkpt lat="46.30476" lon="-0.34096">
        <ele>69.2155</ele>
        <time>2011-07-03T12:14:11Z</time>
      </trkpt>
      <trkpt lat="46.30475" lon="-0.34095">
        <ele>69.2448</ele>
        <time>2011-07-03T12:14:12Z</time>
      </trkpt>
      <trkpt lat="46.30473" lon="-0.34095">
        <ele>69.277</ele>
        <time>2011-07-03T12:14:13Z</time>
      </trkpt>
      <trkpt lat="46.30472" lon="-0.34095">
        <ele>69.3103</ele>
        <time>2011-07-03T12:14:14Z</time>
      </trkpt>
      <trkpt lat="46.30471" lon="-0.34095">
        <ele>69.3423</ele>
        <time>2011-07-03T12:14:15Z</time>
      </trkpt>
      <trkpt lat="46.3047" lon="-0.34095">
        <ele>69.3745</ele>
        <time>2011-07-03T12:14:16Z</time>
      </trkpt>
      <trkpt lat="46.30468" lon="-0.34094">
        <ele>69.4059</ele>
        <time>2011-07-03T12:14:17Z</time>
      </trkpt>
      <trkpt lat="46.30467" lon="-0.34094">
        <ele>69.4375</ele>
        <time>2011-07-03T12:14:18Z</time>
      </trkpt>
      <trkpt lat="46.30466" lon="-0.34094">
        <ele>69.4701</ele>
        <time>2011-07-03T12:14:19Z</time>
      </trkpt>
      <trkpt lat="46.30465" lon="-0.34093">
        <ele>69.5014</ele>
        <time>2011-07-03T12:14:20Z</time>
      </trkpt>
      <trkpt lat="46.30463" lon="-0.34093">
        <ele>69.5285</ele>
        <time>2011-07-03T12:14:21Z</time>
      </trkpt>
      <trkpt lat="46.30462" lon="-0.34092">
        <ele>69.5505</ele>
        <time>2011-07-03T12:14:22Z</time>
      </trkpt>
      <trkpt lat="46.3046" lon="-0.34092">
        <ele>69.5665</ele>
        <time>2011-07-03T12:14:23Z</time>
      </trkpt>
      <trkpt lat="46.30459" lon="-0.34091">
        <ele>69.5823</ele>
        <time>2011-07-03T12:14:24Z</time>
      </trkpt>
      <trkpt lat="46.30458" lon="-0.34091">
        <ele>69.6024</ele>
        <time>2011-07-03T12:14:25Z</time>
      </trkpt>
      <trkpt lat="46.30456" lon="-0.34091">
        <ele>69.6203</ele>
        <time>2011-07-03T12:14:26Z</time>
      </trkpt>
      <trkpt lat="46.30455" lon="-0.3409">
        <ele>69.6399</ele>
        <time>2011-07-03T12:14:27Z</time>
      </trkpt>
      <trkpt lat="46.30453" lon="-0.3409">
        <ele>69.6579</ele>
        <time>2011-07-03T12:14:28Z</time>
      </trkpt>
      <trkpt lat="46.30452" lon="-0.3409">
        <ele>69.6736</ele>
        <time>2011-07-03T12:14:29Z</time>
      </trkpt>
      <trkpt lat="46.30451" lon="-0.34089">
        <ele>69.6899</ele>
        <time>2011-07-03T12:14:30Z</time>
      </trkpt>
      <trkpt lat="46.30449" lon="-0.34089">
        <ele>69.7065</ele>
        <time>2011-07-03T12:14:31Z</time>
      </trkpt>
      <trkpt lat="46.30448" lon="-0.34088">
        <ele>69.7198</ele>
        <time>2011-07-03T12:14:32Z</time>
      </trkpt>
      <trkpt lat="46.30447" lon="-0.34088">
        <ele>69.7258</ele>
        <time>2011-07-03T12:14:33Z</time>
      </trkpt>
      <trkpt lat="46.30446" lon="-0.34088">
        <ele>69.7357</ele>
        <time>2011-07-03T12:14:34Z</time>
      </trkpt>
      <trkpt lat="46.30445" lon="-0.34088">
        <ele>69.7454</ele>
        <time>2011-07-03T12:14:35Z</time>
      </trkpt>
      <trkpt lat="46.30444" lon="-0.34088">
        <ele>69.7554</ele>
        <time>2011-07-03T12:14:36Z</time>
      </trkpt>
      <trkpt lat="46.30442" lon="-0.34088">
        <ele>69.7671</ele>
        <time>2011-07-03T12:14:37Z</time>
      </trkpt>
      <trkpt lat="46.30441" lon="-0.34088">
        <ele>69.7825</ele>
        <time>2011-07-03T12:14:38Z</time>
      </trkpt>
      <trkpt lat="46.3044" lon="-0.34089">
        <ele>69.798</ele>
        <time>2011-07-03T12:14:39Z</time>
      </trkpt>
      <trkpt lat="46.30438" lon="-0.34089">
        <ele>69.818</ele>
        <time>2011-07-03T12:14:40Z</time>
      </trkpt>
      <trkpt lat="46.30436" lon="-0.34089">
        <ele>69.8392</ele>
        <time>2011-07-03T12:14:41Z</time>
      </trkpt>
      <trkpt lat="46.30434" lon="-0.34088">
        <ele>69.8609</ele>
        <time>2011-07-03T12:14:42Z</time>
      </trkpt>
      <trkpt lat="46.30433" lon="-0.34088">
        <ele>69.8796</ele>
        <time>2011-07-03T12:14:43Z</time>
      </trkpt>
      <trkpt lat="46.30431" lon="-0.34086">
        <ele>69.8925</ele>
        <time>2011-07-03T12:14:44Z</time>
      </trkpt>
      <trkpt lat="46.30429" lon="-0.34085">
        <ele>69.9019</ele>
        <time>2011-07-03T12:14:45Z</time>
      </trkpt>
      <trkpt lat="46.30428" lon="-0.34083">
        <ele>69.9108</ele>
        <time>2011-07-03T12:14:46Z</time>
      </trkpt>
      <trkpt lat="46.30427" lon="-0.34081">
        <ele>69.9182</ele>
        <time>2011-07-03T12:14:47Z</time>
      </trkpt>
      <trkpt lat="46.30426" lon="-0.34081">
        <ele>69.9269</ele>
        <time>2011-07-03T12:14:48Z</time>
      </trkpt>
      <trkpt lat="46.30425" lon="-0.3408">
        <ele>69.936</ele>
        <time>2011-07-03T12:14:49Z</time>
      </trkpt>
      <trkpt lat="46.30424" lon="-0.3408">
        <ele>69.9439</ele>
        <time>2011-07-03T12:14:50Z</time>
      </trkpt>
      <trkpt lat="46.30423" lon="-0.3408">
        <ele>69.9523</ele>
        <time>2011-07-03T12:14:51Z</time>
      </trkpt>
      <trkpt lat="46.30421" lon="-0.34079">
        <ele>69.9618</ele>
        <time>2011-07-03T12:14:52Z</time>
      </trkpt>
      <trkpt lat="46.3042" lon="-0.34079">
        <ele>69.9759</ele>
        <time>2011-07-03T12:14:53Z</time>
      </trkpt>
      <trkpt lat="46.30418" lon="-0.34079">
        <ele>69.9944</ele>
        <time>2011-07-03T12:14:54Z</time>
      </trkpt>
      <trkpt lat="46.30417" lon="-0.34078">
        <ele>70.0135</ele>
        <time>2011-07-03T12:14:55Z</time>
      </trkpt>
      <trkpt lat="46.30415" lon="-0.34078">
        <ele>70.0324</ele>
        <time>2011-07-03T12:14:56Z</time>
      </trkpt>
      <trkpt lat="46.30414" lon="-0.34077">
        <ele>70.0529</ele>
        <time>2011-07-03T12:14:57Z</time>
      </trkpt>
      <trkpt lat="46.30412" lon="-0.34076">
        <ele>70.0772</ele>
        <time>2011-07-03T12:14:58Z</time>
      </trkpt>
      <trkpt lat="46.30411" lon="-0.34075">
        <ele>70.1024</ele>
        <time>2011-07-03T12:14:59Z</time>
      </trkpt>
      <trkpt lat="46.30409" lon="-0.34074">
        <ele>70.1308</ele>
        <time>2011-07-03T12:15:00Z</time>
      </trkpt>
      <trkpt lat="46.30407" lon="-0.34073">
        <ele>70.1598</ele>
        <time>2011-07-03T12:15:01Z</time>
      </trkpt>
      <trkpt lat="46.30406" lon="-0.34072">
        <ele>70.1839</ele>
        <time>2011-07-03T12:15:02Z</time>
      </trkpt>
      <trkpt lat="46.30404" lon="-0.34071">
        <ele>70.2081</ele>
        <time>2011-07-03T12:15:03Z</time>
      </trkpt>
      <trkpt lat="46.30403" lon="-0.3407">
        <ele>70.231</ele>
        <time>2011-07-03T12:15:04Z</time>
      </trkpt>
      <trkpt lat="46.30402" lon="-0.34069">
        <ele>70.2478</ele>
        <time>2011-07-03T12:15:05Z</time>
      </trkpt>
      <trkpt lat="46.30401" lon="-0.34067">
        <ele>70.2615</ele>
        <time>2011-07-03T12:15:06Z</time>
      </trkpt>
      <trkpt lat="46.304" lon="-0.34066">
        <ele>70.2761</ele>
        <time>2011-07-03T12:15:07Z</time>
      </trkpt>
      <trkpt lat="46.30399" lon="-0.34064">
        <ele>70.2903</ele>
        <time>2011-07-03T12:15:08Z</time>
      </trkpt>
      <trkpt lat="46.30398" lon="-0.34063">
        <ele>70.3065</ele>
        <time>2011-07-03T12:15:09Z</time>
      </trkpt>
      <trkpt lat="46.30397" lon="-0.34062">
        <ele>70.3215</ele>
        <time>2011-07-03T12:15:10Z</time>
      </trkpt>
      <trkpt lat="46.30396" lon="-0.3406">
        <ele>70.3375</ele>
        <time>2011-07-03T12:15:11Z</time>
      </trkpt>
      <trkpt lat="46.30394" lon="-0.34059">
        <ele>70.3548</ele>
        <time>2011-07-03T12:15:12Z</time>
      </trkpt>
      <trkpt lat="46.30394" lon="-0.34058">
        <ele>70.3726</ele>
        <time>2011-07-03T12:15:13Z</time>
      </trkpt>
      <trkpt lat="46.30393" lon="-0.34057">
        <ele>70.3898</ele>
        <time>2011-07-03T12:15:14Z</time>
      </trkpt>
      <trkpt lat="46.30392" lon="-0.34055">
        <ele>70.4089</ele>
        <time>2011-07-03T12:15:15Z</time>
      </trkpt>
      <trkpt lat="46.30391" lon="-0.34054">
        <ele>70.4286</ele>
        <time>2011-07-03T12:15:16Z</time>
      </trkpt>
      <trkpt lat="46.3039" lon="-0.34053">
        <ele>70.451</ele>
        <time>2011-07-03T12:15:17Z</time>
      </trkpt>
      <trkpt lat="46.30389" lon="-0.34051">
        <ele>70.4727</ele>
        <time>2011-07-03T12:15:18Z</time>
      </trkpt>
      <trkpt lat="46.30388" lon="-0.3405">
        <ele>70.4957</ele>
        <time>2011-07-03T12:15:19Z</time>
      </trkpt>
      <trkpt lat="46.30387" lon="-0.34048">
        <ele>70.5195</ele>
        <time>2011-07-03T12:15:20Z</time>
      </trkpt>
      <trkpt lat="46.30386" lon="-0.34047">
        <ele>70.5445</ele>
        <time>2011-07-03T12:15:21Z</time>
      </trkpt>
      <trkpt lat="46.30385" lon="-0.34045">
        <ele>70.5715</ele>
        <time>2011-07-03T12:15:22Z</time>
      </trkpt>
      <trkpt lat="46.30384" lon="-0.34044">
        <ele>70.6013</ele>
        <time>2011-07-03T12:15:23Z</time>
      </trkpt>
      <trkpt lat="46.30382" lon="-0.34043">
        <ele>70.6339</ele>
        <time>2011-07-03T12:15:24Z</time>
      </trkpt>
      <trkpt lat="46.30381" lon="-0.34042">
        <ele>70.6662</ele>
        <time>2011-07-03T12:15:25Z</time>
      </trkpt>
      <trkpt lat="46.3038" lon="-0.3404">
        <ele>70.6958</ele>
        <time>2011-07-03T12:15:26Z</time>
      </trkpt>
      <trkpt lat="46.30378" lon="-0.3404">
        <ele>70.7243</ele>
        <time>2011-07-03T12:15:27Z</time>
      </trkpt>
      <trkpt lat="46.30377" lon="-0.34039">
        <ele>70.7528</ele>
        <time>2011-07-03T12:15:28Z</time>
      </trkpt>
      <trkpt lat="46.30376" lon="-0.34037">
        <ele>70.7832</ele>
        <time>2011-07-03T12:15:29Z</time>
      </trkpt>
      <trkpt lat="46.30375" lon="-0.34035">
        <ele>70.8192</ele>
        <time>2011-07-03T12:15:30Z</time>
      </trkpt>
      <trkpt lat="46.30374" lon="-0.34033">
        <ele>70.8587</ele>
        <time>2011-07-03T12:15:31Z</time>
      </trkpt>
      <trkpt lat="46.30373" lon="-0.34031">
        <ele>70.899</ele>
        <time>2011-07-03T12:15:32Z</time>
      </trkpt>
      <trkpt lat="46.30372" lon="-0.34029">
        <ele>70.9369</ele>
        <time>2011-07-03T12:15:33Z</time>
      </trkpt>
      <trkpt lat="46.30372" lon="-0.34027">
        <ele>70.973</ele>
        <time>2011-07-03T12:15:34Z</time>
      </trkpt>
      <trkpt lat="46.3037" lon="-0.34025">
        <ele>71.0084</ele>
        <time>2011-07-03T12:15:35Z</time>
      </trkpt>
      <trkpt lat="46.30369" lon="-0.34023">
        <ele>71.0414</ele>
        <time>2011-07-03T12:15:36Z</time>
      </trkpt>
      <trkpt lat="46.30368" lon="-0.34022">
        <ele>71.0726</ele>
        <time>2011-07-03T12:15:37Z</time>
      </trkpt>
      <trkpt lat="46.30368" lon="-0.3402">
        <ele>71.1004</ele>
        <time>2011-07-03T12:15:38Z</time>
      </trkpt>
      <trkpt lat="46.30367" lon="-0.34019">
        <ele>71.1274</ele>
        <time>2011-07-03T12:15:39Z</time>
      </trkpt>
      <trkpt lat="46.30366" lon="-0.34017">
        <ele>71.1537</ele>
        <time>2011-07-03T12:15:40Z</time>
      </trkpt>
      <trkpt lat="46.30365" lon="-0.34016">
        <ele>71.1795</ele>
        <time>2011-07-03T12:15:41Z</time>
      </trkpt>
      <trkpt lat="46.30364" lon="-0.34015">
        <ele>71.2047</ele>
        <time>2011-07-03T12:15:42Z</time>
      </trkpt>
      <trkpt lat="46.30363" lon="-0.34013">
        <ele>71.2294</ele>
        <time>2011-07-03T12:15:43Z</time>
      </trkpt>
      <trkpt lat="46.30362" lon="-0.34012">
        <ele>71.2543</ele>
        <time>2011-07-03T12:15:44Z</time>
      </trkpt>
      <trkpt lat="46.3036" lon="-0.34011">
        <ele>71.2794</ele>
        <time>2011-07-03T12:15:45Z</time>
      </trkpt>
      <trkpt lat="46.3036" lon="-0.3401">
        <ele>71.3047</ele>
        <time>2011-07-03T12:15:46Z</time>
      </trkpt>
      <trkpt lat="46.30359" lon="-0.34009">
        <ele>71.3322</ele>
        <time>2011-07-03T12:15:47Z</time>
      </trkpt>
      <trkpt lat="46.30357" lon="-0.34008">
        <ele>71.36</ele>
        <time>2011-07-03T12:15:48Z</time>
      </trkpt>
      <trkpt lat="46.30356" lon="-0.34007">
        <ele>71.3865</ele>
        <time>2011-07-03T12:15:49Z</time>
      </trkpt>
      <trkpt lat="46.30356" lon="-0.34006">
        <ele>71.4127</ele>
        <time>2011-07-03T12:15:50Z</time>
      </trkpt>
      <trkpt lat="46.30355" lon="-0.34006">
        <ele>71.4373</ele>
        <time>2011-07-03T12:15:51Z</time>
      </trkpt>
      <trkpt lat="46.30354" lon="-0.34005">
        <ele>71.4596</ele>
        <time>2011-07-03T12:15:52Z</time>
      </trkpt>
      <trkpt lat="46.30352" lon="-0.34004">
        <ele>71.4824</ele>
        <time>2011-07-03T12:15:53Z</time>
      </trkpt>
      <trkpt lat="46.30351" lon="-0.34004">
        <ele>71.5043</ele>
        <time>2011-07-03T12:15:54Z</time>
      </trkpt>
      <trkpt lat="46.3035" lon="-0.34003">
        <ele>71.5261</ele>
        <time>2011-07-03T12:15:55Z</time>
      </trkpt>
      <trkpt lat="46.30349" lon="-0.34003">
        <ele>71.5477</ele>
        <time>2011-07-03T12:15:56Z</time>
      </trkpt>
      <trkpt lat="46.30347" lon="-0.34002">
        <ele>71.5687</ele>
        <time>2011-07-03T12:15:57Z</time>
      </trkpt>
      <trkpt lat="46.30346" lon="-0.34002">
        <ele>71.5895</ele>
        <time>2011-07-03T12:15:58Z</time>
      </trkpt>
      <trkpt lat="46.30345" lon="-0.34001">
        <ele>71.6098</ele>
        <time>2011-07-03T12:15:59Z</time>
      </trkpt>
      <trkpt lat="46.30343" lon="-0.34">
        <ele>71.6301</ele>
        <time>2011-07-03T12:16:00Z</time>
      </trkpt>
      <trkpt lat="46.30342" lon="-0.33999">
        <ele>71.6481</ele>
        <time>2011-07-03T12:16:01Z</time>
      </trkpt>
      <trkpt lat="46.30341" lon="-0.33999">
        <ele>71.6625</ele>
        <time>2011-07-03T12:16:02Z</time>
      </trkpt>
      <trkpt lat="46.30339" lon="-0.33998">
        <ele>71.6766</ele>
        <time>2011-07-03T12:16:03Z</time>
      </trkpt>
      <trkpt lat="46.30338" lon="-0.33997">
        <ele>71.6895</ele>
        <time>2011-07-03T12:16:04Z</time>
      </trkpt>
      <trkpt lat="46.30337" lon="-0.33996">
        <ele>71.7016</ele>
        <time>2011-07-03T12:16:05Z</time>
      </trkpt>
      <trkpt lat="46.30335" lon="-0.33995">
        <ele>71.7124</ele>
        <time>2011-07-03T12:16:06Z</time>
      </trkpt>
      <trkpt lat="46.30334" lon="-0.33994">
        <ele>71.7228</ele>
        <time>2011-07-03T12:16:07Z</time>
      </trkpt>
      <trkpt lat="46.30333" lon="-0.33993">
        <ele>71.7348</ele>
        <time>2011-07-03T12:16:08Z</time>
      </trkpt>
      <trkpt lat="46.30331" lon="-0.33992">
        <ele>71.7468</ele>
        <time>2011-07-03T12:16:09Z</time>
      </trkpt>
      <trkpt lat="46.3033" lon="-0.33992">
        <ele>71.7587</ele>
        <time>2011-07-03T12:16:10Z</time>
      </trkpt>
      <trkpt lat="46.30329" lon="-0.33991">
        <ele>71.7728</ele>
        <time>2011-07-03T12:16:11Z</time>
      </trkpt>
      <trkpt lat="46.30328" lon="-0.3399">
        <ele>71.7845</ele>
        <time>2011-07-03T12:16:12Z</time>
      </trkpt>
      <trkpt lat="46.30327" lon="-0.33989">
        <ele>71.7961</ele>
        <time>2011-07-03T12:16:13Z</time>
      </trkpt>
      <trkpt lat="46.30325" lon="-0.33989">
        <ele>71.8073</ele>
        <time>2011-07-03T12:16:14Z</time>
      </trkpt>
      <trkpt lat="46.30325" lon="-0.33988">
        <ele>71.8175</ele>
        <time>2011-07-03T12:16:15Z</time>
      </trkpt>
      <trkpt lat="46.30323" lon="-0.33987">
        <ele>71.8286</ele>
        <time>2011-07-03T12:16:16Z</time>
      </trkpt>
      <trkpt lat="46.30322" lon="-0.33986">
        <ele>71.8348</ele>
        <time>2011-07-03T12:16:17Z</time>
      </trkpt>
      <trkpt lat="46.3032" lon="-0.33985">
        <ele>71.8416</ele>
        <time>2011-07-03T12:16:18Z</time>
      </trkpt>
      <trkpt lat="46.30319" lon="-0.33984">
        <ele>71.8486</ele>
        <time>2011-07-03T12:16:19Z</time>
      </trkpt>
      <trkpt lat="46.30317" lon="-0.33983">
        <ele>71.8567</ele>
        <time>2011-07-03T12:16:20Z</time>
      </trkpt>
      <trkpt lat="46.30316" lon="-0.33983">
        <ele>71.8645</ele>
        <time>2011-07-03T12:16:21Z</time>
      </trkpt>
      <trkpt lat="46.30315" lon="-0.33982">
        <ele>71.8738</ele>
        <time>2011-07-03T12:16:22Z</time>
      </trkpt>
      <trkpt lat="46.30314" lon="-0.33981">
        <ele>71.8825</ele>
        <time>2011-07-03T12:16:23Z</time>
      </trkpt>
      <trkpt lat="46.30313" lon="-0.33981">
        <ele>71.8918</ele>
        <time>2011-07-03T12:16:24Z</time>
      </trkpt>
      <trkpt lat="46.30312" lon="-0.3398">
        <ele>71.9018</ele>
        <time>2011-07-03T12:16:25Z</time>
      </trkpt>
      <trkpt lat="46.3031" lon="-0.33979">
        <ele>71.9115</ele>
        <time>2011-07-03T12:16:26Z</time>
      </trkpt>
      <trkpt lat="46.30309" lon="-0.33978">
        <ele>71.9216</ele>
        <time>2011-07-03T12:16:27Z</time>
      </trkpt>
      <trkpt lat="46.30308" lon="-0.33978">
        <ele>71.9323</ele>
        <time>2011-07-03T12:16:28Z</time>
      </trkpt>
      <trkpt lat="46.30306" lon="-0.33977">
        <ele>71.9467</ele>
        <time>2011-07-03T12:16:29Z</time>
      </trkpt>
      <trkpt lat="46.30305" lon="-0.33976">
        <ele>71.9639</ele>
        <time>2011-07-03T12:16:30Z</time>
      </trkpt>
      <trkpt lat="46.30304" lon="-0.33975">
        <ele>71.9848</ele>
        <time>2011-07-03T12:16:31Z</time>
      </trkpt>
      <trkpt lat="46.30302" lon="-0.33974">
        <ele>72.0053</ele>
        <time>2011-07-03T12:16:32Z</time>
      </trkpt>
      <trkpt lat="46.30301" lon="-0.33973">
        <ele>72.0258</ele>
        <time>2011-07-03T12:16:33Z</time>
      </trkpt>
      <trkpt lat="46.30299" lon="-0.33973">
        <ele>72.0464</ele>
        <time>2011-07-03T12:16:34Z</time>
      </trkpt>
      <trkpt lat="46.30298" lon="-0.33972">
        <ele>72.0673</ele>
        <time>2011-07-03T12:16:35Z</time>
      </trkpt>
      <trkpt lat="46.30296" lon="-0.33971">
        <ele>72.0881</ele>
        <time>2011-07-03T12:16:36Z</time>
      </trkpt>
      <trkpt lat="46.30295" lon="-0.33971">
        <ele>72.1079</ele>
        <time>2011-07-03T12:16:37Z</time>
      </trkpt>
      <trkpt lat="46.30294" lon="-0.3397">
        <ele>72.1274</ele>
        <time>2011-07-03T12:16:38Z</time>
      </trkpt>
      <trkpt lat="46.30292" lon="-0.33969">
        <ele>72.1468</ele>
        <time>2011-07-03T12:16:39Z</time>
      </trkpt>
      <trkpt lat="46.30291" lon="-0.33969">
        <ele>72.1648</ele>
        <time>2011-07-03T12:16:40Z</time>
      </trkpt>
      <trkpt lat="46.30289" lon="-0.33968">
        <ele>72.1821</ele>
        <time>2011-07-03T12:16:41Z</time>
      </trkpt>
      <trkpt lat="46.30288" lon="-0.33968">
        <ele>72.1974</ele>
        <time>2011-07-03T12:16:42Z</time>
      </trkpt>
      <trkpt lat="46.30287" lon="-0.33968">
        <ele>72.2141</ele>
        <time>2011-07-03T12:16:43Z</time>
      </trkpt>
      <trkpt lat="46.30285" lon="-0.33967">
        <ele>72.2302</ele>
        <time>2011-07-03T12:16:44Z</time>
      </trkpt>
      <trkpt lat="46.30284" lon="-0.33966">
        <ele>72.2513</ele>
        <time>2011-07-03T12:16:45Z</time>
      </trkpt>
      <trkpt lat="46.30283" lon="-0.33965">
        <ele>72.2743</ele>
        <time>2011-07-03T12:16:46Z</time>
      </trkpt>
      <trkpt lat="46.30281" lon="-0.33963">
        <ele>72.3007</ele>
        <time>2011-07-03T12:16:47Z</time>
      </trkpt>
      <trkpt lat="46.3028" lon="-0.33961">
        <ele>72.3279</ele>
        <time>2011-07-03T12:16:48Z</time>
      </trkpt>
      <trkpt lat="46.30279" lon="-0.33959">
        <ele>72.3538</ele>
        <time>2011-07-03T12:16:49Z</time>
      </trkpt>
      <trkpt lat="46.30278" lon="-0.33957">
        <ele>72.3777</ele>
        <time>2011-07-03T12:16:50Z</time>
      </trkpt>
      <trkpt lat="46.30277" lon="-0.33955">
        <ele>72.3995</ele>
        <time>2011-07-03T12:16:51Z</time>
      </trkpt>
      <trkpt lat="46.30275" lon="-0.33955">
        <ele>72.4209</ele>
        <time>2011-07-03T12:16:52Z</time>
      </trkpt>
      <trkpt lat="46.30274" lon="-0.33954">
        <ele>72.4455</ele>
        <time>2011-07-03T12:16:53Z</time>
      </trkpt>
      <trkpt lat="46.30272" lon="-0.33954">
        <ele>72.4758</ele>
        <time>2011-07-03T12:16:54Z</time>
      </trkpt>
      <trkpt lat="46.30271" lon="-0.33954">
        <ele>72.513</ele>
        <time>2011-07-03T12:16:55Z</time>
      </trkpt>
      <trkpt lat="46.3027" lon="-0.33953">
        <ele>72.5483</ele>
        <time>2011-07-03T12:16:56Z</time>
      </trkpt>
      <trkpt lat="46.30269" lon="-0.33953">
        <ele>72.5815</ele>
        <time>2011-07-03T12:16:57Z</time>
      </trkpt>
      <trkpt lat="46.30269" lon="-0.33951">
        <ele>72.6143</ele>
        <time>2011-07-03T12:16:58Z</time>
      </trkpt>
      <trkpt lat="46.30267" lon="-0.3395">
        <ele>72.6411</ele>
        <time>2011-07-03T12:16:59Z</time>
      </trkpt>
      <trkpt lat="46.30266" lon="-0.33948">
        <ele>72.6656</ele>
        <time>2011-07-03T12:17:00Z</time>
      </trkpt>
      <trkpt lat="46.30265" lon="-0.33948">
        <ele>72.6878</ele>
        <time>2011-07-03T12:17:01Z</time>
      </trkpt>
      <trkpt lat="46.30264" lon="-0.33947">
        <ele>72.7054</ele>
        <time>2011-07-03T12:17:02Z</time>
      </trkpt>
      <trkpt lat="46.30263" lon="-0.33947">
        <ele>72.7179</ele>
        <time>2011-07-03T12:17:03Z</time>
      </trkpt>
      <trkpt lat="46.30262" lon="-0.33946">
        <ele>72.7302</ele>
        <time>2011-07-03T12:17:04Z</time>
      </trkpt>
      <trkpt lat="46.30261" lon="-0.33946">
        <ele>72.7478</ele>
        <time>2011-07-03T12:17:05Z</time>
      </trkpt>
      <trkpt lat="46.30259" lon="-0.33946">
        <ele>72.7643</ele>
        <time>2011-07-03T12:17:06Z</time>
      </trkpt>
      <trkpt lat="46.30258" lon="-0.33946">
        <ele>72.7791</ele>
        <time>2011-07-03T12:17:07Z</time>
      </trkpt>
      <trkpt lat="46.30257" lon="-0.33946">
        <ele>72.7917</ele>
        <time>2011-07-03T12:17:08Z</time>
      </trkpt>
      <trkpt lat="46.30256" lon="-0.33946">
        <ele>72.7997</ele>
        <time>2011-07-03T12:17:09Z</time>
      </trkpt>
      <trkpt lat="46.30254" lon="-0.33946">
        <ele>72.8046</ele>
        <time>2011-07-03T12:17:10Z</time>
      </trkpt>
      <trkpt lat="46.30253" lon="-0.33946">
        <ele>72.8075</ele>
        <time>2011-07-03T12:17:11Z</time>
      </trkpt>
      <trkpt lat="46.30252" lon="-0.33946">
        <ele>72.8112</ele>
        <time>2011-07-03T12:17:12Z</time>
      </trkpt>
      <trkpt lat="46.30251" lon="-0.33945">
        <ele>72.8158</ele>
        <time>2011-07-03T12:17:13Z</time>
      </trkpt>
      <trkpt lat="46.30249" lon="-0.33945">
        <ele>72.8215</ele>
        <time>2011-07-03T12:17:14Z</time>
      </trkpt>
      <trkpt lat="46.30248" lon="-0.33946">
        <ele>72.8238</ele>
        <time>2011-07-03T12:17:15Z</time>
      </trkpt>
      <trkpt lat="46.30246" lon="-0.33946">
        <ele>72.8261</ele>
        <time>2011-07-03T12:17:16Z</time>
      </trkpt>
      <trkpt lat="46.30246" lon="-0.33947">
        <ele>72.8281</ele>
        <time>2011-07-03T12:17:17Z</time>
      </trkpt>
      <trkpt lat="46.30245" lon="-0.33947">
        <ele>72.8304</ele>
        <time>2011-07-03T12:17:18Z</time>
      </trkpt>
      <trkpt lat="46.30244" lon="-0.33947">
        <ele>72.8321</ele>
        <time>2011-07-03T12:17:19Z</time>
      </trkpt>
      <trkpt lat="46.30243" lon="-0.33947">
        <ele>72.8308</ele>
        <time>2011-07-03T12:17:20Z</time>
      </trkpt>
      <trkpt lat="46.30241" lon="-0.33947">
        <ele>72.8252</ele>
        <time>2011-07-03T12:17:21Z</time>
      </trkpt>
      <trkpt lat="46.3024" lon="-0.33947">
        <ele>72.8209</ele>
        <time>2011-07-03T12:17:22Z</time>
      </trkpt>
      <trkpt lat="46.30239" lon="-0.33948">
        <ele>72.8176</ele>
        <time>2011-07-03T12:17:23Z</time>
      </trkpt>
      <trkpt lat="46.30238" lon="-0.33948">
        <ele>72.8105</ele>
        <time>2011-07-03T12:17:24Z</time>
      </trkpt>
      <trkpt lat="46.30236" lon="-0.33947">
        <ele>72.8039</ele>
        <time>2011-07-03T12:17:25Z</time>
      </trkpt>
      <trkpt lat="46.30235" lon="-0.33947">
        <ele>72.7965</ele>
        <time>2011-07-03T12:17:26Z</time>
      </trkpt>
      <trkpt lat="46.30234" lon="-0.33947">
        <ele>72.7901</ele>
        <time>2011-07-03T12:17:27Z</time>
      </trkpt>
      <trkpt lat="46.30233" lon="-0.33947">
        <ele>72.7723</ele>
        <time>2011-07-03T12:17:28Z</time>
      </trkpt>
      <trkpt lat="46.30232" lon="-0.33947">
        <ele>72.7469</ele>
        <time>2011-07-03T12:17:29Z</time>
      </trkpt>
      <trkpt lat="46.3023" lon="-0.33948">
        <ele>72.7218</ele>
        <time>2011-07-03T12:17:30Z</time>
      </trkpt>
      <trkpt lat="46.30229" lon="-0.33948">
        <ele>72.6953</ele>
        <time>2011-07-03T12:17:31Z</time>
      </trkpt>
      <trkpt lat="46.30228" lon="-0.33948">
        <ele>72.672</ele>
        <time>2011-07-03T12:17:32Z</time>
      </trkpt>
      <trkpt lat="46.30226" lon="-0.33948">
        <ele>72.65</ele>
        <time>2011-07-03T12:17:33Z</time>
      </trkpt>
      <trkpt lat="46.30225" lon="-0.33948">
        <ele>72.6246</ele>
        <time>2011-07-03T12:17:34Z</time>
      </trkpt>
      <trkpt lat="46.30223" lon="-0.33948">
        <ele>72.6012</ele>
        <time>2011-07-03T12:17:35Z</time>
      </trkpt>
      <trkpt lat="46.30222" lon="-0.33947">
        <ele>72.5773</ele>
        <time>2011-07-03T12:17:36Z</time>
      </trkpt>
      <trkpt lat="46.3022" lon="-0.33947">
        <ele>72.5544</ele>
        <time>2011-07-03T12:17:37Z</time>
      </trkpt>
      <trkpt lat="46.30219" lon="-0.33947">
        <ele>72.5323</ele>
        <time>2011-07-03T12:17:38Z</time>
      </trkpt>
      <trkpt lat="46.30217" lon="-0.33947">
        <ele>72.511</ele>
        <time>2011-07-03T12:17:39Z</time>
      </trkpt>
      <trkpt lat="46.30216" lon="-0.33947">
        <ele>72.4872</ele>
        <time>2011-07-03T12:17:40Z</time>
      </trkpt>
      <trkpt lat="46.30214" lon="-0.33947">
        <ele>72.4641</ele>
        <time>2011-07-03T12:17:41Z</time>
      </trkpt>
      <trkpt lat="46.30212" lon="-0.33948">
        <ele>72.4436</ele>
        <time>2011-07-03T12:17:42Z</time>
      </trkpt>
      <trkpt lat="46.30211" lon="-0.33948">
        <ele>72.425</ele>
        <time>2011-07-03T12:17:43Z</time>
      </trkpt>
      <trkpt lat="46.30209" lon="-0.33949">
        <ele>72.4083</ele>
        <time>2011-07-03T12:17:44Z</time>
      </trkpt>
      <trkpt lat="46.30208" lon="-0.33949">
        <ele>72.3928</ele>
        <time>2011-07-03T12:17:45Z</time>
      </trkpt>
      <trkpt lat="46.30207" lon="-0.33949">
        <ele>72.3797</ele>
        <time>2011-07-03T12:17:46Z</time>
      </trkpt>
      <trkpt lat="46.30205" lon="-0.33949">
        <ele>72.3676</ele>
        <time>2011-07-03T12:17:47Z</time>
      </trkpt>
      <trkpt lat="46.30203" lon="-0.3395">
        <ele>72.3572</ele>
        <time>2011-07-03T12:17:48Z</time>
      </trkpt>
      <trkpt lat="46.30202" lon="-0.3395">
        <ele>72.3486</ele>
        <time>2011-07-03T12:17:49Z</time>
      </trkpt>
      <trkpt lat="46.302" lon="-0.3395">
        <ele>72.3408</ele>
        <time>2011-07-03T12:17:50Z</time>
      </trkpt>
      <trkpt lat="46.30199" lon="-0.33951">
        <ele>72.3335</ele>
        <time>2011-07-03T12:17:51Z</time>
      </trkpt>
      <trkpt lat="46.30197" lon="-0.33951">
        <ele>72.3286</ele>
        <time>2011-07-03T12:17:52Z</time>
      </trkpt>
      <trkpt lat="46.30196" lon="-0.33951">
        <ele>72.3264</ele>
        <time>2011-07-03T12:17:53Z</time>
      </trkpt>
      <trkpt lat="46.30195" lon="-0.33952">
        <ele>72.3259</ele>
        <time>2011-07-03T12:17:54Z</time>
      </trkpt>
      <trkpt lat="46.30193" lon="-0.33952">
        <ele>72.3266</ele>
        <time>2011-07-03T12:17:55Z</time>
      </trkpt>
      <trkpt lat="46.30192" lon="-0.33952">
        <ele>72.3281</ele>
        <time>2011-07-03T12:17:56Z</time>
      </trkpt>
      <trkpt lat="46.30191" lon="-0.33952">
        <ele>72.3297</ele>
        <time>2011-07-03T12:17:57Z</time>
      </trkpt>
      <trkpt lat="46.30189" lon="-0.33952">
        <ele>72.33</ele>
        <time>2011-07-03T12:17:58Z</time>
      </trkpt>
      <trkpt lat="46.30188" lon="-0.33952">
        <ele>72.3297</ele>
        <time>2011-07-03T12:17:59Z</time>
      </trkpt>
      <trkpt lat="46.30187" lon="-0.33952">
        <ele>72.3262</ele>
        <time>2011-07-03T12:18:00Z</time>
      </trkpt>
      <trkpt lat="46.30185" lon="-0.33952">
        <ele>72.3241</ele>
        <time>2011-07-03T12:18:01Z</time>
      </trkpt>
      <trkpt lat="46.30184" lon="-0.33952">
        <ele>72.3211</ele>
        <time>2011-07-03T12:18:02Z</time>
      </trkpt>
      <trkpt lat="46.30183" lon="-0.33953">
        <ele>72.3196</ele>
        <time>2011-07-03T12:18:03Z</time>
      </trkpt>
      <trkpt lat="46.30181" lon="-0.33953">
        <ele>72.3196</ele>
        <time>2011-07-03T12:18:04Z</time>
      </trkpt>
      <trkpt lat="46.3018" lon="-0.33953">
        <ele>72.3218</ele>
        <time>2011-07-03T12:18:05Z</time>
      </trkpt>
      <trkpt lat="46.30179" lon="-0.33953">
        <ele>72.3269</ele>
        <time>2011-07-03T12:18:06Z</time>
      </trkpt>
      <trkpt lat="46.30177" lon="-0.33953">
        <ele>72.3342</ele>
        <time>2011-07-03T12:18:07Z</time>
      </trkpt>
      <trkpt lat="46.30176" lon="-0.33953">
        <ele>72.3424</ele>
        <time>2011-07-03T12:18:08Z</time>
      </trkpt>
      <trkpt lat="46.30175" lon="-0.33953">
        <ele>72.3483</ele>
        <time>2011-07-03T12:18:09Z</time>
      </trkpt>
      <trkpt lat="46.30173" lon="-0.33953">
        <ele>72.3526</ele>
        <time>2011-07-03T12:18:10Z</time>
      </trkpt>
      <trkpt lat="46.30172" lon="-0.33953">
        <ele>72.3563</ele>
        <time>2011-07-03T12:18:11Z</time>
      </trkpt>
      <trkpt lat="46.3017" lon="-0.33953">
        <ele>72.3601</ele>
        <time>2011-07-03T12:18:12Z</time>
      </trkpt>
      <trkpt lat="46.30169" lon="-0.33953">
        <ele>72.3638</ele>
        <time>2011-07-03T12:18:13Z</time>
      </trkpt>
      <trkpt lat="46.30168" lon="-0.33954">
        <ele>72.3686</ele>
        <time>2011-07-03T12:18:14Z</time>
      </trkpt>
      <trkpt lat="46.30166" lon="-0.33954">
        <ele>72.3732</ele>
        <time>2011-07-03T12:18:15Z</time>
      </trkpt>
      <trkpt lat="46.30165" lon="-0.33954">
        <ele>72.377</ele>
        <time>2011-07-03T12:18:16Z</time>
      </trkpt>
      <trkpt lat="46.30164" lon="-0.33955">
        <ele>72.38</ele>
        <time>2011-07-03T12:18:17Z</time>
      </trkpt>
      <trkpt lat="46.30163" lon="-0.33955">
        <ele>72.3842</ele>
        <time>2011-07-03T12:18:18Z</time>
      </trkpt>
      <trkpt lat="46.30162" lon="-0.33955">
        <ele>72.3913</ele>
        <time>2011-07-03T12:18:19Z</time>
      </trkpt>
      <trkpt lat="46.30161" lon="-0.33955">
        <ele>72.3946</ele>
        <time>2011-07-03T12:18:20Z</time>
      </trkpt>
      <trkpt lat="46.30159" lon="-0.33955">
        <ele>72.3959</ele>
        <time>2011-07-03T12:18:21Z</time>
      </trkpt>
      <trkpt lat="46.30158" lon="-0.33956">
        <ele>72.3939</ele>
        <time>2011-07-03T12:18:22Z</time>
      </trkpt>
      <trkpt lat="46.30156" lon="-0.33956">
        <ele>72.3879</ele>
        <time>2011-07-03T12:18:23Z</time>
      </trkpt>
      <trkpt lat="46.30154" lon="-0.33956">
        <ele>72.379</ele>
        <time>2011-07-03T12:18:24Z</time>
      </trkpt>
      <trkpt lat="46.30153" lon="-0.33956">
        <ele>72.3719</ele>
        <time>2011-07-03T12:18:25Z</time>
      </trkpt>
      <trkpt lat="46.30152" lon="-0.33956">
        <ele>72.3648</ele>
        <time>2011-07-03T12:18:26Z</time>
      </trkpt>
      <trkpt lat="46.30151" lon="-0.33956">
        <ele>72.3639</ele>
        <time>2011-07-03T12:18:27Z</time>
      </trkpt>
      <trkpt lat="46.3015" lon="-0.33956">
        <ele>72.3635</ele>
        <time>2011-07-03T12:18:28Z</time>
      </trkpt>
      <trkpt lat="46.30148" lon="-0.33956">
        <ele>72.3679</ele>
        <time>2011-07-03T12:18:29Z</time>
      </trkpt>
      <trkpt lat="46.30147" lon="-0.33956">
        <ele>72.3706</ele>
        <time>2011-07-03T12:18:30Z</time>
      </trkpt>
      <trkpt lat="46.30146" lon="-0.33956">
        <ele>72.3739</ele>
        <time>2011-07-03T12:18:31Z</time>
      </trkpt>
      <trkpt lat="46.30145" lon="-0.33957">
        <ele>72.3792</ele>
        <time>2011-07-03T12:18:32Z</time>
      </trkpt>
      <trkpt lat="46.30144" lon="-0.33957">
        <ele>72.3908</ele>
        <time>2011-07-03T12:18:33Z</time>
      </trkpt>
      <trkpt lat="46.30142" lon="-0.33958">
        <ele>72.404</ele>
        <time>2011-07-03T12:18:34Z</time>
      </trkpt>
      <trkpt lat="46.30141" lon="-0.33958">
        <ele>72.4188</ele>
        <time>2011-07-03T12:18:35Z</time>
      </trkpt>
      <trkpt lat="46.3014" lon="-0.33959">
        <ele>72.4351</ele>
        <time>2011-07-03T12:18:36Z</time>
      </trkpt>
      <trkpt lat="46.30138" lon="-0.33959">
        <ele>72.4472</ele>
        <time>2011-07-03T12:18:37Z</time>
      </trkpt>
      <trkpt lat="46.30137" lon="-0.33959">
        <ele>72.4605</ele>
        <time>2011-07-03T12:18:38Z</time>
      </trkpt>
      <trkpt lat="46.30136" lon="-0.3396">
        <ele>72.4734</ele>
        <time>2011-07-03T12:18:39Z</time>
      </trkpt>
      <trkpt lat="46.30134" lon="-0.3396">
        <ele>72.4872</ele>
        <time>2011-07-03T12:18:40Z</time>
      </trkpt>
      <trkpt lat="46.30133" lon="-0.3396">
        <ele>72.5056</ele>
        <time>2011-07-03T12:18:41Z</time>
      </trkpt>
      <trkpt lat="46.30132" lon="-0.3396">
        <ele>72.5261</ele>
        <time>2011-07-03T12:18:42Z</time>
      </trkpt>
      <trkpt lat="46.30131" lon="-0.33959">
        <ele>72.5479</ele>
        <time>2011-07-03T12:18:43Z</time>
      </trkpt>
      <trkpt lat="46.3013" lon="-0.3396">
        <ele>72.5717</ele>
        <time>2011-07-03T12:18:44Z</time>
      </trkpt>
      <trkpt lat="46.30129" lon="-0.3396">
        <ele>72.5946</ele>
        <time>2011-07-03T12:18:45Z</time>
      </trkpt>
      <trkpt lat="46.30127" lon="-0.33959">
        <ele>72.6184</ele>
        <time>2011-07-03T12:18:46Z</time>
      </trkpt>
      <trkpt lat="46.30126" lon="-0.33959">
        <ele>72.642</ele>
        <time>2011-07-03T12:18:47Z</time>
      </trkpt>
      <trkpt lat="46.30125" lon="-0.33959">
        <ele>72.6676</ele>
        <time>2011-07-03T12:18:48Z</time>
      </trkpt>
      <trkpt lat="46.30124" lon="-0.33959">
        <ele>72.6977</ele>
        <time>2011-07-03T12:18:49Z</time>
      </trkpt>
      <trkpt lat="46.30122" lon="-0.33959">
        <ele>72.729</ele>
        <time>2011-07-03T12:18:50Z</time>
      </trkpt>
      <trkpt lat="46.30121" lon="-0.33959">
        <ele>72.7623</ele>
        <time>2011-07-03T12:18:51Z</time>
      </trkpt>
      <trkpt lat="46.30119" lon="-0.33959">
        <ele>72.7971</ele>
        <time>2011-07-03T12:18:52Z</time>
      </trkpt>
      <trkpt lat="46.30118" lon="-0.33959">
        <ele>72.8319</ele>
        <time>2011-07-03T12:18:53Z</time>
      </trkpt>
      <trkpt lat="46.30116" lon="-0.3396">
        <ele>72.864</ele>
        <time>2011-07-03T12:18:54Z</time>
      </trkpt>
      <trkpt lat="46.30115" lon="-0.3396">
        <ele>72.8975</ele>
        <time>2011-07-03T12:18:55Z</time>
      </trkpt>
      <trkpt lat="46.30113" lon="-0.3396">
        <ele>72.9317</ele>
        <time>2011-07-03T12:18:56Z</time>
      </trkpt>
      <trkpt lat="46.30111" lon="-0.3396">
        <ele>72.9671</ele>
        <time>2011-07-03T12:18:57Z</time>
      </trkpt>
      <trkpt lat="46.30109" lon="-0.3396">
        <ele>73.0038</ele>
        <time>2011-07-03T12:18:58Z</time>
      </trkpt>
      <trkpt lat="46.30108" lon="-0.3396">
        <ele>73.0413</ele>
        <time>2011-07-03T12:18:59Z</time>
      </trkpt>
      <trkpt lat="46.30106" lon="-0.3396">
        <ele>73.0801</ele>
        <time>2011-07-03T12:19:00Z</time>
      </trkpt>
      <trkpt lat="46.30104" lon="-0.3396">
        <ele>73.121</ele>
        <time>2011-07-03T12:19:01Z</time>
      </trkpt>
      <trkpt lat="46.30103" lon="-0.3396">
        <ele>73.1608</ele>
        <time>2011-07-03T12:19:02Z</time>
      </trkpt>
      <trkpt lat="46.30102" lon="-0.3396">
        <ele>73.2033</ele>
        <time>2011-07-03T12:19:03Z</time>
      </trkpt>
      <trkpt lat="46.301" lon="-0.33961">
        <ele>73.2463</ele>
        <time>2011-07-03T12:19:04Z</time>
      </trkpt>
      <trkpt lat="46.30099" lon="-0.33961">
        <ele>73.2904</ele>
        <time>2011-07-03T12:19:05Z</time>
      </trkpt>
      <trkpt lat="46.30098" lon="-0.33961">
        <ele>73.3346</ele>
        <time>2011-07-03T12:19:06Z</time>
      </trkpt>
      <trkpt lat="46.30096" lon="-0.33961">
        <ele>73.3797</ele>
        <time>2011-07-03T12:19:07Z</time>
      </trkpt>
      <trkpt lat="46.30095" lon="-0.33961">
        <ele>73.4243</ele>
        <time>2011-07-03T12:19:08Z</time>
      </trkpt>
      <trkpt lat="46.30094" lon="-0.33961">
        <ele>73.4677</ele>
        <time>2011-07-03T12:19:09Z</time>
      </trkpt>
      <trkpt lat="46.30093" lon="-0.33961">
        <ele>73.5115</ele>
        <time>2011-07-03T12:19:10Z</time>
      </trkpt>
      <trkpt lat="46.30092" lon="-0.33961">
        <ele>73.5557</ele>
        <time>2011-07-03T12:19:11Z</time>
      </trkpt>
      <trkpt lat="46.3009" lon="-0.33961">
        <ele>73.5998</ele>
        <time>2011-07-03T12:19:12Z</time>
      </trkpt>
      <trkpt lat="46.30088" lon="-0.33961">
        <ele>73.6439</ele>
        <time>2011-07-03T12:19:13Z</time>
      </trkpt>
      <trkpt lat="46.30087" lon="-0.33961">
        <ele>73.6887</ele>
        <time>2011-07-03T12:19:14Z</time>
      </trkpt>
      <trkpt lat="46.30085" lon="-0.33961">
        <ele>73.7346</ele>
        <time>2011-07-03T12:19:15Z</time>
      </trkpt>
      <trkpt lat="46.30084" lon="-0.33961">
        <ele>73.7806</ele>
        <time>2011-07-03T12:19:16Z</time>
      </trkpt>
      <trkpt lat="46.30083" lon="-0.33961">
        <ele>73.8263</ele>
        <time>2011-07-03T12:19:17Z</time>
      </trkpt>
      <trkpt lat="46.30081" lon="-0.33961">
        <ele>73.8714</ele>
        <time>2011-07-03T12:19:18Z</time>
      </trkpt>
      <trkpt lat="46.3008" lon="-0.3396">
        <ele>73.9166</ele>
        <time>2011-07-03T12:19:19Z</time>
      </trkpt>
      <trkpt lat="46.30079" lon="-0.3396">
        <ele>73.9602</ele>
        <time>2011-07-03T12:19:20Z</time>
      </trkpt>
      <trkpt lat="46.30078" lon="-0.3396">
        <ele>74.003</ele>
        <time>2011-07-03T12:19:21Z</time>
      </trkpt>
      <trkpt lat="46.30077" lon="-0.3396">
        <ele>74.0443</ele>
        <time>2011-07-03T12:19:22Z</time>
      </trkpt>
      <trkpt lat="46.30076" lon="-0.33961">
        <ele>74.0846</ele>
        <time>2011-07-03T12:19:23Z</time>
      </trkpt>
      <trkpt lat="46.30074" lon="-0.33961">
        <ele>74.1245</ele>
        <time>2011-07-03T12:19:24Z</time>
      </trkpt>
      <trkpt lat="46.30073" lon="-0.33962">
        <ele>74.1625</ele>
        <time>2011-07-03T12:19:25Z</time>
      </trkpt>
      <trkpt lat="46.30072" lon="-0.33962">
        <ele>74.2013</ele>
        <time>2011-07-03T12:19:26Z</time>
      </trkpt>
      <trkpt lat="46.30071" lon="-0.33962">
        <ele>74.2393</ele>
        <time>2011-07-03T12:19:27Z</time>
      </trkpt>
      <trkpt lat="46.30069" lon="-0.33962">
        <ele>74.2752</ele>
        <time>2011-07-03T12:19:28Z</time>
      </trkpt>
      <trkpt lat="46.30067" lon="-0.33962">
        <ele>74.3105</ele>
        <time>2011-07-03T12:19:29Z</time>
      </trkpt>
      <trkpt lat="46.30066" lon="-0.33962">
        <ele>74.3482</ele>
        <time>2011-07-03T12:19:30Z</time>
      </trkpt>
      <trkpt lat="46.30065" lon="-0.33962">
        <ele>74.3872</ele>
        <time>2011-07-03T12:19:31Z</time>
      </trkpt>
      <trkpt lat="46.30063" lon="-0.33962">
        <ele>74.4258</ele>
        <time>2011-07-03T12:19:32Z</time>
      </trkpt>
      <trkpt lat="46.30062" lon="-0.33962">
        <ele>74.4629</ele>
        <time>2011-07-03T12:19:33Z</time>
      </trkpt>
      <trkpt lat="46.30061" lon="-0.33962">
        <ele>74.4996</ele>
        <time>2011-07-03T12:19:34Z</time>
      </trkpt>
      <trkpt lat="46.30059" lon="-0.33962">
        <ele>74.5371</ele>
        <time>2011-07-03T12:19:35Z</time>
      </trkpt>
      <trkpt lat="46.30058" lon="-0.33962">
        <ele>74.575</ele>
        <time>2011-07-03T12:19:36Z</time>
      </trkpt>
      <trkpt lat="46.30057" lon="-0.33962">
        <ele>74.6127</ele>
        <time>2011-07-03T12:19:37Z</time>
      </trkpt>
      <trkpt lat="46.30056" lon="-0.33963">
        <ele>74.6514</ele>
        <time>2011-07-03T12:19:38Z</time>
      </trkpt>
      <trkpt lat="46.30055" lon="-0.33963">
        <ele>74.6931</ele>
        <time>2011-07-03T12:19:39Z</time>
      </trkpt>
      <trkpt lat="46.30053" lon="-0.33964">
        <ele>74.7357</ele>
        <time>2011-07-03T12:19:40Z</time>
      </trkpt>
      <trkpt lat="46.30052" lon="-0.33964">
        <ele>74.7795</ele>
        <time>2011-07-03T12:19:41Z</time>
      </trkpt>
      <trkpt lat="46.30051" lon="-0.33964">
        <ele>74.8196</ele>
        <time>2011-07-03T12:19:42Z</time>
      </trkpt>
      <trkpt lat="46.3005" lon="-0.33964">
        <ele>74.8599</ele>
        <time>2011-07-03T12:19:43Z</time>
      </trkpt>
      <trkpt lat="46.30048" lon="-0.33964">
        <ele>74.9012</ele>
        <time>2011-07-03T12:19:44Z</time>
      </trkpt>
      <trkpt lat="46.30047" lon="-0.33964">
        <ele>74.9403</ele>
        <time>2011-07-03T12:19:45Z</time>
      </trkpt>
      <trkpt lat="46.30046" lon="-0.33964">
        <ele>74.9749</ele>
        <time>2011-07-03T12:19:46Z</time>
      </trkpt>
      <trkpt lat="46.30045" lon="-0.33965">
        <ele>75.0084</ele>
        <time>2011-07-03T12:19:47Z</time>
      </trkpt>
      <trkpt lat="46.30044" lon="-0.33965">
        <ele>75.0394</ele>
        <time>2011-07-03T12:19:48Z</time>
      </trkpt>
      <trkpt lat="46.30042" lon="-0.33965">
        <ele>75.0699</ele>
        <time>2011-07-03T12:19:49Z</time>
      </trkpt>
      <trkpt lat="46.30041" lon="-0.33965">
        <ele>75.0999</ele>
        <time>2011-07-03T12:19:50Z</time>
      </trkpt>
      <trkpt lat="46.3004" lon="-0.33965">
        <ele>75.1298</ele>
        <time>2011-07-03T12:19:51Z</time>
      </trkpt>
      <trkpt lat="46.30037" lon="-0.33965">
        <ele>75.1496</ele>
        <time>2011-07-03T12:19:52Z</time>
      </trkpt>
      <trkpt lat="46.30035" lon="-0.33965">
        <ele>75.1741</ele>
        <time>2011-07-03T12:19:53Z</time>
      </trkpt>
      <trkpt lat="46.30034" lon="-0.33965">
        <ele>75.1955</ele>
        <time>2011-07-03T12:19:54Z</time>
      </trkpt>
      <trkpt lat="46.30032" lon="-0.33965">
        <ele>75.2117</ele>
        <time>2011-07-03T12:19:55Z</time>
      </trkpt>
      <trkpt lat="46.30031" lon="-0.33965">
        <ele>75.2268</ele>
        <time>2011-07-03T12:19:56Z</time>
      </trkpt>
      <trkpt lat="46.30029" lon="-0.33964">
        <ele>75.2168</ele>
        <time>2011-07-03T12:19:57Z</time>
      </trkpt>
      <trkpt lat="46.30028" lon="-0.33964">
        <ele>75.204</ele>
        <time>2011-07-03T12:19:58Z</time>
      </trkpt>
      <trkpt lat="46.30027" lon="-0.33964">
        <ele>75.1914</ele>
        <time>2011-07-03T12:19:59Z</time>
      </trkpt>
      <trkpt lat="46.30026" lon="-0.33964">
        <ele>75.1825</ele>
        <time>2011-07-03T12:20:00Z</time>
      </trkpt>
      <trkpt lat="46.30024" lon="-0.33964">
        <ele>75.1693</ele>
        <time>2011-07-03T12:20:01Z</time>
      </trkpt>
      <trkpt lat="46.30023" lon="-0.33964">
        <ele>75.1589</ele>
        <time>2011-07-03T12:20:02Z</time>
      </trkpt>
      <trkpt lat="46.30022" lon="-0.33964">
        <ele>75.1479</ele>
        <time>2011-07-03T12:20:03Z</time>
      </trkpt>
      <trkpt lat="46.30021" lon="-0.33964">
        <ele>75.1356</ele>
        <time>2011-07-03T12:20:04Z</time>
      </trkpt>
      <trkpt lat="46.3002" lon="-0.33964">
        <ele>75.1406</ele>
        <time>2011-07-03T12:20:05Z</time>
      </trkpt>
      <trkpt lat="46.30018" lon="-0.33965">
        <ele>75.148</ele>
        <time>2011-07-03T12:20:06Z</time>
      </trkpt>
      <trkpt lat="46.30017" lon="-0.33965">
        <ele>75.155</ele>
        <time>2011-07-03T12:20:07Z</time>
      </trkpt>
      <trkpt lat="46.30016" lon="-0.33965">
        <ele>75.1615</ele>
        <time>2011-07-03T12:20:08Z</time>
      </trkpt>
      <trkpt lat="46.30014" lon="-0.33965">
        <ele>75.1683</ele>
        <time>2011-07-03T12:20:09Z</time>
      </trkpt>
      <trkpt lat="46.30013" lon="-0.33965">
        <ele>75.1763</ele>
        <time>2011-07-03T12:20:10Z</time>
      </trkpt>
      <trkpt lat="46.30012" lon="-0.33966">
        <ele>75.1875</ele>
        <time>2011-07-03T12:20:11Z</time>
      </trkpt>
      <trkpt lat="46.30011" lon="-0.33966">
        <ele>75.2023</ele>
        <time>2011-07-03T12:20:12Z</time>
      </trkpt>
      <trkpt lat="46.3001" lon="-0.33966">
        <ele>75.2181</ele>
        <time>2011-07-03T12:20:13Z</time>
      </trkpt>
      <trkpt lat="46.30008" lon="-0.33966">
        <ele>75.2359</ele>
        <time>2011-07-03T12:20:14Z</time>
      </trkpt>
      <trkpt lat="46.30007" lon="-0.33966">
        <ele>75.2599</ele>
        <time>2011-07-03T12:20:15Z</time>
      </trkpt>
      <trkpt lat="46.30006" lon="-0.33966">
        <ele>75.2853</ele>
        <time>2011-07-03T12:20:16Z</time>
      </trkpt>
      <trkpt lat="46.30005" lon="-0.33966">
        <ele>75.3114</ele>
        <time>2011-07-03T12:20:17Z</time>
      </trkpt>
      <trkpt lat="46.30003" lon="-0.33967">
        <ele>75.3367</ele>
        <time>2011-07-03T12:20:18Z</time>
      </trkpt>
      <trkpt lat="46.30002" lon="-0.33967">
        <ele>75.3613</ele>
        <time>2011-07-03T12:20:19Z</time>
      </trkpt>
      <trkpt lat="46.30001" lon="-0.33967">
        <ele>75.3859</ele>
        <time>2011-07-03T12:20:20Z</time>
      </trkpt>
      <trkpt lat="46.3" lon="-0.33967">
        <ele>75.4083</ele>
        <time>2011-07-03T12:20:21Z</time>
      </trkpt>
      <trkpt lat="46.29999" lon="-0.33968">
        <ele>75.4238</ele>
        <time>2011-07-03T12:20:22Z</time>
      </trkpt>
      <trkpt lat="46.29998" lon="-0.33969">
        <ele>75.4398</ele>
        <time>2011-07-03T12:20:23Z</time>
      </trkpt>
      <trkpt lat="46.29997" lon="-0.33971">
        <ele>75.4498</ele>
        <time>2011-07-03T12:20:24Z</time>
      </trkpt>
      <trkpt lat="46.29996" lon="-0.33971">
        <ele>75.4544</ele>
        <time>2011-07-03T12:20:25Z</time>
      </trkpt>
      <trkpt lat="46.29995" lon="-0.33972">
        <ele>75.4612</ele>
        <time>2011-07-03T12:20:26Z</time>
      </trkpt>
      <trkpt lat="46.29993" lon="-0.33973">
        <ele>75.4708</ele>
        <time>2011-07-03T12:20:27Z</time>
      </trkpt>
      <trkpt lat="46.29992" lon="-0.33974">
        <ele>75.4799</ele>
        <time>2011-07-03T12:20:28Z</time>
      </trkpt>
      <trkpt lat="46.29991" lon="-0.33975">
        <ele>75.4852</ele>
        <time>2011-07-03T12:20:29Z</time>
      </trkpt>
      <trkpt lat="46.2999" lon="-0.33976">
        <ele>75.4816</ele>
        <time>2011-07-03T12:20:30Z</time>
      </trkpt>
      <trkpt lat="46.29989" lon="-0.33976">
        <ele>75.4632</ele>
        <time>2011-07-03T12:20:31Z</time>
      </trkpt>
      <trkpt lat="46.29987" lon="-0.33976">
        <ele>75.4305</ele>
        <time>2011-07-03T12:20:32Z</time>
      </trkpt>
      <trkpt lat="46.29985" lon="-0.33976">
        <ele>75.3918</ele>
        <time>2011-07-03T12:20:33Z</time>
      </trkpt>
      <trkpt lat="46.29984" lon="-0.33976">
        <ele>75.3476</ele>
        <time>2011-07-03T12:20:34Z</time>
      </trkpt>
      <trkpt lat="46.29983" lon="-0.33976">
        <ele>75.3</ele>
        <time>2011-07-03T12:20:35Z</time>
      </trkpt>
      <trkpt lat="46.29982" lon="-0.33976">
        <ele>75.2493</ele>
        <time>2011-07-03T12:20:36Z</time>
      </trkpt>
      <trkpt lat="46.2998" lon="-0.33975">
        <ele>75.199</ele>
        <time>2011-07-03T12:20:37Z</time>
      </trkpt>
      <trkpt lat="46.29979" lon="-0.33975">
        <ele>75.1558</ele>
        <time>2011-07-03T12:20:38Z</time>
      </trkpt>
      <trkpt lat="46.29977" lon="-0.33976">
        <ele>75.1159</ele>
        <time>2011-07-03T12:20:39Z</time>
      </trkpt>
      <trkpt lat="46.29976" lon="-0.33975">
        <ele>75.0801</ele>
        <time>2011-07-03T12:20:40Z</time>
      </trkpt>
      <trkpt lat="46.29974" lon="-0.33976">
        <ele>75.0496</ele>
        <time>2011-07-03T12:20:41Z</time>
      </trkpt>
      <trkpt lat="46.29973" lon="-0.33976">
        <ele>75.0271</ele>
        <time>2011-07-03T12:20:42Z</time>
      </trkpt>
      <trkpt lat="46.29971" lon="-0.33976">
        <ele>75.0134</ele>
        <time>2011-07-03T12:20:43Z</time>
      </trkpt>
      <trkpt lat="46.2997" lon="-0.33976">
        <ele>75.0008</ele>
        <time>2011-07-03T12:20:44Z</time>
      </trkpt>
      <trkpt lat="46.29969" lon="-0.33976">
        <ele>74.9915</ele>
        <time>2011-07-03T12:20:45Z</time>
      </trkpt>
      <trkpt lat="46.29968" lon="-0.33976">
        <ele>74.9846</ele>
        <time>2011-07-03T12:20:46Z</time>
      </trkpt>
      <trkpt lat="46.29966" lon="-0.33976">
        <ele>74.979</ele>
        <time>2011-07-03T12:20:47Z</time>
      </trkpt>
      <trkpt lat="46.29965" lon="-0.33976">
        <ele>74.9757</ele>
        <time>2011-07-03T12:20:48Z</time>
      </trkpt>
      <trkpt lat="46.29964" lon="-0.33976">
        <ele>74.9726</ele>
        <time>2011-07-03T12:20:49Z</time>
      </trkpt>
      <trkpt lat="46.29963" lon="-0.33976">
        <ele>74.9658</ele>
        <time>2011-07-03T12:20:50Z</time>
      </trkpt>
      <trkpt lat="46.29962" lon="-0.33976">
        <ele>74.9592</ele>
        <time>2011-07-03T12:20:51Z</time>
      </trkpt>
      <trkpt lat="46.29961" lon="-0.33977">
        <ele>74.9543</ele>
        <time>2011-07-03T12:20:52Z</time>
      </trkpt>
      <trkpt lat="46.2996" lon="-0.33977">
        <ele>74.9519</ele>
        <time>2011-07-03T12:20:53Z</time>
      </trkpt>
      <trkpt lat="46.29958" lon="-0.33977">
        <ele>74.9499</ele>
        <time>2011-07-03T12:20:54Z</time>
      </trkpt>
      <trkpt lat="46.29957" lon="-0.33977">
        <ele>74.948</ele>
        <time>2011-07-03T12:20:55Z</time>
      </trkpt>
      <trkpt lat="46.29956" lon="-0.33977">
        <ele>74.9456</ele>
        <time>2011-07-03T12:20:56Z</time>
      </trkpt>
      <trkpt lat="46.29955" lon="-0.33978">
        <ele>74.9422</ele>
        <time>2011-07-03T12:20:57Z</time>
      </trkpt>
      <trkpt lat="46.29953" lon="-0.33978">
        <ele>74.9385</ele>
        <time>2011-07-03T12:20:58Z</time>
      </trkpt>
      <trkpt lat="46.29952" lon="-0.33978">
        <ele>74.9346</ele>
        <time>2011-07-03T12:20:59Z</time>
      </trkpt>
      <trkpt lat="46.29951" lon="-0.33978">
        <ele>74.9238</ele>
        <time>2011-07-03T12:21:00Z</time>
      </trkpt>
      <trkpt lat="46.2995" lon="-0.33979">
        <ele>74.9124</ele>
        <time>2011-07-03T12:21:01Z</time>
      </trkpt>
      <trkpt lat="46.29949" lon="-0.33979">
        <ele>74.8984</ele>
        <time>2011-07-03T12:21:02Z</time>
      </trkpt>
      <trkpt lat="46.29948" lon="-0.3398">
        <ele>74.8859</ele>
        <time>2011-07-03T12:21:03Z</time>
      </trkpt>
      <trkpt lat="46.29947" lon="-0.3398">
        <ele>74.8721</ele>
        <time>2011-07-03T12:21:04Z</time>
      </trkpt>
      <trkpt lat="46.29945" lon="-0.33981">
        <ele>74.8553</ele>
        <time>2011-07-03T12:21:05Z</time>
      </trkpt>
      <trkpt lat="46.29944" lon="-0.33982">
        <ele>74.8442</ele>
        <time>2011-07-03T12:21:06Z</time>
      </trkpt>
      <trkpt lat="46.29943" lon="-0.33982">
        <ele>74.8339</ele>
        <time>2011-07-03T12:21:07Z</time>
      </trkpt>
      <trkpt lat="46.29942" lon="-0.33982">
        <ele>74.8236</ele>
        <time>2011-07-03T12:21:08Z</time>
      </trkpt>
      <trkpt lat="46.2994" lon="-0.33981">
        <ele>74.8073</ele>
        <time>2011-07-03T12:21:09Z</time>
      </trkpt>
      <trkpt lat="46.29939" lon="-0.33981">
        <ele>74.7879</ele>
        <time>2011-07-03T12:21:10Z</time>
      </trkpt>
      <trkpt lat="46.29937" lon="-0.33981">
        <ele>74.7713</ele>
        <time>2011-07-03T12:21:11Z</time>
      </trkpt>
      <trkpt lat="46.29936" lon="-0.3398">
        <ele>74.7516</ele>
        <time>2011-07-03T12:21:12Z</time>
      </trkpt>
      <trkpt lat="46.29935" lon="-0.3398">
        <ele>74.7305</ele>
        <time>2011-07-03T12:21:13Z</time>
      </trkpt>
      <trkpt lat="46.29933" lon="-0.3398">
        <ele>74.7003</ele>
        <time>2011-07-03T12:21:14Z</time>
      </trkpt>
      <trkpt lat="46.29932" lon="-0.3398">
        <ele>74.6774</ele>
        <time>2011-07-03T12:21:15Z</time>
      </trkpt>
      <trkpt lat="46.2993" lon="-0.3398">
        <ele>74.6551</ele>
        <time>2011-07-03T12:21:16Z</time>
      </trkpt>
      <trkpt lat="46.29929" lon="-0.3398">
        <ele>74.6325</ele>
        <time>2011-07-03T12:21:17Z</time>
      </trkpt>
      <trkpt lat="46.29928" lon="-0.3398">
        <ele>74.6082</ele>
        <time>2011-07-03T12:21:18Z</time>
      </trkpt>
      <trkpt lat="46.29927" lon="-0.3398">
        <ele>74.589</ele>
        <time>2011-07-03T12:21:19Z</time>
      </trkpt>
      <trkpt lat="46.29925" lon="-0.3398">
        <ele>74.5605</ele>
        <time>2011-07-03T12:21:20Z</time>
      </trkpt>
      <trkpt lat="46.29924" lon="-0.33981">
        <ele>74.5243</ele>
        <time>2011-07-03T12:21:21Z</time>
      </trkpt>
      <trkpt lat="46.29923" lon="-0.33981">
        <ele>74.4884</ele>
        <time>2011-07-03T12:21:22Z</time>
      </trkpt>
      <trkpt lat="46.29921" lon="-0.33981">
        <ele>74.4497</ele>
        <time>2011-07-03T12:21:23Z</time>
      </trkpt>
      <trkpt lat="46.2992" lon="-0.33981">
        <ele>74.4156</ele>
        <time>2011-07-03T12:21:24Z</time>
      </trkpt>
      <trkpt lat="46.29918" lon="-0.33981">
        <ele>74.3819</ele>
        <time>2011-07-03T12:21:25Z</time>
      </trkpt>
      <trkpt lat="46.29917" lon="-0.33981">
        <ele>74.3467</ele>
        <time>2011-07-03T12:21:26Z</time>
      </trkpt>
      <trkpt lat="46.29916" lon="-0.33981">
        <ele>74.3095</ele>
        <time>2011-07-03T12:21:27Z</time>
      </trkpt>
      <trkpt lat="46.29915" lon="-0.33981">
        <ele>74.2712</ele>
        <time>2011-07-03T12:21:28Z</time>
      </trkpt>
      <trkpt lat="46.29913" lon="-0.33981">
        <ele>74.2357</ele>
        <time>2011-07-03T12:21:29Z</time>
      </trkpt>
      <trkpt lat="46.29912" lon="-0.33981">
        <ele>74.1994</ele>
        <time>2011-07-03T12:21:30Z</time>
      </trkpt>
      <trkpt lat="46.29911" lon="-0.33981">
        <ele>74.1548</ele>
        <time>2011-07-03T12:21:31Z</time>
      </trkpt>
      <trkpt lat="46.29909" lon="-0.33982">
        <ele>74.1066</ele>
        <time>2011-07-03T12:21:32Z</time>
      </trkpt>
      <trkpt lat="46.29908" lon="-0.33982">
        <ele>74.0562</ele>
        <time>2011-07-03T12:21:33Z</time>
      </trkpt>
      <trkpt lat="46.29907" lon="-0.33982">
        <ele>74.0057</ele>
        <time>2011-07-03T12:21:34Z</time>
      </trkpt>
      <trkpt lat="46.29906" lon="-0.33982">
        <ele>73.9545</ele>
        <time>2011-07-03T12:21:35Z</time>
      </trkpt>
      <trkpt lat="46.29904" lon="-0.33983">
        <ele>73.9014</ele>
        <time>2011-07-03T12:21:36Z</time>
      </trkpt>
      <trkpt lat="46.29903" lon="-0.33983">
        <ele>73.8477</ele>
        <time>2011-07-03T12:21:37Z</time>
      </trkpt>
      <trkpt lat="46.29901" lon="-0.33983">
        <ele>73.7957</ele>
        <time>2011-07-03T12:21:38Z</time>
      </trkpt>
      <trkpt lat="46.29899" lon="-0.33984">
        <ele>73.7447</ele>
        <time>2011-07-03T12:21:39Z</time>
      </trkpt>
      <trkpt lat="46.29898" lon="-0.33984">
        <ele>73.6927</ele>
        <time>2011-07-03T12:21:40Z</time>
      </trkpt>
      <trkpt lat="46.29897" lon="-0.33984">
        <ele>73.6359</ele>
        <time>2011-07-03T12:21:41Z</time>
      </trkpt>
      <trkpt lat="46.29895" lon="-0.33984">
        <ele>73.5802</ele>
        <time>2011-07-03T12:21:42Z</time>
      </trkpt>
      <trkpt lat="46.29894" lon="-0.33985">
        <ele>73.5265</ele>
        <time>2011-07-03T12:21:43Z</time>
      </trkpt>
      <trkpt lat="46.29892" lon="-0.33985">
        <ele>73.4754</ele>
        <time>2011-07-03T12:21:44Z</time>
      </trkpt>
      <trkpt lat="46.29891" lon="-0.33986">
        <ele>73.4294</ele>
        <time>2011-07-03T12:21:45Z</time>
      </trkpt>
      <trkpt lat="46.2989" lon="-0.33986">
        <ele>73.3837</ele>
        <time>2011-07-03T12:21:46Z</time>
      </trkpt>
      <trkpt lat="46.29888" lon="-0.33986">
        <ele>73.34</ele>
        <time>2011-07-03T12:21:47Z</time>
      </trkpt>
      <trkpt lat="46.29887" lon="-0.33986">
        <ele>73.2987</ele>
        <time>2011-07-03T12:21:48Z</time>
      </trkpt>
      <trkpt lat="46.29886" lon="-0.33986">
        <ele>73.2586</ele>
        <time>2011-07-03T12:21:49Z</time>
      </trkpt>
      <trkpt lat="46.29885" lon="-0.33986">
        <ele>73.2199</ele>
        <time>2011-07-03T12:21:50Z</time>
      </trkpt>
      <trkpt lat="46.29883" lon="-0.33987">
        <ele>73.1833</ele>
        <time>2011-07-03T12:21:51Z</time>
      </trkpt>
      <trkpt lat="46.29882" lon="-0.33987">
        <ele>73.1473</ele>
        <time>2011-07-03T12:21:52Z</time>
      </trkpt>
      <trkpt lat="46.29881" lon="-0.33987">
        <ele>73.1125</ele>
        <time>2011-07-03T12:21:53Z</time>
      </trkpt>
      <trkpt lat="46.2988" lon="-0.33987">
        <ele>73.079</ele>
        <time>2011-07-03T12:21:54Z</time>
      </trkpt>
      <trkpt lat="46.29879" lon="-0.33987">
        <ele>73.0482</ele>
        <time>2011-07-03T12:21:55Z</time>
      </trkpt>
      <trkpt lat="46.29878" lon="-0.33988">
        <ele>73.0198</ele>
        <time>2011-07-03T12:21:56Z</time>
      </trkpt>
      <trkpt lat="46.29877" lon="-0.33988">
        <ele>72.9957</ele>
        <time>2011-07-03T12:21:57Z</time>
      </trkpt>
      <trkpt lat="46.29876" lon="-0.33989">
        <ele>72.9619</ele>
        <time>2011-07-03T12:21:58Z</time>
      </trkpt>
      <trkpt lat="46.29874" lon="-0.33989">
        <ele>72.9316</ele>
        <time>2011-07-03T12:21:59Z</time>
      </trkpt>
      <trkpt lat="46.29874" lon="-0.33989">
        <ele>72.8998</ele>
        <time>2011-07-03T12:22:00Z</time>
      </trkpt>
      <trkpt lat="46.29873" lon="-0.3399">
        <ele>72.8777</ele>
        <time>2011-07-03T12:22:01Z</time>
      </trkpt>
      <trkpt lat="46.29872" lon="-0.3399">
        <ele>72.863</ele>
        <time>2011-07-03T12:22:02Z</time>
      </trkpt>
      <trkpt lat="46.29871" lon="-0.3399">
        <ele>72.8515</ele>
        <time>2011-07-03T12:22:03Z</time>
      </trkpt>
      <trkpt lat="46.2987" lon="-0.3399">
        <ele>72.8387</ele>
        <time>2011-07-03T12:22:04Z</time>
      </trkpt>
      <trkpt lat="46.29868" lon="-0.3399">
        <ele>72.8289</ele>
        <time>2011-07-03T12:22:05Z</time>
      </trkpt>
      <trkpt lat="46.29867" lon="-0.3399">
        <ele>72.8165</ele>
        <time>2011-07-03T12:22:06Z</time>
      </trkpt>
      <trkpt lat="46.29866" lon="-0.33991">
        <ele>72.8045</ele>
        <time>2011-07-03T12:22:07Z</time>
      </trkpt>
      <trkpt lat="46.29864" lon="-0.33991">
        <ele>72.7852</ele>
        <time>2011-07-03T12:22:08Z</time>
      </trkpt>
      <trkpt lat="46.29863" lon="-0.33991">
        <ele>72.7644</ele>
        <time>2011-07-03T12:22:09Z</time>
      </trkpt>
      <trkpt lat="46.29861" lon="-0.33992">
        <ele>72.745</ele>
        <time>2011-07-03T12:22:10Z</time>
      </trkpt>
      <trkpt lat="46.29859" lon="-0.33992">
        <ele>72.7232</ele>
        <time>2011-07-03T12:22:11Z</time>
      </trkpt>
      <trkpt lat="46.29857" lon="-0.33993">
        <ele>72.7041</ele>
        <time>2011-07-03T12:22:12Z</time>
      </trkpt>
      <trkpt lat="46.29855" lon="-0.33993">
        <ele>72.6797</ele>
        <time>2011-07-03T12:22:13Z</time>
      </trkpt>
      <trkpt lat="46.29853" lon="-0.33994">
        <ele>72.6539</ele>
        <time>2011-07-03T12:22:14Z</time>
      </trkpt>
      <trkpt lat="46.29852" lon="-0.33995">
        <ele>72.6233</ele>
        <time>2011-07-03T12:22:15Z</time>
      </trkpt>
      <trkpt lat="46.2985" lon="-0.33996">
        <ele>72.5973</ele>
        <time>2011-07-03T12:22:16Z</time>
      </trkpt>
      <trkpt lat="46.29849" lon="-0.33996">
        <ele>72.5716</ele>
        <time>2011-07-03T12:22:17Z</time>
      </trkpt>
      <trkpt lat="46.29848" lon="-0.33997">
        <ele>72.5405</ele>
        <time>2011-07-03T12:22:18Z</time>
      </trkpt>
      <trkpt lat="46.29847" lon="-0.33998">
        <ele>72.5048</ele>
        <time>2011-07-03T12:22:19Z</time>
      </trkpt>
      <trkpt lat="46.29845" lon="-0.33999">
        <ele>72.4829</ele>
        <time>2011-07-03T12:22:20Z</time>
      </trkpt>
      <trkpt lat="46.29843" lon="-0.34">
        <ele>72.466</ele>
        <time>2011-07-03T12:22:21Z</time>
      </trkpt>
      <trkpt lat="46.29841" lon="-0.34001">
        <ele>72.4505</ele>
        <time>2011-07-03T12:22:22Z</time>
      </trkpt>
      <trkpt lat="46.2984" lon="-0.34001">
        <ele>72.4429</ele>
        <time>2011-07-03T12:22:23Z</time>
      </trkpt>
      <trkpt lat="46.29839" lon="-0.34001">
        <ele>72.4192</ele>
        <time>2011-07-03T12:22:24Z</time>
      </trkpt>
      <trkpt lat="46.29837" lon="-0.34">
        <ele>72.3884</ele>
        <time>2011-07-03T12:22:25Z</time>
      </trkpt>
      <trkpt lat="46.29836" lon="-0.34">
        <ele>72.3577</ele>
        <time>2011-07-03T12:22:26Z</time>
      </trkpt>
      <trkpt lat="46.29835" lon="-0.34">
        <ele>72.3277</ele>
        <time>2011-07-03T12:22:27Z</time>
      </trkpt>
      <trkpt lat="46.29834" lon="-0.34">
        <ele>72.2997</ele>
        <time>2011-07-03T12:22:28Z</time>
      </trkpt>
      <trkpt lat="46.29833" lon="-0.34">
        <ele>72.2637</ele>
        <time>2011-07-03T12:22:29Z</time>
      </trkpt>
      <trkpt lat="46.29832" lon="-0.34">
        <ele>72.2276</ele>
        <time>2011-07-03T12:22:30Z</time>
      </trkpt>
      <trkpt lat="46.29831" lon="-0.34">
        <ele>72.1872</ele>
        <time>2011-07-03T12:22:31Z</time>
      </trkpt>
      <trkpt lat="46.29829" lon="-0.34001">
        <ele>72.1476</ele>
        <time>2011-07-03T12:22:32Z</time>
      </trkpt>
      <trkpt lat="46.29828" lon="-0.34001">
        <ele>72.1074</ele>
        <time>2011-07-03T12:22:33Z</time>
      </trkpt>
      <trkpt lat="46.29827" lon="-0.34001">
        <ele>72.0732</ele>
        <time>2011-07-03T12:22:34Z</time>
      </trkpt>
      <trkpt lat="46.29826" lon="-0.34002">
        <ele>72.0202</ele>
        <time>2011-07-03T12:22:35Z</time>
      </trkpt>
      <trkpt lat="46.29825" lon="-0.34002">
        <ele>71.9696</ele>
        <time>2011-07-03T12:22:36Z</time>
      </trkpt>
      <trkpt lat="46.29824" lon="-0.34003">
        <ele>71.9223</ele>
        <time>2011-07-03T12:22:37Z</time>
      </trkpt>
      <trkpt lat="46.29823" lon="-0.34003">
        <ele>71.8708</ele>
        <time>2011-07-03T12:22:38Z</time>
      </trkpt>
      <trkpt lat="46.29821" lon="-0.34004">
        <ele>71.8177</ele>
        <time>2011-07-03T12:22:39Z</time>
      </trkpt>
      <trkpt lat="46.2982" lon="-0.34005">
        <ele>71.7624</ele>
        <time>2011-07-03T12:22:40Z</time>
      </trkpt>
      <trkpt lat="46.29819" lon="-0.34005">
        <ele>71.7009</ele>
        <time>2011-07-03T12:22:41Z</time>
      </trkpt>
      <trkpt lat="46.29818" lon="-0.34005">
        <ele>71.6285</ele>
        <time>2011-07-03T12:22:42Z</time>
      </trkpt>
      <trkpt lat="46.29816" lon="-0.34006">
        <ele>71.5602</ele>
        <time>2011-07-03T12:22:43Z</time>
      </trkpt>
      <trkpt lat="46.29815" lon="-0.34006">
        <ele>71.5083</ele>
        <time>2011-07-03T12:22:44Z</time>
      </trkpt>
      <trkpt lat="46.29814" lon="-0.34007">
        <ele>71.4461</ele>
        <time>2011-07-03T12:22:45Z</time>
      </trkpt>
      <trkpt lat="46.29813" lon="-0.34007">
        <ele>71.3855</ele>
        <time>2011-07-03T12:22:46Z</time>
      </trkpt>
      <trkpt lat="46.29812" lon="-0.34008">
        <ele>71.3174</ele>
        <time>2011-07-03T12:22:47Z</time>
      </trkpt>
      <trkpt lat="46.2981" lon="-0.34008">
        <ele>71.2537</ele>
        <time>2011-07-03T12:22:48Z</time>
      </trkpt>
      <trkpt lat="46.29809" lon="-0.34009">
        <ele>71.1866</ele>
        <time>2011-07-03T12:22:49Z</time>
      </trkpt>
      <trkpt lat="46.29807" lon="-0.34009">
        <ele>71.1145</ele>
        <time>2011-07-03T12:22:50Z</time>
      </trkpt>
      <trkpt lat="46.29806" lon="-0.34009">
        <ele>71.0397</ele>
        <time>2011-07-03T12:22:51Z</time>
      </trkpt>
      <trkpt lat="46.29805" lon="-0.34009">
        <ele>70.9657</ele>
        <time>2011-07-03T12:22:52Z</time>
      </trkpt>
      <trkpt lat="46.29804" lon="-0.34009">
        <ele>70.8864</ele>
        <time>2011-07-03T12:22:53Z</time>
      </trkpt>
      <trkpt lat="46.29802" lon="-0.34009">
        <ele>70.7989</ele>
        <time>2011-07-03T12:22:54Z</time>
      </trkpt>
      <trkpt lat="46.29801" lon="-0.3401">
        <ele>70.7154</ele>
        <time>2011-07-03T12:22:55Z</time>
      </trkpt>
      <trkpt lat="46.298" lon="-0.34011">
        <ele>70.632</ele>
        <time>2011-07-03T12:22:56Z</time>
      </trkpt>
      <trkpt lat="46.29799" lon="-0.34011">
        <ele>70.547</ele>
        <time>2011-07-03T12:22:57Z</time>
      </trkpt>
      <trkpt lat="46.29797" lon="-0.34011">
        <ele>70.4634</ele>
        <time>2011-07-03T12:22:58Z</time>
      </trkpt>
      <trkpt lat="46.29796" lon="-0.34012">
        <ele>70.3811</ele>
        <time>2011-07-03T12:22:59Z</time>
      </trkpt>
      <trkpt lat="46.29795" lon="-0.34013">
        <ele>70.2997</ele>
        <time>2011-07-03T12:23:00Z</time>
      </trkpt>
      <trkpt lat="46.29794" lon="-0.34013">
        <ele>70.2194</ele>
        <time>2011-07-03T12:23:01Z</time>
      </trkpt>
      <trkpt lat="46.29792" lon="-0.34014">
        <ele>70.1408</ele>
        <time>2011-07-03T12:23:02Z</time>
      </trkpt>
      <trkpt lat="46.29791" lon="-0.34015">
        <ele>70.0569</ele>
        <time>2011-07-03T12:23:03Z</time>
      </trkpt>
      <trkpt lat="46.29789" lon="-0.34016">
        <ele>69.9737</ele>
        <time>2011-07-03T12:23:04Z</time>
      </trkpt>
      <trkpt lat="46.29788" lon="-0.34016">
        <ele>69.8892</ele>
        <time>2011-07-03T12:23:05Z</time>
      </trkpt>
      <trkpt lat="46.29787" lon="-0.34017">
        <ele>69.8063</ele>
        <time>2011-07-03T12:23:06Z</time>
      </trkpt>
      <trkpt lat="46.29785" lon="-0.34017">
        <ele>69.7329</ele>
        <time>2011-07-03T12:23:07Z</time>
      </trkpt>
      <trkpt lat="46.29784" lon="-0.34017">
        <ele>69.6612</ele>
        <time>2011-07-03T12:23:08Z</time>
      </trkpt>
      <trkpt lat="46.29782" lon="-0.34017">
        <ele>69.5908</ele>
        <time>2011-07-03T12:23:09Z</time>
      </trkpt>
      <trkpt lat="46.29781" lon="-0.34018">
        <ele>69.523</ele>
        <time>2011-07-03T12:23:10Z</time>
      </trkpt>
      <trkpt lat="46.29779" lon="-0.34019">
        <ele>69.455</ele>
        <time>2011-07-03T12:23:11Z</time>
      </trkpt>
      <trkpt lat="46.29778" lon="-0.34019">
        <ele>69.3863</ele>
        <time>2011-07-03T12:23:12Z</time>
      </trkpt>
      <trkpt lat="46.29777" lon="-0.3402">
        <ele>69.3185</ele>
        <time>2011-07-03T12:23:13Z</time>
      </trkpt>
      <trkpt lat="46.29776" lon="-0.34021">
        <ele>69.2525</ele>
        <time>2011-07-03T12:23:14Z</time>
      </trkpt>
      <trkpt lat="46.29775" lon="-0.34021">
        <ele>69.1794</ele>
        <time>2011-07-03T12:23:15Z</time>
      </trkpt>
      <trkpt lat="46.29773" lon="-0.34022">
        <ele>69.1005</ele>
        <time>2011-07-03T12:23:16Z</time>
      </trkpt>
      <trkpt lat="46.29772" lon="-0.34023">
        <ele>69.0202</ele>
        <time>2011-07-03T12:23:17Z</time>
      </trkpt>
      <trkpt lat="46.29771" lon="-0.34024">
        <ele>68.9403</ele>
        <time>2011-07-03T12:23:18Z</time>
      </trkpt>
      <trkpt lat="46.2977" lon="-0.34024">
        <ele>68.8619</ele>
        <time>2011-07-03T12:23:19Z</time>
      </trkpt>
      <trkpt lat="46.29768" lon="-0.34025">
        <ele>68.7848</ele>
        <time>2011-07-03T12:23:20Z</time>
      </trkpt>
      <trkpt lat="46.29768" lon="-0.34026">
        <ele>68.7096</ele>
        <time>2011-07-03T12:23:21Z</time>
      </trkpt>
      <trkpt lat="46.29767" lon="-0.34027">
        <ele>68.6364</ele>
        <time>2011-07-03T12:23:22Z</time>
      </trkpt>
      <trkpt lat="46.29766" lon="-0.34028">
        <ele>68.5645</ele>
        <time>2011-07-03T12:23:23Z</time>
      </trkpt>
      <trkpt lat="46.29765" lon="-0.3403">
        <ele>68.4926</ele>
        <time>2011-07-03T12:23:24Z</time>
      </trkpt>
      <trkpt lat="46.29765" lon="-0.34031">
        <ele>68.4231</ele>
        <time>2011-07-03T12:23:25Z</time>
      </trkpt>
      <trkpt lat="46.29765" lon="-0.34033">
        <ele>68.3576</ele>
        <time>2011-07-03T12:23:26Z</time>
      </trkpt>
      <trkpt lat="46.29764" lon="-0.34034">
        <ele>68.2906</ele>
        <time>2011-07-03T12:23:27Z</time>
      </trkpt>
      <trkpt lat="46.29763" lon="-0.34034">
        <ele>68.2286</ele>
        <time>2011-07-03T12:23:28Z</time>
      </trkpt>
      <trkpt lat="46.29763" lon="-0.34035">
        <ele>68.1684</ele>
        <time>2011-07-03T12:23:29Z</time>
      </trkpt>
      <trkpt lat="46.29763" lon="-0.34036">
        <ele>68.1096</ele>
        <time>2011-07-03T12:23:30Z</time>
      </trkpt>
      <trkpt lat="46.29763" lon="-0.34038">
        <ele>68.0517</ele>
        <time>2011-07-03T12:23:31Z</time>
      </trkpt>
      <trkpt lat="46.29762" lon="-0.34039">
        <ele>67.9943</ele>
        <time>2011-07-03T12:23:32Z</time>
      </trkpt>
      <trkpt lat="46.29762" lon="-0.34041">
        <ele>67.9404</ele>
        <time>2011-07-03T12:23:33Z</time>
      </trkpt>
      <trkpt lat="46.29762" lon="-0.34042">
        <ele>67.8873</ele>
        <time>2011-07-03T12:23:34Z</time>
      </trkpt>
      <trkpt lat="46.29762" lon="-0.34043">
        <ele>67.8352</ele>
        <time>2011-07-03T12:23:35Z</time>
      </trkpt>
      <trkpt lat="46.29762" lon="-0.34045">
        <ele>67.782</ele>
        <time>2011-07-03T12:23:36Z</time>
      </trkpt>
      <trkpt lat="46.29762" lon="-0.34046">
        <ele>67.7279</ele>
        <time>2011-07-03T12:23:37Z</time>
      </trkpt>
      <trkpt lat="46.29763" lon="-0.34048">
        <ele>67.6735</ele>
        <time>2011-07-03T12:23:38Z</time>
      </trkpt>
      <trkpt lat="46.29763" lon="-0.3405">
        <ele>67.6205</ele>
        <time>2011-07-03T12:23:39Z</time>
      </trkpt>
      <trkpt lat="46.29763" lon="-0.34051">
        <ele>67.5666</ele>
        <time>2011-07-03T12:23:40Z</time>
      </trkpt>
      <trkpt lat="46.29763" lon="-0.34053">
        <ele>67.5138</ele>
        <time>2011-07-03T12:23:41Z</time>
      </trkpt>
      <trkpt lat="46.29763" lon="-0.34055">
        <ele>67.4641</ele>
        <time>2011-07-03T12:23:42Z</time>
      </trkpt>
      <trkpt lat="46.29763" lon="-0.34057">
        <ele>67.4168</ele>
        <time>2011-07-03T12:23:43Z</time>
      </trkpt>
      <trkpt lat="46.29763" lon="-0.34059">
        <ele>67.3759</ele>
        <time>2011-07-03T12:23:44Z</time>
      </trkpt>
      <trkpt lat="46.29764" lon="-0.3406">
        <ele>67.3379</ele>
        <time>2011-07-03T12:23:45Z</time>
      </trkpt>
      <trkpt lat="46.29764" lon="-0.34062">
        <ele>67.3018</ele>
        <time>2011-07-03T12:23:46Z</time>
      </trkpt>
      <trkpt lat="46.29764" lon="-0.34064">
        <ele>67.2674</ele>
        <time>2011-07-03T12:23:47Z</time>
      </trkpt>
      <trkpt lat="46.29764" lon="-0.34066">
        <ele>67.235</ele>
        <time>2011-07-03T12:23:48Z</time>
      </trkpt>
      <trkpt lat="46.29764" lon="-0.34068">
        <ele>67.2144</ele>
        <time>2011-07-03T12:23:49Z</time>
      </trkpt>
      <trkpt lat="46.29765" lon="-0.34069">
        <ele>67.1885</ele>
        <time>2011-07-03T12:23:50Z</time>
      </trkpt>
      <trkpt lat="46.29765" lon="-0.34071">
        <ele>67.1674</ele>
        <time>2011-07-03T12:23:51Z</time>
      </trkpt>
      <trkpt lat="46.29765" lon="-0.34073">
        <ele>67.1533</ele>
        <time>2011-07-03T12:23:52Z</time>
      </trkpt>
      <trkpt lat="46.29765" lon="-0.34075">
        <ele>67.1382</ele>
        <time>2011-07-03T12:23:53Z</time>
      </trkpt>
      <trkpt lat="46.29765" lon="-0.34078">
        <ele>67.127</ele>
        <time>2011-07-03T12:23:54Z</time>
      </trkpt>
      <trkpt lat="46.29765" lon="-0.3408">
        <ele>67.1162</ele>
        <time>2011-07-03T12:23:55Z</time>
      </trkpt>
      <trkpt lat="46.29765" lon="-0.34082">
        <ele>67.1126</ele>
        <time>2011-07-03T12:23:56Z</time>
      </trkpt>
      <trkpt lat="46.29765" lon="-0.34084">
        <ele>67.1127</ele>
        <time>2011-07-03T12:23:57Z</time>
      </trkpt>
      <trkpt lat="46.29764" lon="-0.34087">
        <ele>67.1046</ele>
        <time>2011-07-03T12:23:58Z</time>
      </trkpt>
      <trkpt lat="46.29764" lon="-0.3409">
        <ele>67.0856</ele>
        <time>2011-07-03T12:23:59Z</time>
      </trkpt>
      <trkpt lat="46.29763" lon="-0.34093">
        <ele>67.0536</ele>
        <time>2011-07-03T12:24:00Z</time>
      </trkpt>
      <trkpt lat="46.29763" lon="-0.34096">
        <ele>67.0104</ele>
        <time>2011-07-03T12:24:01Z</time>
      </trkpt>
      <trkpt lat="46.29763" lon="-0.34099">
        <ele>66.9669</ele>
        <time>2011-07-03T12:24:02Z</time>
      </trkpt>
      <trkpt lat="46.29763" lon="-0.34101">
        <ele>66.9161</ele>
        <time>2011-07-03T12:24:03Z</time>
      </trkpt>
      <trkpt lat="46.29763" lon="-0.34103">
        <ele>66.862</ele>
        <time>2011-07-03T12:24:04Z</time>
      </trkpt>
      <trkpt lat="46.29762" lon="-0.34105">
        <ele>66.8035</ele>
        <time>2011-07-03T12:24:05Z</time>
      </trkpt>
      <trkpt lat="46.29762" lon="-0.34107">
        <ele>66.7421</ele>
        <time>2011-07-03T12:24:06Z</time>
      </trkpt>
      <trkpt lat="46.29762" lon="-0.34109">
        <ele>66.6775</ele>
        <time>2011-07-03T12:24:07Z</time>
      </trkpt>
      <trkpt lat="46.29762" lon="-0.34111">
        <ele>66.6113</ele>
        <time>2011-07-03T12:24:08Z</time>
      </trkpt>
      <trkpt lat="46.29762" lon="-0.34114">
        <ele>66.5476</ele>
        <time>2011-07-03T12:24:09Z</time>
      </trkpt>
      <trkpt lat="46.29762" lon="-0.34116">
        <ele>66.4824</ele>
        <time>2011-07-03T12:24:10Z</time>
      </trkpt>
      <trkpt lat="46.29762" lon="-0.34118">
        <ele>66.4155</ele>
        <time>2011-07-03T12:24:11Z</time>
      </trkpt>
      <trkpt lat="46.29762" lon="-0.3412">
        <ele>66.3505</ele>
        <time>2011-07-03T12:24:12Z</time>
      </trkpt>
      <trkpt lat="46.29762" lon="-0.34122">
        <ele>66.2876</ele>
        <time>2011-07-03T12:24:13Z</time>
      </trkpt>
      <trkpt lat="46.29762" lon="-0.34123">
        <ele>66.2267</ele>
        <time>2011-07-03T12:24:14Z</time>
      </trkpt>
      <trkpt lat="46.29762" lon="-0.34125">
        <ele>66.1708</ele>
        <time>2011-07-03T12:24:15Z</time>
      </trkpt>
      <trkpt lat="46.29762" lon="-0.34127">
        <ele>66.1161</ele>
        <time>2011-07-03T12:24:16Z</time>
      </trkpt>
      <trkpt lat="46.29762" lon="-0.34129">
        <ele>66.0608</ele>
        <time>2011-07-03T12:24:17Z</time>
      </trkpt>
      <trkpt lat="46.29762" lon="-0.34131">
        <ele>66.006</ele>
        <time>2011-07-03T12:24:18Z</time>
      </trkpt>
      <trkpt lat="46.29763" lon="-0.34132">
        <ele>65.9528</ele>
        <time>2011-07-03T12:24:19Z</time>
      </trkpt>
      <trkpt lat="46.29763" lon="-0.34133">
        <ele>65.9005</ele>
        <time>2011-07-03T12:24:20Z</time>
      </trkpt>
      <trkpt lat="46.29764" lon="-0.34135">
        <ele>65.8482</ele>
        <time>2011-07-03T12:24:21Z</time>
      </trkpt>
      <trkpt lat="46.29764" lon="-0.34136">
        <ele>65.7961</ele>
        <time>2011-07-03T12:24:22Z</time>
      </trkpt>
      <trkpt lat="46.29764" lon="-0.34138">
        <ele>65.7433</ele>
        <time>2011-07-03T12:24:23Z</time>
      </trkpt>
      <trkpt lat="46.29764" lon="-0.34139">
        <ele>65.6887</ele>
        <time>2011-07-03T12:24:24Z</time>
      </trkpt>
      <trkpt lat="46.29765" lon="-0.34141">
        <ele>65.6354</ele>
        <time>2011-07-03T12:24:25Z</time>
      </trkpt>
      <trkpt lat="46.29765" lon="-0.34142">
        <ele>65.5832</ele>
        <time>2011-07-03T12:24:26Z</time>
      </trkpt>
      <trkpt lat="46.29765" lon="-0.34144">
        <ele>65.5324</ele>
        <time>2011-07-03T12:24:27Z</time>
      </trkpt>
      <trkpt lat="46.29765" lon="-0.34145">
        <ele>65.4839</ele>
        <time>2011-07-03T12:24:28Z</time>
      </trkpt>
      <trkpt lat="46.29765" lon="-0.34147">
        <ele>65.4362</ele>
        <time>2011-07-03T12:24:29Z</time>
      </trkpt>
      <trkpt lat="46.29766" lon="-0.34148">
        <ele>65.3894</ele>
        <time>2011-07-03T12:24:30Z</time>
      </trkpt>
      <trkpt lat="46.29767" lon="-0.34149">
        <ele>65.3463</ele>
        <time>2011-07-03T12:24:31Z</time>
      </trkpt>
      <trkpt lat="46.29767" lon="-0.34151">
        <ele>65.3044</ele>
        <time>2011-07-03T12:24:32Z</time>
      </trkpt>
      <trkpt lat="46.29767" lon="-0.34153">
        <ele>65.263</ele>
        <time>2011-07-03T12:24:33Z</time>
      </trkpt>
      <trkpt lat="46.29767" lon="-0.34155">
        <ele>65.2232</ele>
        <time>2011-07-03T12:24:34Z</time>
      </trkpt>
      <trkpt lat="46.29767" lon="-0.34157">
        <ele>65.1853</ele>
        <time>2011-07-03T12:24:35Z</time>
      </trkpt>
      <trkpt lat="46.29768" lon="-0.34158">
        <ele>65.1486</ele>
        <time>2011-07-03T12:24:36Z</time>
      </trkpt>
      <trkpt lat="46.29768" lon="-0.3416">
        <ele>65.1141</ele>
        <time>2011-07-03T12:24:37Z</time>
      </trkpt>
      <trkpt lat="46.29768" lon="-0.34162">
        <ele>65.0816</ele>
        <time>2011-07-03T12:24:38Z</time>
      </trkpt>
      <trkpt lat="46.29768" lon="-0.34163">
        <ele>65.0518</ele>
        <time>2011-07-03T12:24:39Z</time>
      </trkpt>
      <trkpt lat="46.29769" lon="-0.34165">
        <ele>65.0262</ele>
        <time>2011-07-03T12:24:40Z</time>
      </trkpt>
      <trkpt lat="46.29769" lon="-0.34167">
        <ele>65.0054</ele>
        <time>2011-07-03T12:24:41Z</time>
      </trkpt>
      <trkpt lat="46.29768" lon="-0.34169">
        <ele>64.9867</ele>
        <time>2011-07-03T12:24:42Z</time>
      </trkpt>
      <trkpt lat="46.29769" lon="-0.34171">
        <ele>64.9692</ele>
        <time>2011-07-03T12:24:43Z</time>
      </trkpt>
      <trkpt lat="46.29769" lon="-0.34173">
        <ele>64.9542</ele>
        <time>2011-07-03T12:24:44Z</time>
      </trkpt>
      <trkpt lat="46.29769" lon="-0.34175">
        <ele>64.9429</ele>
        <time>2011-07-03T12:24:45Z</time>
      </trkpt>
      <trkpt lat="46.29769" lon="-0.34177">
        <ele>64.9377</ele>
        <time>2011-07-03T12:24:46Z</time>
      </trkpt>
      <trkpt lat="46.29769" lon="-0.34179">
        <ele>64.9366</ele>
        <time>2011-07-03T12:24:47Z</time>
      </trkpt>
      <trkpt lat="46.2977" lon="-0.34181">
        <ele>64.9356</ele>
        <time>2011-07-03T12:24:48Z</time>
      </trkpt>
      <trkpt lat="46.2977" lon="-0.34183">
        <ele>64.9327</ele>
        <time>2011-07-03T12:24:49Z</time>
      </trkpt>
      <trkpt lat="46.2977" lon="-0.34185">
        <ele>64.9251</ele>
        <time>2011-07-03T12:24:50Z</time>
      </trkpt>
      <trkpt lat="46.29771" lon="-0.34187">
        <ele>64.9183</ele>
        <time>2011-07-03T12:24:51Z</time>
      </trkpt>
      <trkpt lat="46.29771" lon="-0.34189">
        <ele>64.9111</ele>
        <time>2011-07-03T12:24:52Z</time>
      </trkpt>
      <trkpt lat="46.29771" lon="-0.34191">
        <ele>64.9054</ele>
        <time>2011-07-03T12:24:53Z</time>
      </trkpt>
      <trkpt lat="46.29772" lon="-0.34194">
        <ele>64.8996</ele>
        <time>2011-07-03T12:24:54Z</time>
      </trkpt>
      <trkpt lat="46.29772" lon="-0.34196">
        <ele>64.8946</ele>
        <time>2011-07-03T12:24:55Z</time>
      </trkpt>
      <trkpt lat="46.29773" lon="-0.34197">
        <ele>64.8904</ele>
        <time>2011-07-03T12:24:56Z</time>
      </trkpt>
      <trkpt lat="46.29773" lon="-0.34199">
        <ele>64.8875</ele>
        <time>2011-07-03T12:24:57Z</time>
      </trkpt>
      <trkpt lat="46.29773" lon="-0.34201">
        <ele>64.8839</ele>
        <time>2011-07-03T12:24:58Z</time>
      </trkpt>
      <trkpt lat="46.29774" lon="-0.34202">
        <ele>64.88</ele>
        <time>2011-07-03T12:24:59Z</time>
      </trkpt>
      <trkpt lat="46.29774" lon="-0.34204">
        <ele>64.879</ele>
        <time>2011-07-03T12:25:00Z</time>
      </trkpt>
      <trkpt lat="46.29775" lon="-0.34206">
        <ele>64.8794</ele>
        <time>2011-07-03T12:25:01Z</time>
      </trkpt>
      <trkpt lat="46.29775" lon="-0.34207">
        <ele>64.8819</ele>
        <time>2011-07-03T12:25:02Z</time>
      </trkpt>
      <trkpt lat="46.29775" lon="-0.34209">
        <ele>64.8836</ele>
        <time>2011-07-03T12:25:03Z</time>
      </trkpt>
      <trkpt lat="46.29774" lon="-0.34211">
        <ele>64.8843</ele>
        <time>2011-07-03T12:25:04Z</time>
      </trkpt>
      <trkpt lat="46.29774" lon="-0.34213">
        <ele>64.8827</ele>
        <time>2011-07-03T12:25:05Z</time>
      </trkpt>
      <trkpt lat="46.29774" lon="-0.34215">
        <ele>64.8796</ele>
        <time>2011-07-03T12:25:06Z</time>
      </trkpt>
      <trkpt lat="46.29774" lon="-0.34217">
        <ele>64.8765</ele>
        <time>2011-07-03T12:25:07Z</time>
      </trkpt>
      <trkpt lat="46.29774" lon="-0.34219">
        <ele>64.8735</ele>
        <time>2011-07-03T12:25:08Z</time>
      </trkpt>
      <trkpt lat="46.29774" lon="-0.34221">
        <ele>64.8706</ele>
        <time>2011-07-03T12:25:09Z</time>
      </trkpt>
      <trkpt lat="46.29774" lon="-0.34223">
        <ele>64.8677</ele>
        <time>2011-07-03T12:25:10Z</time>
      </trkpt>
      <trkpt lat="46.29774" lon="-0.34225">
        <ele>64.8653</ele>
        <time>2011-07-03T12:25:11Z</time>
      </trkpt>
      <trkpt lat="46.29774" lon="-0.34227">
        <ele>64.8624</ele>
        <time>2011-07-03T12:25:12Z</time>
      </trkpt>
      <trkpt lat="46.29774" lon="-0.34228">
        <ele>64.8566</ele>
        <time>2011-07-03T12:25:13Z</time>
      </trkpt>
      <trkpt lat="46.29774" lon="-0.3423">
        <ele>64.8516</ele>
        <time>2011-07-03T12:25:14Z</time>
      </trkpt>
      <trkpt lat="46.29773" lon="-0.34232">
        <ele>64.8469</ele>
        <time>2011-07-03T12:25:15Z</time>
      </trkpt>
      <trkpt lat="46.29773" lon="-0.34234">
        <ele>64.8422</ele>
        <time>2011-07-03T12:25:16Z</time>
      </trkpt>
      <trkpt lat="46.29773" lon="-0.34236">
        <ele>64.8361</ele>
        <time>2011-07-03T12:25:17Z</time>
      </trkpt>
      <trkpt lat="46.29773" lon="-0.34238">
        <ele>64.8278</ele>
        <time>2011-07-03T12:25:18Z</time>
      </trkpt>
      <trkpt lat="46.29773" lon="-0.34239">
        <ele>64.8202</ele>
        <time>2011-07-03T12:25:19Z</time>
      </trkpt>
      <trkpt lat="46.29773" lon="-0.34241">
        <ele>64.8107</ele>
        <time>2011-07-03T12:25:20Z</time>
      </trkpt>
      <trkpt lat="46.29773" lon="-0.34243">
        <ele>64.8036</ele>
        <time>2011-07-03T12:25:21Z</time>
      </trkpt>
      <trkpt lat="46.29772" lon="-0.34245">
        <ele>64.7972</ele>
        <time>2011-07-03T12:25:22Z</time>
      </trkpt>
      <trkpt lat="46.29772" lon="-0.34247">
        <ele>64.7911</ele>
        <time>2011-07-03T12:25:23Z</time>
      </trkpt>
      <trkpt lat="46.29772" lon="-0.34249">
        <ele>64.7866</ele>
        <time>2011-07-03T12:25:24Z</time>
      </trkpt>
      <trkpt lat="46.29772" lon="-0.34251">
        <ele>64.7852</ele>
        <time>2011-07-03T12:25:25Z</time>
      </trkpt>
      <trkpt lat="46.29772" lon="-0.34252">
        <ele>64.7827</ele>
        <time>2011-07-03T12:25:26Z</time>
      </trkpt>
      <trkpt lat="46.29773" lon="-0.34254">
        <ele>64.7806</ele>
        <time>2011-07-03T12:25:27Z</time>
      </trkpt>
      <trkpt lat="46.29773" lon="-0.34256">
        <ele>64.771</ele>
        <time>2011-07-03T12:25:28Z</time>
      </trkpt>
      <trkpt lat="46.29773" lon="-0.34257">
        <ele>64.7556</ele>
        <time>2011-07-03T12:25:29Z</time>
      </trkpt>
      <trkpt lat="46.29773" lon="-0.34259">
        <ele>64.7407</ele>
        <time>2011-07-03T12:25:30Z</time>
      </trkpt>
      <trkpt lat="46.29773" lon="-0.34261">
        <ele>64.7262</ele>
        <time>2011-07-03T12:25:31Z</time>
      </trkpt>
      <trkpt lat="46.29774" lon="-0.34263">
        <ele>64.7152</ele>
        <time>2011-07-03T12:25:32Z</time>
      </trkpt>
      <trkpt lat="46.29774" lon="-0.34265">
        <ele>64.7028</ele>
        <time>2011-07-03T12:25:33Z</time>
      </trkpt>
      <trkpt lat="46.29775" lon="-0.34267">
        <ele>64.6908</ele>
        <time>2011-07-03T12:25:34Z</time>
      </trkpt>
      <trkpt lat="46.29775" lon="-0.34269">
        <ele>64.6797</ele>
        <time>2011-07-03T12:25:35Z</time>
      </trkpt>
      <trkpt lat="46.29775" lon="-0.34271">
        <ele>64.6686</ele>
        <time>2011-07-03T12:25:36Z</time>
      </trkpt>
      <trkpt lat="46.29775" lon="-0.34273">
        <ele>64.6568</ele>
        <time>2011-07-03T12:25:37Z</time>
      </trkpt>
      <trkpt lat="46.29775" lon="-0.34275">
        <ele>64.6445</ele>
        <time>2011-07-03T12:25:38Z</time>
      </trkpt>
      <trkpt lat="46.29776" lon="-0.34277">
        <ele>64.6315</ele>
        <time>2011-07-03T12:25:39Z</time>
      </trkpt>
      <trkpt lat="46.29776" lon="-0.34279">
        <ele>64.6189</ele>
        <time>2011-07-03T12:25:40Z</time>
      </trkpt>
      <trkpt lat="46.29776" lon="-0.34282">
        <ele>64.6051</ele>
        <time>2011-07-03T12:25:41Z</time>
      </trkpt>
      <trkpt lat="46.29776" lon="-0.34284">
        <ele>64.5919</ele>
        <time>2011-07-03T12:25:42Z</time>
      </trkpt>
      <trkpt lat="46.29776" lon="-0.34286">
        <ele>64.5787</ele>
        <time>2011-07-03T12:25:43Z</time>
      </trkpt>
      <trkpt lat="46.29777" lon="-0.34288">
        <ele>64.566</ele>
        <time>2011-07-03T12:25:44Z</time>
      </trkpt>
      <trkpt lat="46.29777" lon="-0.3429">
        <ele>64.5534</ele>
        <time>2011-07-03T12:25:45Z</time>
      </trkpt>
      <trkpt lat="46.29777" lon="-0.34292">
        <ele>64.5402</ele>
        <time>2011-07-03T12:25:46Z</time>
      </trkpt>
      <trkpt lat="46.29777" lon="-0.34293">
        <ele>64.5275</ele>
        <time>2011-07-03T12:25:47Z</time>
      </trkpt>
      <trkpt lat="46.29777" lon="-0.34295">
        <ele>64.5161</ele>
        <time>2011-07-03T12:25:48Z</time>
      </trkpt>
      <trkpt lat="46.29777" lon="-0.34297">
        <ele>64.507</ele>
        <time>2011-07-03T12:25:49Z</time>
      </trkpt>
      <trkpt lat="46.29778" lon="-0.34299">
        <ele>64.5029</ele>
        <time>2011-07-03T12:25:50Z</time>
      </trkpt>
      <trkpt lat="46.29778" lon="-0.34301">
        <ele>64.5029</ele>
        <time>2011-07-03T12:25:51Z</time>
      </trkpt>
      <trkpt lat="46.29778" lon="-0.34303">
        <ele>64.5044</ele>
        <time>2011-07-03T12:25:52Z</time>
      </trkpt>
      <trkpt lat="46.29778" lon="-0.34305">
        <ele>64.5062</ele>
        <time>2011-07-03T12:25:53Z</time>
      </trkpt>
      <trkpt lat="46.29778" lon="-0.34307">
        <ele>64.5118</ele>
        <time>2011-07-03T12:25:54Z</time>
      </trkpt>
      <trkpt lat="46.29778" lon="-0.34309">
        <ele>64.5224</ele>
        <time>2011-07-03T12:25:55Z</time>
      </trkpt>
      <trkpt lat="46.29778" lon="-0.3431">
        <ele>64.5362</ele>
        <time>2011-07-03T12:25:56Z</time>
      </trkpt>
      <trkpt lat="46.29778" lon="-0.34312">
        <ele>64.5502</ele>
        <time>2011-07-03T12:25:57Z</time>
      </trkpt>
      <trkpt lat="46.29778" lon="-0.34314">
        <ele>64.5638</ele>
        <time>2011-07-03T12:25:58Z</time>
      </trkpt>
      <trkpt lat="46.29778" lon="-0.34315">
        <ele>64.5796</ele>
        <time>2011-07-03T12:25:59Z</time>
      </trkpt>
      <trkpt lat="46.29777" lon="-0.34317">
        <ele>64.5941</ele>
        <time>2011-07-03T12:26:00Z</time>
      </trkpt>
      <trkpt lat="46.29778" lon="-0.34318">
        <ele>64.6081</ele>
        <time>2011-07-03T12:26:01Z</time>
      </trkpt>
      <trkpt lat="46.29778" lon="-0.3432">
        <ele>64.6193</ele>
        <time>2011-07-03T12:26:02Z</time>
      </trkpt>
      <trkpt lat="46.29778" lon="-0.34322">
        <ele>64.6269</ele>
        <time>2011-07-03T12:26:03Z</time>
      </trkpt>
      <trkpt lat="46.29778" lon="-0.34324">
        <ele>64.6361</ele>
        <time>2011-07-03T12:26:04Z</time>
      </trkpt>
      <trkpt lat="46.29778" lon="-0.34325">
        <ele>64.6464</ele>
        <time>2011-07-03T12:26:05Z</time>
      </trkpt>
      <trkpt lat="46.29778" lon="-0.34327">
        <ele>64.6582</ele>
        <time>2011-07-03T12:26:06Z</time>
      </trkpt>
      <trkpt lat="46.29778" lon="-0.34329">
        <ele>64.6703</ele>
        <time>2011-07-03T12:26:07Z</time>
      </trkpt>
      <trkpt lat="46.29778" lon="-0.34331">
        <ele>64.6809</ele>
        <time>2011-07-03T12:26:08Z</time>
      </trkpt>
      <trkpt lat="46.29777" lon="-0.34333">
        <ele>64.6947</ele>
        <time>2011-07-03T12:26:09Z</time>
      </trkpt>
      <trkpt lat="46.29777" lon="-0.34335">
        <ele>64.7077</ele>
        <time>2011-07-03T12:26:10Z</time>
      </trkpt>
      <trkpt lat="46.29777" lon="-0.34337">
        <ele>64.7199</ele>
        <time>2011-07-03T12:26:11Z</time>
      </trkpt>
      <trkpt lat="46.29777" lon="-0.34339">
        <ele>64.7312</ele>
        <time>2011-07-03T12:26:12Z</time>
      </trkpt>
      <trkpt lat="46.29777" lon="-0.3434">
        <ele>64.7416</ele>
        <time>2011-07-03T12:26:13Z</time>
      </trkpt>
      <trkpt lat="46.29777" lon="-0.34342">
        <ele>64.751</ele>
        <time>2011-07-03T12:26:14Z</time>
      </trkpt>
      <trkpt lat="46.29777" lon="-0.34343">
        <ele>64.7596</ele>
        <time>2011-07-03T12:26:15Z</time>
      </trkpt>
      <trkpt lat="46.29777" lon="-0.34345">
        <ele>64.7672</ele>
        <time>2011-07-03T12:26:16Z</time>
      </trkpt>
      <trkpt lat="46.29777" lon="-0.34347">
        <ele>64.7666</ele>
        <time>2011-07-03T12:26:17Z</time>
      </trkpt>
      <trkpt lat="46.29778" lon="-0.34349">
        <ele>64.7589</ele>
        <time>2011-07-03T12:26:18Z</time>
      </trkpt>
      <trkpt lat="46.29778" lon="-0.3435">
        <ele>64.7443</ele>
        <time>2011-07-03T12:26:19Z</time>
      </trkpt>
      <trkpt lat="46.29778" lon="-0.34352">
        <ele>64.7304</ele>
        <time>2011-07-03T12:26:20Z</time>
      </trkpt>
      <trkpt lat="46.29779" lon="-0.34354">
        <ele>64.7136</ele>
        <time>2011-07-03T12:26:21Z</time>
      </trkpt>
      <trkpt lat="46.29779" lon="-0.34356">
        <ele>64.6967</ele>
        <time>2011-07-03T12:26:22Z</time>
      </trkpt>
      <trkpt lat="46.29779" lon="-0.34358">
        <ele>64.6752</ele>
        <time>2011-07-03T12:26:23Z</time>
      </trkpt>
      <trkpt lat="46.29779" lon="-0.3436">
        <ele>64.6511</ele>
        <time>2011-07-03T12:26:24Z</time>
      </trkpt>
      <trkpt lat="46.2978" lon="-0.34362">
        <ele>64.6217</ele>
        <time>2011-07-03T12:26:25Z</time>
      </trkpt>
      <trkpt lat="46.2978" lon="-0.34364">
        <ele>64.593</ele>
        <time>2011-07-03T12:26:26Z</time>
      </trkpt>
      <trkpt lat="46.2978" lon="-0.34366">
        <ele>64.5625</ele>
        <time>2011-07-03T12:26:27Z</time>
      </trkpt>
      <trkpt lat="46.29781" lon="-0.34368">
        <ele>64.5234</ele>
        <time>2011-07-03T12:26:28Z</time>
      </trkpt>
      <trkpt lat="46.29781" lon="-0.34369">
        <ele>64.4765</ele>
        <time>2011-07-03T12:26:29Z</time>
      </trkpt>
      <trkpt lat="46.29781" lon="-0.34371">
        <ele>64.428</ele>
        <time>2011-07-03T12:26:30Z</time>
      </trkpt>
      <trkpt lat="46.29782" lon="-0.34373">
        <ele>64.3807</ele>
        <time>2011-07-03T12:26:31Z</time>
      </trkpt>
      <trkpt lat="46.29782" lon="-0.34374">
        <ele>64.3337</ele>
        <time>2011-07-03T12:26:32Z</time>
      </trkpt>
      <trkpt lat="46.29782" lon="-0.34375">
        <ele>64.2876</ele>
        <time>2011-07-03T12:26:33Z</time>
      </trkpt>
      <trkpt lat="46.29782" lon="-0.34377">
        <ele>64.2429</ele>
        <time>2011-07-03T12:26:34Z</time>
      </trkpt>
      <trkpt lat="46.29783" lon="-0.34379">
        <ele>64.2011</ele>
        <time>2011-07-03T12:26:35Z</time>
      </trkpt>
      <trkpt lat="46.29783" lon="-0.3438">
        <ele>64.1624</ele>
        <time>2011-07-03T12:26:36Z</time>
      </trkpt>
      <trkpt lat="46.29783" lon="-0.34382">
        <ele>64.1264</ele>
        <time>2011-07-03T12:26:37Z</time>
      </trkpt>
      <trkpt lat="46.29782" lon="-0.34384">
        <ele>64.0918</ele>
        <time>2011-07-03T12:26:38Z</time>
      </trkpt>
      <trkpt lat="46.29782" lon="-0.34386">
        <ele>64.0609</ele>
        <time>2011-07-03T12:26:39Z</time>
      </trkpt>
      <trkpt lat="46.29782" lon="-0.34388">
        <ele>64.0308</ele>
        <time>2011-07-03T12:26:40Z</time>
      </trkpt>
      <trkpt lat="46.29782" lon="-0.3439">
        <ele>64.003</ele>
        <time>2011-07-03T12:26:41Z</time>
      </trkpt>
      <trkpt lat="46.29783" lon="-0.34392">
        <ele>63.9774</ele>
        <time>2011-07-03T12:26:42Z</time>
      </trkpt>
      <trkpt lat="46.29783" lon="-0.34394">
        <ele>63.9523</ele>
        <time>2011-07-03T12:26:43Z</time>
      </trkpt>
      <trkpt lat="46.29783" lon="-0.34397">
        <ele>63.9289</ele>
        <time>2011-07-03T12:26:44Z</time>
      </trkpt>
      <trkpt lat="46.29783" lon="-0.34399">
        <ele>63.9087</ele>
        <time>2011-07-03T12:26:45Z</time>
      </trkpt>
      <trkpt lat="46.29783" lon="-0.34402">
        <ele>63.8875</ele>
        <time>2011-07-03T12:26:46Z</time>
      </trkpt>
      <trkpt lat="46.29783" lon="-0.34404">
        <ele>63.8685</ele>
        <time>2011-07-03T12:26:47Z</time>
      </trkpt>
      <trkpt lat="46.29783" lon="-0.34406">
        <ele>63.8545</ele>
        <time>2011-07-03T12:26:48Z</time>
      </trkpt>
      <trkpt lat="46.29782" lon="-0.34409">
        <ele>63.8451</ele>
        <time>2011-07-03T12:26:49Z</time>
      </trkpt>
      <trkpt lat="46.29782" lon="-0.34411">
        <ele>63.8389</ele>
        <time>2011-07-03T12:26:50Z</time>
      </trkpt>
      <trkpt lat="46.29782" lon="-0.34413">
        <ele>63.8334</ele>
        <time>2011-07-03T12:26:51Z</time>
      </trkpt>
      <trkpt lat="46.29781" lon="-0.34415">
        <ele>63.8333</ele>
        <time>2011-07-03T12:26:52Z</time>
      </trkpt>
      <trkpt lat="46.29781" lon="-0.34417">
        <ele>63.8354</ele>
        <time>2011-07-03T12:26:53Z</time>
      </trkpt>
      <trkpt lat="46.29781" lon="-0.34418">
        <ele>63.837</ele>
        <time>2011-07-03T12:26:54Z</time>
      </trkpt>
      <trkpt lat="46.29781" lon="-0.3442">
        <ele>63.8382</ele>
        <time>2011-07-03T12:26:55Z</time>
      </trkpt>
      <trkpt lat="46.29781" lon="-0.34421">
        <ele>63.8402</ele>
        <time>2011-07-03T12:26:56Z</time>
      </trkpt>
      <trkpt lat="46.29781" lon="-0.34423">
        <ele>63.8421</ele>
        <time>2011-07-03T12:26:57Z</time>
      </trkpt>
      <trkpt lat="46.29781" lon="-0.34424">
        <ele>63.8439</ele>
        <time>2011-07-03T12:26:58Z</time>
      </trkpt>
      <trkpt lat="46.29782" lon="-0.34426">
        <ele>63.8466</ele>
        <time>2011-07-03T12:26:59Z</time>
      </trkpt>
      <trkpt lat="46.29781" lon="-0.34429">
        <ele>63.8489</ele>
        <time>2011-07-03T12:27:00Z</time>
      </trkpt>
      <trkpt lat="46.29781" lon="-0.34431">
        <ele>63.8527</ele>
        <time>2011-07-03T12:27:01Z</time>
      </trkpt>
      <trkpt lat="46.29781" lon="-0.34433">
        <ele>63.8563</ele>
        <time>2011-07-03T12:27:02Z</time>
      </trkpt>
      <trkpt lat="46.29781" lon="-0.34435">
        <ele>63.8643</ele>
        <time>2011-07-03T12:27:03Z</time>
      </trkpt>
      <trkpt lat="46.29781" lon="-0.34437">
        <ele>63.8731</ele>
        <time>2011-07-03T12:27:04Z</time>
      </trkpt>
      <trkpt lat="46.29781" lon="-0.34438">
        <ele>63.8855</ele>
        <time>2011-07-03T12:27:05Z</time>
      </trkpt>
      <trkpt lat="46.29782" lon="-0.3444">
        <ele>63.8955</ele>
        <time>2011-07-03T12:27:06Z</time>
      </trkpt>
      <trkpt lat="46.29782" lon="-0.34442">
        <ele>63.9088</ele>
        <time>2011-07-03T12:27:07Z</time>
      </trkpt>
      <trkpt lat="46.29782" lon="-0.34444">
        <ele>63.9209</ele>
        <time>2011-07-03T12:27:08Z</time>
      </trkpt>
      <trkpt lat="46.29782" lon="-0.34446">
        <ele>63.9364</ele>
        <time>2011-07-03T12:27:09Z</time>
      </trkpt>
      <trkpt lat="46.29783" lon="-0.34448">
        <ele>63.9549</ele>
        <time>2011-07-03T12:27:10Z</time>
      </trkpt>
      <trkpt lat="46.29783" lon="-0.3445">
        <ele>63.9755</ele>
        <time>2011-07-03T12:27:11Z</time>
      </trkpt>
      <trkpt lat="46.29783" lon="-0.34451">
        <ele>63.9963</ele>
        <time>2011-07-03T12:27:12Z</time>
      </trkpt>
      <trkpt lat="46.29783" lon="-0.34453">
        <ele>64.0177</ele>
        <time>2011-07-03T12:27:13Z</time>
      </trkpt>
      <trkpt lat="46.29783" lon="-0.34454">
        <ele>64.0382</ele>
        <time>2011-07-03T12:27:14Z</time>
      </trkpt>
      <trkpt lat="46.29783" lon="-0.34456">
        <ele>64.058</ele>
        <time>2011-07-03T12:27:15Z</time>
      </trkpt>
      <trkpt lat="46.29783" lon="-0.34458">
        <ele>64.0764</ele>
        <time>2011-07-03T12:27:16Z</time>
      </trkpt>
      <trkpt lat="46.29783" lon="-0.34459">
        <ele>64.0955</ele>
        <time>2011-07-03T12:27:17Z</time>
      </trkpt>
      <trkpt lat="46.29784" lon="-0.34461">
        <ele>64.1148</ele>
        <time>2011-07-03T12:27:18Z</time>
      </trkpt>
      <trkpt lat="46.29784" lon="-0.34463">
        <ele>64.1344</ele>
        <time>2011-07-03T12:27:19Z</time>
      </trkpt>
      <trkpt lat="46.29784" lon="-0.34465">
        <ele>64.1543</ele>
        <time>2011-07-03T12:27:20Z</time>
      </trkpt>
      <trkpt lat="46.29784" lon="-0.34466">
        <ele>64.175</ele>
        <time>2011-07-03T12:27:21Z</time>
      </trkpt>
      <trkpt lat="46.29785" lon="-0.34468">
        <ele>64.1938</ele>
        <time>2011-07-03T12:27:22Z</time>
      </trkpt>
      <trkpt lat="46.29785" lon="-0.34469">
        <ele>64.2099</ele>
        <time>2011-07-03T12:27:23Z</time>
      </trkpt>
      <trkpt lat="46.29785" lon="-0.34471">
        <ele>64.2232</ele>
        <time>2011-07-03T12:27:24Z</time>
      </trkpt>
      <trkpt lat="46.29785" lon="-0.34473">
        <ele>64.236</ele>
        <time>2011-07-03T12:27:25Z</time>
      </trkpt>
      <trkpt lat="46.29785" lon="-0.34475">
        <ele>64.249</ele>
        <time>2011-07-03T12:27:26Z</time>
      </trkpt>
      <trkpt lat="46.29785" lon="-0.34477">
        <ele>64.2616</ele>
        <time>2011-07-03T12:27:27Z</time>
      </trkpt>
      <trkpt lat="46.29785" lon="-0.34479">
        <ele>64.2721</ele>
        <time>2011-07-03T12:27:28Z</time>
      </trkpt>
      <trkpt lat="46.29785" lon="-0.34481">
        <ele>64.2806</ele>
        <time>2011-07-03T12:27:29Z</time>
      </trkpt>
      <trkpt lat="46.29786" lon="-0.34483">
        <ele>64.2869</ele>
        <time>2011-07-03T12:27:30Z</time>
      </trkpt>
      <trkpt lat="46.29786" lon="-0.34485">
        <ele>64.2929</ele>
        <time>2011-07-03T12:27:31Z</time>
      </trkpt>
      <trkpt lat="46.29786" lon="-0.34487">
        <ele>64.299</ele>
        <time>2011-07-03T12:27:32Z</time>
      </trkpt>
      <trkpt lat="46.29786" lon="-0.34488">
        <ele>64.3047</ele>
        <time>2011-07-03T12:27:33Z</time>
      </trkpt>
      <trkpt lat="46.29786" lon="-0.3449">
        <ele>64.3116</ele>
        <time>2011-07-03T12:27:34Z</time>
      </trkpt>
      <trkpt lat="46.29786" lon="-0.34492">
        <ele>64.3184</ele>
        <time>2011-07-03T12:27:35Z</time>
      </trkpt>
      <trkpt lat="46.29787" lon="-0.34494">
        <ele>64.3266</ele>
        <time>2011-07-03T12:27:36Z</time>
      </trkpt>
      <trkpt lat="46.29787" lon="-0.34496">
        <ele>64.3353</ele>
        <time>2011-07-03T12:27:37Z</time>
      </trkpt>
      <trkpt lat="46.29786" lon="-0.34498">
        <ele>64.3453</ele>
        <time>2011-07-03T12:27:38Z</time>
      </trkpt>
      <trkpt lat="46.29786" lon="-0.34499">
        <ele>64.3568</ele>
        <time>2011-07-03T12:27:39Z</time>
      </trkpt>
      <trkpt lat="46.29786" lon="-0.34501">
        <ele>64.3711</ele>
        <time>2011-07-03T12:27:40Z</time>
      </trkpt>
      <trkpt lat="46.29786" lon="-0.34503">
        <ele>64.3855</ele>
        <time>2011-07-03T12:27:41Z</time>
      </trkpt>
      <trkpt lat="46.29786" lon="-0.34504">
        <ele>64.4003</ele>
        <time>2011-07-03T12:27:42Z</time>
      </trkpt>
      <trkpt lat="46.29786" lon="-0.34506">
        <ele>64.4154</ele>
        <time>2011-07-03T12:27:43Z</time>
      </trkpt>
      <trkpt lat="46.29785" lon="-0.34508">
        <ele>64.4333</ele>
        <time>2011-07-03T12:27:44Z</time>
      </trkpt>
      <trkpt lat="46.29785" lon="-0.3451">
        <ele>64.4535</ele>
        <time>2011-07-03T12:27:45Z</time>
      </trkpt>
      <trkpt lat="46.29785" lon="-0.34512">
        <ele>64.4717</ele>
        <time>2011-07-03T12:27:46Z</time>
      </trkpt>
      <trkpt lat="46.29785" lon="-0.34514">
        <ele>64.4896</ele>
        <time>2011-07-03T12:27:47Z</time>
      </trkpt>
      <trkpt lat="46.29785" lon="-0.34515">
        <ele>64.5098</ele>
        <time>2011-07-03T12:27:48Z</time>
      </trkpt>
      <trkpt lat="46.29785" lon="-0.34517">
        <ele>64.5284</ele>
        <time>2011-07-03T12:27:49Z</time>
      </trkpt>
      <trkpt lat="46.29785" lon="-0.34519">
        <ele>64.5441</ele>
        <time>2011-07-03T12:27:50Z</time>
      </trkpt>
      <trkpt lat="46.29784" lon="-0.34521">
        <ele>64.5602</ele>
        <time>2011-07-03T12:27:51Z</time>
      </trkpt>
      <trkpt lat="46.29784" lon="-0.34523">
        <ele>64.5765</ele>
        <time>2011-07-03T12:27:52Z</time>
      </trkpt>
      <trkpt lat="46.29784" lon="-0.34525">
        <ele>64.595</ele>
        <time>2011-07-03T12:27:53Z</time>
      </trkpt>
      <trkpt lat="46.29784" lon="-0.34528">
        <ele>64.6155</ele>
        <time>2011-07-03T12:27:54Z</time>
      </trkpt>
      <trkpt lat="46.29783" lon="-0.3453">
        <ele>64.6381</ele>
        <time>2011-07-03T12:27:55Z</time>
      </trkpt>
      <trkpt lat="46.29783" lon="-0.34532">
        <ele>64.6629</ele>
        <time>2011-07-03T12:27:56Z</time>
      </trkpt>
      <trkpt lat="46.29782" lon="-0.34534">
        <ele>64.69</ele>
        <time>2011-07-03T12:27:57Z</time>
      </trkpt>
      <trkpt lat="46.29781" lon="-0.34536">
        <ele>64.7162</ele>
        <time>2011-07-03T12:27:58Z</time>
      </trkpt>
      <trkpt lat="46.29781" lon="-0.34538">
        <ele>64.7453</ele>
        <time>2011-07-03T12:27:59Z</time>
      </trkpt>
      <trkpt lat="46.29781" lon="-0.3454">
        <ele>64.7756</ele>
        <time>2011-07-03T12:28:00Z</time>
      </trkpt>
      <trkpt lat="46.2978" lon="-0.34542">
        <ele>64.8092</ele>
        <time>2011-07-03T12:28:01Z</time>
      </trkpt>
      <trkpt lat="46.2978" lon="-0.34544">
        <ele>64.8444</ele>
        <time>2011-07-03T12:28:02Z</time>
      </trkpt>
      <trkpt lat="46.29779" lon="-0.34546">
        <ele>64.8813</ele>
        <time>2011-07-03T12:28:03Z</time>
      </trkpt>
      <trkpt lat="46.29779" lon="-0.34547">
        <ele>64.9185</ele>
        <time>2011-07-03T12:28:04Z</time>
      </trkpt>
      <trkpt lat="46.29779" lon="-0.34549">
        <ele>64.957</ele>
        <time>2011-07-03T12:28:05Z</time>
      </trkpt>
      <trkpt lat="46.29779" lon="-0.3455">
        <ele>64.994</ele>
        <time>2011-07-03T12:28:06Z</time>
      </trkpt>
      <trkpt lat="46.29778" lon="-0.34552">
        <ele>65.0323</ele>
        <time>2011-07-03T12:28:07Z</time>
      </trkpt>
      <trkpt lat="46.29778" lon="-0.34553">
        <ele>65.0684</ele>
        <time>2011-07-03T12:28:08Z</time>
      </trkpt>
      <trkpt lat="46.29778" lon="-0.34555">
        <ele>65.1002</ele>
        <time>2011-07-03T12:28:09Z</time>
      </trkpt>
      <trkpt lat="46.29778" lon="-0.34556">
        <ele>65.1305</ele>
        <time>2011-07-03T12:28:10Z</time>
      </trkpt>
      <trkpt lat="46.29778" lon="-0.34558">
        <ele>65.1569</ele>
        <time>2011-07-03T12:28:11Z</time>
      </trkpt>
      <trkpt lat="46.29778" lon="-0.34559">
        <ele>65.1841</ele>
        <time>2011-07-03T12:28:12Z</time>
      </trkpt>
      <trkpt lat="46.29778" lon="-0.34561">
        <ele>65.2078</ele>
        <time>2011-07-03T12:28:13Z</time>
      </trkpt>
      <trkpt lat="46.29778" lon="-0.34563">
        <ele>65.2296</ele>
        <time>2011-07-03T12:28:14Z</time>
      </trkpt>
      <trkpt lat="46.29778" lon="-0.34565">
        <ele>65.2506</ele>
        <time>2011-07-03T12:28:15Z</time>
      </trkpt>
      <trkpt lat="46.29778" lon="-0.34567">
        <ele>65.273</ele>
        <time>2011-07-03T12:28:16Z</time>
      </trkpt>
      <trkpt lat="46.29778" lon="-0.34569">
        <ele>65.2957</ele>
        <time>2011-07-03T12:28:17Z</time>
      </trkpt>
      <trkpt lat="46.29779" lon="-0.34571">
        <ele>65.3205</ele>
        <time>2011-07-03T12:28:18Z</time>
      </trkpt>
      <trkpt lat="46.29779" lon="-0.34573">
        <ele>65.3459</ele>
        <time>2011-07-03T12:28:19Z</time>
      </trkpt>
      <trkpt lat="46.29779" lon="-0.34576">
        <ele>65.3716</ele>
        <time>2011-07-03T12:28:20Z</time>
      </trkpt>
      <trkpt lat="46.29779" lon="-0.34578">
        <ele>65.398</ele>
        <time>2011-07-03T12:28:21Z</time>
      </trkpt>
      <trkpt lat="46.29779" lon="-0.34581">
        <ele>65.4235</ele>
        <time>2011-07-03T12:28:22Z</time>
      </trkpt>
      <trkpt lat="46.2978" lon="-0.34584">
        <ele>65.4495</ele>
        <time>2011-07-03T12:28:23Z</time>
      </trkpt>
      <trkpt lat="46.29779" lon="-0.34586">
        <ele>65.476</ele>
        <time>2011-07-03T12:28:24Z</time>
      </trkpt>
      <trkpt lat="46.29779" lon="-0.34588">
        <ele>65.496</ele>
        <time>2011-07-03T12:28:25Z</time>
      </trkpt>
      <trkpt lat="46.29779" lon="-0.3459">
        <ele>65.5157</ele>
        <time>2011-07-03T12:28:26Z</time>
      </trkpt>
      <trkpt lat="46.29779" lon="-0.34593">
        <ele>65.5354</ele>
        <time>2011-07-03T12:28:27Z</time>
      </trkpt>
      <trkpt lat="46.29779" lon="-0.34595">
        <ele>65.555</ele>
        <time>2011-07-03T12:28:28Z</time>
      </trkpt>
      <trkpt lat="46.29779" lon="-0.34597">
        <ele>65.574</ele>
        <time>2011-07-03T12:28:29Z</time>
      </trkpt>
      <trkpt lat="46.29779" lon="-0.34599">
        <ele>65.5933</ele>
        <time>2011-07-03T12:28:30Z</time>
      </trkpt>
      <trkpt lat="46.29779" lon="-0.34601">
        <ele>65.6119</ele>
        <time>2011-07-03T12:28:31Z</time>
      </trkpt>
      <trkpt lat="46.29779" lon="-0.34603">
        <ele>65.625</ele>
        <time>2011-07-03T12:28:32Z</time>
      </trkpt>
      <trkpt lat="46.29779" lon="-0.34605">
        <ele>65.637</ele>
        <time>2011-07-03T12:28:33Z</time>
      </trkpt>
      <trkpt lat="46.29779" lon="-0.34606">
        <ele>65.6479</ele>
        <time>2011-07-03T12:28:34Z</time>
      </trkpt>
      <trkpt lat="46.29779" lon="-0.34608">
        <ele>65.6577</ele>
        <time>2011-07-03T12:28:35Z</time>
      </trkpt>
      <trkpt lat="46.29779" lon="-0.3461">
        <ele>65.6725</ele>
        <time>2011-07-03T12:28:36Z</time>
      </trkpt>
      <trkpt lat="46.29779" lon="-0.34611">
        <ele>65.6867</ele>
        <time>2011-07-03T12:28:37Z</time>
      </trkpt>
      <trkpt lat="46.29779" lon="-0.34613">
        <ele>65.7027</ele>
        <time>2011-07-03T12:28:38Z</time>
      </trkpt>
      <trkpt lat="46.29779" lon="-0.34615">
        <ele>65.7193</ele>
        <time>2011-07-03T12:28:39Z</time>
      </trkpt>
      <trkpt lat="46.29779" lon="-0.34617">
        <ele>65.7354</ele>
        <time>2011-07-03T12:28:40Z</time>
      </trkpt>
      <trkpt lat="46.29779" lon="-0.34619">
        <ele>65.7504</ele>
        <time>2011-07-03T12:28:41Z</time>
      </trkpt>
      <trkpt lat="46.29779" lon="-0.3462">
        <ele>65.7649</ele>
        <time>2011-07-03T12:28:42Z</time>
      </trkpt>
      <trkpt lat="46.29778" lon="-0.34622">
        <ele>65.7751</ele>
        <time>2011-07-03T12:28:43Z</time>
      </trkpt>
      <trkpt lat="46.29778" lon="-0.34624">
        <ele>65.7787</ele>
        <time>2011-07-03T12:28:44Z</time>
      </trkpt>
      <trkpt lat="46.29778" lon="-0.34626">
        <ele>65.7828</ele>
        <time>2011-07-03T12:28:45Z</time>
      </trkpt>
      <trkpt lat="46.29778" lon="-0.34627">
        <ele>65.787</ele>
        <time>2011-07-03T12:28:46Z</time>
      </trkpt>
      <trkpt lat="46.29778" lon="-0.34629">
        <ele>65.791</ele>
        <time>2011-07-03T12:28:47Z</time>
      </trkpt>
      <trkpt lat="46.29778" lon="-0.3463">
        <ele>65.7947</ele>
        <time>2011-07-03T12:28:48Z</time>
      </trkpt>
      <trkpt lat="46.29778" lon="-0.34632">
        <ele>65.7985</ele>
        <time>2011-07-03T12:28:49Z</time>
      </trkpt>
      <trkpt lat="46.29778" lon="-0.34635">
        <ele>65.8026</ele>
        <time>2011-07-03T12:28:50Z</time>
      </trkpt>
      <trkpt lat="46.29778" lon="-0.34637">
        <ele>65.807</ele>
        <time>2011-07-03T12:28:51Z</time>
      </trkpt>
      <trkpt lat="46.29777" lon="-0.34639">
        <ele>65.8116</ele>
        <time>2011-07-03T12:28:52Z</time>
      </trkpt>
      <trkpt lat="46.29777" lon="-0.34641">
        <ele>65.8159</ele>
        <time>2011-07-03T12:28:53Z</time>
      </trkpt>
      <trkpt lat="46.29777" lon="-0.34643">
        <ele>65.819</ele>
        <time>2011-07-03T12:28:54Z</time>
      </trkpt>
      <trkpt lat="46.29776" lon="-0.34644">
        <ele>65.8222</ele>
        <time>2011-07-03T12:28:55Z</time>
      </trkpt>
      <trkpt lat="46.29776" lon="-0.34646">
        <ele>65.822</ele>
        <time>2011-07-03T12:28:56Z</time>
      </trkpt>
      <trkpt lat="46.29776" lon="-0.34648">
        <ele>65.8216</ele>
        <time>2011-07-03T12:28:57Z</time>
      </trkpt>
      <trkpt lat="46.29776" lon="-0.34649">
        <ele>65.8202</ele>
        <time>2011-07-03T12:28:58Z</time>
      </trkpt>
      <trkpt lat="46.29776" lon="-0.34651">
        <ele>65.8182</ele>
        <time>2011-07-03T12:28:59Z</time>
      </trkpt>
      <trkpt lat="46.29776" lon="-0.34653">
        <ele>65.8132</ele>
        <time>2011-07-03T12:29:00Z</time>
      </trkpt>
      <trkpt lat="46.29775" lon="-0.34655">
        <ele>65.8079</ele>
        <time>2011-07-03T12:29:01Z</time>
      </trkpt>
      <trkpt lat="46.29775" lon="-0.34657">
        <ele>65.8023</ele>
        <time>2011-07-03T12:29:02Z</time>
      </trkpt>
      <trkpt lat="46.29775" lon="-0.34658">
        <ele>65.7943</ele>
        <time>2011-07-03T12:29:03Z</time>
      </trkpt>
      <trkpt lat="46.29775" lon="-0.3466">
        <ele>65.7883</ele>
        <time>2011-07-03T12:29:04Z</time>
      </trkpt>
      <trkpt lat="46.29774" lon="-0.34662">
        <ele>65.7842</ele>
        <time>2011-07-03T12:29:05Z</time>
      </trkpt>
      <trkpt lat="46.29774" lon="-0.34664">
        <ele>65.7831</ele>
        <time>2011-07-03T12:29:06Z</time>
      </trkpt>
      <trkpt lat="46.29774" lon="-0.34665">
        <ele>65.7821</ele>
        <time>2011-07-03T12:29:07Z</time>
      </trkpt>
      <trkpt lat="46.29774" lon="-0.34667">
        <ele>65.7808</ele>
        <time>2011-07-03T12:29:08Z</time>
      </trkpt>
      <trkpt lat="46.29774" lon="-0.34669">
        <ele>65.7802</ele>
        <time>2011-07-03T12:29:09Z</time>
      </trkpt>
      <trkpt lat="46.29774" lon="-0.34671">
        <ele>65.7797</ele>
        <time>2011-07-03T12:29:10Z</time>
      </trkpt>
      <trkpt lat="46.29773" lon="-0.34673">
        <ele>65.7787</ele>
        <time>2011-07-03T12:29:11Z</time>
      </trkpt>
      <trkpt lat="46.29773" lon="-0.34675">
        <ele>65.7777</ele>
        <time>2011-07-03T12:29:12Z</time>
      </trkpt>
      <trkpt lat="46.29773" lon="-0.34677">
        <ele>65.7783</ele>
        <time>2011-07-03T12:29:13Z</time>
      </trkpt>
      <trkpt lat="46.29773" lon="-0.34679">
        <ele>65.776</ele>
        <time>2011-07-03T12:29:14Z</time>
      </trkpt>
      <trkpt lat="46.29773" lon="-0.34681">
        <ele>65.7704</ele>
        <time>2011-07-03T12:29:15Z</time>
      </trkpt>
      <trkpt lat="46.29772" lon="-0.34682">
        <ele>65.7596</ele>
        <time>2011-07-03T12:29:16Z</time>
      </trkpt>
      <trkpt lat="46.29772" lon="-0.34684">
        <ele>65.7467</ele>
        <time>2011-07-03T12:29:17Z</time>
      </trkpt>
      <trkpt lat="46.29772" lon="-0.34685">
        <ele>65.7312</ele>
        <time>2011-07-03T12:29:18Z</time>
      </trkpt>
      <trkpt lat="46.29772" lon="-0.34687">
        <ele>65.7106</ele>
        <time>2011-07-03T12:29:19Z</time>
      </trkpt>
      <trkpt lat="46.29772" lon="-0.34688">
        <ele>65.6921</ele>
        <time>2011-07-03T12:29:20Z</time>
      </trkpt>
      <trkpt lat="46.29771" lon="-0.3469">
        <ele>65.6685</ele>
        <time>2011-07-03T12:29:21Z</time>
      </trkpt>
      <trkpt lat="46.29771" lon="-0.34692">
        <ele>65.6427</ele>
        <time>2011-07-03T12:29:22Z</time>
      </trkpt>
      <trkpt lat="46.29771" lon="-0.34694">
        <ele>65.6141</ele>
        <time>2011-07-03T12:29:23Z</time>
      </trkpt>
      <trkpt lat="46.29771" lon="-0.34696">
        <ele>65.5815</ele>
        <time>2011-07-03T12:29:24Z</time>
      </trkpt>
      <trkpt lat="46.29771" lon="-0.34698">
        <ele>65.5497</ele>
        <time>2011-07-03T12:29:25Z</time>
      </trkpt>
      <trkpt lat="46.29771" lon="-0.347">
        <ele>65.5185</ele>
        <time>2011-07-03T12:29:26Z</time>
      </trkpt>
      <trkpt lat="46.2977" lon="-0.34702">
        <ele>65.4853</ele>
        <time>2011-07-03T12:29:27Z</time>
      </trkpt>
      <trkpt lat="46.2977" lon="-0.34704">
        <ele>65.4526</ele>
        <time>2011-07-03T12:29:28Z</time>
      </trkpt>
      <trkpt lat="46.2977" lon="-0.34706">
        <ele>65.4219</ele>
        <time>2011-07-03T12:29:29Z</time>
      </trkpt>
      <trkpt lat="46.2977" lon="-0.34707">
        <ele>65.3924</ele>
        <time>2011-07-03T12:29:30Z</time>
      </trkpt>
      <trkpt lat="46.2977" lon="-0.34709">
        <ele>65.3667</ele>
        <time>2011-07-03T12:29:31Z</time>
      </trkpt>
      <trkpt lat="46.29769" lon="-0.34711">
        <ele>65.3426</ele>
        <time>2011-07-03T12:29:32Z</time>
      </trkpt>
      <trkpt lat="46.29769" lon="-0.34713">
        <ele>65.3217</ele>
        <time>2011-07-03T12:29:33Z</time>
      </trkpt>
      <trkpt lat="46.29769" lon="-0.34715">
        <ele>65.3035</ele>
        <time>2011-07-03T12:29:34Z</time>
      </trkpt>
      <trkpt lat="46.29768" lon="-0.34717">
        <ele>65.2858</ele>
        <time>2011-07-03T12:29:35Z</time>
      </trkpt>
      <trkpt lat="46.29768" lon="-0.34719">
        <ele>65.2697</ele>
        <time>2011-07-03T12:29:36Z</time>
      </trkpt>
      <trkpt lat="46.29768" lon="-0.34721">
        <ele>65.2551</ele>
        <time>2011-07-03T12:29:37Z</time>
      </trkpt>
      <trkpt lat="46.29768" lon="-0.34723">
        <ele>65.2404</ele>
        <time>2011-07-03T12:29:38Z</time>
      </trkpt>
      <trkpt lat="46.29767" lon="-0.34725">
        <ele>65.2265</ele>
        <time>2011-07-03T12:29:39Z</time>
      </trkpt>
      <trkpt lat="46.29767" lon="-0.34727">
        <ele>65.2086</ele>
        <time>2011-07-03T12:29:40Z</time>
      </trkpt>
      <trkpt lat="46.29767" lon="-0.34729">
        <ele>65.1908</ele>
        <time>2011-07-03T12:29:41Z</time>
      </trkpt>
      <trkpt lat="46.29767" lon="-0.34731">
        <ele>65.173</ele>
        <time>2011-07-03T12:29:42Z</time>
      </trkpt>
      <trkpt lat="46.29766" lon="-0.34732">
        <ele>65.1574</ele>
        <time>2011-07-03T12:29:43Z</time>
      </trkpt>
      <trkpt lat="46.29766" lon="-0.34734">
        <ele>65.1421</ele>
        <time>2011-07-03T12:29:44Z</time>
      </trkpt>
      <trkpt lat="46.29766" lon="-0.34736">
        <ele>65.1272</ele>
        <time>2011-07-03T12:29:45Z</time>
      </trkpt>
      <trkpt lat="46.29766" lon="-0.34738">
        <ele>65.1161</ele>
        <time>2011-07-03T12:29:46Z</time>
      </trkpt>
      <trkpt lat="46.29765" lon="-0.3474">
        <ele>65.1076</ele>
        <time>2011-07-03T12:29:47Z</time>
      </trkpt>
      <trkpt lat="46.29765" lon="-0.34742">
        <ele>65.1034</ele>
        <time>2011-07-03T12:29:48Z</time>
      </trkpt>
      <trkpt lat="46.29765" lon="-0.34744">
        <ele>65.1053</ele>
        <time>2011-07-03T12:29:49Z</time>
      </trkpt>
      <trkpt lat="46.29765" lon="-0.34746">
        <ele>65.1107</ele>
        <time>2011-07-03T12:29:50Z</time>
      </trkpt>
      <trkpt lat="46.29765" lon="-0.34747">
        <ele>65.1174</ele>
        <time>2011-07-03T12:29:51Z</time>
      </trkpt>
      <trkpt lat="46.29765" lon="-0.34749">
        <ele>65.1306</ele>
        <time>2011-07-03T12:29:52Z</time>
      </trkpt>
      <trkpt lat="46.29764" lon="-0.34751">
        <ele>65.1441</ele>
        <time>2011-07-03T12:29:53Z</time>
      </trkpt>
      <trkpt lat="46.29764" lon="-0.34753">
        <ele>65.1575</ele>
        <time>2011-07-03T12:29:54Z</time>
      </trkpt>
      <trkpt lat="46.29764" lon="-0.34755">
        <ele>65.1719</ele>
        <time>2011-07-03T12:29:55Z</time>
      </trkpt>
      <trkpt lat="46.29763" lon="-0.34757">
        <ele>65.1862</ele>
        <time>2011-07-03T12:29:56Z</time>
      </trkpt>
      <trkpt lat="46.29763" lon="-0.34759">
        <ele>65.1974</ele>
        <time>2011-07-03T12:29:57Z</time>
      </trkpt>
      <trkpt lat="46.29763" lon="-0.34761">
        <ele>65.2071</ele>
        <time>2011-07-03T12:29:58Z</time>
      </trkpt>
      <trkpt lat="46.29763" lon="-0.34763">
        <ele>65.2195</ele>
        <time>2011-07-03T12:29:59Z</time>
      </trkpt>
      <trkpt lat="46.29763" lon="-0.34765">
        <ele>65.2329</ele>
        <time>2011-07-03T12:30:00Z</time>
      </trkpt>
      <trkpt lat="46.29763" lon="-0.34767">
        <ele>65.2473</ele>
        <time>2011-07-03T12:30:01Z</time>
      </trkpt>
      <trkpt lat="46.29762" lon="-0.34769">
        <ele>65.267</ele>
        <time>2011-07-03T12:30:02Z</time>
      </trkpt>
      <trkpt lat="46.29762" lon="-0.34771">
        <ele>65.292</ele>
        <time>2011-07-03T12:30:03Z</time>
      </trkpt>
      <trkpt lat="46.29762" lon="-0.34774">
        <ele>65.3167</ele>
        <time>2011-07-03T12:30:04Z</time>
      </trkpt>
      <trkpt lat="46.29762" lon="-0.34776">
        <ele>65.3449</ele>
        <time>2011-07-03T12:30:05Z</time>
      </trkpt>
      <trkpt lat="46.29762" lon="-0.34778">
        <ele>65.3726</ele>
        <time>2011-07-03T12:30:06Z</time>
      </trkpt>
      <trkpt lat="46.29762" lon="-0.3478">
        <ele>65.406</ele>
        <time>2011-07-03T12:30:07Z</time>
      </trkpt>
      <trkpt lat="46.29761" lon="-0.34783">
        <ele>65.4448</ele>
        <time>2011-07-03T12:30:08Z</time>
      </trkpt>
      <trkpt lat="46.29761" lon="-0.34784">
        <ele>65.4875</ele>
        <time>2011-07-03T12:30:09Z</time>
      </trkpt>
      <trkpt lat="46.2976" lon="-0.34786">
        <ele>65.5372</ele>
        <time>2011-07-03T12:30:10Z</time>
      </trkpt>
      <trkpt lat="46.2976" lon="-0.34787">
        <ele>65.5896</ele>
        <time>2011-07-03T12:30:11Z</time>
      </trkpt>
      <trkpt lat="46.29761" lon="-0.34789">
        <ele>65.6422</ele>
        <time>2011-07-03T12:30:12Z</time>
      </trkpt>
      <trkpt lat="46.2976" lon="-0.34791">
        <ele>65.6939</ele>
        <time>2011-07-03T12:30:13Z</time>
      </trkpt>
      <trkpt lat="46.29761" lon="-0.34792">
        <ele>65.7444</ele>
        <time>2011-07-03T12:30:14Z</time>
      </trkpt>
      <trkpt lat="46.29761" lon="-0.34794">
        <ele>65.7942</ele>
        <time>2011-07-03T12:30:15Z</time>
      </trkpt>
      <trkpt lat="46.29761" lon="-0.34795">
        <ele>65.8428</ele>
        <time>2011-07-03T12:30:16Z</time>
      </trkpt>
      <trkpt lat="46.29761" lon="-0.34797">
        <ele>65.8904</ele>
        <time>2011-07-03T12:30:17Z</time>
      </trkpt>
      <trkpt lat="46.29761" lon="-0.34799">
        <ele>65.937</ele>
        <time>2011-07-03T12:30:18Z</time>
      </trkpt>
      <trkpt lat="46.29761" lon="-0.348">
        <ele>65.9829</ele>
        <time>2011-07-03T12:30:19Z</time>
      </trkpt>
      <trkpt lat="46.29761" lon="-0.34802">
        <ele>66.027</ele>
        <time>2011-07-03T12:30:20Z</time>
      </trkpt>
      <trkpt lat="46.29761" lon="-0.34804">
        <ele>66.0702</ele>
        <time>2011-07-03T12:30:21Z</time>
      </trkpt>
      <trkpt lat="46.2976" lon="-0.34805">
        <ele>66.1119</ele>
        <time>2011-07-03T12:30:22Z</time>
      </trkpt>
      <trkpt lat="46.2976" lon="-0.34807">
        <ele>66.1532</ele>
        <time>2011-07-03T12:30:23Z</time>
      </trkpt>
      <trkpt lat="46.2976" lon="-0.34809">
        <ele>66.194</ele>
        <time>2011-07-03T12:30:24Z</time>
      </trkpt>
      <trkpt lat="46.2976" lon="-0.34811">
        <ele>66.2347</ele>
        <time>2011-07-03T12:30:25Z</time>
      </trkpt>
      <trkpt lat="46.2976" lon="-0.34813">
        <ele>66.2738</ele>
        <time>2011-07-03T12:30:26Z</time>
      </trkpt>
      <trkpt lat="46.29759" lon="-0.34814">
        <ele>66.3133</ele>
        <time>2011-07-03T12:30:27Z</time>
      </trkpt>
      <trkpt lat="46.29759" lon="-0.34815">
        <ele>66.354</ele>
        <time>2011-07-03T12:30:28Z</time>
      </trkpt>
      <trkpt lat="46.29758" lon="-0.34816">
        <ele>66.397</ele>
        <time>2011-07-03T12:30:29Z</time>
      </trkpt>
      <trkpt lat="46.29758" lon="-0.34817">
        <ele>66.4413</ele>
        <time>2011-07-03T12:30:30Z</time>
      </trkpt>
      <trkpt lat="46.29758" lon="-0.34819">
        <ele>66.4866</ele>
        <time>2011-07-03T12:30:31Z</time>
      </trkpt>
      <trkpt lat="46.29757" lon="-0.3482">
        <ele>66.5332</ele>
        <time>2011-07-03T12:30:32Z</time>
      </trkpt>
      <trkpt lat="46.29758" lon="-0.34821">
        <ele>66.581</ele>
        <time>2011-07-03T12:30:33Z</time>
      </trkpt>
      <trkpt lat="46.29757" lon="-0.34822">
        <ele>66.6273</ele>
        <time>2011-07-03T12:30:34Z</time>
      </trkpt>
      <trkpt lat="46.29757" lon="-0.34824">
        <ele>66.6663</ele>
        <time>2011-07-03T12:30:35Z</time>
      </trkpt>
      <trkpt lat="46.29757" lon="-0.34825">
        <ele>66.6991</ele>
        <time>2011-07-03T12:30:36Z</time>
      </trkpt>
      <trkpt lat="46.29757" lon="-0.34827">
        <ele>66.7261</ele>
        <time>2011-07-03T12:30:37Z</time>
      </trkpt>
      <trkpt lat="46.29756" lon="-0.34828">
        <ele>66.7516</ele>
        <time>2011-07-03T12:30:38Z</time>
      </trkpt>
      <trkpt lat="46.29756" lon="-0.3483">
        <ele>66.7758</ele>
        <time>2011-07-03T12:30:39Z</time>
      </trkpt>
      <trkpt lat="46.29756" lon="-0.34832">
        <ele>66.8007</ele>
        <time>2011-07-03T12:30:40Z</time>
      </trkpt>
      <trkpt lat="46.29756" lon="-0.34833">
        <ele>66.825</ele>
        <time>2011-07-03T12:30:41Z</time>
      </trkpt>
      <trkpt lat="46.29755" lon="-0.34835">
        <ele>66.8454</ele>
        <time>2011-07-03T12:30:42Z</time>
      </trkpt>
      <trkpt lat="46.29755" lon="-0.34837">
        <ele>66.8609</ele>
        <time>2011-07-03T12:30:43Z</time>
      </trkpt>
      <trkpt lat="46.29755" lon="-0.34839">
        <ele>66.8727</ele>
        <time>2011-07-03T12:30:44Z</time>
      </trkpt>
      <trkpt lat="46.29754" lon="-0.34841">
        <ele>66.883</ele>
        <time>2011-07-03T12:30:45Z</time>
      </trkpt>
      <trkpt lat="46.29754" lon="-0.34842">
        <ele>66.8962</ele>
        <time>2011-07-03T12:30:46Z</time>
      </trkpt>
      <trkpt lat="46.29754" lon="-0.34844">
        <ele>66.9103</ele>
        <time>2011-07-03T12:30:47Z</time>
      </trkpt>
      <trkpt lat="46.29754" lon="-0.34847">
        <ele>66.9254</ele>
        <time>2011-07-03T12:30:48Z</time>
      </trkpt>
      <trkpt lat="46.29753" lon="-0.34849">
        <ele>66.9422</ele>
        <time>2011-07-03T12:30:49Z</time>
      </trkpt>
      <trkpt lat="46.29753" lon="-0.34851">
        <ele>66.9582</ele>
        <time>2011-07-03T12:30:50Z</time>
      </trkpt>
      <trkpt lat="46.29752" lon="-0.34853">
        <ele>66.9745</ele>
        <time>2011-07-03T12:30:51Z</time>
      </trkpt>
      <trkpt lat="46.29752" lon="-0.34855">
        <ele>66.9968</ele>
        <time>2011-07-03T12:30:52Z</time>
      </trkpt>
      <trkpt lat="46.29752" lon="-0.34857">
        <ele>67.0276</ele>
        <time>2011-07-03T12:30:53Z</time>
      </trkpt>
      <trkpt lat="46.2975" lon="-0.3486">
        <ele>67.06</ele>
        <time>2011-07-03T12:30:54Z</time>
      </trkpt>
      <trkpt lat="46.2975" lon="-0.34862">
        <ele>67.0956</ele>
        <time>2011-07-03T12:30:55Z</time>
      </trkpt>
      <trkpt lat="46.29749" lon="-0.34864">
        <ele>67.1293</ele>
        <time>2011-07-03T12:30:56Z</time>
      </trkpt>
      <trkpt lat="46.29748" lon="-0.34867">
        <ele>67.1616</ele>
        <time>2011-07-03T12:30:57Z</time>
      </trkpt>
      <trkpt lat="46.29747" lon="-0.34869">
        <ele>67.1912</ele>
        <time>2011-07-03T12:30:58Z</time>
      </trkpt>
      <trkpt lat="46.29747" lon="-0.34871">
        <ele>67.2179</ele>
        <time>2011-07-03T12:30:59Z</time>
      </trkpt>
      <trkpt lat="46.29747" lon="-0.34873">
        <ele>67.2472</ele>
        <time>2011-07-03T12:31:00Z</time>
      </trkpt>
      <trkpt lat="46.29746" lon="-0.34875">
        <ele>67.2737</ele>
        <time>2011-07-03T12:31:01Z</time>
      </trkpt>
      <trkpt lat="46.29746" lon="-0.34876">
        <ele>67.305</ele>
        <time>2011-07-03T12:31:02Z</time>
      </trkpt>
      <trkpt lat="46.29746" lon="-0.34878">
        <ele>67.333</ele>
        <time>2011-07-03T12:31:03Z</time>
      </trkpt>
      <trkpt lat="46.29746" lon="-0.3488">
        <ele>67.36</ele>
        <time>2011-07-03T12:31:04Z</time>
      </trkpt>
      <trkpt lat="46.29746" lon="-0.34882">
        <ele>67.3863</ele>
        <time>2011-07-03T12:31:05Z</time>
      </trkpt>
      <trkpt lat="46.29745" lon="-0.34883">
        <ele>67.4108</ele>
        <time>2011-07-03T12:31:06Z</time>
      </trkpt>
      <trkpt lat="46.29745" lon="-0.34885">
        <ele>67.4344</ele>
        <time>2011-07-03T12:31:07Z</time>
      </trkpt>
      <trkpt lat="46.29745" lon="-0.34887">
        <ele>67.4568</ele>
        <time>2011-07-03T12:31:08Z</time>
      </trkpt>
      <trkpt lat="46.29746" lon="-0.34889">
        <ele>67.4786</ele>
        <time>2011-07-03T12:31:09Z</time>
      </trkpt>
      <trkpt lat="46.29746" lon="-0.34891">
        <ele>67.4997</ele>
        <time>2011-07-03T12:31:10Z</time>
      </trkpt>
      <trkpt lat="46.29745" lon="-0.34893">
        <ele>67.5213</ele>
        <time>2011-07-03T12:31:11Z</time>
      </trkpt>
      <trkpt lat="46.29745" lon="-0.34894">
        <ele>67.5437</ele>
        <time>2011-07-03T12:31:12Z</time>
      </trkpt>
      <trkpt lat="46.29745" lon="-0.34896">
        <ele>67.5659</ele>
        <time>2011-07-03T12:31:13Z</time>
      </trkpt>
      <trkpt lat="46.29745" lon="-0.34898">
        <ele>67.5872</ele>
        <time>2011-07-03T12:31:14Z</time>
      </trkpt>
      <trkpt lat="46.29744" lon="-0.34899">
        <ele>67.6083</ele>
        <time>2011-07-03T12:31:15Z</time>
      </trkpt>
      <trkpt lat="46.29744" lon="-0.34901">
        <ele>67.6293</ele>
        <time>2011-07-03T12:31:16Z</time>
      </trkpt>
      <trkpt lat="46.29744" lon="-0.34903">
        <ele>67.65</ele>
        <time>2011-07-03T12:31:17Z</time>
      </trkpt>
      <trkpt lat="46.29743" lon="-0.34905">
        <ele>67.672</ele>
        <time>2011-07-03T12:31:18Z</time>
      </trkpt>
      <trkpt lat="46.29743" lon="-0.34907">
        <ele>67.6938</ele>
        <time>2011-07-03T12:31:19Z</time>
      </trkpt>
      <trkpt lat="46.29743" lon="-0.34909">
        <ele>67.7144</ele>
        <time>2011-07-03T12:31:20Z</time>
      </trkpt>
      <trkpt lat="46.29743" lon="-0.34911">
        <ele>67.73</ele>
        <time>2011-07-03T12:31:21Z</time>
      </trkpt>
      <trkpt lat="46.29743" lon="-0.34913">
        <ele>67.7391</ele>
        <time>2011-07-03T12:31:22Z</time>
      </trkpt>
      <trkpt lat="46.29743" lon="-0.34915">
        <ele>67.7487</ele>
        <time>2011-07-03T12:31:23Z</time>
      </trkpt>
      <trkpt lat="46.29744" lon="-0.34916">
        <ele>67.7579</ele>
        <time>2011-07-03T12:31:24Z</time>
      </trkpt>
      <trkpt lat="46.29744" lon="-0.34918">
        <ele>67.7632</ele>
        <time>2011-07-03T12:31:25Z</time>
      </trkpt>
      <trkpt lat="46.29744" lon="-0.34919">
        <ele>67.7629</ele>
        <time>2011-07-03T12:31:26Z</time>
      </trkpt>
      <trkpt lat="46.29744" lon="-0.3492">
        <ele>67.7599</ele>
        <time>2011-07-03T12:31:27Z</time>
      </trkpt>
      <trkpt lat="46.29745" lon="-0.34921">
        <ele>67.756</ele>
        <time>2011-07-03T12:31:28Z</time>
      </trkpt>
      <trkpt lat="46.29745" lon="-0.34923">
        <ele>67.7509</ele>
        <time>2011-07-03T12:31:29Z</time>
      </trkpt>
      <trkpt lat="46.29745" lon="-0.34924">
        <ele>67.7444</ele>
        <time>2011-07-03T12:31:30Z</time>
      </trkpt>
      <trkpt lat="46.29745" lon="-0.34926">
        <ele>67.7371</ele>
        <time>2011-07-03T12:31:31Z</time>
      </trkpt>
      <trkpt lat="46.29744" lon="-0.34927">
        <ele>67.7267</ele>
        <time>2011-07-03T12:31:32Z</time>
      </trkpt>
      <trkpt lat="46.29744" lon="-0.34928">
        <ele>67.7178</ele>
        <time>2011-07-03T12:31:33Z</time>
      </trkpt>
      <trkpt lat="46.29744" lon="-0.3493">
        <ele>67.6967</ele>
        <time>2011-07-03T12:31:34Z</time>
      </trkpt>
      <trkpt lat="46.29744" lon="-0.34932">
        <ele>67.6741</ele>
        <time>2011-07-03T12:31:35Z</time>
      </trkpt>
      <trkpt lat="46.29744" lon="-0.34933">
        <ele>67.6514</ele>
        <time>2011-07-03T12:31:36Z</time>
      </trkpt>
      <trkpt lat="46.29744" lon="-0.34935">
        <ele>67.626</ele>
        <time>2011-07-03T12:31:37Z</time>
      </trkpt>
      <trkpt lat="46.29744" lon="-0.34936">
        <ele>67.6019</ele>
        <time>2011-07-03T12:31:38Z</time>
      </trkpt>
      <trkpt lat="46.29743" lon="-0.34938">
        <ele>67.5789</ele>
        <time>2011-07-03T12:31:39Z</time>
      </trkpt>
      <trkpt lat="46.29743" lon="-0.3494">
        <ele>67.5561</ele>
        <time>2011-07-03T12:31:40Z</time>
      </trkpt>
      <trkpt lat="46.29743" lon="-0.34942">
        <ele>67.5338</ele>
        <time>2011-07-03T12:31:41Z</time>
      </trkpt>
      <trkpt lat="46.29743" lon="-0.34944">
        <ele>67.5132</ele>
        <time>2011-07-03T12:31:42Z</time>
      </trkpt>
      <trkpt lat="46.29742" lon="-0.34945">
        <ele>67.4945</ele>
        <time>2011-07-03T12:31:43Z</time>
      </trkpt>
      <trkpt lat="46.29742" lon="-0.34947">
        <ele>67.4751</ele>
        <time>2011-07-03T12:31:44Z</time>
      </trkpt>
      <trkpt lat="46.29742" lon="-0.34949">
        <ele>67.4557</ele>
        <time>2011-07-03T12:31:45Z</time>
      </trkpt>
      <trkpt lat="46.29742" lon="-0.34951">
        <ele>67.4428</ele>
        <time>2011-07-03T12:31:46Z</time>
      </trkpt>
      <trkpt lat="46.29741" lon="-0.34953">
        <ele>67.4339</ele>
        <time>2011-07-03T12:31:47Z</time>
      </trkpt>
      <trkpt lat="46.29741" lon="-0.34954">
        <ele>67.4255</ele>
        <time>2011-07-03T12:31:48Z</time>
      </trkpt>
      <trkpt lat="46.29741" lon="-0.34956">
        <ele>67.4177</ele>
        <time>2011-07-03T12:31:49Z</time>
      </trkpt>
      <trkpt lat="46.29741" lon="-0.34958">
        <ele>67.4097</ele>
        <time>2011-07-03T12:31:50Z</time>
      </trkpt>
      <trkpt lat="46.29741" lon="-0.34959">
        <ele>67.4045</ele>
        <time>2011-07-03T12:31:51Z</time>
      </trkpt>
      <trkpt lat="46.29741" lon="-0.34961">
        <ele>67.3997</ele>
        <time>2011-07-03T12:31:52Z</time>
      </trkpt>
      <trkpt lat="46.29741" lon="-0.34963">
        <ele>67.3978</ele>
        <time>2011-07-03T12:31:53Z</time>
      </trkpt>
      <trkpt lat="46.2974" lon="-0.34965">
        <ele>67.3923</ele>
        <time>2011-07-03T12:31:54Z</time>
      </trkpt>
      <trkpt lat="46.2974" lon="-0.34967">
        <ele>67.3853</ele>
        <time>2011-07-03T12:31:55Z</time>
      </trkpt>
      <trkpt lat="46.2974" lon="-0.34969">
        <ele>67.3785</ele>
        <time>2011-07-03T12:31:56Z</time>
      </trkpt>
      <trkpt lat="46.29739" lon="-0.34971">
        <ele>67.3711</ele>
        <time>2011-07-03T12:31:57Z</time>
      </trkpt>
      <trkpt lat="46.29739" lon="-0.34973">
        <ele>67.3628</ele>
        <time>2011-07-03T12:31:58Z</time>
      </trkpt>
      <trkpt lat="46.29739" lon="-0.34975">
        <ele>67.3565</ele>
        <time>2011-07-03T12:31:59Z</time>
      </trkpt>
      <trkpt lat="46.29739" lon="-0.34976">
        <ele>67.3492</ele>
        <time>2011-07-03T12:32:00Z</time>
      </trkpt>
      <trkpt lat="46.29738" lon="-0.34978">
        <ele>67.3399</ele>
        <time>2011-07-03T12:32:01Z</time>
      </trkpt>
      <trkpt lat="46.29738" lon="-0.34979">
        <ele>67.329</ele>
        <time>2011-07-03T12:32:02Z</time>
      </trkpt>
      <trkpt lat="46.29738" lon="-0.34981">
        <ele>67.32</ele>
        <time>2011-07-03T12:32:03Z</time>
      </trkpt>
      <trkpt lat="46.29738" lon="-0.34983">
        <ele>67.3104</ele>
        <time>2011-07-03T12:32:04Z</time>
      </trkpt>
      <trkpt lat="46.29738" lon="-0.34985">
        <ele>67.3001</ele>
        <time>2011-07-03T12:32:05Z</time>
      </trkpt>
      <trkpt lat="46.29737" lon="-0.34986">
        <ele>67.2887</ele>
        <time>2011-07-03T12:32:06Z</time>
      </trkpt>
      <trkpt lat="46.29737" lon="-0.34988">
        <ele>67.2788</ele>
        <time>2011-07-03T12:32:07Z</time>
      </trkpt>
      <trkpt lat="46.29737" lon="-0.3499">
        <ele>67.2679</ele>
        <time>2011-07-03T12:32:08Z</time>
      </trkpt>
      <trkpt lat="46.29737" lon="-0.34991">
        <ele>67.256</ele>
        <time>2011-07-03T12:32:09Z</time>
      </trkpt>
      <trkpt lat="46.29737" lon="-0.34993">
        <ele>67.2448</ele>
        <time>2011-07-03T12:32:10Z</time>
      </trkpt>
      <trkpt lat="46.29737" lon="-0.34995">
        <ele>67.2326</ele>
        <time>2011-07-03T12:32:11Z</time>
      </trkpt>
      <trkpt lat="46.29736" lon="-0.34997">
        <ele>67.2191</ele>
        <time>2011-07-03T12:32:12Z</time>
      </trkpt>
      <trkpt lat="46.29736" lon="-0.35">
        <ele>67.202</ele>
        <time>2011-07-03T12:32:13Z</time>
      </trkpt>
      <trkpt lat="46.29736" lon="-0.35002">
        <ele>67.1846</ele>
        <time>2011-07-03T12:32:14Z</time>
      </trkpt>
      <trkpt lat="46.29735" lon="-0.35004">
        <ele>67.1689</ele>
        <time>2011-07-03T12:32:15Z</time>
      </trkpt>
      <trkpt lat="46.29735" lon="-0.35006">
        <ele>67.1525</ele>
        <time>2011-07-03T12:32:16Z</time>
      </trkpt>
      <trkpt lat="46.29735" lon="-0.35008">
        <ele>67.1354</ele>
        <time>2011-07-03T12:32:17Z</time>
      </trkpt>
      <trkpt lat="46.29735" lon="-0.3501">
        <ele>67.1198</ele>
        <time>2011-07-03T12:32:18Z</time>
      </trkpt>
      <trkpt lat="46.29735" lon="-0.35012">
        <ele>67.1071</ele>
        <time>2011-07-03T12:32:19Z</time>
      </trkpt>
      <trkpt lat="46.29735" lon="-0.35013">
        <ele>67.0954</ele>
        <time>2011-07-03T12:32:20Z</time>
      </trkpt>
      <trkpt lat="46.29735" lon="-0.35015">
        <ele>67.0846</ele>
        <time>2011-07-03T12:32:21Z</time>
      </trkpt>
      <trkpt lat="46.29734" lon="-0.35016">
        <ele>67.0716</ele>
        <time>2011-07-03T12:32:22Z</time>
      </trkpt>
      <trkpt lat="46.29734" lon="-0.35018">
        <ele>67.0585</ele>
        <time>2011-07-03T12:32:23Z</time>
      </trkpt>
      <trkpt lat="46.29734" lon="-0.3502">
        <ele>67.049</ele>
        <time>2011-07-03T12:32:24Z</time>
      </trkpt>
      <trkpt lat="46.29734" lon="-0.35021">
        <ele>67.0409</ele>
        <time>2011-07-03T12:32:25Z</time>
      </trkpt>
      <trkpt lat="46.29734" lon="-0.35023">
        <ele>67.033</ele>
        <time>2011-07-03T12:32:26Z</time>
      </trkpt>
      <trkpt lat="46.29734" lon="-0.35025">
        <ele>67.0277</ele>
        <time>2011-07-03T12:32:27Z</time>
      </trkpt>
      <trkpt lat="46.29734" lon="-0.35026">
        <ele>67.0241</ele>
        <time>2011-07-03T12:32:28Z</time>
      </trkpt>
      <trkpt lat="46.29734" lon="-0.35028">
        <ele>67.0219</ele>
        <time>2011-07-03T12:32:29Z</time>
      </trkpt>
      <trkpt lat="46.29734" lon="-0.3503">
        <ele>67.021</ele>
        <time>2011-07-03T12:32:30Z</time>
      </trkpt>
      <trkpt lat="46.29734" lon="-0.35032">
        <ele>67.0163</ele>
        <time>2011-07-03T12:32:31Z</time>
      </trkpt>
      <trkpt lat="46.29733" lon="-0.35033">
        <ele>67.0099</ele>
        <time>2011-07-03T12:32:32Z</time>
      </trkpt>
      <trkpt lat="46.29733" lon="-0.35035">
        <ele>67.0023</ele>
        <time>2011-07-03T12:32:33Z</time>
      </trkpt>
      <trkpt lat="46.29733" lon="-0.35037">
        <ele>66.9962</ele>
        <time>2011-07-03T12:32:34Z</time>
      </trkpt>
      <trkpt lat="46.29733" lon="-0.35039">
        <ele>66.9894</ele>
        <time>2011-07-03T12:32:35Z</time>
      </trkpt>
      <trkpt lat="46.29733" lon="-0.3504">
        <ele>66.9864</ele>
        <time>2011-07-03T12:32:36Z</time>
      </trkpt>
      <trkpt lat="46.29733" lon="-0.35042">
        <ele>66.983</ele>
        <time>2011-07-03T12:32:37Z</time>
      </trkpt>
      <trkpt lat="46.29733" lon="-0.35044">
        <ele>66.9796</ele>
        <time>2011-07-03T12:32:38Z</time>
      </trkpt>
      <trkpt lat="46.29733" lon="-0.35046">
        <ele>66.9746</ele>
        <time>2011-07-03T12:32:39Z</time>
      </trkpt>
      <trkpt lat="46.29733" lon="-0.35047">
        <ele>66.9706</ele>
        <time>2011-07-03T12:32:40Z</time>
      </trkpt>
      <trkpt lat="46.29732" lon="-0.35049">
        <ele>66.967</ele>
        <time>2011-07-03T12:32:41Z</time>
      </trkpt>
      <trkpt lat="46.29732" lon="-0.35051">
        <ele>66.9677</ele>
        <time>2011-07-03T12:32:42Z</time>
      </trkpt>
      <trkpt lat="46.29732" lon="-0.35053">
        <ele>66.9691</ele>
        <time>2011-07-03T12:32:43Z</time>
      </trkpt>
      <trkpt lat="46.29732" lon="-0.35055">
        <ele>66.9686</ele>
        <time>2011-07-03T12:32:44Z</time>
      </trkpt>
      <trkpt lat="46.29732" lon="-0.35057">
        <ele>66.9669</ele>
        <time>2011-07-03T12:32:45Z</time>
      </trkpt>
      <trkpt lat="46.29732" lon="-0.35059">
        <ele>66.9627</ele>
        <time>2011-07-03T12:32:46Z</time>
      </trkpt>
      <trkpt lat="46.29732" lon="-0.35061">
        <ele>66.9538</ele>
        <time>2011-07-03T12:32:47Z</time>
      </trkpt>
      <trkpt lat="46.29732" lon="-0.35063">
        <ele>66.9413</ele>
        <time>2011-07-03T12:32:48Z</time>
      </trkpt>
      <trkpt lat="46.29731" lon="-0.35065">
        <ele>66.9295</ele>
        <time>2011-07-03T12:32:49Z</time>
      </trkpt>
      <trkpt lat="46.29731" lon="-0.35067">
        <ele>66.9204</ele>
        <time>2011-07-03T12:32:50Z</time>
      </trkpt>
      <trkpt lat="46.29731" lon="-0.35069">
        <ele>66.911</ele>
        <time>2011-07-03T12:32:51Z</time>
      </trkpt>
      <trkpt lat="46.29731" lon="-0.35071">
        <ele>66.9011</ele>
        <time>2011-07-03T12:32:52Z</time>
      </trkpt>
      <trkpt lat="46.29731" lon="-0.35073">
        <ele>66.8907</ele>
        <time>2011-07-03T12:32:53Z</time>
      </trkpt>
      <trkpt lat="46.29731" lon="-0.35075">
        <ele>66.8822</ele>
        <time>2011-07-03T12:32:54Z</time>
      </trkpt>
      <trkpt lat="46.29731" lon="-0.35077">
        <ele>66.8751</ele>
        <time>2011-07-03T12:32:55Z</time>
      </trkpt>
      <trkpt lat="46.29731" lon="-0.35079">
        <ele>66.8652</ele>
        <time>2011-07-03T12:32:56Z</time>
      </trkpt>
      <trkpt lat="46.29731" lon="-0.35081">
        <ele>66.8533</ele>
        <time>2011-07-03T12:32:57Z</time>
      </trkpt>
      <trkpt lat="46.2973" lon="-0.35083">
        <ele>66.8407</ele>
        <time>2011-07-03T12:32:58Z</time>
      </trkpt>
      <trkpt lat="46.2973" lon="-0.35085">
        <ele>66.829</ele>
        <time>2011-07-03T12:32:59Z</time>
      </trkpt>
      <trkpt lat="46.2973" lon="-0.35087">
        <ele>66.8202</ele>
        <time>2011-07-03T12:33:00Z</time>
      </trkpt>
      <trkpt lat="46.2973" lon="-0.35088">
        <ele>66.8135</ele>
        <time>2011-07-03T12:33:01Z</time>
      </trkpt>
      <trkpt lat="46.2973" lon="-0.35091">
        <ele>66.8095</ele>
        <time>2011-07-03T12:33:02Z</time>
      </trkpt>
      <trkpt lat="46.2973" lon="-0.35092">
        <ele>66.8092</ele>
        <time>2011-07-03T12:33:03Z</time>
      </trkpt>
      <trkpt lat="46.29729" lon="-0.35094">
        <ele>66.8092</ele>
        <time>2011-07-03T12:33:04Z</time>
      </trkpt>
      <trkpt lat="46.29729" lon="-0.35096">
        <ele>66.8091</ele>
        <time>2011-07-03T12:33:05Z</time>
      </trkpt>
      <trkpt lat="46.29729" lon="-0.35098">
        <ele>66.8073</ele>
        <time>2011-07-03T12:33:06Z</time>
      </trkpt>
      <trkpt lat="46.29729" lon="-0.35099">
        <ele>66.8039</ele>
        <time>2011-07-03T12:33:07Z</time>
      </trkpt>
      <trkpt lat="46.29729" lon="-0.35101">
        <ele>66.7987</ele>
        <time>2011-07-03T12:33:08Z</time>
      </trkpt>
      <trkpt lat="46.29729" lon="-0.35103">
        <ele>66.7921</ele>
        <time>2011-07-03T12:33:09Z</time>
      </trkpt>
      <trkpt lat="46.29729" lon="-0.35105">
        <ele>66.7845</ele>
        <time>2011-07-03T12:33:10Z</time>
      </trkpt>
      <trkpt lat="46.29729" lon="-0.35107">
        <ele>66.7761</ele>
        <time>2011-07-03T12:33:11Z</time>
      </trkpt>
      <trkpt lat="46.29728" lon="-0.35109">
        <ele>66.7687</ele>
        <time>2011-07-03T12:33:12Z</time>
      </trkpt>
      <trkpt lat="46.29728" lon="-0.3511">
        <ele>66.7597</ele>
        <time>2011-07-03T12:33:13Z</time>
      </trkpt>
      <trkpt lat="46.29728" lon="-0.35112">
        <ele>66.753</ele>
        <time>2011-07-03T12:33:14Z</time>
      </trkpt>
      <trkpt lat="46.29728" lon="-0.35113">
        <ele>66.7484</ele>
        <time>2011-07-03T12:33:15Z</time>
      </trkpt>
      <trkpt lat="46.29728" lon="-0.35115">
        <ele>66.7455</ele>
        <time>2011-07-03T12:33:16Z</time>
      </trkpt>
      <trkpt lat="46.29727" lon="-0.35117">
        <ele>66.7456</ele>
        <time>2011-07-03T12:33:17Z</time>
      </trkpt>
      <trkpt lat="46.29727" lon="-0.35119">
        <ele>66.748</ele>
        <time>2011-07-03T12:33:18Z</time>
      </trkpt>
      <trkpt lat="46.29727" lon="-0.35121">
        <ele>66.7507</ele>
        <time>2011-07-03T12:33:19Z</time>
      </trkpt>
      <trkpt lat="46.29727" lon="-0.35124">
        <ele>66.7553</ele>
        <time>2011-07-03T12:33:20Z</time>
      </trkpt>
      <trkpt lat="46.29727" lon="-0.35126">
        <ele>66.7597</ele>
        <time>2011-07-03T12:33:21Z</time>
      </trkpt>
      <trkpt lat="46.29727" lon="-0.35128">
        <ele>66.7636</ele>
        <time>2011-07-03T12:33:22Z</time>
      </trkpt>
      <trkpt lat="46.29727" lon="-0.3513">
        <ele>66.7671</ele>
        <time>2011-07-03T12:33:23Z</time>
      </trkpt>
      <trkpt lat="46.29727" lon="-0.35132">
        <ele>66.771</ele>
        <time>2011-07-03T12:33:24Z</time>
      </trkpt>
      <trkpt lat="46.29727" lon="-0.35134">
        <ele>66.7764</ele>
        <time>2011-07-03T12:33:25Z</time>
      </trkpt>
      <trkpt lat="46.29726" lon="-0.35136">
        <ele>66.7772</ele>
        <time>2011-07-03T12:33:26Z</time>
      </trkpt>
      <trkpt lat="46.29726" lon="-0.35137">
        <ele>66.7738</ele>
        <time>2011-07-03T12:33:27Z</time>
      </trkpt>
      <trkpt lat="46.29726" lon="-0.35139">
        <ele>66.7685</ele>
        <time>2011-07-03T12:33:28Z</time>
      </trkpt>
      <trkpt lat="46.29726" lon="-0.35141">
        <ele>66.7605</ele>
        <time>2011-07-03T12:33:29Z</time>
      </trkpt>
      <trkpt lat="46.29726" lon="-0.35143">
        <ele>66.7494</ele>
        <time>2011-07-03T12:33:30Z</time>
      </trkpt>
      <trkpt lat="46.29725" lon="-0.35145">
        <ele>66.7341</ele>
        <time>2011-07-03T12:33:31Z</time>
      </trkpt>
      <trkpt lat="46.29725" lon="-0.35148">
        <ele>66.7137</ele>
        <time>2011-07-03T12:33:32Z</time>
      </trkpt>
      <trkpt lat="46.29725" lon="-0.3515">
        <ele>66.6926</ele>
        <time>2011-07-03T12:33:33Z</time>
      </trkpt>
      <trkpt lat="46.29724" lon="-0.35152">
        <ele>66.6668</ele>
        <time>2011-07-03T12:33:34Z</time>
      </trkpt>
      <trkpt lat="46.29724" lon="-0.35153">
        <ele>66.6412</ele>
        <time>2011-07-03T12:33:35Z</time>
      </trkpt>
      <trkpt lat="46.29724" lon="-0.35155">
        <ele>66.6127</ele>
        <time>2011-07-03T12:33:36Z</time>
      </trkpt>
      <trkpt lat="46.29724" lon="-0.35157">
        <ele>66.5808</ele>
        <time>2011-07-03T12:33:37Z</time>
      </trkpt>
      <trkpt lat="46.29724" lon="-0.35159">
        <ele>66.5472</ele>
        <time>2011-07-03T12:33:38Z</time>
      </trkpt>
      <trkpt lat="46.29724" lon="-0.3516">
        <ele>66.5123</ele>
        <time>2011-07-03T12:33:39Z</time>
      </trkpt>
      <trkpt lat="46.29723" lon="-0.35162">
        <ele>66.4758</ele>
        <time>2011-07-03T12:33:40Z</time>
      </trkpt>
      <trkpt lat="46.29723" lon="-0.35163">
        <ele>66.4367</ele>
        <time>2011-07-03T12:33:41Z</time>
      </trkpt>
      <trkpt lat="46.29723" lon="-0.35165">
        <ele>66.3944</ele>
        <time>2011-07-03T12:33:42Z</time>
      </trkpt>
      <trkpt lat="46.29722" lon="-0.35167">
        <ele>66.3507</ele>
        <time>2011-07-03T12:33:43Z</time>
      </trkpt>
      <trkpt lat="46.29722" lon="-0.35169">
        <ele>66.3076</ele>
        <time>2011-07-03T12:33:44Z</time>
      </trkpt>
      <trkpt lat="46.29722" lon="-0.3517">
        <ele>66.2656</ele>
        <time>2011-07-03T12:33:45Z</time>
      </trkpt>
      <trkpt lat="46.29722" lon="-0.35172">
        <ele>66.2265</ele>
        <time>2011-07-03T12:33:46Z</time>
      </trkpt>
      <trkpt lat="46.29722" lon="-0.35174">
        <ele>66.1908</ele>
        <time>2011-07-03T12:33:47Z</time>
      </trkpt>
      <trkpt lat="46.29721" lon="-0.35175">
        <ele>66.1573</ele>
        <time>2011-07-03T12:33:48Z</time>
      </trkpt>
      <trkpt lat="46.29721" lon="-0.35177">
        <ele>66.1244</ele>
        <time>2011-07-03T12:33:49Z</time>
      </trkpt>
      <trkpt lat="46.29721" lon="-0.35179">
        <ele>66.0924</ele>
        <time>2011-07-03T12:33:50Z</time>
      </trkpt>
      <trkpt lat="46.29721" lon="-0.35181">
        <ele>66.0635</ele>
        <time>2011-07-03T12:33:51Z</time>
      </trkpt>
      <trkpt lat="46.2972" lon="-0.35183">
        <ele>66.0366</ele>
        <time>2011-07-03T12:33:52Z</time>
      </trkpt>
      <trkpt lat="46.2972" lon="-0.35186">
        <ele>66.012</ele>
        <time>2011-07-03T12:33:53Z</time>
      </trkpt>
      <trkpt lat="46.2972" lon="-0.35188">
        <ele>65.9902</ele>
        <time>2011-07-03T12:33:54Z</time>
      </trkpt>
      <trkpt lat="46.2972" lon="-0.3519">
        <ele>65.9712</ele>
        <time>2011-07-03T12:33:55Z</time>
      </trkpt>
      <trkpt lat="46.2972" lon="-0.35191">
        <ele>65.9528</ele>
        <time>2011-07-03T12:33:56Z</time>
      </trkpt>
      <trkpt lat="46.2972" lon="-0.35193">
        <ele>65.9341</ele>
        <time>2011-07-03T12:33:57Z</time>
      </trkpt>
      <trkpt lat="46.2972" lon="-0.35194">
        <ele>65.9163</ele>
        <time>2011-07-03T12:33:58Z</time>
      </trkpt>
      <trkpt lat="46.29719" lon="-0.35196">
        <ele>65.8988</ele>
        <time>2011-07-03T12:33:59Z</time>
      </trkpt>
      <trkpt lat="46.29719" lon="-0.35198">
        <ele>65.8832</ele>
        <time>2011-07-03T12:34:00Z</time>
      </trkpt>
      <trkpt lat="46.29719" lon="-0.352">
        <ele>65.8655</ele>
        <time>2011-07-03T12:34:01Z</time>
      </trkpt>
      <trkpt lat="46.29718" lon="-0.35201">
        <ele>65.8489</ele>
        <time>2011-07-03T12:34:02Z</time>
      </trkpt>
      <trkpt lat="46.29718" lon="-0.35203">
        <ele>65.8363</ele>
        <time>2011-07-03T12:34:03Z</time>
      </trkpt>
      <trkpt lat="46.29718" lon="-0.35205">
        <ele>65.8237</ele>
        <time>2011-07-03T12:34:04Z</time>
      </trkpt>
      <trkpt lat="46.29718" lon="-0.35207">
        <ele>65.8094</ele>
        <time>2011-07-03T12:34:05Z</time>
      </trkpt>
      <trkpt lat="46.29718" lon="-0.35208">
        <ele>65.7972</ele>
        <time>2011-07-03T12:34:06Z</time>
      </trkpt>
      <trkpt lat="46.29718" lon="-0.3521">
        <ele>65.783</ele>
        <time>2011-07-03T12:34:07Z</time>
      </trkpt>
      <trkpt lat="46.29718" lon="-0.35212">
        <ele>65.7707</ele>
        <time>2011-07-03T12:34:08Z</time>
      </trkpt>
      <trkpt lat="46.29717" lon="-0.35213">
        <ele>65.7586</ele>
        <time>2011-07-03T12:34:09Z</time>
      </trkpt>
      <trkpt lat="46.29717" lon="-0.35215">
        <ele>65.7453</ele>
        <time>2011-07-03T12:34:10Z</time>
      </trkpt>
      <trkpt lat="46.29717" lon="-0.35217">
        <ele>65.7316</ele>
        <time>2011-07-03T12:34:11Z</time>
      </trkpt>
      <trkpt lat="46.29717" lon="-0.35218">
        <ele>65.7187</ele>
        <time>2011-07-03T12:34:12Z</time>
      </trkpt>
      <trkpt lat="46.29716" lon="-0.3522">
        <ele>65.7068</ele>
        <time>2011-07-03T12:34:13Z</time>
      </trkpt>
      <trkpt lat="46.29716" lon="-0.35222">
        <ele>65.6949</ele>
        <time>2011-07-03T12:34:14Z</time>
      </trkpt>
      <trkpt lat="46.29716" lon="-0.35223">
        <ele>65.6867</ele>
        <time>2011-07-03T12:34:15Z</time>
      </trkpt>
      <trkpt lat="46.29715" lon="-0.35225">
        <ele>65.677</ele>
        <time>2011-07-03T12:34:16Z</time>
      </trkpt>
      <trkpt lat="46.29715" lon="-0.35227">
        <ele>65.6687</ele>
        <time>2011-07-03T12:34:17Z</time>
      </trkpt>
      <trkpt lat="46.29715" lon="-0.35229">
        <ele>65.6608</ele>
        <time>2011-07-03T12:34:18Z</time>
      </trkpt>
      <trkpt lat="46.29715" lon="-0.3523">
        <ele>65.6491</ele>
        <time>2011-07-03T12:34:19Z</time>
      </trkpt>
      <trkpt lat="46.29715" lon="-0.35232">
        <ele>65.6442</ele>
        <time>2011-07-03T12:34:20Z</time>
      </trkpt>
      <trkpt lat="46.29714" lon="-0.35234">
        <ele>65.6381</ele>
        <time>2011-07-03T12:34:21Z</time>
      </trkpt>
      <trkpt lat="46.29714" lon="-0.35236">
        <ele>65.6328</ele>
        <time>2011-07-03T12:34:22Z</time>
      </trkpt>
      <trkpt lat="46.29714" lon="-0.35238">
        <ele>65.6272</ele>
        <time>2011-07-03T12:34:23Z</time>
      </trkpt>
      <trkpt lat="46.29714" lon="-0.3524">
        <ele>65.6192</ele>
        <time>2011-07-03T12:34:24Z</time>
      </trkpt>
      <trkpt lat="46.29714" lon="-0.35242">
        <ele>65.6119</ele>
        <time>2011-07-03T12:34:25Z</time>
      </trkpt>
      <trkpt lat="46.29714" lon="-0.35243">
        <ele>65.6057</ele>
        <time>2011-07-03T12:34:26Z</time>
      </trkpt>
      <trkpt lat="46.29713" lon="-0.35245">
        <ele>65.5951</ele>
        <time>2011-07-03T12:34:27Z</time>
      </trkpt>
      <trkpt lat="46.29713" lon="-0.35247">
        <ele>65.584</ele>
        <time>2011-07-03T12:34:28Z</time>
      </trkpt>
      <trkpt lat="46.29713" lon="-0.35249">
        <ele>65.5764</ele>
        <time>2011-07-03T12:34:29Z</time>
      </trkpt>
      <trkpt lat="46.29713" lon="-0.3525">
        <ele>65.5673</ele>
        <time>2011-07-03T12:34:30Z</time>
      </trkpt>
      <trkpt lat="46.29713" lon="-0.35252">
        <ele>65.5567</ele>
        <time>2011-07-03T12:34:31Z</time>
      </trkpt>
      <trkpt lat="46.29713" lon="-0.35254">
        <ele>65.5414</ele>
        <time>2011-07-03T12:34:32Z</time>
      </trkpt>
      <trkpt lat="46.29712" lon="-0.35256">
        <ele>65.5225</ele>
        <time>2011-07-03T12:34:33Z</time>
      </trkpt>
      <trkpt lat="46.29712" lon="-0.35257">
        <ele>65.5034</ele>
        <time>2011-07-03T12:34:34Z</time>
      </trkpt>
      <trkpt lat="46.29712" lon="-0.35259">
        <ele>65.4808</ele>
        <time>2011-07-03T12:34:35Z</time>
      </trkpt>
      <trkpt lat="46.29711" lon="-0.35261">
        <ele>65.4575</ele>
        <time>2011-07-03T12:34:36Z</time>
      </trkpt>
      <trkpt lat="46.29711" lon="-0.35262">
        <ele>65.4308</ele>
        <time>2011-07-03T12:34:37Z</time>
      </trkpt>
      <trkpt lat="46.2971" lon="-0.35264">
        <ele>65.402</ele>
        <time>2011-07-03T12:34:38Z</time>
      </trkpt>
      <trkpt lat="46.2971" lon="-0.35266">
        <ele>65.3689</ele>
        <time>2011-07-03T12:34:39Z</time>
      </trkpt>
      <trkpt lat="46.2971" lon="-0.35268">
        <ele>65.3346</ele>
        <time>2011-07-03T12:34:40Z</time>
      </trkpt>
      <trkpt lat="46.29709" lon="-0.3527">
        <ele>65.3015</ele>
        <time>2011-07-03T12:34:41Z</time>
      </trkpt>
      <trkpt lat="46.29709" lon="-0.35272">
        <ele>65.2728</ele>
        <time>2011-07-03T12:34:42Z</time>
      </trkpt>
      <trkpt lat="46.29709" lon="-0.35275">
        <ele>65.2448</ele>
        <time>2011-07-03T12:34:43Z</time>
      </trkpt>
      <trkpt lat="46.29709" lon="-0.35275">
        <ele>65.2192</ele>
        <time>2011-07-03T12:34:44Z</time>
      </trkpt>
      <trkpt lat="46.29708" lon="-0.35276">
        <ele>65.2192</ele>
        <time>2011-07-03T12:34:45Z</time>
      </trkpt>
      <trkpt lat="46.29708" lon="-0.35278">
        <ele>65.1784</ele>
        <time>2011-07-03T12:34:46Z</time>
      </trkpt>
      <trkpt lat="46.29707" lon="-0.3528">
        <ele>65.1313</ele>
        <time>2011-07-03T12:34:47Z</time>
      </trkpt>
      <trkpt lat="46.29707" lon="-0.35282">
        <ele>65.0951</ele>
        <time>2011-07-03T12:34:48Z</time>
      </trkpt>
      <trkpt lat="46.29707" lon="-0.35284">
        <ele>65.0605</ele>
        <time>2011-07-03T12:34:49Z</time>
      </trkpt>
      <trkpt lat="46.29707" lon="-0.35286">
        <ele>65.0288</ele>
        <time>2011-07-03T12:34:50Z</time>
      </trkpt>
      <trkpt lat="46.29707" lon="-0.35288">
        <ele>65.0042</ele>
        <time>2011-07-03T12:34:51Z</time>
      </trkpt>
      <trkpt lat="46.29707" lon="-0.3529">
        <ele>64.9789</ele>
        <time>2011-07-03T12:34:52Z</time>
      </trkpt>
      <trkpt lat="46.29707" lon="-0.35292">
        <ele>64.9543</ele>
        <time>2011-07-03T12:34:53Z</time>
      </trkpt>
      <trkpt lat="46.29707" lon="-0.35294">
        <ele>64.9331</ele>
        <time>2011-07-03T12:34:54Z</time>
      </trkpt>
      <trkpt lat="46.29707" lon="-0.35296">
        <ele>64.9117</ele>
        <time>2011-07-03T12:34:55Z</time>
      </trkpt>
      <trkpt lat="46.29707" lon="-0.35298">
        <ele>64.892</ele>
        <time>2011-07-03T12:34:56Z</time>
      </trkpt>
      <trkpt lat="46.29707" lon="-0.353">
        <ele>64.8736</ele>
        <time>2011-07-03T12:34:57Z</time>
      </trkpt>
      <trkpt lat="46.29707" lon="-0.35302">
        <ele>64.8544</ele>
        <time>2011-07-03T12:34:58Z</time>
      </trkpt>
      <trkpt lat="46.29706" lon="-0.35304">
        <ele>64.8342</ele>
        <time>2011-07-03T12:34:59Z</time>
      </trkpt>
      <trkpt lat="46.29706" lon="-0.35306">
        <ele>64.8134</ele>
        <time>2011-07-03T12:35:00Z</time>
      </trkpt>
      <trkpt lat="46.29705" lon="-0.35309">
        <ele>64.789</ele>
        <time>2011-07-03T12:35:01Z</time>
      </trkpt>
      <trkpt lat="46.29704" lon="-0.35311">
        <ele>64.7597</ele>
        <time>2011-07-03T12:35:02Z</time>
      </trkpt>
      <trkpt lat="46.29704" lon="-0.35312">
        <ele>64.7306</ele>
        <time>2011-07-03T12:35:03Z</time>
      </trkpt>
      <trkpt lat="46.29704" lon="-0.35314">
        <ele>64.7013</ele>
        <time>2011-07-03T12:35:04Z</time>
      </trkpt>
      <trkpt lat="46.29703" lon="-0.35315">
        <ele>64.6731</ele>
        <time>2011-07-03T12:35:05Z</time>
      </trkpt>
      <trkpt lat="46.29703" lon="-0.35317">
        <ele>64.6515</ele>
        <time>2011-07-03T12:35:06Z</time>
      </trkpt>
      <trkpt lat="46.29703" lon="-0.35319">
        <ele>64.6305</ele>
        <time>2011-07-03T12:35:07Z</time>
      </trkpt>
      <trkpt lat="46.29703" lon="-0.35321">
        <ele>64.6103</ele>
        <time>2011-07-03T12:35:08Z</time>
      </trkpt>
      <trkpt lat="46.29703" lon="-0.35322">
        <ele>64.5921</ele>
        <time>2011-07-03T12:35:09Z</time>
      </trkpt>
      <trkpt lat="46.29703" lon="-0.35324">
        <ele>64.5763</ele>
        <time>2011-07-03T12:35:10Z</time>
      </trkpt>
      <trkpt lat="46.29702" lon="-0.35326">
        <ele>64.5612</ele>
        <time>2011-07-03T12:35:11Z</time>
      </trkpt>
      <trkpt lat="46.29702" lon="-0.35328">
        <ele>64.5459</ele>
        <time>2011-07-03T12:35:12Z</time>
      </trkpt>
      <trkpt lat="46.29702" lon="-0.3533">
        <ele>64.5299</ele>
        <time>2011-07-03T12:35:13Z</time>
      </trkpt>
      <trkpt lat="46.29702" lon="-0.35331">
        <ele>64.5127</ele>
        <time>2011-07-03T12:35:14Z</time>
      </trkpt>
      <trkpt lat="46.29702" lon="-0.35333">
        <ele>64.4937</ele>
        <time>2011-07-03T12:35:15Z</time>
      </trkpt>
      <trkpt lat="46.29702" lon="-0.35335">
        <ele>64.4727</ele>
        <time>2011-07-03T12:35:16Z</time>
      </trkpt>
      <trkpt lat="46.29702" lon="-0.35337">
        <ele>64.453</ele>
        <time>2011-07-03T12:35:17Z</time>
      </trkpt>
      <trkpt lat="46.29702" lon="-0.35338">
        <ele>64.431</ele>
        <time>2011-07-03T12:35:18Z</time>
      </trkpt>
      <trkpt lat="46.29702" lon="-0.3534">
        <ele>64.4066</ele>
        <time>2011-07-03T12:35:19Z</time>
      </trkpt>
      <trkpt lat="46.29702" lon="-0.35342">
        <ele>64.3836</ele>
        <time>2011-07-03T12:35:20Z</time>
      </trkpt>
      <trkpt lat="46.29702" lon="-0.35344">
        <ele>64.3603</ele>
        <time>2011-07-03T12:35:21Z</time>
      </trkpt>
      <trkpt lat="46.29702" lon="-0.35346">
        <ele>64.3381</ele>
        <time>2011-07-03T12:35:22Z</time>
      </trkpt>
      <trkpt lat="46.29702" lon="-0.35347">
        <ele>64.3167</ele>
        <time>2011-07-03T12:35:23Z</time>
      </trkpt>
      <trkpt lat="46.29702" lon="-0.35349">
        <ele>64.2961</ele>
        <time>2011-07-03T12:35:24Z</time>
      </trkpt>
      <trkpt lat="46.29702" lon="-0.35351">
        <ele>64.2775</ele>
        <time>2011-07-03T12:35:25Z</time>
      </trkpt>
      <trkpt lat="46.29701" lon="-0.35353">
        <ele>64.254</ele>
        <time>2011-07-03T12:35:26Z</time>
      </trkpt>
      <trkpt lat="46.29701" lon="-0.35355">
        <ele>64.2264</ele>
        <time>2011-07-03T12:35:27Z</time>
      </trkpt>
      <trkpt lat="46.29701" lon="-0.35357">
        <ele>64.1954</ele>
        <time>2011-07-03T12:35:28Z</time>
      </trkpt>
      <trkpt lat="46.29701" lon="-0.35359">
        <ele>64.1674</ele>
        <time>2011-07-03T12:35:29Z</time>
      </trkpt>
      <trkpt lat="46.29701" lon="-0.35361">
        <ele>64.141</ele>
        <time>2011-07-03T12:35:30Z</time>
      </trkpt>
      <trkpt lat="46.29701" lon="-0.35363">
        <ele>64.1124</ele>
        <time>2011-07-03T12:35:31Z</time>
      </trkpt>
      <trkpt lat="46.29701" lon="-0.35365">
        <ele>64.0785</ele>
        <time>2011-07-03T12:35:32Z</time>
      </trkpt>
      <trkpt lat="46.29701" lon="-0.35367">
        <ele>64.0382</ele>
        <time>2011-07-03T12:35:33Z</time>
      </trkpt>
      <trkpt lat="46.29701" lon="-0.3537">
        <ele>63.9942</ele>
        <time>2011-07-03T12:35:34Z</time>
      </trkpt>
      <trkpt lat="46.29701" lon="-0.35371">
        <ele>63.9471</ele>
        <time>2011-07-03T12:35:35Z</time>
      </trkpt>
      <trkpt lat="46.29701" lon="-0.35373">
        <ele>63.8996</ele>
        <time>2011-07-03T12:35:36Z</time>
      </trkpt>
      <trkpt lat="46.29701" lon="-0.35375">
        <ele>63.8533</ele>
        <time>2011-07-03T12:35:37Z</time>
      </trkpt>
      <trkpt lat="46.29701" lon="-0.35376">
        <ele>63.8108</ele>
        <time>2011-07-03T12:35:38Z</time>
      </trkpt>
      <trkpt lat="46.297" lon="-0.35378">
        <ele>63.7712</ele>
        <time>2011-07-03T12:35:39Z</time>
      </trkpt>
      <trkpt lat="46.297" lon="-0.3538">
        <ele>63.7329</ele>
        <time>2011-07-03T12:35:40Z</time>
      </trkpt>
      <trkpt lat="46.297" lon="-0.35382">
        <ele>63.697</ele>
        <time>2011-07-03T12:35:41Z</time>
      </trkpt>
      <trkpt lat="46.29699" lon="-0.35384">
        <ele>63.6635</ele>
        <time>2011-07-03T12:35:42Z</time>
      </trkpt>
      <trkpt lat="46.29699" lon="-0.35386">
        <ele>63.6287</ele>
        <time>2011-07-03T12:35:43Z</time>
      </trkpt>
      <trkpt lat="46.29699" lon="-0.35389">
        <ele>63.5947</ele>
        <time>2011-07-03T12:35:44Z</time>
      </trkpt>
      <trkpt lat="46.29699" lon="-0.35391">
        <ele>63.5615</ele>
        <time>2011-07-03T12:35:45Z</time>
      </trkpt>
      <trkpt lat="46.29699" lon="-0.35393">
        <ele>63.5304</ele>
        <time>2011-07-03T12:35:46Z</time>
      </trkpt>
      <trkpt lat="46.29699" lon="-0.35395">
        <ele>63.4966</ele>
        <time>2011-07-03T12:35:47Z</time>
      </trkpt>
      <trkpt lat="46.29699" lon="-0.35397">
        <ele>63.4638</ele>
        <time>2011-07-03T12:35:48Z</time>
      </trkpt>
      <trkpt lat="46.29698" lon="-0.35399">
        <ele>63.4304</ele>
        <time>2011-07-03T12:35:49Z</time>
      </trkpt>
      <trkpt lat="46.29698" lon="-0.35401">
        <ele>63.3973</ele>
        <time>2011-07-03T12:35:50Z</time>
      </trkpt>
      <trkpt lat="46.29698" lon="-0.35402">
        <ele>63.3647</ele>
        <time>2011-07-03T12:35:51Z</time>
      </trkpt>
      <trkpt lat="46.29698" lon="-0.35404">
        <ele>63.3319</ele>
        <time>2011-07-03T12:35:52Z</time>
      </trkpt>
      <trkpt lat="46.29698" lon="-0.35406">
        <ele>63.3002</ele>
        <time>2011-07-03T12:35:53Z</time>
      </trkpt>
      <trkpt lat="46.29697" lon="-0.35407">
        <ele>63.2687</ele>
        <time>2011-07-03T12:35:54Z</time>
      </trkpt>
      <trkpt lat="46.29697" lon="-0.35409">
        <ele>63.238</ele>
        <time>2011-07-03T12:35:55Z</time>
      </trkpt>
      <trkpt lat="46.29697" lon="-0.35411">
        <ele>63.2067</ele>
        <time>2011-07-03T12:35:56Z</time>
      </trkpt>
      <trkpt lat="46.29697" lon="-0.35413">
        <ele>63.1769</ele>
        <time>2011-07-03T12:35:57Z</time>
      </trkpt>
      <trkpt lat="46.29697" lon="-0.35415">
        <ele>63.151</ele>
        <time>2011-07-03T12:35:58Z</time>
      </trkpt>
      <trkpt lat="46.29697" lon="-0.35417">
        <ele>63.128</ele>
        <time>2011-07-03T12:35:59Z</time>
      </trkpt>
      <trkpt lat="46.29697" lon="-0.35419">
        <ele>63.1064</ele>
        <time>2011-07-03T12:36:00Z</time>
      </trkpt>
      <trkpt lat="46.29697" lon="-0.35421">
        <ele>63.0854</ele>
        <time>2011-07-03T12:36:01Z</time>
      </trkpt>
      <trkpt lat="46.29697" lon="-0.35423">
        <ele>63.0626</ele>
        <time>2011-07-03T12:36:02Z</time>
      </trkpt>
      <trkpt lat="46.29697" lon="-0.35425">
        <ele>63.0354</ele>
        <time>2011-07-03T12:36:03Z</time>
      </trkpt>
      <trkpt lat="46.29696" lon="-0.35427">
        <ele>63.0068</ele>
        <time>2011-07-03T12:36:04Z</time>
      </trkpt>
      <trkpt lat="46.29696" lon="-0.3543">
        <ele>62.9756</ele>
        <time>2011-07-03T12:36:05Z</time>
      </trkpt>
      <trkpt lat="46.29696" lon="-0.35431">
        <ele>62.9437</ele>
        <time>2011-07-03T12:36:06Z</time>
      </trkpt>
      <trkpt lat="46.29695" lon="-0.35433">
        <ele>62.9132</ele>
        <time>2011-07-03T12:36:07Z</time>
      </trkpt>
      <trkpt lat="46.29696" lon="-0.35435">
        <ele>62.8819</ele>
        <time>2011-07-03T12:36:08Z</time>
      </trkpt>
      <trkpt lat="46.29696" lon="-0.35437">
        <ele>62.8499</ele>
        <time>2011-07-03T12:36:09Z</time>
      </trkpt>
      <trkpt lat="46.29696" lon="-0.35439">
        <ele>62.823</ele>
        <time>2011-07-03T12:36:10Z</time>
      </trkpt>
      <trkpt lat="46.29695" lon="-0.35441">
        <ele>62.7969</ele>
        <time>2011-07-03T12:36:11Z</time>
      </trkpt>
      <trkpt lat="46.29695" lon="-0.35443">
        <ele>62.7759</ele>
        <time>2011-07-03T12:36:12Z</time>
      </trkpt>
      <trkpt lat="46.29696" lon="-0.35445">
        <ele>62.7603</ele>
        <time>2011-07-03T12:36:13Z</time>
      </trkpt>
      <trkpt lat="46.29695" lon="-0.35447">
        <ele>62.7428</ele>
        <time>2011-07-03T12:36:14Z</time>
      </trkpt>
      <trkpt lat="46.29695" lon="-0.35449">
        <ele>62.7264</ele>
        <time>2011-07-03T12:36:15Z</time>
      </trkpt>
      <trkpt lat="46.29695" lon="-0.35451">
        <ele>62.7094</ele>
        <time>2011-07-03T12:36:16Z</time>
      </trkpt>
      <trkpt lat="46.29694" lon="-0.35453">
        <ele>62.692</ele>
        <time>2011-07-03T12:36:17Z</time>
      </trkpt>
      <trkpt lat="46.29694" lon="-0.35455">
        <ele>62.6732</ele>
        <time>2011-07-03T12:36:18Z</time>
      </trkpt>
      <trkpt lat="46.29694" lon="-0.35457">
        <ele>62.6543</ele>
        <time>2011-07-03T12:36:19Z</time>
      </trkpt>
      <trkpt lat="46.29694" lon="-0.35459">
        <ele>62.6352</ele>
        <time>2011-07-03T12:36:20Z</time>
      </trkpt>
      <trkpt lat="46.29694" lon="-0.35461">
        <ele>62.6158</ele>
        <time>2011-07-03T12:36:21Z</time>
      </trkpt>
      <trkpt lat="46.29694" lon="-0.35462">
        <ele>62.5951</ele>
        <time>2011-07-03T12:36:22Z</time>
      </trkpt>
      <trkpt lat="46.29693" lon="-0.35464">
        <ele>62.5744</ele>
        <time>2011-07-03T12:36:23Z</time>
      </trkpt>
      <trkpt lat="46.29693" lon="-0.35465">
        <ele>62.5549</ele>
        <time>2011-07-03T12:36:24Z</time>
      </trkpt>
      <trkpt lat="46.29693" lon="-0.35467">
        <ele>62.5358</ele>
        <time>2011-07-03T12:36:25Z</time>
      </trkpt>
      <trkpt lat="46.29693" lon="-0.35469">
        <ele>62.5173</ele>
        <time>2011-07-03T12:36:26Z</time>
      </trkpt>
      <trkpt lat="46.29693" lon="-0.3547">
        <ele>62.4982</ele>
        <time>2011-07-03T12:36:27Z</time>
      </trkpt>
      <trkpt lat="46.29693" lon="-0.35472">
        <ele>62.4808</ele>
        <time>2011-07-03T12:36:28Z</time>
      </trkpt>
      <trkpt lat="46.29693" lon="-0.35474">
        <ele>62.4623</ele>
        <time>2011-07-03T12:36:29Z</time>
      </trkpt>
      <trkpt lat="46.29693" lon="-0.35476">
        <ele>62.4444</ele>
        <time>2011-07-03T12:36:30Z</time>
      </trkpt>
      <trkpt lat="46.29693" lon="-0.35477">
        <ele>62.4335</ele>
        <time>2011-07-03T12:36:31Z</time>
      </trkpt>
      <trkpt lat="46.29693" lon="-0.35479">
        <ele>62.4226</ele>
        <time>2011-07-03T12:36:32Z</time>
      </trkpt>
      <trkpt lat="46.29693" lon="-0.35481">
        <ele>62.4148</ele>
        <time>2011-07-03T12:36:33Z</time>
      </trkpt>
      <trkpt lat="46.29693" lon="-0.35483">
        <ele>62.4111</ele>
        <time>2011-07-03T12:36:34Z</time>
      </trkpt>
      <trkpt lat="46.29693" lon="-0.35485">
        <ele>62.4137</ele>
        <time>2011-07-03T12:36:35Z</time>
      </trkpt>
      <trkpt lat="46.29693" lon="-0.35487">
        <ele>62.421</ele>
        <time>2011-07-03T12:36:36Z</time>
      </trkpt>
      <trkpt lat="46.29692" lon="-0.3549">
        <ele>62.4331</ele>
        <time>2011-07-03T12:36:37Z</time>
      </trkpt>
      <trkpt lat="46.29692" lon="-0.35492">
        <ele>62.4479</ele>
        <time>2011-07-03T12:36:38Z</time>
      </trkpt>
      <trkpt lat="46.29691" lon="-0.35494">
        <ele>62.4709</ele>
        <time>2011-07-03T12:36:39Z</time>
      </trkpt>
      <trkpt lat="46.29691" lon="-0.35496">
        <ele>62.4986</ele>
        <time>2011-07-03T12:36:40Z</time>
      </trkpt>
      <trkpt lat="46.2969" lon="-0.35497">
        <ele>62.5288</ele>
        <time>2011-07-03T12:36:41Z</time>
      </trkpt>
      <trkpt lat="46.29694" lon="-0.35501">
        <ele>53.4221</ele>
        <time>2011-07-03T12:39:16Z</time>
      </trkpt>
      <trkpt lat="46.29694" lon="-0.35502">
        <ele>53.0201</ele>
        <time>2011-07-03T12:39:19Z</time>
      </trkpt>
      <trkpt lat="46.29692" lon="-0.35504">
        <ele>57.9696</ele>
        <time>2011-07-03T12:39:20Z</time>
      </trkpt>
      <trkpt lat="46.29691" lon="-0.35507">
        <ele>59.6354</ele>
        <time>2011-07-03T12:39:21Z</time>
      </trkpt>
      <trkpt lat="46.29691" lon="-0.35509">
        <ele>60.7692</ele>
        <time>2011-07-03T12:39:22Z</time>
      </trkpt>
      <trkpt lat="46.2969" lon="-0.35511">
        <ele>61.3868</ele>
        <time>2011-07-03T12:39:23Z</time>
      </trkpt>
      <trkpt lat="46.29689" lon="-0.35513">
        <ele>61.8362</ele>
        <time>2011-07-03T12:39:24Z</time>
      </trkpt>
      <trkpt lat="46.29689" lon="-0.35516">
        <ele>62.542</ele>
        <time>2011-07-03T12:39:25Z</time>
      </trkpt>
      <trkpt lat="46.29689" lon="-0.35518">
        <ele>62.542</ele>
        <time>2011-07-03T12:39:26Z</time>
      </trkpt>
      <trkpt lat="46.29689" lon="-0.35519">
        <ele>63.5078</ele>
        <time>2011-07-03T12:39:27Z</time>
      </trkpt>
      <trkpt lat="46.29689" lon="-0.35522">
        <ele>61.6569</ele>
        <time>2011-07-03T12:39:28Z</time>
      </trkpt>
      <trkpt lat="46.29688" lon="-0.35524">
        <ele>61.1265</ele>
        <time>2011-07-03T12:39:29Z</time>
      </trkpt>
      <trkpt lat="46.29688" lon="-0.35526">
        <ele>61.3406</ele>
        <time>2011-07-03T12:39:30Z</time>
      </trkpt>
      <trkpt lat="46.29688" lon="-0.35528">
        <ele>61.6955</ele>
        <time>2011-07-03T12:39:31Z</time>
      </trkpt>
      <trkpt lat="46.29687" lon="-0.3553">
        <ele>61.6032</ele>
        <time>2011-07-03T12:39:32Z</time>
      </trkpt>
      <trkpt lat="46.29687" lon="-0.35532">
        <ele>61.7416</ele>
        <time>2011-07-03T12:39:33Z</time>
      </trkpt>
      <trkpt lat="46.29687" lon="-0.35533">
        <ele>61.7428</ele>
        <time>2011-07-03T12:39:34Z</time>
      </trkpt>
      <trkpt lat="46.29687" lon="-0.35535">
        <ele>61.6807</ele>
        <time>2011-07-03T12:39:35Z</time>
      </trkpt>
      <trkpt lat="46.29686" lon="-0.35537">
        <ele>61.8007</ele>
        <time>2011-07-03T12:39:36Z</time>
      </trkpt>
      <trkpt lat="46.29686" lon="-0.35539">
        <ele>61.9079</ele>
        <time>2011-07-03T12:39:37Z</time>
      </trkpt>
      <trkpt lat="46.29686" lon="-0.3554">
        <ele>61.9656</ele>
        <time>2011-07-03T12:39:38Z</time>
      </trkpt>
      <trkpt lat="46.29686" lon="-0.35543">
        <ele>62.0064</ele>
        <time>2011-07-03T12:39:39Z</time>
      </trkpt>
      <trkpt lat="46.29686" lon="-0.35545">
        <ele>61.9297</ele>
        <time>2011-07-03T12:39:40Z</time>
      </trkpt>
      <trkpt lat="46.29686" lon="-0.35547">
        <ele>61.901</ele>
        <time>2011-07-03T12:39:41Z</time>
      </trkpt>
      <trkpt lat="46.29686" lon="-0.35549">
        <ele>61.8935</ele>
        <time>2011-07-03T12:39:42Z</time>
      </trkpt>
      <trkpt lat="46.29686" lon="-0.3555">
        <ele>61.806</ele>
        <time>2011-07-03T12:39:43Z</time>
      </trkpt>
      <trkpt lat="46.29686" lon="-0.35552">
        <ele>61.6698</ele>
        <time>2011-07-03T12:39:44Z</time>
      </trkpt>
      <trkpt lat="46.29686" lon="-0.35553">
        <ele>61.4831</ele>
        <time>2011-07-03T12:39:45Z</time>
      </trkpt>
      <trkpt lat="46.29686" lon="-0.35555">
        <ele>61.3477</ele>
        <time>2011-07-03T12:39:46Z</time>
      </trkpt>
      <trkpt lat="46.29686" lon="-0.35557">
        <ele>61.2189</ele>
        <time>2011-07-03T12:39:47Z</time>
      </trkpt>
      <trkpt lat="46.29686" lon="-0.35559">
        <ele>61.1353</ele>
        <time>2011-07-03T12:39:48Z</time>
      </trkpt>
      <trkpt lat="46.29686" lon="-0.35561">
        <ele>61.138</ele>
        <time>2011-07-03T12:39:49Z</time>
      </trkpt>
      <trkpt lat="46.29686" lon="-0.35562">
        <ele>61.1449</ele>
        <time>2011-07-03T12:39:50Z</time>
      </trkpt>
      <trkpt lat="46.29686" lon="-0.35564">
        <ele>61.1569</ele>
        <time>2011-07-03T12:39:51Z</time>
      </trkpt>
      <trkpt lat="46.29686" lon="-0.35566">
        <ele>61.1712</ele>
        <time>2011-07-03T12:39:52Z</time>
      </trkpt>
      <trkpt lat="46.29685" lon="-0.35568">
        <ele>61.1835</ele>
        <time>2011-07-03T12:39:53Z</time>
      </trkpt>
      <trkpt lat="46.29685" lon="-0.3557">
        <ele>61.198</ele>
        <time>2011-07-03T12:39:54Z</time>
      </trkpt>
      <trkpt lat="46.29684" lon="-0.35572">
        <ele>61.2118</ele>
        <time>2011-07-03T12:39:55Z</time>
      </trkpt>
      <trkpt lat="46.29684" lon="-0.35574">
        <ele>61.2231</ele>
        <time>2011-07-03T12:39:56Z</time>
      </trkpt>
      <trkpt lat="46.29684" lon="-0.35576">
        <ele>61.2258</ele>
        <time>2011-07-03T12:39:57Z</time>
      </trkpt>
      <trkpt lat="46.29684" lon="-0.35577">
        <ele>61.2247</ele>
        <time>2011-07-03T12:39:58Z</time>
      </trkpt>
      <trkpt lat="46.29684" lon="-0.35578">
        <ele>61.2202</ele>
        <time>2011-07-03T12:39:59Z</time>
      </trkpt>
      <trkpt lat="46.29684" lon="-0.35579">
        <ele>61.2042</ele>
        <time>2011-07-03T12:40:00Z</time>
      </trkpt>
      <trkpt lat="46.29684" lon="-0.35581">
        <ele>61.1845</ele>
        <time>2011-07-03T12:40:01Z</time>
      </trkpt>
      <trkpt lat="46.29683" lon="-0.35582">
        <ele>61.1702</ele>
        <time>2011-07-03T12:40:02Z</time>
      </trkpt>
      <trkpt lat="46.29683" lon="-0.35583">
        <ele>61.1586</ele>
        <time>2011-07-03T12:40:03Z</time>
      </trkpt>
      <trkpt lat="46.29683" lon="-0.35585">
        <ele>61.1417</ele>
        <time>2011-07-03T12:40:04Z</time>
      </trkpt>
      <trkpt lat="46.29683" lon="-0.35586">
        <ele>61.1118</ele>
        <time>2011-07-03T12:40:05Z</time>
      </trkpt>
      <trkpt lat="46.29683" lon="-0.35588">
        <ele>61.0879</ele>
        <time>2011-07-03T12:40:06Z</time>
      </trkpt>
      <trkpt lat="46.29683" lon="-0.35589">
        <ele>61.0748</ele>
        <time>2011-07-03T12:40:07Z</time>
      </trkpt>
      <trkpt lat="46.29683" lon="-0.35591">
        <ele>61.0631</ele>
        <time>2011-07-03T12:40:08Z</time>
      </trkpt>
      <trkpt lat="46.29683" lon="-0.35593">
        <ele>61.0582</ele>
        <time>2011-07-03T12:40:09Z</time>
      </trkpt>
      <trkpt lat="46.29683" lon="-0.35594">
        <ele>61.0482</ele>
        <time>2011-07-03T12:40:10Z</time>
      </trkpt>
      <trkpt lat="46.29682" lon="-0.35596">
        <ele>61.0227</ele>
        <time>2011-07-03T12:40:11Z</time>
      </trkpt>
      <trkpt lat="46.29682" lon="-0.35598">
        <ele>60.998</ele>
        <time>2011-07-03T12:40:12Z</time>
      </trkpt>
      <trkpt lat="46.29683" lon="-0.356">
        <ele>60.9722</ele>
        <time>2011-07-03T12:40:13Z</time>
      </trkpt>
      <trkpt lat="46.29682" lon="-0.35602">
        <ele>60.9475</ele>
        <time>2011-07-03T12:40:14Z</time>
      </trkpt>
      <trkpt lat="46.29682" lon="-0.35604">
        <ele>60.9228</ele>
        <time>2011-07-03T12:40:15Z</time>
      </trkpt>
      <trkpt lat="46.29682" lon="-0.35606">
        <ele>60.8927</ele>
        <time>2011-07-03T12:40:16Z</time>
      </trkpt>
      <trkpt lat="46.29683" lon="-0.35608">
        <ele>60.856</ele>
        <time>2011-07-03T12:40:17Z</time>
      </trkpt>
      <trkpt lat="46.29683" lon="-0.35609">
        <ele>60.8186</ele>
        <time>2011-07-03T12:40:18Z</time>
      </trkpt>
      <trkpt lat="46.29683" lon="-0.35611">
        <ele>60.7744</ele>
        <time>2011-07-03T12:40:19Z</time>
      </trkpt>
      <trkpt lat="46.29683" lon="-0.35613">
        <ele>60.7238</ele>
        <time>2011-07-03T12:40:20Z</time>
      </trkpt>
      <trkpt lat="46.29682" lon="-0.35615">
        <ele>60.6706</ele>
        <time>2011-07-03T12:40:21Z</time>
      </trkpt>
      <trkpt lat="46.29682" lon="-0.35617">
        <ele>60.6159</ele>
        <time>2011-07-03T12:40:22Z</time>
      </trkpt>
      <trkpt lat="46.29681" lon="-0.35619">
        <ele>60.5571</ele>
        <time>2011-07-03T12:40:23Z</time>
      </trkpt>
      <trkpt lat="46.29681" lon="-0.35621">
        <ele>60.4949</ele>
        <time>2011-07-03T12:40:24Z</time>
      </trkpt>
      <trkpt lat="46.29681" lon="-0.35623">
        <ele>60.4326</ele>
        <time>2011-07-03T12:40:25Z</time>
      </trkpt>
      <trkpt lat="46.29681" lon="-0.35625">
        <ele>60.3703</ele>
        <time>2011-07-03T12:40:26Z</time>
      </trkpt>
      <trkpt lat="46.29681" lon="-0.35627">
        <ele>60.3041</ele>
        <time>2011-07-03T12:40:27Z</time>
      </trkpt>
      <trkpt lat="46.2968" lon="-0.35629">
        <ele>60.2382</ele>
        <time>2011-07-03T12:40:28Z</time>
      </trkpt>
      <trkpt lat="46.2968" lon="-0.35631">
        <ele>60.1688</ele>
        <time>2011-07-03T12:40:29Z</time>
      </trkpt>
      <trkpt lat="46.2968" lon="-0.35633">
        <ele>60.0997</ele>
        <time>2011-07-03T12:40:30Z</time>
      </trkpt>
      <trkpt lat="46.2968" lon="-0.35636">
        <ele>60.0287</ele>
        <time>2011-07-03T12:40:31Z</time>
      </trkpt>
      <trkpt lat="46.2968" lon="-0.35638">
        <ele>59.9549</ele>
        <time>2011-07-03T12:40:32Z</time>
      </trkpt>
      <trkpt lat="46.29679" lon="-0.3564">
        <ele>59.8811</ele>
        <time>2011-07-03T12:40:33Z</time>
      </trkpt>
      <trkpt lat="46.29679" lon="-0.35642">
        <ele>59.8085</ele>
        <time>2011-07-03T12:40:34Z</time>
      </trkpt>
      <trkpt lat="46.29678" lon="-0.35644">
        <ele>59.7375</ele>
        <time>2011-07-03T12:40:35Z</time>
      </trkpt>
      <trkpt lat="46.29678" lon="-0.35646">
        <ele>59.6672</ele>
        <time>2011-07-03T12:40:36Z</time>
      </trkpt>
      <trkpt lat="46.29678" lon="-0.35648">
        <ele>59.598</ele>
        <time>2011-07-03T12:40:37Z</time>
      </trkpt>
      <trkpt lat="46.29678" lon="-0.3565">
        <ele>59.531</ele>
        <time>2011-07-03T12:40:38Z</time>
      </trkpt>
      <trkpt lat="46.29678" lon="-0.35652">
        <ele>59.4676</ele>
        <time>2011-07-03T12:40:39Z</time>
      </trkpt>
      <trkpt lat="46.29678" lon="-0.35654">
        <ele>59.4079</ele>
        <time>2011-07-03T12:40:40Z</time>
      </trkpt>
      <trkpt lat="46.29678" lon="-0.35656">
        <ele>59.3522</ele>
        <time>2011-07-03T12:40:41Z</time>
      </trkpt>
      <trkpt lat="46.29678" lon="-0.35659">
        <ele>59.3003</ele>
        <time>2011-07-03T12:40:42Z</time>
      </trkpt>
      <trkpt lat="46.29677" lon="-0.35661">
        <ele>59.2495</ele>
        <time>2011-07-03T12:40:43Z</time>
      </trkpt>
      <trkpt lat="46.29677" lon="-0.35662">
        <ele>59.1993</ele>
        <time>2011-07-03T12:40:44Z</time>
      </trkpt>
      <trkpt lat="46.29677" lon="-0.35664">
        <ele>59.1493</ele>
        <time>2011-07-03T12:40:45Z</time>
      </trkpt>
      <trkpt lat="46.29677" lon="-0.35666">
        <ele>59.0982</ele>
        <time>2011-07-03T12:40:46Z</time>
      </trkpt>
      <trkpt lat="46.29677" lon="-0.35669">
        <ele>59.0483</ele>
        <time>2011-07-03T12:40:47Z</time>
      </trkpt>
      <trkpt lat="46.29677" lon="-0.35671">
        <ele>58.9997</ele>
        <time>2011-07-03T12:40:48Z</time>
      </trkpt>
      <trkpt lat="46.29677" lon="-0.35673">
        <ele>58.9517</ele>
        <time>2011-07-03T12:40:49Z</time>
      </trkpt>
      <trkpt lat="46.29677" lon="-0.35675">
        <ele>58.9063</ele>
        <time>2011-07-03T12:40:50Z</time>
      </trkpt>
      <trkpt lat="46.29677" lon="-0.35676">
        <ele>58.8612</ele>
        <time>2011-07-03T12:40:51Z</time>
      </trkpt>
      <trkpt lat="46.29676" lon="-0.35678">
        <ele>58.8197</ele>
        <time>2011-07-03T12:40:52Z</time>
      </trkpt>
      <trkpt lat="46.29676" lon="-0.3568">
        <ele>58.7795</ele>
        <time>2011-07-03T12:40:53Z</time>
      </trkpt>
      <trkpt lat="46.29676" lon="-0.35682">
        <ele>58.7413</ele>
        <time>2011-07-03T12:40:54Z</time>
      </trkpt>
      <trkpt lat="46.29676" lon="-0.35684">
        <ele>58.701</ele>
        <time>2011-07-03T12:40:55Z</time>
      </trkpt>
      <trkpt lat="46.29676" lon="-0.35685">
        <ele>58.659</ele>
        <time>2011-07-03T12:40:56Z</time>
      </trkpt>
      <trkpt lat="46.29675" lon="-0.35687">
        <ele>58.6149</ele>
        <time>2011-07-03T12:40:57Z</time>
      </trkpt>
      <trkpt lat="46.29675" lon="-0.35689">
        <ele>58.5712</ele>
        <time>2011-07-03T12:40:58Z</time>
      </trkpt>
      <trkpt lat="46.29675" lon="-0.35691">
        <ele>58.5281</ele>
        <time>2011-07-03T12:40:59Z</time>
      </trkpt>
      <trkpt lat="46.29676" lon="-0.35693">
        <ele>58.486</ele>
        <time>2011-07-03T12:41:00Z</time>
      </trkpt>
      <trkpt lat="46.29676" lon="-0.35694">
        <ele>58.4442</ele>
        <time>2011-07-03T12:41:01Z</time>
      </trkpt>
      <trkpt lat="46.29676" lon="-0.35696">
        <ele>58.3999</ele>
        <time>2011-07-03T12:41:02Z</time>
      </trkpt>
      <trkpt lat="46.29675" lon="-0.35698">
        <ele>58.3554</ele>
        <time>2011-07-03T12:41:03Z</time>
      </trkpt>
      <trkpt lat="46.29675" lon="-0.35699">
        <ele>58.3106</ele>
        <time>2011-07-03T12:41:04Z</time>
      </trkpt>
      <trkpt lat="46.29675" lon="-0.35701">
        <ele>58.2667</ele>
        <time>2011-07-03T12:41:05Z</time>
      </trkpt>
      <trkpt lat="46.29675" lon="-0.35703">
        <ele>58.2234</ele>
        <time>2011-07-03T12:41:06Z</time>
      </trkpt>
      <trkpt lat="46.29675" lon="-0.35704">
        <ele>58.1814</ele>
        <time>2011-07-03T12:41:07Z</time>
      </trkpt>
      <trkpt lat="46.29674" lon="-0.35706">
        <ele>58.1421</ele>
        <time>2011-07-03T12:41:08Z</time>
      </trkpt>
      <trkpt lat="46.29674" lon="-0.35708">
        <ele>58.11</ele>
        <time>2011-07-03T12:41:09Z</time>
      </trkpt>
      <trkpt lat="46.29674" lon="-0.3571">
        <ele>58.0789</ele>
        <time>2011-07-03T12:41:10Z</time>
      </trkpt>
      <trkpt lat="46.29674" lon="-0.35712">
        <ele>58.0486</ele>
        <time>2011-07-03T12:41:11Z</time>
      </trkpt>
      <trkpt lat="46.29673" lon="-0.35714">
        <ele>58.0191</ele>
        <time>2011-07-03T12:41:12Z</time>
      </trkpt>
      <trkpt lat="46.29673" lon="-0.35716">
        <ele>57.9896</ele>
        <time>2011-07-03T12:41:13Z</time>
      </trkpt>
      <trkpt lat="46.29673" lon="-0.35718">
        <ele>57.9603</ele>
        <time>2011-07-03T12:41:14Z</time>
      </trkpt>
      <trkpt lat="46.29673" lon="-0.3572">
        <ele>57.9313</ele>
        <time>2011-07-03T12:41:15Z</time>
      </trkpt>
      <trkpt lat="46.29673" lon="-0.35722">
        <ele>57.903</ele>
        <time>2011-07-03T12:41:16Z</time>
      </trkpt>
      <trkpt lat="46.29673" lon="-0.35724">
        <ele>57.875</ele>
        <time>2011-07-03T12:41:17Z</time>
      </trkpt>
      <trkpt lat="46.29672" lon="-0.35726">
        <ele>57.8478</ele>
        <time>2011-07-03T12:41:18Z</time>
      </trkpt>
      <trkpt lat="46.29672" lon="-0.35727">
        <ele>57.8212</ele>
        <time>2011-07-03T12:41:19Z</time>
      </trkpt>
      <trkpt lat="46.29672" lon="-0.35729">
        <ele>57.7974</ele>
        <time>2011-07-03T12:41:20Z</time>
      </trkpt>
      <trkpt lat="46.29672" lon="-0.35731">
        <ele>57.7732</ele>
        <time>2011-07-03T12:41:21Z</time>
      </trkpt>
      <trkpt lat="46.29672" lon="-0.35733">
        <ele>57.7489</ele>
        <time>2011-07-03T12:41:22Z</time>
      </trkpt>
      <trkpt lat="46.29672" lon="-0.35735">
        <ele>57.7252</ele>
        <time>2011-07-03T12:41:23Z</time>
      </trkpt>
      <trkpt lat="46.29671" lon="-0.35737">
        <ele>57.7011</ele>
        <time>2011-07-03T12:41:24Z</time>
      </trkpt>
      <trkpt lat="46.29671" lon="-0.35739">
        <ele>57.6763</ele>
        <time>2011-07-03T12:41:25Z</time>
      </trkpt>
      <trkpt lat="46.29671" lon="-0.35741">
        <ele>57.6532</ele>
        <time>2011-07-03T12:41:26Z</time>
      </trkpt>
      <trkpt lat="46.29671" lon="-0.35743">
        <ele>57.6309</ele>
        <time>2011-07-03T12:41:27Z</time>
      </trkpt>
      <trkpt lat="46.2967" lon="-0.35745">
        <ele>57.6041</ele>
        <time>2011-07-03T12:41:28Z</time>
      </trkpt>
      <trkpt lat="46.2967" lon="-0.35747">
        <ele>57.5745</ele>
        <time>2011-07-03T12:41:29Z</time>
      </trkpt>
      <trkpt lat="46.2967" lon="-0.35749">
        <ele>57.5453</ele>
        <time>2011-07-03T12:41:30Z</time>
      </trkpt>
      <trkpt lat="46.29669" lon="-0.35752">
        <ele>57.5275</ele>
        <time>2011-07-03T12:41:31Z</time>
      </trkpt>
      <trkpt lat="46.29668" lon="-0.35754">
        <ele>57.5183</ele>
        <time>2011-07-03T12:41:32Z</time>
      </trkpt>
      <trkpt lat="46.29668" lon="-0.35757">
        <ele>57.519</ele>
        <time>2011-07-03T12:41:33Z</time>
      </trkpt>
      <trkpt lat="46.29667" lon="-0.35759">
        <ele>57.5248</ele>
        <time>2011-07-03T12:41:34Z</time>
      </trkpt>
      <trkpt lat="46.29666" lon="-0.3576">
        <ele>57.5308</ele>
        <time>2011-07-03T12:41:35Z</time>
      </trkpt>
      <trkpt lat="46.29666" lon="-0.35762">
        <ele>57.5367</ele>
        <time>2011-07-03T12:41:36Z</time>
      </trkpt>
      <trkpt lat="46.29666" lon="-0.35764">
        <ele>57.542</ele>
        <time>2011-07-03T12:41:37Z</time>
      </trkpt>
      <trkpt lat="46.29666" lon="-0.35765">
        <ele>57.55</ele>
        <time>2011-07-03T12:41:38Z</time>
      </trkpt>
      <trkpt lat="46.29666" lon="-0.35767">
        <ele>57.5582</ele>
        <time>2011-07-03T12:41:39Z</time>
      </trkpt>
      <trkpt lat="46.29666" lon="-0.35769">
        <ele>57.5664</ele>
        <time>2011-07-03T12:41:40Z</time>
      </trkpt>
      <trkpt lat="46.29666" lon="-0.35771">
        <ele>57.5746</ele>
        <time>2011-07-03T12:41:41Z</time>
      </trkpt>
      <trkpt lat="46.29665" lon="-0.35772">
        <ele>57.5827</ele>
        <time>2011-07-03T12:41:42Z</time>
      </trkpt>
      <trkpt lat="46.29665" lon="-0.35774">
        <ele>57.5917</ele>
        <time>2011-07-03T12:41:43Z</time>
      </trkpt>
      <trkpt lat="46.29665" lon="-0.35776">
        <ele>57.6015</ele>
        <time>2011-07-03T12:41:44Z</time>
      </trkpt>
      <trkpt lat="46.29665" lon="-0.35778">
        <ele>57.6117</ele>
        <time>2011-07-03T12:41:45Z</time>
      </trkpt>
      <trkpt lat="46.29665" lon="-0.3578">
        <ele>57.6198</ele>
        <time>2011-07-03T12:41:46Z</time>
      </trkpt>
      <trkpt lat="46.29664" lon="-0.35782">
        <ele>57.6275</ele>
        <time>2011-07-03T12:41:47Z</time>
      </trkpt>
      <trkpt lat="46.29664" lon="-0.35784">
        <ele>57.635</ele>
        <time>2011-07-03T12:41:48Z</time>
      </trkpt>
      <trkpt lat="46.29664" lon="-0.35786">
        <ele>57.64</ele>
        <time>2011-07-03T12:41:49Z</time>
      </trkpt>
      <trkpt lat="46.29664" lon="-0.35788">
        <ele>57.6442</ele>
        <time>2011-07-03T12:41:50Z</time>
      </trkpt>
      <trkpt lat="46.29664" lon="-0.3579">
        <ele>57.6449</ele>
        <time>2011-07-03T12:41:51Z</time>
      </trkpt>
      <trkpt lat="46.29664" lon="-0.35792">
        <ele>57.6451</ele>
        <time>2011-07-03T12:41:52Z</time>
      </trkpt>
      <trkpt lat="46.29664" lon="-0.35794">
        <ele>57.6428</ele>
        <time>2011-07-03T12:41:53Z</time>
      </trkpt>
      <trkpt lat="46.29664" lon="-0.35796">
        <ele>57.6378</ele>
        <time>2011-07-03T12:41:54Z</time>
      </trkpt>
      <trkpt lat="46.29664" lon="-0.35797">
        <ele>57.6323</ele>
        <time>2011-07-03T12:41:55Z</time>
      </trkpt>
      <trkpt lat="46.29664" lon="-0.35799">
        <ele>57.6252</ele>
        <time>2011-07-03T12:41:56Z</time>
      </trkpt>
      <trkpt lat="46.29664" lon="-0.35801">
        <ele>57.6177</ele>
        <time>2011-07-03T12:41:57Z</time>
      </trkpt>
      <trkpt lat="46.29664" lon="-0.35802">
        <ele>57.6076</ele>
        <time>2011-07-03T12:41:58Z</time>
      </trkpt>
      <trkpt lat="46.29664" lon="-0.35804">
        <ele>57.5965</ele>
        <time>2011-07-03T12:41:59Z</time>
      </trkpt>
      <trkpt lat="46.29664" lon="-0.35806">
        <ele>57.5849</ele>
        <time>2011-07-03T12:42:00Z</time>
      </trkpt>
      <trkpt lat="46.29664" lon="-0.35808">
        <ele>57.5728</ele>
        <time>2011-07-03T12:42:01Z</time>
      </trkpt>
      <trkpt lat="46.29664" lon="-0.35809">
        <ele>57.5598</ele>
        <time>2011-07-03T12:42:02Z</time>
      </trkpt>
      <trkpt lat="46.29664" lon="-0.35811">
        <ele>57.5461</ele>
        <time>2011-07-03T12:42:03Z</time>
      </trkpt>
      <trkpt lat="46.29664" lon="-0.35813">
        <ele>57.5331</ele>
        <time>2011-07-03T12:42:04Z</time>
      </trkpt>
      <trkpt lat="46.29664" lon="-0.35815">
        <ele>57.5195</ele>
        <time>2011-07-03T12:42:05Z</time>
      </trkpt>
      <trkpt lat="46.29664" lon="-0.35817">
        <ele>57.5086</ele>
        <time>2011-07-03T12:42:06Z</time>
      </trkpt>
      <trkpt lat="46.29664" lon="-0.35818">
        <ele>57.4958</ele>
        <time>2011-07-03T12:42:07Z</time>
      </trkpt>
      <trkpt lat="46.29664" lon="-0.3582">
        <ele>57.4803</ele>
        <time>2011-07-03T12:42:08Z</time>
      </trkpt>
      <trkpt lat="46.29664" lon="-0.35822">
        <ele>57.4591</ele>
        <time>2011-07-03T12:42:09Z</time>
      </trkpt>
      <trkpt lat="46.29664" lon="-0.35824">
        <ele>57.4383</ele>
        <time>2011-07-03T12:42:10Z</time>
      </trkpt>
      <trkpt lat="46.29664" lon="-0.35826">
        <ele>57.4183</ele>
        <time>2011-07-03T12:42:11Z</time>
      </trkpt>
      <trkpt lat="46.29664" lon="-0.35828">
        <ele>57.3997</ele>
        <time>2011-07-03T12:42:12Z</time>
      </trkpt>
      <trkpt lat="46.29664" lon="-0.35831">
        <ele>57.3838</ele>
        <time>2011-07-03T12:42:13Z</time>
      </trkpt>
      <trkpt lat="46.29663" lon="-0.35833">
        <ele>57.3651</ele>
        <time>2011-07-03T12:42:14Z</time>
      </trkpt>
      <trkpt lat="46.29663" lon="-0.35835">
        <ele>57.3436</ele>
        <time>2011-07-03T12:42:15Z</time>
      </trkpt>
      <trkpt lat="46.29662" lon="-0.35838">
        <ele>57.3202</ele>
        <time>2011-07-03T12:42:16Z</time>
      </trkpt>
      <trkpt lat="46.29662" lon="-0.3584">
        <ele>57.2976</ele>
        <time>2011-07-03T12:42:17Z</time>
      </trkpt>
      <trkpt lat="46.29662" lon="-0.35842">
        <ele>57.2761</ele>
        <time>2011-07-03T12:42:18Z</time>
      </trkpt>
      <trkpt lat="46.29661" lon="-0.35844">
        <ele>57.2565</ele>
        <time>2011-07-03T12:42:19Z</time>
      </trkpt>
      <trkpt lat="46.29661" lon="-0.35847">
        <ele>57.2351</ele>
        <time>2011-07-03T12:42:20Z</time>
      </trkpt>
      <trkpt lat="46.2966" lon="-0.35849">
        <ele>57.2117</ele>
        <time>2011-07-03T12:42:21Z</time>
      </trkpt>
      <trkpt lat="46.2966" lon="-0.3585">
        <ele>57.1887</ele>
        <time>2011-07-03T12:42:22Z</time>
      </trkpt>
      <trkpt lat="46.2966" lon="-0.35852">
        <ele>57.1665</ele>
        <time>2011-07-03T12:42:23Z</time>
      </trkpt>
      <trkpt lat="46.2966" lon="-0.35854">
        <ele>57.1447</ele>
        <time>2011-07-03T12:42:24Z</time>
      </trkpt>
      <trkpt lat="46.2966" lon="-0.35856">
        <ele>57.1251</ele>
        <time>2011-07-03T12:42:25Z</time>
      </trkpt>
      <trkpt lat="46.2966" lon="-0.35858">
        <ele>57.1079</ele>
        <time>2011-07-03T12:42:26Z</time>
      </trkpt>
      <trkpt lat="46.29659" lon="-0.3586">
        <ele>57.0913</ele>
        <time>2011-07-03T12:42:27Z</time>
      </trkpt>
      <trkpt lat="46.29659" lon="-0.35862">
        <ele>57.0753</ele>
        <time>2011-07-03T12:42:28Z</time>
      </trkpt>
      <trkpt lat="46.29659" lon="-0.35864">
        <ele>57.0598</ele>
        <time>2011-07-03T12:42:29Z</time>
      </trkpt>
      <trkpt lat="46.29659" lon="-0.35865">
        <ele>57.0414</ele>
        <time>2011-07-03T12:42:30Z</time>
      </trkpt>
      <trkpt lat="46.29659" lon="-0.35867">
        <ele>57.0206</ele>
        <time>2011-07-03T12:42:31Z</time>
      </trkpt>
      <trkpt lat="46.29659" lon="-0.3587">
        <ele>56.9986</ele>
        <time>2011-07-03T12:42:32Z</time>
      </trkpt>
      <trkpt lat="46.29659" lon="-0.35872">
        <ele>56.9765</ele>
        <time>2011-07-03T12:42:33Z</time>
      </trkpt>
      <trkpt lat="46.29659" lon="-0.35874">
        <ele>56.9535</ele>
        <time>2011-07-03T12:42:34Z</time>
      </trkpt>
      <trkpt lat="46.29659" lon="-0.35875">
        <ele>56.9311</ele>
        <time>2011-07-03T12:42:35Z</time>
      </trkpt>
      <trkpt lat="46.29659" lon="-0.35877">
        <ele>56.9121</ele>
        <time>2011-07-03T12:42:36Z</time>
      </trkpt>
      <trkpt lat="46.29658" lon="-0.35879">
        <ele>56.8933</ele>
        <time>2011-07-03T12:42:37Z</time>
      </trkpt>
      <trkpt lat="46.29658" lon="-0.3588">
        <ele>56.8749</ele>
        <time>2011-07-03T12:42:38Z</time>
      </trkpt>
      <trkpt lat="46.29658" lon="-0.35882">
        <ele>56.8554</ele>
        <time>2011-07-03T12:42:39Z</time>
      </trkpt>
      <trkpt lat="46.29658" lon="-0.35884">
        <ele>56.8364</ele>
        <time>2011-07-03T12:42:40Z</time>
      </trkpt>
      <trkpt lat="46.29658" lon="-0.35886">
        <ele>56.8173</ele>
        <time>2011-07-03T12:42:41Z</time>
      </trkpt>
      <trkpt lat="46.29658" lon="-0.35888">
        <ele>56.7913</ele>
        <time>2011-07-03T12:42:42Z</time>
      </trkpt>
      <trkpt lat="46.29658" lon="-0.3589">
        <ele>56.769</ele>
        <time>2011-07-03T12:42:43Z</time>
      </trkpt>
      <trkpt lat="46.29657" lon="-0.35892">
        <ele>56.7473</ele>
        <time>2011-07-03T12:42:44Z</time>
      </trkpt>
      <trkpt lat="46.29657" lon="-0.35895">
        <ele>56.7255</ele>
        <time>2011-07-03T12:42:45Z</time>
      </trkpt>
      <trkpt lat="46.29656" lon="-0.35897">
        <ele>56.7035</ele>
        <time>2011-07-03T12:42:46Z</time>
      </trkpt>
      <trkpt lat="46.29656" lon="-0.35899">
        <ele>56.682</ele>
        <time>2011-07-03T12:42:47Z</time>
      </trkpt>
      <trkpt lat="46.29656" lon="-0.35901">
        <ele>56.6602</ele>
        <time>2011-07-03T12:42:48Z</time>
      </trkpt>
      <trkpt lat="46.29655" lon="-0.35902">
        <ele>56.6402</ele>
        <time>2011-07-03T12:42:49Z</time>
      </trkpt>
      <trkpt lat="46.29655" lon="-0.35904">
        <ele>56.6191</ele>
        <time>2011-07-03T12:42:50Z</time>
      </trkpt>
      <trkpt lat="46.29655" lon="-0.35906">
        <ele>56.5979</ele>
        <time>2011-07-03T12:42:51Z</time>
      </trkpt>
      <trkpt lat="46.29655" lon="-0.35908">
        <ele>56.5778</ele>
        <time>2011-07-03T12:42:52Z</time>
      </trkpt>
      <trkpt lat="46.29655" lon="-0.3591">
        <ele>56.5585</ele>
        <time>2011-07-03T12:42:53Z</time>
      </trkpt>
      <trkpt lat="46.29655" lon="-0.35912">
        <ele>56.539</ele>
        <time>2011-07-03T12:42:54Z</time>
      </trkpt>
      <trkpt lat="46.29655" lon="-0.35913">
        <ele>56.5179</ele>
        <time>2011-07-03T12:42:55Z</time>
      </trkpt>
      <trkpt lat="46.29655" lon="-0.35915">
        <ele>56.4967</ele>
        <time>2011-07-03T12:42:56Z</time>
      </trkpt>
      <trkpt lat="46.29656" lon="-0.35917">
        <ele>56.4737</ele>
        <time>2011-07-03T12:42:57Z</time>
      </trkpt>
      <trkpt lat="46.29656" lon="-0.35918">
        <ele>56.4508</ele>
        <time>2011-07-03T12:42:58Z</time>
      </trkpt>
      <trkpt lat="46.29656" lon="-0.3592">
        <ele>56.4288</ele>
        <time>2011-07-03T12:42:59Z</time>
      </trkpt>
      <trkpt lat="46.29655" lon="-0.35922">
        <ele>56.4103</ele>
        <time>2011-07-03T12:43:00Z</time>
      </trkpt>
      <trkpt lat="46.29656" lon="-0.35923">
        <ele>56.3952</ele>
        <time>2011-07-03T12:43:01Z</time>
      </trkpt>
      <trkpt lat="46.29656" lon="-0.35925">
        <ele>56.3798</ele>
        <time>2011-07-03T12:43:02Z</time>
      </trkpt>
      <trkpt lat="46.29656" lon="-0.35926">
        <ele>56.3601</ele>
        <time>2011-07-03T12:43:03Z</time>
      </trkpt>
      <trkpt lat="46.29655" lon="-0.35928">
        <ele>56.3429</ele>
        <time>2011-07-03T12:43:04Z</time>
      </trkpt>
      <trkpt lat="46.29654" lon="-0.35929">
        <ele>56.3199</ele>
        <time>2011-07-03T12:43:05Z</time>
      </trkpt>
      <trkpt lat="46.29654" lon="-0.35931">
        <ele>56.2915</ele>
        <time>2011-07-03T12:43:06Z</time>
      </trkpt>
      <trkpt lat="46.29654" lon="-0.35933">
        <ele>56.2604</ele>
        <time>2011-07-03T12:43:07Z</time>
      </trkpt>
      <trkpt lat="46.29653" lon="-0.35935">
        <ele>56.2312</ele>
        <time>2011-07-03T12:43:08Z</time>
      </trkpt>
      <trkpt lat="46.29652" lon="-0.35937">
        <ele>56.1987</ele>
        <time>2011-07-03T12:43:09Z</time>
      </trkpt>
      <trkpt lat="46.29652" lon="-0.35939">
        <ele>56.1669</ele>
        <time>2011-07-03T12:43:10Z</time>
      </trkpt>
      <trkpt lat="46.29652" lon="-0.35941">
        <ele>56.131</ele>
        <time>2011-07-03T12:43:11Z</time>
      </trkpt>
      <trkpt lat="46.29652" lon="-0.35943">
        <ele>56.0914</ele>
        <time>2011-07-03T12:43:12Z</time>
      </trkpt>
      <trkpt lat="46.29652" lon="-0.35945">
        <ele>56.0482</ele>
        <time>2011-07-03T12:43:13Z</time>
      </trkpt>
      <trkpt lat="46.29652" lon="-0.35947">
        <ele>56.0053</ele>
        <time>2011-07-03T12:43:14Z</time>
      </trkpt>
      <trkpt lat="46.29652" lon="-0.35949">
        <ele>55.9624</ele>
        <time>2011-07-03T12:43:15Z</time>
      </trkpt>
      <trkpt lat="46.29652" lon="-0.35951">
        <ele>55.9177</ele>
        <time>2011-07-03T12:43:16Z</time>
      </trkpt>
      <trkpt lat="46.29652" lon="-0.35953">
        <ele>55.8747</ele>
        <time>2011-07-03T12:43:17Z</time>
      </trkpt>
      <trkpt lat="46.29652" lon="-0.35955">
        <ele>55.8335</ele>
        <time>2011-07-03T12:43:18Z</time>
      </trkpt>
      <trkpt lat="46.29651" lon="-0.35958">
        <ele>55.7933</ele>
        <time>2011-07-03T12:43:19Z</time>
      </trkpt>
      <trkpt lat="46.29651" lon="-0.35961">
        <ele>55.7543</ele>
        <time>2011-07-03T12:43:20Z</time>
      </trkpt>
      <trkpt lat="46.29651" lon="-0.35963">
        <ele>55.7142</ele>
        <time>2011-07-03T12:43:21Z</time>
      </trkpt>
      <trkpt lat="46.29651" lon="-0.35965">
        <ele>55.6746</ele>
        <time>2011-07-03T12:43:22Z</time>
      </trkpt>
      <trkpt lat="46.29651" lon="-0.35967">
        <ele>55.6362</ele>
        <time>2011-07-03T12:43:23Z</time>
      </trkpt>
      <trkpt lat="46.29651" lon="-0.35969">
        <ele>55.6005</ele>
        <time>2011-07-03T12:43:24Z</time>
      </trkpt>
      <trkpt lat="46.29651" lon="-0.35971">
        <ele>55.566</ele>
        <time>2011-07-03T12:43:25Z</time>
      </trkpt>
      <trkpt lat="46.2965" lon="-0.35972">
        <ele>55.5335</ele>
        <time>2011-07-03T12:43:26Z</time>
      </trkpt>
      <trkpt lat="46.2965" lon="-0.35974">
        <ele>55.5007</ele>
        <time>2011-07-03T12:43:27Z</time>
      </trkpt>
      <trkpt lat="46.2965" lon="-0.35976">
        <ele>55.4662</ele>
        <time>2011-07-03T12:43:28Z</time>
      </trkpt>
      <trkpt lat="46.29649" lon="-0.35977">
        <ele>55.431</ele>
        <time>2011-07-03T12:43:29Z</time>
      </trkpt>
      <trkpt lat="46.29649" lon="-0.35979">
        <ele>55.3969</ele>
        <time>2011-07-03T12:43:30Z</time>
      </trkpt>
      <trkpt lat="46.29649" lon="-0.35981">
        <ele>55.3648</ele>
        <time>2011-07-03T12:43:31Z</time>
      </trkpt>
      <trkpt lat="46.29649" lon="-0.35983">
        <ele>55.3357</ele>
        <time>2011-07-03T12:43:32Z</time>
      </trkpt>
      <trkpt lat="46.29649" lon="-0.35985">
        <ele>55.3067</ele>
        <time>2011-07-03T12:43:33Z</time>
      </trkpt>
      <trkpt lat="46.2965" lon="-0.35986">
        <ele>55.2758</ele>
        <time>2011-07-03T12:43:34Z</time>
      </trkpt>
      <trkpt lat="46.2965" lon="-0.35988">
        <ele>55.2456</ele>
        <time>2011-07-03T12:43:35Z</time>
      </trkpt>
      <trkpt lat="46.2965" lon="-0.35989">
        <ele>55.2161</ele>
        <time>2011-07-03T12:43:36Z</time>
      </trkpt>
      <trkpt lat="46.2965" lon="-0.3599">
        <ele>55.1907</ele>
        <time>2011-07-03T12:43:37Z</time>
      </trkpt>
      <trkpt lat="46.2965" lon="-0.35992">
        <ele>55.1661</ele>
        <time>2011-07-03T12:43:38Z</time>
      </trkpt>
      <trkpt lat="46.2965" lon="-0.35994">
        <ele>55.1363</ele>
        <time>2011-07-03T12:43:39Z</time>
      </trkpt>
      <trkpt lat="46.2965" lon="-0.35996">
        <ele>55.0958</ele>
        <time>2011-07-03T12:43:40Z</time>
      </trkpt>
      <trkpt lat="46.29649" lon="-0.35998">
        <ele>55.0556</ele>
        <time>2011-07-03T12:43:41Z</time>
      </trkpt>
      <trkpt lat="46.29649" lon="-0.36">
        <ele>55.0218</ele>
        <time>2011-07-03T12:43:42Z</time>
      </trkpt>
      <trkpt lat="46.29648" lon="-0.36002">
        <ele>54.9891</ele>
        <time>2011-07-03T12:43:43Z</time>
      </trkpt>
      <trkpt lat="46.29647" lon="-0.36004">
        <ele>54.9674</ele>
        <time>2011-07-03T12:43:44Z</time>
      </trkpt>
      <trkpt lat="46.29647" lon="-0.36005">
        <ele>54.9458</ele>
        <time>2011-07-03T12:43:45Z</time>
      </trkpt>
      <trkpt lat="46.29646" lon="-0.36007">
        <ele>54.9347</ele>
        <time>2011-07-03T12:43:46Z</time>
      </trkpt>
      <trkpt lat="46.29646" lon="-0.36009">
        <ele>54.9373</ele>
        <time>2011-07-03T12:43:47Z</time>
      </trkpt>
      <trkpt lat="46.29646" lon="-0.36011">
        <ele>54.9546</ele>
        <time>2011-07-03T12:43:48Z</time>
      </trkpt>
      <trkpt lat="46.29646" lon="-0.36013">
        <ele>54.9806</ele>
        <time>2011-07-03T12:43:49Z</time>
      </trkpt>
      <trkpt lat="46.29645" lon="-0.36015">
        <ele>55.0109</ele>
        <time>2011-07-03T12:43:50Z</time>
      </trkpt>
      <trkpt lat="46.29645" lon="-0.36016">
        <ele>55.0425</ele>
        <time>2011-07-03T12:43:51Z</time>
      </trkpt>
      <trkpt lat="46.29645" lon="-0.36018">
        <ele>55.0731</ele>
        <time>2011-07-03T12:43:52Z</time>
      </trkpt>
      <trkpt lat="46.29644" lon="-0.3602">
        <ele>55.1051</ele>
        <time>2011-07-03T12:43:53Z</time>
      </trkpt>
      <trkpt lat="46.29644" lon="-0.36022">
        <ele>55.1347</ele>
        <time>2011-07-03T12:43:54Z</time>
      </trkpt>
      <trkpt lat="46.29644" lon="-0.36024">
        <ele>55.1635</ele>
        <time>2011-07-03T12:43:55Z</time>
      </trkpt>
      <trkpt lat="46.29644" lon="-0.36026">
        <ele>55.1909</ele>
        <time>2011-07-03T12:43:56Z</time>
      </trkpt>
      <trkpt lat="46.29644" lon="-0.36028">
        <ele>55.2171</ele>
        <time>2011-07-03T12:43:57Z</time>
      </trkpt>
      <trkpt lat="46.29644" lon="-0.3603">
        <ele>55.242</ele>
        <time>2011-07-03T12:43:58Z</time>
      </trkpt>
      <trkpt lat="46.29644" lon="-0.36032">
        <ele>55.2666</ele>
        <time>2011-07-03T12:43:59Z</time>
      </trkpt>
      <trkpt lat="46.29643" lon="-0.36034">
        <ele>55.2926</ele>
        <time>2011-07-03T12:44:00Z</time>
      </trkpt>
      <trkpt lat="46.29643" lon="-0.36036">
        <ele>55.3199</ele>
        <time>2011-07-03T12:44:01Z</time>
      </trkpt>
      <trkpt lat="46.29643" lon="-0.36039">
        <ele>55.3464</ele>
        <time>2011-07-03T12:44:02Z</time>
      </trkpt>
      <trkpt lat="46.29643" lon="-0.36041">
        <ele>55.3633</ele>
        <time>2011-07-03T12:44:03Z</time>
      </trkpt>
      <trkpt lat="46.29643" lon="-0.36043">
        <ele>55.379</ele>
        <time>2011-07-03T12:44:04Z</time>
      </trkpt>
      <trkpt lat="46.29643" lon="-0.36045">
        <ele>55.3876</ele>
        <time>2011-07-03T12:44:05Z</time>
      </trkpt>
      <trkpt lat="46.29643" lon="-0.36047">
        <ele>55.3948</ele>
        <time>2011-07-03T12:44:06Z</time>
      </trkpt>
      <trkpt lat="46.29643" lon="-0.36049">
        <ele>55.3978</ele>
        <time>2011-07-03T12:44:07Z</time>
      </trkpt>
      <trkpt lat="46.29643" lon="-0.3605">
        <ele>55.3999</ele>
        <time>2011-07-03T12:44:08Z</time>
      </trkpt>
      <trkpt lat="46.29643" lon="-0.36052">
        <ele>55.398</ele>
        <time>2011-07-03T12:44:09Z</time>
      </trkpt>
      <trkpt lat="46.29643" lon="-0.36054">
        <ele>55.3973</ele>
        <time>2011-07-03T12:44:10Z</time>
      </trkpt>
      <trkpt lat="46.29643" lon="-0.36056">
        <ele>55.4002</ele>
        <time>2011-07-03T12:44:11Z</time>
      </trkpt>
      <trkpt lat="46.29643" lon="-0.36058">
        <ele>55.4032</ele>
        <time>2011-07-03T12:44:12Z</time>
      </trkpt>
      <trkpt lat="46.29643" lon="-0.3606">
        <ele>55.408</ele>
        <time>2011-07-03T12:44:13Z</time>
      </trkpt>
      <trkpt lat="46.29643" lon="-0.36062">
        <ele>55.4123</ele>
        <time>2011-07-03T12:44:14Z</time>
      </trkpt>
      <trkpt lat="46.29643" lon="-0.36064">
        <ele>55.419</ele>
        <time>2011-07-03T12:44:15Z</time>
      </trkpt>
      <trkpt lat="46.29642" lon="-0.36066">
        <ele>55.4248</ele>
        <time>2011-07-03T12:44:16Z</time>
      </trkpt>
      <trkpt lat="46.29642" lon="-0.36069">
        <ele>55.4291</ele>
        <time>2011-07-03T12:44:17Z</time>
      </trkpt>
      <trkpt lat="46.29642" lon="-0.36071">
        <ele>55.4369</ele>
        <time>2011-07-03T12:44:18Z</time>
      </trkpt>
      <trkpt lat="46.29641" lon="-0.36073">
        <ele>55.4444</ele>
        <time>2011-07-03T12:44:19Z</time>
      </trkpt>
      <trkpt lat="46.29641" lon="-0.36075">
        <ele>55.4513</ele>
        <time>2011-07-03T12:44:20Z</time>
      </trkpt>
      <trkpt lat="46.29641" lon="-0.36077">
        <ele>55.4569</ele>
        <time>2011-07-03T12:44:21Z</time>
      </trkpt>
      <trkpt lat="46.29641" lon="-0.36079">
        <ele>55.4603</ele>
        <time>2011-07-03T12:44:22Z</time>
      </trkpt>
      <trkpt lat="46.29641" lon="-0.36081">
        <ele>55.4624</ele>
        <time>2011-07-03T12:44:23Z</time>
      </trkpt>
      <trkpt lat="46.29641" lon="-0.36082">
        <ele>55.4611</ele>
        <time>2011-07-03T12:44:24Z</time>
      </trkpt>
      <trkpt lat="46.29641" lon="-0.36084">
        <ele>55.4594</ele>
        <time>2011-07-03T12:44:25Z</time>
      </trkpt>
      <trkpt lat="46.29641" lon="-0.36086">
        <ele>55.4565</ele>
        <time>2011-07-03T12:44:26Z</time>
      </trkpt>
      <trkpt lat="46.29641" lon="-0.36088">
        <ele>55.451</ele>
        <time>2011-07-03T12:44:27Z</time>
      </trkpt>
      <trkpt lat="46.29641" lon="-0.36089">
        <ele>55.4435</ele>
        <time>2011-07-03T12:44:28Z</time>
      </trkpt>
      <trkpt lat="46.29641" lon="-0.36091">
        <ele>55.4321</ele>
        <time>2011-07-03T12:44:29Z</time>
      </trkpt>
      <trkpt lat="46.29641" lon="-0.36093">
        <ele>55.4198</ele>
        <time>2011-07-03T12:44:30Z</time>
      </trkpt>
      <trkpt lat="46.2964" lon="-0.36094">
        <ele>55.4087</ele>
        <time>2011-07-03T12:44:31Z</time>
      </trkpt>
      <trkpt lat="46.2964" lon="-0.36096">
        <ele>55.3972</ele>
        <time>2011-07-03T12:44:32Z</time>
      </trkpt>
      <trkpt lat="46.2964" lon="-0.36098">
        <ele>55.3855</ele>
        <time>2011-07-03T12:44:33Z</time>
      </trkpt>
      <trkpt lat="46.2964" lon="-0.361">
        <ele>55.3731</ele>
        <time>2011-07-03T12:44:34Z</time>
      </trkpt>
      <trkpt lat="46.2964" lon="-0.36102">
        <ele>55.3604</ele>
        <time>2011-07-03T12:44:35Z</time>
      </trkpt>
      <trkpt lat="46.2964" lon="-0.36104">
        <ele>55.3472</ele>
        <time>2011-07-03T12:44:36Z</time>
      </trkpt>
      <trkpt lat="46.29639" lon="-0.36106">
        <ele>55.3332</ele>
        <time>2011-07-03T12:44:37Z</time>
      </trkpt>
      <trkpt lat="46.29639" lon="-0.36107">
        <ele>55.3215</ele>
        <time>2011-07-03T12:44:38Z</time>
      </trkpt>
      <trkpt lat="46.29639" lon="-0.36109">
        <ele>55.3088</ele>
        <time>2011-07-03T12:44:39Z</time>
      </trkpt>
      <trkpt lat="46.29639" lon="-0.36111">
        <ele>55.2948</ele>
        <time>2011-07-03T12:44:40Z</time>
      </trkpt>
      <trkpt lat="46.29639" lon="-0.36113">
        <ele>55.2802</ele>
        <time>2011-07-03T12:44:41Z</time>
      </trkpt>
      <trkpt lat="46.29639" lon="-0.36115">
        <ele>55.2643</ele>
        <time>2011-07-03T12:44:42Z</time>
      </trkpt>
      <trkpt lat="46.29638" lon="-0.36117">
        <ele>55.2496</ele>
        <time>2011-07-03T12:44:43Z</time>
      </trkpt>
      <trkpt lat="46.29638" lon="-0.36119">
        <ele>55.2343</ele>
        <time>2011-07-03T12:44:44Z</time>
      </trkpt>
      <trkpt lat="46.29638" lon="-0.36121">
        <ele>55.2161</ele>
        <time>2011-07-03T12:44:45Z</time>
      </trkpt>
      <trkpt lat="46.29638" lon="-0.36122">
        <ele>55.1991</ele>
        <time>2011-07-03T12:44:46Z</time>
      </trkpt>
      <trkpt lat="46.29637" lon="-0.36124">
        <ele>55.1824</ele>
        <time>2011-07-03T12:44:47Z</time>
      </trkpt>
      <trkpt lat="46.29637" lon="-0.36126">
        <ele>55.1649</ele>
        <time>2011-07-03T12:44:48Z</time>
      </trkpt>
      <trkpt lat="46.29637" lon="-0.36128">
        <ele>55.1489</ele>
        <time>2011-07-03T12:44:49Z</time>
      </trkpt>
      <trkpt lat="46.29637" lon="-0.36131">
        <ele>55.1299</ele>
        <time>2011-07-03T12:44:50Z</time>
      </trkpt>
      <trkpt lat="46.29637" lon="-0.36133">
        <ele>55.1103</ele>
        <time>2011-07-03T12:44:51Z</time>
      </trkpt>
      <trkpt lat="46.29637" lon="-0.36135">
        <ele>55.0974</ele>
        <time>2011-07-03T12:44:52Z</time>
      </trkpt>
      <trkpt lat="46.29637" lon="-0.36136">
        <ele>55.0852</ele>
        <time>2011-07-03T12:44:53Z</time>
      </trkpt>
      <trkpt lat="46.29637" lon="-0.36138">
        <ele>55.0739</ele>
        <time>2011-07-03T12:44:54Z</time>
      </trkpt>
      <trkpt lat="46.29637" lon="-0.3614">
        <ele>55.0619</ele>
        <time>2011-07-03T12:44:55Z</time>
      </trkpt>
      <trkpt lat="46.29637" lon="-0.36141">
        <ele>55.0503</ele>
        <time>2011-07-03T12:44:56Z</time>
      </trkpt>
      <trkpt lat="46.29637" lon="-0.36143">
        <ele>55.0381</ele>
        <time>2011-07-03T12:44:57Z</time>
      </trkpt>
      <trkpt lat="46.29636" lon="-0.36145">
        <ele>55.0294</ele>
        <time>2011-07-03T12:44:58Z</time>
      </trkpt>
      <trkpt lat="46.29636" lon="-0.36147">
        <ele>55.0249</ele>
        <time>2011-07-03T12:44:59Z</time>
      </trkpt>
      <trkpt lat="46.29636" lon="-0.36149">
        <ele>55.0198</ele>
        <time>2011-07-03T12:45:00Z</time>
      </trkpt>
      <trkpt lat="46.29635" lon="-0.3615">
        <ele>55.0133</ele>
        <time>2011-07-03T12:45:01Z</time>
      </trkpt>
      <trkpt lat="46.29635" lon="-0.36153">
        <ele>55.0036</ele>
        <time>2011-07-03T12:45:02Z</time>
      </trkpt>
      <trkpt lat="46.29634" lon="-0.36155">
        <ele>54.991</ele>
        <time>2011-07-03T12:45:03Z</time>
      </trkpt>
      <trkpt lat="46.29634" lon="-0.36157">
        <ele>54.9788</ele>
        <time>2011-07-03T12:45:04Z</time>
      </trkpt>
      <trkpt lat="46.29633" lon="-0.36159">
        <ele>54.9666</ele>
        <time>2011-07-03T12:45:05Z</time>
      </trkpt>
      <trkpt lat="46.29633" lon="-0.36161">
        <ele>54.9561</ele>
        <time>2011-07-03T12:45:06Z</time>
      </trkpt>
      <trkpt lat="46.29633" lon="-0.36162">
        <ele>54.9439</ele>
        <time>2011-07-03T12:45:07Z</time>
      </trkpt>
      <trkpt lat="46.29633" lon="-0.36164">
        <ele>54.9296</ele>
        <time>2011-07-03T12:45:08Z</time>
      </trkpt>
      <trkpt lat="46.29633" lon="-0.36166">
        <ele>54.9159</ele>
        <time>2011-07-03T12:45:09Z</time>
      </trkpt>
      <trkpt lat="46.29633" lon="-0.36169">
        <ele>54.918</ele>
        <time>2011-07-03T12:45:10Z</time>
      </trkpt>
      <trkpt lat="46.29632" lon="-0.36171">
        <ele>54.9331</ele>
        <time>2011-07-03T12:45:11Z</time>
      </trkpt>
      <trkpt lat="46.29631" lon="-0.36174">
        <ele>54.9579</ele>
        <time>2011-07-03T12:45:12Z</time>
      </trkpt>
      <trkpt lat="46.2963" lon="-0.36176">
        <ele>54.9896</ele>
        <time>2011-07-03T12:45:13Z</time>
      </trkpt>
      <trkpt lat="46.29628" lon="-0.36178">
        <ele>55.0246</ele>
        <time>2011-07-03T12:45:14Z</time>
      </trkpt>
      <trkpt lat="46.29628" lon="-0.3618">
        <ele>55.0612</ele>
        <time>2011-07-03T12:45:15Z</time>
      </trkpt>
      <trkpt lat="46.29627" lon="-0.36182">
        <ele>55.1031</ele>
        <time>2011-07-03T12:45:16Z</time>
      </trkpt>
      <trkpt lat="46.29627" lon="-0.36184">
        <ele>55.1512</ele>
        <time>2011-07-03T12:45:17Z</time>
      </trkpt>
      <trkpt lat="46.29626" lon="-0.36186">
        <ele>55.2035</ele>
        <time>2011-07-03T12:45:18Z</time>
      </trkpt>
      <trkpt lat="46.29626" lon="-0.36188">
        <ele>55.2603</ele>
        <time>2011-07-03T12:45:19Z</time>
      </trkpt>
      <trkpt lat="46.29626" lon="-0.3619">
        <ele>55.3213</ele>
        <time>2011-07-03T12:45:20Z</time>
      </trkpt>
      <trkpt lat="46.29626" lon="-0.36192">
        <ele>55.3853</ele>
        <time>2011-07-03T12:45:21Z</time>
      </trkpt>
      <trkpt lat="46.29625" lon="-0.36194">
        <ele>55.4491</ele>
        <time>2011-07-03T12:45:22Z</time>
      </trkpt>
      <trkpt lat="46.29625" lon="-0.36196">
        <ele>55.5124</ele>
        <time>2011-07-03T12:45:23Z</time>
      </trkpt>
      <trkpt lat="46.29625" lon="-0.36197">
        <ele>55.5754</ele>
        <time>2011-07-03T12:45:24Z</time>
      </trkpt>
      <trkpt lat="46.29625" lon="-0.36199">
        <ele>55.6358</ele>
        <time>2011-07-03T12:45:25Z</time>
      </trkpt>
      <trkpt lat="46.29625" lon="-0.36201">
        <ele>55.6936</ele>
        <time>2011-07-03T12:45:26Z</time>
      </trkpt>
      <trkpt lat="46.29625" lon="-0.36204">
        <ele>55.7482</ele>
        <time>2011-07-03T12:45:27Z</time>
      </trkpt>
      <trkpt lat="46.29625" lon="-0.36206">
        <ele>55.8013</ele>
        <time>2011-07-03T12:45:28Z</time>
      </trkpt>
      <trkpt lat="46.29625" lon="-0.36208">
        <ele>55.851</ele>
        <time>2011-07-03T12:45:29Z</time>
      </trkpt>
      <trkpt lat="46.29625" lon="-0.3621">
        <ele>55.9007</ele>
        <time>2011-07-03T12:45:30Z</time>
      </trkpt>
      <trkpt lat="46.29625" lon="-0.36212">
        <ele>55.9523</ele>
        <time>2011-07-03T12:45:31Z</time>
      </trkpt>
      <trkpt lat="46.29624" lon="-0.36214">
        <ele>56.0031</ele>
        <time>2011-07-03T12:45:32Z</time>
      </trkpt>
      <trkpt lat="46.29624" lon="-0.36216">
        <ele>56.0512</ele>
        <time>2011-07-03T12:45:33Z</time>
      </trkpt>
      <trkpt lat="46.29625" lon="-0.36217">
        <ele>56.2106</ele>
        <time>2011-07-03T12:45:34Z</time>
      </trkpt>
      <trkpt lat="46.29624" lon="-0.3622">
        <ele>56.3342</ele>
        <time>2011-07-03T12:45:35Z</time>
      </trkpt>
      <trkpt lat="46.29623" lon="-0.36222">
        <ele>56.4293</ele>
        <time>2011-07-03T12:45:36Z</time>
      </trkpt>
      <trkpt lat="46.29623" lon="-0.36223">
        <ele>56.519</ele>
        <time>2011-07-03T12:45:37Z</time>
      </trkpt>
      <trkpt lat="46.29624" lon="-0.36225">
        <ele>56.5975</ele>
        <time>2011-07-03T12:45:38Z</time>
      </trkpt>
      <trkpt lat="46.29623" lon="-0.36227">
        <ele>56.6735</ele>
        <time>2011-07-03T12:45:39Z</time>
      </trkpt>
      <trkpt lat="46.29623" lon="-0.36229">
        <ele>56.7401</ele>
        <time>2011-07-03T12:45:40Z</time>
      </trkpt>
      <trkpt lat="46.29623" lon="-0.3623">
        <ele>56.8244</ele>
        <time>2011-07-03T12:45:41Z</time>
      </trkpt>
      <trkpt lat="46.29623" lon="-0.36232">
        <ele>56.8996</ele>
        <time>2011-07-03T12:45:42Z</time>
      </trkpt>
      <trkpt lat="46.29623" lon="-0.36234">
        <ele>56.9608</ele>
        <time>2011-07-03T12:45:43Z</time>
      </trkpt>
      <trkpt lat="46.29623" lon="-0.36236">
        <ele>57.0124</ele>
        <time>2011-07-03T12:45:44Z</time>
      </trkpt>
      <trkpt lat="46.29622" lon="-0.36238">
        <ele>57.0504</ele>
        <time>2011-07-03T12:45:45Z</time>
      </trkpt>
      <trkpt lat="46.29622" lon="-0.3624">
        <ele>57.0797</ele>
        <time>2011-07-03T12:45:46Z</time>
      </trkpt>
      <trkpt lat="46.29622" lon="-0.36242">
        <ele>57.1065</ele>
        <time>2011-07-03T12:45:47Z</time>
      </trkpt>
      <trkpt lat="46.29622" lon="-0.36244">
        <ele>57.1338</ele>
        <time>2011-07-03T12:45:48Z</time>
      </trkpt>
      <trkpt lat="46.29622" lon="-0.36246">
        <ele>57.1632</ele>
        <time>2011-07-03T12:45:49Z</time>
      </trkpt>
      <trkpt lat="46.29622" lon="-0.36247">
        <ele>57.1889</ele>
        <time>2011-07-03T12:45:50Z</time>
      </trkpt>
      <trkpt lat="46.29621" lon="-0.36249">
        <ele>57.2111</ele>
        <time>2011-07-03T12:45:51Z</time>
      </trkpt>
      <trkpt lat="46.29621" lon="-0.36251">
        <ele>57.2353</ele>
        <time>2011-07-03T12:45:52Z</time>
      </trkpt>
      <trkpt lat="46.29621" lon="-0.36252">
        <ele>57.2578</ele>
        <time>2011-07-03T12:45:53Z</time>
      </trkpt>
      <trkpt lat="46.29621" lon="-0.36254">
        <ele>57.2803</ele>
        <time>2011-07-03T12:45:54Z</time>
      </trkpt>
      <trkpt lat="46.2962" lon="-0.36256">
        <ele>57.3002</ele>
        <time>2011-07-03T12:45:55Z</time>
      </trkpt>
      <trkpt lat="46.2962" lon="-0.36258">
        <ele>57.3168</ele>
        <time>2011-07-03T12:45:56Z</time>
      </trkpt>
      <trkpt lat="46.29619" lon="-0.36259">
        <ele>57.3216</ele>
        <time>2011-07-03T12:45:57Z</time>
      </trkpt>
      <trkpt lat="46.29619" lon="-0.36261">
        <ele>57.321</ele>
        <time>2011-07-03T12:45:58Z</time>
      </trkpt>
      <trkpt lat="46.29619" lon="-0.36263">
        <ele>57.3117</ele>
        <time>2011-07-03T12:45:59Z</time>
      </trkpt>
      <trkpt lat="46.29619" lon="-0.36265">
        <ele>57.2977</ele>
        <time>2011-07-03T12:46:00Z</time>
      </trkpt>
      <trkpt lat="46.29618" lon="-0.36266">
        <ele>57.2785</ele>
        <time>2011-07-03T12:46:01Z</time>
      </trkpt>
      <trkpt lat="46.29618" lon="-0.36268">
        <ele>57.2598</ele>
        <time>2011-07-03T12:46:02Z</time>
      </trkpt>
      <trkpt lat="46.29618" lon="-0.3627">
        <ele>57.2341</ele>
        <time>2011-07-03T12:46:03Z</time>
      </trkpt>
      <trkpt lat="46.29617" lon="-0.36271">
        <ele>57.201</ele>
        <time>2011-07-03T12:46:04Z</time>
      </trkpt>
      <trkpt lat="46.29617" lon="-0.36273">
        <ele>57.1595</ele>
        <time>2011-07-03T12:46:05Z</time>
      </trkpt>
      <trkpt lat="46.29617" lon="-0.36274">
        <ele>57.1115</ele>
        <time>2011-07-03T12:46:06Z</time>
      </trkpt>
      <trkpt lat="46.29616" lon="-0.36276">
        <ele>57.0584</ele>
        <time>2011-07-03T12:46:07Z</time>
      </trkpt>
      <trkpt lat="46.29616" lon="-0.36278">
        <ele>57.0099</ele>
        <time>2011-07-03T12:46:08Z</time>
      </trkpt>
      <trkpt lat="46.29616" lon="-0.3628">
        <ele>56.9628</ele>
        <time>2011-07-03T12:46:09Z</time>
      </trkpt>
      <trkpt lat="46.29616" lon="-0.36282">
        <ele>56.9177</ele>
        <time>2011-07-03T12:46:10Z</time>
      </trkpt>
      <trkpt lat="46.29616" lon="-0.36284">
        <ele>56.8738</ele>
        <time>2011-07-03T12:46:11Z</time>
      </trkpt>
      <trkpt lat="46.29616" lon="-0.36286">
        <ele>56.8342</ele>
        <time>2011-07-03T12:46:12Z</time>
      </trkpt>
      <trkpt lat="46.29615" lon="-0.36288">
        <ele>56.7958</ele>
        <time>2011-07-03T12:46:13Z</time>
      </trkpt>
      <trkpt lat="46.29615" lon="-0.3629">
        <ele>56.7559</ele>
        <time>2011-07-03T12:46:14Z</time>
      </trkpt>
      <trkpt lat="46.29615" lon="-0.36292">
        <ele>56.7185</ele>
        <time>2011-07-03T12:46:15Z</time>
      </trkpt>
      <trkpt lat="46.29614" lon="-0.36294">
        <ele>56.6837</ele>
        <time>2011-07-03T12:46:16Z</time>
      </trkpt>
      <trkpt lat="46.29614" lon="-0.36296">
        <ele>56.6456</ele>
        <time>2011-07-03T12:46:17Z</time>
      </trkpt>
      <trkpt lat="46.29614" lon="-0.36298">
        <ele>56.6079</ele>
        <time>2011-07-03T12:46:18Z</time>
      </trkpt>
      <trkpt lat="46.29614" lon="-0.363">
        <ele>56.5716</ele>
        <time>2011-07-03T12:46:19Z</time>
      </trkpt>
      <trkpt lat="46.29614" lon="-0.36302">
        <ele>56.5394</ele>
        <time>2011-07-03T12:46:20Z</time>
      </trkpt>
      <trkpt lat="46.29614" lon="-0.36304">
        <ele>56.5177</ele>
        <time>2011-07-03T12:46:21Z</time>
      </trkpt>
      <trkpt lat="46.29615" lon="-0.36306">
        <ele>56.5067</ele>
        <time>2011-07-03T12:46:22Z</time>
      </trkpt>
      <trkpt lat="46.29615" lon="-0.36309">
        <ele>56.5051</ele>
        <time>2011-07-03T12:46:23Z</time>
      </trkpt>
      <trkpt lat="46.29615" lon="-0.36311">
        <ele>56.5105</ele>
        <time>2011-07-03T12:46:24Z</time>
      </trkpt>
      <trkpt lat="46.29615" lon="-0.36313">
        <ele>56.5195</ele>
        <time>2011-07-03T12:46:25Z</time>
      </trkpt>
      <trkpt lat="46.29615" lon="-0.36315">
        <ele>56.5298</ele>
        <time>2011-07-03T12:46:26Z</time>
      </trkpt>
      <trkpt lat="46.29615" lon="-0.36317">
        <ele>56.5445</ele>
        <time>2011-07-03T12:46:27Z</time>
      </trkpt>
      <trkpt lat="46.29615" lon="-0.36319">
        <ele>56.5609</ele>
        <time>2011-07-03T12:46:28Z</time>
      </trkpt>
      <trkpt lat="46.29615" lon="-0.36322">
        <ele>56.5799</ele>
        <time>2011-07-03T12:46:29Z</time>
      </trkpt>
      <trkpt lat="46.29615" lon="-0.36323">
        <ele>56.6025</ele>
        <time>2011-07-03T12:46:30Z</time>
      </trkpt>
      <trkpt lat="46.29615" lon="-0.36325">
        <ele>56.6282</ele>
        <time>2011-07-03T12:46:31Z</time>
      </trkpt>
      <trkpt lat="46.29615" lon="-0.36327">
        <ele>56.6554</ele>
        <time>2011-07-03T12:46:32Z</time>
      </trkpt>
      <trkpt lat="46.29615" lon="-0.36329">
        <ele>56.6811</ele>
        <time>2011-07-03T12:46:33Z</time>
      </trkpt>
      <trkpt lat="46.29615" lon="-0.36331">
        <ele>56.7074</ele>
        <time>2011-07-03T12:46:34Z</time>
      </trkpt>
      <trkpt lat="46.29615" lon="-0.36333">
        <ele>56.7331</ele>
        <time>2011-07-03T12:46:35Z</time>
      </trkpt>
      <trkpt lat="46.29615" lon="-0.36335">
        <ele>56.7564</ele>
        <time>2011-07-03T12:46:36Z</time>
      </trkpt>
      <trkpt lat="46.29615" lon="-0.36336">
        <ele>56.7789</ele>
        <time>2011-07-03T12:46:37Z</time>
      </trkpt>
      <trkpt lat="46.29615" lon="-0.36338">
        <ele>56.8019</ele>
        <time>2011-07-03T12:46:38Z</time>
      </trkpt>
      <trkpt lat="46.29615" lon="-0.36339">
        <ele>56.8233</ele>
        <time>2011-07-03T12:46:39Z</time>
      </trkpt>
      <trkpt lat="46.29615" lon="-0.36341">
        <ele>56.8424</ele>
        <time>2011-07-03T12:46:40Z</time>
      </trkpt>
      <trkpt lat="46.29615" lon="-0.36343">
        <ele>56.8595</ele>
        <time>2011-07-03T12:46:41Z</time>
      </trkpt>
      <trkpt lat="46.29615" lon="-0.36345">
        <ele>56.8748</ele>
        <time>2011-07-03T12:46:42Z</time>
      </trkpt>
      <trkpt lat="46.29615" lon="-0.36346">
        <ele>56.8892</ele>
        <time>2011-07-03T12:46:43Z</time>
      </trkpt>
      <trkpt lat="46.29616" lon="-0.36348">
        <ele>56.9007</ele>
        <time>2011-07-03T12:46:44Z</time>
      </trkpt>
      <trkpt lat="46.29616" lon="-0.3635">
        <ele>56.908</ele>
        <time>2011-07-03T12:46:45Z</time>
      </trkpt>
      <trkpt lat="46.29616" lon="-0.36351">
        <ele>56.9138</ele>
        <time>2011-07-03T12:46:46Z</time>
      </trkpt>
      <trkpt lat="46.29616" lon="-0.36353">
        <ele>56.9174</ele>
        <time>2011-07-03T12:46:47Z</time>
      </trkpt>
      <trkpt lat="46.29617" lon="-0.36355">
        <ele>56.9154</ele>
        <time>2011-07-03T12:46:48Z</time>
      </trkpt>
      <trkpt lat="46.29617" lon="-0.36356">
        <ele>56.9096</ele>
        <time>2011-07-03T12:46:49Z</time>
      </trkpt>
      <trkpt lat="46.29617" lon="-0.36358">
        <ele>56.8994</ele>
        <time>2011-07-03T12:46:50Z</time>
      </trkpt>
      <trkpt lat="46.29617" lon="-0.3636">
        <ele>56.8909</ele>
        <time>2011-07-03T12:46:51Z</time>
      </trkpt>
      <trkpt lat="46.29617" lon="-0.36362">
        <ele>56.8843</ele>
        <time>2011-07-03T12:46:52Z</time>
      </trkpt>
      <trkpt lat="46.29618" lon="-0.36363">
        <ele>56.8793</ele>
        <time>2011-07-03T12:46:53Z</time>
      </trkpt>
      <trkpt lat="46.29619" lon="-0.36365">
        <ele>56.8786</ele>
        <time>2011-07-03T12:46:54Z</time>
      </trkpt>
      <trkpt lat="46.29619" lon="-0.36366">
        <ele>56.8804</ele>
        <time>2011-07-03T12:46:55Z</time>
      </trkpt>
      <trkpt lat="46.29619" lon="-0.36368">
        <ele>56.8851</ele>
        <time>2011-07-03T12:46:56Z</time>
      </trkpt>
      <trkpt lat="46.2962" lon="-0.36369">
        <ele>56.8924</ele>
        <time>2011-07-03T12:46:57Z</time>
      </trkpt>
      <trkpt lat="46.2962" lon="-0.36371">
        <ele>56.9006</ele>
        <time>2011-07-03T12:46:58Z</time>
      </trkpt>
      <trkpt lat="46.2962" lon="-0.36372">
        <ele>56.9095</ele>
        <time>2011-07-03T12:46:59Z</time>
      </trkpt>
      <trkpt lat="46.2962" lon="-0.36374">
        <ele>56.9196</ele>
        <time>2011-07-03T12:47:00Z</time>
      </trkpt>
      <trkpt lat="46.29621" lon="-0.36376">
        <ele>56.9308</ele>
        <time>2011-07-03T12:47:01Z</time>
      </trkpt>
      <trkpt lat="46.29621" lon="-0.36378">
        <ele>56.9422</ele>
        <time>2011-07-03T12:47:02Z</time>
      </trkpt>
      <trkpt lat="46.29621" lon="-0.3638">
        <ele>56.9552</ele>
        <time>2011-07-03T12:47:03Z</time>
      </trkpt>
      <trkpt lat="46.29622" lon="-0.36382">
        <ele>56.9661</ele>
        <time>2011-07-03T12:47:04Z</time>
      </trkpt>
      <trkpt lat="46.29622" lon="-0.36384">
        <ele>56.9799</ele>
        <time>2011-07-03T12:47:05Z</time>
      </trkpt>
      <trkpt lat="46.29622" lon="-0.36386">
        <ele>56.9941</ele>
        <time>2011-07-03T12:47:06Z</time>
      </trkpt>
      <trkpt lat="46.29623" lon="-0.36388">
        <ele>57.0079</ele>
        <time>2011-07-03T12:47:07Z</time>
      </trkpt>
      <trkpt lat="46.29623" lon="-0.36389">
        <ele>57.0196</ele>
        <time>2011-07-03T12:47:08Z</time>
      </trkpt>
      <trkpt lat="46.29623" lon="-0.36391">
        <ele>57.0234</ele>
        <time>2011-07-03T12:47:09Z</time>
      </trkpt>
      <trkpt lat="46.29624" lon="-0.36392">
        <ele>57.0177</ele>
        <time>2011-07-03T12:47:10Z</time>
      </trkpt>
      <trkpt lat="46.29625" lon="-0.36394">
        <ele>57.0074</ele>
        <time>2011-07-03T12:47:11Z</time>
      </trkpt>
      <trkpt lat="46.29625" lon="-0.36395">
        <ele>56.9949</ele>
        <time>2011-07-03T12:47:12Z</time>
      </trkpt>
      <trkpt lat="46.29625" lon="-0.36397">
        <ele>56.9779</ele>
        <time>2011-07-03T12:47:13Z</time>
      </trkpt>
      <trkpt lat="46.29626" lon="-0.36399">
        <ele>56.9643</ele>
        <time>2011-07-03T12:47:14Z</time>
      </trkpt>
      <trkpt lat="46.29626" lon="-0.364">
        <ele>56.9452</ele>
        <time>2011-07-03T12:47:15Z</time>
      </trkpt>
      <trkpt lat="46.29627" lon="-0.36402">
        <ele>56.9273</ele>
        <time>2011-07-03T12:47:16Z</time>
      </trkpt>
      <trkpt lat="46.29627" lon="-0.36404">
        <ele>56.9095</ele>
        <time>2011-07-03T12:47:17Z</time>
      </trkpt>
      <trkpt lat="46.29628" lon="-0.36405">
        <ele>56.8918</ele>
        <time>2011-07-03T12:47:18Z</time>
      </trkpt>
      <trkpt lat="46.29628" lon="-0.36407">
        <ele>56.8738</ele>
        <time>2011-07-03T12:47:19Z</time>
      </trkpt>
      <trkpt lat="46.29628" lon="-0.36409">
        <ele>56.8563</ele>
        <time>2011-07-03T12:47:20Z</time>
      </trkpt>
      <trkpt lat="46.29628" lon="-0.36411">
        <ele>56.8384</ele>
        <time>2011-07-03T12:47:21Z</time>
      </trkpt>
      <trkpt lat="46.29629" lon="-0.36412">
        <ele>56.8215</ele>
        <time>2011-07-03T12:47:22Z</time>
      </trkpt>
      <trkpt lat="46.2963" lon="-0.36414">
        <ele>56.8042</ele>
        <time>2011-07-03T12:47:23Z</time>
      </trkpt>
      <trkpt lat="46.2963" lon="-0.36416">
        <ele>56.7855</ele>
        <time>2011-07-03T12:47:24Z</time>
      </trkpt>
      <trkpt lat="46.2963" lon="-0.36417">
        <ele>56.7675</ele>
        <time>2011-07-03T12:47:25Z</time>
      </trkpt>
      <trkpt lat="46.29631" lon="-0.36419">
        <ele>56.752</ele>
        <time>2011-07-03T12:47:26Z</time>
      </trkpt>
      <trkpt lat="46.29631" lon="-0.36421">
        <ele>56.7352</ele>
        <time>2011-07-03T12:47:27Z</time>
      </trkpt>
      <trkpt lat="46.29631" lon="-0.36423">
        <ele>56.7174</ele>
        <time>2011-07-03T12:47:28Z</time>
      </trkpt>
      <trkpt lat="46.29632" lon="-0.36425">
        <ele>56.7018</ele>
        <time>2011-07-03T12:47:29Z</time>
      </trkpt>
      <trkpt lat="46.29632" lon="-0.36426">
        <ele>56.6876</ele>
        <time>2011-07-03T12:47:30Z</time>
      </trkpt>
      <trkpt lat="46.29633" lon="-0.36428">
        <ele>56.6738</ele>
        <time>2011-07-03T12:47:31Z</time>
      </trkpt>
      <trkpt lat="46.29633" lon="-0.3643">
        <ele>56.6597</ele>
        <time>2011-07-03T12:47:32Z</time>
      </trkpt>
      <trkpt lat="46.29633" lon="-0.36432">
        <ele>56.6458</ele>
        <time>2011-07-03T12:47:33Z</time>
      </trkpt>
      <trkpt lat="46.29634" lon="-0.36433">
        <ele>56.6325</ele>
        <time>2011-07-03T12:47:34Z</time>
      </trkpt>
      <trkpt lat="46.29635" lon="-0.36435">
        <ele>56.6198</ele>
        <time>2011-07-03T12:47:35Z</time>
      </trkpt>
      <trkpt lat="46.29635" lon="-0.36436">
        <ele>56.607</ele>
        <time>2011-07-03T12:47:36Z</time>
      </trkpt>
      <trkpt lat="46.29635" lon="-0.36438">
        <ele>56.5942</ele>
        <time>2011-07-03T12:47:37Z</time>
      </trkpt>
      <trkpt lat="46.29636" lon="-0.3644">
        <ele>56.5818</ele>
        <time>2011-07-03T12:47:38Z</time>
      </trkpt>
      <trkpt lat="46.29636" lon="-0.36442">
        <ele>56.5702</ele>
        <time>2011-07-03T12:47:39Z</time>
      </trkpt>
      <trkpt lat="46.29636" lon="-0.36443">
        <ele>56.5582</ele>
        <time>2011-07-03T12:47:40Z</time>
      </trkpt>
      <trkpt lat="46.29637" lon="-0.36445">
        <ele>56.5457</ele>
        <time>2011-07-03T12:47:41Z</time>
      </trkpt>
      <trkpt lat="46.29637" lon="-0.36447">
        <ele>56.5332</ele>
        <time>2011-07-03T12:47:42Z</time>
      </trkpt>
      <trkpt lat="46.29638" lon="-0.36448">
        <ele>56.5196</ele>
        <time>2011-07-03T12:47:43Z</time>
      </trkpt>
      <trkpt lat="46.29638" lon="-0.3645">
        <ele>56.5061</ele>
        <time>2011-07-03T12:47:44Z</time>
      </trkpt>
      <trkpt lat="46.29638" lon="-0.36451">
        <ele>56.4915</ele>
        <time>2011-07-03T12:47:45Z</time>
      </trkpt>
      <trkpt lat="46.29639" lon="-0.36453">
        <ele>56.4771</ele>
        <time>2011-07-03T12:47:46Z</time>
      </trkpt>
      <trkpt lat="46.29639" lon="-0.36454">
        <ele>56.4612</ele>
        <time>2011-07-03T12:47:47Z</time>
      </trkpt>
      <trkpt lat="46.2964" lon="-0.36455">
        <ele>56.4438</ele>
        <time>2011-07-03T12:47:48Z</time>
      </trkpt>
      <trkpt lat="46.29641" lon="-0.36457">
        <ele>56.4264</ele>
        <time>2011-07-03T12:47:49Z</time>
      </trkpt>
      <trkpt lat="46.29641" lon="-0.36459">
        <ele>56.4097</ele>
        <time>2011-07-03T12:47:50Z</time>
      </trkpt>
      <trkpt lat="46.29642" lon="-0.3646">
        <ele>56.3937</ele>
        <time>2011-07-03T12:47:51Z</time>
      </trkpt>
      <trkpt lat="46.29643" lon="-0.36462">
        <ele>56.3781</ele>
        <time>2011-07-03T12:47:52Z</time>
      </trkpt>
      <trkpt lat="46.29643" lon="-0.36464">
        <ele>56.3606</ele>
        <time>2011-07-03T12:47:53Z</time>
      </trkpt>
      <trkpt lat="46.29643" lon="-0.36466">
        <ele>56.3415</ele>
        <time>2011-07-03T12:47:54Z</time>
      </trkpt>
      <trkpt lat="46.29644" lon="-0.36468">
        <ele>56.3227</ele>
        <time>2011-07-03T12:47:55Z</time>
      </trkpt>
      <trkpt lat="46.29644" lon="-0.3647">
        <ele>56.3062</ele>
        <time>2011-07-03T12:47:56Z</time>
      </trkpt>
      <trkpt lat="46.29644" lon="-0.36471">
        <ele>56.29</ele>
        <time>2011-07-03T12:47:57Z</time>
      </trkpt>
      <trkpt lat="46.29645" lon="-0.36473">
        <ele>56.2736</ele>
        <time>2011-07-03T12:47:58Z</time>
      </trkpt>
      <trkpt lat="46.29645" lon="-0.36475">
        <ele>56.2556</ele>
        <time>2011-07-03T12:47:59Z</time>
      </trkpt>
      <trkpt lat="46.29646" lon="-0.36477">
        <ele>56.2367</ele>
        <time>2011-07-03T12:48:00Z</time>
      </trkpt>
      <trkpt lat="46.29646" lon="-0.36478">
        <ele>56.2167</ele>
        <time>2011-07-03T12:48:01Z</time>
      </trkpt>
      <trkpt lat="46.29646" lon="-0.3648">
        <ele>56.1964</ele>
        <time>2011-07-03T12:48:02Z</time>
      </trkpt>
      <trkpt lat="46.29646" lon="-0.36482">
        <ele>56.1751</ele>
        <time>2011-07-03T12:48:03Z</time>
      </trkpt>
      <trkpt lat="46.29647" lon="-0.36484">
        <ele>56.1545</ele>
        <time>2011-07-03T12:48:04Z</time>
      </trkpt>
      <trkpt lat="46.29647" lon="-0.36486">
        <ele>56.1351</ele>
        <time>2011-07-03T12:48:05Z</time>
      </trkpt>
      <trkpt lat="46.29647" lon="-0.36488">
        <ele>56.1166</ele>
        <time>2011-07-03T12:48:06Z</time>
      </trkpt>
      <trkpt lat="46.29648" lon="-0.36489">
        <ele>56.0988</ele>
        <time>2011-07-03T12:48:07Z</time>
      </trkpt>
      <trkpt lat="46.29649" lon="-0.36491">
        <ele>56.0819</ele>
        <time>2011-07-03T12:48:08Z</time>
      </trkpt>
      <trkpt lat="46.29649" lon="-0.36493">
        <ele>56.066</ele>
        <time>2011-07-03T12:48:09Z</time>
      </trkpt>
      <trkpt lat="46.2965" lon="-0.36495">
        <ele>56.052</ele>
        <time>2011-07-03T12:48:10Z</time>
      </trkpt>
      <trkpt lat="46.29651" lon="-0.36496">
        <ele>56.0394</ele>
        <time>2011-07-03T12:48:11Z</time>
      </trkpt>
      <trkpt lat="46.29651" lon="-0.36498">
        <ele>56.0275</ele>
        <time>2011-07-03T12:48:12Z</time>
      </trkpt>
      <trkpt lat="46.29651" lon="-0.365">
        <ele>56.0156</ele>
        <time>2011-07-03T12:48:13Z</time>
      </trkpt>
      <trkpt lat="46.29651" lon="-0.36502">
        <ele>56.0032</ele>
        <time>2011-07-03T12:48:14Z</time>
      </trkpt>
      <trkpt lat="46.29652" lon="-0.36504">
        <ele>55.9905</ele>
        <time>2011-07-03T12:48:15Z</time>
      </trkpt>
      <trkpt lat="46.29652" lon="-0.36505">
        <ele>55.9776</ele>
        <time>2011-07-03T12:48:16Z</time>
      </trkpt>
      <trkpt lat="46.29652" lon="-0.36507">
        <ele>55.9646</ele>
        <time>2011-07-03T12:48:17Z</time>
      </trkpt>
      <trkpt lat="46.29653" lon="-0.36509">
        <ele>55.9521</ele>
        <time>2011-07-03T12:48:18Z</time>
      </trkpt>
      <trkpt lat="46.29653" lon="-0.36511">
        <ele>55.94</ele>
        <time>2011-07-03T12:48:19Z</time>
      </trkpt>
      <trkpt lat="46.29654" lon="-0.36512">
        <ele>55.9281</ele>
        <time>2011-07-03T12:48:20Z</time>
      </trkpt>
      <trkpt lat="46.29654" lon="-0.36514">
        <ele>55.9166</ele>
        <time>2011-07-03T12:48:21Z</time>
      </trkpt>
      <trkpt lat="46.29654" lon="-0.36516">
        <ele>55.9048</ele>
        <time>2011-07-03T12:48:22Z</time>
      </trkpt>
      <trkpt lat="46.29655" lon="-0.36517">
        <ele>55.8926</ele>
        <time>2011-07-03T12:48:23Z</time>
      </trkpt>
      <trkpt lat="46.29655" lon="-0.36519">
        <ele>55.8804</ele>
        <time>2011-07-03T12:48:24Z</time>
      </trkpt>
      <trkpt lat="46.29656" lon="-0.36521">
        <ele>55.8673</ele>
        <time>2011-07-03T12:48:25Z</time>
      </trkpt>
      <trkpt lat="46.29656" lon="-0.36522">
        <ele>55.8542</ele>
        <time>2011-07-03T12:48:26Z</time>
      </trkpt>
      <trkpt lat="46.29657" lon="-0.36524">
        <ele>55.8397</ele>
        <time>2011-07-03T12:48:27Z</time>
      </trkpt>
      <trkpt lat="46.29657" lon="-0.36526">
        <ele>55.8245</ele>
        <time>2011-07-03T12:48:28Z</time>
      </trkpt>
      <trkpt lat="46.29657" lon="-0.36528">
        <ele>55.81</ele>
        <time>2011-07-03T12:48:29Z</time>
      </trkpt>
      <trkpt lat="46.29658" lon="-0.36529">
        <ele>55.7957</ele>
        <time>2011-07-03T12:48:30Z</time>
      </trkpt>
      <trkpt lat="46.29659" lon="-0.36531">
        <ele>55.779</ele>
        <time>2011-07-03T12:48:31Z</time>
      </trkpt>
      <trkpt lat="46.29659" lon="-0.36533">
        <ele>55.7604</ele>
        <time>2011-07-03T12:48:32Z</time>
      </trkpt>
      <trkpt lat="46.29659" lon="-0.36535">
        <ele>55.7422</ele>
        <time>2011-07-03T12:48:33Z</time>
      </trkpt>
      <trkpt lat="46.29659" lon="-0.36536">
        <ele>55.7245</ele>
        <time>2011-07-03T12:48:34Z</time>
      </trkpt>
      <trkpt lat="46.2966" lon="-0.36538">
        <ele>55.7073</ele>
        <time>2011-07-03T12:48:35Z</time>
      </trkpt>
      <trkpt lat="46.2966" lon="-0.36539">
        <ele>55.6927</ele>
        <time>2011-07-03T12:48:36Z</time>
      </trkpt>
      <trkpt lat="46.29661" lon="-0.36541">
        <ele>55.6779</ele>
        <time>2011-07-03T12:48:37Z</time>
      </trkpt>
      <trkpt lat="46.29661" lon="-0.36543">
        <ele>55.6643</ele>
        <time>2011-07-03T12:48:38Z</time>
      </trkpt>
      <trkpt lat="46.29662" lon="-0.36544">
        <ele>55.6522</ele>
        <time>2011-07-03T12:48:39Z</time>
      </trkpt>
      <trkpt lat="46.29662" lon="-0.36546">
        <ele>55.6387</ele>
        <time>2011-07-03T12:48:40Z</time>
      </trkpt>
      <trkpt lat="46.29662" lon="-0.36547">
        <ele>55.6262</ele>
        <time>2011-07-03T12:48:41Z</time>
      </trkpt>
      <trkpt lat="46.29663" lon="-0.36549">
        <ele>55.6141</ele>
        <time>2011-07-03T12:48:42Z</time>
      </trkpt>
      <trkpt lat="46.29663" lon="-0.36551">
        <ele>55.6007</ele>
        <time>2011-07-03T12:48:43Z</time>
      </trkpt>
      <trkpt lat="46.29663" lon="-0.36553">
        <ele>55.5861</ele>
        <time>2011-07-03T12:48:44Z</time>
      </trkpt>
      <trkpt lat="46.29664" lon="-0.36554">
        <ele>55.5699</ele>
        <time>2011-07-03T12:48:45Z</time>
      </trkpt>
      <trkpt lat="46.29664" lon="-0.36555">
        <ele>55.5537</ele>
        <time>2011-07-03T12:48:46Z</time>
      </trkpt>
      <trkpt lat="46.29664" lon="-0.36557">
        <ele>55.5378</ele>
        <time>2011-07-03T12:48:47Z</time>
      </trkpt>
      <trkpt lat="46.29665" lon="-0.36559">
        <ele>55.5218</ele>
        <time>2011-07-03T12:48:48Z</time>
      </trkpt>
      <trkpt lat="46.29665" lon="-0.3656">
        <ele>55.5071</ele>
        <time>2011-07-03T12:48:49Z</time>
      </trkpt>
      <trkpt lat="46.29665" lon="-0.36562">
        <ele>55.49</ele>
        <time>2011-07-03T12:48:50Z</time>
      </trkpt>
      <trkpt lat="46.29666" lon="-0.36564">
        <ele>55.4716</ele>
        <time>2011-07-03T12:48:51Z</time>
      </trkpt>
      <trkpt lat="46.29667" lon="-0.36565">
        <ele>55.4525</ele>
        <time>2011-07-03T12:48:52Z</time>
      </trkpt>
      <trkpt lat="46.29667" lon="-0.36567">
        <ele>55.4318</ele>
        <time>2011-07-03T12:48:53Z</time>
      </trkpt>
      <trkpt lat="46.29668" lon="-0.36568">
        <ele>55.4101</ele>
        <time>2011-07-03T12:48:54Z</time>
      </trkpt>
      <trkpt lat="46.29669" lon="-0.36569">
        <ele>55.3886</ele>
        <time>2011-07-03T12:48:55Z</time>
      </trkpt>
      <trkpt lat="46.2967" lon="-0.36571">
        <ele>55.3669</ele>
        <time>2011-07-03T12:48:56Z</time>
      </trkpt>
      <trkpt lat="46.29671" lon="-0.36573">
        <ele>55.3472</ele>
        <time>2011-07-03T12:48:57Z</time>
      </trkpt>
      <trkpt lat="46.29672" lon="-0.36575">
        <ele>55.3288</ele>
        <time>2011-07-03T12:48:58Z</time>
      </trkpt>
      <trkpt lat="46.29673" lon="-0.36576">
        <ele>55.3115</ele>
        <time>2011-07-03T12:48:59Z</time>
      </trkpt>
      <trkpt lat="46.29673" lon="-0.36578">
        <ele>55.2945</ele>
        <time>2011-07-03T12:49:00Z</time>
      </trkpt>
      <trkpt lat="46.29674" lon="-0.3658">
        <ele>55.2833</ele>
        <time>2011-07-03T12:49:01Z</time>
      </trkpt>
      <trkpt lat="46.29675" lon="-0.36582">
        <ele>55.2714</ele>
        <time>2011-07-03T12:49:02Z</time>
      </trkpt>
      <trkpt lat="46.29675" lon="-0.36584">
        <ele>55.2612</ele>
        <time>2011-07-03T12:49:03Z</time>
      </trkpt>
      <trkpt lat="46.29676" lon="-0.36586">
        <ele>55.2506</ele>
        <time>2011-07-03T12:49:04Z</time>
      </trkpt>
      <trkpt lat="46.29676" lon="-0.36588">
        <ele>55.2399</ele>
        <time>2011-07-03T12:49:05Z</time>
      </trkpt>
      <trkpt lat="46.29677" lon="-0.3659">
        <ele>55.2305</ele>
        <time>2011-07-03T12:49:06Z</time>
      </trkpt>
      <trkpt lat="46.29678" lon="-0.36592">
        <ele>55.2233</ele>
        <time>2011-07-03T12:49:07Z</time>
      </trkpt>
      <trkpt lat="46.29678" lon="-0.36595">
        <ele>55.2168</ele>
        <time>2011-07-03T12:49:08Z</time>
      </trkpt>
      <trkpt lat="46.29678" lon="-0.36597">
        <ele>55.2121</ele>
        <time>2011-07-03T12:49:09Z</time>
      </trkpt>
      <trkpt lat="46.29679" lon="-0.36599">
        <ele>55.2087</ele>
        <time>2011-07-03T12:49:10Z</time>
      </trkpt>
      <trkpt lat="46.29679" lon="-0.36601">
        <ele>55.2053</ele>
        <time>2011-07-03T12:49:11Z</time>
      </trkpt>
      <trkpt lat="46.2968" lon="-0.36603">
        <ele>55.2039</ele>
        <time>2011-07-03T12:49:12Z</time>
      </trkpt>
      <trkpt lat="46.2968" lon="-0.36605">
        <ele>55.2056</ele>
        <time>2011-07-03T12:49:13Z</time>
      </trkpt>
      <trkpt lat="46.29681" lon="-0.36607">
        <ele>55.2084</ele>
        <time>2011-07-03T12:49:14Z</time>
      </trkpt>
      <trkpt lat="46.29681" lon="-0.36609">
        <ele>55.2128</ele>
        <time>2011-07-03T12:49:15Z</time>
      </trkpt>
      <trkpt lat="46.29681" lon="-0.3661">
        <ele>55.2188</ele>
        <time>2011-07-03T12:49:16Z</time>
      </trkpt>
      <trkpt lat="46.29681" lon="-0.36612">
        <ele>55.2248</ele>
        <time>2011-07-03T12:49:17Z</time>
      </trkpt>
      <trkpt lat="46.29682" lon="-0.36614">
        <ele>55.2332</ele>
        <time>2011-07-03T12:49:18Z</time>
      </trkpt>
      <trkpt lat="46.29682" lon="-0.36616">
        <ele>55.2421</ele>
        <time>2011-07-03T12:49:19Z</time>
      </trkpt>
      <trkpt lat="46.29683" lon="-0.36617">
        <ele>55.2531</ele>
        <time>2011-07-03T12:49:20Z</time>
      </trkpt>
      <trkpt lat="46.29683" lon="-0.36619">
        <ele>55.2659</ele>
        <time>2011-07-03T12:49:21Z</time>
      </trkpt>
      <trkpt lat="46.29684" lon="-0.36621">
        <ele>55.2833</ele>
        <time>2011-07-03T12:49:22Z</time>
      </trkpt>
      <trkpt lat="46.29684" lon="-0.36622">
        <ele>55.3047</ele>
        <time>2011-07-03T12:49:23Z</time>
      </trkpt>
      <trkpt lat="46.29685" lon="-0.36624">
        <ele>55.3277</ele>
        <time>2011-07-03T12:49:24Z</time>
      </trkpt>
      <trkpt lat="46.29686" lon="-0.36625">
        <ele>55.3547</ele>
        <time>2011-07-03T12:49:25Z</time>
      </trkpt>
      <trkpt lat="46.29686" lon="-0.36626">
        <ele>55.3865</ele>
        <time>2011-07-03T12:49:26Z</time>
      </trkpt>
      <trkpt lat="46.29687" lon="-0.36628">
        <ele>55.4199</ele>
        <time>2011-07-03T12:49:27Z</time>
      </trkpt>
      <trkpt lat="46.29687" lon="-0.36629">
        <ele>55.4532</ele>
        <time>2011-07-03T12:49:28Z</time>
      </trkpt>
      <trkpt lat="46.29688" lon="-0.36631">
        <ele>55.4951</ele>
        <time>2011-07-03T12:49:29Z</time>
      </trkpt>
      <trkpt lat="46.29688" lon="-0.36634">
        <ele>55.5402</ele>
        <time>2011-07-03T12:49:30Z</time>
      </trkpt>
      <trkpt lat="46.29688" lon="-0.36636">
        <ele>55.5897</ele>
        <time>2011-07-03T12:49:31Z</time>
      </trkpt>
      <trkpt lat="46.29689" lon="-0.36638">
        <ele>55.641</ele>
        <time>2011-07-03T12:49:32Z</time>
      </trkpt>
      <trkpt lat="46.29689" lon="-0.36641">
        <ele>55.6985</ele>
        <time>2011-07-03T12:49:33Z</time>
      </trkpt>
      <trkpt lat="46.2969" lon="-0.36643">
        <ele>55.7558</ele>
        <time>2011-07-03T12:49:34Z</time>
      </trkpt>
      <trkpt lat="46.2969" lon="-0.36645">
        <ele>55.814</ele>
        <time>2011-07-03T12:49:35Z</time>
      </trkpt>
      <trkpt lat="46.29691" lon="-0.36647">
        <ele>55.8726</ele>
        <time>2011-07-03T12:49:36Z</time>
      </trkpt>
      <trkpt lat="46.29691" lon="-0.36649">
        <ele>55.9313</ele>
        <time>2011-07-03T12:49:37Z</time>
      </trkpt>
      <trkpt lat="46.29692" lon="-0.36652">
        <ele>55.9905</ele>
        <time>2011-07-03T12:49:38Z</time>
      </trkpt>
      <trkpt lat="46.29692" lon="-0.36654">
        <ele>56.0497</ele>
        <time>2011-07-03T12:49:39Z</time>
      </trkpt>
      <trkpt lat="46.29693" lon="-0.36655">
        <ele>56.1092</ele>
        <time>2011-07-03T12:49:40Z</time>
      </trkpt>
      <trkpt lat="46.29694" lon="-0.36657">
        <ele>56.1689</ele>
        <time>2011-07-03T12:49:41Z</time>
      </trkpt>
      <trkpt lat="46.29694" lon="-0.36658">
        <ele>56.2298</ele>
        <time>2011-07-03T12:49:42Z</time>
      </trkpt>
      <trkpt lat="46.29695" lon="-0.3666">
        <ele>56.2904</ele>
        <time>2011-07-03T12:49:43Z</time>
      </trkpt>
      <trkpt lat="46.29695" lon="-0.36662">
        <ele>56.3541</ele>
        <time>2011-07-03T12:49:44Z</time>
      </trkpt>
      <trkpt lat="46.29696" lon="-0.36664">
        <ele>56.418</ele>
        <time>2011-07-03T12:49:45Z</time>
      </trkpt>
      <trkpt lat="46.29696" lon="-0.36666">
        <ele>56.4776</ele>
        <time>2011-07-03T12:49:46Z</time>
      </trkpt>
      <trkpt lat="46.29697" lon="-0.36668">
        <ele>56.5299</ele>
        <time>2011-07-03T12:49:47Z</time>
      </trkpt>
      <trkpt lat="46.29697" lon="-0.36669">
        <ele>56.5826</ele>
        <time>2011-07-03T12:49:48Z</time>
      </trkpt>
      <trkpt lat="46.29697" lon="-0.36671">
        <ele>56.6364</ele>
        <time>2011-07-03T12:49:49Z</time>
      </trkpt>
      <trkpt lat="46.29697" lon="-0.36673">
        <ele>56.6917</ele>
        <time>2011-07-03T12:49:50Z</time>
      </trkpt>
      <trkpt lat="46.29698" lon="-0.36675">
        <ele>56.7478</ele>
        <time>2011-07-03T12:49:51Z</time>
      </trkpt>
      <trkpt lat="46.29698" lon="-0.36677">
        <ele>56.8001</ele>
        <time>2011-07-03T12:49:52Z</time>
      </trkpt>
      <trkpt lat="46.29699" lon="-0.36679">
        <ele>56.8532</ele>
        <time>2011-07-03T12:49:53Z</time>
      </trkpt>
      <trkpt lat="46.29699" lon="-0.36681">
        <ele>56.907</ele>
        <time>2011-07-03T12:49:54Z</time>
      </trkpt>
      <trkpt lat="46.29699" lon="-0.36684">
        <ele>56.9604</ele>
        <time>2011-07-03T12:49:55Z</time>
      </trkpt>
      <trkpt lat="46.29699" lon="-0.36686">
        <ele>57.0153</ele>
        <time>2011-07-03T12:49:56Z</time>
      </trkpt>
      <trkpt lat="46.297" lon="-0.36688">
        <ele>57.0681</ele>
        <time>2011-07-03T12:49:57Z</time>
      </trkpt>
      <trkpt lat="46.297" lon="-0.36689">
        <ele>57.1263</ele>
        <time>2011-07-03T12:49:58Z</time>
      </trkpt>
      <trkpt lat="46.29701" lon="-0.36691">
        <ele>57.1884</ele>
        <time>2011-07-03T12:49:59Z</time>
      </trkpt>
      <trkpt lat="46.29701" lon="-0.36693">
        <ele>57.2532</ele>
        <time>2011-07-03T12:50:00Z</time>
      </trkpt>
      <trkpt lat="46.29701" lon="-0.36695">
        <ele>57.3165</ele>
        <time>2011-07-03T12:50:01Z</time>
      </trkpt>
      <trkpt lat="46.29702" lon="-0.36697">
        <ele>57.3787</ele>
        <time>2011-07-03T12:50:02Z</time>
      </trkpt>
      <trkpt lat="46.29702" lon="-0.36699">
        <ele>57.4421</ele>
        <time>2011-07-03T12:50:03Z</time>
      </trkpt>
      <trkpt lat="46.29703" lon="-0.367">
        <ele>57.5064</ele>
        <time>2011-07-03T12:50:04Z</time>
      </trkpt>
      <trkpt lat="46.29703" lon="-0.36702">
        <ele>57.573</ele>
        <time>2011-07-03T12:50:05Z</time>
      </trkpt>
      <trkpt lat="46.29703" lon="-0.36704">
        <ele>57.6372</ele>
        <time>2011-07-03T12:50:06Z</time>
      </trkpt>
      <trkpt lat="46.29704" lon="-0.36706">
        <ele>57.7009</ele>
        <time>2011-07-03T12:50:07Z</time>
      </trkpt>
      <trkpt lat="46.29704" lon="-0.36708">
        <ele>57.7645</ele>
        <time>2011-07-03T12:50:08Z</time>
      </trkpt>
      <trkpt lat="46.29705" lon="-0.3671">
        <ele>57.8269</ele>
        <time>2011-07-03T12:50:09Z</time>
      </trkpt>
      <trkpt lat="46.29705" lon="-0.36711">
        <ele>57.8913</ele>
        <time>2011-07-03T12:50:10Z</time>
      </trkpt>
      <trkpt lat="46.29706" lon="-0.36713">
        <ele>57.9565</ele>
        <time>2011-07-03T12:50:11Z</time>
      </trkpt>
      <trkpt lat="46.29707" lon="-0.36715">
        <ele>58.0203</ele>
        <time>2011-07-03T12:50:12Z</time>
      </trkpt>
      <trkpt lat="46.29707" lon="-0.36716">
        <ele>58.0847</ele>
        <time>2011-07-03T12:50:13Z</time>
      </trkpt>
      <trkpt lat="46.29708" lon="-0.36718">
        <ele>58.149</ele>
        <time>2011-07-03T12:50:14Z</time>
      </trkpt>
      <trkpt lat="46.29709" lon="-0.36719">
        <ele>58.2131</ele>
        <time>2011-07-03T12:50:15Z</time>
      </trkpt>
      <trkpt lat="46.2971" lon="-0.36721">
        <ele>58.2741</ele>
        <time>2011-07-03T12:50:16Z</time>
      </trkpt>
      <trkpt lat="46.2971" lon="-0.36723">
        <ele>58.3319</ele>
        <time>2011-07-03T12:50:17Z</time>
      </trkpt>
      <trkpt lat="46.29711" lon="-0.36724">
        <ele>58.39</ele>
        <time>2011-07-03T12:50:18Z</time>
      </trkpt>
      <trkpt lat="46.29712" lon="-0.36726">
        <ele>58.4492</ele>
        <time>2011-07-03T12:50:19Z</time>
      </trkpt>
      <trkpt lat="46.29712" lon="-0.36728">
        <ele>58.5084</ele>
        <time>2011-07-03T12:50:20Z</time>
      </trkpt>
      <trkpt lat="46.29713" lon="-0.36732">
        <ele>58.5679</ele>
        <time>2011-07-03T12:50:21Z</time>
      </trkpt>
      <trkpt lat="46.29715" lon="-0.36735">
        <ele>58.6293</ele>
        <time>2011-07-03T12:50:22Z</time>
      </trkpt>
      <trkpt lat="46.29715" lon="-0.36737">
        <ele>58.691</ele>
        <time>2011-07-03T12:50:23Z</time>
      </trkpt>
      <trkpt lat="46.29715" lon="-0.36738">
        <ele>58.7522</ele>
        <time>2011-07-03T12:50:24Z</time>
      </trkpt>
      <trkpt lat="46.29715" lon="-0.3674">
        <ele>58.8069</ele>
        <time>2011-07-03T12:50:25Z</time>
      </trkpt>
      <trkpt lat="46.29715" lon="-0.36741">
        <ele>58.8069</ele>
        <time>2011-07-03T12:50:26Z</time>
      </trkpt>
      <trkpt lat="46.29717" lon="-0.36744">
        <ele>58.8582</ele>
        <time>2011-07-03T12:50:27Z</time>
      </trkpt>
      <trkpt lat="46.29717" lon="-0.36746">
        <ele>58.9122</ele>
        <time>2011-07-03T12:50:28Z</time>
      </trkpt>
      <trkpt lat="46.29717" lon="-0.36747">
        <ele>58.966</ele>
        <time>2011-07-03T12:50:29Z</time>
      </trkpt>
      <trkpt lat="46.29717" lon="-0.36749">
        <ele>58.9892</ele>
        <time>2011-07-03T12:50:30Z</time>
      </trkpt>
      <trkpt lat="46.29717" lon="-0.36751">
        <ele>59.012</ele>
        <time>2011-07-03T12:50:31Z</time>
      </trkpt>
      <trkpt lat="46.29717" lon="-0.36753">
        <ele>59.0347</ele>
        <time>2011-07-03T12:50:32Z</time>
      </trkpt>
      <trkpt lat="46.29717" lon="-0.36754">
        <ele>59.0577</ele>
        <time>2011-07-03T12:50:33Z</time>
      </trkpt>
      <trkpt lat="46.29717" lon="-0.36756">
        <ele>59.0841</ele>
        <time>2011-07-03T12:50:34Z</time>
      </trkpt>
      <trkpt lat="46.29717" lon="-0.36758">
        <ele>59.1129</ele>
        <time>2011-07-03T12:50:35Z</time>
      </trkpt>
      <trkpt lat="46.29717" lon="-0.3676">
        <ele>59.1336</ele>
        <time>2011-07-03T12:50:36Z</time>
      </trkpt>
      <trkpt lat="46.29717" lon="-0.36762">
        <ele>59.1464</ele>
        <time>2011-07-03T12:50:37Z</time>
      </trkpt>
      <trkpt lat="46.29717" lon="-0.36764">
        <ele>59.1429</ele>
        <time>2011-07-03T12:50:38Z</time>
      </trkpt>
      <trkpt lat="46.29717" lon="-0.36765">
        <ele>59.1249</ele>
        <time>2011-07-03T12:50:39Z</time>
      </trkpt>
      <trkpt lat="46.29717" lon="-0.36767">
        <ele>59.1052</ele>
        <time>2011-07-03T12:50:40Z</time>
      </trkpt>
      <trkpt lat="46.29717" lon="-0.36768">
        <ele>59.0803</ele>
        <time>2011-07-03T12:50:41Z</time>
      </trkpt>
      <trkpt lat="46.29718" lon="-0.36769">
        <ele>59.05</ele>
        <time>2011-07-03T12:50:42Z</time>
      </trkpt>
      <trkpt lat="46.29718" lon="-0.36771">
        <ele>59.0146</ele>
        <time>2011-07-03T12:50:43Z</time>
      </trkpt>
      <trkpt lat="46.29718" lon="-0.36772">
        <ele>58.978</ele>
        <time>2011-07-03T12:50:44Z</time>
      </trkpt>
      <trkpt lat="46.29719" lon="-0.36774">
        <ele>58.9343</ele>
        <time>2011-07-03T12:50:45Z</time>
      </trkpt>
      <trkpt lat="46.29718" lon="-0.36775">
        <ele>58.8861</ele>
        <time>2011-07-03T12:50:46Z</time>
      </trkpt>
      <trkpt lat="46.29718" lon="-0.36777">
        <ele>58.8327</ele>
        <time>2011-07-03T12:50:47Z</time>
      </trkpt>
      <trkpt lat="46.29717" lon="-0.36779">
        <ele>58.7781</ele>
        <time>2011-07-03T12:50:48Z</time>
      </trkpt>
      <trkpt lat="46.29715" lon="-0.3678">
        <ele>58.722</ele>
        <time>2011-07-03T12:50:49Z</time>
      </trkpt>
      <trkpt lat="46.29713" lon="-0.36782">
        <ele>58.666</ele>
        <time>2011-07-03T12:50:50Z</time>
      </trkpt>
      <trkpt lat="46.29712" lon="-0.36783">
        <ele>58.6098</ele>
        <time>2011-07-03T12:50:51Z</time>
      </trkpt>
      <trkpt lat="46.2971" lon="-0.36784">
        <ele>58.5543</ele>
        <time>2011-07-03T12:50:52Z</time>
      </trkpt>
      <trkpt lat="46.29709" lon="-0.36785">
        <ele>58.4925</ele>
        <time>2011-07-03T12:50:53Z</time>
      </trkpt>
      <trkpt lat="46.29708" lon="-0.36786">
        <ele>58.4294</ele>
        <time>2011-07-03T12:50:54Z</time>
      </trkpt>
      <trkpt lat="46.29707" lon="-0.36787">
        <ele>58.3692</ele>
        <time>2011-07-03T12:50:55Z</time>
      </trkpt>
      <trkpt lat="46.29705" lon="-0.36788">
        <ele>58.311</ele>
        <time>2011-07-03T12:50:56Z</time>
      </trkpt>
      <trkpt lat="46.29704" lon="-0.36789">
        <ele>58.2463</ele>
        <time>2011-07-03T12:50:57Z</time>
      </trkpt>
      <trkpt lat="46.29703" lon="-0.36789">
        <ele>58.1834</ele>
        <time>2011-07-03T12:50:58Z</time>
      </trkpt>
      <trkpt lat="46.29702" lon="-0.3679">
        <ele>58.1227</ele>
        <time>2011-07-03T12:50:59Z</time>
      </trkpt>
      <trkpt lat="46.29701" lon="-0.36791">
        <ele>58.0539</ele>
        <time>2011-07-03T12:51:00Z</time>
      </trkpt>
      <trkpt lat="46.29699" lon="-0.36792">
        <ele>57.9892</ele>
        <time>2011-07-03T12:51:01Z</time>
      </trkpt>
      <trkpt lat="46.29698" lon="-0.36793">
        <ele>57.9121</ele>
        <time>2011-07-03T12:51:02Z</time>
      </trkpt>
      <trkpt lat="46.29697" lon="-0.36794">
        <ele>57.8344</ele>
        <time>2011-07-03T12:51:03Z</time>
      </trkpt>
      <trkpt lat="46.29696" lon="-0.36795">
        <ele>57.7554</ele>
        <time>2011-07-03T12:51:04Z</time>
      </trkpt>
      <trkpt lat="46.29695" lon="-0.36795">
        <ele>57.6783</ele>
        <time>2011-07-03T12:51:05Z</time>
      </trkpt>
      <trkpt lat="46.29694" lon="-0.36796">
        <ele>57.5892</ele>
        <time>2011-07-03T12:51:06Z</time>
      </trkpt>
      <trkpt lat="46.29693" lon="-0.36797">
        <ele>57.5008</ele>
        <time>2011-07-03T12:51:07Z</time>
      </trkpt>
      <trkpt lat="46.29692" lon="-0.36798">
        <ele>57.4052</ele>
        <time>2011-07-03T12:51:08Z</time>
      </trkpt>
      <trkpt lat="46.2969" lon="-0.36799">
        <ele>57.2996</ele>
        <time>2011-07-03T12:51:09Z</time>
      </trkpt>
      <trkpt lat="46.29689" lon="-0.36799">
        <ele>57.1967</ele>
        <time>2011-07-03T12:51:10Z</time>
      </trkpt>
      <trkpt lat="46.29688" lon="-0.368">
        <ele>57.096</ele>
        <time>2011-07-03T12:51:11Z</time>
      </trkpt>
      <trkpt lat="46.29687" lon="-0.368">
        <ele>56.998</ele>
        <time>2011-07-03T12:51:12Z</time>
      </trkpt>
      <trkpt lat="46.29686" lon="-0.368">
        <ele>56.9035</ele>
        <time>2011-07-03T12:51:13Z</time>
      </trkpt>
      <trkpt lat="46.29684" lon="-0.36801">
        <ele>56.8118</ele>
        <time>2011-07-03T12:51:14Z</time>
      </trkpt>
      <trkpt lat="46.29683" lon="-0.36802">
        <ele>56.7242</ele>
        <time>2011-07-03T12:51:15Z</time>
      </trkpt>
      <trkpt lat="46.29682" lon="-0.36802">
        <ele>56.6403</ele>
        <time>2011-07-03T12:51:16Z</time>
      </trkpt>
      <trkpt lat="46.29681" lon="-0.36803">
        <ele>56.5591</ele>
        <time>2011-07-03T12:51:17Z</time>
      </trkpt>
      <trkpt lat="46.2968" lon="-0.36804">
        <ele>56.4803</ele>
        <time>2011-07-03T12:51:18Z</time>
      </trkpt>
      <trkpt lat="46.29678" lon="-0.36805">
        <ele>56.4037</ele>
        <time>2011-07-03T12:51:19Z</time>
      </trkpt>
      <trkpt lat="46.29678" lon="-0.36806">
        <ele>56.3289</ele>
        <time>2011-07-03T12:51:20Z</time>
      </trkpt>
      <trkpt lat="46.29676" lon="-0.36807">
        <ele>56.2578</ele>
        <time>2011-07-03T12:51:21Z</time>
      </trkpt>
      <trkpt lat="46.29675" lon="-0.36809">
        <ele>56.1897</ele>
        <time>2011-07-03T12:51:22Z</time>
      </trkpt>
      <trkpt lat="46.29674" lon="-0.3681">
        <ele>56.1261</ele>
        <time>2011-07-03T12:51:23Z</time>
      </trkpt>
      <trkpt lat="46.29673" lon="-0.36811">
        <ele>56.0648</ele>
        <time>2011-07-03T12:51:24Z</time>
      </trkpt>
      <trkpt lat="46.29672" lon="-0.36812">
        <ele>56.0053</ele>
        <time>2011-07-03T12:51:25Z</time>
      </trkpt>
      <trkpt lat="46.29671" lon="-0.36813">
        <ele>55.9475</ele>
        <time>2011-07-03T12:51:26Z</time>
      </trkpt>
      <trkpt lat="46.2967" lon="-0.36814">
        <ele>55.8909</ele>
        <time>2011-07-03T12:51:27Z</time>
      </trkpt>
      <trkpt lat="46.29669" lon="-0.36816">
        <ele>55.8329</ele>
        <time>2011-07-03T12:51:28Z</time>
      </trkpt>
      <trkpt lat="46.29668" lon="-0.36817">
        <ele>55.7752</ele>
        <time>2011-07-03T12:51:29Z</time>
      </trkpt>
      <trkpt lat="46.29667" lon="-0.36818">
        <ele>55.7188</ele>
        <time>2011-07-03T12:51:30Z</time>
      </trkpt>
      <trkpt lat="46.29666" lon="-0.36819">
        <ele>55.6545</ele>
        <time>2011-07-03T12:51:31Z</time>
      </trkpt>
      <trkpt lat="46.29665" lon="-0.36821">
        <ele>55.5919</ele>
        <time>2011-07-03T12:51:32Z</time>
      </trkpt>
      <trkpt lat="46.29664" lon="-0.36822">
        <ele>55.5203</ele>
        <time>2011-07-03T12:51:33Z</time>
      </trkpt>
      <trkpt lat="46.29662" lon="-0.36823">
        <ele>55.4412</ele>
        <time>2011-07-03T12:51:34Z</time>
      </trkpt>
      <trkpt lat="46.29662" lon="-0.36824">
        <ele>55.3641</ele>
        <time>2011-07-03T12:51:35Z</time>
      </trkpt>
      <trkpt lat="46.2966" lon="-0.36825">
        <ele>55.2877</ele>
        <time>2011-07-03T12:51:36Z</time>
      </trkpt>
      <trkpt lat="46.2966" lon="-0.36827">
        <ele>55.2149</ele>
        <time>2011-07-03T12:51:37Z</time>
      </trkpt>
      <trkpt lat="46.29659" lon="-0.36828">
        <ele>55.1551</ele>
        <time>2011-07-03T12:51:38Z</time>
      </trkpt>
      <trkpt lat="46.29658" lon="-0.36829">
        <ele>55.1136</ele>
        <time>2011-07-03T12:51:39Z</time>
      </trkpt>
      <trkpt lat="46.29657" lon="-0.3683">
        <ele>55.0851</ele>
        <time>2011-07-03T12:51:40Z</time>
      </trkpt>
      <trkpt lat="46.29656" lon="-0.36831">
        <ele>55.0563</ele>
        <time>2011-07-03T12:51:41Z</time>
      </trkpt>
      <trkpt lat="46.29655" lon="-0.36832">
        <ele>55.0294</ele>
        <time>2011-07-03T12:51:42Z</time>
      </trkpt>
      <trkpt lat="46.29654" lon="-0.36833">
        <ele>55.0051</ele>
        <time>2011-07-03T12:51:43Z</time>
      </trkpt>
      <trkpt lat="46.29652" lon="-0.36834">
        <ele>54.9823</ele>
        <time>2011-07-03T12:51:44Z</time>
      </trkpt>
      <trkpt lat="46.29651" lon="-0.36836">
        <ele>54.9603</ele>
        <time>2011-07-03T12:51:45Z</time>
      </trkpt>
      <trkpt lat="46.2965" lon="-0.36837">
        <ele>54.9402</ele>
        <time>2011-07-03T12:51:46Z</time>
      </trkpt>
      <trkpt lat="46.29649" lon="-0.36838">
        <ele>54.9218</ele>
        <time>2011-07-03T12:51:47Z</time>
      </trkpt>
      <trkpt lat="46.29648" lon="-0.36839">
        <ele>54.9041</ele>
        <time>2011-07-03T12:51:48Z</time>
      </trkpt>
      <trkpt lat="46.29647" lon="-0.3684">
        <ele>54.8869</ele>
        <time>2011-07-03T12:51:49Z</time>
      </trkpt>
      <trkpt lat="46.29646" lon="-0.36841">
        <ele>54.8728</ele>
        <time>2011-07-03T12:51:50Z</time>
      </trkpt>
      <trkpt lat="46.29646" lon="-0.36843">
        <ele>54.8604</ele>
        <time>2011-07-03T12:51:51Z</time>
      </trkpt>
      <trkpt lat="46.29644" lon="-0.36843">
        <ele>54.8538</ele>
        <time>2011-07-03T12:51:52Z</time>
      </trkpt>
      <trkpt lat="46.29643" lon="-0.36845">
        <ele>54.8492</ele>
        <time>2011-07-03T12:51:53Z</time>
      </trkpt>
      <trkpt lat="46.29642" lon="-0.36846">
        <ele>54.848</ele>
        <time>2011-07-03T12:51:54Z</time>
      </trkpt>
      <trkpt lat="46.29642" lon="-0.36848">
        <ele>54.8501</ele>
        <time>2011-07-03T12:51:55Z</time>
      </trkpt>
      <trkpt lat="46.29641" lon="-0.36849">
        <ele>54.8506</ele>
        <time>2011-07-03T12:51:56Z</time>
      </trkpt>
      <trkpt lat="46.2964" lon="-0.3685">
        <ele>54.8468</ele>
        <time>2011-07-03T12:51:57Z</time>
      </trkpt>
      <trkpt lat="46.29639" lon="-0.36851">
        <ele>54.8421</ele>
        <time>2011-07-03T12:51:58Z</time>
      </trkpt>
      <trkpt lat="46.29639" lon="-0.36853">
        <ele>54.8428</ele>
        <time>2011-07-03T12:51:59Z</time>
      </trkpt>
      <trkpt lat="46.29638" lon="-0.36854">
        <ele>54.8404</ele>
        <time>2011-07-03T12:52:00Z</time>
      </trkpt>
      <trkpt lat="46.29637" lon="-0.36856">
        <ele>54.8413</ele>
        <time>2011-07-03T12:52:01Z</time>
      </trkpt>
      <trkpt lat="46.29636" lon="-0.36857">
        <ele>54.8411</ele>
        <time>2011-07-03T12:52:02Z</time>
      </trkpt>
      <trkpt lat="46.29635" lon="-0.36858">
        <ele>54.8345</ele>
        <time>2011-07-03T12:52:03Z</time>
      </trkpt>
      <trkpt lat="46.29634" lon="-0.36859">
        <ele>54.8277</ele>
        <time>2011-07-03T12:52:04Z</time>
      </trkpt>
      <trkpt lat="46.29633" lon="-0.36861">
        <ele>54.8204</ele>
        <time>2011-07-03T12:52:05Z</time>
      </trkpt>
      <trkpt lat="46.29633" lon="-0.36862">
        <ele>54.8101</ele>
        <time>2011-07-03T12:52:06Z</time>
      </trkpt>
      <trkpt lat="46.29632" lon="-0.36864">
        <ele>54.7938</ele>
        <time>2011-07-03T12:52:07Z</time>
      </trkpt>
      <trkpt lat="46.29631" lon="-0.36865">
        <ele>54.7781</ele>
        <time>2011-07-03T12:52:08Z</time>
      </trkpt>
      <trkpt lat="46.29631" lon="-0.36867">
        <ele>54.7562</ele>
        <time>2011-07-03T12:52:09Z</time>
      </trkpt>
      <trkpt lat="46.29631" lon="-0.36868">
        <ele>54.7303</ele>
        <time>2011-07-03T12:52:10Z</time>
      </trkpt>
      <trkpt lat="46.2963" lon="-0.36869">
        <ele>54.7004</ele>
        <time>2011-07-03T12:52:11Z</time>
      </trkpt>
      <trkpt lat="46.29629" lon="-0.36871">
        <ele>54.6656</ele>
        <time>2011-07-03T12:52:12Z</time>
      </trkpt>
      <trkpt lat="46.29628" lon="-0.36872">
        <ele>54.6289</ele>
        <time>2011-07-03T12:52:13Z</time>
      </trkpt>
      <trkpt lat="46.29628" lon="-0.36874">
        <ele>54.59</ele>
        <time>2011-07-03T12:52:14Z</time>
      </trkpt>
      <trkpt lat="46.29627" lon="-0.36875">
        <ele>54.5532</ele>
        <time>2011-07-03T12:52:15Z</time>
      </trkpt>
      <trkpt lat="46.29626" lon="-0.36877">
        <ele>54.5152</ele>
        <time>2011-07-03T12:52:16Z</time>
      </trkpt>
      <trkpt lat="46.29625" lon="-0.36879">
        <ele>54.4781</ele>
        <time>2011-07-03T12:52:17Z</time>
      </trkpt>
      <trkpt lat="46.29625" lon="-0.3688">
        <ele>54.4422</ele>
        <time>2011-07-03T12:52:18Z</time>
      </trkpt>
      <trkpt lat="46.29624" lon="-0.36882">
        <ele>54.4075</ele>
        <time>2011-07-03T12:52:19Z</time>
      </trkpt>
      <trkpt lat="46.29623" lon="-0.36884">
        <ele>54.3738</ele>
        <time>2011-07-03T12:52:20Z</time>
      </trkpt>
      <trkpt lat="46.29623" lon="-0.36886">
        <ele>54.335</ele>
        <time>2011-07-03T12:52:21Z</time>
      </trkpt>
      <trkpt lat="46.29622" lon="-0.36887">
        <ele>54.2946</ele>
        <time>2011-07-03T12:52:22Z</time>
      </trkpt>
      <trkpt lat="46.29622" lon="-0.36889">
        <ele>54.249</ele>
        <time>2011-07-03T12:52:23Z</time>
      </trkpt>
      <trkpt lat="46.29621" lon="-0.36891">
        <ele>54.2041</ele>
        <time>2011-07-03T12:52:24Z</time>
      </trkpt>
      <trkpt lat="46.2962" lon="-0.36892">
        <ele>54.1545</ele>
        <time>2011-07-03T12:52:25Z</time>
      </trkpt>
      <trkpt lat="46.2962" lon="-0.36894">
        <ele>54.1056</ele>
        <time>2011-07-03T12:52:26Z</time>
      </trkpt>
      <trkpt lat="46.29619" lon="-0.36895">
        <ele>54.0579</ele>
        <time>2011-07-03T12:52:27Z</time>
      </trkpt>
      <trkpt lat="46.29618" lon="-0.36897">
        <ele>54.0127</ele>
        <time>2011-07-03T12:52:28Z</time>
      </trkpt>
      <trkpt lat="46.29618" lon="-0.36899">
        <ele>53.9734</ele>
        <time>2011-07-03T12:52:29Z</time>
      </trkpt>
      <trkpt lat="46.29617" lon="-0.369">
        <ele>53.9339</ele>
        <time>2011-07-03T12:52:30Z</time>
      </trkpt>
      <trkpt lat="46.29616" lon="-0.36902">
        <ele>53.8985</ele>
        <time>2011-07-03T12:52:31Z</time>
      </trkpt>
      <trkpt lat="46.29616" lon="-0.36904">
        <ele>53.8644</ele>
        <time>2011-07-03T12:52:32Z</time>
      </trkpt>
      <trkpt lat="46.29615" lon="-0.36906">
        <ele>53.8309</ele>
        <time>2011-07-03T12:52:33Z</time>
      </trkpt>
      <trkpt lat="46.29614" lon="-0.36908">
        <ele>53.7968</ele>
        <time>2011-07-03T12:52:34Z</time>
      </trkpt>
      <trkpt lat="46.29614" lon="-0.36909">
        <ele>53.762</ele>
        <time>2011-07-03T12:52:35Z</time>
      </trkpt>
      <trkpt lat="46.29613" lon="-0.36911">
        <ele>53.725</ele>
        <time>2011-07-03T12:52:36Z</time>
      </trkpt>
      <trkpt lat="46.29613" lon="-0.36913">
        <ele>53.6882</ele>
        <time>2011-07-03T12:52:37Z</time>
      </trkpt>
      <trkpt lat="46.29612" lon="-0.36915">
        <ele>53.6438</ele>
        <time>2011-07-03T12:52:38Z</time>
      </trkpt>
      <trkpt lat="46.29612" lon="-0.36917">
        <ele>53.604</ele>
        <time>2011-07-03T12:52:39Z</time>
      </trkpt>
      <trkpt lat="46.29611" lon="-0.36918">
        <ele>53.5648</ele>
        <time>2011-07-03T12:52:40Z</time>
      </trkpt>
      <trkpt lat="46.2961" lon="-0.3692">
        <ele>53.5246</ele>
        <time>2011-07-03T12:52:41Z</time>
      </trkpt>
      <trkpt lat="46.2961" lon="-0.36922">
        <ele>53.4903</ele>
        <time>2011-07-03T12:52:42Z</time>
      </trkpt>
      <trkpt lat="46.29609" lon="-0.36923">
        <ele>53.4484</ele>
        <time>2011-07-03T12:52:43Z</time>
      </trkpt>
      <trkpt lat="46.29609" lon="-0.36924">
        <ele>53.4161</ele>
        <time>2011-07-03T12:52:44Z</time>
      </trkpt>
      <trkpt lat="46.29609" lon="-0.36926">
        <ele>53.3833</ele>
        <time>2011-07-03T12:52:45Z</time>
      </trkpt>
      <trkpt lat="46.29608" lon="-0.36927">
        <ele>53.3554</ele>
        <time>2011-07-03T12:52:46Z</time>
      </trkpt>
      <trkpt lat="46.29607" lon="-0.36929">
        <ele>53.3325</ele>
        <time>2011-07-03T12:52:47Z</time>
      </trkpt>
      <trkpt lat="46.29607" lon="-0.36931">
        <ele>53.3113</ele>
        <time>2011-07-03T12:52:48Z</time>
      </trkpt>
      <trkpt lat="46.29606" lon="-0.36932">
        <ele>53.2899</ele>
        <time>2011-07-03T12:52:49Z</time>
      </trkpt>
      <trkpt lat="46.29606" lon="-0.36934">
        <ele>53.268</ele>
        <time>2011-07-03T12:52:50Z</time>
      </trkpt>
      <trkpt lat="46.29605" lon="-0.36936">
        <ele>53.2502</ele>
        <time>2011-07-03T12:52:51Z</time>
      </trkpt>
      <trkpt lat="46.29604" lon="-0.36938">
        <ele>53.234</ele>
        <time>2011-07-03T12:52:52Z</time>
      </trkpt>
      <trkpt lat="46.29604" lon="-0.36939">
        <ele>53.2179</ele>
        <time>2011-07-03T12:52:53Z</time>
      </trkpt>
      <trkpt lat="46.29603" lon="-0.36941">
        <ele>53.2035</ele>
        <time>2011-07-03T12:52:54Z</time>
      </trkpt>
      <trkpt lat="46.29603" lon="-0.36943">
        <ele>53.1889</ele>
        <time>2011-07-03T12:52:55Z</time>
      </trkpt>
      <trkpt lat="46.29602" lon="-0.36944">
        <ele>53.1736</ele>
        <time>2011-07-03T12:52:56Z</time>
      </trkpt>
      <trkpt lat="46.29602" lon="-0.36946">
        <ele>53.1574</ele>
        <time>2011-07-03T12:52:57Z</time>
      </trkpt>
      <trkpt lat="46.29602" lon="-0.36947">
        <ele>53.1411</ele>
        <time>2011-07-03T12:52:58Z</time>
      </trkpt>
      <trkpt lat="46.29602" lon="-0.36949">
        <ele>53.1265</ele>
        <time>2011-07-03T12:52:59Z</time>
      </trkpt>
      <trkpt lat="46.29602" lon="-0.3695">
        <ele>53.1118</ele>
        <time>2011-07-03T12:53:00Z</time>
      </trkpt>
      <trkpt lat="46.29601" lon="-0.36952">
        <ele>53.0978</ele>
        <time>2011-07-03T12:53:01Z</time>
      </trkpt>
      <trkpt lat="46.29601" lon="-0.36954">
        <ele>53.0846</ele>
        <time>2011-07-03T12:53:02Z</time>
      </trkpt>
      <trkpt lat="46.29601" lon="-0.36956">
        <ele>53.0726</ele>
        <time>2011-07-03T12:53:03Z</time>
      </trkpt>
      <trkpt lat="46.296" lon="-0.36958">
        <ele>53.0605</ele>
        <time>2011-07-03T12:53:04Z</time>
      </trkpt>
      <trkpt lat="46.296" lon="-0.36959">
        <ele>53.0485</ele>
        <time>2011-07-03T12:53:05Z</time>
      </trkpt>
      <trkpt lat="46.296" lon="-0.36961">
        <ele>53.0377</ele>
        <time>2011-07-03T12:53:06Z</time>
      </trkpt>
      <trkpt lat="46.296" lon="-0.36963">
        <ele>53.0254</ele>
        <time>2011-07-03T12:53:07Z</time>
      </trkpt>
      <trkpt lat="46.29599" lon="-0.36964">
        <ele>53.0134</ele>
        <time>2011-07-03T12:53:08Z</time>
      </trkpt>
      <trkpt lat="46.29599" lon="-0.36966">
        <ele>53.0012</ele>
        <time>2011-07-03T12:53:09Z</time>
      </trkpt>
      <trkpt lat="46.29599" lon="-0.36968">
        <ele>52.9904</ele>
        <time>2011-07-03T12:53:10Z</time>
      </trkpt>
      <trkpt lat="46.29599" lon="-0.3697">
        <ele>52.9806</ele>
        <time>2011-07-03T12:53:11Z</time>
      </trkpt>
      <trkpt lat="46.29599" lon="-0.36972">
        <ele>52.9712</ele>
        <time>2011-07-03T12:53:12Z</time>
      </trkpt>
      <trkpt lat="46.29599" lon="-0.36974">
        <ele>52.9617</ele>
        <time>2011-07-03T12:53:13Z</time>
      </trkpt>
      <trkpt lat="46.29599" lon="-0.36976">
        <ele>52.9517</ele>
        <time>2011-07-03T12:53:14Z</time>
      </trkpt>
      <trkpt lat="46.29598" lon="-0.36978">
        <ele>52.9422</ele>
        <time>2011-07-03T12:53:15Z</time>
      </trkpt>
      <trkpt lat="46.29598" lon="-0.3698">
        <ele>52.9322</ele>
        <time>2011-07-03T12:53:16Z</time>
      </trkpt>
      <trkpt lat="46.29598" lon="-0.36982">
        <ele>52.9215</ele>
        <time>2011-07-03T12:53:17Z</time>
      </trkpt>
      <trkpt lat="46.29598" lon="-0.36984">
        <ele>52.9107</ele>
        <time>2011-07-03T12:53:18Z</time>
      </trkpt>
      <trkpt lat="46.29598" lon="-0.36985">
        <ele>52.8995</ele>
        <time>2011-07-03T12:53:19Z</time>
      </trkpt>
      <trkpt lat="46.29598" lon="-0.36987">
        <ele>52.8887</ele>
        <time>2011-07-03T12:53:20Z</time>
      </trkpt>
      <trkpt lat="46.29598" lon="-0.36989">
        <ele>52.8789</ele>
        <time>2011-07-03T12:53:21Z</time>
      </trkpt>
      <trkpt lat="46.29597" lon="-0.36991">
        <ele>52.87</ele>
        <time>2011-07-03T12:53:22Z</time>
      </trkpt>
      <trkpt lat="46.29597" lon="-0.36993">
        <ele>52.8646</ele>
        <time>2011-07-03T12:53:23Z</time>
      </trkpt>
      <trkpt lat="46.29597" lon="-0.36996">
        <ele>52.8616</ele>
        <time>2011-07-03T12:53:24Z</time>
      </trkpt>
      <trkpt lat="46.29596" lon="-0.36997">
        <ele>52.861</ele>
        <time>2011-07-03T12:53:25Z</time>
      </trkpt>
      <trkpt lat="46.29596" lon="-0.37">
        <ele>52.8645</ele>
        <time>2011-07-03T12:53:26Z</time>
      </trkpt>
      <trkpt lat="46.29596" lon="-0.37002">
        <ele>52.8698</ele>
        <time>2011-07-03T12:53:27Z</time>
      </trkpt>
      <trkpt lat="46.29596" lon="-0.37004">
        <ele>52.8821</ele>
        <time>2011-07-03T12:53:28Z</time>
      </trkpt>
      <trkpt lat="46.29596" lon="-0.37006">
        <ele>52.894</ele>
        <time>2011-07-03T12:53:29Z</time>
      </trkpt>
      <trkpt lat="46.29595" lon="-0.37008">
        <ele>52.9055</ele>
        <time>2011-07-03T12:53:30Z</time>
      </trkpt>
      <trkpt lat="46.29595" lon="-0.3701">
        <ele>52.9146</ele>
        <time>2011-07-03T12:53:31Z</time>
      </trkpt>
      <trkpt lat="46.29595" lon="-0.37012">
        <ele>52.9238</ele>
        <time>2011-07-03T12:53:32Z</time>
      </trkpt>
      <trkpt lat="46.29595" lon="-0.37013">
        <ele>52.9339</ele>
        <time>2011-07-03T12:53:33Z</time>
      </trkpt>
      <trkpt lat="46.29594" lon="-0.37015">
        <ele>52.9439</ele>
        <time>2011-07-03T12:53:34Z</time>
      </trkpt>
      <trkpt lat="46.29594" lon="-0.37017">
        <ele>52.9548</ele>
        <time>2011-07-03T12:53:35Z</time>
      </trkpt>
      <trkpt lat="46.29594" lon="-0.37019">
        <ele>52.9671</ele>
        <time>2011-07-03T12:53:36Z</time>
      </trkpt>
      <trkpt lat="46.29594" lon="-0.37021">
        <ele>52.9794</ele>
        <time>2011-07-03T12:53:37Z</time>
      </trkpt>
      <trkpt lat="46.29594" lon="-0.37023">
        <ele>52.9914</ele>
        <time>2011-07-03T12:53:38Z</time>
      </trkpt>
      <trkpt lat="46.29594" lon="-0.37025">
        <ele>53.0046</ele>
        <time>2011-07-03T12:53:39Z</time>
      </trkpt>
      <trkpt lat="46.29594" lon="-0.37027">
        <ele>53.0174</ele>
        <time>2011-07-03T12:53:40Z</time>
      </trkpt>
      <trkpt lat="46.29593" lon="-0.37029">
        <ele>53.0286</ele>
        <time>2011-07-03T12:53:41Z</time>
      </trkpt>
      <trkpt lat="46.29594" lon="-0.37031">
        <ele>53.0391</ele>
        <time>2011-07-03T12:53:42Z</time>
      </trkpt>
      <trkpt lat="46.29594" lon="-0.37033">
        <ele>53.0495</ele>
        <time>2011-07-03T12:53:43Z</time>
      </trkpt>
      <trkpt lat="46.29594" lon="-0.37035">
        <ele>53.0581</ele>
        <time>2011-07-03T12:53:44Z</time>
      </trkpt>
      <trkpt lat="46.29594" lon="-0.37036">
        <ele>53.0662</ele>
        <time>2011-07-03T12:53:45Z</time>
      </trkpt>
      <trkpt lat="46.29595" lon="-0.37038">
        <ele>53.0733</ele>
        <time>2011-07-03T12:53:46Z</time>
      </trkpt>
      <trkpt lat="46.29595" lon="-0.3704">
        <ele>53.0805</ele>
        <time>2011-07-03T12:53:47Z</time>
      </trkpt>
      <trkpt lat="46.29595" lon="-0.37042">
        <ele>53.0891</ele>
        <time>2011-07-03T12:53:48Z</time>
      </trkpt>
      <trkpt lat="46.29596" lon="-0.37043">
        <ele>53.0981</ele>
        <time>2011-07-03T12:53:49Z</time>
      </trkpt>
      <trkpt lat="46.29596" lon="-0.37044">
        <ele>53.1047</ele>
        <time>2011-07-03T12:53:50Z</time>
      </trkpt>
      <trkpt lat="46.29597" lon="-0.37046">
        <ele>53.1175</ele>
        <time>2011-07-03T12:53:51Z</time>
      </trkpt>
      <trkpt lat="46.29597" lon="-0.37047">
        <ele>53.1306</ele>
        <time>2011-07-03T12:53:52Z</time>
      </trkpt>
      <trkpt lat="46.29598" lon="-0.37049">
        <ele>53.1465</ele>
        <time>2011-07-03T12:53:53Z</time>
      </trkpt>
      <trkpt lat="46.29598" lon="-0.37051">
        <ele>53.1637</ele>
        <time>2011-07-03T12:53:54Z</time>
      </trkpt>
      <trkpt lat="46.29598" lon="-0.37052">
        <ele>53.1801</ele>
        <time>2011-07-03T12:53:55Z</time>
      </trkpt>
      <trkpt lat="46.29599" lon="-0.37054">
        <ele>53.1923</ele>
        <time>2011-07-03T12:53:56Z</time>
      </trkpt>
      <trkpt lat="46.29599" lon="-0.37055">
        <ele>53.2012</ele>
        <time>2011-07-03T12:53:57Z</time>
      </trkpt>
      <trkpt lat="46.296" lon="-0.37057">
        <ele>53.206</ele>
        <time>2011-07-03T12:53:58Z</time>
      </trkpt>
      <trkpt lat="46.29601" lon="-0.37059">
        <ele>53.2127</ele>
        <time>2011-07-03T12:53:59Z</time>
      </trkpt>
      <trkpt lat="46.29601" lon="-0.3706">
        <ele>53.2203</ele>
        <time>2011-07-03T12:54:00Z</time>
      </trkpt>
      <trkpt lat="46.29602" lon="-0.37062">
        <ele>53.2281</ele>
        <time>2011-07-03T12:54:01Z</time>
      </trkpt>
      <trkpt lat="46.29602" lon="-0.37064">
        <ele>53.2343</ele>
        <time>2011-07-03T12:54:02Z</time>
      </trkpt>
      <trkpt lat="46.29603" lon="-0.37066">
        <ele>53.2418</ele>
        <time>2011-07-03T12:54:03Z</time>
      </trkpt>
      <trkpt lat="46.29604" lon="-0.37068">
        <ele>53.2496</ele>
        <time>2011-07-03T12:54:04Z</time>
      </trkpt>
      <trkpt lat="46.29604" lon="-0.3707">
        <ele>53.2618</ele>
        <time>2011-07-03T12:54:05Z</time>
      </trkpt>
      <trkpt lat="46.29604" lon="-0.37072">
        <ele>53.2784</ele>
        <time>2011-07-03T12:54:06Z</time>
      </trkpt>
      <trkpt lat="46.29604" lon="-0.37074">
        <ele>53.2949</ele>
        <time>2011-07-03T12:54:07Z</time>
      </trkpt>
      <trkpt lat="46.29604" lon="-0.37075">
        <ele>53.3108</ele>
        <time>2011-07-03T12:54:08Z</time>
      </trkpt>
      <trkpt lat="46.29604" lon="-0.37077">
        <ele>53.3272</ele>
        <time>2011-07-03T12:54:09Z</time>
      </trkpt>
      <trkpt lat="46.29604" lon="-0.37079">
        <ele>53.3377</ele>
        <time>2011-07-03T12:54:10Z</time>
      </trkpt>
      <trkpt lat="46.29604" lon="-0.37081">
        <ele>53.3481</ele>
        <time>2011-07-03T12:54:11Z</time>
      </trkpt>
      <trkpt lat="46.29604" lon="-0.37083">
        <ele>53.3592</ele>
        <time>2011-07-03T12:54:12Z</time>
      </trkpt>
      <trkpt lat="46.29604" lon="-0.37085">
        <ele>53.3714</ele>
        <time>2011-07-03T12:54:13Z</time>
      </trkpt>
      <trkpt lat="46.29604" lon="-0.37087">
        <ele>53.3835</ele>
        <time>2011-07-03T12:54:14Z</time>
      </trkpt>
      <trkpt lat="46.29603" lon="-0.3709">
        <ele>53.3927</ele>
        <time>2011-07-03T12:54:15Z</time>
      </trkpt>
      <trkpt lat="46.29603" lon="-0.37092">
        <ele>53.4007</ele>
        <time>2011-07-03T12:54:16Z</time>
      </trkpt>
      <trkpt lat="46.29603" lon="-0.37094">
        <ele>53.4107</ele>
        <time>2011-07-03T12:54:17Z</time>
      </trkpt>
      <trkpt lat="46.29602" lon="-0.37096">
        <ele>53.4189</ele>
        <time>2011-07-03T12:54:18Z</time>
      </trkpt>
      <trkpt lat="46.29602" lon="-0.37097">
        <ele>53.4265</ele>
        <time>2011-07-03T12:54:19Z</time>
      </trkpt>
      <trkpt lat="46.29602" lon="-0.37099">
        <ele>53.4347</ele>
        <time>2011-07-03T12:54:20Z</time>
      </trkpt>
      <trkpt lat="46.29601" lon="-0.37101">
        <ele>53.4463</ele>
        <time>2011-07-03T12:54:21Z</time>
      </trkpt>
      <trkpt lat="46.29601" lon="-0.37103">
        <ele>53.457</ele>
        <time>2011-07-03T12:54:22Z</time>
      </trkpt>
      <trkpt lat="46.296" lon="-0.37105">
        <ele>53.4616</ele>
        <time>2011-07-03T12:54:23Z</time>
      </trkpt>
      <trkpt lat="46.29599" lon="-0.37107">
        <ele>53.4603</ele>
        <time>2011-07-03T12:54:24Z</time>
      </trkpt>
      <trkpt lat="46.29599" lon="-0.37109">
        <ele>53.4634</ele>
        <time>2011-07-03T12:54:25Z</time>
      </trkpt>
      <trkpt lat="46.29598" lon="-0.37111">
        <ele>53.4746</ele>
        <time>2011-07-03T12:54:26Z</time>
      </trkpt>
      <trkpt lat="46.29597" lon="-0.37114">
        <ele>53.4997</ele>
        <time>2011-07-03T12:54:27Z</time>
      </trkpt>
      <trkpt lat="46.29595" lon="-0.37115">
        <ele>53.5321</ele>
        <time>2011-07-03T12:54:28Z</time>
      </trkpt>
      <trkpt lat="46.29594" lon="-0.37117">
        <ele>53.5696</ele>
        <time>2011-07-03T12:54:29Z</time>
      </trkpt>
      <trkpt lat="46.29593" lon="-0.37119">
        <ele>53.6109</ele>
        <time>2011-07-03T12:54:30Z</time>
      </trkpt>
      <trkpt lat="46.29591" lon="-0.37121">
        <ele>53.654</ele>
        <time>2011-07-03T12:54:31Z</time>
      </trkpt>
      <trkpt lat="46.2959" lon="-0.37122">
        <ele>53.6953</ele>
        <time>2011-07-03T12:54:32Z</time>
      </trkpt>
      <trkpt lat="46.2959" lon="-0.37124">
        <ele>53.7384</ele>
        <time>2011-07-03T12:54:33Z</time>
      </trkpt>
      <trkpt lat="46.29589" lon="-0.37126">
        <ele>53.7829</ele>
        <time>2011-07-03T12:54:34Z</time>
      </trkpt>
      <trkpt lat="46.29588" lon="-0.37127">
        <ele>53.8262</ele>
        <time>2011-07-03T12:54:35Z</time>
      </trkpt>
      <trkpt lat="46.29588" lon="-0.37129">
        <ele>53.8714</ele>
        <time>2011-07-03T12:54:36Z</time>
      </trkpt>
      <trkpt lat="46.29588" lon="-0.37131">
        <ele>53.9153</ele>
        <time>2011-07-03T12:54:37Z</time>
      </trkpt>
      <trkpt lat="46.29587" lon="-0.37133">
        <ele>53.9615</ele>
        <time>2011-07-03T12:54:38Z</time>
      </trkpt>
      <trkpt lat="46.29587" lon="-0.37135">
        <ele>54.0073</ele>
        <time>2011-07-03T12:54:39Z</time>
      </trkpt>
      <trkpt lat="46.29586" lon="-0.37136">
        <ele>54.0547</ele>
        <time>2011-07-03T12:54:40Z</time>
      </trkpt>
      <trkpt lat="46.29586" lon="-0.37138">
        <ele>54.1038</ele>
        <time>2011-07-03T12:54:41Z</time>
      </trkpt>
      <trkpt lat="46.29585" lon="-0.3714">
        <ele>54.1535</ele>
        <time>2011-07-03T12:54:42Z</time>
      </trkpt>
      <trkpt lat="46.29585" lon="-0.37141">
        <ele>54.2034</ele>
        <time>2011-07-03T12:54:43Z</time>
      </trkpt>
      <trkpt lat="46.29585" lon="-0.37143">
        <ele>54.2523</ele>
        <time>2011-07-03T12:54:44Z</time>
      </trkpt>
      <trkpt lat="46.29584" lon="-0.37144">
        <ele>54.3005</ele>
        <time>2011-07-03T12:54:45Z</time>
      </trkpt>
      <trkpt lat="46.29583" lon="-0.37146">
        <ele>54.348</ele>
        <time>2011-07-03T12:54:46Z</time>
      </trkpt>
      <trkpt lat="46.29583" lon="-0.37147">
        <ele>54.394</ele>
        <time>2011-07-03T12:54:47Z</time>
      </trkpt>
      <trkpt lat="46.29582" lon="-0.37148">
        <ele>54.4387</ele>
        <time>2011-07-03T12:54:48Z</time>
      </trkpt>
      <trkpt lat="46.29582" lon="-0.3715">
        <ele>54.4826</ele>
        <time>2011-07-03T12:54:49Z</time>
      </trkpt>
      <trkpt lat="46.29582" lon="-0.37151">
        <ele>54.5255</ele>
        <time>2011-07-03T12:54:50Z</time>
      </trkpt>
      <trkpt lat="46.29581" lon="-0.37153">
        <ele>54.5676</ele>
        <time>2011-07-03T12:54:51Z</time>
      </trkpt>
      <trkpt lat="46.29581" lon="-0.37155">
        <ele>54.607</ele>
        <time>2011-07-03T12:54:52Z</time>
      </trkpt>
      <trkpt lat="46.2958" lon="-0.37156">
        <ele>54.6455</ele>
        <time>2011-07-03T12:54:53Z</time>
      </trkpt>
      <trkpt lat="46.2958" lon="-0.37158">
        <ele>54.6824</ele>
        <time>2011-07-03T12:54:54Z</time>
      </trkpt>
      <trkpt lat="46.29579" lon="-0.3716">
        <ele>54.7173</ele>
        <time>2011-07-03T12:54:55Z</time>
      </trkpt>
      <trkpt lat="46.29579" lon="-0.37161">
        <ele>54.7498</ele>
        <time>2011-07-03T12:54:56Z</time>
      </trkpt>
      <trkpt lat="46.29578" lon="-0.37163">
        <ele>54.7831</ele>
        <time>2011-07-03T12:54:57Z</time>
      </trkpt>
      <trkpt lat="46.29578" lon="-0.37164">
        <ele>54.8148</ele>
        <time>2011-07-03T12:54:58Z</time>
      </trkpt>
      <trkpt lat="46.29577" lon="-0.37166">
        <ele>54.8483</ele>
        <time>2011-07-03T12:54:59Z</time>
      </trkpt>
      <trkpt lat="46.29577" lon="-0.37167">
        <ele>54.8825</ele>
        <time>2011-07-03T12:55:00Z</time>
      </trkpt>
      <trkpt lat="46.29577" lon="-0.37169">
        <ele>54.917</ele>
        <time>2011-07-03T12:55:01Z</time>
      </trkpt>
      <trkpt lat="46.29576" lon="-0.3717">
        <ele>54.9491</ele>
        <time>2011-07-03T12:55:02Z</time>
      </trkpt>
      <trkpt lat="46.29575" lon="-0.37172">
        <ele>54.9792</ele>
        <time>2011-07-03T12:55:03Z</time>
      </trkpt>
      <trkpt lat="46.29575" lon="-0.37173">
        <ele>55.0029</ele>
        <time>2011-07-03T12:55:04Z</time>
      </trkpt>
      <trkpt lat="46.29574" lon="-0.37175">
        <ele>55.0459</ele>
        <time>2011-07-03T12:55:05Z</time>
      </trkpt>
      <trkpt lat="46.29573" lon="-0.37177">
        <ele>55.0801</ele>
        <time>2011-07-03T12:55:06Z</time>
      </trkpt>
      <trkpt lat="46.29572" lon="-0.37179">
        <ele>55.153</ele>
        <time>2011-07-03T12:55:07Z</time>
      </trkpt>
      <trkpt lat="46.29571" lon="-0.37181">
        <ele>55.2215</ele>
        <time>2011-07-03T12:55:08Z</time>
      </trkpt>
      <trkpt lat="46.2957" lon="-0.37182">
        <ele>55.2806</ele>
        <time>2011-07-03T12:55:09Z</time>
      </trkpt>
      <trkpt lat="46.2957" lon="-0.37183">
        <ele>55.3202</ele>
        <time>2011-07-03T12:55:10Z</time>
      </trkpt>
      <trkpt lat="46.2957" lon="-0.37185">
        <ele>55.3403</ele>
        <time>2011-07-03T12:55:11Z</time>
      </trkpt>
      <trkpt lat="46.29569" lon="-0.37186">
        <ele>55.3519</ele>
        <time>2011-07-03T12:55:12Z</time>
      </trkpt>
      <trkpt lat="46.29569" lon="-0.37188">
        <ele>55.3561</ele>
        <time>2011-07-03T12:55:13Z</time>
      </trkpt>
      <trkpt lat="46.29569" lon="-0.3719">
        <ele>55.3532</ele>
        <time>2011-07-03T12:55:14Z</time>
      </trkpt>
      <trkpt lat="46.29569" lon="-0.37192">
        <ele>55.3455</ele>
        <time>2011-07-03T12:55:15Z</time>
      </trkpt>
      <trkpt lat="46.29568" lon="-0.37193">
        <ele>55.3378</ele>
        <time>2011-07-03T12:55:16Z</time>
      </trkpt>
      <trkpt lat="46.29567" lon="-0.37195">
        <ele>55.3341</ele>
        <time>2011-07-03T12:55:17Z</time>
      </trkpt>
      <trkpt lat="46.29567" lon="-0.37196">
        <ele>55.3335</ele>
        <time>2011-07-03T12:55:18Z</time>
      </trkpt>
      <trkpt lat="46.29566" lon="-0.37197">
        <ele>55.3327</ele>
        <time>2011-07-03T12:55:19Z</time>
      </trkpt>
      <trkpt lat="46.29565" lon="-0.37199">
        <ele>55.3306</ele>
        <time>2011-07-03T12:55:20Z</time>
      </trkpt>
      <trkpt lat="46.29564" lon="-0.372">
        <ele>55.3279</ele>
        <time>2011-07-03T12:55:21Z</time>
      </trkpt>
      <trkpt lat="46.29563" lon="-0.37201">
        <ele>55.3274</ele>
        <time>2011-07-03T12:55:22Z</time>
      </trkpt>
      <trkpt lat="46.29562" lon="-0.37202">
        <ele>55.3259</ele>
        <time>2011-07-03T12:55:23Z</time>
      </trkpt>
      <trkpt lat="46.29561" lon="-0.37203">
        <ele>55.3217</ele>
        <time>2011-07-03T12:55:24Z</time>
      </trkpt>
      <trkpt lat="46.29559" lon="-0.37204">
        <ele>55.3206</ele>
        <time>2011-07-03T12:55:25Z</time>
      </trkpt>
      <trkpt lat="46.29559" lon="-0.37205">
        <ele>55.3201</ele>
        <time>2011-07-03T12:55:26Z</time>
      </trkpt>
      <trkpt lat="46.29557" lon="-0.37206">
        <ele>55.3205</ele>
        <time>2011-07-03T12:55:27Z</time>
      </trkpt>
      <trkpt lat="46.29557" lon="-0.37207">
        <ele>55.3181</ele>
        <time>2011-07-03T12:55:28Z</time>
      </trkpt>
      <trkpt lat="46.29556" lon="-0.37209">
        <ele>55.312</ele>
        <time>2011-07-03T12:55:29Z</time>
      </trkpt>
      <trkpt lat="46.29555" lon="-0.3721">
        <ele>55.3026</ele>
        <time>2011-07-03T12:55:30Z</time>
      </trkpt>
      <trkpt lat="46.29554" lon="-0.37211">
        <ele>55.2896</ele>
        <time>2011-07-03T12:55:31Z</time>
      </trkpt>
      <trkpt lat="46.29553" lon="-0.37211">
        <ele>55.2764</ele>
        <time>2011-07-03T12:55:32Z</time>
      </trkpt>
      <trkpt lat="46.29553" lon="-0.37212">
        <ele>55.2637</ele>
        <time>2011-07-03T12:55:33Z</time>
      </trkpt>
      <trkpt lat="46.29552" lon="-0.37213">
        <ele>55.2496</ele>
        <time>2011-07-03T12:55:34Z</time>
      </trkpt>
      <trkpt lat="46.2955" lon="-0.37214">
        <ele>55.2378</ele>
        <time>2011-07-03T12:55:35Z</time>
      </trkpt>
      <trkpt lat="46.29549" lon="-0.37215">
        <ele>55.226</ele>
        <time>2011-07-03T12:55:36Z</time>
      </trkpt>
      <trkpt lat="46.29548" lon="-0.37216">
        <ele>55.2182</ele>
        <time>2011-07-03T12:55:37Z</time>
      </trkpt>
      <trkpt lat="46.29547" lon="-0.37217">
        <ele>55.2075</ele>
        <time>2011-07-03T12:55:38Z</time>
      </trkpt>
      <trkpt lat="46.29546" lon="-0.37218">
        <ele>55.1952</ele>
        <time>2011-07-03T12:55:39Z</time>
      </trkpt>
      <trkpt lat="46.29545" lon="-0.37219">
        <ele>55.1775</ele>
        <time>2011-07-03T12:55:40Z</time>
      </trkpt>
      <trkpt lat="46.29544" lon="-0.3722">
        <ele>55.1529</ele>
        <time>2011-07-03T12:55:41Z</time>
      </trkpt>
      <trkpt lat="46.29543" lon="-0.37221">
        <ele>55.1291</ele>
        <time>2011-07-03T12:55:42Z</time>
      </trkpt>
      <trkpt lat="46.29541" lon="-0.37222">
        <ele>55.1062</ele>
        <time>2011-07-03T12:55:43Z</time>
      </trkpt>
      <trkpt lat="46.2954" lon="-0.37223">
        <ele>55.0809</ele>
        <time>2011-07-03T12:55:44Z</time>
      </trkpt>
      <trkpt lat="46.29539" lon="-0.37224">
        <ele>55.0539</ele>
        <time>2011-07-03T12:55:45Z</time>
      </trkpt>
      <trkpt lat="46.29538" lon="-0.37225">
        <ele>55.0282</ele>
        <time>2011-07-03T12:55:46Z</time>
      </trkpt>
      <trkpt lat="46.29536" lon="-0.37226">
        <ele>54.9987</ele>
        <time>2011-07-03T12:55:47Z</time>
      </trkpt>
      <trkpt lat="46.29535" lon="-0.37228">
        <ele>54.9722</ele>
        <time>2011-07-03T12:55:48Z</time>
      </trkpt>
      <trkpt lat="46.29534" lon="-0.37229">
        <ele>54.9419</ele>
        <time>2011-07-03T12:55:49Z</time>
      </trkpt>
      <trkpt lat="46.29533" lon="-0.3723">
        <ele>54.9128</ele>
        <time>2011-07-03T12:55:50Z</time>
      </trkpt>
      <trkpt lat="46.29532" lon="-0.37231">
        <ele>54.8875</ele>
        <time>2011-07-03T12:55:51Z</time>
      </trkpt>
      <trkpt lat="46.2953" lon="-0.37232">
        <ele>54.8627</ele>
        <time>2011-07-03T12:55:52Z</time>
      </trkpt>
      <trkpt lat="46.29529" lon="-0.37233">
        <ele>54.8381</ele>
        <time>2011-07-03T12:55:53Z</time>
      </trkpt>
      <trkpt lat="46.29528" lon="-0.37234">
        <ele>54.8195</ele>
        <time>2011-07-03T12:55:54Z</time>
      </trkpt>
      <trkpt lat="46.29526" lon="-0.37235">
        <ele>54.8013</ele>
        <time>2011-07-03T12:55:55Z</time>
      </trkpt>
      <trkpt lat="46.29525" lon="-0.37236">
        <ele>54.7788</ele>
        <time>2011-07-03T12:55:56Z</time>
      </trkpt>
      <trkpt lat="46.29524" lon="-0.37237">
        <ele>54.7571</ele>
        <time>2011-07-03T12:55:57Z</time>
      </trkpt>
      <trkpt lat="46.29523" lon="-0.37238">
        <ele>54.737</ele>
        <time>2011-07-03T12:55:58Z</time>
      </trkpt>
      <trkpt lat="46.29522" lon="-0.37238">
        <ele>54.7173</ele>
        <time>2011-07-03T12:55:59Z</time>
      </trkpt>
      <trkpt lat="46.2952" lon="-0.37239">
        <ele>54.6945</ele>
        <time>2011-07-03T12:56:00Z</time>
      </trkpt>
      <trkpt lat="46.29519" lon="-0.3724">
        <ele>54.6733</ele>
        <time>2011-07-03T12:56:01Z</time>
      </trkpt>
      <trkpt lat="46.29518" lon="-0.37241">
        <ele>54.649</ele>
        <time>2011-07-03T12:56:02Z</time>
      </trkpt>
      <trkpt lat="46.29517" lon="-0.37242">
        <ele>54.6259</ele>
        <time>2011-07-03T12:56:03Z</time>
      </trkpt>
      <trkpt lat="46.29516" lon="-0.37243">
        <ele>54.6018</ele>
        <time>2011-07-03T12:56:04Z</time>
      </trkpt>
      <trkpt lat="46.29515" lon="-0.37244">
        <ele>54.5801</ele>
        <time>2011-07-03T12:56:05Z</time>
      </trkpt>
      <trkpt lat="46.29514" lon="-0.37245">
        <ele>54.5606</ele>
        <time>2011-07-03T12:56:06Z</time>
      </trkpt>
      <trkpt lat="46.29512" lon="-0.37246">
        <ele>54.5417</ele>
        <time>2011-07-03T12:56:07Z</time>
      </trkpt>
      <trkpt lat="46.29511" lon="-0.37247">
        <ele>54.5233</ele>
        <time>2011-07-03T12:56:08Z</time>
      </trkpt>
      <trkpt lat="46.2951" lon="-0.37248">
        <ele>54.5067</ele>
        <time>2011-07-03T12:56:09Z</time>
      </trkpt>
      <trkpt lat="46.29508" lon="-0.37249">
        <ele>54.491</ele>
        <time>2011-07-03T12:56:10Z</time>
      </trkpt>
      <trkpt lat="46.29507" lon="-0.3725">
        <ele>54.4728</ele>
        <time>2011-07-03T12:56:11Z</time>
      </trkpt>
      <trkpt lat="46.29506" lon="-0.37251">
        <ele>54.4552</ele>
        <time>2011-07-03T12:56:12Z</time>
      </trkpt>
      <trkpt lat="46.29505" lon="-0.37251">
        <ele>54.435</ele>
        <time>2011-07-03T12:56:13Z</time>
      </trkpt>
      <trkpt lat="46.29504" lon="-0.37252">
        <ele>54.4155</ele>
        <time>2011-07-03T12:56:14Z</time>
      </trkpt>
      <trkpt lat="46.29503" lon="-0.37253">
        <ele>54.3955</ele>
        <time>2011-07-03T12:56:15Z</time>
      </trkpt>
      <trkpt lat="46.29501" lon="-0.37254">
        <ele>54.3775</ele>
        <time>2011-07-03T12:56:16Z</time>
      </trkpt>
      <trkpt lat="46.295" lon="-0.37255">
        <ele>54.3605</ele>
        <time>2011-07-03T12:56:17Z</time>
      </trkpt>
      <trkpt lat="46.29499" lon="-0.37256">
        <ele>54.3463</ele>
        <time>2011-07-03T12:56:18Z</time>
      </trkpt>
      <trkpt lat="46.29498" lon="-0.37256">
        <ele>54.3356</ele>
        <time>2011-07-03T12:56:19Z</time>
      </trkpt>
      <trkpt lat="46.29496" lon="-0.37257">
        <ele>54.328</ele>
        <time>2011-07-03T12:56:20Z</time>
      </trkpt>
      <trkpt lat="46.29495" lon="-0.37258">
        <ele>54.3235</ele>
        <time>2011-07-03T12:56:21Z</time>
      </trkpt>
      <trkpt lat="46.29494" lon="-0.37259">
        <ele>54.3192</ele>
        <time>2011-07-03T12:56:22Z</time>
      </trkpt>
      <trkpt lat="46.29493" lon="-0.3726">
        <ele>54.3161</ele>
        <time>2011-07-03T12:56:23Z</time>
      </trkpt>
      <trkpt lat="46.29492" lon="-0.37261">
        <ele>54.3136</ele>
        <time>2011-07-03T12:56:24Z</time>
      </trkpt>
      <trkpt lat="46.29491" lon="-0.37262">
        <ele>54.3118</ele>
        <time>2011-07-03T12:56:25Z</time>
      </trkpt>
      <trkpt lat="46.2949" lon="-0.37263">
        <ele>54.3078</ele>
        <time>2011-07-03T12:56:26Z</time>
      </trkpt>
      <trkpt lat="46.29489" lon="-0.37263">
        <ele>54.2984</ele>
        <time>2011-07-03T12:56:27Z</time>
      </trkpt>
      <trkpt lat="46.29488" lon="-0.37263">
        <ele>54.2862</ele>
        <time>2011-07-03T12:56:28Z</time>
      </trkpt>
      <trkpt lat="46.29487" lon="-0.37264">
        <ele>54.2711</ele>
        <time>2011-07-03T12:56:29Z</time>
      </trkpt>
      <trkpt lat="46.29486" lon="-0.37264">
        <ele>54.255</ele>
        <time>2011-07-03T12:56:30Z</time>
      </trkpt>
      <trkpt lat="46.29484" lon="-0.37265">
        <ele>54.2403</ele>
        <time>2011-07-03T12:56:31Z</time>
      </trkpt>
      <trkpt lat="46.29483" lon="-0.37266">
        <ele>54.2248</ele>
        <time>2011-07-03T12:56:32Z</time>
      </trkpt>
      <trkpt lat="46.29481" lon="-0.37267">
        <ele>54.2093</ele>
        <time>2011-07-03T12:56:33Z</time>
      </trkpt>
      <trkpt lat="46.2948" lon="-0.37268">
        <ele>54.1943</ele>
        <time>2011-07-03T12:56:34Z</time>
      </trkpt>
      <trkpt lat="46.29479" lon="-0.37269">
        <ele>54.1716</ele>
        <time>2011-07-03T12:56:35Z</time>
      </trkpt>
      <trkpt lat="46.29478" lon="-0.3727">
        <ele>54.1472</ele>
        <time>2011-07-03T12:56:36Z</time>
      </trkpt>
      <trkpt lat="46.29477" lon="-0.37271">
        <ele>54.119</ele>
        <time>2011-07-03T12:56:37Z</time>
      </trkpt>
      <trkpt lat="46.29475" lon="-0.37272">
        <ele>54.0848</ele>
        <time>2011-07-03T12:56:38Z</time>
      </trkpt>
      <trkpt lat="46.29475" lon="-0.37273">
        <ele>54.0519</ele>
        <time>2011-07-03T12:56:39Z</time>
      </trkpt>
      <trkpt lat="46.29474" lon="-0.37274">
        <ele>54.0199</ele>
        <time>2011-07-03T12:56:40Z</time>
      </trkpt>
      <trkpt lat="46.29472" lon="-0.37275">
        <ele>53.9883</ele>
        <time>2011-07-03T12:56:41Z</time>
      </trkpt>
      <trkpt lat="46.29471" lon="-0.37276">
        <ele>53.9548</ele>
        <time>2011-07-03T12:56:42Z</time>
      </trkpt>
      <trkpt lat="46.2947" lon="-0.37277">
        <ele>53.9209</ele>
        <time>2011-07-03T12:56:43Z</time>
      </trkpt>
      <trkpt lat="46.29469" lon="-0.37278">
        <ele>53.8893</ele>
        <time>2011-07-03T12:56:44Z</time>
      </trkpt>
      <trkpt lat="46.29468" lon="-0.37279">
        <ele>53.8594</ele>
        <time>2011-07-03T12:56:45Z</time>
      </trkpt>
      <trkpt lat="46.29466" lon="-0.3728">
        <ele>53.8305</ele>
        <time>2011-07-03T12:56:46Z</time>
      </trkpt>
      <trkpt lat="46.29466" lon="-0.37281">
        <ele>53.807</ele>
        <time>2011-07-03T12:56:47Z</time>
      </trkpt>
      <trkpt lat="46.29464" lon="-0.37282">
        <ele>53.7891</ele>
        <time>2011-07-03T12:56:48Z</time>
      </trkpt>
      <trkpt lat="46.29463" lon="-0.37283">
        <ele>53.7767</ele>
        <time>2011-07-03T12:56:49Z</time>
      </trkpt>
      <trkpt lat="46.29462" lon="-0.37283">
        <ele>53.7675</ele>
        <time>2011-07-03T12:56:50Z</time>
      </trkpt>
      <trkpt lat="46.29461" lon="-0.37284">
        <ele>53.7584</ele>
        <time>2011-07-03T12:56:51Z</time>
      </trkpt>
      <trkpt lat="46.29459" lon="-0.37284">
        <ele>53.7484</ele>
        <time>2011-07-03T12:56:52Z</time>
      </trkpt>
      <trkpt lat="46.29458" lon="-0.37284">
        <ele>53.7396</ele>
        <time>2011-07-03T12:56:53Z</time>
      </trkpt>
      <trkpt lat="46.29457" lon="-0.37285">
        <ele>53.732</ele>
        <time>2011-07-03T12:56:54Z</time>
      </trkpt>
      <trkpt lat="46.29456" lon="-0.37286">
        <ele>53.7266</ele>
        <time>2011-07-03T12:56:55Z</time>
      </trkpt>
      <trkpt lat="46.29455" lon="-0.37287">
        <ele>53.7216</ele>
        <time>2011-07-03T12:56:56Z</time>
      </trkpt>
      <trkpt lat="46.29454" lon="-0.37288">
        <ele>53.7168</ele>
        <time>2011-07-03T12:56:57Z</time>
      </trkpt>
      <trkpt lat="46.29453" lon="-0.37289">
        <ele>53.7131</ele>
        <time>2011-07-03T12:56:58Z</time>
      </trkpt>
      <trkpt lat="46.29452" lon="-0.3729">
        <ele>53.7102</ele>
        <time>2011-07-03T12:56:59Z</time>
      </trkpt>
      <trkpt lat="46.29451" lon="-0.37291">
        <ele>53.7083</ele>
        <time>2011-07-03T12:57:00Z</time>
      </trkpt>
      <trkpt lat="46.2945" lon="-0.37292">
        <ele>53.7076</ele>
        <time>2011-07-03T12:57:01Z</time>
      </trkpt>
      <trkpt lat="46.29448" lon="-0.37294">
        <ele>53.7071</ele>
        <time>2011-07-03T12:57:02Z</time>
      </trkpt>
      <trkpt lat="46.29448" lon="-0.37294">
        <ele>53.7063</ele>
        <time>2011-07-03T12:57:03Z</time>
      </trkpt>
      <trkpt lat="46.29446" lon="-0.37295">
        <ele>53.7055</ele>
        <time>2011-07-03T12:57:04Z</time>
      </trkpt>
      <trkpt lat="46.29445" lon="-0.37296">
        <ele>53.7035</ele>
        <time>2011-07-03T12:57:05Z</time>
      </trkpt>
      <trkpt lat="46.29445" lon="-0.37297">
        <ele>53.7</ele>
        <time>2011-07-03T12:57:06Z</time>
      </trkpt>
      <trkpt lat="46.29443" lon="-0.37298">
        <ele>53.6945</ele>
        <time>2011-07-03T12:57:07Z</time>
      </trkpt>
      <trkpt lat="46.29443" lon="-0.37299">
        <ele>53.6858</ele>
        <time>2011-07-03T12:57:08Z</time>
      </trkpt>
      <trkpt lat="46.29442" lon="-0.373">
        <ele>53.6779</ele>
        <time>2011-07-03T12:57:09Z</time>
      </trkpt>
      <trkpt lat="46.29441" lon="-0.37301">
        <ele>53.6695</ele>
        <time>2011-07-03T12:57:10Z</time>
      </trkpt>
      <trkpt lat="46.2944" lon="-0.37302">
        <ele>53.6591</ele>
        <time>2011-07-03T12:57:11Z</time>
      </trkpt>
      <trkpt lat="46.29439" lon="-0.37303">
        <ele>53.6493</ele>
        <time>2011-07-03T12:57:12Z</time>
      </trkpt>
      <trkpt lat="46.29438" lon="-0.37303">
        <ele>53.6399</ele>
        <time>2011-07-03T12:57:13Z</time>
      </trkpt>
      <trkpt lat="46.29437" lon="-0.37304">
        <ele>53.6297</ele>
        <time>2011-07-03T12:57:14Z</time>
      </trkpt>
      <trkpt lat="46.29436" lon="-0.37305">
        <ele>53.6196</ele>
        <time>2011-07-03T12:57:15Z</time>
      </trkpt>
      <trkpt lat="46.29435" lon="-0.37306">
        <ele>53.6096</ele>
        <time>2011-07-03T12:57:16Z</time>
      </trkpt>
      <trkpt lat="46.29434" lon="-0.37307">
        <ele>53.5998</ele>
        <time>2011-07-03T12:57:17Z</time>
      </trkpt>
      <trkpt lat="46.29433" lon="-0.37308">
        <ele>53.5901</ele>
        <time>2011-07-03T12:57:18Z</time>
      </trkpt>
      <trkpt lat="46.29432" lon="-0.37309">
        <ele>53.5805</ele>
        <time>2011-07-03T12:57:19Z</time>
      </trkpt>
      <trkpt lat="46.29431" lon="-0.3731">
        <ele>53.5702</ele>
        <time>2011-07-03T12:57:20Z</time>
      </trkpt>
      <trkpt lat="46.2943" lon="-0.37311">
        <ele>53.5585</ele>
        <time>2011-07-03T12:57:21Z</time>
      </trkpt>
      <trkpt lat="46.29429" lon="-0.37312">
        <ele>53.5458</ele>
        <time>2011-07-03T12:57:22Z</time>
      </trkpt>
      <trkpt lat="46.29428" lon="-0.37313">
        <ele>53.5322</ele>
        <time>2011-07-03T12:57:23Z</time>
      </trkpt>
      <trkpt lat="46.29426" lon="-0.37313">
        <ele>53.5184</ele>
        <time>2011-07-03T12:57:24Z</time>
      </trkpt>
      <trkpt lat="46.29425" lon="-0.37314">
        <ele>53.5031</ele>
        <time>2011-07-03T12:57:25Z</time>
      </trkpt>
      <trkpt lat="46.29424" lon="-0.37314">
        <ele>53.4856</ele>
        <time>2011-07-03T12:57:26Z</time>
      </trkpt>
      <trkpt lat="46.29422" lon="-0.37315">
        <ele>53.4684</ele>
        <time>2011-07-03T12:57:27Z</time>
      </trkpt>
      <trkpt lat="46.29422" lon="-0.37315">
        <ele>53.4467</ele>
        <time>2011-07-03T12:57:28Z</time>
      </trkpt>
      <trkpt lat="46.29421" lon="-0.37316">
        <ele>53.4209</ele>
        <time>2011-07-03T12:57:29Z</time>
      </trkpt>
      <trkpt lat="46.29419" lon="-0.37316">
        <ele>53.395</ele>
        <time>2011-07-03T12:57:30Z</time>
      </trkpt>
      <trkpt lat="46.29418" lon="-0.37316">
        <ele>53.3694</ele>
        <time>2011-07-03T12:57:31Z</time>
      </trkpt>
      <trkpt lat="46.29417" lon="-0.37317">
        <ele>53.3438</ele>
        <time>2011-07-03T12:57:32Z</time>
      </trkpt>
      <trkpt lat="46.29416" lon="-0.37317">
        <ele>53.3207</ele>
        <time>2011-07-03T12:57:33Z</time>
      </trkpt>
      <trkpt lat="46.29414" lon="-0.37317">
        <ele>53.2996</ele>
        <time>2011-07-03T12:57:34Z</time>
      </trkpt>
      <trkpt lat="46.29413" lon="-0.37318">
        <ele>53.281</ele>
        <time>2011-07-03T12:57:35Z</time>
      </trkpt>
      <trkpt lat="46.29411" lon="-0.37319">
        <ele>53.2621</ele>
        <time>2011-07-03T12:57:36Z</time>
      </trkpt>
      <trkpt lat="46.2941" lon="-0.3732">
        <ele>53.244</ele>
        <time>2011-07-03T12:57:37Z</time>
      </trkpt>
      <trkpt lat="46.29409" lon="-0.3732">
        <ele>53.226</ele>
        <time>2011-07-03T12:57:38Z</time>
      </trkpt>
      <trkpt lat="46.29407" lon="-0.37321">
        <ele>53.2082</ele>
        <time>2011-07-03T12:57:39Z</time>
      </trkpt>
      <trkpt lat="46.29406" lon="-0.37322">
        <ele>53.191</ele>
        <time>2011-07-03T12:57:40Z</time>
      </trkpt>
      <trkpt lat="46.29405" lon="-0.37323">
        <ele>53.1748</ele>
        <time>2011-07-03T12:57:41Z</time>
      </trkpt>
      <trkpt lat="46.29403" lon="-0.37324">
        <ele>53.159</ele>
        <time>2011-07-03T12:57:42Z</time>
      </trkpt>
      <trkpt lat="46.29402" lon="-0.37325">
        <ele>53.1433</ele>
        <time>2011-07-03T12:57:43Z</time>
      </trkpt>
      <trkpt lat="46.29401" lon="-0.37326">
        <ele>53.1276</ele>
        <time>2011-07-03T12:57:44Z</time>
      </trkpt>
      <trkpt lat="46.294" lon="-0.37328">
        <ele>53.1117</ele>
        <time>2011-07-03T12:57:45Z</time>
      </trkpt>
      <trkpt lat="46.29398" lon="-0.37328">
        <ele>53.0958</ele>
        <time>2011-07-03T12:57:46Z</time>
      </trkpt>
      <trkpt lat="46.29396" lon="-0.37329">
        <ele>53.0786</ele>
        <time>2011-07-03T12:57:47Z</time>
      </trkpt>
      <trkpt lat="46.29395" lon="-0.3733">
        <ele>53.061</ele>
        <time>2011-07-03T12:57:48Z</time>
      </trkpt>
      <trkpt lat="46.29394" lon="-0.37331">
        <ele>53.044</ele>
        <time>2011-07-03T12:57:49Z</time>
      </trkpt>
      <trkpt lat="46.29393" lon="-0.37332">
        <ele>53.0269</ele>
        <time>2011-07-03T12:57:50Z</time>
      </trkpt>
      <trkpt lat="46.29392" lon="-0.37333">
        <ele>53.0103</ele>
        <time>2011-07-03T12:57:51Z</time>
      </trkpt>
      <trkpt lat="46.2939" lon="-0.37334">
        <ele>52.9938</ele>
        <time>2011-07-03T12:57:52Z</time>
      </trkpt>
      <trkpt lat="46.29389" lon="-0.37335">
        <ele>52.9778</ele>
        <time>2011-07-03T12:57:53Z</time>
      </trkpt>
      <trkpt lat="46.29388" lon="-0.37336">
        <ele>52.9618</ele>
        <time>2011-07-03T12:57:54Z</time>
      </trkpt>
      <trkpt lat="46.29387" lon="-0.37337">
        <ele>52.9472</ele>
        <time>2011-07-03T12:57:55Z</time>
      </trkpt>
      <trkpt lat="46.29386" lon="-0.37337">
        <ele>52.9353</ele>
        <time>2011-07-03T12:57:56Z</time>
      </trkpt>
      <trkpt lat="46.29385" lon="-0.37338">
        <ele>52.9282</ele>
        <time>2011-07-03T12:57:57Z</time>
      </trkpt>
      <trkpt lat="46.29384" lon="-0.37339">
        <ele>52.9218</ele>
        <time>2011-07-03T12:57:58Z</time>
      </trkpt>
      <trkpt lat="46.29383" lon="-0.3734">
        <ele>52.9142</ele>
        <time>2011-07-03T12:57:59Z</time>
      </trkpt>
      <trkpt lat="46.29382" lon="-0.3734">
        <ele>52.9075</ele>
        <time>2011-07-03T12:58:00Z</time>
      </trkpt>
      <trkpt lat="46.29381" lon="-0.37341">
        <ele>52.9023</ele>
        <time>2011-07-03T12:58:01Z</time>
      </trkpt>
      <trkpt lat="46.2938" lon="-0.37342">
        <ele>52.8972</ele>
        <time>2011-07-03T12:58:02Z</time>
      </trkpt>
      <trkpt lat="46.29379" lon="-0.37343">
        <ele>52.8941</ele>
        <time>2011-07-03T12:58:03Z</time>
      </trkpt>
      <trkpt lat="46.29377" lon="-0.37343">
        <ele>52.894</ele>
        <time>2011-07-03T12:58:04Z</time>
      </trkpt>
      <trkpt lat="46.29376" lon="-0.37344">
        <ele>52.8948</ele>
        <time>2011-07-03T12:58:05Z</time>
      </trkpt>
      <trkpt lat="46.29375" lon="-0.37345">
        <ele>52.8951</ele>
        <time>2011-07-03T12:58:06Z</time>
      </trkpt>
      <trkpt lat="46.29374" lon="-0.37345">
        <ele>52.8993</ele>
        <time>2011-07-03T12:58:07Z</time>
      </trkpt>
      <trkpt lat="46.29372" lon="-0.37346">
        <ele>52.9035</ele>
        <time>2011-07-03T12:58:08Z</time>
      </trkpt>
      <trkpt lat="46.29371" lon="-0.37346">
        <ele>52.909</ele>
        <time>2011-07-03T12:58:09Z</time>
      </trkpt>
      <trkpt lat="46.2937" lon="-0.37347">
        <ele>52.918</ele>
        <time>2011-07-03T12:58:10Z</time>
      </trkpt>
      <trkpt lat="46.29369" lon="-0.37348">
        <ele>52.9341</ele>
        <time>2011-07-03T12:58:11Z</time>
      </trkpt>
      <trkpt lat="46.29368" lon="-0.37348">
        <ele>52.9545</ele>
        <time>2011-07-03T12:58:12Z</time>
      </trkpt>
      <trkpt lat="46.29367" lon="-0.37349">
        <ele>52.9776</ele>
        <time>2011-07-03T12:58:13Z</time>
      </trkpt>
      <trkpt lat="46.29366" lon="-0.3735">
        <ele>53.001</ele>
        <time>2011-07-03T12:58:14Z</time>
      </trkpt>
      <trkpt lat="46.29364" lon="-0.37351">
        <ele>53.0246</ele>
        <time>2011-07-03T12:58:15Z</time>
      </trkpt>
      <trkpt lat="46.29363" lon="-0.37351">
        <ele>53.0489</ele>
        <time>2011-07-03T12:58:16Z</time>
      </trkpt>
      <trkpt lat="46.29362" lon="-0.37352">
        <ele>53.0723</ele>
        <time>2011-07-03T12:58:17Z</time>
      </trkpt>
      <trkpt lat="46.29361" lon="-0.37353">
        <ele>53.0957</ele>
        <time>2011-07-03T12:58:18Z</time>
      </trkpt>
      <trkpt lat="46.2936" lon="-0.37354">
        <ele>53.1172</ele>
        <time>2011-07-03T12:58:19Z</time>
      </trkpt>
      <trkpt lat="46.29359" lon="-0.37354">
        <ele>53.1387</ele>
        <time>2011-07-03T12:58:20Z</time>
      </trkpt>
      <trkpt lat="46.29358" lon="-0.37355">
        <ele>53.1594</ele>
        <time>2011-07-03T12:58:21Z</time>
      </trkpt>
      <trkpt lat="46.29356" lon="-0.37356">
        <ele>53.1815</ele>
        <time>2011-07-03T12:58:22Z</time>
      </trkpt>
      <trkpt lat="46.29355" lon="-0.37356">
        <ele>53.2076</ele>
        <time>2011-07-03T12:58:23Z</time>
      </trkpt>
      <trkpt lat="46.29354" lon="-0.37357">
        <ele>53.2345</ele>
        <time>2011-07-03T12:58:24Z</time>
      </trkpt>
      <trkpt lat="46.29353" lon="-0.37357">
        <ele>53.26</ele>
        <time>2011-07-03T12:58:25Z</time>
      </trkpt>
      <trkpt lat="46.29352" lon="-0.37358">
        <ele>53.2856</ele>
        <time>2011-07-03T12:58:26Z</time>
      </trkpt>
      <trkpt lat="46.29351" lon="-0.37359">
        <ele>53.3111</ele>
        <time>2011-07-03T12:58:27Z</time>
      </trkpt>
      <trkpt lat="46.2935" lon="-0.3736">
        <ele>53.3366</ele>
        <time>2011-07-03T12:58:28Z</time>
      </trkpt>
      <trkpt lat="46.29348" lon="-0.37361">
        <ele>53.3625</ele>
        <time>2011-07-03T12:58:29Z</time>
      </trkpt>
      <trkpt lat="46.29347" lon="-0.37361">
        <ele>53.3883</ele>
        <time>2011-07-03T12:58:30Z</time>
      </trkpt>
      <trkpt lat="46.29346" lon="-0.37362">
        <ele>53.4144</ele>
        <time>2011-07-03T12:58:31Z</time>
      </trkpt>
      <trkpt lat="46.29345" lon="-0.37363">
        <ele>53.4417</ele>
        <time>2011-07-03T12:58:32Z</time>
      </trkpt>
      <trkpt lat="46.29343" lon="-0.37364">
        <ele>53.4697</ele>
        <time>2011-07-03T12:58:33Z</time>
      </trkpt>
      <trkpt lat="46.29342" lon="-0.37364">
        <ele>53.4999</ele>
        <time>2011-07-03T12:58:34Z</time>
      </trkpt>
      <trkpt lat="46.29341" lon="-0.37365">
        <ele>53.5313</ele>
        <time>2011-07-03T12:58:35Z</time>
      </trkpt>
      <trkpt lat="46.2934" lon="-0.37366">
        <ele>53.5626</ele>
        <time>2011-07-03T12:58:36Z</time>
      </trkpt>
      <trkpt lat="46.29339" lon="-0.37367">
        <ele>53.5953</ele>
        <time>2011-07-03T12:58:37Z</time>
      </trkpt>
      <trkpt lat="46.29338" lon="-0.37368">
        <ele>53.6296</ele>
        <time>2011-07-03T12:58:38Z</time>
      </trkpt>
      <trkpt lat="46.29336" lon="-0.37368">
        <ele>53.6638</ele>
        <time>2011-07-03T12:58:39Z</time>
      </trkpt>
      <trkpt lat="46.29335" lon="-0.37369">
        <ele>53.6972</ele>
        <time>2011-07-03T12:58:40Z</time>
      </trkpt>
      <trkpt lat="46.29334" lon="-0.37369">
        <ele>53.7316</ele>
        <time>2011-07-03T12:58:41Z</time>
      </trkpt>
      <trkpt lat="46.29333" lon="-0.3737">
        <ele>53.7677</ele>
        <time>2011-07-03T12:58:42Z</time>
      </trkpt>
      <trkpt lat="46.29332" lon="-0.37371">
        <ele>53.805</ele>
        <time>2011-07-03T12:58:43Z</time>
      </trkpt>
      <trkpt lat="46.2933" lon="-0.37372">
        <ele>53.841</ele>
        <time>2011-07-03T12:58:44Z</time>
      </trkpt>
      <trkpt lat="46.29329" lon="-0.37373">
        <ele>53.8784</ele>
        <time>2011-07-03T12:58:45Z</time>
      </trkpt>
      <trkpt lat="46.29328" lon="-0.37374">
        <ele>53.9155</ele>
        <time>2011-07-03T12:58:46Z</time>
      </trkpt>
      <trkpt lat="46.29327" lon="-0.37375">
        <ele>53.9566</ele>
        <time>2011-07-03T12:58:47Z</time>
      </trkpt>
      <trkpt lat="46.29326" lon="-0.37375">
        <ele>54.0004</ele>
        <time>2011-07-03T12:58:48Z</time>
      </trkpt>
      <trkpt lat="46.29326" lon="-0.37376">
        <ele>54.0398</ele>
        <time>2011-07-03T12:58:49Z</time>
      </trkpt>
      <trkpt lat="46.29325" lon="-0.37376">
        <ele>54.0835</ele>
        <time>2011-07-03T12:58:50Z</time>
      </trkpt>
      <trkpt lat="46.29324" lon="-0.37377">
        <ele>54.1001</ele>
        <time>2011-07-03T12:58:51Z</time>
      </trkpt>
      <trkpt lat="46.29322" lon="-0.37377">
        <ele>54.116</ele>
        <time>2011-07-03T12:58:52Z</time>
      </trkpt>
      <trkpt lat="46.29322" lon="-0.37377">
        <ele>54.1338</ele>
        <time>2011-07-03T12:58:53Z</time>
      </trkpt>
      <trkpt lat="46.2932" lon="-0.37378">
        <ele>54.171</ele>
        <time>2011-07-03T12:58:54Z</time>
      </trkpt>
      <trkpt lat="46.29318" lon="-0.37378">
        <ele>54.1913</ele>
        <time>2011-07-03T12:58:55Z</time>
      </trkpt>
      <trkpt lat="46.29316" lon="-0.37378">
        <ele>54.2073</ele>
        <time>2011-07-03T12:58:56Z</time>
      </trkpt>
      <trkpt lat="46.29314" lon="-0.37379">
        <ele>54.2123</ele>
        <time>2011-07-03T12:58:57Z</time>
      </trkpt>
      <trkpt lat="46.29312" lon="-0.37379">
        <ele>54.2237</ele>
        <time>2011-07-03T12:58:58Z</time>
      </trkpt>
      <trkpt lat="46.29311" lon="-0.37379">
        <ele>54.2374</ele>
        <time>2011-07-03T12:58:59Z</time>
      </trkpt>
      <trkpt lat="46.29309" lon="-0.37378">
        <ele>54.2309</ele>
        <time>2011-07-03T12:59:00Z</time>
      </trkpt>
      <trkpt lat="46.29308" lon="-0.37378">
        <ele>54.1995</ele>
        <time>2011-07-03T12:59:01Z</time>
      </trkpt>
      <trkpt lat="46.29307" lon="-0.37378">
        <ele>54.1608</ele>
        <time>2011-07-03T12:59:02Z</time>
      </trkpt>
      <trkpt lat="46.29306" lon="-0.37378">
        <ele>54.115</ele>
        <time>2011-07-03T12:59:03Z</time>
      </trkpt>
      <trkpt lat="46.29305" lon="-0.37379">
        <ele>54.0588</ele>
        <time>2011-07-03T12:59:04Z</time>
      </trkpt>
      <trkpt lat="46.29304" lon="-0.3738">
        <ele>53.9933</ele>
        <time>2011-07-03T12:59:05Z</time>
      </trkpt>
      <trkpt lat="46.29303" lon="-0.3738">
        <ele>53.9285</ele>
        <time>2011-07-03T12:59:06Z</time>
      </trkpt>
      <trkpt lat="46.29302" lon="-0.37381">
        <ele>53.8609</ele>
        <time>2011-07-03T12:59:07Z</time>
      </trkpt>
      <trkpt lat="46.29301" lon="-0.37382">
        <ele>53.7934</ele>
        <time>2011-07-03T12:59:08Z</time>
      </trkpt>
      <trkpt lat="46.293" lon="-0.37383">
        <ele>53.7264</ele>
        <time>2011-07-03T12:59:09Z</time>
      </trkpt>
      <trkpt lat="46.29299" lon="-0.37383">
        <ele>53.6617</ele>
        <time>2011-07-03T12:59:10Z</time>
      </trkpt>
      <trkpt lat="46.29298" lon="-0.37384">
        <ele>53.5982</ele>
        <time>2011-07-03T12:59:11Z</time>
      </trkpt>
      <trkpt lat="46.29297" lon="-0.37384">
        <ele>53.5335</ele>
        <time>2011-07-03T12:59:12Z</time>
      </trkpt>
      <trkpt lat="46.29295" lon="-0.37385">
        <ele>53.4691</ele>
        <time>2011-07-03T12:59:13Z</time>
      </trkpt>
      <trkpt lat="46.29294" lon="-0.37386">
        <ele>53.4093</ele>
        <time>2011-07-03T12:59:14Z</time>
      </trkpt>
      <trkpt lat="46.29293" lon="-0.37386">
        <ele>53.3504</ele>
        <time>2011-07-03T12:59:15Z</time>
      </trkpt>
      <trkpt lat="46.29292" lon="-0.37387">
        <ele>53.2913</ele>
        <time>2011-07-03T12:59:16Z</time>
      </trkpt>
      <trkpt lat="46.29291" lon="-0.37388">
        <ele>53.2333</ele>
        <time>2011-07-03T12:59:17Z</time>
      </trkpt>
      <trkpt lat="46.2929" lon="-0.37388">
        <ele>53.1786</ele>
        <time>2011-07-03T12:59:18Z</time>
      </trkpt>
      <trkpt lat="46.29289" lon="-0.37389">
        <ele>53.1216</ele>
        <time>2011-07-03T12:59:19Z</time>
      </trkpt>
      <trkpt lat="46.29288" lon="-0.37389">
        <ele>53.0592</ele>
        <time>2011-07-03T12:59:20Z</time>
      </trkpt>
      <trkpt lat="46.29287" lon="-0.3739">
        <ele>52.9884</ele>
        <time>2011-07-03T12:59:21Z</time>
      </trkpt>
      <trkpt lat="46.29285" lon="-0.3739">
        <ele>52.9187</ele>
        <time>2011-07-03T12:59:22Z</time>
      </trkpt>
      <trkpt lat="46.29284" lon="-0.37391">
        <ele>52.8471</ele>
        <time>2011-07-03T12:59:23Z</time>
      </trkpt>
      <trkpt lat="46.29284" lon="-0.37391">
        <ele>52.7717</ele>
        <time>2011-07-03T12:59:24Z</time>
      </trkpt>
      <trkpt lat="46.29282" lon="-0.37392">
        <ele>52.7717</ele>
        <time>2011-07-03T12:59:25Z</time>
      </trkpt>
      <trkpt lat="46.29281" lon="-0.37393">
        <ele>52.6984</ele>
        <time>2011-07-03T12:59:26Z</time>
      </trkpt>
      <trkpt lat="46.2928" lon="-0.37394">
        <ele>52.6272</ele>
        <time>2011-07-03T12:59:27Z</time>
      </trkpt>
      <trkpt lat="46.29279" lon="-0.37395">
        <ele>52.5627</ele>
        <time>2011-07-03T12:59:28Z</time>
      </trkpt>
      <trkpt lat="46.29278" lon="-0.37396">
        <ele>52.5001</ele>
        <time>2011-07-03T12:59:29Z</time>
      </trkpt>
      <trkpt lat="46.29277" lon="-0.37396">
        <ele>52.4397</ele>
        <time>2011-07-03T12:59:30Z</time>
      </trkpt>
      <trkpt lat="46.29275" lon="-0.37397">
        <ele>52.3808</ele>
        <time>2011-07-03T12:59:31Z</time>
      </trkpt>
      <trkpt lat="46.29274" lon="-0.37398">
        <ele>52.3252</ele>
        <time>2011-07-03T12:59:32Z</time>
      </trkpt>
      <trkpt lat="46.29273" lon="-0.37398">
        <ele>52.2747</ele>
        <time>2011-07-03T12:59:33Z</time>
      </trkpt>
      <trkpt lat="46.29272" lon="-0.37399">
        <ele>52.2269</ele>
        <time>2011-07-03T12:59:34Z</time>
      </trkpt>
      <trkpt lat="46.29271" lon="-0.374">
        <ele>52.1787</ele>
        <time>2011-07-03T12:59:35Z</time>
      </trkpt>
      <trkpt lat="46.29269" lon="-0.37401">
        <ele>52.13</ele>
        <time>2011-07-03T12:59:36Z</time>
      </trkpt>
      <trkpt lat="46.29269" lon="-0.37402">
        <ele>52.0811</ele>
        <time>2011-07-03T12:59:37Z</time>
      </trkpt>
      <trkpt lat="46.29267" lon="-0.37402">
        <ele>52.0321</ele>
        <time>2011-07-03T12:59:38Z</time>
      </trkpt>
      <trkpt lat="46.29266" lon="-0.37403">
        <ele>51.9827</ele>
        <time>2011-07-03T12:59:39Z</time>
      </trkpt>
      <trkpt lat="46.29265" lon="-0.37404">
        <ele>51.9353</ele>
        <time>2011-07-03T12:59:40Z</time>
      </trkpt>
      <trkpt lat="46.29263" lon="-0.37405">
        <ele>51.8894</ele>
        <time>2011-07-03T12:59:41Z</time>
      </trkpt>
      <trkpt lat="46.29262" lon="-0.37406">
        <ele>51.8447</ele>
        <time>2011-07-03T12:59:42Z</time>
      </trkpt>
      <trkpt lat="46.2926" lon="-0.37407">
        <ele>51.8012</ele>
        <time>2011-07-03T12:59:43Z</time>
      </trkpt>
      <trkpt lat="46.29259" lon="-0.37408">
        <ele>51.7589</ele>
        <time>2011-07-03T12:59:44Z</time>
      </trkpt>
      <trkpt lat="46.29258" lon="-0.37408">
        <ele>51.7195</ele>
        <time>2011-07-03T12:59:45Z</time>
      </trkpt>
      <trkpt lat="46.29256" lon="-0.37409">
        <ele>51.6817</ele>
        <time>2011-07-03T12:59:46Z</time>
      </trkpt>
      <trkpt lat="46.29255" lon="-0.3741">
        <ele>51.6425</ele>
        <time>2011-07-03T12:59:47Z</time>
      </trkpt>
      <trkpt lat="46.29255" lon="-0.3741">
        <ele>51.601</ele>
        <time>2011-07-03T12:59:48Z</time>
      </trkpt>
      <trkpt lat="46.29253" lon="-0.37411">
        <ele>51.5613</ele>
        <time>2011-07-03T12:59:49Z</time>
      </trkpt>
      <trkpt lat="46.29252" lon="-0.37412">
        <ele>51.5189</ele>
        <time>2011-07-03T12:59:50Z</time>
      </trkpt>
      <trkpt lat="46.29251" lon="-0.37413">
        <ele>51.477</ele>
        <time>2011-07-03T12:59:51Z</time>
      </trkpt>
      <trkpt lat="46.2925" lon="-0.37414">
        <ele>51.4328</ele>
        <time>2011-07-03T12:59:52Z</time>
      </trkpt>
      <trkpt lat="46.29248" lon="-0.37414">
        <ele>51.3861</ele>
        <time>2011-07-03T12:59:53Z</time>
      </trkpt>
      <trkpt lat="46.29247" lon="-0.37416">
        <ele>51.3401</ele>
        <time>2011-07-03T12:59:54Z</time>
      </trkpt>
      <trkpt lat="46.29246" lon="-0.37417">
        <ele>51.2953</ele>
        <time>2011-07-03T12:59:55Z</time>
      </trkpt>
      <trkpt lat="46.29244" lon="-0.37418">
        <ele>51.2499</ele>
        <time>2011-07-03T12:59:56Z</time>
      </trkpt>
      <trkpt lat="46.29243" lon="-0.37418">
        <ele>51.2062</ele>
        <time>2011-07-03T12:59:57Z</time>
      </trkpt>
      <trkpt lat="46.29242" lon="-0.37419">
        <ele>51.1641</ele>
        <time>2011-07-03T12:59:58Z</time>
      </trkpt>
      <trkpt lat="46.2924" lon="-0.3742">
        <ele>51.1241</ele>
        <time>2011-07-03T12:59:59Z</time>
      </trkpt>
      <trkpt lat="46.29239" lon="-0.3742">
        <ele>51.0851</ele>
        <time>2011-07-03T13:00:00Z</time>
      </trkpt>
      <trkpt lat="46.29238" lon="-0.37421">
        <ele>51.0471</ele>
        <time>2011-07-03T13:00:01Z</time>
      </trkpt>
      <trkpt lat="46.29237" lon="-0.37422">
        <ele>51.0104</ele>
        <time>2011-07-03T13:00:02Z</time>
      </trkpt>
      <trkpt lat="46.29236" lon="-0.37422">
        <ele>50.9765</ele>
        <time>2011-07-03T13:00:03Z</time>
      </trkpt>
      <trkpt lat="46.29235" lon="-0.37423">
        <ele>50.9443</ele>
        <time>2011-07-03T13:00:04Z</time>
      </trkpt>
      <trkpt lat="46.29234" lon="-0.37424">
        <ele>50.911</ele>
        <time>2011-07-03T13:00:05Z</time>
      </trkpt>
      <trkpt lat="46.29232" lon="-0.37424">
        <ele>50.8795</ele>
        <time>2011-07-03T13:00:06Z</time>
      </trkpt>
      <trkpt lat="46.29231" lon="-0.37425">
        <ele>50.8487</ele>
        <time>2011-07-03T13:00:07Z</time>
      </trkpt>
      <trkpt lat="46.29229" lon="-0.37426">
        <ele>50.8168</ele>
        <time>2011-07-03T13:00:08Z</time>
      </trkpt>
      <trkpt lat="46.29228" lon="-0.37427">
        <ele>50.7869</ele>
        <time>2011-07-03T13:00:09Z</time>
      </trkpt>
      <trkpt lat="46.29227" lon="-0.37427">
        <ele>50.7586</ele>
        <time>2011-07-03T13:00:10Z</time>
      </trkpt>
      <trkpt lat="46.29225" lon="-0.37428">
        <ele>50.7323</ele>
        <time>2011-07-03T13:00:11Z</time>
      </trkpt>
      <trkpt lat="46.29224" lon="-0.37429">
        <ele>50.7085</ele>
        <time>2011-07-03T13:00:12Z</time>
      </trkpt>
      <trkpt lat="46.29223" lon="-0.3743">
        <ele>50.6848</ele>
        <time>2011-07-03T13:00:13Z</time>
      </trkpt>
      <trkpt lat="46.29222" lon="-0.3743">
        <ele>50.6655</ele>
        <time>2011-07-03T13:00:14Z</time>
      </trkpt>
      <trkpt lat="46.29221" lon="-0.37431">
        <ele>50.6484</ele>
        <time>2011-07-03T13:00:15Z</time>
      </trkpt>
      <trkpt lat="46.2922" lon="-0.37431">
        <ele>50.6345</ele>
        <time>2011-07-03T13:00:16Z</time>
      </trkpt>
      <trkpt lat="46.29219" lon="-0.37432">
        <ele>50.6213</ele>
        <time>2011-07-03T13:00:17Z</time>
      </trkpt>
      <trkpt lat="46.29218" lon="-0.37433">
        <ele>50.6051</ele>
        <time>2011-07-03T13:00:18Z</time>
      </trkpt>
      <trkpt lat="46.29216" lon="-0.37434">
        <ele>50.5902</ele>
        <time>2011-07-03T13:00:19Z</time>
      </trkpt>
      <trkpt lat="46.29215" lon="-0.37435">
        <ele>50.5759</ele>
        <time>2011-07-03T13:00:20Z</time>
      </trkpt>
      <trkpt lat="46.29214" lon="-0.37436">
        <ele>50.5616</ele>
        <time>2011-07-03T13:00:21Z</time>
      </trkpt>
      <trkpt lat="46.29213" lon="-0.37437">
        <ele>50.5483</ele>
        <time>2011-07-03T13:00:22Z</time>
      </trkpt>
      <trkpt lat="46.29211" lon="-0.37438">
        <ele>50.535</ele>
        <time>2011-07-03T13:00:23Z</time>
      </trkpt>
      <trkpt lat="46.2921" lon="-0.37438">
        <ele>50.5223</ele>
        <time>2011-07-03T13:00:24Z</time>
      </trkpt>
      <trkpt lat="46.29209" lon="-0.37439">
        <ele>50.5109</ele>
        <time>2011-07-03T13:00:25Z</time>
      </trkpt>
      <trkpt lat="46.29208" lon="-0.3744">
        <ele>50.4999</ele>
        <time>2011-07-03T13:00:26Z</time>
      </trkpt>
      <trkpt lat="46.29207" lon="-0.3744">
        <ele>50.4907</ele>
        <time>2011-07-03T13:00:27Z</time>
      </trkpt>
      <trkpt lat="46.29205" lon="-0.37441">
        <ele>50.4824</ele>
        <time>2011-07-03T13:00:28Z</time>
      </trkpt>
      <trkpt lat="46.29205" lon="-0.37441">
        <ele>50.4749</ele>
        <time>2011-07-03T13:00:29Z</time>
      </trkpt>
      <trkpt lat="46.29203" lon="-0.37442">
        <ele>50.4692</ele>
        <time>2011-07-03T13:00:30Z</time>
      </trkpt>
      <trkpt lat="46.29202" lon="-0.37443">
        <ele>50.4627</ele>
        <time>2011-07-03T13:00:31Z</time>
      </trkpt>
      <trkpt lat="46.29201" lon="-0.37443">
        <ele>50.453</ele>
        <time>2011-07-03T13:00:32Z</time>
      </trkpt>
      <trkpt lat="46.292" lon="-0.37444">
        <ele>50.4378</ele>
        <time>2011-07-03T13:00:33Z</time>
      </trkpt>
      <trkpt lat="46.29199" lon="-0.37445">
        <ele>50.4194</ele>
        <time>2011-07-03T13:00:34Z</time>
      </trkpt>
      <trkpt lat="46.29197" lon="-0.37446">
        <ele>50.3988</ele>
        <time>2011-07-03T13:00:35Z</time>
      </trkpt>
      <trkpt lat="46.29197" lon="-0.37447">
        <ele>50.3755</ele>
        <time>2011-07-03T13:00:36Z</time>
      </trkpt>
      <trkpt lat="46.29195" lon="-0.37447">
        <ele>50.351</ele>
        <time>2011-07-03T13:00:37Z</time>
      </trkpt>
      <trkpt lat="46.29194" lon="-0.37448">
        <ele>50.3269</ele>
        <time>2011-07-03T13:00:38Z</time>
      </trkpt>
      <trkpt lat="46.29193" lon="-0.37449">
        <ele>50.3009</ele>
        <time>2011-07-03T13:00:39Z</time>
      </trkpt>
      <trkpt lat="46.29192" lon="-0.3745">
        <ele>50.2756</ele>
        <time>2011-07-03T13:00:40Z</time>
      </trkpt>
      <trkpt lat="46.2919" lon="-0.3745">
        <ele>50.2513</ele>
        <time>2011-07-03T13:00:41Z</time>
      </trkpt>
      <trkpt lat="46.29189" lon="-0.37451">
        <ele>50.2269</ele>
        <time>2011-07-03T13:00:42Z</time>
      </trkpt>
      <trkpt lat="46.29188" lon="-0.37452">
        <ele>50.2026</ele>
        <time>2011-07-03T13:00:43Z</time>
      </trkpt>
      <trkpt lat="46.29186" lon="-0.37453">
        <ele>50.1784</ele>
        <time>2011-07-03T13:00:44Z</time>
      </trkpt>
      <trkpt lat="46.29185" lon="-0.37454">
        <ele>50.1536</ele>
        <time>2011-07-03T13:00:45Z</time>
      </trkpt>
      <trkpt lat="46.29184" lon="-0.37454">
        <ele>50.1286</ele>
        <time>2011-07-03T13:00:46Z</time>
      </trkpt>
      <trkpt lat="46.29182" lon="-0.37455">
        <ele>50.1036</ele>
        <time>2011-07-03T13:00:47Z</time>
      </trkpt>
      <trkpt lat="46.29181" lon="-0.37455">
        <ele>50.0781</ele>
        <time>2011-07-03T13:00:48Z</time>
      </trkpt>
      <trkpt lat="46.2918" lon="-0.37455">
        <ele>50.0381</ele>
        <time>2011-07-03T13:00:49Z</time>
      </trkpt>
      <trkpt lat="46.29179" lon="-0.37456">
        <ele>49.988</ele>
        <time>2011-07-03T13:00:50Z</time>
      </trkpt>
      <trkpt lat="46.29178" lon="-0.37456">
        <ele>49.934</ele>
        <time>2011-07-03T13:00:51Z</time>
      </trkpt>
      <trkpt lat="46.29177" lon="-0.37457">
        <ele>49.8732</ele>
        <time>2011-07-03T13:00:52Z</time>
      </trkpt>
      <trkpt lat="46.29176" lon="-0.37458">
        <ele>49.8244</ele>
        <time>2011-07-03T13:00:53Z</time>
      </trkpt>
      <trkpt lat="46.29175" lon="-0.37458">
        <ele>49.7828</ele>
        <time>2011-07-03T13:00:54Z</time>
      </trkpt>
      <trkpt lat="46.29174" lon="-0.37459">
        <ele>49.7402</ele>
        <time>2011-07-03T13:00:55Z</time>
      </trkpt>
      <trkpt lat="46.29173" lon="-0.37459">
        <ele>49.699</ele>
        <time>2011-07-03T13:00:56Z</time>
      </trkpt>
      <trkpt lat="46.29171" lon="-0.3746">
        <ele>49.6613</ele>
        <time>2011-07-03T13:00:57Z</time>
      </trkpt>
      <trkpt lat="46.2917" lon="-0.3746">
        <ele>49.6263</ele>
        <time>2011-07-03T13:00:58Z</time>
      </trkpt>
      <trkpt lat="46.29169" lon="-0.37461">
        <ele>49.5901</ele>
        <time>2011-07-03T13:00:59Z</time>
      </trkpt>
      <trkpt lat="46.29168" lon="-0.37461">
        <ele>49.5503</ele>
        <time>2011-07-03T13:01:00Z</time>
      </trkpt>
      <trkpt lat="46.29166" lon="-0.37462">
        <ele>49.5056</ele>
        <time>2011-07-03T13:01:01Z</time>
      </trkpt>
      <trkpt lat="46.29165" lon="-0.37463">
        <ele>49.4681</ele>
        <time>2011-07-03T13:01:02Z</time>
      </trkpt>
      <trkpt lat="46.29163" lon="-0.37465">
        <ele>49.422</ele>
        <time>2011-07-03T13:01:03Z</time>
      </trkpt>
      <trkpt lat="46.29161" lon="-0.37466">
        <ele>49.381</ele>
        <time>2011-07-03T13:01:04Z</time>
      </trkpt>
      <trkpt lat="46.29159" lon="-0.37467">
        <ele>49.381</ele>
        <time>2011-07-03T13:01:05Z</time>
      </trkpt>
      <trkpt lat="46.29158" lon="-0.37468">
        <ele>49.3396</ele>
        <time>2011-07-03T13:01:06Z</time>
      </trkpt>
      <trkpt lat="46.29157" lon="-0.37469">
        <ele>49.292</ele>
        <time>2011-07-03T13:01:07Z</time>
      </trkpt>
      <trkpt lat="46.29156" lon="-0.3747">
        <ele>49.2432</ele>
        <time>2011-07-03T13:01:08Z</time>
      </trkpt>
      <trkpt lat="46.29156" lon="-0.3747">
        <ele>49.1957</ele>
        <time>2011-07-03T13:01:09Z</time>
      </trkpt>
      <trkpt lat="46.29155" lon="-0.37471">
        <ele>49.1588</ele>
        <time>2011-07-03T13:01:10Z</time>
      </trkpt>
      <trkpt lat="46.29155" lon="-0.37471">
        <ele>49.1262</ele>
        <time>2011-07-03T13:01:11Z</time>
      </trkpt>
      <trkpt lat="46.29155" lon="-0.37472">
        <ele>49.0965</ele>
        <time>2011-07-03T13:01:12Z</time>
      </trkpt>
      <trkpt lat="46.29154" lon="-0.37473">
        <ele>49.0714</ele>
        <time>2011-07-03T13:01:13Z</time>
      </trkpt>
      <trkpt lat="46.29153" lon="-0.37474">
        <ele>49.0449</ele>
        <time>2011-07-03T13:01:14Z</time>
      </trkpt>
      <trkpt lat="46.29153" lon="-0.37475">
        <ele>49.0182</ele>
        <time>2011-07-03T13:01:15Z</time>
      </trkpt>
      <trkpt lat="46.29152" lon="-0.37476">
        <ele>48.9912</ele>
        <time>2011-07-03T13:01:16Z</time>
      </trkpt>
      <trkpt lat="46.29152" lon="-0.37477">
        <ele>48.9686</ele>
        <time>2011-07-03T13:01:17Z</time>
      </trkpt>
      <trkpt lat="46.2915" lon="-0.37479">
        <ele>48.945</ele>
        <time>2011-07-03T13:01:18Z</time>
      </trkpt>
      <trkpt lat="46.2915" lon="-0.37481">
        <ele>48.9214</ele>
        <time>2011-07-03T13:01:19Z</time>
      </trkpt>
      <trkpt lat="46.29149" lon="-0.37482">
        <ele>48.8986</ele>
        <time>2011-07-03T13:01:20Z</time>
      </trkpt>
      <trkpt lat="46.29149" lon="-0.37484">
        <ele>48.8728</ele>
        <time>2011-07-03T13:01:21Z</time>
      </trkpt>
      <trkpt lat="46.29148" lon="-0.37486">
        <ele>48.8431</ele>
        <time>2011-07-03T13:01:22Z</time>
      </trkpt>
      <trkpt lat="46.29148" lon="-0.37487">
        <ele>48.8133</ele>
        <time>2011-07-03T13:01:23Z</time>
      </trkpt>
      <trkpt lat="46.29148" lon="-0.37489">
        <ele>48.7847</ele>
        <time>2011-07-03T13:01:24Z</time>
      </trkpt>
      <trkpt lat="46.29147" lon="-0.37491">
        <ele>48.7535</ele>
        <time>2011-07-03T13:01:25Z</time>
      </trkpt>
      <trkpt lat="46.29147" lon="-0.37493">
        <ele>48.7243</ele>
        <time>2011-07-03T13:01:26Z</time>
      </trkpt>
      <trkpt lat="46.29147" lon="-0.37494">
        <ele>48.6964</ele>
        <time>2011-07-03T13:01:27Z</time>
      </trkpt>
      <trkpt lat="46.29147" lon="-0.37496">
        <ele>48.6699</ele>
        <time>2011-07-03T13:01:28Z</time>
      </trkpt>
      <trkpt lat="46.29147" lon="-0.37498">
        <ele>48.6456</ele>
        <time>2011-07-03T13:01:29Z</time>
      </trkpt>
      <trkpt lat="46.29147" lon="-0.37499">
        <ele>48.6213</ele>
        <time>2011-07-03T13:01:30Z</time>
      </trkpt>
      <trkpt lat="46.29147" lon="-0.37501">
        <ele>48.5977</ele>
        <time>2011-07-03T13:01:31Z</time>
      </trkpt>
      <trkpt lat="46.29147" lon="-0.37503">
        <ele>48.5749</ele>
        <time>2011-07-03T13:01:32Z</time>
      </trkpt>
      <trkpt lat="46.29147" lon="-0.37505">
        <ele>48.5561</ele>
        <time>2011-07-03T13:01:33Z</time>
      </trkpt>
      <trkpt lat="46.29147" lon="-0.37507">
        <ele>48.5383</ele>
        <time>2011-07-03T13:01:34Z</time>
      </trkpt>
      <trkpt lat="46.29147" lon="-0.37509">
        <ele>48.5185</ele>
        <time>2011-07-03T13:01:35Z</time>
      </trkpt>
      <trkpt lat="46.29147" lon="-0.37511">
        <ele>48.4975</ele>
        <time>2011-07-03T13:01:36Z</time>
      </trkpt>
      <trkpt lat="46.29147" lon="-0.37512">
        <ele>48.4754</ele>
        <time>2011-07-03T13:01:37Z</time>
      </trkpt>
      <trkpt lat="46.29148" lon="-0.37513">
        <ele>48.4519</ele>
        <time>2011-07-03T13:01:38Z</time>
      </trkpt>
      <trkpt lat="46.29148" lon="-0.37515">
        <ele>48.4278</ele>
        <time>2011-07-03T13:01:39Z</time>
      </trkpt>
      <trkpt lat="46.29148" lon="-0.37516">
        <ele>48.4042</ele>
        <time>2011-07-03T13:01:40Z</time>
      </trkpt>
      <trkpt lat="46.29148" lon="-0.37518">
        <ele>48.381</ele>
        <time>2011-07-03T13:01:41Z</time>
      </trkpt>
      <trkpt lat="46.29148" lon="-0.3752">
        <ele>48.3567</ele>
        <time>2011-07-03T13:01:42Z</time>
      </trkpt>
      <trkpt lat="46.29148" lon="-0.37522">
        <ele>48.3331</ele>
        <time>2011-07-03T13:01:43Z</time>
      </trkpt>
      <trkpt lat="46.29148" lon="-0.37524">
        <ele>48.3061</ele>
        <time>2011-07-03T13:01:44Z</time>
      </trkpt>
      <trkpt lat="46.29148" lon="-0.37526">
        <ele>48.2799</ele>
        <time>2011-07-03T13:01:45Z</time>
      </trkpt>
      <trkpt lat="46.29149" lon="-0.37528">
        <ele>48.2528</ele>
        <time>2011-07-03T13:01:46Z</time>
      </trkpt>
      <trkpt lat="46.29149" lon="-0.3753">
        <ele>48.2258</ele>
        <time>2011-07-03T13:01:47Z</time>
      </trkpt>
      <trkpt lat="46.2915" lon="-0.37532">
        <ele>48.1991</ele>
        <time>2011-07-03T13:01:48Z</time>
      </trkpt>
      <trkpt lat="46.2915" lon="-0.37533">
        <ele>48.1715</ele>
        <time>2011-07-03T13:01:49Z</time>
      </trkpt>
      <trkpt lat="46.2915" lon="-0.37535">
        <ele>48.1443</ele>
        <time>2011-07-03T13:01:50Z</time>
      </trkpt>
      <trkpt lat="46.29151" lon="-0.37537">
        <ele>48.1152</ele>
        <time>2011-07-03T13:01:51Z</time>
      </trkpt>
      <trkpt lat="46.29151" lon="-0.37539">
        <ele>48.0866</ele>
        <time>2011-07-03T13:01:52Z</time>
      </trkpt>
      <trkpt lat="46.29152" lon="-0.37541">
        <ele>48.0578</ele>
        <time>2011-07-03T13:01:53Z</time>
      </trkpt>
      <trkpt lat="46.29152" lon="-0.37543">
        <ele>48.0281</ele>
        <time>2011-07-03T13:01:54Z</time>
      </trkpt>
      <trkpt lat="46.29152" lon="-0.37545">
        <ele>47.9979</ele>
        <time>2011-07-03T13:01:55Z</time>
      </trkpt>
      <trkpt lat="46.29153" lon="-0.37547">
        <ele>47.9673</ele>
        <time>2011-07-03T13:01:56Z</time>
      </trkpt>
      <trkpt lat="46.29153" lon="-0.37549">
        <ele>47.9381</ele>
        <time>2011-07-03T13:01:57Z</time>
      </trkpt>
      <trkpt lat="46.29153" lon="-0.37551">
        <ele>47.9095</ele>
        <time>2011-07-03T13:01:58Z</time>
      </trkpt>
      <trkpt lat="46.29154" lon="-0.37552">
        <ele>47.8814</ele>
        <time>2011-07-03T13:01:59Z</time>
      </trkpt>
      <trkpt lat="46.29154" lon="-0.37554">
        <ele>47.8544</ele>
        <time>2011-07-03T13:02:00Z</time>
      </trkpt>
      <trkpt lat="46.29154" lon="-0.37556">
        <ele>47.8278</ele>
        <time>2011-07-03T13:02:01Z</time>
      </trkpt>
      <trkpt lat="46.29155" lon="-0.37558">
        <ele>47.8018</ele>
        <time>2011-07-03T13:02:02Z</time>
      </trkpt>
      <trkpt lat="46.29155" lon="-0.3756">
        <ele>47.7776</ele>
        <time>2011-07-03T13:02:03Z</time>
      </trkpt>
      <trkpt lat="46.29155" lon="-0.37562">
        <ele>47.7548</ele>
        <time>2011-07-03T13:02:04Z</time>
      </trkpt>
      <trkpt lat="46.29155" lon="-0.37564">
        <ele>47.7304</ele>
        <time>2011-07-03T13:02:05Z</time>
      </trkpt>
      <trkpt lat="46.29155" lon="-0.37566">
        <ele>47.7066</ele>
        <time>2011-07-03T13:02:06Z</time>
      </trkpt>
      <trkpt lat="46.29155" lon="-0.37568">
        <ele>47.6816</ele>
        <time>2011-07-03T13:02:07Z</time>
      </trkpt>
      <trkpt lat="46.29155" lon="-0.3757">
        <ele>47.6574</ele>
        <time>2011-07-03T13:02:08Z</time>
      </trkpt>
      <trkpt lat="46.29155" lon="-0.37572">
        <ele>47.6326</ele>
        <time>2011-07-03T13:02:09Z</time>
      </trkpt>
      <trkpt lat="46.29155" lon="-0.37574">
        <ele>47.6085</ele>
        <time>2011-07-03T13:02:10Z</time>
      </trkpt>
      <trkpt lat="46.29155" lon="-0.37576">
        <ele>47.5832</ele>
        <time>2011-07-03T13:02:11Z</time>
      </trkpt>
      <trkpt lat="46.29155" lon="-0.37578">
        <ele>47.5585</ele>
        <time>2011-07-03T13:02:12Z</time>
      </trkpt>
      <trkpt lat="46.29155" lon="-0.3758">
        <ele>47.5343</ele>
        <time>2011-07-03T13:02:13Z</time>
      </trkpt>
      <trkpt lat="46.29155" lon="-0.37583">
        <ele>47.5094</ele>
        <time>2011-07-03T13:02:14Z</time>
      </trkpt>
      <trkpt lat="46.29156" lon="-0.37585">
        <ele>47.4848</ele>
        <time>2011-07-03T13:02:15Z</time>
      </trkpt>
      <trkpt lat="46.29156" lon="-0.37587">
        <ele>47.4619</ele>
        <time>2011-07-03T13:02:16Z</time>
      </trkpt>
      <trkpt lat="46.29156" lon="-0.37589">
        <ele>47.4395</ele>
        <time>2011-07-03T13:02:17Z</time>
      </trkpt>
      <trkpt lat="46.29157" lon="-0.3759">
        <ele>47.4168</ele>
        <time>2011-07-03T13:02:18Z</time>
      </trkpt>
      <trkpt lat="46.29157" lon="-0.37592">
        <ele>47.3926</ele>
        <time>2011-07-03T13:02:19Z</time>
      </trkpt>
      <trkpt lat="46.29157" lon="-0.37593">
        <ele>47.3697</ele>
        <time>2011-07-03T13:02:20Z</time>
      </trkpt>
      <trkpt lat="46.29157" lon="-0.37595">
        <ele>47.3482</ele>
        <time>2011-07-03T13:02:21Z</time>
      </trkpt>
      <trkpt lat="46.29158" lon="-0.37597">
        <ele>47.3272</ele>
        <time>2011-07-03T13:02:22Z</time>
      </trkpt>
      <trkpt lat="46.29158" lon="-0.37598">
        <ele>47.3067</ele>
        <time>2011-07-03T13:02:23Z</time>
      </trkpt>
      <trkpt lat="46.29158" lon="-0.376">
        <ele>47.2864</ele>
        <time>2011-07-03T13:02:24Z</time>
      </trkpt>
      <trkpt lat="46.29158" lon="-0.37602">
        <ele>47.2659</ele>
        <time>2011-07-03T13:02:25Z</time>
      </trkpt>
      <trkpt lat="46.29158" lon="-0.37604">
        <ele>47.2449</ele>
        <time>2011-07-03T13:02:26Z</time>
      </trkpt>
      <trkpt lat="46.29158" lon="-0.37607">
        <ele>47.2241</ele>
        <time>2011-07-03T13:02:27Z</time>
      </trkpt>
      <trkpt lat="46.29159" lon="-0.37608">
        <ele>47.2082</ele>
        <time>2011-07-03T13:02:28Z</time>
      </trkpt>
      <trkpt lat="46.29159" lon="-0.3761">
        <ele>47.2121</ele>
        <time>2011-07-03T13:02:29Z</time>
      </trkpt>
      <trkpt lat="46.29159" lon="-0.37612">
        <ele>47.232</ele>
        <time>2011-07-03T13:02:30Z</time>
      </trkpt>
      <trkpt lat="46.29159" lon="-0.37614">
        <ele>47.2533</ele>
        <time>2011-07-03T13:02:31Z</time>
      </trkpt>
      <trkpt lat="46.29159" lon="-0.37616">
        <ele>47.285</ele>
        <time>2011-07-03T13:02:32Z</time>
      </trkpt>
      <trkpt lat="46.29159" lon="-0.37618">
        <ele>47.3231</ele>
        <time>2011-07-03T13:02:33Z</time>
      </trkpt>
      <trkpt lat="46.29159" lon="-0.3762">
        <ele>47.3603</ele>
        <time>2011-07-03T13:02:34Z</time>
      </trkpt>
      <trkpt lat="46.29159" lon="-0.37622">
        <ele>47.3978</ele>
        <time>2011-07-03T13:02:35Z</time>
      </trkpt>
      <trkpt lat="46.29159" lon="-0.37625">
        <ele>47.4352</ele>
        <time>2011-07-03T13:02:36Z</time>
      </trkpt>
      <trkpt lat="46.29159" lon="-0.37626">
        <ele>47.4722</ele>
        <time>2011-07-03T13:02:37Z</time>
      </trkpt>
      <trkpt lat="46.2916" lon="-0.37628">
        <ele>47.5087</ele>
        <time>2011-07-03T13:02:38Z</time>
      </trkpt>
      <trkpt lat="46.2916" lon="-0.37629">
        <ele>47.5444</ele>
        <time>2011-07-03T13:02:39Z</time>
      </trkpt>
      <trkpt lat="46.2916" lon="-0.3763">
        <ele>47.5787</ele>
        <time>2011-07-03T13:02:40Z</time>
      </trkpt>
      <trkpt lat="46.29161" lon="-0.37631">
        <ele>47.6115</ele>
        <time>2011-07-03T13:02:41Z</time>
      </trkpt>
      <trkpt lat="46.29162" lon="-0.37633">
        <ele>47.6436</ele>
        <time>2011-07-03T13:02:42Z</time>
      </trkpt>
      <trkpt lat="46.29162" lon="-0.37634">
        <ele>47.6766</ele>
        <time>2011-07-03T13:02:43Z</time>
      </trkpt>
      <trkpt lat="46.29162" lon="-0.37637">
        <ele>47.7082</ele>
        <time>2011-07-03T13:02:44Z</time>
      </trkpt>
      <trkpt lat="46.29162" lon="-0.37639">
        <ele>47.7388</ele>
        <time>2011-07-03T13:02:45Z</time>
      </trkpt>
      <trkpt lat="46.29162" lon="-0.37642">
        <ele>47.7665</ele>
        <time>2011-07-03T13:02:46Z</time>
      </trkpt>
      <trkpt lat="46.29162" lon="-0.37644">
        <ele>47.792</ele>
        <time>2011-07-03T13:02:47Z</time>
      </trkpt>
      <trkpt lat="46.29162" lon="-0.37646">
        <ele>47.8183</ele>
        <time>2011-07-03T13:02:48Z</time>
      </trkpt>
      <trkpt lat="46.29162" lon="-0.37648">
        <ele>47.8409</ele>
        <time>2011-07-03T13:02:49Z</time>
      </trkpt>
      <trkpt lat="46.29162" lon="-0.37649">
        <ele>47.8632</ele>
        <time>2011-07-03T13:02:50Z</time>
      </trkpt>
      <trkpt lat="46.29162" lon="-0.37651">
        <ele>47.8844</ele>
        <time>2011-07-03T13:02:51Z</time>
      </trkpt>
      <trkpt lat="46.29162" lon="-0.37653">
        <ele>47.9062</ele>
        <time>2011-07-03T13:02:52Z</time>
      </trkpt>
      <trkpt lat="46.29162" lon="-0.37655">
        <ele>47.9274</ele>
        <time>2011-07-03T13:02:53Z</time>
      </trkpt>
      <trkpt lat="46.29162" lon="-0.37657">
        <ele>47.947</ele>
        <time>2011-07-03T13:02:54Z</time>
      </trkpt>
      <trkpt lat="46.29163" lon="-0.37658">
        <ele>47.9661</ele>
        <time>2011-07-03T13:02:55Z</time>
      </trkpt>
      <trkpt lat="46.29163" lon="-0.3766">
        <ele>47.9829</ele>
        <time>2011-07-03T13:02:56Z</time>
      </trkpt>
      <trkpt lat="46.29164" lon="-0.37662">
        <ele>47.9994</ele>
        <time>2011-07-03T13:02:57Z</time>
      </trkpt>
      <trkpt lat="46.29164" lon="-0.37664">
        <ele>48.0158</ele>
        <time>2011-07-03T13:02:58Z</time>
      </trkpt>
      <trkpt lat="46.29165" lon="-0.37665">
        <ele>48.0315</ele>
        <time>2011-07-03T13:02:59Z</time>
      </trkpt>
      <trkpt lat="46.29165" lon="-0.37667">
        <ele>48.047</ele>
        <time>2011-07-03T13:03:00Z</time>
      </trkpt>
      <trkpt lat="46.29165" lon="-0.37668">
        <ele>48.062</ele>
        <time>2011-07-03T13:03:01Z</time>
      </trkpt>
      <trkpt lat="46.29166" lon="-0.3767">
        <ele>48.0758</ele>
        <time>2011-07-03T13:03:02Z</time>
      </trkpt>
      <trkpt lat="46.29166" lon="-0.37671">
        <ele>48.0877</ele>
        <time>2011-07-03T13:03:03Z</time>
      </trkpt>
      <trkpt lat="46.29166" lon="-0.37673">
        <ele>48.0986</ele>
        <time>2011-07-03T13:03:04Z</time>
      </trkpt>
      <trkpt lat="46.29167" lon="-0.37675">
        <ele>48.1106</ele>
        <time>2011-07-03T13:03:05Z</time>
      </trkpt>
      <trkpt lat="46.29167" lon="-0.37677">
        <ele>48.125</ele>
        <time>2011-07-03T13:03:06Z</time>
      </trkpt>
      <trkpt lat="46.29167" lon="-0.37679">
        <ele>48.1367</ele>
        <time>2011-07-03T13:03:07Z</time>
      </trkpt>
      <trkpt lat="46.29167" lon="-0.37681">
        <ele>48.1451</ele>
        <time>2011-07-03T13:03:08Z</time>
      </trkpt>
      <trkpt lat="46.29167" lon="-0.37683">
        <ele>48.149</ele>
        <time>2011-07-03T13:03:09Z</time>
      </trkpt>
      <trkpt lat="46.29168" lon="-0.37685">
        <ele>48.1512</ele>
        <time>2011-07-03T13:03:10Z</time>
      </trkpt>
      <trkpt lat="46.29168" lon="-0.37687">
        <ele>48.1529</ele>
        <time>2011-07-03T13:03:11Z</time>
      </trkpt>
      <trkpt lat="46.29168" lon="-0.37689">
        <ele>48.155</ele>
        <time>2011-07-03T13:03:12Z</time>
      </trkpt>
      <trkpt lat="46.29169" lon="-0.3769">
        <ele>48.1583</ele>
        <time>2011-07-03T13:03:13Z</time>
      </trkpt>
      <trkpt lat="46.29169" lon="-0.37692">
        <ele>48.1622</ele>
        <time>2011-07-03T13:03:14Z</time>
      </trkpt>
      <trkpt lat="46.2917" lon="-0.37694">
        <ele>48.1666</ele>
        <time>2011-07-03T13:03:15Z</time>
      </trkpt>
      <trkpt lat="46.2917" lon="-0.37696">
        <ele>48.1735</ele>
        <time>2011-07-03T13:03:16Z</time>
      </trkpt>
      <trkpt lat="46.2917" lon="-0.37698">
        <ele>48.1815</ele>
        <time>2011-07-03T13:03:17Z</time>
      </trkpt>
      <trkpt lat="46.2917" lon="-0.377">
        <ele>48.1902</ele>
        <time>2011-07-03T13:03:18Z</time>
      </trkpt>
      <trkpt lat="46.29171" lon="-0.37702">
        <ele>48.1962</ele>
        <time>2011-07-03T13:03:19Z</time>
      </trkpt>
      <trkpt lat="46.29171" lon="-0.37704">
        <ele>48.2011</ele>
        <time>2011-07-03T13:03:20Z</time>
      </trkpt>
      <trkpt lat="46.29171" lon="-0.37706">
        <ele>48.2062</ele>
        <time>2011-07-03T13:03:21Z</time>
      </trkpt>
      <trkpt lat="46.29171" lon="-0.37708">
        <ele>48.2114</ele>
        <time>2011-07-03T13:03:22Z</time>
      </trkpt>
      <trkpt lat="46.29171" lon="-0.37709">
        <ele>48.2156</ele>
        <time>2011-07-03T13:03:23Z</time>
      </trkpt>
      <trkpt lat="46.29171" lon="-0.37711">
        <ele>48.2202</ele>
        <time>2011-07-03T13:03:24Z</time>
      </trkpt>
      <trkpt lat="46.29172" lon="-0.37713">
        <ele>48.227</ele>
        <time>2011-07-03T13:03:25Z</time>
      </trkpt>
      <trkpt lat="46.29172" lon="-0.37715">
        <ele>48.233</ele>
        <time>2011-07-03T13:03:26Z</time>
      </trkpt>
      <trkpt lat="46.29172" lon="-0.37718">
        <ele>48.2387</ele>
        <time>2011-07-03T13:03:27Z</time>
      </trkpt>
      <trkpt lat="46.29173" lon="-0.3772">
        <ele>48.2461</ele>
        <time>2011-07-03T13:03:28Z</time>
      </trkpt>
      <trkpt lat="46.29173" lon="-0.37721">
        <ele>48.2548</ele>
        <time>2011-07-03T13:03:29Z</time>
      </trkpt>
      <trkpt lat="46.29173" lon="-0.37723">
        <ele>48.2607</ele>
        <time>2011-07-03T13:03:30Z</time>
      </trkpt>
      <trkpt lat="46.29173" lon="-0.37725">
        <ele>48.2666</ele>
        <time>2011-07-03T13:03:31Z</time>
      </trkpt>
      <trkpt lat="46.29173" lon="-0.37727">
        <ele>48.2788</ele>
        <time>2011-07-03T13:03:32Z</time>
      </trkpt>
      <trkpt lat="46.29173" lon="-0.37729">
        <ele>48.2981</ele>
        <time>2011-07-03T13:03:33Z</time>
      </trkpt>
      <trkpt lat="46.29173" lon="-0.37729">
        <ele>48.3439</ele>
        <time>2011-07-03T13:03:34Z</time>
      </trkpt>
      <trkpt lat="46.29173" lon="-0.3773">
        <ele>48.3917</ele>
        <time>2011-07-03T13:03:35Z</time>
      </trkpt>
      <trkpt lat="46.29173" lon="-0.37732">
        <ele>48.4436</ele>
        <time>2011-07-03T13:03:36Z</time>
      </trkpt>
      <trkpt lat="46.29173" lon="-0.37734">
        <ele>48.4943</ele>
        <time>2011-07-03T13:03:37Z</time>
      </trkpt>
      <trkpt lat="46.29173" lon="-0.37736">
        <ele>48.5443</ele>
        <time>2011-07-03T13:03:38Z</time>
      </trkpt>
      <trkpt lat="46.29172" lon="-0.37738">
        <ele>48.5937</ele>
        <time>2011-07-03T13:03:39Z</time>
      </trkpt>
      <trkpt lat="46.29172" lon="-0.3774">
        <ele>48.6403</ele>
        <time>2011-07-03T13:03:40Z</time>
      </trkpt>
      <trkpt lat="46.29172" lon="-0.37743">
        <ele>48.6511</ele>
        <time>2011-07-03T13:03:41Z</time>
      </trkpt>
      <trkpt lat="46.29172" lon="-0.37747">
        <ele>48.644</ele>
        <time>2011-07-03T13:03:42Z</time>
      </trkpt>
      <trkpt lat="46.29172" lon="-0.37749">
        <ele>48.6235</ele>
        <time>2011-07-03T13:03:43Z</time>
      </trkpt>
      <trkpt lat="46.29172" lon="-0.37751">
        <ele>48.6106</ele>
        <time>2011-07-03T13:03:44Z</time>
      </trkpt>
      <trkpt lat="46.29172" lon="-0.37753">
        <ele>48.5965</ele>
        <time>2011-07-03T13:03:45Z</time>
      </trkpt>
      <trkpt lat="46.29172" lon="-0.37755">
        <ele>48.5787</ele>
        <time>2011-07-03T13:03:46Z</time>
      </trkpt>
      <trkpt lat="46.29172" lon="-0.37756">
        <ele>48.5545</ele>
        <time>2011-07-03T13:03:47Z</time>
      </trkpt>
      <trkpt lat="46.29172" lon="-0.37758">
        <ele>48.53</ele>
        <time>2011-07-03T13:03:48Z</time>
      </trkpt>
      <trkpt lat="46.29173" lon="-0.37759">
        <ele>48.5015</ele>
        <time>2011-07-03T13:03:49Z</time>
      </trkpt>
      <trkpt lat="46.29173" lon="-0.3776">
        <ele>48.4711</ele>
        <time>2011-07-03T13:03:50Z</time>
      </trkpt>
      <trkpt lat="46.29173" lon="-0.37761">
        <ele>48.4393</ele>
        <time>2011-07-03T13:03:51Z</time>
      </trkpt>
      <trkpt lat="46.29173" lon="-0.37762">
        <ele>48.4094</ele>
        <time>2011-07-03T13:03:52Z</time>
      </trkpt>
      <trkpt lat="46.29173" lon="-0.37764">
        <ele>48.3788</ele>
        <time>2011-07-03T13:03:53Z</time>
      </trkpt>
      <trkpt lat="46.29173" lon="-0.37766">
        <ele>48.3485</ele>
        <time>2011-07-03T13:03:54Z</time>
      </trkpt>
      <trkpt lat="46.29173" lon="-0.37768">
        <ele>48.317</ele>
        <time>2011-07-03T13:03:55Z</time>
      </trkpt>
      <trkpt lat="46.29174" lon="-0.3777">
        <ele>48.2871</ele>
        <time>2011-07-03T13:03:56Z</time>
      </trkpt>
      <trkpt lat="46.29174" lon="-0.37771">
        <ele>48.258</ele>
        <time>2011-07-03T13:03:57Z</time>
      </trkpt>
      <trkpt lat="46.29174" lon="-0.37773">
        <ele>48.2333</ele>
        <time>2011-07-03T13:03:58Z</time>
      </trkpt>
      <trkpt lat="46.29174" lon="-0.37774">
        <ele>48.2067</ele>
        <time>2011-07-03T13:03:59Z</time>
      </trkpt>
      <trkpt lat="46.29174" lon="-0.37776">
        <ele>48.177</ele>
        <time>2011-07-03T13:04:00Z</time>
      </trkpt>
      <trkpt lat="46.29174" lon="-0.37778">
        <ele>48.1465</ele>
        <time>2011-07-03T13:04:01Z</time>
      </trkpt>
      <trkpt lat="46.29174" lon="-0.3778">
        <ele>48.1148</ele>
        <time>2011-07-03T13:04:02Z</time>
      </trkpt>
      <trkpt lat="46.29175" lon="-0.37781">
        <ele>48.087</ele>
        <time>2011-07-03T13:04:03Z</time>
      </trkpt>
      <trkpt lat="46.29175" lon="-0.37783">
        <ele>48.0601</ele>
        <time>2011-07-03T13:04:04Z</time>
      </trkpt>
      <trkpt lat="46.29175" lon="-0.37785">
        <ele>48.0332</ele>
        <time>2011-07-03T13:04:05Z</time>
      </trkpt>
      <trkpt lat="46.29176" lon="-0.37787">
        <ele>47.9995</ele>
        <time>2011-07-03T13:04:06Z</time>
      </trkpt>
      <trkpt lat="46.29176" lon="-0.37788">
        <ele>47.9643</ele>
        <time>2011-07-03T13:04:07Z</time>
      </trkpt>
      <trkpt lat="46.29176" lon="-0.3779">
        <ele>47.9254</ele>
        <time>2011-07-03T13:04:08Z</time>
      </trkpt>
      <trkpt lat="46.29177" lon="-0.37792">
        <ele>47.8837</ele>
        <time>2011-07-03T13:04:09Z</time>
      </trkpt>
      <trkpt lat="46.29178" lon="-0.37793">
        <ele>47.8424</ele>
        <time>2011-07-03T13:04:10Z</time>
      </trkpt>
      <trkpt lat="46.29178" lon="-0.37795">
        <ele>47.8036</ele>
        <time>2011-07-03T13:04:11Z</time>
      </trkpt>
      <trkpt lat="46.29178" lon="-0.37797">
        <ele>47.7634</ele>
        <time>2011-07-03T13:04:12Z</time>
      </trkpt>
      <trkpt lat="46.29179" lon="-0.37798">
        <ele>47.724</ele>
        <time>2011-07-03T13:04:13Z</time>
      </trkpt>
      <trkpt lat="46.29179" lon="-0.378">
        <ele>47.6886</ele>
        <time>2011-07-03T13:04:14Z</time>
      </trkpt>
      <trkpt lat="46.29179" lon="-0.37802">
        <ele>47.6565</ele>
        <time>2011-07-03T13:04:15Z</time>
      </trkpt>
      <trkpt lat="46.29179" lon="-0.37804">
        <ele>47.6214</ele>
        <time>2011-07-03T13:04:16Z</time>
      </trkpt>
      <trkpt lat="46.29179" lon="-0.37806">
        <ele>47.5882</ele>
        <time>2011-07-03T13:04:17Z</time>
      </trkpt>
      <trkpt lat="46.29179" lon="-0.37808">
        <ele>47.5554</ele>
        <time>2011-07-03T13:04:18Z</time>
      </trkpt>
      <trkpt lat="46.29179" lon="-0.3781">
        <ele>47.5196</ele>
        <time>2011-07-03T13:04:19Z</time>
      </trkpt>
      <trkpt lat="46.2918" lon="-0.37812">
        <ele>47.485</ele>
        <time>2011-07-03T13:04:20Z</time>
      </trkpt>
      <trkpt lat="46.2918" lon="-0.37813">
        <ele>47.4529</ele>
        <time>2011-07-03T13:04:21Z</time>
      </trkpt>
      <trkpt lat="46.2918" lon="-0.37815">
        <ele>47.4246</ele>
        <time>2011-07-03T13:04:22Z</time>
      </trkpt>
      <trkpt lat="46.2918" lon="-0.37817">
        <ele>47.4017</ele>
        <time>2011-07-03T13:04:23Z</time>
      </trkpt>
      <trkpt lat="46.29181" lon="-0.37819">
        <ele>47.3791</ele>
        <time>2011-07-03T13:04:24Z</time>
      </trkpt>
      <trkpt lat="46.29181" lon="-0.37821">
        <ele>47.3601</ele>
        <time>2011-07-03T13:04:25Z</time>
      </trkpt>
      <trkpt lat="46.29181" lon="-0.37822">
        <ele>47.3423</ele>
        <time>2011-07-03T13:04:26Z</time>
      </trkpt>
      <trkpt lat="46.29181" lon="-0.37824">
        <ele>47.3279</ele>
        <time>2011-07-03T13:04:27Z</time>
      </trkpt>
      <trkpt lat="46.29181" lon="-0.37825">
        <ele>47.3208</ele>
        <time>2011-07-03T13:04:28Z</time>
      </trkpt>
      <trkpt lat="46.29181" lon="-0.37827">
        <ele>47.3181</ele>
        <time>2011-07-03T13:04:29Z</time>
      </trkpt>
      <trkpt lat="46.29181" lon="-0.37829">
        <ele>47.3208</ele>
        <time>2011-07-03T13:04:30Z</time>
      </trkpt>
      <trkpt lat="46.29181" lon="-0.3783">
        <ele>47.3232</ele>
        <time>2011-07-03T13:04:31Z</time>
      </trkpt>
      <trkpt lat="46.29181" lon="-0.37832">
        <ele>47.3305</ele>
        <time>2011-07-03T13:04:32Z</time>
      </trkpt>
      <trkpt lat="46.29181" lon="-0.37835">
        <ele>47.3414</ele>
        <time>2011-07-03T13:04:33Z</time>
      </trkpt>
      <trkpt lat="46.29181" lon="-0.37837">
        <ele>47.3576</ele>
        <time>2011-07-03T13:04:34Z</time>
      </trkpt>
      <trkpt lat="46.29181" lon="-0.37839">
        <ele>47.375</ele>
        <time>2011-07-03T13:04:35Z</time>
      </trkpt>
      <trkpt lat="46.29181" lon="-0.37841">
        <ele>47.393</ele>
        <time>2011-07-03T13:04:36Z</time>
      </trkpt>
      <trkpt lat="46.29181" lon="-0.37843">
        <ele>47.4108</ele>
        <time>2011-07-03T13:04:37Z</time>
      </trkpt>
      <trkpt lat="46.29182" lon="-0.37846">
        <ele>47.4278</ele>
        <time>2011-07-03T13:04:38Z</time>
      </trkpt>
      <trkpt lat="46.29182" lon="-0.37848">
        <ele>47.4506</ele>
        <time>2011-07-03T13:04:39Z</time>
      </trkpt>
      <trkpt lat="46.29183" lon="-0.37849">
        <ele>47.4692</ele>
        <time>2011-07-03T13:04:40Z</time>
      </trkpt>
      <trkpt lat="46.29184" lon="-0.37851">
        <ele>47.484</ele>
        <time>2011-07-03T13:04:41Z</time>
      </trkpt>
      <trkpt lat="46.29184" lon="-0.37853">
        <ele>47.4961</ele>
        <time>2011-07-03T13:04:42Z</time>
      </trkpt>
      <trkpt lat="46.29184" lon="-0.37854">
        <ele>47.5095</ele>
        <time>2011-07-03T13:04:43Z</time>
      </trkpt>
      <trkpt lat="46.29185" lon="-0.37856">
        <ele>47.5183</ele>
        <time>2011-07-03T13:04:44Z</time>
      </trkpt>
      <trkpt lat="46.29185" lon="-0.37858">
        <ele>47.5278</ele>
        <time>2011-07-03T13:04:45Z</time>
      </trkpt>
      <trkpt lat="46.29185" lon="-0.37859">
        <ele>47.5357</ele>
        <time>2011-07-03T13:04:46Z</time>
      </trkpt>
      <trkpt lat="46.29185" lon="-0.37861">
        <ele>47.5439</ele>
        <time>2011-07-03T13:04:47Z</time>
      </trkpt>
      <trkpt lat="46.29186" lon="-0.37863">
        <ele>47.5508</ele>
        <time>2011-07-03T13:04:48Z</time>
      </trkpt>
      <trkpt lat="46.29186" lon="-0.37865">
        <ele>47.5572</ele>
        <time>2011-07-03T13:04:49Z</time>
      </trkpt>
      <trkpt lat="46.29186" lon="-0.37867">
        <ele>47.5674</ele>
        <time>2011-07-03T13:04:50Z</time>
      </trkpt>
      <trkpt lat="46.29187" lon="-0.37869">
        <ele>47.5764</ele>
        <time>2011-07-03T13:04:51Z</time>
      </trkpt>
      <trkpt lat="46.29187" lon="-0.3787">
        <ele>47.5842</ele>
        <time>2011-07-03T13:04:52Z</time>
      </trkpt>
      <trkpt lat="46.29187" lon="-0.37871">
        <ele>47.5918</ele>
        <time>2011-07-03T13:04:53Z</time>
      </trkpt>
      <trkpt lat="46.29187" lon="-0.37873">
        <ele>47.5979</ele>
        <time>2011-07-03T13:04:54Z</time>
      </trkpt>
      <trkpt lat="46.29188" lon="-0.37875">
        <ele>47.6049</ele>
        <time>2011-07-03T13:04:55Z</time>
      </trkpt>
      <trkpt lat="46.29188" lon="-0.37877">
        <ele>47.6184</ele>
        <time>2011-07-03T13:04:56Z</time>
      </trkpt>
      <trkpt lat="46.29188" lon="-0.37879">
        <ele>47.6347</ele>
        <time>2011-07-03T13:04:57Z</time>
      </trkpt>
      <trkpt lat="46.29188" lon="-0.3788">
        <ele>47.6466</ele>
        <time>2011-07-03T13:04:58Z</time>
      </trkpt>
      <trkpt lat="46.29188" lon="-0.37882">
        <ele>47.6575</ele>
        <time>2011-07-03T13:04:59Z</time>
      </trkpt>
      <trkpt lat="46.29189" lon="-0.37884">
        <ele>47.6676</ele>
        <time>2011-07-03T13:05:00Z</time>
      </trkpt>
      <trkpt lat="46.29189" lon="-0.37886">
        <ele>47.6779</ele>
        <time>2011-07-03T13:05:01Z</time>
      </trkpt>
      <trkpt lat="46.29189" lon="-0.37888">
        <ele>47.6875</ele>
        <time>2011-07-03T13:05:02Z</time>
      </trkpt>
      <trkpt lat="46.2919" lon="-0.37889">
        <ele>47.698</ele>
        <time>2011-07-03T13:05:03Z</time>
      </trkpt>
      <trkpt lat="46.2919" lon="-0.37891">
        <ele>47.7079</ele>
        <time>2011-07-03T13:05:04Z</time>
      </trkpt>
      <trkpt lat="46.29191" lon="-0.37893">
        <ele>47.7177</ele>
        <time>2011-07-03T13:05:05Z</time>
      </trkpt>
      <trkpt lat="46.29191" lon="-0.37895">
        <ele>47.7276</ele>
        <time>2011-07-03T13:05:06Z</time>
      </trkpt>
      <trkpt lat="46.29192" lon="-0.37897">
        <ele>47.737</ele>
        <time>2011-07-03T13:05:07Z</time>
      </trkpt>
      <trkpt lat="46.29192" lon="-0.37899">
        <ele>47.7458</ele>
        <time>2011-07-03T13:05:08Z</time>
      </trkpt>
      <trkpt lat="46.29192" lon="-0.37901">
        <ele>47.7537</ele>
        <time>2011-07-03T13:05:09Z</time>
      </trkpt>
      <trkpt lat="46.29192" lon="-0.37903">
        <ele>47.7605</ele>
        <time>2011-07-03T13:05:10Z</time>
      </trkpt>
      <trkpt lat="46.29192" lon="-0.37905">
        <ele>47.7677</ele>
        <time>2011-07-03T13:05:11Z</time>
      </trkpt>
      <trkpt lat="46.29192" lon="-0.37906">
        <ele>47.7803</ele>
        <time>2011-07-03T13:05:12Z</time>
      </trkpt>
      <trkpt lat="46.29192" lon="-0.37908">
        <ele>47.7923</ele>
        <time>2011-07-03T13:05:13Z</time>
      </trkpt>
      <trkpt lat="46.29192" lon="-0.3791">
        <ele>47.8104</ele>
        <time>2011-07-03T13:05:14Z</time>
      </trkpt>
      <trkpt lat="46.29192" lon="-0.37912">
        <ele>47.8302</ele>
        <time>2011-07-03T13:05:15Z</time>
      </trkpt>
      <trkpt lat="46.29192" lon="-0.37914">
        <ele>47.8533</ele>
        <time>2011-07-03T13:05:16Z</time>
      </trkpt>
      <trkpt lat="46.29192" lon="-0.37916">
        <ele>47.8787</ele>
        <time>2011-07-03T13:05:17Z</time>
      </trkpt>
      <trkpt lat="46.29192" lon="-0.37918">
        <ele>47.9026</ele>
        <time>2011-07-03T13:05:18Z</time>
      </trkpt>
      <trkpt lat="46.29192" lon="-0.3792">
        <ele>47.925</ele>
        <time>2011-07-03T13:05:19Z</time>
      </trkpt>
      <trkpt lat="46.29192" lon="-0.37922">
        <ele>47.9467</ele>
        <time>2011-07-03T13:05:20Z</time>
      </trkpt>
      <trkpt lat="46.29192" lon="-0.37924">
        <ele>47.9682</ele>
        <time>2011-07-03T13:05:21Z</time>
      </trkpt>
      <trkpt lat="46.29192" lon="-0.37926">
        <ele>47.9891</ele>
        <time>2011-07-03T13:05:22Z</time>
      </trkpt>
      <trkpt lat="46.29192" lon="-0.37927">
        <ele>48.0099</ele>
        <time>2011-07-03T13:05:23Z</time>
      </trkpt>
      <trkpt lat="46.29192" lon="-0.37929">
        <ele>48.0315</ele>
        <time>2011-07-03T13:05:24Z</time>
      </trkpt>
      <trkpt lat="46.29192" lon="-0.37931">
        <ele>48.0536</ele>
        <time>2011-07-03T13:05:25Z</time>
      </trkpt>
      <trkpt lat="46.29192" lon="-0.37933">
        <ele>48.0745</ele>
        <time>2011-07-03T13:05:26Z</time>
      </trkpt>
      <trkpt lat="46.29192" lon="-0.37935">
        <ele>48.0932</ele>
        <time>2011-07-03T13:05:27Z</time>
      </trkpt>
      <trkpt lat="46.29191" lon="-0.37937">
        <ele>48.1126</ele>
        <time>2011-07-03T13:05:28Z</time>
      </trkpt>
      <trkpt lat="46.29191" lon="-0.37939">
        <ele>48.1317</ele>
        <time>2011-07-03T13:05:29Z</time>
      </trkpt>
      <trkpt lat="46.29191" lon="-0.3794">
        <ele>48.1478</ele>
        <time>2011-07-03T13:05:30Z</time>
      </trkpt>
      <trkpt lat="46.29191" lon="-0.37942">
        <ele>48.1643</ele>
        <time>2011-07-03T13:05:31Z</time>
      </trkpt>
      <trkpt lat="46.29191" lon="-0.37944">
        <ele>48.1821</ele>
        <time>2011-07-03T13:05:32Z</time>
      </trkpt>
      <trkpt lat="46.29191" lon="-0.37946">
        <ele>48.1977</ele>
        <time>2011-07-03T13:05:33Z</time>
      </trkpt>
      <trkpt lat="46.29191" lon="-0.37947">
        <ele>48.2128</ele>
        <time>2011-07-03T13:05:34Z</time>
      </trkpt>
      <trkpt lat="46.29191" lon="-0.37949">
        <ele>48.2274</ele>
        <time>2011-07-03T13:05:35Z</time>
      </trkpt>
      <trkpt lat="46.29192" lon="-0.37952">
        <ele>48.2436</ele>
        <time>2011-07-03T13:05:36Z</time>
      </trkpt>
      <trkpt lat="46.29192" lon="-0.37954">
        <ele>48.2595</ele>
        <time>2011-07-03T13:05:37Z</time>
      </trkpt>
      <trkpt lat="46.29192" lon="-0.37956">
        <ele>48.2724</ele>
        <time>2011-07-03T13:05:38Z</time>
      </trkpt>
      <trkpt lat="46.29192" lon="-0.37958">
        <ele>48.2866</ele>
        <time>2011-07-03T13:05:39Z</time>
      </trkpt>
      <trkpt lat="46.29192" lon="-0.3796">
        <ele>48.3031</ele>
        <time>2011-07-03T13:05:40Z</time>
      </trkpt>
      <trkpt lat="46.29192" lon="-0.37961">
        <ele>48.3196</ele>
        <time>2011-07-03T13:05:41Z</time>
      </trkpt>
      <trkpt lat="46.29192" lon="-0.37963">
        <ele>48.3337</ele>
        <time>2011-07-03T13:05:42Z</time>
      </trkpt>
      <trkpt lat="46.29192" lon="-0.37965">
        <ele>48.3518</ele>
        <time>2011-07-03T13:05:43Z</time>
      </trkpt>
      <trkpt lat="46.29192" lon="-0.37967">
        <ele>48.3698</ele>
        <time>2011-07-03T13:05:44Z</time>
      </trkpt>
      <trkpt lat="46.29192" lon="-0.37969">
        <ele>48.3863</ele>
        <time>2011-07-03T13:05:45Z</time>
      </trkpt>
      <trkpt lat="46.29192" lon="-0.37971">
        <ele>48.4026</ele>
        <time>2011-07-03T13:05:46Z</time>
      </trkpt>
      <trkpt lat="46.29192" lon="-0.37973">
        <ele>48.4181</ele>
        <time>2011-07-03T13:05:47Z</time>
      </trkpt>
      <trkpt lat="46.29193" lon="-0.37975">
        <ele>48.4329</ele>
        <time>2011-07-03T13:05:48Z</time>
      </trkpt>
      <trkpt lat="46.29193" lon="-0.37977">
        <ele>48.4498</ele>
        <time>2011-07-03T13:05:49Z</time>
      </trkpt>
      <trkpt lat="46.29193" lon="-0.37979">
        <ele>48.4678</ele>
        <time>2011-07-03T13:05:50Z</time>
      </trkpt>
      <trkpt lat="46.29193" lon="-0.37981">
        <ele>48.4857</ele>
        <time>2011-07-03T13:05:51Z</time>
      </trkpt>
      <trkpt lat="46.29193" lon="-0.37983">
        <ele>48.5043</ele>
        <time>2011-07-03T13:05:52Z</time>
      </trkpt>
      <trkpt lat="46.29194" lon="-0.37986">
        <ele>48.5222</ele>
        <time>2011-07-03T13:05:53Z</time>
      </trkpt>
      <trkpt lat="46.29194" lon="-0.37987">
        <ele>48.539</ele>
        <time>2011-07-03T13:05:54Z</time>
      </trkpt>
      <trkpt lat="46.29194" lon="-0.37989">
        <ele>48.5573</ele>
        <time>2011-07-03T13:05:55Z</time>
      </trkpt>
      <trkpt lat="46.29194" lon="-0.37991">
        <ele>48.5739</ele>
        <time>2011-07-03T13:05:56Z</time>
      </trkpt>
      <trkpt lat="46.29194" lon="-0.37992">
        <ele>48.5898</ele>
        <time>2011-07-03T13:05:57Z</time>
      </trkpt>
      <trkpt lat="46.29195" lon="-0.37994">
        <ele>48.6051</ele>
        <time>2011-07-03T13:05:58Z</time>
      </trkpt>
      <trkpt lat="46.29195" lon="-0.37995">
        <ele>48.6222</ele>
        <time>2011-07-03T13:05:59Z</time>
      </trkpt>
      <trkpt lat="46.29196" lon="-0.37996">
        <ele>48.6415</ele>
        <time>2011-07-03T13:06:00Z</time>
      </trkpt>
      <trkpt lat="46.29196" lon="-0.37998">
        <ele>48.6595</ele>
        <time>2011-07-03T13:06:01Z</time>
      </trkpt>
      <trkpt lat="46.29196" lon="-0.38">
        <ele>48.6763</ele>
        <time>2011-07-03T13:06:02Z</time>
      </trkpt>
      <trkpt lat="46.29196" lon="-0.38002">
        <ele>48.6979</ele>
        <time>2011-07-03T13:06:03Z</time>
      </trkpt>
      <trkpt lat="46.29196" lon="-0.38004">
        <ele>48.718</ele>
        <time>2011-07-03T13:06:04Z</time>
      </trkpt>
      <trkpt lat="46.29196" lon="-0.38006">
        <ele>48.7369</ele>
        <time>2011-07-03T13:06:05Z</time>
      </trkpt>
      <trkpt lat="46.29196" lon="-0.38008">
        <ele>48.7554</ele>
        <time>2011-07-03T13:06:06Z</time>
      </trkpt>
      <trkpt lat="46.29195" lon="-0.3801">
        <ele>48.7726</ele>
        <time>2011-07-03T13:06:07Z</time>
      </trkpt>
      <trkpt lat="46.29196" lon="-0.38013">
        <ele>48.7852</ele>
        <time>2011-07-03T13:06:08Z</time>
      </trkpt>
      <trkpt lat="46.29196" lon="-0.38015">
        <ele>48.7921</ele>
        <time>2011-07-03T13:06:09Z</time>
      </trkpt>
      <trkpt lat="46.29196" lon="-0.38017">
        <ele>48.8001</ele>
        <time>2011-07-03T13:06:10Z</time>
      </trkpt>
      <trkpt lat="46.29196" lon="-0.38018">
        <ele>48.8005</ele>
        <time>2011-07-03T13:06:11Z</time>
      </trkpt>
      <trkpt lat="46.29196" lon="-0.3802">
        <ele>48.7991</ele>
        <time>2011-07-03T13:06:12Z</time>
      </trkpt>
      <trkpt lat="46.29197" lon="-0.38021">
        <ele>48.7981</ele>
        <time>2011-07-03T13:06:13Z</time>
      </trkpt>
      <trkpt lat="46.29197" lon="-0.38023">
        <ele>48.7988</ele>
        <time>2011-07-03T13:06:14Z</time>
      </trkpt>
      <trkpt lat="46.29197" lon="-0.38024">
        <ele>48.7991</ele>
        <time>2011-07-03T13:06:15Z</time>
      </trkpt>
      <trkpt lat="46.29197" lon="-0.38026">
        <ele>48.7995</ele>
        <time>2011-07-03T13:06:16Z</time>
      </trkpt>
      <trkpt lat="46.29197" lon="-0.38027">
        <ele>48.8001</ele>
        <time>2011-07-03T13:06:17Z</time>
      </trkpt>
      <trkpt lat="46.29197" lon="-0.38029">
        <ele>48.8018</ele>
        <time>2011-07-03T13:06:18Z</time>
      </trkpt>
      <trkpt lat="46.29197" lon="-0.38031">
        <ele>48.8025</ele>
        <time>2011-07-03T13:06:19Z</time>
      </trkpt>
      <trkpt lat="46.29197" lon="-0.38032">
        <ele>48.8044</ele>
        <time>2011-07-03T13:06:20Z</time>
      </trkpt>
      <trkpt lat="46.29197" lon="-0.38034">
        <ele>48.8063</ele>
        <time>2011-07-03T13:06:21Z</time>
      </trkpt>
      <trkpt lat="46.29197" lon="-0.38036">
        <ele>48.8089</ele>
        <time>2011-07-03T13:06:22Z</time>
      </trkpt>
      <trkpt lat="46.29197" lon="-0.38038">
        <ele>48.8118</ele>
        <time>2011-07-03T13:06:23Z</time>
      </trkpt>
      <trkpt lat="46.29197" lon="-0.38039">
        <ele>48.8142</ele>
        <time>2011-07-03T13:06:24Z</time>
      </trkpt>
      <trkpt lat="46.29198" lon="-0.38041">
        <ele>48.8179</ele>
        <time>2011-07-03T13:06:25Z</time>
      </trkpt>
      <trkpt lat="46.29198" lon="-0.38043">
        <ele>48.8197</ele>
        <time>2011-07-03T13:06:26Z</time>
      </trkpt>
      <trkpt lat="46.29199" lon="-0.38045">
        <ele>48.8223</ele>
        <time>2011-07-03T13:06:27Z</time>
      </trkpt>
      <trkpt lat="46.29198" lon="-0.38047">
        <ele>48.8211</ele>
        <time>2011-07-03T13:06:28Z</time>
      </trkpt>
      <trkpt lat="46.29198" lon="-0.38048">
        <ele>48.8151</ele>
        <time>2011-07-03T13:06:29Z</time>
      </trkpt>
      <trkpt lat="46.29198" lon="-0.3805">
        <ele>48.8069</ele>
        <time>2011-07-03T13:06:30Z</time>
      </trkpt>
      <trkpt lat="46.29197" lon="-0.38052">
        <ele>48.7954</ele>
        <time>2011-07-03T13:06:31Z</time>
      </trkpt>
      <trkpt lat="46.29197" lon="-0.38054">
        <ele>48.7846</ele>
        <time>2011-07-03T13:06:32Z</time>
      </trkpt>
      <trkpt lat="46.29197" lon="-0.38055">
        <ele>48.7712</ele>
        <time>2011-07-03T13:06:33Z</time>
      </trkpt>
      <trkpt lat="46.29197" lon="-0.38057">
        <ele>48.76</ele>
        <time>2011-07-03T13:06:34Z</time>
      </trkpt>
      <trkpt lat="46.29197" lon="-0.38059">
        <ele>48.7456</ele>
        <time>2011-07-03T13:06:35Z</time>
      </trkpt>
      <trkpt lat="46.29197" lon="-0.3806">
        <ele>48.7276</ele>
        <time>2011-07-03T13:06:36Z</time>
      </trkpt>
      <trkpt lat="46.29197" lon="-0.38062">
        <ele>48.7075</ele>
        <time>2011-07-03T13:06:37Z</time>
      </trkpt>
      <trkpt lat="46.29197" lon="-0.38064">
        <ele>48.685</ele>
        <time>2011-07-03T13:06:38Z</time>
      </trkpt>
      <trkpt lat="46.29197" lon="-0.38065">
        <ele>48.6605</ele>
        <time>2011-07-03T13:06:39Z</time>
      </trkpt>
      <trkpt lat="46.29197" lon="-0.38067">
        <ele>48.6338</ele>
        <time>2011-07-03T13:06:40Z</time>
      </trkpt>
      <trkpt lat="46.29197" lon="-0.38069">
        <ele>48.606</ele>
        <time>2011-07-03T13:06:41Z</time>
      </trkpt>
      <trkpt lat="46.29198" lon="-0.38071">
        <ele>48.5776</ele>
        <time>2011-07-03T13:06:42Z</time>
      </trkpt>
      <trkpt lat="46.29198" lon="-0.38073">
        <ele>48.546</ele>
        <time>2011-07-03T13:06:43Z</time>
      </trkpt>
      <trkpt lat="46.29198" lon="-0.38075">
        <ele>48.5126</ele>
        <time>2011-07-03T13:06:44Z</time>
      </trkpt>
      <trkpt lat="46.29198" lon="-0.38076">
        <ele>48.4774</ele>
        <time>2011-07-03T13:06:45Z</time>
      </trkpt>
      <trkpt lat="46.29199" lon="-0.38078">
        <ele>48.4404</ele>
        <time>2011-07-03T13:06:46Z</time>
      </trkpt>
      <trkpt lat="46.29199" lon="-0.3808">
        <ele>48.4047</ele>
        <time>2011-07-03T13:06:47Z</time>
      </trkpt>
      <trkpt lat="46.29199" lon="-0.38082">
        <ele>48.3678</ele>
        <time>2011-07-03T13:06:48Z</time>
      </trkpt>
      <trkpt lat="46.29199" lon="-0.38084">
        <ele>48.3303</ele>
        <time>2011-07-03T13:06:49Z</time>
      </trkpt>
      <trkpt lat="46.29199" lon="-0.38086">
        <ele>48.2924</ele>
        <time>2011-07-03T13:06:50Z</time>
      </trkpt>
      <trkpt lat="46.29199" lon="-0.38088">
        <ele>48.2528</ele>
        <time>2011-07-03T13:06:51Z</time>
      </trkpt>
      <trkpt lat="46.292" lon="-0.3809">
        <ele>48.2144</ele>
        <time>2011-07-03T13:06:52Z</time>
      </trkpt>
      <trkpt lat="46.292" lon="-0.38092">
        <ele>48.1771</ele>
        <time>2011-07-03T13:06:53Z</time>
      </trkpt>
      <trkpt lat="46.292" lon="-0.38094">
        <ele>48.1397</ele>
        <time>2011-07-03T13:06:54Z</time>
      </trkpt>
      <trkpt lat="46.292" lon="-0.38096">
        <ele>48.1022</ele>
        <time>2011-07-03T13:06:55Z</time>
      </trkpt>
      <trkpt lat="46.292" lon="-0.38098">
        <ele>48.0642</ele>
        <time>2011-07-03T13:06:56Z</time>
      </trkpt>
      <trkpt lat="46.292" lon="-0.38099">
        <ele>48.0244</ele>
        <time>2011-07-03T13:06:57Z</time>
      </trkpt>
      <trkpt lat="46.292" lon="-0.38101">
        <ele>47.9865</ele>
        <time>2011-07-03T13:06:58Z</time>
      </trkpt>
      <trkpt lat="46.29201" lon="-0.38102">
        <ele>47.9509</ele>
        <time>2011-07-03T13:06:59Z</time>
      </trkpt>
      <trkpt lat="46.29201" lon="-0.38104">
        <ele>47.9169</ele>
        <time>2011-07-03T13:07:00Z</time>
      </trkpt>
      <trkpt lat="46.29201" lon="-0.38105">
        <ele>47.8833</ele>
        <time>2011-07-03T13:07:01Z</time>
      </trkpt>
      <trkpt lat="46.29201" lon="-0.38106">
        <ele>47.851</ele>
        <time>2011-07-03T13:07:02Z</time>
      </trkpt>
      <trkpt lat="46.29202" lon="-0.38108">
        <ele>47.8183</ele>
        <time>2011-07-03T13:07:03Z</time>
      </trkpt>
      <trkpt lat="46.29202" lon="-0.3811">
        <ele>47.7784</ele>
        <time>2011-07-03T13:07:04Z</time>
      </trkpt>
      <trkpt lat="46.29202" lon="-0.38112">
        <ele>47.7265</ele>
        <time>2011-07-03T13:07:05Z</time>
      </trkpt>
      <trkpt lat="46.29202" lon="-0.38114">
        <ele>47.6758</ele>
        <time>2011-07-03T13:07:06Z</time>
      </trkpt>
      <trkpt lat="46.29203" lon="-0.38116">
        <ele>47.6255</ele>
        <time>2011-07-03T13:07:07Z</time>
      </trkpt>
      <trkpt lat="46.29204" lon="-0.38118">
        <ele>47.5728</ele>
        <time>2011-07-03T13:07:08Z</time>
      </trkpt>
      <trkpt lat="46.29205" lon="-0.3812">
        <ele>47.522</ele>
        <time>2011-07-03T13:07:09Z</time>
      </trkpt>
      <trkpt lat="46.29205" lon="-0.38122">
        <ele>47.4732</ele>
        <time>2011-07-03T13:07:10Z</time>
      </trkpt>
      <trkpt lat="46.29205" lon="-0.38124">
        <ele>47.4248</ele>
        <time>2011-07-03T13:07:11Z</time>
      </trkpt>
      <trkpt lat="46.29205" lon="-0.38126">
        <ele>47.3773</ele>
        <time>2011-07-03T13:07:12Z</time>
      </trkpt>
      <trkpt lat="46.29206" lon="-0.38128">
        <ele>47.33</ele>
        <time>2011-07-03T13:07:13Z</time>
      </trkpt>
      <trkpt lat="46.29206" lon="-0.3813">
        <ele>47.2859</ele>
        <time>2011-07-03T13:07:14Z</time>
      </trkpt>
      <trkpt lat="46.29206" lon="-0.38131">
        <ele>47.2428</ele>
        <time>2011-07-03T13:07:15Z</time>
      </trkpt>
      <trkpt lat="46.29206" lon="-0.38133">
        <ele>47.2013</ele>
        <time>2011-07-03T13:07:16Z</time>
      </trkpt>
      <trkpt lat="46.29207" lon="-0.38135">
        <ele>47.1603</ele>
        <time>2011-07-03T13:07:17Z</time>
      </trkpt>
      <trkpt lat="46.29207" lon="-0.38137">
        <ele>47.1198</ele>
        <time>2011-07-03T13:07:18Z</time>
      </trkpt>
      <trkpt lat="46.29207" lon="-0.38139">
        <ele>47.0799</ele>
        <time>2011-07-03T13:07:19Z</time>
      </trkpt>
      <trkpt lat="46.29207" lon="-0.38141">
        <ele>47.0406</ele>
        <time>2011-07-03T13:07:20Z</time>
      </trkpt>
      <trkpt lat="46.29207" lon="-0.38143">
        <ele>47.0026</ele>
        <time>2011-07-03T13:07:21Z</time>
      </trkpt>
      <trkpt lat="46.29208" lon="-0.38145">
        <ele>46.9658</ele>
        <time>2011-07-03T13:07:22Z</time>
      </trkpt>
      <trkpt lat="46.29208" lon="-0.38146">
        <ele>46.9311</ele>
        <time>2011-07-03T13:07:23Z</time>
      </trkpt>
      <trkpt lat="46.29208" lon="-0.38148">
        <ele>46.8973</ele>
        <time>2011-07-03T13:07:24Z</time>
      </trkpt>
      <trkpt lat="46.29209" lon="-0.3815">
        <ele>46.8643</ele>
        <time>2011-07-03T13:07:25Z</time>
      </trkpt>
      <trkpt lat="46.29209" lon="-0.38152">
        <ele>46.8299</ele>
        <time>2011-07-03T13:07:26Z</time>
      </trkpt>
      <trkpt lat="46.2921" lon="-0.38154">
        <ele>46.7996</ele>
        <time>2011-07-03T13:07:27Z</time>
      </trkpt>
      <trkpt lat="46.29211" lon="-0.38156">
        <ele>46.7713</ele>
        <time>2011-07-03T13:07:28Z</time>
      </trkpt>
      <trkpt lat="46.29211" lon="-0.38157">
        <ele>46.7439</ele>
        <time>2011-07-03T13:07:29Z</time>
      </trkpt>
      <trkpt lat="46.29212" lon="-0.38159">
        <ele>46.7175</ele>
        <time>2011-07-03T13:07:30Z</time>
      </trkpt>
      <trkpt lat="46.29212" lon="-0.38162">
        <ele>46.688</ele>
        <time>2011-07-03T13:07:31Z</time>
      </trkpt>
      <trkpt lat="46.29213" lon="-0.38164">
        <ele>46.6551</ele>
        <time>2011-07-03T13:07:32Z</time>
      </trkpt>
      <trkpt lat="46.29213" lon="-0.38166">
        <ele>46.6189</ele>
        <time>2011-07-03T13:07:33Z</time>
      </trkpt>
      <trkpt lat="46.29213" lon="-0.38168">
        <ele>46.5837</ele>
        <time>2011-07-03T13:07:34Z</time>
      </trkpt>
      <trkpt lat="46.29214" lon="-0.3817">
        <ele>46.55</ele>
        <time>2011-07-03T13:07:35Z</time>
      </trkpt>
      <trkpt lat="46.29214" lon="-0.38173">
        <ele>46.5184</ele>
        <time>2011-07-03T13:07:36Z</time>
      </trkpt>
      <trkpt lat="46.29215" lon="-0.38175">
        <ele>46.4877</ele>
        <time>2011-07-03T13:07:37Z</time>
      </trkpt>
      <trkpt lat="46.29215" lon="-0.38177">
        <ele>46.4578</ele>
        <time>2011-07-03T13:07:38Z</time>
      </trkpt>
      <trkpt lat="46.29215" lon="-0.38179">
        <ele>46.4277</ele>
        <time>2011-07-03T13:07:39Z</time>
      </trkpt>
      <trkpt lat="46.29216" lon="-0.38181">
        <ele>46.3979</ele>
        <time>2011-07-03T13:07:40Z</time>
      </trkpt>
      <trkpt lat="46.29216" lon="-0.38183">
        <ele>46.3688</ele>
        <time>2011-07-03T13:07:41Z</time>
      </trkpt>
      <trkpt lat="46.29216" lon="-0.38184">
        <ele>46.3364</ele>
        <time>2011-07-03T13:07:42Z</time>
      </trkpt>
      <trkpt lat="46.29216" lon="-0.38186">
        <ele>46.3044</ele>
        <time>2011-07-03T13:07:43Z</time>
      </trkpt>
      <trkpt lat="46.29216" lon="-0.38188">
        <ele>46.2716</ele>
        <time>2011-07-03T13:07:44Z</time>
      </trkpt>
      <trkpt lat="46.29216" lon="-0.3819">
        <ele>46.232</ele>
        <time>2011-07-03T13:07:45Z</time>
      </trkpt>
      <trkpt lat="46.29216" lon="-0.38192">
        <ele>46.1841</ele>
        <time>2011-07-03T13:07:46Z</time>
      </trkpt>
      <trkpt lat="46.29216" lon="-0.38195">
        <ele>46.1388</ele>
        <time>2011-07-03T13:07:47Z</time>
      </trkpt>
      <trkpt lat="46.29216" lon="-0.38197">
        <ele>46.0939</ele>
        <time>2011-07-03T13:07:48Z</time>
      </trkpt>
      <trkpt lat="46.29216" lon="-0.38199">
        <ele>46.0516</ele>
        <time>2011-07-03T13:07:49Z</time>
      </trkpt>
      <trkpt lat="46.29216" lon="-0.38201">
        <ele>46.0109</ele>
        <time>2011-07-03T13:07:50Z</time>
      </trkpt>
      <trkpt lat="46.29216" lon="-0.38203">
        <ele>45.9792</ele>
        <time>2011-07-03T13:07:51Z</time>
      </trkpt>
      <trkpt lat="46.29217" lon="-0.38204">
        <ele>45.9563</ele>
        <time>2011-07-03T13:07:52Z</time>
      </trkpt>
      <trkpt lat="46.29217" lon="-0.38206">
        <ele>45.9415</ele>
        <time>2011-07-03T13:07:53Z</time>
      </trkpt>
      <trkpt lat="46.29217" lon="-0.38208">
        <ele>45.9348</ele>
        <time>2011-07-03T13:07:54Z</time>
      </trkpt>
      <trkpt lat="46.29216" lon="-0.3821">
        <ele>45.9288</ele>
        <time>2011-07-03T13:07:55Z</time>
      </trkpt>
      <trkpt lat="46.29216" lon="-0.38211">
        <ele>45.9273</ele>
        <time>2011-07-03T13:07:56Z</time>
      </trkpt>
      <trkpt lat="46.29216" lon="-0.38213">
        <ele>45.9311</ele>
        <time>2011-07-03T13:07:57Z</time>
      </trkpt>
      <trkpt lat="46.29217" lon="-0.38215">
        <ele>45.9416</ele>
        <time>2011-07-03T13:07:58Z</time>
      </trkpt>
      <trkpt lat="46.29217" lon="-0.38217">
        <ele>45.9516</ele>
        <time>2011-07-03T13:07:59Z</time>
      </trkpt>
      <trkpt lat="46.29217" lon="-0.38219">
        <ele>45.9593</ele>
        <time>2011-07-03T13:08:00Z</time>
      </trkpt>
      <trkpt lat="46.29217" lon="-0.38221">
        <ele>45.9672</ele>
        <time>2011-07-03T13:08:01Z</time>
      </trkpt>
      <trkpt lat="46.29218" lon="-0.38222">
        <ele>45.9744</ele>
        <time>2011-07-03T13:08:02Z</time>
      </trkpt>
      <trkpt lat="46.29219" lon="-0.38223">
        <ele>45.9796</ele>
        <time>2011-07-03T13:08:03Z</time>
      </trkpt>
      <trkpt lat="46.29219" lon="-0.38224">
        <ele>45.984</ele>
        <time>2011-07-03T13:08:04Z</time>
      </trkpt>
      <trkpt lat="46.2922" lon="-0.38226">
        <ele>45.9899</ele>
        <time>2011-07-03T13:08:05Z</time>
      </trkpt>
      <trkpt lat="46.2922" lon="-0.38227">
        <ele>45.9945</ele>
        <time>2011-07-03T13:08:06Z</time>
      </trkpt>
      <trkpt lat="46.2922" lon="-0.38229">
        <ele>45.9982</ele>
        <time>2011-07-03T13:08:07Z</time>
      </trkpt>
      <trkpt lat="46.2922" lon="-0.38231">
        <ele>46.0011</ele>
        <time>2011-07-03T13:08:08Z</time>
      </trkpt>
      <trkpt lat="46.2922" lon="-0.38233">
        <ele>46.0031</ele>
        <time>2011-07-03T13:08:09Z</time>
      </trkpt>
      <trkpt lat="46.2922" lon="-0.38235">
        <ele>46.0045</ele>
        <time>2011-07-03T13:08:10Z</time>
      </trkpt>
      <trkpt lat="46.29219" lon="-0.38237">
        <ele>46.0053</ele>
        <time>2011-07-03T13:08:11Z</time>
      </trkpt>
      <trkpt lat="46.29219" lon="-0.38239">
        <ele>46.0056</ele>
        <time>2011-07-03T13:08:12Z</time>
      </trkpt>
      <trkpt lat="46.29218" lon="-0.38242">
        <ele>46.003</ele>
        <time>2011-07-03T13:08:13Z</time>
      </trkpt>
      <trkpt lat="46.29217" lon="-0.38244">
        <ele>46.0015</ele>
        <time>2011-07-03T13:08:14Z</time>
      </trkpt>
      <trkpt lat="46.29216" lon="-0.38246">
        <ele>46.0003</ele>
        <time>2011-07-03T13:08:15Z</time>
      </trkpt>
      <trkpt lat="46.29215" lon="-0.38247">
        <ele>45.9954</ele>
        <time>2011-07-03T13:08:16Z</time>
      </trkpt>
      <trkpt lat="46.29214" lon="-0.38248">
        <ele>45.9912</ele>
        <time>2011-07-03T13:08:17Z</time>
      </trkpt>
      <trkpt lat="46.29213" lon="-0.38248">
        <ele>45.981</ele>
        <time>2011-07-03T13:08:18Z</time>
      </trkpt>
      <trkpt lat="46.29211" lon="-0.38249">
        <ele>45.9633</ele>
        <time>2011-07-03T13:08:19Z</time>
      </trkpt>
      <trkpt lat="46.2921" lon="-0.3825">
        <ele>45.9481</ele>
        <time>2011-07-03T13:08:20Z</time>
      </trkpt>
      <trkpt lat="46.29208" lon="-0.38251">
        <ele>45.9351</ele>
        <time>2011-07-03T13:08:21Z</time>
      </trkpt>
      <trkpt lat="46.29206" lon="-0.38251">
        <ele>45.9289</ele>
        <time>2011-07-03T13:08:22Z</time>
      </trkpt>
      <trkpt lat="46.29204" lon="-0.38252">
        <ele>45.9284</ele>
        <time>2011-07-03T13:08:23Z</time>
      </trkpt>
      <trkpt lat="46.29202" lon="-0.38253">
        <ele>45.9297</ele>
        <time>2011-07-03T13:08:24Z</time>
      </trkpt>
      <trkpt lat="46.29201" lon="-0.38254">
        <ele>45.9331</ele>
        <time>2011-07-03T13:08:25Z</time>
      </trkpt>
      <trkpt lat="46.29199" lon="-0.38254">
        <ele>45.9361</ele>
        <time>2011-07-03T13:08:26Z</time>
      </trkpt>
      <trkpt lat="46.29197" lon="-0.38254">
        <ele>45.939</ele>
        <time>2011-07-03T13:08:27Z</time>
      </trkpt>
      <trkpt lat="46.29196" lon="-0.38255">
        <ele>45.9406</ele>
        <time>2011-07-03T13:08:28Z</time>
      </trkpt>
      <trkpt lat="46.29194" lon="-0.38255">
        <ele>45.9417</ele>
        <time>2011-07-03T13:08:29Z</time>
      </trkpt>
      <trkpt lat="46.29193" lon="-0.38255">
        <ele>45.9414</ele>
        <time>2011-07-03T13:08:30Z</time>
      </trkpt>
      <trkpt lat="46.29191" lon="-0.38255">
        <ele>45.9417</ele>
        <time>2011-07-03T13:08:31Z</time>
      </trkpt>
      <trkpt lat="46.2919" lon="-0.38255">
        <ele>45.9443</ele>
        <time>2011-07-03T13:08:32Z</time>
      </trkpt>
      <trkpt lat="46.29189" lon="-0.38255">
        <ele>45.9504</ele>
        <time>2011-07-03T13:08:33Z</time>
      </trkpt>
      <trkpt lat="46.29187" lon="-0.38255">
        <ele>45.9592</ele>
        <time>2011-07-03T13:08:34Z</time>
      </trkpt>
      <trkpt lat="46.29186" lon="-0.38256">
        <ele>45.9726</ele>
        <time>2011-07-03T13:08:35Z</time>
      </trkpt>
      <trkpt lat="46.29185" lon="-0.38256">
        <ele>45.9888</ele>
        <time>2011-07-03T13:08:36Z</time>
      </trkpt>
      <trkpt lat="46.29184" lon="-0.38256">
        <ele>46.005</ele>
        <time>2011-07-03T13:08:37Z</time>
      </trkpt>
      <trkpt lat="46.29183" lon="-0.38256">
        <ele>46.0215</ele>
        <time>2011-07-03T13:08:38Z</time>
      </trkpt>
      <trkpt lat="46.29182" lon="-0.38256">
        <ele>46.0377</ele>
        <time>2011-07-03T13:08:39Z</time>
      </trkpt>
      <trkpt lat="46.29181" lon="-0.38256">
        <ele>46.0546</ele>
        <time>2011-07-03T13:08:40Z</time>
      </trkpt>
      <trkpt lat="46.29179" lon="-0.38256">
        <ele>46.0722</ele>
        <time>2011-07-03T13:08:41Z</time>
      </trkpt>
      <trkpt lat="46.29178" lon="-0.38256">
        <ele>46.0903</ele>
        <time>2011-07-03T13:08:42Z</time>
      </trkpt>
      <trkpt lat="46.29176" lon="-0.38257">
        <ele>46.1094</ele>
        <time>2011-07-03T13:08:43Z</time>
      </trkpt>
      <trkpt lat="46.29175" lon="-0.38257">
        <ele>46.1292</ele>
        <time>2011-07-03T13:08:44Z</time>
      </trkpt>
      <trkpt lat="46.29173" lon="-0.38257">
        <ele>46.1472</ele>
        <time>2011-07-03T13:08:45Z</time>
      </trkpt>
      <trkpt lat="46.29172" lon="-0.38257">
        <ele>46.1663</ele>
        <time>2011-07-03T13:08:46Z</time>
      </trkpt>
      <trkpt lat="46.2917" lon="-0.38258">
        <ele>46.1846</ele>
        <time>2011-07-03T13:08:47Z</time>
      </trkpt>
      <trkpt lat="46.29169" lon="-0.38258">
        <ele>46.2032</ele>
        <time>2011-07-03T13:08:48Z</time>
      </trkpt>
      <trkpt lat="46.29167" lon="-0.38258">
        <ele>46.2191</ele>
        <time>2011-07-03T13:08:49Z</time>
      </trkpt>
      <trkpt lat="46.29166" lon="-0.38258">
        <ele>46.2344</ele>
        <time>2011-07-03T13:08:50Z</time>
      </trkpt>
      <trkpt lat="46.29164" lon="-0.38258">
        <ele>46.246</ele>
        <time>2011-07-03T13:08:51Z</time>
      </trkpt>
      <trkpt lat="46.29163" lon="-0.38258">
        <ele>46.2591</ele>
        <time>2011-07-03T13:08:52Z</time>
      </trkpt>
      <trkpt lat="46.29162" lon="-0.38258">
        <ele>46.2711</ele>
        <time>2011-07-03T13:08:53Z</time>
      </trkpt>
      <trkpt lat="46.29161" lon="-0.38259">
        <ele>46.2797</ele>
        <time>2011-07-03T13:08:54Z</time>
      </trkpt>
      <trkpt lat="46.2916" lon="-0.38259">
        <ele>46.2882</ele>
        <time>2011-07-03T13:08:55Z</time>
      </trkpt>
      <trkpt lat="46.29158" lon="-0.38259">
        <ele>46.2973</ele>
        <time>2011-07-03T13:08:56Z</time>
      </trkpt>
      <trkpt lat="46.29157" lon="-0.38259">
        <ele>46.3081</ele>
        <time>2011-07-03T13:08:57Z</time>
      </trkpt>
      <trkpt lat="46.29156" lon="-0.3826">
        <ele>46.3178</ele>
        <time>2011-07-03T13:08:58Z</time>
      </trkpt>
      <trkpt lat="46.29154" lon="-0.3826">
        <ele>46.3277</ele>
        <time>2011-07-03T13:08:59Z</time>
      </trkpt>
      <trkpt lat="46.29153" lon="-0.38261">
        <ele>46.3369</ele>
        <time>2011-07-03T13:09:00Z</time>
      </trkpt>
      <trkpt lat="46.29152" lon="-0.38261">
        <ele>46.3453</ele>
        <time>2011-07-03T13:09:01Z</time>
      </trkpt>
      <trkpt lat="46.2915" lon="-0.38261">
        <ele>46.3549</ele>
        <time>2011-07-03T13:09:02Z</time>
      </trkpt>
      <trkpt lat="46.29149" lon="-0.38261">
        <ele>46.3651</ele>
        <time>2011-07-03T13:09:03Z</time>
      </trkpt>
      <trkpt lat="46.29147" lon="-0.38261">
        <ele>46.3758</ele>
        <time>2011-07-03T13:09:04Z</time>
      </trkpt>
      <trkpt lat="46.29146" lon="-0.38262">
        <ele>46.3864</ele>
        <time>2011-07-03T13:09:05Z</time>
      </trkpt>
      <trkpt lat="46.29145" lon="-0.38262">
        <ele>46.3975</ele>
        <time>2011-07-03T13:09:06Z</time>
      </trkpt>
      <trkpt lat="46.29144" lon="-0.38262">
        <ele>46.4112</ele>
        <time>2011-07-03T13:09:07Z</time>
      </trkpt>
      <trkpt lat="46.29142" lon="-0.38262">
        <ele>46.4283</ele>
        <time>2011-07-03T13:09:08Z</time>
      </trkpt>
      <trkpt lat="46.29141" lon="-0.38262">
        <ele>46.445</ele>
        <time>2011-07-03T13:09:09Z</time>
      </trkpt>
      <trkpt lat="46.2914" lon="-0.38262">
        <ele>46.4616</ele>
        <time>2011-07-03T13:09:10Z</time>
      </trkpt>
      <trkpt lat="46.29138" lon="-0.38263">
        <ele>46.4783</ele>
        <time>2011-07-03T13:09:11Z</time>
      </trkpt>
      <trkpt lat="46.29137" lon="-0.38263">
        <ele>46.4948</ele>
        <time>2011-07-03T13:09:12Z</time>
      </trkpt>
      <trkpt lat="46.29136" lon="-0.38263">
        <ele>46.5117</ele>
        <time>2011-07-03T13:09:13Z</time>
      </trkpt>
      <trkpt lat="46.29134" lon="-0.38264">
        <ele>46.5278</ele>
        <time>2011-07-03T13:09:14Z</time>
      </trkpt>
      <trkpt lat="46.29133" lon="-0.38264">
        <ele>46.5424</ele>
        <time>2011-07-03T13:09:15Z</time>
      </trkpt>
      <trkpt lat="46.29132" lon="-0.38265">
        <ele>46.5564</ele>
        <time>2011-07-03T13:09:16Z</time>
      </trkpt>
      <trkpt lat="46.29131" lon="-0.38265">
        <ele>46.5699</ele>
        <time>2011-07-03T13:09:17Z</time>
      </trkpt>
      <trkpt lat="46.29129" lon="-0.38265">
        <ele>46.5827</ele>
        <time>2011-07-03T13:09:18Z</time>
      </trkpt>
      <trkpt lat="46.29128" lon="-0.38265">
        <ele>46.5949</ele>
        <time>2011-07-03T13:09:19Z</time>
      </trkpt>
      <trkpt lat="46.29127" lon="-0.38265">
        <ele>46.6061</ele>
        <time>2011-07-03T13:09:20Z</time>
      </trkpt>
      <trkpt lat="46.29126" lon="-0.38265">
        <ele>46.6185</ele>
        <time>2011-07-03T13:09:21Z</time>
      </trkpt>
      <trkpt lat="46.29125" lon="-0.38266">
        <ele>46.6318</ele>
        <time>2011-07-03T13:09:22Z</time>
      </trkpt>
      <trkpt lat="46.29123" lon="-0.38266">
        <ele>46.6451</ele>
        <time>2011-07-03T13:09:23Z</time>
      </trkpt>
      <trkpt lat="46.29122" lon="-0.38266">
        <ele>46.6575</ele>
        <time>2011-07-03T13:09:24Z</time>
      </trkpt>
      <trkpt lat="46.2912" lon="-0.38267">
        <ele>46.6698</ele>
        <time>2011-07-03T13:09:25Z</time>
      </trkpt>
      <trkpt lat="46.29119" lon="-0.38267">
        <ele>46.6825</ele>
        <time>2011-07-03T13:09:26Z</time>
      </trkpt>
      <trkpt lat="46.29118" lon="-0.38268">
        <ele>46.6949</ele>
        <time>2011-07-03T13:09:27Z</time>
      </trkpt>
      <trkpt lat="46.29116" lon="-0.38269">
        <ele>46.706</ele>
        <time>2011-07-03T13:09:28Z</time>
      </trkpt>
      <trkpt lat="46.29115" lon="-0.38269">
        <ele>46.7176</ele>
        <time>2011-07-03T13:09:29Z</time>
      </trkpt>
      <trkpt lat="46.29114" lon="-0.38269">
        <ele>46.7291</ele>
        <time>2011-07-03T13:09:30Z</time>
      </trkpt>
      <trkpt lat="46.29113" lon="-0.3827">
        <ele>46.7402</ele>
        <time>2011-07-03T13:09:31Z</time>
      </trkpt>
      <trkpt lat="46.29111" lon="-0.3827">
        <ele>46.751</ele>
        <time>2011-07-03T13:09:32Z</time>
      </trkpt>
      <trkpt lat="46.2911" lon="-0.38271">
        <ele>46.7628</ele>
        <time>2011-07-03T13:09:33Z</time>
      </trkpt>
      <trkpt lat="46.29108" lon="-0.38271">
        <ele>46.769</ele>
        <time>2011-07-03T13:09:34Z</time>
      </trkpt>
      <trkpt lat="46.29108" lon="-0.38272">
        <ele>46.7712</ele>
        <time>2011-07-03T13:09:35Z</time>
      </trkpt>
      <trkpt lat="46.29107" lon="-0.38273">
        <ele>46.7731</ele>
        <time>2011-07-03T13:09:36Z</time>
      </trkpt>
      <trkpt lat="46.29105" lon="-0.38273">
        <ele>46.774</ele>
        <time>2011-07-03T13:09:37Z</time>
      </trkpt>
      <trkpt lat="46.29104" lon="-0.38274">
        <ele>46.7741</ele>
        <time>2011-07-03T13:09:38Z</time>
      </trkpt>
      <trkpt lat="46.29102" lon="-0.38274">
        <ele>46.7723</ele>
        <time>2011-07-03T13:09:39Z</time>
      </trkpt>
      <trkpt lat="46.29101" lon="-0.38275">
        <ele>46.7699</ele>
        <time>2011-07-03T13:09:40Z</time>
      </trkpt>
      <trkpt lat="46.291" lon="-0.38275">
        <ele>46.7657</ele>
        <time>2011-07-03T13:09:41Z</time>
      </trkpt>
      <trkpt lat="46.29099" lon="-0.38276">
        <ele>46.7604</ele>
        <time>2011-07-03T13:09:42Z</time>
      </trkpt>
      <trkpt lat="46.29098" lon="-0.38276">
        <ele>46.755</ele>
        <time>2011-07-03T13:09:43Z</time>
      </trkpt>
      <trkpt lat="46.29096" lon="-0.38277">
        <ele>46.7491</ele>
        <time>2011-07-03T13:09:44Z</time>
      </trkpt>
      <trkpt lat="46.29095" lon="-0.38277">
        <ele>46.7433</ele>
        <time>2011-07-03T13:09:45Z</time>
      </trkpt>
      <trkpt lat="46.29094" lon="-0.38278">
        <ele>46.7388</ele>
        <time>2011-07-03T13:09:46Z</time>
      </trkpt>
      <trkpt lat="46.29092" lon="-0.38278">
        <ele>46.7355</ele>
        <time>2011-07-03T13:09:47Z</time>
      </trkpt>
      <trkpt lat="46.29092" lon="-0.38279">
        <ele>46.731</ele>
        <time>2011-07-03T13:09:48Z</time>
      </trkpt>
      <trkpt lat="46.29091" lon="-0.38279">
        <ele>46.7259</ele>
        <time>2011-07-03T13:09:49Z</time>
      </trkpt>
      <trkpt lat="46.29089" lon="-0.3828">
        <ele>46.7189</ele>
        <time>2011-07-03T13:09:50Z</time>
      </trkpt>
      <trkpt lat="46.29088" lon="-0.38281">
        <ele>46.7117</ele>
        <time>2011-07-03T13:09:51Z</time>
      </trkpt>
      <trkpt lat="46.29087" lon="-0.38282">
        <ele>46.7026</ele>
        <time>2011-07-03T13:09:52Z</time>
      </trkpt>
      <trkpt lat="46.29086" lon="-0.38283">
        <ele>46.693</ele>
        <time>2011-07-03T13:09:53Z</time>
      </trkpt>
      <trkpt lat="46.29085" lon="-0.38284">
        <ele>46.6831</ele>
        <time>2011-07-03T13:09:54Z</time>
      </trkpt>
      <trkpt lat="46.29083" lon="-0.38285">
        <ele>46.6727</ele>
        <time>2011-07-03T13:09:55Z</time>
      </trkpt>
      <trkpt lat="46.29082" lon="-0.38286">
        <ele>46.6621</ele>
        <time>2011-07-03T13:09:56Z</time>
      </trkpt>
      <trkpt lat="46.29081" lon="-0.38287">
        <ele>46.6503</ele>
        <time>2011-07-03T13:09:57Z</time>
      </trkpt>
      <trkpt lat="46.2908" lon="-0.38287">
        <ele>46.6366</ele>
        <time>2011-07-03T13:09:58Z</time>
      </trkpt>
      <trkpt lat="46.29079" lon="-0.38288">
        <ele>46.6202</ele>
        <time>2011-07-03T13:09:59Z</time>
      </trkpt>
      <trkpt lat="46.29078" lon="-0.38288">
        <ele>46.6021</ele>
        <time>2011-07-03T13:10:00Z</time>
      </trkpt>
      <trkpt lat="46.29077" lon="-0.38289">
        <ele>46.5777</ele>
        <time>2011-07-03T13:10:01Z</time>
      </trkpt>
      <trkpt lat="46.29076" lon="-0.3829">
        <ele>46.5487</ele>
        <time>2011-07-03T13:10:02Z</time>
      </trkpt>
      <trkpt lat="46.29076" lon="-0.3829">
        <ele>46.5146</ele>
        <time>2011-07-03T13:10:03Z</time>
      </trkpt>
      <trkpt lat="46.29075" lon="-0.38291">
        <ele>46.4742</ele>
        <time>2011-07-03T13:10:04Z</time>
      </trkpt>
      <trkpt lat="46.29075" lon="-0.38292">
        <ele>46.4378</ele>
        <time>2011-07-03T13:10:05Z</time>
      </trkpt>
      <trkpt lat="46.29074" lon="-0.38292">
        <ele>46.4049</ele>
        <time>2011-07-03T13:10:06Z</time>
      </trkpt>
      <trkpt lat="46.29073" lon="-0.38293">
        <ele>46.3758</ele>
        <time>2011-07-03T13:10:07Z</time>
      </trkpt>
      <trkpt lat="46.29071" lon="-0.38294">
        <ele>46.3497</ele>
        <time>2011-07-03T13:10:08Z</time>
      </trkpt>
      <trkpt lat="46.2907" lon="-0.38295">
        <ele>46.3264</ele>
        <time>2011-07-03T13:10:09Z</time>
      </trkpt>
      <trkpt lat="46.29069" lon="-0.38296">
        <ele>46.305</ele>
        <time>2011-07-03T13:10:10Z</time>
      </trkpt>
      <trkpt lat="46.29068" lon="-0.38296">
        <ele>46.2861</ele>
        <time>2011-07-03T13:10:11Z</time>
      </trkpt>
      <trkpt lat="46.29067" lon="-0.38297">
        <ele>46.2697</ele>
        <time>2011-07-03T13:10:12Z</time>
      </trkpt>
      <trkpt lat="46.29066" lon="-0.38298">
        <ele>46.2536</ele>
        <time>2011-07-03T13:10:13Z</time>
      </trkpt>
      <trkpt lat="46.29065" lon="-0.38299">
        <ele>46.238</ele>
        <time>2011-07-03T13:10:14Z</time>
      </trkpt>
      <trkpt lat="46.29064" lon="-0.38299">
        <ele>46.2236</ele>
        <time>2011-07-03T13:10:15Z</time>
      </trkpt>
      <trkpt lat="46.29063" lon="-0.383">
        <ele>46.21</ele>
        <time>2011-07-03T13:10:16Z</time>
      </trkpt>
      <trkpt lat="46.29062" lon="-0.38301">
        <ele>46.1947</ele>
        <time>2011-07-03T13:10:17Z</time>
      </trkpt>
      <trkpt lat="46.29061" lon="-0.38302">
        <ele>46.1799</ele>
        <time>2011-07-03T13:10:18Z</time>
      </trkpt>
      <trkpt lat="46.2906" lon="-0.38303">
        <ele>46.166</ele>
        <time>2011-07-03T13:10:19Z</time>
      </trkpt>
      <trkpt lat="46.29059" lon="-0.38304">
        <ele>46.1519</ele>
        <time>2011-07-03T13:10:20Z</time>
      </trkpt>
      <trkpt lat="46.29057" lon="-0.38305">
        <ele>46.1381</ele>
        <time>2011-07-03T13:10:21Z</time>
      </trkpt>
      <trkpt lat="46.29056" lon="-0.38306">
        <ele>46.1221</ele>
        <time>2011-07-03T13:10:22Z</time>
      </trkpt>
      <trkpt lat="46.29054" lon="-0.38307">
        <ele>46.1063</ele>
        <time>2011-07-03T13:10:23Z</time>
      </trkpt>
      <trkpt lat="46.29054" lon="-0.38308">
        <ele>46.0907</ele>
        <time>2011-07-03T13:10:24Z</time>
      </trkpt>
      <trkpt lat="46.29052" lon="-0.38308">
        <ele>46.0758</ele>
        <time>2011-07-03T13:10:25Z</time>
      </trkpt>
      <trkpt lat="46.29051" lon="-0.38309">
        <ele>46.0618</ele>
        <time>2011-07-03T13:10:26Z</time>
      </trkpt>
      <trkpt lat="46.2905" lon="-0.3831">
        <ele>46.0471</ele>
        <time>2011-07-03T13:10:27Z</time>
      </trkpt>
      <trkpt lat="46.29049" lon="-0.38312">
        <ele>46.0316</ele>
        <time>2011-07-03T13:10:28Z</time>
      </trkpt>
      <trkpt lat="46.29048" lon="-0.38313">
        <ele>46.0178</ele>
        <time>2011-07-03T13:10:29Z</time>
      </trkpt>
      <trkpt lat="46.29046" lon="-0.38313">
        <ele>46.0061</ele>
        <time>2011-07-03T13:10:30Z</time>
      </trkpt>
      <trkpt lat="46.29045" lon="-0.38314">
        <ele>45.9965</ele>
        <time>2011-07-03T13:10:31Z</time>
      </trkpt>
      <trkpt lat="46.29044" lon="-0.38314">
        <ele>45.992</ele>
        <time>2011-07-03T13:10:32Z</time>
      </trkpt>
      <trkpt lat="46.29042" lon="-0.38314">
        <ele>45.99</ele>
        <time>2011-07-03T13:10:33Z</time>
      </trkpt>
      <trkpt lat="46.29041" lon="-0.38314">
        <ele>45.9897</ele>
        <time>2011-07-03T13:10:34Z</time>
      </trkpt>
      <trkpt lat="46.29039" lon="-0.38315">
        <ele>45.9916</ele>
        <time>2011-07-03T13:10:35Z</time>
      </trkpt>
      <trkpt lat="46.29038" lon="-0.38315">
        <ele>45.9941</ele>
        <time>2011-07-03T13:10:36Z</time>
      </trkpt>
      <trkpt lat="46.29036" lon="-0.38316">
        <ele>45.9939</ele>
        <time>2011-07-03T13:10:37Z</time>
      </trkpt>
      <trkpt lat="46.29034" lon="-0.38317">
        <ele>45.9922</ele>
        <time>2011-07-03T13:10:38Z</time>
      </trkpt>
      <trkpt lat="46.29033" lon="-0.38318">
        <ele>45.9908</ele>
        <time>2011-07-03T13:10:39Z</time>
      </trkpt>
      <trkpt lat="46.29031" lon="-0.38319">
        <ele>45.9867</ele>
        <time>2011-07-03T13:10:40Z</time>
      </trkpt>
      <trkpt lat="46.2903" lon="-0.3832">
        <ele>45.9789</ele>
        <time>2011-07-03T13:10:41Z</time>
      </trkpt>
      <trkpt lat="46.29029" lon="-0.38321">
        <ele>45.9728</ele>
        <time>2011-07-03T13:10:42Z</time>
      </trkpt>
      <trkpt lat="46.29028" lon="-0.38321">
        <ele>45.9608</ele>
        <time>2011-07-03T13:10:43Z</time>
      </trkpt>
      <trkpt lat="46.29026" lon="-0.38321">
        <ele>45.9394</ele>
        <time>2011-07-03T13:10:44Z</time>
      </trkpt>
      <trkpt lat="46.29025" lon="-0.38322">
        <ele>45.9186</ele>
        <time>2011-07-03T13:10:45Z</time>
      </trkpt>
      <trkpt lat="46.29023" lon="-0.38322">
        <ele>45.9029</ele>
        <time>2011-07-03T13:10:46Z</time>
      </trkpt>
      <trkpt lat="46.29022" lon="-0.38323">
        <ele>45.8851</ele>
        <time>2011-07-03T13:10:47Z</time>
      </trkpt>
      <trkpt lat="46.29022" lon="-0.38323">
        <ele>45.8644</ele>
        <time>2011-07-03T13:10:48Z</time>
      </trkpt>
      <trkpt lat="46.29021" lon="-0.38323">
        <ele>45.8444</ele>
        <time>2011-07-03T13:10:49Z</time>
      </trkpt>
      <trkpt lat="46.2902" lon="-0.38324">
        <ele>45.8268</ele>
        <time>2011-07-03T13:10:50Z</time>
      </trkpt>
      <trkpt lat="46.2902" lon="-0.38324">
        <ele>45.801</ele>
        <time>2011-07-03T13:10:51Z</time>
      </trkpt>
      <trkpt lat="46.29019" lon="-0.38325">
        <ele>45.7714</ele>
        <time>2011-07-03T13:10:52Z</time>
      </trkpt>
      <trkpt lat="46.29018" lon="-0.38326">
        <ele>45.7315</ele>
        <time>2011-07-03T13:10:53Z</time>
      </trkpt>
      <trkpt lat="46.29017" lon="-0.38327">
        <ele>45.6885</ele>
        <time>2011-07-03T13:10:54Z</time>
      </trkpt>
      <trkpt lat="46.29016" lon="-0.38328">
        <ele>45.6411</ele>
        <time>2011-07-03T13:10:55Z</time>
      </trkpt>
      <trkpt lat="46.29014" lon="-0.38329">
        <ele>45.5846</ele>
        <time>2011-07-03T13:10:56Z</time>
      </trkpt>
      <trkpt lat="46.29013" lon="-0.3833">
        <ele>45.5273</ele>
        <time>2011-07-03T13:10:57Z</time>
      </trkpt>
      <trkpt lat="46.29011" lon="-0.38331">
        <ele>45.4595</ele>
        <time>2011-07-03T13:10:58Z</time>
      </trkpt>
      <trkpt lat="46.2901" lon="-0.38332">
        <ele>45.3921</ele>
        <time>2011-07-03T13:10:59Z</time>
      </trkpt>
      <trkpt lat="46.29008" lon="-0.38332">
        <ele>45.3243</ele>
        <time>2011-07-03T13:11:00Z</time>
      </trkpt>
      <trkpt lat="46.29007" lon="-0.38333">
        <ele>45.2571</ele>
        <time>2011-07-03T13:11:01Z</time>
      </trkpt>
      <trkpt lat="46.29005" lon="-0.38333">
        <ele>45.189</ele>
        <time>2011-07-03T13:11:02Z</time>
      </trkpt>
      <trkpt lat="46.29004" lon="-0.38333">
        <ele>45.1197</ele>
        <time>2011-07-03T13:11:03Z</time>
      </trkpt>
      <trkpt lat="46.29002" lon="-0.38334">
        <ele>45.052</ele>
        <time>2011-07-03T13:11:04Z</time>
      </trkpt>
      <trkpt lat="46.29001" lon="-0.38334">
        <ele>44.9845</ele>
        <time>2011-07-03T13:11:05Z</time>
      </trkpt>
      <trkpt lat="46.28999" lon="-0.38335">
        <ele>44.9224</ele>
        <time>2011-07-03T13:11:06Z</time>
      </trkpt>
      <trkpt lat="46.28998" lon="-0.38336">
        <ele>44.8611</ele>
        <time>2011-07-03T13:11:07Z</time>
      </trkpt>
      <trkpt lat="46.28996" lon="-0.38336">
        <ele>44.8003</ele>
        <time>2011-07-03T13:11:08Z</time>
      </trkpt>
      <trkpt lat="46.28995" lon="-0.38337">
        <ele>44.7402</ele>
        <time>2011-07-03T13:11:09Z</time>
      </trkpt>
      <trkpt lat="46.28993" lon="-0.38337">
        <ele>44.6759</ele>
        <time>2011-07-03T13:11:10Z</time>
      </trkpt>
      <trkpt lat="46.28992" lon="-0.38338">
        <ele>44.6116</ele>
        <time>2011-07-03T13:11:11Z</time>
      </trkpt>
      <trkpt lat="46.28991" lon="-0.38339">
        <ele>44.5486</ele>
        <time>2011-07-03T13:11:12Z</time>
      </trkpt>
      <trkpt lat="46.28989" lon="-0.38339">
        <ele>44.4862</ele>
        <time>2011-07-03T13:11:13Z</time>
      </trkpt>
      <trkpt lat="46.28988" lon="-0.38339">
        <ele>44.422</ele>
        <time>2011-07-03T13:11:14Z</time>
      </trkpt>
      <trkpt lat="46.28987" lon="-0.38339">
        <ele>44.3631</ele>
        <time>2011-07-03T13:11:15Z</time>
      </trkpt>
      <trkpt lat="46.28986" lon="-0.3834">
        <ele>44.3146</ele>
        <time>2011-07-03T13:11:16Z</time>
      </trkpt>
      <trkpt lat="46.28985" lon="-0.38341">
        <ele>44.2765</ele>
        <time>2011-07-03T13:11:17Z</time>
      </trkpt>
      <trkpt lat="46.28984" lon="-0.38342">
        <ele>44.2461</ele>
        <time>2011-07-03T13:11:18Z</time>
      </trkpt>
      <trkpt lat="46.28983" lon="-0.38343">
        <ele>44.2157</ele>
        <time>2011-07-03T13:11:19Z</time>
      </trkpt>
      <trkpt lat="46.28982" lon="-0.38344">
        <ele>44.1833</ele>
        <time>2011-07-03T13:11:20Z</time>
      </trkpt>
      <trkpt lat="46.28981" lon="-0.38344">
        <ele>44.1455</ele>
        <time>2011-07-03T13:11:21Z</time>
      </trkpt>
      <trkpt lat="46.2898" lon="-0.38344">
        <ele>44.1022</ele>
        <time>2011-07-03T13:11:22Z</time>
      </trkpt>
      <trkpt lat="46.28978" lon="-0.38345">
        <ele>44.0565</ele>
        <time>2011-07-03T13:11:23Z</time>
      </trkpt>
      <trkpt lat="46.28976" lon="-0.38345">
        <ele>44.008</ele>
        <time>2011-07-03T13:11:24Z</time>
      </trkpt>
      <trkpt lat="46.28975" lon="-0.38346">
        <ele>43.9561</ele>
        <time>2011-07-03T13:11:25Z</time>
      </trkpt>
      <trkpt lat="46.28974" lon="-0.38346">
        <ele>43.9053</ele>
        <time>2011-07-03T13:11:26Z</time>
      </trkpt>
      <trkpt lat="46.28973" lon="-0.38347">
        <ele>43.8546</ele>
        <time>2011-07-03T13:11:27Z</time>
      </trkpt>
      <trkpt lat="46.28971" lon="-0.38348">
        <ele>43.8045</ele>
        <time>2011-07-03T13:11:28Z</time>
      </trkpt>
      <trkpt lat="46.2897" lon="-0.38348">
        <ele>43.7584</ele>
        <time>2011-07-03T13:11:29Z</time>
      </trkpt>
      <trkpt lat="46.28968" lon="-0.38349">
        <ele>43.7142</ele>
        <time>2011-07-03T13:11:30Z</time>
      </trkpt>
      <trkpt lat="46.28967" lon="-0.38349">
        <ele>43.669</ele>
        <time>2011-07-03T13:11:31Z</time>
      </trkpt>
      <trkpt lat="46.28966" lon="-0.38349">
        <ele>43.6238</ele>
        <time>2011-07-03T13:11:32Z</time>
      </trkpt>
      <trkpt lat="46.28965" lon="-0.3835">
        <ele>43.5794</ele>
        <time>2011-07-03T13:11:33Z</time>
      </trkpt>
      <trkpt lat="46.28964" lon="-0.38351">
        <ele>43.5385</ele>
        <time>2011-07-03T13:11:34Z</time>
      </trkpt>
      <trkpt lat="46.28962" lon="-0.38351">
        <ele>43.4974</ele>
        <time>2011-07-03T13:11:35Z</time>
      </trkpt>
      <trkpt lat="46.28961" lon="-0.38352">
        <ele>43.456</ele>
        <time>2011-07-03T13:11:36Z</time>
      </trkpt>
      <trkpt lat="46.2896" lon="-0.38352">
        <ele>43.4153</ele>
        <time>2011-07-03T13:11:37Z</time>
      </trkpt>
      <trkpt lat="46.28959" lon="-0.38353">
        <ele>43.3748</ele>
        <time>2011-07-03T13:11:38Z</time>
      </trkpt>
      <trkpt lat="46.28957" lon="-0.38353">
        <ele>43.3293</ele>
        <time>2011-07-03T13:11:39Z</time>
      </trkpt>
      <trkpt lat="46.28956" lon="-0.38354">
        <ele>43.2841</ele>
        <time>2011-07-03T13:11:40Z</time>
      </trkpt>
      <trkpt lat="46.28954" lon="-0.38355">
        <ele>43.2382</ele>
        <time>2011-07-03T13:11:41Z</time>
      </trkpt>
      <trkpt lat="46.28953" lon="-0.38355">
        <ele>43.1915</ele>
        <time>2011-07-03T13:11:42Z</time>
      </trkpt>
      <trkpt lat="46.28952" lon="-0.38355">
        <ele>43.1432</ele>
        <time>2011-07-03T13:11:43Z</time>
      </trkpt>
      <trkpt lat="46.28951" lon="-0.38356">
        <ele>43.0933</ele>
        <time>2011-07-03T13:11:44Z</time>
      </trkpt>
      <trkpt lat="46.28949" lon="-0.38357">
        <ele>43.0411</ele>
        <time>2011-07-03T13:11:45Z</time>
      </trkpt>
      <trkpt lat="46.28948" lon="-0.38357">
        <ele>42.9892</ele>
        <time>2011-07-03T13:11:46Z</time>
      </trkpt>
      <trkpt lat="46.28947" lon="-0.38357">
        <ele>42.9363</ele>
        <time>2011-07-03T13:11:47Z</time>
      </trkpt>
      <trkpt lat="46.28946" lon="-0.38358">
        <ele>42.8841</ele>
        <time>2011-07-03T13:11:48Z</time>
      </trkpt>
      <trkpt lat="46.28945" lon="-0.38358">
        <ele>42.8325</ele>
        <time>2011-07-03T13:11:49Z</time>
      </trkpt>
      <trkpt lat="46.28944" lon="-0.38359">
        <ele>42.7823</ele>
        <time>2011-07-03T13:11:50Z</time>
      </trkpt>
      <trkpt lat="46.28943" lon="-0.38359">
        <ele>42.7369</ele>
        <time>2011-07-03T13:11:51Z</time>
      </trkpt>
      <trkpt lat="46.28942" lon="-0.3836">
        <ele>42.6999</ele>
        <time>2011-07-03T13:11:52Z</time>
      </trkpt>
      <trkpt lat="46.28941" lon="-0.38361">
        <ele>42.6719</ele>
        <time>2011-07-03T13:11:53Z</time>
      </trkpt>
      <trkpt lat="46.28939" lon="-0.38361">
        <ele>42.6493</ele>
        <time>2011-07-03T13:11:54Z</time>
      </trkpt>
      <trkpt lat="46.28938" lon="-0.38362">
        <ele>42.6289</ele>
        <time>2011-07-03T13:11:55Z</time>
      </trkpt>
      <trkpt lat="46.28937" lon="-0.38362">
        <ele>42.6118</ele>
        <time>2011-07-03T13:11:56Z</time>
      </trkpt>
      <trkpt lat="46.28935" lon="-0.38363">
        <ele>42.5952</ele>
        <time>2011-07-03T13:11:57Z</time>
      </trkpt>
      <trkpt lat="46.28934" lon="-0.38363">
        <ele>42.5782</ele>
        <time>2011-07-03T13:11:58Z</time>
      </trkpt>
      <trkpt lat="46.28933" lon="-0.38363">
        <ele>42.5606</ele>
        <time>2011-07-03T13:11:59Z</time>
      </trkpt>
      <trkpt lat="46.28931" lon="-0.38363">
        <ele>42.5427</ele>
        <time>2011-07-03T13:12:00Z</time>
      </trkpt>
      <trkpt lat="46.2893" lon="-0.38363">
        <ele>42.5242</ele>
        <time>2011-07-03T13:12:01Z</time>
      </trkpt>
      <trkpt lat="46.28929" lon="-0.38363">
        <ele>42.5055</ele>
        <time>2011-07-03T13:12:02Z</time>
      </trkpt>
      <trkpt lat="46.28928" lon="-0.38364">
        <ele>42.4862</ele>
        <time>2011-07-03T13:12:03Z</time>
      </trkpt>
      <trkpt lat="46.28927" lon="-0.38364">
        <ele>42.4649</ele>
        <time>2011-07-03T13:12:04Z</time>
      </trkpt>
      <trkpt lat="46.28925" lon="-0.38365">
        <ele>42.4425</ele>
        <time>2011-07-03T13:12:05Z</time>
      </trkpt>
      <trkpt lat="46.28925" lon="-0.38365">
        <ele>42.4192</ele>
        <time>2011-07-03T13:12:06Z</time>
      </trkpt>
      <trkpt lat="46.28924" lon="-0.38364">
        <ele>42.3963</ele>
        <time>2011-07-03T13:12:07Z</time>
      </trkpt>
      <trkpt lat="46.28923" lon="-0.38365">
        <ele>42.3689</ele>
        <time>2011-07-03T13:12:10Z</time>
      </trkpt>
      <trkpt lat="46.28922" lon="-0.38366">
        <ele>42.3476</ele>
        <time>2011-07-03T13:12:11Z</time>
      </trkpt>
      <trkpt lat="46.28921" lon="-0.38367">
        <ele>42.3272</ele>
        <time>2011-07-03T13:12:12Z</time>
      </trkpt>
      <trkpt lat="46.2892" lon="-0.38368">
        <ele>42.3082</ele>
        <time>2011-07-03T13:12:13Z</time>
      </trkpt>
      <trkpt lat="46.28919" lon="-0.38368">
        <ele>42.2915</ele>
        <time>2011-07-03T13:12:14Z</time>
      </trkpt>
      <trkpt lat="46.28918" lon="-0.38368">
        <ele>42.2765</ele>
        <time>2011-07-03T13:12:15Z</time>
      </trkpt>
      <trkpt lat="46.28917" lon="-0.38368">
        <ele>42.2628</ele>
        <time>2011-07-03T13:12:16Z</time>
      </trkpt>
      <trkpt lat="46.28916" lon="-0.38369">
        <ele>42.2525</ele>
        <time>2011-07-03T13:12:17Z</time>
      </trkpt>
      <trkpt lat="46.28915" lon="-0.3837">
        <ele>42.2525</ele>
        <time>2011-07-03T13:12:18Z</time>
      </trkpt>
      <trkpt lat="46.28914" lon="-0.38371">
        <ele>42.2385</ele>
        <time>2011-07-03T13:12:19Z</time>
      </trkpt>
      <trkpt lat="46.28914" lon="-0.38372">
        <ele>42.2139</ele>
        <time>2011-07-03T13:12:20Z</time>
      </trkpt>
      <trkpt lat="46.28912" lon="-0.38372">
        <ele>42.1848</ele>
        <time>2011-07-03T13:12:21Z</time>
      </trkpt>
      <trkpt lat="46.28911" lon="-0.38373">
        <ele>42.1483</ele>
        <time>2011-07-03T13:12:22Z</time>
      </trkpt>
      <trkpt lat="46.2891" lon="-0.38373">
        <ele>42.1057</ele>
        <time>2011-07-03T13:12:23Z</time>
      </trkpt>
      <trkpt lat="46.28909" lon="-0.38373">
        <ele>42.0591</ele>
        <time>2011-07-03T13:12:24Z</time>
      </trkpt>
      <trkpt lat="46.28907" lon="-0.38373">
        <ele>42.0128</ele>
        <time>2011-07-03T13:12:25Z</time>
      </trkpt>
      <trkpt lat="46.28906" lon="-0.38374">
        <ele>41.9654</ele>
        <time>2011-07-03T13:12:26Z</time>
      </trkpt>
      <trkpt lat="46.28905" lon="-0.38374">
        <ele>41.9157</ele>
        <time>2011-07-03T13:12:27Z</time>
      </trkpt>
      <trkpt lat="46.28904" lon="-0.38375">
        <ele>41.8684</ele>
        <time>2011-07-03T13:12:28Z</time>
      </trkpt>
      <trkpt lat="46.28903" lon="-0.38375">
        <ele>41.8199</ele>
        <time>2011-07-03T13:12:29Z</time>
      </trkpt>
      <trkpt lat="46.28902" lon="-0.38376">
        <ele>41.7694</ele>
        <time>2011-07-03T13:12:30Z</time>
      </trkpt>
      <trkpt lat="46.289" lon="-0.38376">
        <ele>41.7203</ele>
        <time>2011-07-03T13:12:31Z</time>
      </trkpt>
      <trkpt lat="46.28899" lon="-0.38377">
        <ele>41.6739</ele>
        <time>2011-07-03T13:12:32Z</time>
      </trkpt>
      <trkpt lat="46.28898" lon="-0.38378">
        <ele>41.629</ele>
        <time>2011-07-03T13:12:33Z</time>
      </trkpt>
      <trkpt lat="46.28897" lon="-0.38378">
        <ele>41.5869</ele>
        <time>2011-07-03T13:12:34Z</time>
      </trkpt>
      <trkpt lat="46.28896" lon="-0.38379">
        <ele>41.5488</ele>
        <time>2011-07-03T13:12:35Z</time>
      </trkpt>
      <trkpt lat="46.28894" lon="-0.3838">
        <ele>41.5105</ele>
        <time>2011-07-03T13:12:36Z</time>
      </trkpt>
      <trkpt lat="46.28893" lon="-0.3838">
        <ele>41.4785</ele>
        <time>2011-07-03T13:12:37Z</time>
      </trkpt>
      <trkpt lat="46.28892" lon="-0.3838">
        <ele>41.4526</ele>
        <time>2011-07-03T13:12:38Z</time>
      </trkpt>
      <trkpt lat="46.28891" lon="-0.3838">
        <ele>41.4261</ele>
        <time>2011-07-03T13:12:39Z</time>
      </trkpt>
      <trkpt lat="46.28889" lon="-0.38379">
        <ele>41.4005</ele>
        <time>2011-07-03T13:12:40Z</time>
      </trkpt>
      <trkpt lat="46.28888" lon="-0.38378">
        <ele>41.374</ele>
        <time>2011-07-03T13:12:41Z</time>
      </trkpt>
      <trkpt lat="46.28887" lon="-0.38376">
        <ele>41.346</ele>
        <time>2011-07-03T13:12:42Z</time>
      </trkpt>
      <trkpt lat="46.28886" lon="-0.38375">
        <ele>41.3159</ele>
        <time>2011-07-03T13:12:43Z</time>
      </trkpt>
      <trkpt lat="46.28885" lon="-0.38373">
        <ele>41.2831</ele>
        <time>2011-07-03T13:12:44Z</time>
      </trkpt>
      <trkpt lat="46.28885" lon="-0.3837">
        <ele>41.248</ele>
        <time>2011-07-03T13:12:45Z</time>
      </trkpt>
      <trkpt lat="46.28885" lon="-0.38368">
        <ele>41.2107</ele>
        <time>2011-07-03T13:12:46Z</time>
      </trkpt>
      <trkpt lat="46.28884" lon="-0.38366">
        <ele>41.1719</ele>
        <time>2011-07-03T13:12:47Z</time>
      </trkpt>
      <trkpt lat="46.28884" lon="-0.38365">
        <ele>41.1312</ele>
        <time>2011-07-03T13:12:48Z</time>
      </trkpt>
      <trkpt lat="46.28883" lon="-0.38363">
        <ele>41.0925</ele>
        <time>2011-07-03T13:12:49Z</time>
      </trkpt>
      <trkpt lat="46.28883" lon="-0.38361">
        <ele>41.0553</ele>
        <time>2011-07-03T13:12:50Z</time>
      </trkpt>
      <trkpt lat="46.28883" lon="-0.38359">
        <ele>41.0188</ele>
        <time>2011-07-03T13:12:51Z</time>
      </trkpt>
      <trkpt lat="46.28883" lon="-0.38357">
        <ele>40.9816</ele>
        <time>2011-07-03T13:12:52Z</time>
      </trkpt>
      <trkpt lat="46.28883" lon="-0.38355">
        <ele>40.9445</ele>
        <time>2011-07-03T13:12:53Z</time>
      </trkpt>
      <trkpt lat="46.28883" lon="-0.38353">
        <ele>40.9079</ele>
        <time>2011-07-03T13:12:54Z</time>
      </trkpt>
      <trkpt lat="46.28882" lon="-0.38352">
        <ele>40.8718</ele>
        <time>2011-07-03T13:12:55Z</time>
      </trkpt>
      <trkpt lat="46.28882" lon="-0.3835">
        <ele>40.8349</ele>
        <time>2011-07-03T13:12:56Z</time>
      </trkpt>
      <trkpt lat="46.28882" lon="-0.38348">
        <ele>40.7979</ele>
        <time>2011-07-03T13:12:57Z</time>
      </trkpt>
      <trkpt lat="46.28882" lon="-0.38347">
        <ele>40.7595</ele>
        <time>2011-07-03T13:12:58Z</time>
      </trkpt>
      <trkpt lat="46.28882" lon="-0.38345">
        <ele>40.7206</ele>
        <time>2011-07-03T13:12:59Z</time>
      </trkpt>
      <trkpt lat="46.28882" lon="-0.38344">
        <ele>40.6817</ele>
        <time>2011-07-03T13:13:00Z</time>
      </trkpt>
      <trkpt lat="46.28882" lon="-0.38342">
        <ele>40.6419</ele>
        <time>2011-07-03T13:13:01Z</time>
      </trkpt>
      <trkpt lat="46.28882" lon="-0.3834">
        <ele>40.6004</ele>
        <time>2011-07-03T13:13:02Z</time>
      </trkpt>
      <trkpt lat="46.28882" lon="-0.38338">
        <ele>40.5569</ele>
        <time>2011-07-03T13:13:03Z</time>
      </trkpt>
      <trkpt lat="46.28882" lon="-0.38337">
        <ele>40.5153</ele>
        <time>2011-07-03T13:13:04Z</time>
      </trkpt>
      <trkpt lat="46.28882" lon="-0.38335">
        <ele>40.4764</ele>
        <time>2011-07-03T13:13:05Z</time>
      </trkpt>
      <trkpt lat="46.28882" lon="-0.38333">
        <ele>40.4383</ele>
        <time>2011-07-03T13:13:06Z</time>
      </trkpt>
      <trkpt lat="46.28882" lon="-0.38331">
        <ele>40.4008</ele>
        <time>2011-07-03T13:13:07Z</time>
      </trkpt>
      <trkpt lat="46.28882" lon="-0.3833">
        <ele>40.364</ele>
        <time>2011-07-03T13:13:08Z</time>
      </trkpt>
      <trkpt lat="46.28882" lon="-0.38328">
        <ele>40.3276</ele>
        <time>2011-07-03T13:13:09Z</time>
      </trkpt>
      <trkpt lat="46.28882" lon="-0.38326">
        <ele>40.2903</ele>
        <time>2011-07-03T13:13:10Z</time>
      </trkpt>
      <trkpt lat="46.28882" lon="-0.38324">
        <ele>40.252</ele>
        <time>2011-07-03T13:13:11Z</time>
      </trkpt>
      <trkpt lat="46.28882" lon="-0.38323">
        <ele>40.2168</ele>
        <time>2011-07-03T13:13:12Z</time>
      </trkpt>
      <trkpt lat="46.28882" lon="-0.38321">
        <ele>40.1833</ele>
        <time>2011-07-03T13:13:13Z</time>
      </trkpt>
      <trkpt lat="46.28882" lon="-0.38319">
        <ele>40.1517</ele>
        <time>2011-07-03T13:13:14Z</time>
      </trkpt>
      <trkpt lat="46.28882" lon="-0.38317">
        <ele>40.1215</ele>
        <time>2011-07-03T13:13:15Z</time>
      </trkpt>
      <trkpt lat="46.28882" lon="-0.38315">
        <ele>40.0912</ele>
        <time>2011-07-03T13:13:16Z</time>
      </trkpt>
      <trkpt lat="46.28882" lon="-0.38313">
        <ele>40.0633</ele>
        <time>2011-07-03T13:13:17Z</time>
      </trkpt>
      <trkpt lat="46.28882" lon="-0.3831">
        <ele>40.0304</ele>
        <time>2011-07-03T13:13:18Z</time>
      </trkpt>
      <trkpt lat="46.28882" lon="-0.38309">
        <ele>39.9961</ele>
        <time>2011-07-03T13:13:19Z</time>
      </trkpt>
      <trkpt lat="46.28882" lon="-0.38307">
        <ele>39.9595</ele>
        <time>2011-07-03T13:13:20Z</time>
      </trkpt>
      <trkpt lat="46.28882" lon="-0.38305">
        <ele>39.9187</ele>
        <time>2011-07-03T13:13:21Z</time>
      </trkpt>
      <trkpt lat="46.28882" lon="-0.38303">
        <ele>39.8741</ele>
        <time>2011-07-03T13:13:22Z</time>
      </trkpt>
      <trkpt lat="46.28882" lon="-0.38301">
        <ele>39.8278</ele>
        <time>2011-07-03T13:13:23Z</time>
      </trkpt>
      <trkpt lat="46.28882" lon="-0.38298">
        <ele>39.7816</ele>
        <time>2011-07-03T13:13:24Z</time>
      </trkpt>
      <trkpt lat="46.28882" lon="-0.38296">
        <ele>39.7347</ele>
        <time>2011-07-03T13:13:25Z</time>
      </trkpt>
      <trkpt lat="46.28882" lon="-0.38294">
        <ele>39.6901</ele>
        <time>2011-07-03T13:13:26Z</time>
      </trkpt>
      <trkpt lat="46.28882" lon="-0.38292">
        <ele>39.6461</ele>
        <time>2011-07-03T13:13:27Z</time>
      </trkpt>
      <trkpt lat="46.28882" lon="-0.3829">
        <ele>39.6031</ele>
        <time>2011-07-03T13:13:28Z</time>
      </trkpt>
      <trkpt lat="46.28882" lon="-0.38289">
        <ele>39.5613</ele>
        <time>2011-07-03T13:13:29Z</time>
      </trkpt>
      <trkpt lat="46.28882" lon="-0.38287">
        <ele>39.5198</ele>
        <time>2011-07-03T13:13:30Z</time>
      </trkpt>
      <trkpt lat="46.28881" lon="-0.38285">
        <ele>39.4793</ele>
        <time>2011-07-03T13:13:31Z</time>
      </trkpt>
      <trkpt lat="46.2888" lon="-0.38284">
        <ele>39.4373</ele>
        <time>2011-07-03T13:13:32Z</time>
      </trkpt>
      <trkpt lat="46.2888" lon="-0.38282">
        <ele>39.3965</ele>
        <time>2011-07-03T13:13:33Z</time>
      </trkpt>
      <trkpt lat="46.2888" lon="-0.38281">
        <ele>39.3568</ele>
        <time>2011-07-03T13:13:34Z</time>
      </trkpt>
      <trkpt lat="46.28881" lon="-0.38279">
        <ele>39.3169</ele>
        <time>2011-07-03T13:13:35Z</time>
      </trkpt>
      <trkpt lat="46.28881" lon="-0.38277">
        <ele>39.2775</ele>
        <time>2011-07-03T13:13:36Z</time>
      </trkpt>
      <trkpt lat="46.28881" lon="-0.38275">
        <ele>39.2399</ele>
        <time>2011-07-03T13:13:37Z</time>
      </trkpt>
      <trkpt lat="46.28881" lon="-0.38273">
        <ele>39.2034</ele>
        <time>2011-07-03T13:13:38Z</time>
      </trkpt>
      <trkpt lat="46.28881" lon="-0.38271">
        <ele>39.1691</ele>
        <time>2011-07-03T13:13:39Z</time>
      </trkpt>
      <trkpt lat="46.28881" lon="-0.38269">
        <ele>39.1357</ele>
        <time>2011-07-03T13:13:40Z</time>
      </trkpt>
      <trkpt lat="46.28881" lon="-0.38267">
        <ele>39.1033</ele>
        <time>2011-07-03T13:13:41Z</time>
      </trkpt>
      <trkpt lat="46.28881" lon="-0.38265">
        <ele>39.072</ele>
        <time>2011-07-03T13:13:42Z</time>
      </trkpt>
      <trkpt lat="46.28881" lon="-0.38263">
        <ele>39.0409</ele>
        <time>2011-07-03T13:13:43Z</time>
      </trkpt>
      <trkpt lat="46.28881" lon="-0.38262">
        <ele>39.0119</ele>
        <time>2011-07-03T13:13:44Z</time>
      </trkpt>
      <trkpt lat="46.28882" lon="-0.3826">
        <ele>38.985</ele>
        <time>2011-07-03T13:13:45Z</time>
      </trkpt>
      <trkpt lat="46.28882" lon="-0.38258">
        <ele>38.9579</ele>
        <time>2011-07-03T13:13:46Z</time>
      </trkpt>
      <trkpt lat="46.28882" lon="-0.38256">
        <ele>38.9324</ele>
        <time>2011-07-03T13:13:47Z</time>
      </trkpt>
      <trkpt lat="46.28882" lon="-0.38254">
        <ele>38.908</ele>
        <time>2011-07-03T13:13:48Z</time>
      </trkpt>
      <trkpt lat="46.28882" lon="-0.38252">
        <ele>38.8843</ele>
        <time>2011-07-03T13:13:49Z</time>
      </trkpt>
      <trkpt lat="46.28881" lon="-0.3825">
        <ele>38.8616</ele>
        <time>2011-07-03T13:13:50Z</time>
      </trkpt>
      <trkpt lat="46.28881" lon="-0.38248">
        <ele>38.8438</ele>
        <time>2011-07-03T13:13:51Z</time>
      </trkpt>
      <trkpt lat="46.28881" lon="-0.38246">
        <ele>38.826</ele>
        <time>2011-07-03T13:13:52Z</time>
      </trkpt>
      <trkpt lat="46.28882" lon="-0.38244">
        <ele>38.8101</ele>
        <time>2011-07-03T13:13:53Z</time>
      </trkpt>
      <trkpt lat="46.28882" lon="-0.38242">
        <ele>38.7984</ele>
        <time>2011-07-03T13:13:54Z</time>
      </trkpt>
      <trkpt lat="46.28882" lon="-0.3824">
        <ele>38.7849</ele>
        <time>2011-07-03T13:13:55Z</time>
      </trkpt>
      <trkpt lat="46.28882" lon="-0.38238">
        <ele>38.7719</ele>
        <time>2011-07-03T13:13:56Z</time>
      </trkpt>
      <trkpt lat="46.28882" lon="-0.38237">
        <ele>38.7595</ele>
        <time>2011-07-03T13:13:57Z</time>
      </trkpt>
      <trkpt lat="46.28882" lon="-0.38235">
        <ele>38.7428</ele>
        <time>2011-07-03T13:13:58Z</time>
      </trkpt>
      <trkpt lat="46.28882" lon="-0.38233">
        <ele>38.7244</ele>
        <time>2011-07-03T13:13:59Z</time>
      </trkpt>
      <trkpt lat="46.28882" lon="-0.38231">
        <ele>38.7051</ele>
        <time>2011-07-03T13:14:00Z</time>
      </trkpt>
      <trkpt lat="46.28882" lon="-0.38229">
        <ele>38.69</ele>
        <time>2011-07-03T13:14:01Z</time>
      </trkpt>
      <trkpt lat="46.28882" lon="-0.38227">
        <ele>38.6733</ele>
        <time>2011-07-03T13:14:02Z</time>
      </trkpt>
      <trkpt lat="46.28882" lon="-0.38224">
        <ele>38.6584</ele>
        <time>2011-07-03T13:14:03Z</time>
      </trkpt>
      <trkpt lat="46.28881" lon="-0.38222">
        <ele>38.6438</ele>
        <time>2011-07-03T13:14:04Z</time>
      </trkpt>
      <trkpt lat="46.28881" lon="-0.3822">
        <ele>38.6302</ele>
        <time>2011-07-03T13:14:05Z</time>
      </trkpt>
      <trkpt lat="46.28882" lon="-0.38218">
        <ele>38.6158</ele>
        <time>2011-07-03T13:14:06Z</time>
      </trkpt>
      <trkpt lat="46.28882" lon="-0.38217">
        <ele>38.6002</ele>
        <time>2011-07-03T13:14:07Z</time>
      </trkpt>
      <trkpt lat="46.28882" lon="-0.38215">
        <ele>38.5792</ele>
        <time>2011-07-03T13:14:08Z</time>
      </trkpt>
      <trkpt lat="46.28882" lon="-0.38213">
        <ele>38.5589</ele>
        <time>2011-07-03T13:14:09Z</time>
      </trkpt>
      <trkpt lat="46.28882" lon="-0.38212">
        <ele>38.5376</ele>
        <time>2011-07-03T13:14:10Z</time>
      </trkpt>
      <trkpt lat="46.28882" lon="-0.3821">
        <ele>38.5181</ele>
        <time>2011-07-03T13:14:11Z</time>
      </trkpt>
      <trkpt lat="46.28882" lon="-0.38208">
        <ele>38.4961</ele>
        <time>2011-07-03T13:14:12Z</time>
      </trkpt>
      <trkpt lat="46.28882" lon="-0.38207">
        <ele>38.4735</ele>
        <time>2011-07-03T13:14:13Z</time>
      </trkpt>
      <trkpt lat="46.28881" lon="-0.38205">
        <ele>38.4478</ele>
        <time>2011-07-03T13:14:14Z</time>
      </trkpt>
      <trkpt lat="46.28881" lon="-0.38204">
        <ele>38.4216</ele>
        <time>2011-07-03T13:14:15Z</time>
      </trkpt>
      <trkpt lat="46.28881" lon="-0.38202">
        <ele>38.3961</ele>
        <time>2011-07-03T13:14:16Z</time>
      </trkpt>
      <trkpt lat="46.2888" lon="-0.38201">
        <ele>38.3717</ele>
        <time>2011-07-03T13:14:17Z</time>
      </trkpt>
      <trkpt lat="46.2888" lon="-0.38199">
        <ele>38.3467</ele>
        <time>2011-07-03T13:14:18Z</time>
      </trkpt>
      <trkpt lat="46.2888" lon="-0.38197">
        <ele>38.3215</ele>
        <time>2011-07-03T13:14:19Z</time>
      </trkpt>
      <trkpt lat="46.2888" lon="-0.38195">
        <ele>38.2979</ele>
        <time>2011-07-03T13:14:20Z</time>
      </trkpt>
      <trkpt lat="46.28879" lon="-0.38193">
        <ele>38.2746</ele>
        <time>2011-07-03T13:14:21Z</time>
      </trkpt>
      <trkpt lat="46.28878" lon="-0.38191">
        <ele>38.2505</ele>
        <time>2011-07-03T13:14:22Z</time>
      </trkpt>
      <trkpt lat="46.28878" lon="-0.38189">
        <ele>38.2271</ele>
        <time>2011-07-03T13:14:23Z</time>
      </trkpt>
      <trkpt lat="46.28878" lon="-0.38187">
        <ele>38.2042</ele>
        <time>2011-07-03T13:14:24Z</time>
      </trkpt>
      <trkpt lat="46.28878" lon="-0.38186">
        <ele>38.1817</ele>
        <time>2011-07-03T13:14:25Z</time>
      </trkpt>
      <trkpt lat="46.28877" lon="-0.38184">
        <ele>38.1587</ele>
        <time>2011-07-03T13:14:26Z</time>
      </trkpt>
      <trkpt lat="46.28877" lon="-0.38182">
        <ele>38.1346</ele>
        <time>2011-07-03T13:14:27Z</time>
      </trkpt>
      <trkpt lat="46.28877" lon="-0.3818">
        <ele>38.1144</ele>
        <time>2011-07-03T13:14:28Z</time>
      </trkpt>
      <trkpt lat="46.28877" lon="-0.38179">
        <ele>38.0915</ele>
        <time>2011-07-03T13:14:29Z</time>
      </trkpt>
      <trkpt lat="46.28877" lon="-0.38177">
        <ele>38.069</ele>
        <time>2011-07-03T13:14:30Z</time>
      </trkpt>
      <trkpt lat="46.28876" lon="-0.38175">
        <ele>38.0467</ele>
        <time>2011-07-03T13:14:31Z</time>
      </trkpt>
      <trkpt lat="46.28876" lon="-0.38174">
        <ele>38.0234</ele>
        <time>2011-07-03T13:14:32Z</time>
      </trkpt>
      <trkpt lat="46.28875" lon="-0.38172">
        <ele>37.9976</ele>
        <time>2011-07-03T13:14:33Z</time>
      </trkpt>
      <trkpt lat="46.28875" lon="-0.3817">
        <ele>37.9721</ele>
        <time>2011-07-03T13:14:34Z</time>
      </trkpt>
      <trkpt lat="46.28875" lon="-0.38168">
        <ele>37.9447</ele>
        <time>2011-07-03T13:14:35Z</time>
      </trkpt>
      <trkpt lat="46.28874" lon="-0.38166">
        <ele>37.9171</ele>
        <time>2011-07-03T13:14:36Z</time>
      </trkpt>
      <trkpt lat="46.28874" lon="-0.38164">
        <ele>37.8899</ele>
        <time>2011-07-03T13:14:37Z</time>
      </trkpt>
      <trkpt lat="46.28873" lon="-0.38162">
        <ele>37.8607</ele>
        <time>2011-07-03T13:14:38Z</time>
      </trkpt>
      <trkpt lat="46.28873" lon="-0.38161">
        <ele>37.8298</ele>
        <time>2011-07-03T13:14:39Z</time>
      </trkpt>
      <trkpt lat="46.28873" lon="-0.38159">
        <ele>37.7939</ele>
        <time>2011-07-03T13:14:40Z</time>
      </trkpt>
      <trkpt lat="46.28873" lon="-0.38157">
        <ele>37.7549</ele>
        <time>2011-07-03T13:14:41Z</time>
      </trkpt>
      <trkpt lat="46.28873" lon="-0.38155">
        <ele>37.7164</ele>
        <time>2011-07-03T13:14:42Z</time>
      </trkpt>
      <trkpt lat="46.28873" lon="-0.38153">
        <ele>37.6766</ele>
        <time>2011-07-03T13:14:43Z</time>
      </trkpt>
      <trkpt lat="46.28873" lon="-0.38151">
        <ele>37.6366</ele>
        <time>2011-07-03T13:14:44Z</time>
      </trkpt>
      <trkpt lat="46.28873" lon="-0.3815">
        <ele>37.5965</ele>
        <time>2011-07-03T13:14:45Z</time>
      </trkpt>
      <trkpt lat="46.28873" lon="-0.38148">
        <ele>37.5573</ele>
        <time>2011-07-03T13:14:46Z</time>
      </trkpt>
      <trkpt lat="46.28873" lon="-0.38146">
        <ele>37.519</ele>
        <time>2011-07-03T13:14:47Z</time>
      </trkpt>
      <trkpt lat="46.28873" lon="-0.38144">
        <ele>37.4813</ele>
        <time>2011-07-03T13:14:48Z</time>
      </trkpt>
      <trkpt lat="46.28873" lon="-0.38143">
        <ele>37.4483</ele>
        <time>2011-07-03T13:14:49Z</time>
      </trkpt>
      <trkpt lat="46.28872" lon="-0.38141">
        <ele>37.416</ele>
        <time>2011-07-03T13:14:50Z</time>
      </trkpt>
      <trkpt lat="46.28872" lon="-0.38139">
        <ele>37.3845</ele>
        <time>2011-07-03T13:14:51Z</time>
      </trkpt>
      <trkpt lat="46.28872" lon="-0.38138">
        <ele>37.3464</ele>
        <time>2011-07-03T13:14:52Z</time>
      </trkpt>
      <trkpt lat="46.28872" lon="-0.38136">
        <ele>37.3079</ele>
        <time>2011-07-03T13:14:53Z</time>
      </trkpt>
      <trkpt lat="46.28872" lon="-0.38134">
        <ele>37.2697</ele>
        <time>2011-07-03T13:14:54Z</time>
      </trkpt>
      <trkpt lat="46.28871" lon="-0.38132">
        <ele>37.2328</ele>
        <time>2011-07-03T13:14:55Z</time>
      </trkpt>
      <trkpt lat="46.28871" lon="-0.38131">
        <ele>37.1973</ele>
        <time>2011-07-03T13:14:56Z</time>
      </trkpt>
      <trkpt lat="46.28871" lon="-0.38129">
        <ele>37.1605</ele>
        <time>2011-07-03T13:14:57Z</time>
      </trkpt>
      <trkpt lat="46.28871" lon="-0.38127">
        <ele>37.1215</ele>
        <time>2011-07-03T13:14:58Z</time>
      </trkpt>
      <trkpt lat="46.2887" lon="-0.38124">
        <ele>37.0829</ele>
        <time>2011-07-03T13:14:59Z</time>
      </trkpt>
      <trkpt lat="46.2887" lon="-0.38122">
        <ele>37.0445</ele>
        <time>2011-07-03T13:15:00Z</time>
      </trkpt>
      <trkpt lat="46.2887" lon="-0.3812">
        <ele>37.0067</ele>
        <time>2011-07-03T13:15:01Z</time>
      </trkpt>
      <trkpt lat="46.28869" lon="-0.38118">
        <ele>36.9691</ele>
        <time>2011-07-03T13:15:02Z</time>
      </trkpt>
      <trkpt lat="46.28869" lon="-0.38116">
        <ele>36.9323</ele>
        <time>2011-07-03T13:15:03Z</time>
      </trkpt>
      <trkpt lat="46.28869" lon="-0.38114">
        <ele>36.8956</ele>
        <time>2011-07-03T13:15:04Z</time>
      </trkpt>
      <trkpt lat="46.28869" lon="-0.38112">
        <ele>36.8652</ele>
        <time>2011-07-03T13:15:05Z</time>
      </trkpt>
      <trkpt lat="46.28869" lon="-0.3811">
        <ele>36.8356</ele>
        <time>2011-07-03T13:15:06Z</time>
      </trkpt>
      <trkpt lat="46.28868" lon="-0.38108">
        <ele>36.8063</ele>
        <time>2011-07-03T13:15:07Z</time>
      </trkpt>
      <trkpt lat="46.28868" lon="-0.38106">
        <ele>36.7762</ele>
        <time>2011-07-03T13:15:08Z</time>
      </trkpt>
      <trkpt lat="46.28868" lon="-0.38104">
        <ele>36.746</ele>
        <time>2011-07-03T13:15:09Z</time>
      </trkpt>
      <trkpt lat="46.28867" lon="-0.38102">
        <ele>36.7157</ele>
        <time>2011-07-03T13:15:10Z</time>
      </trkpt>
      <trkpt lat="46.28867" lon="-0.38101">
        <ele>36.6861</ele>
        <time>2011-07-03T13:15:11Z</time>
      </trkpt>
      <trkpt lat="46.28867" lon="-0.38099">
        <ele>36.6564</ele>
        <time>2011-07-03T13:15:12Z</time>
      </trkpt>
      <trkpt lat="46.28866" lon="-0.38097">
        <ele>36.6265</ele>
        <time>2011-07-03T13:15:13Z</time>
      </trkpt>
      <trkpt lat="46.28866" lon="-0.38095">
        <ele>36.5956</ele>
        <time>2011-07-03T13:15:14Z</time>
      </trkpt>
      <trkpt lat="46.28866" lon="-0.38093">
        <ele>36.5621</ele>
        <time>2011-07-03T13:15:15Z</time>
      </trkpt>
      <trkpt lat="46.28865" lon="-0.38091">
        <ele>36.5251</ele>
        <time>2011-07-03T13:15:16Z</time>
      </trkpt>
      <trkpt lat="46.28865" lon="-0.38088">
        <ele>36.4873</ele>
        <time>2011-07-03T13:15:17Z</time>
      </trkpt>
      <trkpt lat="46.28864" lon="-0.38086">
        <ele>36.4516</ele>
        <time>2011-07-03T13:15:18Z</time>
      </trkpt>
      <trkpt lat="46.28864" lon="-0.38084">
        <ele>36.42</ele>
        <time>2011-07-03T13:15:19Z</time>
      </trkpt>
      <trkpt lat="46.28863" lon="-0.38083">
        <ele>36.3894</ele>
        <time>2011-07-03T13:15:20Z</time>
      </trkpt>
      <trkpt lat="46.28863" lon="-0.38081">
        <ele>36.3606</ele>
        <time>2011-07-03T13:15:21Z</time>
      </trkpt>
      <trkpt lat="46.28863" lon="-0.38079">
        <ele>36.332</ele>
        <time>2011-07-03T13:15:22Z</time>
      </trkpt>
      <trkpt lat="46.28863" lon="-0.38077">
        <ele>36.3116</ele>
        <time>2011-07-03T13:15:23Z</time>
      </trkpt>
      <trkpt lat="46.28862" lon="-0.38075">
        <ele>36.2895</ele>
        <time>2011-07-03T13:15:24Z</time>
      </trkpt>
      <trkpt lat="46.28862" lon="-0.38073">
        <ele>36.2668</ele>
        <time>2011-07-03T13:15:25Z</time>
      </trkpt>
      <trkpt lat="46.28862" lon="-0.38071">
        <ele>36.2444</ele>
        <time>2011-07-03T13:15:26Z</time>
      </trkpt>
      <trkpt lat="46.28862" lon="-0.3807">
        <ele>36.2224</ele>
        <time>2011-07-03T13:15:27Z</time>
      </trkpt>
      <trkpt lat="46.28862" lon="-0.38068">
        <ele>36.199</ele>
        <time>2011-07-03T13:15:28Z</time>
      </trkpt>
      <trkpt lat="46.28861" lon="-0.38066">
        <ele>36.1743</ele>
        <time>2011-07-03T13:15:29Z</time>
      </trkpt>
      <trkpt lat="46.28861" lon="-0.38064">
        <ele>36.1494</ele>
        <time>2011-07-03T13:15:30Z</time>
      </trkpt>
      <trkpt lat="46.28861" lon="-0.38063">
        <ele>36.1257</ele>
        <time>2011-07-03T13:15:31Z</time>
      </trkpt>
      <trkpt lat="46.2886" lon="-0.38061">
        <ele>36.1021</ele>
        <time>2011-07-03T13:15:32Z</time>
      </trkpt>
      <trkpt lat="46.2886" lon="-0.38059">
        <ele>36.0777</ele>
        <time>2011-07-03T13:15:33Z</time>
      </trkpt>
      <trkpt lat="46.28859" lon="-0.38057">
        <ele>36.0554</ele>
        <time>2011-07-03T13:15:34Z</time>
      </trkpt>
      <trkpt lat="46.28859" lon="-0.38056">
        <ele>36.0338</ele>
        <time>2011-07-03T13:15:35Z</time>
      </trkpt>
      <trkpt lat="46.28859" lon="-0.38054">
        <ele>36.0202</ele>
        <time>2011-07-03T13:15:36Z</time>
      </trkpt>
      <trkpt lat="46.28858" lon="-0.38051">
        <ele>36.0076</ele>
        <time>2011-07-03T13:15:37Z</time>
      </trkpt>
      <trkpt lat="46.28858" lon="-0.3805">
        <ele>36.0045</ele>
        <time>2011-07-03T13:15:38Z</time>
      </trkpt>
      <trkpt lat="46.28857" lon="-0.38048">
        <ele>36.0029</ele>
        <time>2011-07-03T13:15:39Z</time>
      </trkpt>
      <trkpt lat="46.28857" lon="-0.38046">
        <ele>36.0065</ele>
        <time>2011-07-03T13:15:40Z</time>
      </trkpt>
      <trkpt lat="46.28856" lon="-0.38045">
        <ele>36.0099</ele>
        <time>2011-07-03T13:15:41Z</time>
      </trkpt>
      <trkpt lat="46.28856" lon="-0.38043">
        <ele>36.0135</ele>
        <time>2011-07-03T13:15:42Z</time>
      </trkpt>
      <trkpt lat="46.28856" lon="-0.38041">
        <ele>36.0174</ele>
        <time>2011-07-03T13:15:43Z</time>
      </trkpt>
      <trkpt lat="46.28855" lon="-0.3804">
        <ele>36.02</ele>
        <time>2011-07-03T13:15:44Z</time>
      </trkpt>
      <trkpt lat="46.28855" lon="-0.38038">
        <ele>36.0228</ele>
        <time>2011-07-03T13:15:45Z</time>
      </trkpt>
      <trkpt lat="46.28854" lon="-0.38037">
        <ele>36.0254</ele>
        <time>2011-07-03T13:15:46Z</time>
      </trkpt>
      <trkpt lat="46.28854" lon="-0.38036">
        <ele>36.0301</ele>
        <time>2011-07-03T13:15:47Z</time>
      </trkpt>
      <trkpt lat="46.28854" lon="-0.38034">
        <ele>36.0392</ele>
        <time>2011-07-03T13:15:48Z</time>
      </trkpt>
      <trkpt lat="46.28853" lon="-0.38033">
        <ele>36.0475</ele>
        <time>2011-07-03T13:15:49Z</time>
      </trkpt>
      <trkpt lat="46.28853" lon="-0.38031">
        <ele>36.0563</ele>
        <time>2011-07-03T13:15:50Z</time>
      </trkpt>
      <trkpt lat="46.28853" lon="-0.38029">
        <ele>36.0663</ele>
        <time>2011-07-03T13:15:51Z</time>
      </trkpt>
      <trkpt lat="46.28852" lon="-0.38027">
        <ele>36.0792</ele>
        <time>2011-07-03T13:15:52Z</time>
      </trkpt>
      <trkpt lat="46.28852" lon="-0.38026">
        <ele>36.0928</ele>
        <time>2011-07-03T13:15:53Z</time>
      </trkpt>
      <trkpt lat="46.28851" lon="-0.38024">
        <ele>36.1082</ele>
        <time>2011-07-03T13:15:54Z</time>
      </trkpt>
      <trkpt lat="46.28851" lon="-0.38022">
        <ele>36.1285</ele>
        <time>2011-07-03T13:15:55Z</time>
      </trkpt>
      <trkpt lat="46.2885" lon="-0.38021">
        <ele>36.1471</ele>
        <time>2011-07-03T13:15:56Z</time>
      </trkpt>
      <trkpt lat="46.28849" lon="-0.3802">
        <ele>36.1652</ele>
        <time>2011-07-03T13:15:57Z</time>
      </trkpt>
      <trkpt lat="46.28849" lon="-0.38018">
        <ele>36.1834</ele>
        <time>2011-07-03T13:15:58Z</time>
      </trkpt>
      <trkpt lat="46.28849" lon="-0.38017">
        <ele>36.2017</ele>
        <time>2011-07-03T13:15:59Z</time>
      </trkpt>
      <trkpt lat="46.28848" lon="-0.38016">
        <ele>36.2205</ele>
        <time>2011-07-03T13:16:00Z</time>
      </trkpt>
      <trkpt lat="46.28848" lon="-0.38014">
        <ele>36.2412</ele>
        <time>2011-07-03T13:16:01Z</time>
      </trkpt>
      <trkpt lat="46.28847" lon="-0.38013">
        <ele>36.2618</ele>
        <time>2011-07-03T13:16:02Z</time>
      </trkpt>
      <trkpt lat="46.28847" lon="-0.38011">
        <ele>36.2853</ele>
        <time>2011-07-03T13:16:03Z</time>
      </trkpt>
      <trkpt lat="46.28846" lon="-0.3801">
        <ele>36.3039</ele>
        <time>2011-07-03T13:16:04Z</time>
      </trkpt>
      <trkpt lat="46.28846" lon="-0.38008">
        <ele>36.3218</ele>
        <time>2011-07-03T13:16:05Z</time>
      </trkpt>
      <trkpt lat="46.28846" lon="-0.38006">
        <ele>36.3392</ele>
        <time>2011-07-03T13:16:06Z</time>
      </trkpt>
      <trkpt lat="46.28845" lon="-0.38004">
        <ele>36.3557</ele>
        <time>2011-07-03T13:16:07Z</time>
      </trkpt>
      <trkpt lat="46.28845" lon="-0.38002">
        <ele>36.3699</ele>
        <time>2011-07-03T13:16:08Z</time>
      </trkpt>
      <trkpt lat="46.28845" lon="-0.38">
        <ele>36.3837</ele>
        <time>2011-07-03T13:16:09Z</time>
      </trkpt>
      <trkpt lat="46.28845" lon="-0.37998">
        <ele>36.3971</ele>
        <time>2011-07-03T13:16:10Z</time>
      </trkpt>
      <trkpt lat="46.28844" lon="-0.37995">
        <ele>36.4087</ele>
        <time>2011-07-03T13:16:11Z</time>
      </trkpt>
      <trkpt lat="46.28844" lon="-0.37993">
        <ele>36.4224</ele>
        <time>2011-07-03T13:16:12Z</time>
      </trkpt>
      <trkpt lat="46.28844" lon="-0.3799">
        <ele>36.437</ele>
        <time>2011-07-03T13:16:13Z</time>
      </trkpt>
      <trkpt lat="46.28843" lon="-0.37988">
        <ele>36.4533</ele>
        <time>2011-07-03T13:16:14Z</time>
      </trkpt>
      <trkpt lat="46.28843" lon="-0.37986">
        <ele>36.4722</ele>
        <time>2011-07-03T13:16:15Z</time>
      </trkpt>
      <trkpt lat="46.28843" lon="-0.37984">
        <ele>36.4911</ele>
        <time>2011-07-03T13:16:16Z</time>
      </trkpt>
      <trkpt lat="46.28842" lon="-0.37982">
        <ele>36.511</ele>
        <time>2011-07-03T13:16:17Z</time>
      </trkpt>
      <trkpt lat="46.28841" lon="-0.3798">
        <ele>36.5244</ele>
        <time>2011-07-03T13:16:18Z</time>
      </trkpt>
      <trkpt lat="46.28841" lon="-0.37978">
        <ele>36.5333</ele>
        <time>2011-07-03T13:16:19Z</time>
      </trkpt>
      <trkpt lat="46.28841" lon="-0.37977">
        <ele>36.5432</ele>
        <time>2011-07-03T13:16:20Z</time>
      </trkpt>
      <trkpt lat="46.2884" lon="-0.37975">
        <ele>36.5529</ele>
        <time>2011-07-03T13:16:21Z</time>
      </trkpt>
      <trkpt lat="46.2884" lon="-0.37974">
        <ele>36.5597</ele>
        <time>2011-07-03T13:16:22Z</time>
      </trkpt>
      <trkpt lat="46.2884" lon="-0.37972">
        <ele>36.5666</ele>
        <time>2011-07-03T13:16:23Z</time>
      </trkpt>
      <trkpt lat="46.28839" lon="-0.37971">
        <ele>36.5749</ele>
        <time>2011-07-03T13:16:24Z</time>
      </trkpt>
      <trkpt lat="46.28839" lon="-0.37969">
        <ele>36.5892</ele>
        <time>2011-07-03T13:16:25Z</time>
      </trkpt>
      <trkpt lat="46.28838" lon="-0.37968">
        <ele>36.6053</ele>
        <time>2011-07-03T13:16:26Z</time>
      </trkpt>
      <trkpt lat="46.28838" lon="-0.37966">
        <ele>36.6217</ele>
        <time>2011-07-03T13:16:27Z</time>
      </trkpt>
      <trkpt lat="46.28838" lon="-0.37964">
        <ele>36.637</ele>
        <time>2011-07-03T13:16:28Z</time>
      </trkpt>
      <trkpt lat="46.28837" lon="-0.37962">
        <ele>36.6515</ele>
        <time>2011-07-03T13:16:29Z</time>
      </trkpt>
      <trkpt lat="46.28837" lon="-0.3796">
        <ele>36.6661</ele>
        <time>2011-07-03T13:16:30Z</time>
      </trkpt>
      <trkpt lat="46.28836" lon="-0.37957">
        <ele>36.6801</ele>
        <time>2011-07-03T13:16:31Z</time>
      </trkpt>
      <trkpt lat="46.28836" lon="-0.37955">
        <ele>36.6963</ele>
        <time>2011-07-03T13:16:32Z</time>
      </trkpt>
      <trkpt lat="46.28836" lon="-0.37953">
        <ele>36.7165</ele>
        <time>2011-07-03T13:16:33Z</time>
      </trkpt>
      <trkpt lat="46.28835" lon="-0.37951">
        <ele>36.7379</ele>
        <time>2011-07-03T13:16:34Z</time>
      </trkpt>
      <trkpt lat="46.28835" lon="-0.37949">
        <ele>36.7594</ele>
        <time>2011-07-03T13:16:35Z</time>
      </trkpt>
      <trkpt lat="46.28834" lon="-0.37947">
        <ele>36.7839</ele>
        <time>2011-07-03T13:16:36Z</time>
      </trkpt>
      <trkpt lat="46.28834" lon="-0.37945">
        <ele>36.8098</ele>
        <time>2011-07-03T13:16:37Z</time>
      </trkpt>
      <trkpt lat="46.28833" lon="-0.37943">
        <ele>36.8364</ele>
        <time>2011-07-03T13:16:38Z</time>
      </trkpt>
      <trkpt lat="46.28833" lon="-0.37942">
        <ele>36.8633</ele>
        <time>2011-07-03T13:16:39Z</time>
      </trkpt>
      <trkpt lat="46.28832" lon="-0.3794">
        <ele>36.892</ele>
        <time>2011-07-03T13:16:40Z</time>
      </trkpt>
      <trkpt lat="46.28832" lon="-0.37938">
        <ele>36.9188</ele>
        <time>2011-07-03T13:16:41Z</time>
      </trkpt>
      <trkpt lat="46.28831" lon="-0.37937">
        <ele>36.9478</ele>
        <time>2011-07-03T13:16:42Z</time>
      </trkpt>
      <trkpt lat="46.28831" lon="-0.37935">
        <ele>36.9821</ele>
        <time>2011-07-03T13:16:43Z</time>
      </trkpt>
      <trkpt lat="46.28831" lon="-0.37934">
        <ele>37.0044</ele>
        <time>2011-07-03T13:16:44Z</time>
      </trkpt>
      <trkpt lat="46.28831" lon="-0.37931">
        <ele>37.0255</ele>
        <time>2011-07-03T13:16:45Z</time>
      </trkpt>
      <trkpt lat="46.28832" lon="-0.37928">
        <ele>37.0308</ele>
        <time>2011-07-03T13:16:46Z</time>
      </trkpt>
      <trkpt lat="46.28831" lon="-0.37925">
        <ele>37.0308</ele>
        <time>2011-07-03T13:16:47Z</time>
      </trkpt>
      <trkpt lat="46.28832" lon="-0.37924">
        <ele>37.0374</ele>
        <time>2011-07-03T13:16:48Z</time>
      </trkpt>
      <trkpt lat="46.28832" lon="-0.37922">
        <ele>37.0498</ele>
        <time>2011-07-03T13:16:49Z</time>
      </trkpt>
      <trkpt lat="46.28831" lon="-0.37921">
        <ele>37.0641</ele>
        <time>2011-07-03T13:16:50Z</time>
      </trkpt>
      <trkpt lat="46.28831" lon="-0.37919">
        <ele>37.0817</ele>
        <time>2011-07-03T13:16:51Z</time>
      </trkpt>
      <trkpt lat="46.2883" lon="-0.37917">
        <ele>37.1029</ele>
        <time>2011-07-03T13:16:52Z</time>
      </trkpt>
      <trkpt lat="46.2883" lon="-0.37915">
        <ele>37.121</ele>
        <time>2011-07-03T13:16:53Z</time>
      </trkpt>
      <trkpt lat="46.2883" lon="-0.37913">
        <ele>37.1418</ele>
        <time>2011-07-03T13:16:54Z</time>
      </trkpt>
      <trkpt lat="46.28829" lon="-0.37911">
        <ele>37.1598</ele>
        <time>2011-07-03T13:16:55Z</time>
      </trkpt>
      <trkpt lat="46.28829" lon="-0.37909">
        <ele>37.1792</ele>
        <time>2011-07-03T13:16:56Z</time>
      </trkpt>
      <trkpt lat="46.28828" lon="-0.37907">
        <ele>37.1987</ele>
        <time>2011-07-03T13:16:57Z</time>
      </trkpt>
      <trkpt lat="46.28828" lon="-0.37905">
        <ele>37.2213</ele>
        <time>2011-07-03T13:16:58Z</time>
      </trkpt>
      <trkpt lat="46.28828" lon="-0.37903">
        <ele>37.2433</ele>
        <time>2011-07-03T13:16:59Z</time>
      </trkpt>
      <trkpt lat="46.28828" lon="-0.37901">
        <ele>37.2529</ele>
        <time>2011-07-03T13:17:00Z</time>
      </trkpt>
      <trkpt lat="46.28828" lon="-0.37899">
        <ele>37.2636</ele>
        <time>2011-07-03T13:17:01Z</time>
      </trkpt>
      <trkpt lat="46.28828" lon="-0.37897">
        <ele>37.2772</ele>
        <time>2011-07-03T13:17:02Z</time>
      </trkpt>
      <trkpt lat="46.28828" lon="-0.37895">
        <ele>37.2867</ele>
        <time>2011-07-03T13:17:03Z</time>
      </trkpt>
      <trkpt lat="46.28827" lon="-0.37893">
        <ele>37.2975</ele>
        <time>2011-07-03T13:17:04Z</time>
      </trkpt>
      <trkpt lat="46.28827" lon="-0.37891">
        <ele>37.299</ele>
        <time>2011-07-03T13:17:05Z</time>
      </trkpt>
      <trkpt lat="46.28828" lon="-0.37889">
        <ele>37.298</ele>
        <time>2011-07-03T13:17:06Z</time>
      </trkpt>
      <trkpt lat="46.28827" lon="-0.37887">
        <ele>37.2893</ele>
        <time>2011-07-03T13:17:07Z</time>
      </trkpt>
      <trkpt lat="46.28827" lon="-0.37885">
        <ele>37.2744</ele>
        <time>2011-07-03T13:17:08Z</time>
      </trkpt>
      <trkpt lat="46.28827" lon="-0.37883">
        <ele>37.2592</ele>
        <time>2011-07-03T13:17:09Z</time>
      </trkpt>
      <trkpt lat="46.28827" lon="-0.37881">
        <ele>37.2426</ele>
        <time>2011-07-03T13:17:10Z</time>
      </trkpt>
      <trkpt lat="46.28827" lon="-0.37878">
        <ele>37.2254</ele>
        <time>2011-07-03T13:17:11Z</time>
      </trkpt>
      <trkpt lat="46.28826" lon="-0.37876">
        <ele>37.2083</ele>
        <time>2011-07-03T13:17:12Z</time>
      </trkpt>
      <trkpt lat="46.28826" lon="-0.37874">
        <ele>37.192</ele>
        <time>2011-07-03T13:17:13Z</time>
      </trkpt>
      <trkpt lat="46.28826" lon="-0.37872">
        <ele>37.1747</ele>
        <time>2011-07-03T13:17:14Z</time>
      </trkpt>
      <trkpt lat="46.28826" lon="-0.3787">
        <ele>37.1551</ele>
        <time>2011-07-03T13:17:15Z</time>
      </trkpt>
      <trkpt lat="46.28826" lon="-0.37868">
        <ele>37.1353</ele>
        <time>2011-07-03T13:17:16Z</time>
      </trkpt>
      <trkpt lat="46.28825" lon="-0.37867">
        <ele>37.1168</ele>
        <time>2011-07-03T13:17:17Z</time>
      </trkpt>
      <trkpt lat="46.28825" lon="-0.37865">
        <ele>37.1002</ele>
        <time>2011-07-03T13:17:18Z</time>
      </trkpt>
      <trkpt lat="46.28825" lon="-0.37863">
        <ele>37.0854</ele>
        <time>2011-07-03T13:17:19Z</time>
      </trkpt>
      <trkpt lat="46.28825" lon="-0.37862">
        <ele>37.0733</ele>
        <time>2011-07-03T13:17:20Z</time>
      </trkpt>
      <trkpt lat="46.28825" lon="-0.3786">
        <ele>37.06</ele>
        <time>2011-07-03T13:17:21Z</time>
      </trkpt>
      <trkpt lat="46.28824" lon="-0.37858">
        <ele>37.0486</ele>
        <time>2011-07-03T13:17:22Z</time>
      </trkpt>
      <trkpt lat="46.28824" lon="-0.37856">
        <ele>37.0407</ele>
        <time>2011-07-03T13:17:23Z</time>
      </trkpt>
      <trkpt lat="46.28824" lon="-0.37853">
        <ele>37.0339</ele>
        <time>2011-07-03T13:17:24Z</time>
      </trkpt>
      <trkpt lat="46.28824" lon="-0.37852">
        <ele>37.0307</ele>
        <time>2011-07-03T13:17:25Z</time>
      </trkpt>
      <trkpt lat="46.28824" lon="-0.3785">
        <ele>37.0292</ele>
        <time>2011-07-03T13:17:26Z</time>
      </trkpt>
      <trkpt lat="46.28824" lon="-0.37848">
        <ele>37.0273</ele>
        <time>2011-07-03T13:17:27Z</time>
      </trkpt>
      <trkpt lat="46.28824" lon="-0.37846">
        <ele>37.027</ele>
        <time>2011-07-03T13:17:28Z</time>
      </trkpt>
      <trkpt lat="46.28824" lon="-0.37844">
        <ele>37.0286</ele>
        <time>2011-07-03T13:17:29Z</time>
      </trkpt>
      <trkpt lat="46.28823" lon="-0.37843">
        <ele>37.0332</ele>
        <time>2011-07-03T13:17:30Z</time>
      </trkpt>
      <trkpt lat="46.28823" lon="-0.37841">
        <ele>37.0376</ele>
        <time>2011-07-03T13:17:31Z</time>
      </trkpt>
      <trkpt lat="46.28823" lon="-0.37839">
        <ele>37.0427</ele>
        <time>2011-07-03T13:17:32Z</time>
      </trkpt>
      <trkpt lat="46.28823" lon="-0.37838">
        <ele>37.0482</ele>
        <time>2011-07-03T13:17:33Z</time>
      </trkpt>
      <trkpt lat="46.28823" lon="-0.37836">
        <ele>37.0548</ele>
        <time>2011-07-03T13:17:34Z</time>
      </trkpt>
      <trkpt lat="46.28823" lon="-0.37834">
        <ele>37.0611</ele>
        <time>2011-07-03T13:17:35Z</time>
      </trkpt>
      <trkpt lat="46.28823" lon="-0.37832">
        <ele>37.0692</ele>
        <time>2011-07-03T13:17:36Z</time>
      </trkpt>
      <trkpt lat="46.28823" lon="-0.3783">
        <ele>37.0827</ele>
        <time>2011-07-03T13:17:37Z</time>
      </trkpt>
      <trkpt lat="46.28822" lon="-0.37828">
        <ele>37.096</ele>
        <time>2011-07-03T13:17:38Z</time>
      </trkpt>
      <trkpt lat="46.28822" lon="-0.37826">
        <ele>37.1093</ele>
        <time>2011-07-03T13:17:39Z</time>
      </trkpt>
      <trkpt lat="46.28823" lon="-0.37824">
        <ele>37.1223</ele>
        <time>2011-07-03T13:17:40Z</time>
      </trkpt>
      <trkpt lat="46.28823" lon="-0.37823">
        <ele>37.136</ele>
        <time>2011-07-03T13:17:41Z</time>
      </trkpt>
      <trkpt lat="46.28823" lon="-0.37821">
        <ele>37.1477</ele>
        <time>2011-07-03T13:17:42Z</time>
      </trkpt>
      <trkpt lat="46.28823" lon="-0.3782">
        <ele>37.1624</ele>
        <time>2011-07-03T13:17:43Z</time>
      </trkpt>
      <trkpt lat="46.28823" lon="-0.37818">
        <ele>37.1734</ele>
        <time>2011-07-03T13:17:44Z</time>
      </trkpt>
      <trkpt lat="46.28823" lon="-0.37817">
        <ele>37.1818</ele>
        <time>2011-07-03T13:17:45Z</time>
      </trkpt>
      <trkpt lat="46.28823" lon="-0.37815">
        <ele>37.1897</ele>
        <time>2011-07-03T13:17:46Z</time>
      </trkpt>
      <trkpt lat="46.28823" lon="-0.37814">
        <ele>37.2023</ele>
        <time>2011-07-03T13:17:47Z</time>
      </trkpt>
      <trkpt lat="46.28823" lon="-0.37812">
        <ele>37.2129</ele>
        <time>2011-07-03T13:17:48Z</time>
      </trkpt>
      <trkpt lat="46.28823" lon="-0.3781">
        <ele>37.2237</ele>
        <time>2011-07-03T13:17:49Z</time>
      </trkpt>
      <trkpt lat="46.28823" lon="-0.37808">
        <ele>37.2346</ele>
        <time>2011-07-03T13:17:50Z</time>
      </trkpt>
      <trkpt lat="46.28824" lon="-0.37807">
        <ele>37.2489</ele>
        <time>2011-07-03T13:17:51Z</time>
      </trkpt>
      <trkpt lat="46.28824" lon="-0.37805">
        <ele>37.2663</ele>
        <time>2011-07-03T13:17:52Z</time>
      </trkpt>
      <trkpt lat="46.28824" lon="-0.37803">
        <ele>37.2837</ele>
        <time>2011-07-03T13:17:53Z</time>
      </trkpt>
      <trkpt lat="46.28824" lon="-0.37801">
        <ele>37.3076</ele>
        <time>2011-07-03T13:17:54Z</time>
      </trkpt>
      <trkpt lat="46.28825" lon="-0.37799">
        <ele>37.3436</ele>
        <time>2011-07-03T13:17:55Z</time>
      </trkpt>
      <trkpt lat="46.28825" lon="-0.37797">
        <ele>37.3994</ele>
        <time>2011-07-03T13:17:56Z</time>
      </trkpt>
      <trkpt lat="46.28825" lon="-0.37794">
        <ele>37.4623</ele>
        <time>2011-07-03T13:17:57Z</time>
      </trkpt>
      <trkpt lat="46.28825" lon="-0.37792">
        <ele>37.5342</ele>
        <time>2011-07-03T13:17:58Z</time>
      </trkpt>
      <trkpt lat="46.28826" lon="-0.3779">
        <ele>37.6108</ele>
        <time>2011-07-03T13:17:59Z</time>
      </trkpt>
      <trkpt lat="46.28826" lon="-0.37788">
        <ele>37.6898</ele>
        <time>2011-07-03T13:18:00Z</time>
      </trkpt>
      <trkpt lat="46.28826" lon="-0.37785">
        <ele>37.774</ele>
        <time>2011-07-03T13:18:01Z</time>
      </trkpt>
      <trkpt lat="46.28826" lon="-0.37783">
        <ele>37.8586</ele>
        <time>2011-07-03T13:18:02Z</time>
      </trkpt>
      <trkpt lat="46.28826" lon="-0.37781">
        <ele>37.9422</ele>
        <time>2011-07-03T13:18:03Z</time>
      </trkpt>
      <trkpt lat="46.28826" lon="-0.37779">
        <ele>38.0221</ele>
        <time>2011-07-03T13:18:04Z</time>
      </trkpt>
      <trkpt lat="46.28826" lon="-0.37777">
        <ele>38.0997</ele>
        <time>2011-07-03T13:18:05Z</time>
      </trkpt>
      <trkpt lat="46.28826" lon="-0.37775">
        <ele>38.1731</ele>
        <time>2011-07-03T13:18:06Z</time>
      </trkpt>
      <trkpt lat="46.28826" lon="-0.37773">
        <ele>38.2441</ele>
        <time>2011-07-03T13:18:07Z</time>
      </trkpt>
      <trkpt lat="46.28826" lon="-0.37771">
        <ele>38.3115</ele>
        <time>2011-07-03T13:18:08Z</time>
      </trkpt>
      <trkpt lat="46.28825" lon="-0.37769">
        <ele>38.3765</ele>
        <time>2011-07-03T13:18:09Z</time>
      </trkpt>
      <trkpt lat="46.28825" lon="-0.37767">
        <ele>38.4379</ele>
        <time>2011-07-03T13:18:10Z</time>
      </trkpt>
      <trkpt lat="46.28825" lon="-0.37766">
        <ele>38.4961</ele>
        <time>2011-07-03T13:18:11Z</time>
      </trkpt>
      <trkpt lat="46.28825" lon="-0.37764">
        <ele>38.5508</ele>
        <time>2011-07-03T13:18:12Z</time>
      </trkpt>
      <trkpt lat="46.28825" lon="-0.37762">
        <ele>38.6018</ele>
        <time>2011-07-03T13:18:13Z</time>
      </trkpt>
      <trkpt lat="46.28824" lon="-0.3776">
        <ele>38.6509</ele>
        <time>2011-07-03T13:18:14Z</time>
      </trkpt>
      <trkpt lat="46.28824" lon="-0.37758">
        <ele>38.6977</ele>
        <time>2011-07-03T13:18:15Z</time>
      </trkpt>
      <trkpt lat="46.28824" lon="-0.37756">
        <ele>38.7414</ele>
        <time>2011-07-03T13:18:16Z</time>
      </trkpt>
      <trkpt lat="46.28825" lon="-0.37754">
        <ele>38.7843</ele>
        <time>2011-07-03T13:18:17Z</time>
      </trkpt>
      <trkpt lat="46.28825" lon="-0.37752">
        <ele>38.8262</ele>
        <time>2011-07-03T13:18:18Z</time>
      </trkpt>
      <trkpt lat="46.28825" lon="-0.37751">
        <ele>38.8664</ele>
        <time>2011-07-03T13:18:19Z</time>
      </trkpt>
      <trkpt lat="46.28825" lon="-0.37749">
        <ele>38.9055</ele>
        <time>2011-07-03T13:18:20Z</time>
      </trkpt>
      <trkpt lat="46.28825" lon="-0.37747">
        <ele>38.9425</ele>
        <time>2011-07-03T13:18:21Z</time>
      </trkpt>
      <trkpt lat="46.28824" lon="-0.37746">
        <ele>38.9775</ele>
        <time>2011-07-03T13:18:22Z</time>
      </trkpt>
      <trkpt lat="46.28824" lon="-0.37744">
        <ele>39.0106</ele>
        <time>2011-07-03T13:18:23Z</time>
      </trkpt>
      <trkpt lat="46.28824" lon="-0.37742">
        <ele>39.0421</ele>
        <time>2011-07-03T13:18:24Z</time>
      </trkpt>
      <trkpt lat="46.28824" lon="-0.3774">
        <ele>39.0736</ele>
        <time>2011-07-03T13:18:25Z</time>
      </trkpt>
      <trkpt lat="46.28824" lon="-0.37738">
        <ele>39.1024</ele>
        <time>2011-07-03T13:18:26Z</time>
      </trkpt>
      <trkpt lat="46.28824" lon="-0.37736">
        <ele>39.1286</ele>
        <time>2011-07-03T13:18:27Z</time>
      </trkpt>
      <trkpt lat="46.28824" lon="-0.37734">
        <ele>39.1523</ele>
        <time>2011-07-03T13:18:28Z</time>
      </trkpt>
      <trkpt lat="46.28823" lon="-0.37732">
        <ele>39.1734</ele>
        <time>2011-07-03T13:18:29Z</time>
      </trkpt>
      <trkpt lat="46.28823" lon="-0.37731">
        <ele>39.1933</ele>
        <time>2011-07-03T13:18:30Z</time>
      </trkpt>
      <trkpt lat="46.28822" lon="-0.37727">
        <ele>39.2307</ele>
        <time>2011-07-03T13:18:32Z</time>
      </trkpt>
      <trkpt lat="46.28822" lon="-0.37725">
        <ele>39.2471</ele>
        <time>2011-07-03T13:18:33Z</time>
      </trkpt>
      <trkpt lat="46.28822" lon="-0.37723">
        <ele>39.2632</ele>
        <time>2011-07-03T13:18:34Z</time>
      </trkpt>
      <trkpt lat="46.28822" lon="-0.37722">
        <ele>39.279</ele>
        <time>2011-07-03T13:18:35Z</time>
      </trkpt>
      <trkpt lat="46.28822" lon="-0.3772">
        <ele>39.2949</ele>
        <time>2011-07-03T13:18:36Z</time>
      </trkpt>
      <trkpt lat="46.28821" lon="-0.37718">
        <ele>39.3128</ele>
        <time>2011-07-03T13:18:37Z</time>
      </trkpt>
      <trkpt lat="46.28821" lon="-0.37717">
        <ele>39.3312</ele>
        <time>2011-07-03T13:18:38Z</time>
      </trkpt>
      <trkpt lat="46.28821" lon="-0.37715">
        <ele>39.3491</ele>
        <time>2011-07-03T13:18:39Z</time>
      </trkpt>
      <trkpt lat="46.28821" lon="-0.37707">
        <ele>39.4242</ele>
        <time>2011-07-03T13:18:44Z</time>
      </trkpt>
      <trkpt lat="46.2882" lon="-0.37705">
        <ele>39.4318</ele>
        <time>2011-07-03T13:18:45Z</time>
      </trkpt>
      <trkpt lat="46.28821" lon="-0.37704">
        <ele>39.4389</ele>
        <time>2011-07-03T13:18:46Z</time>
      </trkpt>
      <trkpt lat="46.2882" lon="-0.37703">
        <ele>39.4447</ele>
        <time>2011-07-03T13:18:47Z</time>
      </trkpt>
      <trkpt lat="46.2882" lon="-0.37701">
        <ele>39.4491</ele>
        <time>2011-07-03T13:18:48Z</time>
      </trkpt>
      <trkpt lat="46.2882" lon="-0.37699">
        <ele>39.4487</ele>
        <time>2011-07-03T13:18:49Z</time>
      </trkpt>
      <trkpt lat="46.2882" lon="-0.37697">
        <ele>39.4466</ele>
        <time>2011-07-03T13:18:50Z</time>
      </trkpt>
      <trkpt lat="46.2882" lon="-0.37695">
        <ele>39.4434</ele>
        <time>2011-07-03T13:18:51Z</time>
      </trkpt>
      <trkpt lat="46.28819" lon="-0.37693">
        <ele>39.441</ele>
        <time>2011-07-03T13:18:52Z</time>
      </trkpt>
      <trkpt lat="46.28819" lon="-0.37691">
        <ele>39.4387</ele>
        <time>2011-07-03T13:18:53Z</time>
      </trkpt>
      <trkpt lat="46.28819" lon="-0.37689">
        <ele>39.435</ele>
        <time>2011-07-03T13:18:54Z</time>
      </trkpt>
      <trkpt lat="46.28819" lon="-0.37687">
        <ele>39.4283</ele>
        <time>2011-07-03T13:18:55Z</time>
      </trkpt>
      <trkpt lat="46.28819" lon="-0.37685">
        <ele>39.4197</ele>
        <time>2011-07-03T13:18:56Z</time>
      </trkpt>
      <trkpt lat="46.28819" lon="-0.37683">
        <ele>39.41</ele>
        <time>2011-07-03T13:18:57Z</time>
      </trkpt>
      <trkpt lat="46.28819" lon="-0.37681">
        <ele>39.4003</ele>
        <time>2011-07-03T13:18:58Z</time>
      </trkpt>
      <trkpt lat="46.28819" lon="-0.37679">
        <ele>39.3909</ele>
        <time>2011-07-03T13:18:59Z</time>
      </trkpt>
      <trkpt lat="46.28819" lon="-0.37677">
        <ele>39.383</ele>
        <time>2011-07-03T13:19:00Z</time>
      </trkpt>
      <trkpt lat="46.28819" lon="-0.37675">
        <ele>39.376</ele>
        <time>2011-07-03T13:19:01Z</time>
      </trkpt>
      <trkpt lat="46.28819" lon="-0.37673">
        <ele>39.3658</ele>
        <time>2011-07-03T13:19:02Z</time>
      </trkpt>
      <trkpt lat="46.28819" lon="-0.37671">
        <ele>39.3538</ele>
        <time>2011-07-03T13:19:03Z</time>
      </trkpt>
      <trkpt lat="46.28819" lon="-0.37669">
        <ele>39.3406</ele>
        <time>2011-07-03T13:19:04Z</time>
      </trkpt>
      <trkpt lat="46.28819" lon="-0.37667">
        <ele>39.326</ele>
        <time>2011-07-03T13:19:05Z</time>
      </trkpt>
      <trkpt lat="46.28819" lon="-0.37666">
        <ele>39.3112</ele>
        <time>2011-07-03T13:19:06Z</time>
      </trkpt>
      <trkpt lat="46.28818" lon="-0.37664">
        <ele>39.295</ele>
        <time>2011-07-03T13:19:07Z</time>
      </trkpt>
      <trkpt lat="46.28818" lon="-0.37662">
        <ele>39.2784</ele>
        <time>2011-07-03T13:19:08Z</time>
      </trkpt>
      <trkpt lat="46.28818" lon="-0.37661">
        <ele>39.2607</ele>
        <time>2011-07-03T13:19:09Z</time>
      </trkpt>
      <trkpt lat="46.28818" lon="-0.37659">
        <ele>39.2415</ele>
        <time>2011-07-03T13:19:10Z</time>
      </trkpt>
      <trkpt lat="46.28818" lon="-0.37658">
        <ele>39.2207</ele>
        <time>2011-07-03T13:19:11Z</time>
      </trkpt>
      <trkpt lat="46.28818" lon="-0.37656">
        <ele>39.1979</ele>
        <time>2011-07-03T13:19:12Z</time>
      </trkpt>
      <trkpt lat="46.28818" lon="-0.37654">
        <ele>39.1732</ele>
        <time>2011-07-03T13:19:13Z</time>
      </trkpt>
      <trkpt lat="46.28818" lon="-0.37653">
        <ele>39.1467</ele>
        <time>2011-07-03T13:19:14Z</time>
      </trkpt>
      <trkpt lat="46.28818" lon="-0.37651">
        <ele>39.1211</ele>
        <time>2011-07-03T13:19:15Z</time>
      </trkpt>
      <trkpt lat="46.28818" lon="-0.37649">
        <ele>39.0969</ele>
        <time>2011-07-03T13:19:16Z</time>
      </trkpt>
      <trkpt lat="46.28819" lon="-0.37647">
        <ele>39.0715</ele>
        <time>2011-07-03T13:19:17Z</time>
      </trkpt>
      <trkpt lat="46.28819" lon="-0.37645">
        <ele>39.0458</ele>
        <time>2011-07-03T13:19:18Z</time>
      </trkpt>
      <trkpt lat="46.28819" lon="-0.37643">
        <ele>39.0211</ele>
        <time>2011-07-03T13:19:19Z</time>
      </trkpt>
      <trkpt lat="46.28819" lon="-0.37642">
        <ele>38.9972</ele>
        <time>2011-07-03T13:19:20Z</time>
      </trkpt>
      <trkpt lat="46.28819" lon="-0.3764">
        <ele>38.9748</ele>
        <time>2011-07-03T13:19:21Z</time>
      </trkpt>
      <trkpt lat="46.28819" lon="-0.37638">
        <ele>38.9526</ele>
        <time>2011-07-03T13:19:22Z</time>
      </trkpt>
      <trkpt lat="46.2882" lon="-0.37636">
        <ele>38.9297</ele>
        <time>2011-07-03T13:19:23Z</time>
      </trkpt>
      <trkpt lat="46.2882" lon="-0.37635">
        <ele>38.9061</ele>
        <time>2011-07-03T13:19:24Z</time>
      </trkpt>
      <trkpt lat="46.2882" lon="-0.37633">
        <ele>38.8821</ele>
        <time>2011-07-03T13:19:25Z</time>
      </trkpt>
      <trkpt lat="46.28821" lon="-0.37631">
        <ele>38.8582</ele>
        <time>2011-07-03T13:19:26Z</time>
      </trkpt>
      <trkpt lat="46.28821" lon="-0.37631">
        <ele>38.834</ele>
        <time>2011-07-03T13:19:27Z</time>
      </trkpt>
      <trkpt lat="46.28821" lon="-0.37632">
        <ele>38.8097</ele>
        <time>2011-07-03T13:19:28Z</time>
      </trkpt>
      <trkpt lat="46.2882" lon="-0.37634">
        <ele>38.7865</ele>
        <time>2011-07-03T13:19:29Z</time>
      </trkpt>
      <trkpt lat="46.28821" lon="-0.37635">
        <ele>38.7654</ele>
        <time>2011-07-03T13:19:30Z</time>
      </trkpt>
      <trkpt lat="46.28821" lon="-0.37637">
        <ele>38.7441</ele>
        <time>2011-07-03T13:19:31Z</time>
      </trkpt>
      <trkpt lat="46.28821" lon="-0.37636">
        <ele>38.7224</ele>
        <time>2011-07-03T13:19:32Z</time>
      </trkpt>
      <trkpt lat="46.28822" lon="-0.37634">
        <ele>38.6963</ele>
        <time>2011-07-03T13:19:33Z</time>
      </trkpt>
      <trkpt lat="46.28822" lon="-0.37632">
        <ele>38.6698</ele>
        <time>2011-07-03T13:19:34Z</time>
      </trkpt>
      <trkpt lat="46.28822" lon="-0.3763">
        <ele>38.6454</ele>
        <time>2011-07-03T13:19:35Z</time>
      </trkpt>
      <trkpt lat="46.28822" lon="-0.37628">
        <ele>38.6175</ele>
        <time>2011-07-03T13:19:36Z</time>
      </trkpt>
      <trkpt lat="46.28823" lon="-0.37626">
        <ele>38.5906</ele>
        <time>2011-07-03T13:19:37Z</time>
      </trkpt>
      <trkpt lat="46.28823" lon="-0.37624">
        <ele>38.5661</ele>
        <time>2011-07-03T13:19:38Z</time>
      </trkpt>
      <trkpt lat="46.28823" lon="-0.37622">
        <ele>38.5433</ele>
        <time>2011-07-03T13:19:39Z</time>
      </trkpt>
      <trkpt lat="46.28823" lon="-0.3762">
        <ele>38.5235</ele>
        <time>2011-07-03T13:19:40Z</time>
      </trkpt>
      <trkpt lat="46.28824" lon="-0.37619">
        <ele>38.5057</ele>
        <time>2011-07-03T13:19:41Z</time>
      </trkpt>
      <trkpt lat="46.28824" lon="-0.37617">
        <ele>38.4871</ele>
        <time>2011-07-03T13:19:42Z</time>
      </trkpt>
      <trkpt lat="46.28824" lon="-0.37616">
        <ele>38.4691</ele>
        <time>2011-07-03T13:19:43Z</time>
      </trkpt>
      <trkpt lat="46.28824" lon="-0.37615">
        <ele>38.4508</ele>
        <time>2011-07-03T13:19:44Z</time>
      </trkpt>
      <trkpt lat="46.28823" lon="-0.37614">
        <ele>38.4307</ele>
        <time>2011-07-03T13:19:45Z</time>
      </trkpt>
      <trkpt lat="46.28822" lon="-0.37613">
        <ele>38.4307</ele>
        <time>2011-07-03T13:19:46Z</time>
      </trkpt>
      <trkpt lat="46.28824" lon="-0.3761">
        <ele>38.409</ele>
        <time>2011-07-03T13:19:47Z</time>
      </trkpt>
      <trkpt lat="46.28824" lon="-0.37608">
        <ele>38.3812</ele>
        <time>2011-07-03T13:19:48Z</time>
      </trkpt>
      <trkpt lat="46.28825" lon="-0.37606">
        <ele>38.3437</ele>
        <time>2011-07-03T13:19:49Z</time>
      </trkpt>
      <trkpt lat="46.28825" lon="-0.37604">
        <ele>38.2997</ele>
        <time>2011-07-03T13:19:50Z</time>
      </trkpt>
      <trkpt lat="46.28826" lon="-0.37601">
        <ele>38.2521</ele>
        <time>2011-07-03T13:19:51Z</time>
      </trkpt>
      <trkpt lat="46.28826" lon="-0.37599">
        <ele>38.2135</ele>
        <time>2011-07-03T13:19:52Z</time>
      </trkpt>
      <trkpt lat="46.28827" lon="-0.37597">
        <ele>38.1827</ele>
        <time>2011-07-03T13:19:53Z</time>
      </trkpt>
      <trkpt lat="46.28827" lon="-0.37594">
        <ele>38.1574</ele>
        <time>2011-07-03T13:19:54Z</time>
      </trkpt>
      <trkpt lat="46.28828" lon="-0.37592">
        <ele>38.1343</ele>
        <time>2011-07-03T13:19:55Z</time>
      </trkpt>
      <trkpt lat="46.28828" lon="-0.37589">
        <ele>38.1153</ele>
        <time>2011-07-03T13:19:56Z</time>
      </trkpt>
      <trkpt lat="46.28829" lon="-0.37587">
        <ele>38.0989</ele>
        <time>2011-07-03T13:19:57Z</time>
      </trkpt>
      <trkpt lat="46.28829" lon="-0.37585">
        <ele>38.0819</ele>
        <time>2011-07-03T13:19:58Z</time>
      </trkpt>
      <trkpt lat="46.2883" lon="-0.37583">
        <ele>38.0667</ele>
        <time>2011-07-03T13:19:59Z</time>
      </trkpt>
      <trkpt lat="46.2883" lon="-0.37581">
        <ele>38.0522</ele>
        <time>2011-07-03T13:20:00Z</time>
      </trkpt>
      <trkpt lat="46.2883" lon="-0.37579">
        <ele>38.0352</ele>
        <time>2011-07-03T13:20:01Z</time>
      </trkpt>
      <trkpt lat="46.28831" lon="-0.37577">
        <ele>38.0192</ele>
        <time>2011-07-03T13:20:02Z</time>
      </trkpt>
      <trkpt lat="46.28831" lon="-0.37574">
        <ele>38.0005</ele>
        <time>2011-07-03T13:20:03Z</time>
      </trkpt>
      <trkpt lat="46.28832" lon="-0.37572">
        <ele>37.9814</ele>
        <time>2011-07-03T13:20:04Z</time>
      </trkpt>
      <trkpt lat="46.28832" lon="-0.3757">
        <ele>37.9606</ele>
        <time>2011-07-03T13:20:05Z</time>
      </trkpt>
      <trkpt lat="46.28833" lon="-0.37569">
        <ele>37.9397</ele>
        <time>2011-07-03T13:20:06Z</time>
      </trkpt>
      <trkpt lat="46.28833" lon="-0.37567">
        <ele>37.9183</ele>
        <time>2011-07-03T13:20:07Z</time>
      </trkpt>
      <trkpt lat="46.28834" lon="-0.37565">
        <ele>37.8977</ele>
        <time>2011-07-03T13:20:08Z</time>
      </trkpt>
      <trkpt lat="46.28835" lon="-0.37564">
        <ele>37.8793</ele>
        <time>2011-07-03T13:20:09Z</time>
      </trkpt>
      <trkpt lat="46.28835" lon="-0.37562">
        <ele>37.8608</ele>
        <time>2011-07-03T13:20:10Z</time>
      </trkpt>
      <trkpt lat="46.28836" lon="-0.37561">
        <ele>37.842</ele>
        <time>2011-07-03T13:20:11Z</time>
      </trkpt>
      <trkpt lat="46.28837" lon="-0.37559">
        <ele>37.825</ele>
        <time>2011-07-03T13:20:12Z</time>
      </trkpt>
      <trkpt lat="46.28837" lon="-0.37556">
        <ele>37.8078</ele>
        <time>2011-07-03T13:20:13Z</time>
      </trkpt>
      <trkpt lat="46.28838" lon="-0.37554">
        <ele>37.7906</ele>
        <time>2011-07-03T13:20:14Z</time>
      </trkpt>
      <trkpt lat="46.28838" lon="-0.37552">
        <ele>37.7711</ele>
        <time>2011-07-03T13:20:15Z</time>
      </trkpt>
      <trkpt lat="46.28838" lon="-0.3755">
        <ele>37.751</ele>
        <time>2011-07-03T13:20:16Z</time>
      </trkpt>
      <trkpt lat="46.28838" lon="-0.37548">
        <ele>37.7314</ele>
        <time>2011-07-03T13:20:17Z</time>
      </trkpt>
      <trkpt lat="46.28839" lon="-0.37547">
        <ele>37.714</ele>
        <time>2011-07-03T13:20:18Z</time>
      </trkpt>
      <trkpt lat="46.28839" lon="-0.37545">
        <ele>37.6974</ele>
        <time>2011-07-03T13:20:19Z</time>
      </trkpt>
      <trkpt lat="46.2884" lon="-0.37544">
        <ele>37.6839</ele>
        <time>2011-07-03T13:20:20Z</time>
      </trkpt>
      <trkpt lat="46.2884" lon="-0.37542">
        <ele>37.6723</ele>
        <time>2011-07-03T13:20:21Z</time>
      </trkpt>
      <trkpt lat="46.28841" lon="-0.3754">
        <ele>37.663</ele>
        <time>2011-07-03T13:20:22Z</time>
      </trkpt>
      <trkpt lat="46.28841" lon="-0.37539">
        <ele>37.654</ele>
        <time>2011-07-03T13:20:23Z</time>
      </trkpt>
      <trkpt lat="46.28842" lon="-0.37537">
        <ele>37.645</ele>
        <time>2011-07-03T13:20:24Z</time>
      </trkpt>
      <trkpt lat="46.28842" lon="-0.37536">
        <ele>37.6384</ele>
        <time>2011-07-03T13:20:25Z</time>
      </trkpt>
      <trkpt lat="46.28843" lon="-0.37534">
        <ele>37.6323</ele>
        <time>2011-07-03T13:20:26Z</time>
      </trkpt>
      <trkpt lat="46.28843" lon="-0.37533">
        <ele>37.6257</ele>
        <time>2011-07-03T13:20:27Z</time>
      </trkpt>
      <trkpt lat="46.28843" lon="-0.37531">
        <ele>37.6189</ele>
        <time>2011-07-03T13:20:28Z</time>
      </trkpt>
      <trkpt lat="46.28844" lon="-0.37529">
        <ele>37.6113</ele>
        <time>2011-07-03T13:20:29Z</time>
      </trkpt>
      <trkpt lat="46.28844" lon="-0.37528">
        <ele>37.5984</ele>
        <time>2011-07-03T13:20:30Z</time>
      </trkpt>
      <trkpt lat="46.28845" lon="-0.37526">
        <ele>37.5864</ele>
        <time>2011-07-03T13:20:31Z</time>
      </trkpt>
      <trkpt lat="46.28845" lon="-0.37524">
        <ele>37.5777</ele>
        <time>2011-07-03T13:20:32Z</time>
      </trkpt>
      <trkpt lat="46.28845" lon="-0.37522">
        <ele>37.5702</ele>
        <time>2011-07-03T13:20:33Z</time>
      </trkpt>
      <trkpt lat="46.28846" lon="-0.37521">
        <ele>37.5625</ele>
        <time>2011-07-03T13:20:34Z</time>
      </trkpt>
      <trkpt lat="46.28846" lon="-0.37519">
        <ele>37.5556</ele>
        <time>2011-07-03T13:20:35Z</time>
      </trkpt>
      <trkpt lat="46.28846" lon="-0.37518">
        <ele>37.5499</ele>
        <time>2011-07-03T13:20:36Z</time>
      </trkpt>
      <trkpt lat="46.28846" lon="-0.37516">
        <ele>37.5444</ele>
        <time>2011-07-03T13:20:37Z</time>
      </trkpt>
      <trkpt lat="46.28847" lon="-0.37514">
        <ele>37.5387</ele>
        <time>2011-07-03T13:20:38Z</time>
      </trkpt>
      <trkpt lat="46.28847" lon="-0.37513">
        <ele>37.5336</ele>
        <time>2011-07-03T13:20:39Z</time>
      </trkpt>
      <trkpt lat="46.28847" lon="-0.37511">
        <ele>37.5285</ele>
        <time>2011-07-03T13:20:40Z</time>
      </trkpt>
      <trkpt lat="46.28848" lon="-0.37509">
        <ele>37.5232</ele>
        <time>2011-07-03T13:20:41Z</time>
      </trkpt>
      <trkpt lat="46.28848" lon="-0.37507">
        <ele>37.5184</ele>
        <time>2011-07-03T13:20:42Z</time>
      </trkpt>
      <trkpt lat="46.28848" lon="-0.37505">
        <ele>37.5161</ele>
        <time>2011-07-03T13:20:43Z</time>
      </trkpt>
      <trkpt lat="46.28849" lon="-0.37503">
        <ele>37.5138</ele>
        <time>2011-07-03T13:20:44Z</time>
      </trkpt>
      <trkpt lat="46.28849" lon="-0.37501">
        <ele>37.5128</ele>
        <time>2011-07-03T13:20:45Z</time>
      </trkpt>
      <trkpt lat="46.28849" lon="-0.37499">
        <ele>37.5111</ele>
        <time>2011-07-03T13:20:46Z</time>
      </trkpt>
      <trkpt lat="46.2885" lon="-0.37497">
        <ele>37.512</ele>
        <time>2011-07-03T13:20:47Z</time>
      </trkpt>
      <trkpt lat="46.28851" lon="-0.37495">
        <ele>37.5139</ele>
        <time>2011-07-03T13:20:48Z</time>
      </trkpt>
      <trkpt lat="46.28851" lon="-0.37493">
        <ele>37.5163</ele>
        <time>2011-07-03T13:20:49Z</time>
      </trkpt>
      <trkpt lat="46.28851" lon="-0.37491">
        <ele>37.5158</ele>
        <time>2011-07-03T13:20:50Z</time>
      </trkpt>
      <trkpt lat="46.28852" lon="-0.3749">
        <ele>37.5136</ele>
        <time>2011-07-03T13:20:51Z</time>
      </trkpt>
      <trkpt lat="46.28853" lon="-0.37488">
        <ele>37.5126</ele>
        <time>2011-07-03T13:20:52Z</time>
      </trkpt>
      <trkpt lat="46.28853" lon="-0.37486">
        <ele>37.511</ele>
        <time>2011-07-03T13:20:53Z</time>
      </trkpt>
      <trkpt lat="46.28854" lon="-0.37484">
        <ele>37.5091</ele>
        <time>2011-07-03T13:20:54Z</time>
      </trkpt>
      <trkpt lat="46.28854" lon="-0.37482">
        <ele>37.5079</ele>
        <time>2011-07-03T13:20:55Z</time>
      </trkpt>
      <trkpt lat="46.28855" lon="-0.3748">
        <ele>37.5065</ele>
        <time>2011-07-03T13:20:56Z</time>
      </trkpt>
      <trkpt lat="46.28855" lon="-0.37478">
        <ele>37.506</ele>
        <time>2011-07-03T13:20:57Z</time>
      </trkpt>
      <trkpt lat="46.28855" lon="-0.37476">
        <ele>37.5061</ele>
        <time>2011-07-03T13:20:58Z</time>
      </trkpt>
      <trkpt lat="46.28855" lon="-0.37474">
        <ele>37.5065</ele>
        <time>2011-07-03T13:20:59Z</time>
      </trkpt>
      <trkpt lat="46.28856" lon="-0.37472">
        <ele>37.5073</ele>
        <time>2011-07-03T13:21:00Z</time>
      </trkpt>
      <trkpt lat="46.28856" lon="-0.3747">
        <ele>37.5071</ele>
        <time>2011-07-03T13:21:01Z</time>
      </trkpt>
      <trkpt lat="46.28856" lon="-0.37468">
        <ele>37.5036</ele>
        <time>2011-07-03T13:21:02Z</time>
      </trkpt>
      <trkpt lat="46.28856" lon="-0.37466">
        <ele>37.498</ele>
        <time>2011-07-03T13:21:03Z</time>
      </trkpt>
      <trkpt lat="46.28856" lon="-0.37464">
        <ele>37.4921</ele>
        <time>2011-07-03T13:21:04Z</time>
      </trkpt>
      <trkpt lat="46.28856" lon="-0.37463">
        <ele>37.4858</ele>
        <time>2011-07-03T13:21:05Z</time>
      </trkpt>
      <trkpt lat="46.28857" lon="-0.37461">
        <ele>37.4791</ele>
        <time>2011-07-03T13:21:06Z</time>
      </trkpt>
      <trkpt lat="46.28858" lon="-0.37459">
        <ele>37.4719</ele>
        <time>2011-07-03T13:21:07Z</time>
      </trkpt>
      <trkpt lat="46.28859" lon="-0.37457">
        <ele>37.4644</ele>
        <time>2011-07-03T13:21:08Z</time>
      </trkpt>
      <trkpt lat="46.28859" lon="-0.37456">
        <ele>37.4557</ele>
        <time>2011-07-03T13:21:09Z</time>
      </trkpt>
      <trkpt lat="46.2886" lon="-0.37454">
        <ele>37.4478</ele>
        <time>2011-07-03T13:21:10Z</time>
      </trkpt>
      <trkpt lat="46.2886" lon="-0.37452">
        <ele>37.4414</ele>
        <time>2011-07-03T13:21:11Z</time>
      </trkpt>
      <trkpt lat="46.2886" lon="-0.3745">
        <ele>37.4351</ele>
        <time>2011-07-03T13:21:12Z</time>
      </trkpt>
      <trkpt lat="46.28861" lon="-0.37449">
        <ele>37.4275</ele>
        <time>2011-07-03T13:21:13Z</time>
      </trkpt>
      <trkpt lat="46.28861" lon="-0.37447">
        <ele>37.4203</ele>
        <time>2011-07-03T13:21:14Z</time>
      </trkpt>
      <trkpt lat="46.28862" lon="-0.37446">
        <ele>37.4135</ele>
        <time>2011-07-03T13:21:15Z</time>
      </trkpt>
      <trkpt lat="46.28862" lon="-0.37444">
        <ele>37.4069</ele>
        <time>2011-07-03T13:21:16Z</time>
      </trkpt>
      <trkpt lat="46.28862" lon="-0.37442">
        <ele>37.4021</ele>
        <time>2011-07-03T13:21:17Z</time>
      </trkpt>
      <trkpt lat="46.28863" lon="-0.3744">
        <ele>37.398</ele>
        <time>2011-07-03T13:21:18Z</time>
      </trkpt>
      <trkpt lat="46.28863" lon="-0.37438">
        <ele>37.3951</ele>
        <time>2011-07-03T13:21:19Z</time>
      </trkpt>
      <trkpt lat="46.28863" lon="-0.37436">
        <ele>37.3916</ele>
        <time>2011-07-03T13:21:20Z</time>
      </trkpt>
      <trkpt lat="46.28863" lon="-0.37434">
        <ele>37.3886</ele>
        <time>2011-07-03T13:21:21Z</time>
      </trkpt>
      <trkpt lat="46.28864" lon="-0.37432">
        <ele>37.3852</ele>
        <time>2011-07-03T13:21:22Z</time>
      </trkpt>
      <trkpt lat="46.28864" lon="-0.3743">
        <ele>37.3807</ele>
        <time>2011-07-03T13:21:23Z</time>
      </trkpt>
      <trkpt lat="46.28865" lon="-0.37428">
        <ele>37.3766</ele>
        <time>2011-07-03T13:21:24Z</time>
      </trkpt>
      <trkpt lat="46.28865" lon="-0.37427">
        <ele>37.3736</ele>
        <time>2011-07-03T13:21:25Z</time>
      </trkpt>
      <trkpt lat="46.28865" lon="-0.37425">
        <ele>37.3715</ele>
        <time>2011-07-03T13:21:26Z</time>
      </trkpt>
      <trkpt lat="46.28866" lon="-0.37423">
        <ele>37.3725</ele>
        <time>2011-07-03T13:21:27Z</time>
      </trkpt>
      <trkpt lat="46.28866" lon="-0.37421">
        <ele>37.3757</ele>
        <time>2011-07-03T13:21:28Z</time>
      </trkpt>
      <trkpt lat="46.28867" lon="-0.3742">
        <ele>37.3791</ele>
        <time>2011-07-03T13:21:29Z</time>
      </trkpt>
      <trkpt lat="46.28867" lon="-0.37418">
        <ele>37.3854</ele>
        <time>2011-07-03T13:21:30Z</time>
      </trkpt>
      <trkpt lat="46.28867" lon="-0.37416">
        <ele>37.3934</ele>
        <time>2011-07-03T13:21:31Z</time>
      </trkpt>
      <trkpt lat="46.28867" lon="-0.37414">
        <ele>37.403</ele>
        <time>2011-07-03T13:21:32Z</time>
      </trkpt>
      <trkpt lat="46.28868" lon="-0.37412">
        <ele>37.4118</ele>
        <time>2011-07-03T13:21:33Z</time>
      </trkpt>
      <trkpt lat="46.28869" lon="-0.37409">
        <ele>37.4222</ele>
        <time>2011-07-03T13:21:34Z</time>
      </trkpt>
      <trkpt lat="46.28869" lon="-0.37408">
        <ele>37.4348</ele>
        <time>2011-07-03T13:21:35Z</time>
      </trkpt>
      <trkpt lat="46.2887" lon="-0.37406">
        <ele>37.4492</ele>
        <time>2011-07-03T13:21:36Z</time>
      </trkpt>
      <trkpt lat="46.2887" lon="-0.37404">
        <ele>37.4644</ele>
        <time>2011-07-03T13:21:37Z</time>
      </trkpt>
      <trkpt lat="46.2887" lon="-0.37402">
        <ele>37.484</ele>
        <time>2011-07-03T13:21:38Z</time>
      </trkpt>
      <trkpt lat="46.2887" lon="-0.37401">
        <ele>37.5054</ele>
        <time>2011-07-03T13:21:39Z</time>
      </trkpt>
      <trkpt lat="46.2887" lon="-0.37399">
        <ele>37.5291</ele>
        <time>2011-07-03T13:21:40Z</time>
      </trkpt>
      <trkpt lat="46.28871" lon="-0.37397">
        <ele>37.5539</ele>
        <time>2011-07-03T13:21:41Z</time>
      </trkpt>
      <trkpt lat="46.28872" lon="-0.37395">
        <ele>37.5801</ele>
        <time>2011-07-03T13:21:42Z</time>
      </trkpt>
      <trkpt lat="46.28872" lon="-0.37394">
        <ele>37.6065</ele>
        <time>2011-07-03T13:21:43Z</time>
      </trkpt>
      <trkpt lat="46.28872" lon="-0.37392">
        <ele>37.6341</ele>
        <time>2011-07-03T13:21:44Z</time>
      </trkpt>
      <trkpt lat="46.28873" lon="-0.3739">
        <ele>37.665</ele>
        <time>2011-07-03T13:21:45Z</time>
      </trkpt>
      <trkpt lat="46.28873" lon="-0.37388">
        <ele>37.6971</ele>
        <time>2011-07-03T13:21:46Z</time>
      </trkpt>
      <trkpt lat="46.28873" lon="-0.37387">
        <ele>37.7274</ele>
        <time>2011-07-03T13:21:47Z</time>
      </trkpt>
      <trkpt lat="46.28874" lon="-0.37385">
        <ele>37.7568</ele>
        <time>2011-07-03T13:21:48Z</time>
      </trkpt>
      <trkpt lat="46.28874" lon="-0.37384">
        <ele>37.786</ele>
        <time>2011-07-03T13:21:49Z</time>
      </trkpt>
      <trkpt lat="46.28875" lon="-0.37382">
        <ele>37.8165</ele>
        <time>2011-07-03T13:21:50Z</time>
      </trkpt>
      <trkpt lat="46.28875" lon="-0.3738">
        <ele>37.8459</ele>
        <time>2011-07-03T13:21:51Z</time>
      </trkpt>
      <trkpt lat="46.28875" lon="-0.37378">
        <ele>37.8749</ele>
        <time>2011-07-03T13:21:52Z</time>
      </trkpt>
      <trkpt lat="46.28875" lon="-0.37376">
        <ele>37.9054</ele>
        <time>2011-07-03T13:21:53Z</time>
      </trkpt>
      <trkpt lat="46.28876" lon="-0.37375">
        <ele>37.9356</ele>
        <time>2011-07-03T13:21:54Z</time>
      </trkpt>
      <trkpt lat="46.28876" lon="-0.37373">
        <ele>37.9657</ele>
        <time>2011-07-03T13:21:55Z</time>
      </trkpt>
      <trkpt lat="46.28877" lon="-0.37372">
        <ele>37.9974</ele>
        <time>2011-07-03T13:21:56Z</time>
      </trkpt>
      <trkpt lat="46.28877" lon="-0.3737">
        <ele>38.031</ele>
        <time>2011-07-03T13:21:57Z</time>
      </trkpt>
      <trkpt lat="46.28877" lon="-0.37368">
        <ele>38.0632</ele>
        <time>2011-07-03T13:21:58Z</time>
      </trkpt>
      <trkpt lat="46.28877" lon="-0.37366">
        <ele>38.0948</ele>
        <time>2011-07-03T13:21:59Z</time>
      </trkpt>
      <trkpt lat="46.28877" lon="-0.37364">
        <ele>38.1278</ele>
        <time>2011-07-03T13:22:00Z</time>
      </trkpt>
      <trkpt lat="46.28877" lon="-0.37362">
        <ele>38.1629</ele>
        <time>2011-07-03T13:22:01Z</time>
      </trkpt>
      <trkpt lat="46.28877" lon="-0.37359">
        <ele>38.1993</ele>
        <time>2011-07-03T13:22:02Z</time>
      </trkpt>
      <trkpt lat="46.28877" lon="-0.37357">
        <ele>38.2391</ele>
        <time>2011-07-03T13:22:03Z</time>
      </trkpt>
      <trkpt lat="46.28877" lon="-0.37355">
        <ele>38.2807</ele>
        <time>2011-07-03T13:22:04Z</time>
      </trkpt>
      <trkpt lat="46.28878" lon="-0.37353">
        <ele>38.3234</ele>
        <time>2011-07-03T13:22:05Z</time>
      </trkpt>
      <trkpt lat="46.28878" lon="-0.37351">
        <ele>38.3663</ele>
        <time>2011-07-03T13:22:06Z</time>
      </trkpt>
      <trkpt lat="46.28878" lon="-0.3735">
        <ele>38.4082</ele>
        <time>2011-07-03T13:22:07Z</time>
      </trkpt>
      <trkpt lat="46.28878" lon="-0.37348">
        <ele>38.4502</ele>
        <time>2011-07-03T13:22:08Z</time>
      </trkpt>
      <trkpt lat="46.28878" lon="-0.37346">
        <ele>38.4906</ele>
        <time>2011-07-03T13:22:09Z</time>
      </trkpt>
      <trkpt lat="46.28878" lon="-0.37344">
        <ele>38.5295</ele>
        <time>2011-07-03T13:22:10Z</time>
      </trkpt>
      <trkpt lat="46.28878" lon="-0.37342">
        <ele>38.5678</ele>
        <time>2011-07-03T13:22:11Z</time>
      </trkpt>
      <trkpt lat="46.28878" lon="-0.3734">
        <ele>38.6044</ele>
        <time>2011-07-03T13:22:12Z</time>
      </trkpt>
      <trkpt lat="46.28878" lon="-0.37339">
        <ele>38.6394</ele>
        <time>2011-07-03T13:22:13Z</time>
      </trkpt>
      <trkpt lat="46.28878" lon="-0.37337">
        <ele>38.6731</ele>
        <time>2011-07-03T13:22:14Z</time>
      </trkpt>
      <trkpt lat="46.28878" lon="-0.37335">
        <ele>38.7006</ele>
        <time>2011-07-03T13:22:15Z</time>
      </trkpt>
      <trkpt lat="46.28878" lon="-0.37333">
        <ele>38.7269</ele>
        <time>2011-07-03T13:22:16Z</time>
      </trkpt>
      <trkpt lat="46.28878" lon="-0.37331">
        <ele>38.7528</ele>
        <time>2011-07-03T13:22:17Z</time>
      </trkpt>
      <trkpt lat="46.28878" lon="-0.37329">
        <ele>38.779</ele>
        <time>2011-07-03T13:22:18Z</time>
      </trkpt>
      <trkpt lat="46.28878" lon="-0.37327">
        <ele>38.8043</ele>
        <time>2011-07-03T13:22:19Z</time>
      </trkpt>
      <trkpt lat="46.28878" lon="-0.37325">
        <ele>38.8288</ele>
        <time>2011-07-03T13:22:20Z</time>
      </trkpt>
      <trkpt lat="46.28878" lon="-0.37323">
        <ele>38.8529</ele>
        <time>2011-07-03T13:22:21Z</time>
      </trkpt>
      <trkpt lat="46.28877" lon="-0.37321">
        <ele>38.8762</ele>
        <time>2011-07-03T13:22:22Z</time>
      </trkpt>
      <trkpt lat="46.28877" lon="-0.37319">
        <ele>38.8993</ele>
        <time>2011-07-03T13:22:23Z</time>
      </trkpt>
      <trkpt lat="46.28877" lon="-0.37318">
        <ele>38.9206</ele>
        <time>2011-07-03T13:22:24Z</time>
      </trkpt>
      <trkpt lat="46.28877" lon="-0.37316">
        <ele>38.9423</ele>
        <time>2011-07-03T13:22:25Z</time>
      </trkpt>
      <trkpt lat="46.28877" lon="-0.37315">
        <ele>38.9628</ele>
        <time>2011-07-03T13:22:26Z</time>
      </trkpt>
      <trkpt lat="46.28876" lon="-0.37313">
        <ele>38.9834</ele>
        <time>2011-07-03T13:22:27Z</time>
      </trkpt>
      <trkpt lat="46.28876" lon="-0.37311">
        <ele>39.0111</ele>
        <time>2011-07-03T13:22:28Z</time>
      </trkpt>
      <trkpt lat="46.28876" lon="-0.37309">
        <ele>39.0383</ele>
        <time>2011-07-03T13:22:29Z</time>
      </trkpt>
      <trkpt lat="46.28876" lon="-0.37307">
        <ele>39.0653</ele>
        <time>2011-07-03T13:22:30Z</time>
      </trkpt>
      <trkpt lat="46.28875" lon="-0.37306">
        <ele>39.0934</ele>
        <time>2011-07-03T13:22:31Z</time>
      </trkpt>
      <trkpt lat="46.28875" lon="-0.37304">
        <ele>39.1215</ele>
        <time>2011-07-03T13:22:32Z</time>
      </trkpt>
      <trkpt lat="46.28875" lon="-0.37302">
        <ele>39.1496</ele>
        <time>2011-07-03T13:22:33Z</time>
      </trkpt>
      <trkpt lat="46.28875" lon="-0.373">
        <ele>39.1769</ele>
        <time>2011-07-03T13:22:34Z</time>
      </trkpt>
      <trkpt lat="46.28875" lon="-0.37298">
        <ele>39.2035</ele>
        <time>2011-07-03T13:22:35Z</time>
      </trkpt>
      <trkpt lat="46.28874" lon="-0.37297">
        <ele>39.23</ele>
        <time>2011-07-03T13:22:36Z</time>
      </trkpt>
      <trkpt lat="46.28874" lon="-0.37295">
        <ele>39.2552</ele>
        <time>2011-07-03T13:22:37Z</time>
      </trkpt>
      <trkpt lat="46.28873" lon="-0.37293">
        <ele>39.279</ele>
        <time>2011-07-03T13:22:38Z</time>
      </trkpt>
      <trkpt lat="46.28873" lon="-0.37292">
        <ele>39.3024</ele>
        <time>2011-07-03T13:22:39Z</time>
      </trkpt>
      <trkpt lat="46.28873" lon="-0.3729">
        <ele>39.3253</ele>
        <time>2011-07-03T13:22:40Z</time>
      </trkpt>
      <trkpt lat="46.28872" lon="-0.37288">
        <ele>39.3468</ele>
        <time>2011-07-03T13:22:41Z</time>
      </trkpt>
      <trkpt lat="46.28872" lon="-0.37286">
        <ele>39.3674</ele>
        <time>2011-07-03T13:22:42Z</time>
      </trkpt>
      <trkpt lat="46.28872" lon="-0.37284">
        <ele>39.3871</ele>
        <time>2011-07-03T13:22:43Z</time>
      </trkpt>
      <trkpt lat="46.28871" lon="-0.37282">
        <ele>39.4055</ele>
        <time>2011-07-03T13:22:44Z</time>
      </trkpt>
      <trkpt lat="46.28871" lon="-0.3728">
        <ele>39.4239</ele>
        <time>2011-07-03T13:22:45Z</time>
      </trkpt>
      <trkpt lat="46.2887" lon="-0.37278">
        <ele>39.4422</ele>
        <time>2011-07-03T13:22:46Z</time>
      </trkpt>
      <trkpt lat="46.2887" lon="-0.37276">
        <ele>39.4604</ele>
        <time>2011-07-03T13:22:47Z</time>
      </trkpt>
      <trkpt lat="46.28869" lon="-0.37275">
        <ele>39.478</ele>
        <time>2011-07-03T13:22:48Z</time>
      </trkpt>
      <trkpt lat="46.28869" lon="-0.37273">
        <ele>39.4955</ele>
        <time>2011-07-03T13:22:49Z</time>
      </trkpt>
      <trkpt lat="46.28869" lon="-0.37271">
        <ele>39.5131</ele>
        <time>2011-07-03T13:22:50Z</time>
      </trkpt>
      <trkpt lat="46.28868" lon="-0.37269">
        <ele>39.5343</ele>
        <time>2011-07-03T13:22:51Z</time>
      </trkpt>
      <trkpt lat="46.28868" lon="-0.37268">
        <ele>39.5566</ele>
        <time>2011-07-03T13:22:52Z</time>
      </trkpt>
      <trkpt lat="46.28867" lon="-0.37266">
        <ele>39.5806</ele>
        <time>2011-07-03T13:22:53Z</time>
      </trkpt>
      <trkpt lat="46.28867" lon="-0.37264">
        <ele>39.6082</ele>
        <time>2011-07-03T13:22:54Z</time>
      </trkpt>
      <trkpt lat="46.28867" lon="-0.37262">
        <ele>39.6371</ele>
        <time>2011-07-03T13:22:55Z</time>
      </trkpt>
      <trkpt lat="46.28866" lon="-0.3726">
        <ele>39.6656</ele>
        <time>2011-07-03T13:22:56Z</time>
      </trkpt>
      <trkpt lat="46.28866" lon="-0.37258">
        <ele>39.6956</ele>
        <time>2011-07-03T13:22:57Z</time>
      </trkpt>
      <trkpt lat="46.28865" lon="-0.37256">
        <ele>39.726</ele>
        <time>2011-07-03T13:22:58Z</time>
      </trkpt>
      <trkpt lat="46.28865" lon="-0.37255">
        <ele>39.7589</ele>
        <time>2011-07-03T13:22:59Z</time>
      </trkpt>
      <trkpt lat="46.28865" lon="-0.37253">
        <ele>39.7923</ele>
        <time>2011-07-03T13:23:00Z</time>
      </trkpt>
      <trkpt lat="46.28865" lon="-0.37252">
        <ele>39.825</ele>
        <time>2011-07-03T13:23:01Z</time>
      </trkpt>
      <trkpt lat="46.28865" lon="-0.37251">
        <ele>39.8564</ele>
        <time>2011-07-03T13:23:02Z</time>
      </trkpt>
      <trkpt lat="46.28864" lon="-0.37249">
        <ele>39.8881</ele>
        <time>2011-07-03T13:23:03Z</time>
      </trkpt>
      <trkpt lat="46.28864" lon="-0.37247">
        <ele>39.9208</ele>
        <time>2011-07-03T13:23:04Z</time>
      </trkpt>
      <trkpt lat="46.28864" lon="-0.37246">
        <ele>39.9543</ele>
        <time>2011-07-03T13:23:05Z</time>
      </trkpt>
      <trkpt lat="46.28864" lon="-0.37243">
        <ele>39.992</ele>
        <time>2011-07-03T13:23:06Z</time>
      </trkpt>
      <trkpt lat="46.28864" lon="-0.37241">
        <ele>40.0356</ele>
        <time>2011-07-03T13:23:07Z</time>
      </trkpt>
      <trkpt lat="46.28863" lon="-0.37239">
        <ele>40.0799</ele>
        <time>2011-07-03T13:23:08Z</time>
      </trkpt>
      <trkpt lat="46.28863" lon="-0.37237">
        <ele>40.1231</ele>
        <time>2011-07-03T13:23:09Z</time>
      </trkpt>
      <trkpt lat="46.28862" lon="-0.37235">
        <ele>40.1649</ele>
        <time>2011-07-03T13:23:10Z</time>
      </trkpt>
      <trkpt lat="46.28862" lon="-0.37233">
        <ele>40.2092</ele>
        <time>2011-07-03T13:23:11Z</time>
      </trkpt>
      <trkpt lat="46.28862" lon="-0.37231">
        <ele>40.2524</ele>
        <time>2011-07-03T13:23:12Z</time>
      </trkpt>
      <trkpt lat="46.28861" lon="-0.37229">
        <ele>40.2945</ele>
        <time>2011-07-03T13:23:13Z</time>
      </trkpt>
      <trkpt lat="46.28861" lon="-0.37228">
        <ele>40.3398</ele>
        <time>2011-07-03T13:23:14Z</time>
      </trkpt>
      <trkpt lat="46.28861" lon="-0.37226">
        <ele>40.3867</ele>
        <time>2011-07-03T13:23:15Z</time>
      </trkpt>
      <trkpt lat="46.2886" lon="-0.37224">
        <ele>40.4385</ele>
        <time>2011-07-03T13:23:16Z</time>
      </trkpt>
      <trkpt lat="46.2886" lon="-0.37222">
        <ele>40.498</ele>
        <time>2011-07-03T13:23:17Z</time>
      </trkpt>
      <trkpt lat="46.2886" lon="-0.3722">
        <ele>40.5542</ele>
        <time>2011-07-03T13:23:18Z</time>
      </trkpt>
      <trkpt lat="46.2886" lon="-0.37218">
        <ele>40.61</ele>
        <time>2011-07-03T13:23:19Z</time>
      </trkpt>
      <trkpt lat="46.28859" lon="-0.37215">
        <ele>40.664</ele>
        <time>2011-07-03T13:23:20Z</time>
      </trkpt>
      <trkpt lat="46.28859" lon="-0.37213">
        <ele>40.7186</ele>
        <time>2011-07-03T13:23:21Z</time>
      </trkpt>
      <trkpt lat="46.28859" lon="-0.37211">
        <ele>40.7747</ele>
        <time>2011-07-03T13:23:22Z</time>
      </trkpt>
      <trkpt lat="46.28859" lon="-0.3721">
        <ele>40.8304</ele>
        <time>2011-07-03T13:23:23Z</time>
      </trkpt>
      <trkpt lat="46.28859" lon="-0.37208">
        <ele>40.8876</ele>
        <time>2011-07-03T13:23:24Z</time>
      </trkpt>
      <trkpt lat="46.28858" lon="-0.37207">
        <ele>40.9472</ele>
        <time>2011-07-03T13:23:25Z</time>
      </trkpt>
      <trkpt lat="46.28857" lon="-0.37205">
        <ele>41.0071</ele>
        <time>2011-07-03T13:23:26Z</time>
      </trkpt>
      <trkpt lat="46.28857" lon="-0.37203">
        <ele>41.0641</ele>
        <time>2011-07-03T13:23:27Z</time>
      </trkpt>
      <trkpt lat="46.28857" lon="-0.37201">
        <ele>41.1212</ele>
        <time>2011-07-03T13:23:28Z</time>
      </trkpt>
      <trkpt lat="46.28856" lon="-0.37199">
        <ele>41.1779</ele>
        <time>2011-07-03T13:23:29Z</time>
      </trkpt>
      <trkpt lat="46.28856" lon="-0.37197">
        <ele>41.2357</ele>
        <time>2011-07-03T13:23:30Z</time>
      </trkpt>
      <trkpt lat="46.28856" lon="-0.37195">
        <ele>41.2917</ele>
        <time>2011-07-03T13:23:31Z</time>
      </trkpt>
      <trkpt lat="46.28856" lon="-0.37193">
        <ele>41.3465</ele>
        <time>2011-07-03T13:23:32Z</time>
      </trkpt>
      <trkpt lat="46.28855" lon="-0.37191">
        <ele>41.4006</ele>
        <time>2011-07-03T13:23:33Z</time>
      </trkpt>
      <trkpt lat="46.28855" lon="-0.37189">
        <ele>41.4547</ele>
        <time>2011-07-03T13:23:34Z</time>
      </trkpt>
      <trkpt lat="46.28855" lon="-0.37186">
        <ele>41.5261</ele>
        <time>2011-07-03T13:23:35Z</time>
      </trkpt>
      <trkpt lat="46.28855" lon="-0.37183">
        <ele>41.5873</ele>
        <time>2011-07-03T13:23:36Z</time>
      </trkpt>
      <trkpt lat="46.28855" lon="-0.3718">
        <ele>41.6382</ele>
        <time>2011-07-03T13:23:37Z</time>
      </trkpt>
      <trkpt lat="46.28854" lon="-0.37178">
        <ele>41.6954</ele>
        <time>2011-07-03T13:23:38Z</time>
      </trkpt>
      <trkpt lat="46.28854" lon="-0.37177">
        <ele>41.7446</ele>
        <time>2011-07-03T13:23:39Z</time>
      </trkpt>
      <trkpt lat="46.28853" lon="-0.37176">
        <ele>41.8088</ele>
        <time>2011-07-03T13:23:40Z</time>
      </trkpt>
      <trkpt lat="46.28854" lon="-0.37173">
        <ele>41.8513</ele>
        <time>2011-07-03T13:23:41Z</time>
      </trkpt>
      <trkpt lat="46.28854" lon="-0.37171">
        <ele>41.8907</ele>
        <time>2011-07-03T13:23:42Z</time>
      </trkpt>
      <trkpt lat="46.28854" lon="-0.37169">
        <ele>41.9346</ele>
        <time>2011-07-03T13:23:43Z</time>
      </trkpt>
      <trkpt lat="46.28855" lon="-0.37167">
        <ele>41.9831</ele>
        <time>2011-07-03T13:23:44Z</time>
      </trkpt>
      <trkpt lat="46.28855" lon="-0.37165">
        <ele>42.0403</ele>
        <time>2011-07-03T13:23:45Z</time>
      </trkpt>
      <trkpt lat="46.28855" lon="-0.37163">
        <ele>42.0997</ele>
        <time>2011-07-03T13:23:46Z</time>
      </trkpt>
      <trkpt lat="46.28854" lon="-0.37161">
        <ele>42.1542</ele>
        <time>2011-07-03T13:23:47Z</time>
      </trkpt>
      <trkpt lat="46.28854" lon="-0.37159">
        <ele>42.1946</ele>
        <time>2011-07-03T13:23:48Z</time>
      </trkpt>
      <trkpt lat="46.28854" lon="-0.37157">
        <ele>42.2315</ele>
        <time>2011-07-03T13:23:49Z</time>
      </trkpt>
      <trkpt lat="46.28854" lon="-0.37155">
        <ele>42.2704</ele>
        <time>2011-07-03T13:23:50Z</time>
      </trkpt>
      <trkpt lat="46.28854" lon="-0.37153">
        <ele>42.3067</ele>
        <time>2011-07-03T13:23:51Z</time>
      </trkpt>
      <trkpt lat="46.28853" lon="-0.37151">
        <ele>42.3436</ele>
        <time>2011-07-03T13:23:52Z</time>
      </trkpt>
      <trkpt lat="46.28853" lon="-0.3715">
        <ele>42.3695</ele>
        <time>2011-07-03T13:23:53Z</time>
      </trkpt>
      <trkpt lat="46.28853" lon="-0.37148">
        <ele>42.3948</ele>
        <time>2011-07-03T13:23:54Z</time>
      </trkpt>
      <trkpt lat="46.28853" lon="-0.37146">
        <ele>42.4148</ele>
        <time>2011-07-03T13:23:55Z</time>
      </trkpt>
      <trkpt lat="46.28853" lon="-0.37144">
        <ele>42.435</ele>
        <time>2011-07-03T13:23:56Z</time>
      </trkpt>
      <trkpt lat="46.28852" lon="-0.37142">
        <ele>42.4459</ele>
        <time>2011-07-03T13:23:57Z</time>
      </trkpt>
      <trkpt lat="46.28852" lon="-0.3714">
        <ele>42.4565</ele>
        <time>2011-07-03T13:23:58Z</time>
      </trkpt>
      <trkpt lat="46.28852" lon="-0.37139">
        <ele>42.4677</ele>
        <time>2011-07-03T13:23:59Z</time>
      </trkpt>
      <trkpt lat="46.28851" lon="-0.37137">
        <ele>42.476</ele>
        <time>2011-07-03T13:24:00Z</time>
      </trkpt>
      <trkpt lat="46.28851" lon="-0.37136">
        <ele>42.4858</ele>
        <time>2011-07-03T13:24:01Z</time>
      </trkpt>
      <trkpt lat="46.28851" lon="-0.37134">
        <ele>42.495</ele>
        <time>2011-07-03T13:24:02Z</time>
      </trkpt>
      <trkpt lat="46.28851" lon="-0.37133">
        <ele>42.5096</ele>
        <time>2011-07-03T13:24:03Z</time>
      </trkpt>
      <trkpt lat="46.2885" lon="-0.37131">
        <ele>42.5212</ele>
        <time>2011-07-03T13:24:04Z</time>
      </trkpt>
      <trkpt lat="46.2885" lon="-0.37129">
        <ele>42.5366</ele>
        <time>2011-07-03T13:24:05Z</time>
      </trkpt>
      <trkpt lat="46.28849" lon="-0.37128">
        <ele>42.5489</ele>
        <time>2011-07-03T13:24:06Z</time>
      </trkpt>
      <trkpt lat="46.28849" lon="-0.37126">
        <ele>42.5622</ele>
        <time>2011-07-03T13:24:07Z</time>
      </trkpt>
      <trkpt lat="46.28849" lon="-0.37124">
        <ele>42.5755</ele>
        <time>2011-07-03T13:24:08Z</time>
      </trkpt>
      <trkpt lat="46.28848" lon="-0.37122">
        <ele>42.5881</ele>
        <time>2011-07-03T13:24:09Z</time>
      </trkpt>
      <trkpt lat="46.28848" lon="-0.37121">
        <ele>42.5967</ele>
        <time>2011-07-03T13:24:10Z</time>
      </trkpt>
      <trkpt lat="46.28848" lon="-0.37118">
        <ele>42.6035</ele>
        <time>2011-07-03T13:24:11Z</time>
      </trkpt>
      <trkpt lat="46.28848" lon="-0.37117">
        <ele>42.6134</ele>
        <time>2011-07-03T13:24:12Z</time>
      </trkpt>
      <trkpt lat="46.28848" lon="-0.37115">
        <ele>42.6265</ele>
        <time>2011-07-03T13:24:13Z</time>
      </trkpt>
      <trkpt lat="46.28848" lon="-0.37113">
        <ele>42.6451</ele>
        <time>2011-07-03T13:24:14Z</time>
      </trkpt>
      <trkpt lat="46.28848" lon="-0.37111">
        <ele>42.668</ele>
        <time>2011-07-03T13:24:15Z</time>
      </trkpt>
      <trkpt lat="46.28848" lon="-0.37109">
        <ele>42.692</ele>
        <time>2011-07-03T13:24:16Z</time>
      </trkpt>
      <trkpt lat="46.28848" lon="-0.37107">
        <ele>42.7174</ele>
        <time>2011-07-03T13:24:17Z</time>
      </trkpt>
      <trkpt lat="46.28848" lon="-0.37105">
        <ele>42.7421</ele>
        <time>2011-07-03T13:24:18Z</time>
      </trkpt>
      <trkpt lat="46.28848" lon="-0.37103">
        <ele>42.7676</ele>
        <time>2011-07-03T13:24:19Z</time>
      </trkpt>
      <trkpt lat="46.28847" lon="-0.37101">
        <ele>42.7969</ele>
        <time>2011-07-03T13:24:20Z</time>
      </trkpt>
      <trkpt lat="46.28847" lon="-0.371">
        <ele>42.8267</ele>
        <time>2011-07-03T13:24:21Z</time>
      </trkpt>
      <trkpt lat="46.28847" lon="-0.37098">
        <ele>42.8576</ele>
        <time>2011-07-03T13:24:22Z</time>
      </trkpt>
      <trkpt lat="46.28847" lon="-0.37096">
        <ele>42.8876</ele>
        <time>2011-07-03T13:24:23Z</time>
      </trkpt>
      <trkpt lat="46.28846" lon="-0.37095">
        <ele>42.8876</ele>
        <time>2011-07-03T13:24:24Z</time>
      </trkpt>
      <trkpt lat="46.28846" lon="-0.37093">
        <ele>42.9144</ele>
        <time>2011-07-03T13:24:25Z</time>
      </trkpt>
      <trkpt lat="46.28846" lon="-0.37091">
        <ele>42.9378</ele>
        <time>2011-07-03T13:24:26Z</time>
      </trkpt>
      <trkpt lat="46.28846" lon="-0.37089">
        <ele>42.9559</ele>
        <time>2011-07-03T13:24:27Z</time>
      </trkpt>
      <trkpt lat="46.28846" lon="-0.37088">
        <ele>42.9769</ele>
        <time>2011-07-03T13:24:28Z</time>
      </trkpt>
      <trkpt lat="46.28846" lon="-0.37085">
        <ele>42.9995</ele>
        <time>2011-07-03T13:24:29Z</time>
      </trkpt>
      <trkpt lat="46.28846" lon="-0.37084">
        <ele>43.0246</ele>
        <time>2011-07-03T13:24:30Z</time>
      </trkpt>
      <trkpt lat="46.28845" lon="-0.37082">
        <ele>43.05</ele>
        <time>2011-07-03T13:24:31Z</time>
      </trkpt>
      <trkpt lat="46.28845" lon="-0.3708">
        <ele>43.0717</ele>
        <time>2011-07-03T13:24:32Z</time>
      </trkpt>
      <trkpt lat="46.28845" lon="-0.37078">
        <ele>43.0951</ele>
        <time>2011-07-03T13:24:33Z</time>
      </trkpt>
      <trkpt lat="46.28845" lon="-0.37076">
        <ele>43.1209</ele>
        <time>2011-07-03T13:24:34Z</time>
      </trkpt>
      <trkpt lat="46.28844" lon="-0.37074">
        <ele>43.1492</ele>
        <time>2011-07-03T13:24:35Z</time>
      </trkpt>
      <trkpt lat="46.28844" lon="-0.37073">
        <ele>43.1769</ele>
        <time>2011-07-03T13:24:36Z</time>
      </trkpt>
      <trkpt lat="46.28843" lon="-0.37071">
        <ele>43.2034</ele>
        <time>2011-07-03T13:24:37Z</time>
      </trkpt>
      <trkpt lat="46.28843" lon="-0.37069">
        <ele>43.229</ele>
        <time>2011-07-03T13:24:38Z</time>
      </trkpt>
      <trkpt lat="46.28843" lon="-0.37067">
        <ele>43.2532</ele>
        <time>2011-07-03T13:24:39Z</time>
      </trkpt>
      <trkpt lat="46.28843" lon="-0.37065">
        <ele>43.2748</ele>
        <time>2011-07-03T13:24:40Z</time>
      </trkpt>
      <trkpt lat="46.28843" lon="-0.37064">
        <ele>43.2997</ele>
        <time>2011-07-03T13:24:41Z</time>
      </trkpt>
      <trkpt lat="46.28843" lon="-0.37062">
        <ele>43.33</ele>
        <time>2011-07-03T13:24:42Z</time>
      </trkpt>
      <trkpt lat="46.28842" lon="-0.3706">
        <ele>43.3591</ele>
        <time>2011-07-03T13:24:43Z</time>
      </trkpt>
      <trkpt lat="46.28842" lon="-0.37059">
        <ele>43.3852</ele>
        <time>2011-07-03T13:24:44Z</time>
      </trkpt>
      <trkpt lat="46.28841" lon="-0.37057">
        <ele>43.4058</ele>
        <time>2011-07-03T13:24:45Z</time>
      </trkpt>
      <trkpt lat="46.28841" lon="-0.37056">
        <ele>43.4212</ele>
        <time>2011-07-03T13:24:46Z</time>
      </trkpt>
      <trkpt lat="46.28841" lon="-0.37054">
        <ele>43.4364</ele>
        <time>2011-07-03T13:24:47Z</time>
      </trkpt>
      <trkpt lat="46.2884" lon="-0.37053">
        <ele>43.4526</ele>
        <time>2011-07-03T13:24:48Z</time>
      </trkpt>
      <trkpt lat="46.2884" lon="-0.37051">
        <ele>43.4721</ele>
        <time>2011-07-03T13:24:49Z</time>
      </trkpt>
      <trkpt lat="46.2884" lon="-0.37049">
        <ele>43.493</ele>
        <time>2011-07-03T13:24:50Z</time>
      </trkpt>
      <trkpt lat="46.28839" lon="-0.37047">
        <ele>43.5059</ele>
        <time>2011-07-03T13:24:51Z</time>
      </trkpt>
      <trkpt lat="46.28838" lon="-0.37045">
        <ele>43.5223</ele>
        <time>2011-07-03T13:24:52Z</time>
      </trkpt>
      <trkpt lat="46.28838" lon="-0.37044">
        <ele>43.5393</ele>
        <time>2011-07-03T13:24:53Z</time>
      </trkpt>
      <trkpt lat="46.28838" lon="-0.37042">
        <ele>43.5569</ele>
        <time>2011-07-03T13:24:54Z</time>
      </trkpt>
      <trkpt lat="46.28838" lon="-0.3704">
        <ele>43.575</ele>
        <time>2011-07-03T13:24:55Z</time>
      </trkpt>
      <trkpt lat="46.28838" lon="-0.37038">
        <ele>43.5929</ele>
        <time>2011-07-03T13:24:56Z</time>
      </trkpt>
      <trkpt lat="46.28837" lon="-0.37036">
        <ele>43.6096</ele>
        <time>2011-07-03T13:24:57Z</time>
      </trkpt>
      <trkpt lat="46.28837" lon="-0.37034">
        <ele>43.6268</ele>
        <time>2011-07-03T13:24:58Z</time>
      </trkpt>
      <trkpt lat="46.28836" lon="-0.37032">
        <ele>43.6428</ele>
        <time>2011-07-03T13:24:59Z</time>
      </trkpt>
      <trkpt lat="46.28836" lon="-0.3703">
        <ele>43.6595</ele>
        <time>2011-07-03T13:25:00Z</time>
      </trkpt>
      <trkpt lat="46.28836" lon="-0.37028">
        <ele>43.677</ele>
        <time>2011-07-03T13:25:01Z</time>
      </trkpt>
      <trkpt lat="46.28835" lon="-0.37026">
        <ele>43.6942</ele>
        <time>2011-07-03T13:25:02Z</time>
      </trkpt>
      <trkpt lat="46.28835" lon="-0.37024">
        <ele>43.7116</ele>
        <time>2011-07-03T13:25:03Z</time>
      </trkpt>
      <trkpt lat="46.28835" lon="-0.37023">
        <ele>43.7318</ele>
        <time>2011-07-03T13:25:04Z</time>
      </trkpt>
      <trkpt lat="46.28834" lon="-0.37021">
        <ele>43.752</ele>
        <time>2011-07-03T13:25:05Z</time>
      </trkpt>
      <trkpt lat="46.28834" lon="-0.3702">
        <ele>43.7729</ele>
        <time>2011-07-03T13:25:06Z</time>
      </trkpt>
      <trkpt lat="46.28834" lon="-0.37018">
        <ele>43.7895</ele>
        <time>2011-07-03T13:25:07Z</time>
      </trkpt>
      <trkpt lat="46.28834" lon="-0.37017">
        <ele>43.8122</ele>
        <time>2011-07-03T13:25:08Z</time>
      </trkpt>
      <trkpt lat="46.28834" lon="-0.37016">
        <ele>43.8346</ele>
        <time>2011-07-03T13:25:09Z</time>
      </trkpt>
      <trkpt lat="46.28834" lon="-0.37015">
        <ele>43.8391</ele>
        <time>2011-07-03T13:25:10Z</time>
      </trkpt>
      <trkpt lat="46.28834" lon="-0.37014">
        <ele>43.8437</ele>
        <time>2011-07-03T13:25:11Z</time>
      </trkpt>
      <trkpt lat="46.28833" lon="-0.37012">
        <ele>43.8467</ele>
        <time>2011-07-03T13:25:12Z</time>
      </trkpt>
      <trkpt lat="46.28833" lon="-0.3701">
        <ele>43.835</ele>
        <time>2011-07-03T13:25:13Z</time>
      </trkpt>
      <trkpt lat="46.28833" lon="-0.37008">
        <ele>43.8302</ele>
        <time>2011-07-03T13:25:14Z</time>
      </trkpt>
      <trkpt lat="46.28833" lon="-0.37006">
        <ele>43.825</ele>
        <time>2011-07-03T13:25:15Z</time>
      </trkpt>
      <trkpt lat="46.28832" lon="-0.37004">
        <ele>43.8217</ele>
        <time>2011-07-03T13:25:16Z</time>
      </trkpt>
      <trkpt lat="46.28832" lon="-0.37002">
        <ele>43.8171</ele>
        <time>2011-07-03T13:25:17Z</time>
      </trkpt>
      <trkpt lat="46.28832" lon="-0.36999">
        <ele>43.8173</ele>
        <time>2011-07-03T13:25:18Z</time>
      </trkpt>
      <trkpt lat="46.28832" lon="-0.36997">
        <ele>43.8164</ele>
        <time>2011-07-03T13:25:19Z</time>
      </trkpt>
      <trkpt lat="46.28831" lon="-0.36995">
        <ele>43.8154</ele>
        <time>2011-07-03T13:25:20Z</time>
      </trkpt>
      <trkpt lat="46.28831" lon="-0.36993">
        <ele>43.8189</ele>
        <time>2011-07-03T13:25:21Z</time>
      </trkpt>
      <trkpt lat="46.28831" lon="-0.36991">
        <ele>43.827</ele>
        <time>2011-07-03T13:25:22Z</time>
      </trkpt>
      <trkpt lat="46.2883" lon="-0.36989">
        <ele>43.844</ele>
        <time>2011-07-03T13:25:23Z</time>
      </trkpt>
      <trkpt lat="46.2883" lon="-0.36987">
        <ele>43.8635</ele>
        <time>2011-07-03T13:25:24Z</time>
      </trkpt>
      <trkpt lat="46.2883" lon="-0.36986">
        <ele>43.8834</ele>
        <time>2011-07-03T13:25:25Z</time>
      </trkpt>
      <trkpt lat="46.2883" lon="-0.36984">
        <ele>43.8977</ele>
        <time>2011-07-03T13:25:26Z</time>
      </trkpt>
      <trkpt lat="46.2883" lon="-0.36982">
        <ele>43.9025</ele>
        <time>2011-07-03T13:25:27Z</time>
      </trkpt>
      <trkpt lat="46.28829" lon="-0.3698">
        <ele>43.9072</ele>
        <time>2011-07-03T13:25:28Z</time>
      </trkpt>
      <trkpt lat="46.28829" lon="-0.36978">
        <ele>43.9104</ele>
        <time>2011-07-03T13:25:29Z</time>
      </trkpt>
      <trkpt lat="46.28828" lon="-0.36976">
        <ele>43.9116</ele>
        <time>2011-07-03T13:25:30Z</time>
      </trkpt>
      <trkpt lat="46.28828" lon="-0.36974">
        <ele>43.9062</ele>
        <time>2011-07-03T13:25:31Z</time>
      </trkpt>
      <trkpt lat="46.28828" lon="-0.36972">
        <ele>43.9016</ele>
        <time>2011-07-03T13:25:32Z</time>
      </trkpt>
      <trkpt lat="46.28828" lon="-0.36971">
        <ele>43.8976</ele>
        <time>2011-07-03T13:25:33Z</time>
      </trkpt>
      <trkpt lat="46.28827" lon="-0.36969">
        <ele>43.8897</ele>
        <time>2011-07-03T13:25:34Z</time>
      </trkpt>
      <trkpt lat="46.28827" lon="-0.36967">
        <ele>43.8783</ele>
        <time>2011-07-03T13:25:35Z</time>
      </trkpt>
      <trkpt lat="46.28827" lon="-0.36965">
        <ele>43.8699</ele>
        <time>2011-07-03T13:25:36Z</time>
      </trkpt>
      <trkpt lat="46.28827" lon="-0.36963">
        <ele>43.8607</ele>
        <time>2011-07-03T13:25:37Z</time>
      </trkpt>
      <trkpt lat="46.28827" lon="-0.36961">
        <ele>43.8498</ele>
        <time>2011-07-03T13:25:38Z</time>
      </trkpt>
      <trkpt lat="46.28826" lon="-0.36959">
        <ele>43.8397</ele>
        <time>2011-07-03T13:25:39Z</time>
      </trkpt>
      <trkpt lat="46.28826" lon="-0.36957">
        <ele>43.8305</ele>
        <time>2011-07-03T13:25:40Z</time>
      </trkpt>
      <trkpt lat="46.28826" lon="-0.36955">
        <ele>43.8302</ele>
        <time>2011-07-03T13:25:41Z</time>
      </trkpt>
      <trkpt lat="46.28825" lon="-0.36953">
        <ele>43.8393</ele>
        <time>2011-07-03T13:25:42Z</time>
      </trkpt>
      <trkpt lat="46.28825" lon="-0.36951">
        <ele>43.8506</ele>
        <time>2011-07-03T13:25:43Z</time>
      </trkpt>
      <trkpt lat="46.28825" lon="-0.36949">
        <ele>43.8675</ele>
        <time>2011-07-03T13:25:44Z</time>
      </trkpt>
      <trkpt lat="46.28824" lon="-0.36946">
        <ele>43.8867</ele>
        <time>2011-07-03T13:25:45Z</time>
      </trkpt>
      <trkpt lat="46.28824" lon="-0.36944">
        <ele>43.9057</ele>
        <time>2011-07-03T13:25:46Z</time>
      </trkpt>
      <trkpt lat="46.28824" lon="-0.36942">
        <ele>43.9349</ele>
        <time>2011-07-03T13:25:47Z</time>
      </trkpt>
      <trkpt lat="46.28824" lon="-0.3694">
        <ele>43.9689</ele>
        <time>2011-07-03T13:25:48Z</time>
      </trkpt>
      <trkpt lat="46.28824" lon="-0.36938">
        <ele>44.0069</ele>
        <time>2011-07-03T13:25:49Z</time>
      </trkpt>
      <trkpt lat="46.28824" lon="-0.36936">
        <ele>44.0469</ele>
        <time>2011-07-03T13:25:50Z</time>
      </trkpt>
      <trkpt lat="46.28824" lon="-0.36934">
        <ele>44.0842</ele>
        <time>2011-07-03T13:25:51Z</time>
      </trkpt>
      <trkpt lat="46.28823" lon="-0.36933">
        <ele>44.1266</ele>
        <time>2011-07-03T13:25:52Z</time>
      </trkpt>
      <trkpt lat="46.28823" lon="-0.36929">
        <ele>44.2092</ele>
        <time>2011-07-03T13:25:54Z</time>
      </trkpt>
      <trkpt lat="46.28822" lon="-0.36926">
        <ele>44.288</ele>
        <time>2011-07-03T13:25:56Z</time>
      </trkpt>
      <trkpt lat="46.28822" lon="-0.36924">
        <ele>44.3225</ele>
        <time>2011-07-03T13:25:57Z</time>
      </trkpt>
      <trkpt lat="46.28822" lon="-0.36922">
        <ele>44.3561</ele>
        <time>2011-07-03T13:25:58Z</time>
      </trkpt>
      <trkpt lat="46.28821" lon="-0.3692">
        <ele>44.3875</ele>
        <time>2011-07-03T13:25:59Z</time>
      </trkpt>
      <trkpt lat="46.28821" lon="-0.36918">
        <ele>44.4169</ele>
        <time>2011-07-03T13:26:00Z</time>
      </trkpt>
      <trkpt lat="46.28821" lon="-0.36916">
        <ele>44.4448</ele>
        <time>2011-07-03T13:26:01Z</time>
      </trkpt>
      <trkpt lat="46.28821" lon="-0.36915">
        <ele>44.4732</ele>
        <time>2011-07-03T13:26:02Z</time>
      </trkpt>
      <trkpt lat="46.2882" lon="-0.36913">
        <ele>44.5014</ele>
        <time>2011-07-03T13:26:03Z</time>
      </trkpt>
      <trkpt lat="46.2882" lon="-0.36911">
        <ele>44.528</ele>
        <time>2011-07-03T13:26:04Z</time>
      </trkpt>
      <trkpt lat="46.2882" lon="-0.36909">
        <ele>44.5547</ele>
        <time>2011-07-03T13:26:05Z</time>
      </trkpt>
      <trkpt lat="46.2882" lon="-0.36908">
        <ele>44.5795</ele>
        <time>2011-07-03T13:26:06Z</time>
      </trkpt>
      <trkpt lat="46.2882" lon="-0.36906">
        <ele>44.6043</ele>
        <time>2011-07-03T13:26:07Z</time>
      </trkpt>
      <trkpt lat="46.28819" lon="-0.36904">
        <ele>44.6277</ele>
        <time>2011-07-03T13:26:08Z</time>
      </trkpt>
      <trkpt lat="46.28819" lon="-0.36902">
        <ele>44.6496</ele>
        <time>2011-07-03T13:26:09Z</time>
      </trkpt>
      <trkpt lat="46.28818" lon="-0.369">
        <ele>44.6698</ele>
        <time>2011-07-03T13:26:10Z</time>
      </trkpt>
      <trkpt lat="46.28818" lon="-0.36898">
        <ele>44.69</ele>
        <time>2011-07-03T13:26:11Z</time>
      </trkpt>
      <trkpt lat="46.28818" lon="-0.36896">
        <ele>44.7099</ele>
        <time>2011-07-03T13:26:12Z</time>
      </trkpt>
      <trkpt lat="46.28818" lon="-0.36895">
        <ele>44.7287</ele>
        <time>2011-07-03T13:26:13Z</time>
      </trkpt>
      <trkpt lat="46.28817" lon="-0.36893">
        <ele>44.7477</ele>
        <time>2011-07-03T13:26:14Z</time>
      </trkpt>
      <trkpt lat="46.28817" lon="-0.36891">
        <ele>44.7654</ele>
        <time>2011-07-03T13:26:15Z</time>
      </trkpt>
      <trkpt lat="46.28816" lon="-0.36889">
        <ele>44.784</ele>
        <time>2011-07-03T13:26:16Z</time>
      </trkpt>
      <trkpt lat="46.28816" lon="-0.36887">
        <ele>44.7986</ele>
        <time>2011-07-03T13:26:17Z</time>
      </trkpt>
      <trkpt lat="46.28816" lon="-0.36885">
        <ele>44.8138</ele>
        <time>2011-07-03T13:26:18Z</time>
      </trkpt>
      <trkpt lat="46.28816" lon="-0.36883">
        <ele>44.8279</ele>
        <time>2011-07-03T13:26:19Z</time>
      </trkpt>
      <trkpt lat="46.28816" lon="-0.36881">
        <ele>44.8311</ele>
        <time>2011-07-03T13:26:20Z</time>
      </trkpt>
      <trkpt lat="46.28816" lon="-0.36879">
        <ele>44.8307</ele>
        <time>2011-07-03T13:26:21Z</time>
      </trkpt>
      <trkpt lat="46.28815" lon="-0.36878">
        <ele>44.8313</ele>
        <time>2011-07-03T13:26:22Z</time>
      </trkpt>
      <trkpt lat="46.28815" lon="-0.36876">
        <ele>44.8329</ele>
        <time>2011-07-03T13:26:23Z</time>
      </trkpt>
      <trkpt lat="46.28815" lon="-0.36875">
        <ele>44.8353</ele>
        <time>2011-07-03T13:26:24Z</time>
      </trkpt>
      <trkpt lat="46.28815" lon="-0.36873">
        <ele>44.8382</ele>
        <time>2011-07-03T13:26:25Z</time>
      </trkpt>
      <trkpt lat="46.28815" lon="-0.36872">
        <ele>44.8377</ele>
        <time>2011-07-03T13:26:26Z</time>
      </trkpt>
      <trkpt lat="46.28815" lon="-0.3687">
        <ele>44.8379</ele>
        <time>2011-07-03T13:26:27Z</time>
      </trkpt>
      <trkpt lat="46.28815" lon="-0.36868">
        <ele>44.8394</ele>
        <time>2011-07-03T13:26:28Z</time>
      </trkpt>
      <trkpt lat="46.28814" lon="-0.36867">
        <ele>44.8411</ele>
        <time>2011-07-03T13:26:29Z</time>
      </trkpt>
      <trkpt lat="46.28814" lon="-0.36865">
        <ele>44.8431</ele>
        <time>2011-07-03T13:26:30Z</time>
      </trkpt>
      <trkpt lat="46.28814" lon="-0.36863">
        <ele>44.8476</ele>
        <time>2011-07-03T13:26:31Z</time>
      </trkpt>
      <trkpt lat="46.28814" lon="-0.36862">
        <ele>44.8514</ele>
        <time>2011-07-03T13:26:32Z</time>
      </trkpt>
      <trkpt lat="46.28814" lon="-0.3686">
        <ele>44.854</ele>
        <time>2011-07-03T13:26:33Z</time>
      </trkpt>
      <trkpt lat="46.28813" lon="-0.36858">
        <ele>44.8537</ele>
        <time>2011-07-03T13:26:34Z</time>
      </trkpt>
      <trkpt lat="46.28813" lon="-0.36856">
        <ele>44.8534</ele>
        <time>2011-07-03T13:26:35Z</time>
      </trkpt>
      <trkpt lat="46.28812" lon="-0.36854">
        <ele>44.8535</ele>
        <time>2011-07-03T13:26:36Z</time>
      </trkpt>
      <trkpt lat="46.28812" lon="-0.36852">
        <ele>44.8537</ele>
        <time>2011-07-03T13:26:37Z</time>
      </trkpt>
      <trkpt lat="46.28811" lon="-0.36851">
        <ele>44.8542</ele>
        <time>2011-07-03T13:26:38Z</time>
      </trkpt>
      <trkpt lat="46.28811" lon="-0.36849">
        <ele>44.8484</ele>
        <time>2011-07-03T13:26:39Z</time>
      </trkpt>
      <trkpt lat="46.28811" lon="-0.36847">
        <ele>44.8365</ele>
        <time>2011-07-03T13:26:40Z</time>
      </trkpt>
      <trkpt lat="46.2881" lon="-0.36845">
        <ele>44.817</ele>
        <time>2011-07-03T13:26:41Z</time>
      </trkpt>
      <trkpt lat="46.2881" lon="-0.36843">
        <ele>44.7986</ele>
        <time>2011-07-03T13:26:42Z</time>
      </trkpt>
      <trkpt lat="46.28809" lon="-0.36842">
        <ele>44.7803</ele>
        <time>2011-07-03T13:26:43Z</time>
      </trkpt>
      <trkpt lat="46.28809" lon="-0.3684">
        <ele>44.7642</ele>
        <time>2011-07-03T13:26:44Z</time>
      </trkpt>
      <trkpt lat="46.28809" lon="-0.36838">
        <ele>44.7483</ele>
        <time>2011-07-03T13:26:45Z</time>
      </trkpt>
      <trkpt lat="46.28809" lon="-0.36836">
        <ele>44.7353</ele>
        <time>2011-07-03T13:26:46Z</time>
      </trkpt>
      <trkpt lat="46.28808" lon="-0.36834">
        <ele>44.7225</ele>
        <time>2011-07-03T13:26:47Z</time>
      </trkpt>
      <trkpt lat="46.28808" lon="-0.36833">
        <ele>44.7146</ele>
        <time>2011-07-03T13:26:48Z</time>
      </trkpt>
      <trkpt lat="46.28807" lon="-0.36831">
        <ele>44.7079</ele>
        <time>2011-07-03T13:26:49Z</time>
      </trkpt>
      <trkpt lat="46.28807" lon="-0.36829">
        <ele>44.7008</ele>
        <time>2011-07-03T13:26:50Z</time>
      </trkpt>
      <trkpt lat="46.28807" lon="-0.36828">
        <ele>44.6935</ele>
        <time>2011-07-03T13:26:51Z</time>
      </trkpt>
      <trkpt lat="46.28806" lon="-0.36826">
        <ele>44.6861</ele>
        <time>2011-07-03T13:26:52Z</time>
      </trkpt>
      <trkpt lat="46.28806" lon="-0.36824">
        <ele>44.6794</ele>
        <time>2011-07-03T13:26:53Z</time>
      </trkpt>
      <trkpt lat="46.28806" lon="-0.36822">
        <ele>44.6724</ele>
        <time>2011-07-03T13:26:54Z</time>
      </trkpt>
      <trkpt lat="46.28806" lon="-0.36821">
        <ele>44.6664</ele>
        <time>2011-07-03T13:26:55Z</time>
      </trkpt>
      <trkpt lat="46.28805" lon="-0.36819">
        <ele>44.6613</ele>
        <time>2011-07-03T13:26:56Z</time>
      </trkpt>
      <trkpt lat="46.28805" lon="-0.36818">
        <ele>44.6563</ele>
        <time>2011-07-03T13:26:57Z</time>
      </trkpt>
      <trkpt lat="46.28804" lon="-0.36816">
        <ele>44.6529</ele>
        <time>2011-07-03T13:26:58Z</time>
      </trkpt>
      <trkpt lat="46.28804" lon="-0.36814">
        <ele>44.6504</ele>
        <time>2011-07-03T13:26:59Z</time>
      </trkpt>
      <trkpt lat="46.28804" lon="-0.36812">
        <ele>44.6476</ele>
        <time>2011-07-03T13:27:00Z</time>
      </trkpt>
      <trkpt lat="46.28803" lon="-0.36811">
        <ele>44.6448</ele>
        <time>2011-07-03T13:27:01Z</time>
      </trkpt>
      <trkpt lat="46.28803" lon="-0.36809">
        <ele>44.6419</ele>
        <time>2011-07-03T13:27:02Z</time>
      </trkpt>
      <trkpt lat="46.28803" lon="-0.36807">
        <ele>44.6397</ele>
        <time>2011-07-03T13:27:03Z</time>
      </trkpt>
      <trkpt lat="46.28803" lon="-0.36805">
        <ele>44.6406</ele>
        <time>2011-07-03T13:27:04Z</time>
      </trkpt>
      <trkpt lat="46.28802" lon="-0.36803">
        <ele>44.6405</ele>
        <time>2011-07-03T13:27:05Z</time>
      </trkpt>
      <trkpt lat="46.28802" lon="-0.36801">
        <ele>44.6411</ele>
        <time>2011-07-03T13:27:06Z</time>
      </trkpt>
      <trkpt lat="46.28801" lon="-0.36799">
        <ele>44.6437</ele>
        <time>2011-07-03T13:27:07Z</time>
      </trkpt>
      <trkpt lat="46.28801" lon="-0.36797">
        <ele>44.6466</ele>
        <time>2011-07-03T13:27:08Z</time>
      </trkpt>
      <trkpt lat="46.28801" lon="-0.36795">
        <ele>44.6483</ele>
        <time>2011-07-03T13:27:09Z</time>
      </trkpt>
      <trkpt lat="46.28801" lon="-0.36793">
        <ele>44.6523</ele>
        <time>2011-07-03T13:27:10Z</time>
      </trkpt>
      <trkpt lat="46.28801" lon="-0.36791">
        <ele>44.6584</ele>
        <time>2011-07-03T13:27:11Z</time>
      </trkpt>
      <trkpt lat="46.28801" lon="-0.36789">
        <ele>44.6628</ele>
        <time>2011-07-03T13:27:12Z</time>
      </trkpt>
      <trkpt lat="46.28801" lon="-0.36787">
        <ele>44.6674</ele>
        <time>2011-07-03T13:27:13Z</time>
      </trkpt>
      <trkpt lat="46.288" lon="-0.36786">
        <ele>44.6719</ele>
        <time>2011-07-03T13:27:14Z</time>
      </trkpt>
      <trkpt lat="46.288" lon="-0.36784">
        <ele>44.6756</ele>
        <time>2011-07-03T13:27:15Z</time>
      </trkpt>
      <trkpt lat="46.28799" lon="-0.36782">
        <ele>44.6791</ele>
        <time>2011-07-03T13:27:16Z</time>
      </trkpt>
      <trkpt lat="46.28799" lon="-0.3678">
        <ele>44.6837</ele>
        <time>2011-07-03T13:27:17Z</time>
      </trkpt>
      <trkpt lat="46.28799" lon="-0.36778">
        <ele>44.6882</ele>
        <time>2011-07-03T13:27:18Z</time>
      </trkpt>
      <trkpt lat="46.28799" lon="-0.36776">
        <ele>44.6928</ele>
        <time>2011-07-03T13:27:19Z</time>
      </trkpt>
      <trkpt lat="46.28798" lon="-0.36774">
        <ele>44.6977</ele>
        <time>2011-07-03T13:27:20Z</time>
      </trkpt>
      <trkpt lat="46.28798" lon="-0.36773">
        <ele>44.703</ele>
        <time>2011-07-03T13:27:21Z</time>
      </trkpt>
      <trkpt lat="46.28797" lon="-0.36772">
        <ele>44.7087</ele>
        <time>2011-07-03T13:27:22Z</time>
      </trkpt>
      <trkpt lat="46.28797" lon="-0.3677">
        <ele>44.7171</ele>
        <time>2011-07-03T13:27:23Z</time>
      </trkpt>
      <trkpt lat="46.28796" lon="-0.36768">
        <ele>44.7255</ele>
        <time>2011-07-03T13:27:24Z</time>
      </trkpt>
      <trkpt lat="46.28796" lon="-0.36766">
        <ele>44.7355</ele>
        <time>2011-07-03T13:27:25Z</time>
      </trkpt>
      <trkpt lat="46.28796" lon="-0.36765">
        <ele>44.7465</ele>
        <time>2011-07-03T13:27:26Z</time>
      </trkpt>
      <trkpt lat="46.28795" lon="-0.36763">
        <ele>44.7567</ele>
        <time>2011-07-03T13:27:27Z</time>
      </trkpt>
      <trkpt lat="46.28795" lon="-0.36761">
        <ele>44.767</ele>
        <time>2011-07-03T13:27:28Z</time>
      </trkpt>
      <trkpt lat="46.28795" lon="-0.36759">
        <ele>44.777</ele>
        <time>2011-07-03T13:27:29Z</time>
      </trkpt>
      <trkpt lat="46.28795" lon="-0.36757">
        <ele>44.7872</ele>
        <time>2011-07-03T13:27:30Z</time>
      </trkpt>
      <trkpt lat="46.28795" lon="-0.36755">
        <ele>44.7981</ele>
        <time>2011-07-03T13:27:31Z</time>
      </trkpt>
      <trkpt lat="46.28794" lon="-0.36754">
        <ele>44.8107</ele>
        <time>2011-07-03T13:27:32Z</time>
      </trkpt>
      <trkpt lat="46.28795" lon="-0.36752">
        <ele>44.8258</ele>
        <time>2011-07-03T13:27:33Z</time>
      </trkpt>
      <trkpt lat="46.28795" lon="-0.36751">
        <ele>44.847</ele>
        <time>2011-07-03T13:27:34Z</time>
      </trkpt>
      <trkpt lat="46.28796" lon="-0.3675">
        <ele>44.8796</ele>
        <time>2011-07-03T13:27:37Z</time>
      </trkpt>
      <trkpt lat="46.28795" lon="-0.36748">
        <ele>44.9063</ele>
        <time>2011-07-03T13:27:38Z</time>
      </trkpt>
      <trkpt lat="46.28795" lon="-0.36747">
        <ele>44.9323</ele>
        <time>2011-07-03T13:27:39Z</time>
      </trkpt>
      <trkpt lat="46.28795" lon="-0.36745">
        <ele>44.9604</ele>
        <time>2011-07-03T13:27:40Z</time>
      </trkpt>
      <trkpt lat="46.28795" lon="-0.36744">
        <ele>44.9892</ele>
        <time>2011-07-03T13:27:41Z</time>
      </trkpt>
      <trkpt lat="46.28794" lon="-0.36742">
        <ele>45.0181</ele>
        <time>2011-07-03T13:27:42Z</time>
      </trkpt>
      <trkpt lat="46.28794" lon="-0.3674">
        <ele>45.0467</ele>
        <time>2011-07-03T13:27:43Z</time>
      </trkpt>
      <trkpt lat="46.28793" lon="-0.36739">
        <ele>45.0752</ele>
        <time>2011-07-03T13:27:44Z</time>
      </trkpt>
      <trkpt lat="46.28793" lon="-0.36737">
        <ele>45.1069</ele>
        <time>2011-07-03T13:27:45Z</time>
      </trkpt>
      <trkpt lat="46.28793" lon="-0.36735">
        <ele>45.138</ele>
        <time>2011-07-03T13:27:46Z</time>
      </trkpt>
      <trkpt lat="46.28792" lon="-0.36733">
        <ele>45.1688</ele>
        <time>2011-07-03T13:27:47Z</time>
      </trkpt>
      <trkpt lat="46.28791" lon="-0.36732">
        <ele>45.2029</ele>
        <time>2011-07-03T13:27:48Z</time>
      </trkpt>
      <trkpt lat="46.28791" lon="-0.36731">
        <ele>45.2322</ele>
        <time>2011-07-03T13:27:49Z</time>
      </trkpt>
      <trkpt lat="46.28791" lon="-0.36729">
        <ele>45.2626</ele>
        <time>2011-07-03T13:27:50Z</time>
      </trkpt>
      <trkpt lat="46.28791" lon="-0.36727">
        <ele>45.2894</ele>
        <time>2011-07-03T13:27:51Z</time>
      </trkpt>
      <trkpt lat="46.2879" lon="-0.36725">
        <ele>45.3143</ele>
        <time>2011-07-03T13:27:52Z</time>
      </trkpt>
      <trkpt lat="46.2879" lon="-0.36724">
        <ele>45.3386</ele>
        <time>2011-07-03T13:27:53Z</time>
      </trkpt>
      <trkpt lat="46.2879" lon="-0.36722">
        <ele>45.3608</ele>
        <time>2011-07-03T13:27:54Z</time>
      </trkpt>
      <trkpt lat="46.2879" lon="-0.3672">
        <ele>45.3813</ele>
        <time>2011-07-03T13:27:55Z</time>
      </trkpt>
      <trkpt lat="46.2879" lon="-0.36718">
        <ele>45.4011</ele>
        <time>2011-07-03T13:27:56Z</time>
      </trkpt>
      <trkpt lat="46.2879" lon="-0.36716">
        <ele>45.4356</ele>
        <time>2011-07-03T13:27:57Z</time>
      </trkpt>
      <trkpt lat="46.2879" lon="-0.36714">
        <ele>45.4756</ele>
        <time>2011-07-03T13:27:58Z</time>
      </trkpt>
      <trkpt lat="46.2879" lon="-0.36712">
        <ele>45.5158</ele>
        <time>2011-07-03T13:27:59Z</time>
      </trkpt>
      <trkpt lat="46.28789" lon="-0.3671">
        <ele>45.5639</ele>
        <time>2011-07-03T13:28:00Z</time>
      </trkpt>
      <trkpt lat="46.28789" lon="-0.36708">
        <ele>45.6117</ele>
        <time>2011-07-03T13:28:01Z</time>
      </trkpt>
      <trkpt lat="46.28789" lon="-0.36706">
        <ele>45.6594</ele>
        <time>2011-07-03T13:28:02Z</time>
      </trkpt>
      <trkpt lat="46.28788" lon="-0.36703">
        <ele>45.7054</ele>
        <time>2011-07-03T13:28:03Z</time>
      </trkpt>
      <trkpt lat="46.28788" lon="-0.36701">
        <ele>45.7475</ele>
        <time>2011-07-03T13:28:04Z</time>
      </trkpt>
      <trkpt lat="46.28788" lon="-0.36699">
        <ele>45.7862</ele>
        <time>2011-07-03T13:28:05Z</time>
      </trkpt>
      <trkpt lat="46.28788" lon="-0.36697">
        <ele>45.8231</ele>
        <time>2011-07-03T13:28:06Z</time>
      </trkpt>
      <trkpt lat="46.28787" lon="-0.36695">
        <ele>45.8579</ele>
        <time>2011-07-03T13:28:07Z</time>
      </trkpt>
      <trkpt lat="46.28787" lon="-0.36693">
        <ele>45.8911</ele>
        <time>2011-07-03T13:28:08Z</time>
      </trkpt>
      <trkpt lat="46.28787" lon="-0.36691">
        <ele>45.9232</ele>
        <time>2011-07-03T13:28:09Z</time>
      </trkpt>
      <trkpt lat="46.28786" lon="-0.3669">
        <ele>45.9548</ele>
        <time>2011-07-03T13:28:10Z</time>
      </trkpt>
      <trkpt lat="46.28786" lon="-0.36688">
        <ele>45.9857</ele>
        <time>2011-07-03T13:28:11Z</time>
      </trkpt>
      <trkpt lat="46.28786" lon="-0.36686">
        <ele>46.0154</ele>
        <time>2011-07-03T13:28:12Z</time>
      </trkpt>
      <trkpt lat="46.28785" lon="-0.36685">
        <ele>46.0447</ele>
        <time>2011-07-03T13:28:13Z</time>
      </trkpt>
      <trkpt lat="46.28785" lon="-0.36683">
        <ele>46.0745</ele>
        <time>2011-07-03T13:28:14Z</time>
      </trkpt>
      <trkpt lat="46.28785" lon="-0.36681">
        <ele>46.1038</ele>
        <time>2011-07-03T13:28:15Z</time>
      </trkpt>
      <trkpt lat="46.28785" lon="-0.36679">
        <ele>46.1362</ele>
        <time>2011-07-03T13:28:16Z</time>
      </trkpt>
      <trkpt lat="46.28785" lon="-0.36677">
        <ele>46.1683</ele>
        <time>2011-07-03T13:28:17Z</time>
      </trkpt>
      <trkpt lat="46.28785" lon="-0.36676">
        <ele>46.2028</ele>
        <time>2011-07-03T13:28:18Z</time>
      </trkpt>
      <trkpt lat="46.28784" lon="-0.36674">
        <ele>46.2355</ele>
        <time>2011-07-03T13:28:19Z</time>
      </trkpt>
      <trkpt lat="46.28784" lon="-0.36672">
        <ele>46.2693</ele>
        <time>2011-07-03T13:28:20Z</time>
      </trkpt>
      <trkpt lat="46.28783" lon="-0.3667">
        <ele>46.3021</ele>
        <time>2011-07-03T13:28:21Z</time>
      </trkpt>
      <trkpt lat="46.28783" lon="-0.36669">
        <ele>46.3324</ele>
        <time>2011-07-03T13:28:22Z</time>
      </trkpt>
      <trkpt lat="46.28783" lon="-0.36667">
        <ele>46.357</ele>
        <time>2011-07-03T13:28:23Z</time>
      </trkpt>
      <trkpt lat="46.28783" lon="-0.36666">
        <ele>46.3771</ele>
        <time>2011-07-03T13:28:24Z</time>
      </trkpt>
      <trkpt lat="46.28783" lon="-0.36664">
        <ele>46.3943</ele>
        <time>2011-07-03T13:28:25Z</time>
      </trkpt>
      <trkpt lat="46.28782" lon="-0.36662">
        <ele>46.4081</ele>
        <time>2011-07-03T13:28:26Z</time>
      </trkpt>
      <trkpt lat="46.28782" lon="-0.3666">
        <ele>46.4215</ele>
        <time>2011-07-03T13:28:27Z</time>
      </trkpt>
      <trkpt lat="46.28782" lon="-0.36658">
        <ele>46.4354</ele>
        <time>2011-07-03T13:28:28Z</time>
      </trkpt>
      <trkpt lat="46.28782" lon="-0.36656">
        <ele>46.4495</ele>
        <time>2011-07-03T13:28:29Z</time>
      </trkpt>
      <trkpt lat="46.28781" lon="-0.36654">
        <ele>46.4637</ele>
        <time>2011-07-03T13:28:30Z</time>
      </trkpt>
      <trkpt lat="46.28781" lon="-0.36652">
        <ele>46.4796</ele>
        <time>2011-07-03T13:28:31Z</time>
      </trkpt>
      <trkpt lat="46.2878" lon="-0.3665">
        <ele>46.4929</ele>
        <time>2011-07-03T13:28:32Z</time>
      </trkpt>
      <trkpt lat="46.2878" lon="-0.36649">
        <ele>46.5045</ele>
        <time>2011-07-03T13:28:33Z</time>
      </trkpt>
      <trkpt lat="46.2878" lon="-0.36647">
        <ele>46.5163</ele>
        <time>2011-07-03T13:28:34Z</time>
      </trkpt>
      <trkpt lat="46.2878" lon="-0.36645">
        <ele>46.5282</ele>
        <time>2011-07-03T13:28:35Z</time>
      </trkpt>
      <trkpt lat="46.2878" lon="-0.36644">
        <ele>46.5393</ele>
        <time>2011-07-03T13:28:36Z</time>
      </trkpt>
      <trkpt lat="46.28779" lon="-0.36642">
        <ele>46.5508</ele>
        <time>2011-07-03T13:28:37Z</time>
      </trkpt>
      <trkpt lat="46.28779" lon="-0.3664">
        <ele>46.5624</ele>
        <time>2011-07-03T13:28:38Z</time>
      </trkpt>
      <trkpt lat="46.28779" lon="-0.36638">
        <ele>46.5718</ele>
        <time>2011-07-03T13:28:39Z</time>
      </trkpt>
      <trkpt lat="46.28779" lon="-0.36636">
        <ele>46.5785</ele>
        <time>2011-07-03T13:28:40Z</time>
      </trkpt>
      <trkpt lat="46.28778" lon="-0.36635">
        <ele>46.5855</ele>
        <time>2011-07-03T13:28:41Z</time>
      </trkpt>
      <trkpt lat="46.28778" lon="-0.36633">
        <ele>46.5929</ele>
        <time>2011-07-03T13:28:42Z</time>
      </trkpt>
      <trkpt lat="46.28777" lon="-0.36631">
        <ele>46.598</ele>
        <time>2011-07-03T13:28:43Z</time>
      </trkpt>
      <trkpt lat="46.28777" lon="-0.36629">
        <ele>46.6021</ele>
        <time>2011-07-03T13:28:44Z</time>
      </trkpt>
      <trkpt lat="46.28776" lon="-0.36627">
        <ele>46.6089</ele>
        <time>2011-07-03T13:28:45Z</time>
      </trkpt>
      <trkpt lat="46.28776" lon="-0.36625">
        <ele>46.6135</ele>
        <time>2011-07-03T13:28:46Z</time>
      </trkpt>
      <trkpt lat="46.28776" lon="-0.36623">
        <ele>46.6167</ele>
        <time>2011-07-03T13:28:47Z</time>
      </trkpt>
      <trkpt lat="46.28775" lon="-0.36622">
        <ele>46.6188</ele>
        <time>2011-07-03T13:28:48Z</time>
      </trkpt>
      <trkpt lat="46.28775" lon="-0.3662">
        <ele>46.6202</ele>
        <time>2011-07-03T13:28:49Z</time>
      </trkpt>
      <trkpt lat="46.28775" lon="-0.36618">
        <ele>46.6213</ele>
        <time>2011-07-03T13:28:50Z</time>
      </trkpt>
      <trkpt lat="46.28774" lon="-0.36616">
        <ele>46.6225</ele>
        <time>2011-07-03T13:28:51Z</time>
      </trkpt>
      <trkpt lat="46.28774" lon="-0.36614">
        <ele>46.6216</ele>
        <time>2011-07-03T13:28:52Z</time>
      </trkpt>
      <trkpt lat="46.28774" lon="-0.36611">
        <ele>46.6239</ele>
        <time>2011-07-03T13:28:53Z</time>
      </trkpt>
      <trkpt lat="46.28774" lon="-0.36609">
        <ele>46.6251</ele>
        <time>2011-07-03T13:28:54Z</time>
      </trkpt>
      <trkpt lat="46.28774" lon="-0.36607">
        <ele>46.6286</ele>
        <time>2011-07-03T13:28:55Z</time>
      </trkpt>
      <trkpt lat="46.28773" lon="-0.36605">
        <ele>46.6346</ele>
        <time>2011-07-03T13:28:56Z</time>
      </trkpt>
      <trkpt lat="46.28774" lon="-0.36602">
        <ele>46.6415</ele>
        <time>2011-07-03T13:28:57Z</time>
      </trkpt>
      <trkpt lat="46.28774" lon="-0.366">
        <ele>46.6481</ele>
        <time>2011-07-03T13:28:58Z</time>
      </trkpt>
      <trkpt lat="46.28774" lon="-0.36598">
        <ele>46.6542</ele>
        <time>2011-07-03T13:28:59Z</time>
      </trkpt>
      <trkpt lat="46.28773" lon="-0.36596">
        <ele>46.6625</ele>
        <time>2011-07-03T13:29:00Z</time>
      </trkpt>
      <trkpt lat="46.28773" lon="-0.36594">
        <ele>46.6706</ele>
        <time>2011-07-03T13:29:01Z</time>
      </trkpt>
      <trkpt lat="46.28772" lon="-0.36592">
        <ele>46.6793</ele>
        <time>2011-07-03T13:29:02Z</time>
      </trkpt>
      <trkpt lat="46.28772" lon="-0.3659">
        <ele>46.69</ele>
        <time>2011-07-03T13:29:03Z</time>
      </trkpt>
      <trkpt lat="46.28772" lon="-0.36588">
        <ele>46.6989</ele>
        <time>2011-07-03T13:29:04Z</time>
      </trkpt>
      <trkpt lat="46.28772" lon="-0.36586">
        <ele>46.7094</ele>
        <time>2011-07-03T13:29:05Z</time>
      </trkpt>
      <trkpt lat="46.28771" lon="-0.36584">
        <ele>46.7252</ele>
        <time>2011-07-03T13:29:06Z</time>
      </trkpt>
      <trkpt lat="46.28771" lon="-0.36583">
        <ele>46.7397</ele>
        <time>2011-07-03T13:29:07Z</time>
      </trkpt>
      <trkpt lat="46.28771" lon="-0.36581">
        <ele>46.753</ele>
        <time>2011-07-03T13:29:08Z</time>
      </trkpt>
      <trkpt lat="46.2877" lon="-0.36579">
        <ele>46.7656</ele>
        <time>2011-07-03T13:29:09Z</time>
      </trkpt>
      <trkpt lat="46.2877" lon="-0.36577">
        <ele>46.7783</ele>
        <time>2011-07-03T13:29:10Z</time>
      </trkpt>
      <trkpt lat="46.2877" lon="-0.36575">
        <ele>46.7891</ele>
        <time>2011-07-03T13:29:11Z</time>
      </trkpt>
      <trkpt lat="46.2877" lon="-0.36573">
        <ele>46.8002</ele>
        <time>2011-07-03T13:29:12Z</time>
      </trkpt>
      <trkpt lat="46.2877" lon="-0.36571">
        <ele>46.8111</ele>
        <time>2011-07-03T13:29:13Z</time>
      </trkpt>
      <trkpt lat="46.28769" lon="-0.36569">
        <ele>46.8221</ele>
        <time>2011-07-03T13:29:14Z</time>
      </trkpt>
      <trkpt lat="46.28769" lon="-0.36568">
        <ele>46.8327</ele>
        <time>2011-07-03T13:29:15Z</time>
      </trkpt>
      <trkpt lat="46.28769" lon="-0.36566">
        <ele>46.8413</ele>
        <time>2011-07-03T13:29:16Z</time>
      </trkpt>
      <trkpt lat="46.28769" lon="-0.36565">
        <ele>46.8527</ele>
        <time>2011-07-03T13:29:17Z</time>
      </trkpt>
      <trkpt lat="46.28768" lon="-0.36563">
        <ele>46.8627</ele>
        <time>2011-07-03T13:29:18Z</time>
      </trkpt>
      <trkpt lat="46.28768" lon="-0.36562">
        <ele>46.8799</ele>
        <time>2011-07-03T13:29:19Z</time>
      </trkpt>
      <trkpt lat="46.28768" lon="-0.3656">
        <ele>46.9044</ele>
        <time>2011-07-03T13:29:20Z</time>
      </trkpt>
      <trkpt lat="46.28767" lon="-0.36558">
        <ele>46.9271</ele>
        <time>2011-07-03T13:29:21Z</time>
      </trkpt>
      <trkpt lat="46.28767" lon="-0.36556">
        <ele>46.9498</ele>
        <time>2011-07-03T13:29:22Z</time>
      </trkpt>
      <trkpt lat="46.28767" lon="-0.36554">
        <ele>46.9711</ele>
        <time>2011-07-03T13:29:23Z</time>
      </trkpt>
      <trkpt lat="46.28767" lon="-0.36552">
        <ele>46.9913</ele>
        <time>2011-07-03T13:29:24Z</time>
      </trkpt>
      <trkpt lat="46.28766" lon="-0.3655">
        <ele>47.011</ele>
        <time>2011-07-03T13:29:25Z</time>
      </trkpt>
      <trkpt lat="46.28766" lon="-0.36548">
        <ele>47.0305</ele>
        <time>2011-07-03T13:29:26Z</time>
      </trkpt>
      <trkpt lat="46.28766" lon="-0.36546">
        <ele>47.0503</ele>
        <time>2011-07-03T13:29:27Z</time>
      </trkpt>
      <trkpt lat="46.28766" lon="-0.36544">
        <ele>47.0696</ele>
        <time>2011-07-03T13:29:28Z</time>
      </trkpt>
      <trkpt lat="46.28766" lon="-0.36542">
        <ele>47.0894</ele>
        <time>2011-07-03T13:29:29Z</time>
      </trkpt>
      <trkpt lat="46.28765" lon="-0.3654">
        <ele>47.1084</ele>
        <time>2011-07-03T13:29:30Z</time>
      </trkpt>
      <trkpt lat="46.28765" lon="-0.36539">
        <ele>47.1276</ele>
        <time>2011-07-03T13:29:31Z</time>
      </trkpt>
      <trkpt lat="46.28765" lon="-0.36537">
        <ele>47.146</ele>
        <time>2011-07-03T13:29:32Z</time>
      </trkpt>
      <trkpt lat="46.28764" lon="-0.36535">
        <ele>47.162</ele>
        <time>2011-07-03T13:29:33Z</time>
      </trkpt>
      <trkpt lat="46.28764" lon="-0.36534">
        <ele>47.1756</ele>
        <time>2011-07-03T13:29:34Z</time>
      </trkpt>
      <trkpt lat="46.28763" lon="-0.36532">
        <ele>47.1861</ele>
        <time>2011-07-03T13:29:35Z</time>
      </trkpt>
      <trkpt lat="46.28763" lon="-0.3653">
        <ele>47.1931</ele>
        <time>2011-07-03T13:29:36Z</time>
      </trkpt>
      <trkpt lat="46.28763" lon="-0.36528">
        <ele>47.1996</ele>
        <time>2011-07-03T13:29:37Z</time>
      </trkpt>
      <trkpt lat="46.28762" lon="-0.36526">
        <ele>47.205</ele>
        <time>2011-07-03T13:29:38Z</time>
      </trkpt>
      <trkpt lat="46.28762" lon="-0.36524">
        <ele>47.2095</ele>
        <time>2011-07-03T13:29:39Z</time>
      </trkpt>
      <trkpt lat="46.28762" lon="-0.36522">
        <ele>47.2089</ele>
        <time>2011-07-03T13:29:40Z</time>
      </trkpt>
      <trkpt lat="46.28761" lon="-0.36521">
        <ele>47.2072</ele>
        <time>2011-07-03T13:29:41Z</time>
      </trkpt>
      <trkpt lat="46.28761" lon="-0.36519">
        <ele>47.2061</ele>
        <time>2011-07-03T13:29:42Z</time>
      </trkpt>
      <trkpt lat="46.28761" lon="-0.36518">
        <ele>47.2024</ele>
        <time>2011-07-03T13:29:43Z</time>
      </trkpt>
      <trkpt lat="46.2876" lon="-0.36516">
        <ele>47.2009</ele>
        <time>2011-07-03T13:29:44Z</time>
      </trkpt>
      <trkpt lat="46.28759" lon="-0.36514">
        <ele>47.1978</ele>
        <time>2011-07-03T13:29:45Z</time>
      </trkpt>
      <trkpt lat="46.28759" lon="-0.36513">
        <ele>47.1938</ele>
        <time>2011-07-03T13:29:46Z</time>
      </trkpt>
      <trkpt lat="46.28759" lon="-0.36511">
        <ele>47.1909</ele>
        <time>2011-07-03T13:29:47Z</time>
      </trkpt>
      <trkpt lat="46.28758" lon="-0.36509">
        <ele>47.1875</ele>
        <time>2011-07-03T13:29:48Z</time>
      </trkpt>
      <trkpt lat="46.28758" lon="-0.36508">
        <ele>47.1826</ele>
        <time>2011-07-03T13:29:49Z</time>
      </trkpt>
      <trkpt lat="46.28758" lon="-0.36506">
        <ele>47.1784</ele>
        <time>2011-07-03T13:29:50Z</time>
      </trkpt>
      <trkpt lat="46.28757" lon="-0.36505">
        <ele>47.1722</ele>
        <time>2011-07-03T13:29:51Z</time>
      </trkpt>
      <trkpt lat="46.28757" lon="-0.36503">
        <ele>47.1691</ele>
        <time>2011-07-03T13:29:52Z</time>
      </trkpt>
      <trkpt lat="46.28757" lon="-0.36501">
        <ele>47.1536</ele>
        <time>2011-07-03T13:29:53Z</time>
      </trkpt>
      <trkpt lat="46.28756" lon="-0.365">
        <ele>47.1285</ele>
        <time>2011-07-03T13:29:54Z</time>
      </trkpt>
      <trkpt lat="46.28756" lon="-0.36498">
        <ele>47.0973</ele>
        <time>2011-07-03T13:29:55Z</time>
      </trkpt>
      <trkpt lat="46.28755" lon="-0.36497">
        <ele>47.0617</ele>
        <time>2011-07-03T13:29:56Z</time>
      </trkpt>
      <trkpt lat="46.28754" lon="-0.36495">
        <ele>47.0241</ele>
        <time>2011-07-03T13:29:57Z</time>
      </trkpt>
      <trkpt lat="46.28754" lon="-0.36493">
        <ele>46.99</ele>
        <time>2011-07-03T13:29:58Z</time>
      </trkpt>
      <trkpt lat="46.28753" lon="-0.36492">
        <ele>46.959</ele>
        <time>2011-07-03T13:29:59Z</time>
      </trkpt>
      <trkpt lat="46.28753" lon="-0.3649">
        <ele>46.9247</ele>
        <time>2011-07-03T13:30:00Z</time>
      </trkpt>
      <trkpt lat="46.28752" lon="-0.36488">
        <ele>46.889</ele>
        <time>2011-07-03T13:30:01Z</time>
      </trkpt>
      <trkpt lat="46.28752" lon="-0.36486">
        <ele>46.8535</ele>
        <time>2011-07-03T13:30:02Z</time>
      </trkpt>
      <trkpt lat="46.28751" lon="-0.36484">
        <ele>46.8189</ele>
        <time>2011-07-03T13:30:03Z</time>
      </trkpt>
      <trkpt lat="46.2875" lon="-0.36482">
        <ele>46.7842</ele>
        <time>2011-07-03T13:30:04Z</time>
      </trkpt>
      <trkpt lat="46.2875" lon="-0.3648">
        <ele>46.7509</ele>
        <time>2011-07-03T13:30:05Z</time>
      </trkpt>
      <trkpt lat="46.2875" lon="-0.36478">
        <ele>46.7183</ele>
        <time>2011-07-03T13:30:06Z</time>
      </trkpt>
      <trkpt lat="46.28749" lon="-0.36476">
        <ele>46.6895</ele>
        <time>2011-07-03T13:30:07Z</time>
      </trkpt>
      <trkpt lat="46.28748" lon="-0.36475">
        <ele>46.6597</ele>
        <time>2011-07-03T13:30:08Z</time>
      </trkpt>
      <trkpt lat="46.28748" lon="-0.36473">
        <ele>46.6312</ele>
        <time>2011-07-03T13:30:09Z</time>
      </trkpt>
      <trkpt lat="46.28747" lon="-0.36472">
        <ele>46.603</ele>
        <time>2011-07-03T13:30:10Z</time>
      </trkpt>
      <trkpt lat="46.28747" lon="-0.3647">
        <ele>46.5759</ele>
        <time>2011-07-03T13:30:11Z</time>
      </trkpt>
      <trkpt lat="46.28746" lon="-0.36469">
        <ele>46.5511</ele>
        <time>2011-07-03T13:30:12Z</time>
      </trkpt>
      <trkpt lat="46.28746" lon="-0.36467">
        <ele>46.5269</ele>
        <time>2011-07-03T13:30:13Z</time>
      </trkpt>
      <trkpt lat="46.28745" lon="-0.36466">
        <ele>46.5051</ele>
        <time>2011-07-03T13:30:14Z</time>
      </trkpt>
      <trkpt lat="46.28745" lon="-0.36464">
        <ele>46.484</ele>
        <time>2011-07-03T13:30:15Z</time>
      </trkpt>
      <trkpt lat="46.28744" lon="-0.36463">
        <ele>46.4652</ele>
        <time>2011-07-03T13:30:16Z</time>
      </trkpt>
      <trkpt lat="46.28744" lon="-0.36461">
        <ele>46.4478</ele>
        <time>2011-07-03T13:30:17Z</time>
      </trkpt>
      <trkpt lat="46.28743" lon="-0.36459">
        <ele>46.431</ele>
        <time>2011-07-03T13:30:18Z</time>
      </trkpt>
      <trkpt lat="46.28742" lon="-0.36457">
        <ele>46.4133</ele>
        <time>2011-07-03T13:30:19Z</time>
      </trkpt>
      <trkpt lat="46.28742" lon="-0.36455">
        <ele>46.3954</ele>
        <time>2011-07-03T13:30:20Z</time>
      </trkpt>
      <trkpt lat="46.28741" lon="-0.36453">
        <ele>46.3797</ele>
        <time>2011-07-03T13:30:21Z</time>
      </trkpt>
      <trkpt lat="46.28741" lon="-0.36451">
        <ele>46.3662</ele>
        <time>2011-07-03T13:30:22Z</time>
      </trkpt>
      <trkpt lat="46.2874" lon="-0.3645">
        <ele>46.3536</ele>
        <time>2011-07-03T13:30:23Z</time>
      </trkpt>
      <trkpt lat="46.28739" lon="-0.36448">
        <ele>46.3418</ele>
        <time>2011-07-03T13:30:24Z</time>
      </trkpt>
      <trkpt lat="46.28739" lon="-0.36447">
        <ele>46.3287</ele>
        <time>2011-07-03T13:30:25Z</time>
      </trkpt>
      <trkpt lat="46.28738" lon="-0.36444">
        <ele>46.3175</ele>
        <time>2011-07-03T13:30:26Z</time>
      </trkpt>
      <trkpt lat="46.28737" lon="-0.36441">
        <ele>46.3078</ele>
        <time>2011-07-03T13:30:27Z</time>
      </trkpt>
      <trkpt lat="46.28737" lon="-0.36439">
        <ele>46.2954</ele>
        <time>2011-07-03T13:30:28Z</time>
      </trkpt>
      <trkpt lat="46.28736" lon="-0.36437">
        <ele>46.2823</ele>
        <time>2011-07-03T13:30:29Z</time>
      </trkpt>
      <trkpt lat="46.28736" lon="-0.36435">
        <ele>46.2798</ele>
        <time>2011-07-03T13:30:30Z</time>
      </trkpt>
      <trkpt lat="46.28735" lon="-0.36433">
        <ele>46.2823</ele>
        <time>2011-07-03T13:30:31Z</time>
      </trkpt>
      <trkpt lat="46.28735" lon="-0.36431">
        <ele>46.2794</ele>
        <time>2011-07-03T13:30:32Z</time>
      </trkpt>
      <trkpt lat="46.28735" lon="-0.3643">
        <ele>46.2686</ele>
        <time>2011-07-03T13:30:33Z</time>
      </trkpt>
      <trkpt lat="46.28735" lon="-0.36428">
        <ele>46.2465</ele>
        <time>2011-07-03T13:30:34Z</time>
      </trkpt>
      <trkpt lat="46.28735" lon="-0.36426">
        <ele>46.2173</ele>
        <time>2011-07-03T13:30:35Z</time>
      </trkpt>
      <trkpt lat="46.28734" lon="-0.36424">
        <ele>46.1943</ele>
        <time>2011-07-03T13:30:36Z</time>
      </trkpt>
      <trkpt lat="46.28734" lon="-0.36423">
        <ele>46.1659</ele>
        <time>2011-07-03T13:30:37Z</time>
      </trkpt>
      <trkpt lat="46.28734" lon="-0.36421">
        <ele>46.1359</ele>
        <time>2011-07-03T13:30:38Z</time>
      </trkpt>
      <trkpt lat="46.28733" lon="-0.3642">
        <ele>46.1057</ele>
        <time>2011-07-03T13:30:39Z</time>
      </trkpt>
      <trkpt lat="46.28733" lon="-0.36418">
        <ele>46.0774</ele>
        <time>2011-07-03T13:30:40Z</time>
      </trkpt>
      <trkpt lat="46.28733" lon="-0.36416">
        <ele>46.0513</ele>
        <time>2011-07-03T13:30:41Z</time>
      </trkpt>
      <trkpt lat="46.28732" lon="-0.36414">
        <ele>46.0236</ele>
        <time>2011-07-03T13:30:42Z</time>
      </trkpt>
      <trkpt lat="46.28732" lon="-0.36413">
        <ele>45.9949</ele>
        <time>2011-07-03T13:30:43Z</time>
      </trkpt>
      <trkpt lat="46.28731" lon="-0.36411">
        <ele>45.9695</ele>
        <time>2011-07-03T13:30:44Z</time>
      </trkpt>
      <trkpt lat="46.2873" lon="-0.36409">
        <ele>45.9437</ele>
        <time>2011-07-03T13:30:45Z</time>
      </trkpt>
      <trkpt lat="46.2873" lon="-0.36406">
        <ele>45.9183</ele>
        <time>2011-07-03T13:30:46Z</time>
      </trkpt>
      <trkpt lat="46.2873" lon="-0.36405">
        <ele>45.8978</ele>
        <time>2011-07-03T13:30:47Z</time>
      </trkpt>
      <trkpt lat="46.28729" lon="-0.36403">
        <ele>45.881</ele>
        <time>2011-07-03T13:30:48Z</time>
      </trkpt>
      <trkpt lat="46.28729" lon="-0.36401">
        <ele>45.8671</ele>
        <time>2011-07-03T13:30:49Z</time>
      </trkpt>
      <trkpt lat="46.28729" lon="-0.364">
        <ele>45.8557</ele>
        <time>2011-07-03T13:30:50Z</time>
      </trkpt>
      <trkpt lat="46.28728" lon="-0.36398">
        <ele>45.8443</ele>
        <time>2011-07-03T13:30:51Z</time>
      </trkpt>
      <trkpt lat="46.28728" lon="-0.36396">
        <ele>45.8343</ele>
        <time>2011-07-03T13:30:52Z</time>
      </trkpt>
      <trkpt lat="46.28727" lon="-0.36394">
        <ele>45.8263</ele>
        <time>2011-07-03T13:30:53Z</time>
      </trkpt>
      <trkpt lat="46.28727" lon="-0.36392">
        <ele>45.8195</ele>
        <time>2011-07-03T13:30:54Z</time>
      </trkpt>
      <trkpt lat="46.28726" lon="-0.36391">
        <ele>45.8139</ele>
        <time>2011-07-03T13:30:55Z</time>
      </trkpt>
      <trkpt lat="46.28725" lon="-0.36389">
        <ele>45.8082</ele>
        <time>2011-07-03T13:30:56Z</time>
      </trkpt>
      <trkpt lat="46.28725" lon="-0.36387">
        <ele>45.8028</ele>
        <time>2011-07-03T13:30:57Z</time>
      </trkpt>
      <trkpt lat="46.28725" lon="-0.36386">
        <ele>45.7961</ele>
        <time>2011-07-03T13:30:58Z</time>
      </trkpt>
      <trkpt lat="46.28725" lon="-0.36384">
        <ele>45.7887</ele>
        <time>2011-07-03T13:30:59Z</time>
      </trkpt>
      <trkpt lat="46.28724" lon="-0.36382">
        <ele>45.7822</ele>
        <time>2011-07-03T13:31:00Z</time>
      </trkpt>
      <trkpt lat="46.28724" lon="-0.3638">
        <ele>45.7727</ele>
        <time>2011-07-03T13:31:01Z</time>
      </trkpt>
      <trkpt lat="46.28724" lon="-0.36378">
        <ele>45.7618</ele>
        <time>2011-07-03T13:31:02Z</time>
      </trkpt>
      <trkpt lat="46.28724" lon="-0.36376">
        <ele>45.7618</ele>
        <time>2011-07-03T13:31:03Z</time>
      </trkpt>
      <trkpt lat="46.28723" lon="-0.36374">
        <ele>45.7509</ele>
        <time>2011-07-03T13:31:04Z</time>
      </trkpt>
      <trkpt lat="46.28723" lon="-0.36373">
        <ele>45.74</ele>
        <time>2011-07-03T13:31:05Z</time>
      </trkpt>
      <trkpt lat="46.28722" lon="-0.36371">
        <ele>45.7356</ele>
        <time>2011-07-03T13:31:06Z</time>
      </trkpt>
      <trkpt lat="46.28722" lon="-0.36369">
        <ele>45.7344</ele>
        <time>2011-07-03T13:31:07Z</time>
      </trkpt>
      <trkpt lat="46.28722" lon="-0.36368">
        <ele>45.7356</ele>
        <time>2011-07-03T13:31:08Z</time>
      </trkpt>
      <trkpt lat="46.28721" lon="-0.36366">
        <ele>45.7367</ele>
        <time>2011-07-03T13:31:09Z</time>
      </trkpt>
      <trkpt lat="46.28721" lon="-0.36365">
        <ele>45.7393</ele>
        <time>2011-07-03T13:31:10Z</time>
      </trkpt>
      <trkpt lat="46.2872" lon="-0.36363">
        <ele>45.7445</ele>
        <time>2011-07-03T13:31:11Z</time>
      </trkpt>
      <trkpt lat="46.28719" lon="-0.36362">
        <ele>45.751</ele>
        <time>2011-07-03T13:31:12Z</time>
      </trkpt>
      <trkpt lat="46.28719" lon="-0.3636">
        <ele>45.7574</ele>
        <time>2011-07-03T13:31:13Z</time>
      </trkpt>
      <trkpt lat="46.28718" lon="-0.36358">
        <ele>45.7669</ele>
        <time>2011-07-03T13:31:14Z</time>
      </trkpt>
      <trkpt lat="46.28718" lon="-0.36357">
        <ele>45.7785</ele>
        <time>2011-07-03T13:31:15Z</time>
      </trkpt>
      <trkpt lat="46.28717" lon="-0.36355">
        <ele>45.7915</ele>
        <time>2011-07-03T13:31:16Z</time>
      </trkpt>
      <trkpt lat="46.28717" lon="-0.36353">
        <ele>45.8053</ele>
        <time>2011-07-03T13:31:17Z</time>
      </trkpt>
      <trkpt lat="46.28716" lon="-0.36351">
        <ele>45.8121</ele>
        <time>2011-07-03T13:31:18Z</time>
      </trkpt>
      <trkpt lat="46.28716" lon="-0.36349">
        <ele>45.8196</ele>
        <time>2011-07-03T13:31:19Z</time>
      </trkpt>
      <trkpt lat="46.28715" lon="-0.36348">
        <ele>45.8277</ele>
        <time>2011-07-03T13:31:20Z</time>
      </trkpt>
      <trkpt lat="46.28714" lon="-0.36346">
        <ele>45.8357</ele>
        <time>2011-07-03T13:31:21Z</time>
      </trkpt>
      <trkpt lat="46.28713" lon="-0.36345">
        <ele>45.8422</ele>
        <time>2011-07-03T13:31:22Z</time>
      </trkpt>
      <trkpt lat="46.28713" lon="-0.36343">
        <ele>45.8438</ele>
        <time>2011-07-03T13:31:23Z</time>
      </trkpt>
      <trkpt lat="46.28712" lon="-0.36341">
        <ele>45.8465</ele>
        <time>2011-07-03T13:31:24Z</time>
      </trkpt>
      <trkpt lat="46.28712" lon="-0.36339">
        <ele>45.8486</ele>
        <time>2011-07-03T13:31:25Z</time>
      </trkpt>
      <trkpt lat="46.28711" lon="-0.36337">
        <ele>45.8503</ele>
        <time>2011-07-03T13:31:26Z</time>
      </trkpt>
      <trkpt lat="46.28711" lon="-0.36336">
        <ele>45.853</ele>
        <time>2011-07-03T13:31:27Z</time>
      </trkpt>
      <trkpt lat="46.2871" lon="-0.36334">
        <ele>45.8519</ele>
        <time>2011-07-03T13:31:28Z</time>
      </trkpt>
      <trkpt lat="46.2871" lon="-0.36332">
        <ele>45.8561</ele>
        <time>2011-07-03T13:31:29Z</time>
      </trkpt>
      <trkpt lat="46.28709" lon="-0.36331">
        <ele>45.86</ele>
        <time>2011-07-03T13:31:30Z</time>
      </trkpt>
      <trkpt lat="46.28709" lon="-0.36329">
        <ele>45.8672</ele>
        <time>2011-07-03T13:31:31Z</time>
      </trkpt>
      <trkpt lat="46.28709" lon="-0.36327">
        <ele>45.8758</ele>
        <time>2011-07-03T13:31:32Z</time>
      </trkpt>
      <trkpt lat="46.28709" lon="-0.36325">
        <ele>45.8932</ele>
        <time>2011-07-03T13:31:33Z</time>
      </trkpt>
      <trkpt lat="46.28709" lon="-0.36324">
        <ele>45.9175</ele>
        <time>2011-07-03T13:31:34Z</time>
      </trkpt>
      <trkpt lat="46.28708" lon="-0.36322">
        <ele>45.944</ele>
        <time>2011-07-03T13:31:35Z</time>
      </trkpt>
      <trkpt lat="46.28708" lon="-0.36321">
        <ele>45.9708</ele>
        <time>2011-07-03T13:31:36Z</time>
      </trkpt>
      <trkpt lat="46.28708" lon="-0.36319">
        <ele>45.9991</ele>
        <time>2011-07-03T13:31:37Z</time>
      </trkpt>
      <trkpt lat="46.28707" lon="-0.36318">
        <ele>46.0288</ele>
        <time>2011-07-03T13:31:38Z</time>
      </trkpt>
      <trkpt lat="46.28707" lon="-0.36316">
        <ele>46.0605</ele>
        <time>2011-07-03T13:31:39Z</time>
      </trkpt>
      <trkpt lat="46.28706" lon="-0.36314">
        <ele>46.0919</ele>
        <time>2011-07-03T13:31:40Z</time>
      </trkpt>
      <trkpt lat="46.28706" lon="-0.36313">
        <ele>46.1254</ele>
        <time>2011-07-03T13:31:41Z</time>
      </trkpt>
      <trkpt lat="46.28705" lon="-0.36311">
        <ele>46.1582</ele>
        <time>2011-07-03T13:31:42Z</time>
      </trkpt>
      <trkpt lat="46.28705" lon="-0.3631">
        <ele>46.1902</ele>
        <time>2011-07-03T13:31:43Z</time>
      </trkpt>
      <trkpt lat="46.28704" lon="-0.36308">
        <ele>46.2209</ele>
        <time>2011-07-03T13:31:44Z</time>
      </trkpt>
      <trkpt lat="46.28704" lon="-0.36306">
        <ele>46.2512</ele>
        <time>2011-07-03T13:31:45Z</time>
      </trkpt>
      <trkpt lat="46.28703" lon="-0.36304">
        <ele>46.2803</ele>
        <time>2011-07-03T13:31:46Z</time>
      </trkpt>
      <trkpt lat="46.28703" lon="-0.36302">
        <ele>46.3086</ele>
        <time>2011-07-03T13:31:47Z</time>
      </trkpt>
      <trkpt lat="46.28702" lon="-0.36301">
        <ele>46.3361</ele>
        <time>2011-07-03T13:31:48Z</time>
      </trkpt>
      <trkpt lat="46.28702" lon="-0.36299">
        <ele>46.3607</ele>
        <time>2011-07-03T13:31:49Z</time>
      </trkpt>
      <trkpt lat="46.28701" lon="-0.36297">
        <ele>46.3856</ele>
        <time>2011-07-03T13:31:50Z</time>
      </trkpt>
      <trkpt lat="46.28701" lon="-0.36295">
        <ele>46.3856</ele>
        <time>2011-07-03T13:31:51Z</time>
      </trkpt>
      <trkpt lat="46.287" lon="-0.36294">
        <ele>46.409</ele>
        <time>2011-07-03T13:31:52Z</time>
      </trkpt>
      <trkpt lat="46.287" lon="-0.36292">
        <ele>46.4265</ele>
        <time>2011-07-03T13:31:53Z</time>
      </trkpt>
      <trkpt lat="46.28699" lon="-0.3629">
        <ele>46.4396</ele>
        <time>2011-07-03T13:31:54Z</time>
      </trkpt>
      <trkpt lat="46.28698" lon="-0.36288">
        <ele>46.4492</ele>
        <time>2011-07-03T13:31:55Z</time>
      </trkpt>
      <trkpt lat="46.28698" lon="-0.36286">
        <ele>46.4567</ele>
        <time>2011-07-03T13:31:56Z</time>
      </trkpt>
      <trkpt lat="46.28697" lon="-0.36284">
        <ele>46.467</ele>
        <time>2011-07-03T13:31:57Z</time>
      </trkpt>
      <trkpt lat="46.28696" lon="-0.36282">
        <ele>46.4821</ele>
        <time>2011-07-03T13:31:58Z</time>
      </trkpt>
      <trkpt lat="46.28696" lon="-0.3628">
        <ele>46.4961</ele>
        <time>2011-07-03T13:31:59Z</time>
      </trkpt>
      <trkpt lat="46.28696" lon="-0.36278">
        <ele>46.5123</ele>
        <time>2011-07-03T13:32:00Z</time>
      </trkpt>
      <trkpt lat="46.28695" lon="-0.36277">
        <ele>46.5288</ele>
        <time>2011-07-03T13:32:01Z</time>
      </trkpt>
      <trkpt lat="46.28695" lon="-0.36275">
        <ele>46.5446</ele>
        <time>2011-07-03T13:32:02Z</time>
      </trkpt>
      <trkpt lat="46.28694" lon="-0.36273">
        <ele>46.5618</ele>
        <time>2011-07-03T13:32:03Z</time>
      </trkpt>
      <trkpt lat="46.28694" lon="-0.36272">
        <ele>46.5784</ele>
        <time>2011-07-03T13:32:04Z</time>
      </trkpt>
      <trkpt lat="46.28693" lon="-0.3627">
        <ele>46.594</ele>
        <time>2011-07-03T13:32:05Z</time>
      </trkpt>
      <trkpt lat="46.28693" lon="-0.36268">
        <ele>46.6113</ele>
        <time>2011-07-03T13:32:06Z</time>
      </trkpt>
      <trkpt lat="46.28692" lon="-0.36267">
        <ele>46.6294</ele>
        <time>2011-07-03T13:32:07Z</time>
      </trkpt>
      <trkpt lat="46.28692" lon="-0.36266">
        <ele>46.647</ele>
        <time>2011-07-03T13:32:08Z</time>
      </trkpt>
      <trkpt lat="46.28691" lon="-0.36264">
        <ele>46.662</ele>
        <time>2011-07-03T13:32:09Z</time>
      </trkpt>
      <trkpt lat="46.28691" lon="-0.36263">
        <ele>46.6752</ele>
        <time>2011-07-03T13:32:10Z</time>
      </trkpt>
      <trkpt lat="46.2869" lon="-0.36261">
        <ele>46.6857</ele>
        <time>2011-07-03T13:32:11Z</time>
      </trkpt>
      <trkpt lat="46.2869" lon="-0.3626">
        <ele>46.6969</ele>
        <time>2011-07-03T13:32:12Z</time>
      </trkpt>
      <trkpt lat="46.28689" lon="-0.36258">
        <ele>46.708</ele>
        <time>2011-07-03T13:32:13Z</time>
      </trkpt>
      <trkpt lat="46.28688" lon="-0.36256">
        <ele>46.7187</ele>
        <time>2011-07-03T13:32:14Z</time>
      </trkpt>
      <trkpt lat="46.28688" lon="-0.36255">
        <ele>46.7289</ele>
        <time>2011-07-03T13:32:15Z</time>
      </trkpt>
      <trkpt lat="46.28687" lon="-0.36253">
        <ele>46.7374</ele>
        <time>2011-07-03T13:32:16Z</time>
      </trkpt>
      <trkpt lat="46.28687" lon="-0.36251">
        <ele>46.745</ele>
        <time>2011-07-03T13:32:17Z</time>
      </trkpt>
      <trkpt lat="46.28686" lon="-0.3625">
        <ele>46.7521</ele>
        <time>2011-07-03T13:32:18Z</time>
      </trkpt>
      <trkpt lat="46.28685" lon="-0.36248">
        <ele>46.759</ele>
        <time>2011-07-03T13:32:19Z</time>
      </trkpt>
      <trkpt lat="46.28685" lon="-0.36247">
        <ele>46.7662</ele>
        <time>2011-07-03T13:32:20Z</time>
      </trkpt>
      <trkpt lat="46.28684" lon="-0.36246">
        <ele>46.774</ele>
        <time>2011-07-03T13:32:21Z</time>
      </trkpt>
      <trkpt lat="46.28684" lon="-0.36244">
        <ele>46.7821</ele>
        <time>2011-07-03T13:32:22Z</time>
      </trkpt>
      <trkpt lat="46.28684" lon="-0.36243">
        <ele>46.7898</ele>
        <time>2011-07-03T13:32:23Z</time>
      </trkpt>
      <trkpt lat="46.28683" lon="-0.36242">
        <ele>46.7966</ele>
        <time>2011-07-03T13:32:24Z</time>
      </trkpt>
      <trkpt lat="46.28683" lon="-0.3624">
        <ele>46.8006</ele>
        <time>2011-07-03T13:32:25Z</time>
      </trkpt>
      <trkpt lat="46.28682" lon="-0.36239">
        <ele>46.801</ele>
        <time>2011-07-03T13:32:26Z</time>
      </trkpt>
      <trkpt lat="46.28682" lon="-0.36237">
        <ele>46.8005</ele>
        <time>2011-07-03T13:32:27Z</time>
      </trkpt>
      <trkpt lat="46.28682" lon="-0.36235">
        <ele>46.7995</ele>
        <time>2011-07-03T13:32:28Z</time>
      </trkpt>
      <trkpt lat="46.28681" lon="-0.36233">
        <ele>46.7987</ele>
        <time>2011-07-03T13:32:29Z</time>
      </trkpt>
      <trkpt lat="46.2868" lon="-0.36232">
        <ele>46.7996</ele>
        <time>2011-07-03T13:32:30Z</time>
      </trkpt>
      <trkpt lat="46.2868" lon="-0.3623">
        <ele>46.7966</ele>
        <time>2011-07-03T13:32:31Z</time>
      </trkpt>
      <trkpt lat="46.28679" lon="-0.36229">
        <ele>46.7937</ele>
        <time>2011-07-03T13:32:32Z</time>
      </trkpt>
      <trkpt lat="46.28679" lon="-0.36227">
        <ele>46.791</ele>
        <time>2011-07-03T13:32:33Z</time>
      </trkpt>
      <trkpt lat="46.28678" lon="-0.36226">
        <ele>46.7882</ele>
        <time>2011-07-03T13:32:34Z</time>
      </trkpt>
      <trkpt lat="46.28678" lon="-0.36225">
        <ele>46.786</ele>
        <time>2011-07-03T13:32:35Z</time>
      </trkpt>
      <trkpt lat="46.28677" lon="-0.36223">
        <ele>46.7838</ele>
        <time>2011-07-03T13:32:36Z</time>
      </trkpt>
      <trkpt lat="46.28677" lon="-0.36222">
        <ele>46.7829</ele>
        <time>2011-07-03T13:32:37Z</time>
      </trkpt>
      <trkpt lat="46.28676" lon="-0.3622">
        <ele>46.7843</ele>
        <time>2011-07-03T13:32:38Z</time>
      </trkpt>
      <trkpt lat="46.28676" lon="-0.36219">
        <ele>46.7855</ele>
        <time>2011-07-03T13:32:39Z</time>
      </trkpt>
      <trkpt lat="46.28675" lon="-0.36217">
        <ele>46.786</ele>
        <time>2011-07-03T13:32:40Z</time>
      </trkpt>
      <trkpt lat="46.28674" lon="-0.36215">
        <ele>46.786</ele>
        <time>2011-07-03T13:32:41Z</time>
      </trkpt>
      <trkpt lat="46.28674" lon="-0.36213">
        <ele>46.7847</ele>
        <time>2011-07-03T13:32:42Z</time>
      </trkpt>
      <trkpt lat="46.28673" lon="-0.36211">
        <ele>46.7818</ele>
        <time>2011-07-03T13:32:43Z</time>
      </trkpt>
      <trkpt lat="46.28673" lon="-0.36209">
        <ele>46.7787</ele>
        <time>2011-07-03T13:32:44Z</time>
      </trkpt>
      <trkpt lat="46.28672" lon="-0.36207">
        <ele>46.7757</ele>
        <time>2011-07-03T13:32:45Z</time>
      </trkpt>
      <trkpt lat="46.28672" lon="-0.36205">
        <ele>46.7723</ele>
        <time>2011-07-03T13:32:46Z</time>
      </trkpt>
      <trkpt lat="46.28671" lon="-0.36203">
        <ele>46.7691</ele>
        <time>2011-07-03T13:32:47Z</time>
      </trkpt>
      <trkpt lat="46.28671" lon="-0.36201">
        <ele>46.7639</ele>
        <time>2011-07-03T13:32:48Z</time>
      </trkpt>
      <trkpt lat="46.28671" lon="-0.362">
        <ele>46.765</ele>
        <time>2011-07-03T13:32:49Z</time>
      </trkpt>
      <trkpt lat="46.2867" lon="-0.36198">
        <ele>46.7712</ele>
        <time>2011-07-03T13:32:50Z</time>
      </trkpt>
      <trkpt lat="46.2867" lon="-0.36196">
        <ele>46.7834</ele>
        <time>2011-07-03T13:32:51Z</time>
      </trkpt>
      <trkpt lat="46.28669" lon="-0.36195">
        <ele>46.8019</ele>
        <time>2011-07-03T13:32:52Z</time>
      </trkpt>
      <trkpt lat="46.28669" lon="-0.36193">
        <ele>46.8209</ele>
        <time>2011-07-03T13:32:53Z</time>
      </trkpt>
      <trkpt lat="46.28669" lon="-0.36192">
        <ele>46.844</ele>
        <time>2011-07-03T13:32:54Z</time>
      </trkpt>
      <trkpt lat="46.28668" lon="-0.3619">
        <ele>46.8659</ele>
        <time>2011-07-03T13:32:55Z</time>
      </trkpt>
      <trkpt lat="46.28668" lon="-0.36188">
        <ele>46.8926</ele>
        <time>2011-07-03T13:32:56Z</time>
      </trkpt>
      <trkpt lat="46.28668" lon="-0.36186">
        <ele>46.9176</ele>
        <time>2011-07-03T13:32:57Z</time>
      </trkpt>
      <trkpt lat="46.28667" lon="-0.36183">
        <ele>46.9413</ele>
        <time>2011-07-03T13:32:58Z</time>
      </trkpt>
      <trkpt lat="46.28667" lon="-0.36181">
        <ele>46.9646</ele>
        <time>2011-07-03T13:32:59Z</time>
      </trkpt>
      <trkpt lat="46.28667" lon="-0.36179">
        <ele>46.987</ele>
        <time>2011-07-03T13:33:00Z</time>
      </trkpt>
      <trkpt lat="46.28666" lon="-0.36177">
        <ele>47.0093</ele>
        <time>2011-07-03T13:33:01Z</time>
      </trkpt>
      <trkpt lat="46.28666" lon="-0.36175">
        <ele>47.0318</ele>
        <time>2011-07-03T13:33:02Z</time>
      </trkpt>
      <trkpt lat="46.28666" lon="-0.36174">
        <ele>47.0546</ele>
        <time>2011-07-03T13:33:03Z</time>
      </trkpt>
      <trkpt lat="46.28665" lon="-0.36172">
        <ele>47.077</ele>
        <time>2011-07-03T13:33:04Z</time>
      </trkpt>
      <trkpt lat="46.28665" lon="-0.3617">
        <ele>47.0992</ele>
        <time>2011-07-03T13:33:05Z</time>
      </trkpt>
      <trkpt lat="46.28664" lon="-0.36168">
        <ele>47.1207</ele>
        <time>2011-07-03T13:33:06Z</time>
      </trkpt>
      <trkpt lat="46.28664" lon="-0.36166">
        <ele>47.1414</ele>
        <time>2011-07-03T13:33:07Z</time>
      </trkpt>
      <trkpt lat="46.28663" lon="-0.36164">
        <ele>47.1616</ele>
        <time>2011-07-03T13:33:08Z</time>
      </trkpt>
      <trkpt lat="46.28663" lon="-0.36162">
        <ele>47.181</ele>
        <time>2011-07-03T13:33:09Z</time>
      </trkpt>
      <trkpt lat="46.28662" lon="-0.36161">
        <ele>47.2</ele>
        <time>2011-07-03T13:33:10Z</time>
      </trkpt>
      <trkpt lat="46.28662" lon="-0.36159">
        <ele>47.2187</ele>
        <time>2011-07-03T13:33:11Z</time>
      </trkpt>
      <trkpt lat="46.28661" lon="-0.36158">
        <ele>47.2371</ele>
        <time>2011-07-03T13:33:12Z</time>
      </trkpt>
      <trkpt lat="46.28661" lon="-0.36156">
        <ele>47.2538</ele>
        <time>2011-07-03T13:33:13Z</time>
      </trkpt>
      <trkpt lat="46.28661" lon="-0.36155">
        <ele>47.2683</ele>
        <time>2011-07-03T13:33:14Z</time>
      </trkpt>
      <trkpt lat="46.2866" lon="-0.36153">
        <ele>47.2784</ele>
        <time>2011-07-03T13:33:15Z</time>
      </trkpt>
      <trkpt lat="46.2866" lon="-0.36152">
        <ele>47.2848</ele>
        <time>2011-07-03T13:33:16Z</time>
      </trkpt>
      <trkpt lat="46.28659" lon="-0.3615">
        <ele>47.2914</ele>
        <time>2011-07-03T13:33:17Z</time>
      </trkpt>
      <trkpt lat="46.28659" lon="-0.36148">
        <ele>47.2988</ele>
        <time>2011-07-03T13:33:18Z</time>
      </trkpt>
      <trkpt lat="46.28659" lon="-0.36146">
        <ele>47.3061</ele>
        <time>2011-07-03T13:33:19Z</time>
      </trkpt>
      <trkpt lat="46.28658" lon="-0.36145">
        <ele>47.3132</ele>
        <time>2011-07-03T13:33:20Z</time>
      </trkpt>
      <trkpt lat="46.28657" lon="-0.36143">
        <ele>47.3186</ele>
        <time>2011-07-03T13:33:21Z</time>
      </trkpt>
      <trkpt lat="46.28657" lon="-0.36141">
        <ele>47.3239</ele>
        <time>2011-07-03T13:33:22Z</time>
      </trkpt>
      <trkpt lat="46.28656" lon="-0.3614">
        <ele>47.3288</ele>
        <time>2011-07-03T13:33:23Z</time>
      </trkpt>
      <trkpt lat="46.28655" lon="-0.36138">
        <ele>47.3336</ele>
        <time>2011-07-03T13:33:24Z</time>
      </trkpt>
      <trkpt lat="46.28655" lon="-0.36137">
        <ele>47.3372</ele>
        <time>2011-07-03T13:33:25Z</time>
      </trkpt>
      <trkpt lat="46.28654" lon="-0.36135">
        <ele>47.3395</ele>
        <time>2011-07-03T13:33:26Z</time>
      </trkpt>
      <trkpt lat="46.28653" lon="-0.36134">
        <ele>47.343</ele>
        <time>2011-07-03T13:33:27Z</time>
      </trkpt>
      <trkpt lat="46.28653" lon="-0.36132">
        <ele>47.3468</ele>
        <time>2011-07-03T13:33:28Z</time>
      </trkpt>
      <trkpt lat="46.28653" lon="-0.3613">
        <ele>47.351</ele>
        <time>2011-07-03T13:33:29Z</time>
      </trkpt>
      <trkpt lat="46.28652" lon="-0.36128">
        <ele>47.3549</ele>
        <time>2011-07-03T13:33:30Z</time>
      </trkpt>
      <trkpt lat="46.28651" lon="-0.36127">
        <ele>47.3576</ele>
        <time>2011-07-03T13:33:31Z</time>
      </trkpt>
      <trkpt lat="46.28651" lon="-0.36125">
        <ele>47.3596</ele>
        <time>2011-07-03T13:33:32Z</time>
      </trkpt>
      <trkpt lat="46.28651" lon="-0.36123">
        <ele>47.3617</ele>
        <time>2011-07-03T13:33:33Z</time>
      </trkpt>
      <trkpt lat="46.2865" lon="-0.36121">
        <ele>47.3655</ele>
        <time>2011-07-03T13:33:34Z</time>
      </trkpt>
      <trkpt lat="46.2865" lon="-0.3612">
        <ele>47.3672</ele>
        <time>2011-07-03T13:33:35Z</time>
      </trkpt>
      <trkpt lat="46.28649" lon="-0.36118">
        <ele>47.3673</ele>
        <time>2011-07-03T13:33:36Z</time>
      </trkpt>
      <trkpt lat="46.28649" lon="-0.36116">
        <ele>47.3659</ele>
        <time>2011-07-03T13:33:37Z</time>
      </trkpt>
      <trkpt lat="46.28648" lon="-0.36114">
        <ele>47.3619</ele>
        <time>2011-07-03T13:33:38Z</time>
      </trkpt>
      <trkpt lat="46.28648" lon="-0.36112">
        <ele>47.3568</ele>
        <time>2011-07-03T13:33:39Z</time>
      </trkpt>
      <trkpt lat="46.28647" lon="-0.3611">
        <ele>47.3501</ele>
        <time>2011-07-03T13:33:40Z</time>
      </trkpt>
      <trkpt lat="46.28647" lon="-0.36108">
        <ele>47.3432</ele>
        <time>2011-07-03T13:33:41Z</time>
      </trkpt>
      <trkpt lat="46.28646" lon="-0.36106">
        <ele>47.336</ele>
        <time>2011-07-03T13:33:42Z</time>
      </trkpt>
      <trkpt lat="46.28645" lon="-0.36104">
        <ele>47.3284</ele>
        <time>2011-07-03T13:33:43Z</time>
      </trkpt>
      <trkpt lat="46.28645" lon="-0.36103">
        <ele>47.321</ele>
        <time>2011-07-03T13:33:44Z</time>
      </trkpt>
      <trkpt lat="46.28645" lon="-0.36101">
        <ele>47.3135</ele>
        <time>2011-07-03T13:33:45Z</time>
      </trkpt>
      <trkpt lat="46.28644" lon="-0.36099">
        <ele>47.3064</ele>
        <time>2011-07-03T13:33:46Z</time>
      </trkpt>
      <trkpt lat="46.28643" lon="-0.36098">
        <ele>47.2982</ele>
        <time>2011-07-03T13:33:47Z</time>
      </trkpt>
      <trkpt lat="46.28643" lon="-0.36096">
        <ele>47.2914</ele>
        <time>2011-07-03T13:33:48Z</time>
      </trkpt>
      <trkpt lat="46.28643" lon="-0.36094">
        <ele>47.2808</ele>
        <time>2011-07-03T13:33:49Z</time>
      </trkpt>
      <trkpt lat="46.28642" lon="-0.36093">
        <ele>47.2703</ele>
        <time>2011-07-03T13:33:50Z</time>
      </trkpt>
      <trkpt lat="46.28642" lon="-0.36091">
        <ele>47.2592</ele>
        <time>2011-07-03T13:33:51Z</time>
      </trkpt>
      <trkpt lat="46.28641" lon="-0.36089">
        <ele>47.2495</ele>
        <time>2011-07-03T13:33:52Z</time>
      </trkpt>
      <trkpt lat="46.28641" lon="-0.36088">
        <ele>47.2392</ele>
        <time>2011-07-03T13:33:53Z</time>
      </trkpt>
      <trkpt lat="46.2864" lon="-0.36086">
        <ele>47.2307</ele>
        <time>2011-07-03T13:33:54Z</time>
      </trkpt>
      <trkpt lat="46.2864" lon="-0.36085">
        <ele>47.2233</ele>
        <time>2011-07-03T13:33:55Z</time>
      </trkpt>
      <trkpt lat="46.28639" lon="-0.36083">
        <ele>47.2152</ele>
        <time>2011-07-03T13:33:56Z</time>
      </trkpt>
      <trkpt lat="46.28639" lon="-0.36081">
        <ele>47.2093</ele>
        <time>2011-07-03T13:33:57Z</time>
      </trkpt>
      <trkpt lat="46.28639" lon="-0.36079">
        <ele>47.2039</ele>
        <time>2011-07-03T13:33:58Z</time>
      </trkpt>
      <trkpt lat="46.28638" lon="-0.36078">
        <ele>47.1981</ele>
        <time>2011-07-03T13:33:59Z</time>
      </trkpt>
      <trkpt lat="46.28638" lon="-0.36076">
        <ele>47.1922</ele>
        <time>2011-07-03T13:34:00Z</time>
      </trkpt>
      <trkpt lat="46.28637" lon="-0.36074">
        <ele>47.1861</ele>
        <time>2011-07-03T13:34:01Z</time>
      </trkpt>
      <trkpt lat="46.28637" lon="-0.36072">
        <ele>47.1804</ele>
        <time>2011-07-03T13:34:02Z</time>
      </trkpt>
      <trkpt lat="46.28636" lon="-0.36071">
        <ele>47.1749</ele>
        <time>2011-07-03T13:34:03Z</time>
      </trkpt>
      <trkpt lat="46.28636" lon="-0.36069">
        <ele>47.1697</ele>
        <time>2011-07-03T13:34:04Z</time>
      </trkpt>
      <trkpt lat="46.28635" lon="-0.36067">
        <ele>47.1639</ele>
        <time>2011-07-03T13:34:05Z</time>
      </trkpt>
      <trkpt lat="46.28635" lon="-0.36066">
        <ele>47.1582</ele>
        <time>2011-07-03T13:34:06Z</time>
      </trkpt>
      <trkpt lat="46.28634" lon="-0.36064">
        <ele>47.1514</ele>
        <time>2011-07-03T13:34:07Z</time>
      </trkpt>
      <trkpt lat="46.28634" lon="-0.36062">
        <ele>47.1461</ele>
        <time>2011-07-03T13:34:08Z</time>
      </trkpt>
      <trkpt lat="46.28633" lon="-0.3606">
        <ele>47.1411</ele>
        <time>2011-07-03T13:34:09Z</time>
      </trkpt>
      <trkpt lat="46.28633" lon="-0.36058">
        <ele>47.136</ele>
        <time>2011-07-03T13:34:10Z</time>
      </trkpt>
      <trkpt lat="46.28632" lon="-0.36057">
        <ele>47.1303</ele>
        <time>2011-07-03T13:34:11Z</time>
      </trkpt>
      <trkpt lat="46.28632" lon="-0.36055">
        <ele>47.1243</ele>
        <time>2011-07-03T13:34:12Z</time>
      </trkpt>
      <trkpt lat="46.28632" lon="-0.36053">
        <ele>47.1185</ele>
        <time>2011-07-03T13:34:13Z</time>
      </trkpt>
      <trkpt lat="46.28632" lon="-0.3605">
        <ele>47.1128</ele>
        <time>2011-07-03T13:34:14Z</time>
      </trkpt>
      <trkpt lat="46.28631" lon="-0.36048">
        <ele>47.1077</ele>
        <time>2011-07-03T13:34:15Z</time>
      </trkpt>
      <trkpt lat="46.2863" lon="-0.36047">
        <ele>47.1024</ele>
        <time>2011-07-03T13:34:16Z</time>
      </trkpt>
      <trkpt lat="46.2863" lon="-0.36045">
        <ele>47.0929</ele>
        <time>2011-07-03T13:34:17Z</time>
      </trkpt>
      <trkpt lat="46.2863" lon="-0.36043">
        <ele>47.0834</ele>
        <time>2011-07-03T13:34:18Z</time>
      </trkpt>
      <trkpt lat="46.28629" lon="-0.36041">
        <ele>47.0739</ele>
        <time>2011-07-03T13:34:19Z</time>
      </trkpt>
      <trkpt lat="46.28629" lon="-0.36039">
        <ele>47.0614</ele>
        <time>2011-07-03T13:34:20Z</time>
      </trkpt>
      <trkpt lat="46.28628" lon="-0.36037">
        <ele>47.0444</ele>
        <time>2011-07-03T13:34:21Z</time>
      </trkpt>
      <trkpt lat="46.28627" lon="-0.36035">
        <ele>47.029</ele>
        <time>2011-07-03T13:34:22Z</time>
      </trkpt>
      <trkpt lat="46.28627" lon="-0.36033">
        <ele>47.0133</ele>
        <time>2011-07-03T13:34:23Z</time>
      </trkpt>
      <trkpt lat="46.28627" lon="-0.36032">
        <ele>46.994</ele>
        <time>2011-07-03T13:34:24Z</time>
      </trkpt>
      <trkpt lat="46.28626" lon="-0.3603">
        <ele>46.9751</ele>
        <time>2011-07-03T13:34:25Z</time>
      </trkpt>
      <trkpt lat="46.28626" lon="-0.36028">
        <ele>46.9566</ele>
        <time>2011-07-03T13:34:26Z</time>
      </trkpt>
      <trkpt lat="46.28625" lon="-0.36027">
        <ele>46.9388</ele>
        <time>2011-07-03T13:34:27Z</time>
      </trkpt>
      <trkpt lat="46.28624" lon="-0.36025">
        <ele>46.9216</ele>
        <time>2011-07-03T13:34:28Z</time>
      </trkpt>
      <trkpt lat="46.28624" lon="-0.36023">
        <ele>46.9016</ele>
        <time>2011-07-03T13:34:29Z</time>
      </trkpt>
      <trkpt lat="46.28624" lon="-0.36022">
        <ele>46.88</ele>
        <time>2011-07-03T13:34:30Z</time>
      </trkpt>
      <trkpt lat="46.28623" lon="-0.3602">
        <ele>46.8583</ele>
        <time>2011-07-03T13:34:31Z</time>
      </trkpt>
      <trkpt lat="46.28622" lon="-0.36018">
        <ele>46.8326</ele>
        <time>2011-07-03T13:34:32Z</time>
      </trkpt>
      <trkpt lat="46.28622" lon="-0.36016">
        <ele>46.8075</ele>
        <time>2011-07-03T13:34:33Z</time>
      </trkpt>
      <trkpt lat="46.28622" lon="-0.36013">
        <ele>46.7812</ele>
        <time>2011-07-03T13:34:34Z</time>
      </trkpt>
      <trkpt lat="46.28621" lon="-0.36012">
        <ele>46.7557</ele>
        <time>2011-07-03T13:34:35Z</time>
      </trkpt>
      <trkpt lat="46.28621" lon="-0.3601">
        <ele>46.7291</ele>
        <time>2011-07-03T13:34:36Z</time>
      </trkpt>
      <trkpt lat="46.2862" lon="-0.36008">
        <ele>46.703</ele>
        <time>2011-07-03T13:34:37Z</time>
      </trkpt>
      <trkpt lat="46.2862" lon="-0.36006">
        <ele>46.6765</ele>
        <time>2011-07-03T13:34:38Z</time>
      </trkpt>
      <trkpt lat="46.28619" lon="-0.36005">
        <ele>46.654</ele>
        <time>2011-07-03T13:34:39Z</time>
      </trkpt>
      <trkpt lat="46.28619" lon="-0.36003">
        <ele>46.6317</ele>
        <time>2011-07-03T13:34:40Z</time>
      </trkpt>
      <trkpt lat="46.28618" lon="-0.36002">
        <ele>46.6095</ele>
        <time>2011-07-03T13:34:41Z</time>
      </trkpt>
      <trkpt lat="46.28618" lon="-0.36">
        <ele>46.5879</ele>
        <time>2011-07-03T13:34:42Z</time>
      </trkpt>
      <trkpt lat="46.28617" lon="-0.35999">
        <ele>46.5665</ele>
        <time>2011-07-03T13:34:43Z</time>
      </trkpt>
      <trkpt lat="46.28617" lon="-0.35997">
        <ele>46.5456</ele>
        <time>2011-07-03T13:34:44Z</time>
      </trkpt>
      <trkpt lat="46.28616" lon="-0.35996">
        <ele>46.5243</ele>
        <time>2011-07-03T13:34:45Z</time>
      </trkpt>
      <trkpt lat="46.28616" lon="-0.35994">
        <ele>46.5038</ele>
        <time>2011-07-03T13:34:46Z</time>
      </trkpt>
      <trkpt lat="46.28616" lon="-0.35993">
        <ele>46.4834</ele>
        <time>2011-07-03T13:34:47Z</time>
      </trkpt>
      <trkpt lat="46.28615" lon="-0.35991">
        <ele>46.4633</ele>
        <time>2011-07-03T13:34:48Z</time>
      </trkpt>
      <trkpt lat="46.28615" lon="-0.35989">
        <ele>46.4424</ele>
        <time>2011-07-03T13:34:49Z</time>
      </trkpt>
      <trkpt lat="46.28614" lon="-0.35988">
        <ele>46.4219</ele>
        <time>2011-07-03T13:34:50Z</time>
      </trkpt>
      <trkpt lat="46.28614" lon="-0.35986">
        <ele>46.402</ele>
        <time>2011-07-03T13:34:51Z</time>
      </trkpt>
      <trkpt lat="46.28613" lon="-0.35984">
        <ele>46.3813</ele>
        <time>2011-07-03T13:34:52Z</time>
      </trkpt>
      <trkpt lat="46.28613" lon="-0.35983">
        <ele>46.3606</ele>
        <time>2011-07-03T13:34:53Z</time>
      </trkpt>
      <trkpt lat="46.28613" lon="-0.35981">
        <ele>46.3404</ele>
        <time>2011-07-03T13:34:54Z</time>
      </trkpt>
      <trkpt lat="46.28612" lon="-0.35979">
        <ele>46.3216</ele>
        <time>2011-07-03T13:34:55Z</time>
      </trkpt>
      <trkpt lat="46.28612" lon="-0.35978">
        <ele>46.3029</ele>
        <time>2011-07-03T13:34:56Z</time>
      </trkpt>
      <trkpt lat="46.28611" lon="-0.35976">
        <ele>46.285</ele>
        <time>2011-07-03T13:34:57Z</time>
      </trkpt>
      <trkpt lat="46.28611" lon="-0.35974">
        <ele>46.2667</ele>
        <time>2011-07-03T13:34:58Z</time>
      </trkpt>
      <trkpt lat="46.2861" lon="-0.35972">
        <ele>46.2489</ele>
        <time>2011-07-03T13:34:59Z</time>
      </trkpt>
      <trkpt lat="46.2861" lon="-0.3597">
        <ele>46.2298</ele>
        <time>2011-07-03T13:35:00Z</time>
      </trkpt>
      <trkpt lat="46.2861" lon="-0.35968">
        <ele>46.2132</ele>
        <time>2011-07-03T13:35:01Z</time>
      </trkpt>
      <trkpt lat="46.28609" lon="-0.35967">
        <ele>46.1964</ele>
        <time>2011-07-03T13:35:02Z</time>
      </trkpt>
      <trkpt lat="46.28608" lon="-0.35965">
        <ele>46.1816</ele>
        <time>2011-07-03T13:35:03Z</time>
      </trkpt>
      <trkpt lat="46.28608" lon="-0.35963">
        <ele>46.1635</ele>
        <time>2011-07-03T13:35:04Z</time>
      </trkpt>
      <trkpt lat="46.28607" lon="-0.35962">
        <ele>46.1403</ele>
        <time>2011-07-03T13:35:05Z</time>
      </trkpt>
      <trkpt lat="46.28607" lon="-0.3596">
        <ele>46.1159</ele>
        <time>2011-07-03T13:35:06Z</time>
      </trkpt>
      <trkpt lat="46.28607" lon="-0.35958">
        <ele>46.0915</ele>
        <time>2011-07-03T13:35:07Z</time>
      </trkpt>
      <trkpt lat="46.28606" lon="-0.35957">
        <ele>46.0655</ele>
        <time>2011-07-03T13:35:08Z</time>
      </trkpt>
      <trkpt lat="46.28606" lon="-0.35955">
        <ele>46.0384</ele>
        <time>2011-07-03T13:35:09Z</time>
      </trkpt>
      <trkpt lat="46.28606" lon="-0.35954">
        <ele>46.0099</ele>
        <time>2011-07-03T13:35:10Z</time>
      </trkpt>
      <trkpt lat="46.28605" lon="-0.35952">
        <ele>45.9823</ele>
        <time>2011-07-03T13:35:11Z</time>
      </trkpt>
      <trkpt lat="46.28605" lon="-0.3595">
        <ele>45.955</ele>
        <time>2011-07-03T13:35:12Z</time>
      </trkpt>
      <trkpt lat="46.28604" lon="-0.35948">
        <ele>45.9279</ele>
        <time>2011-07-03T13:35:13Z</time>
      </trkpt>
      <trkpt lat="46.28603" lon="-0.35946">
        <ele>45.9003</ele>
        <time>2011-07-03T13:35:14Z</time>
      </trkpt>
      <trkpt lat="46.28603" lon="-0.35944">
        <ele>45.8724</ele>
        <time>2011-07-03T13:35:15Z</time>
      </trkpt>
      <trkpt lat="46.28602" lon="-0.35942">
        <ele>45.8459</ele>
        <time>2011-07-03T13:35:16Z</time>
      </trkpt>
      <trkpt lat="46.28601" lon="-0.3594">
        <ele>45.8199</ele>
        <time>2011-07-03T13:35:17Z</time>
      </trkpt>
      <trkpt lat="46.28601" lon="-0.35939">
        <ele>45.7948</ele>
        <time>2011-07-03T13:35:18Z</time>
      </trkpt>
      <trkpt lat="46.286" lon="-0.35937">
        <ele>45.7705</ele>
        <time>2011-07-03T13:35:19Z</time>
      </trkpt>
      <trkpt lat="46.286" lon="-0.35936">
        <ele>45.7464</ele>
        <time>2011-07-03T13:35:20Z</time>
      </trkpt>
      <trkpt lat="46.28599" lon="-0.35934">
        <ele>45.723</ele>
        <time>2011-07-03T13:35:21Z</time>
      </trkpt>
      <trkpt lat="46.28599" lon="-0.35932">
        <ele>45.6997</ele>
        <time>2011-07-03T13:35:22Z</time>
      </trkpt>
      <trkpt lat="46.28598" lon="-0.35931">
        <ele>45.6773</ele>
        <time>2011-07-03T13:35:23Z</time>
      </trkpt>
      <trkpt lat="46.28598" lon="-0.35929">
        <ele>45.6583</ele>
        <time>2011-07-03T13:35:24Z</time>
      </trkpt>
      <trkpt lat="46.28598" lon="-0.35927">
        <ele>45.6382</ele>
        <time>2011-07-03T13:35:25Z</time>
      </trkpt>
      <trkpt lat="46.28597" lon="-0.35926">
        <ele>45.6186</ele>
        <time>2011-07-03T13:35:26Z</time>
      </trkpt>
      <trkpt lat="46.28597" lon="-0.35924">
        <ele>45.599</ele>
        <time>2011-07-03T13:35:27Z</time>
      </trkpt>
      <trkpt lat="46.28596" lon="-0.35922">
        <ele>45.5779</ele>
        <time>2011-07-03T13:35:28Z</time>
      </trkpt>
      <trkpt lat="46.28595" lon="-0.3592">
        <ele>45.5571</ele>
        <time>2011-07-03T13:35:29Z</time>
      </trkpt>
      <trkpt lat="46.28595" lon="-0.35918">
        <ele>45.5356</ele>
        <time>2011-07-03T13:35:30Z</time>
      </trkpt>
      <trkpt lat="46.28594" lon="-0.35916">
        <ele>45.515</ele>
        <time>2011-07-03T13:35:31Z</time>
      </trkpt>
      <trkpt lat="46.28594" lon="-0.35914">
        <ele>45.4982</ele>
        <time>2011-07-03T13:35:32Z</time>
      </trkpt>
      <trkpt lat="46.28593" lon="-0.35912">
        <ele>45.4801</ele>
        <time>2011-07-03T13:35:33Z</time>
      </trkpt>
      <trkpt lat="46.28593" lon="-0.3591">
        <ele>45.4627</ele>
        <time>2011-07-03T13:35:34Z</time>
      </trkpt>
      <trkpt lat="46.28593" lon="-0.35908">
        <ele>45.4483</ele>
        <time>2011-07-03T13:35:35Z</time>
      </trkpt>
      <trkpt lat="46.28593" lon="-0.35906">
        <ele>45.4342</ele>
        <time>2011-07-03T13:35:36Z</time>
      </trkpt>
      <trkpt lat="46.28592" lon="-0.35905">
        <ele>45.4196</ele>
        <time>2011-07-03T13:35:37Z</time>
      </trkpt>
      <trkpt lat="46.28592" lon="-0.35903">
        <ele>45.4064</ele>
        <time>2011-07-03T13:35:38Z</time>
      </trkpt>
      <trkpt lat="46.28592" lon="-0.35901">
        <ele>45.3924</ele>
        <time>2011-07-03T13:35:39Z</time>
      </trkpt>
      <trkpt lat="46.28591" lon="-0.359">
        <ele>45.3796</ele>
        <time>2011-07-03T13:35:40Z</time>
      </trkpt>
      <trkpt lat="46.2859" lon="-0.35898">
        <ele>45.3668</ele>
        <time>2011-07-03T13:35:41Z</time>
      </trkpt>
      <trkpt lat="46.2859" lon="-0.35896">
        <ele>45.353</ele>
        <time>2011-07-03T13:35:42Z</time>
      </trkpt>
      <trkpt lat="46.2859" lon="-0.35894">
        <ele>45.3424</ele>
        <time>2011-07-03T13:35:43Z</time>
      </trkpt>
      <trkpt lat="46.28589" lon="-0.35892">
        <ele>45.3351</ele>
        <time>2011-07-03T13:35:44Z</time>
      </trkpt>
      <trkpt lat="46.28589" lon="-0.3589">
        <ele>45.3282</ele>
        <time>2011-07-03T13:35:45Z</time>
      </trkpt>
      <trkpt lat="46.28589" lon="-0.35888">
        <ele>45.3218</ele>
        <time>2011-07-03T13:35:46Z</time>
      </trkpt>
      <trkpt lat="46.28588" lon="-0.35887">
        <ele>45.3155</ele>
        <time>2011-07-03T13:35:47Z</time>
      </trkpt>
      <trkpt lat="46.28587" lon="-0.35885">
        <ele>45.307</ele>
        <time>2011-07-03T13:35:48Z</time>
      </trkpt>
      <trkpt lat="46.28587" lon="-0.35883">
        <ele>45.2987</ele>
        <time>2011-07-03T13:35:49Z</time>
      </trkpt>
      <trkpt lat="46.28587" lon="-0.35881">
        <ele>45.2911</ele>
        <time>2011-07-03T13:35:50Z</time>
      </trkpt>
      <trkpt lat="46.28586" lon="-0.3588">
        <ele>45.2837</ele>
        <time>2011-07-03T13:35:51Z</time>
      </trkpt>
      <trkpt lat="46.28585" lon="-0.35879">
        <ele>45.2807</ele>
        <time>2011-07-03T13:35:52Z</time>
      </trkpt>
      <trkpt lat="46.28585" lon="-0.35878">
        <ele>45.279</ele>
        <time>2011-07-03T13:35:53Z</time>
      </trkpt>
      <trkpt lat="46.28585" lon="-0.35876">
        <ele>45.2799</ele>
        <time>2011-07-03T13:35:54Z</time>
      </trkpt>
      <trkpt lat="46.28584" lon="-0.35874">
        <ele>45.2783</ele>
        <time>2011-07-03T13:35:55Z</time>
      </trkpt>
      <trkpt lat="46.28584" lon="-0.35872">
        <ele>45.2667</ele>
        <time>2011-07-03T13:35:56Z</time>
      </trkpt>
      <trkpt lat="46.28583" lon="-0.3587">
        <ele>45.2552</ele>
        <time>2011-07-03T13:35:57Z</time>
      </trkpt>
      <trkpt lat="46.28583" lon="-0.35868">
        <ele>45.2442</ele>
        <time>2011-07-03T13:35:58Z</time>
      </trkpt>
      <trkpt lat="46.28582" lon="-0.35867">
        <ele>45.2333</ele>
        <time>2011-07-03T13:35:59Z</time>
      </trkpt>
      <trkpt lat="46.28582" lon="-0.35865">
        <ele>45.2229</ele>
        <time>2011-07-03T13:36:00Z</time>
      </trkpt>
      <trkpt lat="46.28581" lon="-0.35864">
        <ele>45.2053</ele>
        <time>2011-07-03T13:36:01Z</time>
      </trkpt>
      <trkpt lat="46.28581" lon="-0.35862">
        <ele>45.182</ele>
        <time>2011-07-03T13:36:02Z</time>
      </trkpt>
      <trkpt lat="46.28581" lon="-0.35861">
        <ele>45.1501</ele>
        <time>2011-07-03T13:36:03Z</time>
      </trkpt>
      <trkpt lat="46.28581" lon="-0.35859">
        <ele>45.1125</ele>
        <time>2011-07-03T13:36:04Z</time>
      </trkpt>
      <trkpt lat="46.2858" lon="-0.35857">
        <ele>45.0711</ele>
        <time>2011-07-03T13:36:05Z</time>
      </trkpt>
      <trkpt lat="46.28579" lon="-0.35855">
        <ele>45.0276</ele>
        <time>2011-07-03T13:36:06Z</time>
      </trkpt>
      <trkpt lat="46.28579" lon="-0.35853">
        <ele>44.9854</ele>
        <time>2011-07-03T13:36:07Z</time>
      </trkpt>
      <trkpt lat="46.28578" lon="-0.35851">
        <ele>44.9428</ele>
        <time>2011-07-03T13:36:08Z</time>
      </trkpt>
      <trkpt lat="46.28577" lon="-0.35849">
        <ele>44.9013</ele>
        <time>2011-07-03T13:36:09Z</time>
      </trkpt>
      <trkpt lat="46.28577" lon="-0.35847">
        <ele>44.86</ele>
        <time>2011-07-03T13:36:10Z</time>
      </trkpt>
      <trkpt lat="46.28576" lon="-0.35845">
        <ele>44.8193</ele>
        <time>2011-07-03T13:36:11Z</time>
      </trkpt>
      <trkpt lat="46.28576" lon="-0.35844">
        <ele>44.7811</ele>
        <time>2011-07-03T13:36:12Z</time>
      </trkpt>
      <trkpt lat="46.28575" lon="-0.35842">
        <ele>44.7457</ele>
        <time>2011-07-03T13:36:13Z</time>
      </trkpt>
      <trkpt lat="46.28574" lon="-0.3584">
        <ele>44.7105</ele>
        <time>2011-07-03T13:36:14Z</time>
      </trkpt>
      <trkpt lat="46.28574" lon="-0.35839">
        <ele>44.674</ele>
        <time>2011-07-03T13:36:15Z</time>
      </trkpt>
      <trkpt lat="46.28574" lon="-0.35837">
        <ele>44.6284</ele>
        <time>2011-07-03T13:36:16Z</time>
      </trkpt>
      <trkpt lat="46.28574" lon="-0.35835">
        <ele>44.5902</ele>
        <time>2011-07-03T13:36:17Z</time>
      </trkpt>
      <trkpt lat="46.28572" lon="-0.35832">
        <ele>44.5612</ele>
        <time>2011-07-03T13:36:18Z</time>
      </trkpt>
      <trkpt lat="46.2857" lon="-0.35829">
        <ele>44.5344</ele>
        <time>2011-07-03T13:36:19Z</time>
      </trkpt>
      <trkpt lat="46.2857" lon="-0.35828">
        <ele>44.4995</ele>
        <time>2011-07-03T13:36:20Z</time>
      </trkpt>
      <trkpt lat="46.2857" lon="-0.35827">
        <ele>44.4659</ele>
        <time>2011-07-03T13:36:21Z</time>
      </trkpt>
      <trkpt lat="46.2857" lon="-0.35825">
        <ele>44.4321</ele>
        <time>2011-07-03T13:36:22Z</time>
      </trkpt>
      <trkpt lat="46.2857" lon="-0.35824">
        <ele>44.3947</ele>
        <time>2011-07-03T13:36:23Z</time>
      </trkpt>
      <trkpt lat="46.28569" lon="-0.35822">
        <ele>44.3522</ele>
        <time>2011-07-03T13:36:24Z</time>
      </trkpt>
      <trkpt lat="46.28569" lon="-0.3582">
        <ele>44.3037</ele>
        <time>2011-07-03T13:36:25Z</time>
      </trkpt>
      <trkpt lat="46.28569" lon="-0.35818">
        <ele>44.2539</ele>
        <time>2011-07-03T13:36:26Z</time>
      </trkpt>
      <trkpt lat="46.28568" lon="-0.35816">
        <ele>44.2045</ele>
        <time>2011-07-03T13:36:27Z</time>
      </trkpt>
      <trkpt lat="46.28568" lon="-0.35814">
        <ele>44.1566</ele>
        <time>2011-07-03T13:36:28Z</time>
      </trkpt>
      <trkpt lat="46.28568" lon="-0.35812">
        <ele>44.1105</ele>
        <time>2011-07-03T13:36:29Z</time>
      </trkpt>
      <trkpt lat="46.28567" lon="-0.3581">
        <ele>44.063</ele>
        <time>2011-07-03T13:36:30Z</time>
      </trkpt>
      <trkpt lat="46.28567" lon="-0.35808">
        <ele>44.018</ele>
        <time>2011-07-03T13:36:31Z</time>
      </trkpt>
      <trkpt lat="46.28566" lon="-0.35806">
        <ele>43.9754</ele>
        <time>2011-07-03T13:36:32Z</time>
      </trkpt>
      <trkpt lat="46.28566" lon="-0.35804">
        <ele>43.9357</ele>
        <time>2011-07-03T13:36:33Z</time>
      </trkpt>
      <trkpt lat="46.28565" lon="-0.35802">
        <ele>43.8983</ele>
        <time>2011-07-03T13:36:34Z</time>
      </trkpt>
      <trkpt lat="46.28565" lon="-0.358">
        <ele>43.8609</ele>
        <time>2011-07-03T13:36:35Z</time>
      </trkpt>
      <trkpt lat="46.28565" lon="-0.35799">
        <ele>43.8248</ele>
        <time>2011-07-03T13:36:36Z</time>
      </trkpt>
      <trkpt lat="46.28564" lon="-0.35797">
        <ele>43.7917</ele>
        <time>2011-07-03T13:36:37Z</time>
      </trkpt>
      <trkpt lat="46.28564" lon="-0.35795">
        <ele>43.7603</ele>
        <time>2011-07-03T13:36:38Z</time>
      </trkpt>
      <trkpt lat="46.28563" lon="-0.35794">
        <ele>43.7301</ele>
        <time>2011-07-03T13:36:39Z</time>
      </trkpt>
      <trkpt lat="46.28562" lon="-0.35792">
        <ele>43.7021</ele>
        <time>2011-07-03T13:36:40Z</time>
      </trkpt>
      <trkpt lat="46.28562" lon="-0.3579">
        <ele>43.6759</ele>
        <time>2011-07-03T13:36:41Z</time>
      </trkpt>
      <trkpt lat="46.28561" lon="-0.35789">
        <ele>43.6521</ele>
        <time>2011-07-03T13:36:42Z</time>
      </trkpt>
      <trkpt lat="46.28561" lon="-0.35787">
        <ele>43.6298</ele>
        <time>2011-07-03T13:36:43Z</time>
      </trkpt>
      <trkpt lat="46.2856" lon="-0.35786">
        <ele>43.609</ele>
        <time>2011-07-03T13:36:44Z</time>
      </trkpt>
      <trkpt lat="46.2856" lon="-0.35784">
        <ele>43.5913</ele>
        <time>2011-07-03T13:36:45Z</time>
      </trkpt>
      <trkpt lat="46.28559" lon="-0.35783">
        <ele>43.5742</ele>
        <time>2011-07-03T13:36:46Z</time>
      </trkpt>
      <trkpt lat="46.28559" lon="-0.35781">
        <ele>43.5567</ele>
        <time>2011-07-03T13:36:47Z</time>
      </trkpt>
      <trkpt lat="46.28558" lon="-0.3578">
        <ele>43.5412</ele>
        <time>2011-07-03T13:36:48Z</time>
      </trkpt>
      <trkpt lat="46.28557" lon="-0.35778">
        <ele>43.526</ele>
        <time>2011-07-03T13:36:49Z</time>
      </trkpt>
      <trkpt lat="46.28556" lon="-0.35776">
        <ele>43.5117</ele>
        <time>2011-07-03T13:36:50Z</time>
      </trkpt>
      <trkpt lat="46.28556" lon="-0.35775">
        <ele>43.4979</ele>
        <time>2011-07-03T13:36:51Z</time>
      </trkpt>
      <trkpt lat="46.28555" lon="-0.35773">
        <ele>43.4856</ele>
        <time>2011-07-03T13:36:52Z</time>
      </trkpt>
      <trkpt lat="46.28555" lon="-0.35771">
        <ele>43.4737</ele>
        <time>2011-07-03T13:36:53Z</time>
      </trkpt>
      <trkpt lat="46.28554" lon="-0.35769">
        <ele>43.4635</ele>
        <time>2011-07-03T13:36:54Z</time>
      </trkpt>
      <trkpt lat="46.28553" lon="-0.35767">
        <ele>43.4535</ele>
        <time>2011-07-03T13:36:55Z</time>
      </trkpt>
      <trkpt lat="46.28553" lon="-0.35765">
        <ele>43.4423</ele>
        <time>2011-07-03T13:36:56Z</time>
      </trkpt>
      <trkpt lat="46.28553" lon="-0.35764">
        <ele>43.428</ele>
        <time>2011-07-03T13:36:57Z</time>
      </trkpt>
      <trkpt lat="46.28553" lon="-0.35762">
        <ele>43.4149</ele>
        <time>2011-07-03T13:36:58Z</time>
      </trkpt>
      <trkpt lat="46.28553" lon="-0.35761">
        <ele>43.4009</ele>
        <time>2011-07-03T13:36:59Z</time>
      </trkpt>
      <trkpt lat="46.28553" lon="-0.35761">
        <ele>43.3787</ele>
        <time>2011-07-03T13:37:00Z</time>
      </trkpt>
      <trkpt lat="46.28552" lon="-0.35759">
        <ele>43.3568</ele>
        <time>2011-07-03T13:37:01Z</time>
      </trkpt>
      <trkpt lat="46.28552" lon="-0.35758">
        <ele>43.3087</ele>
        <time>2011-07-03T13:37:02Z</time>
      </trkpt>
      <trkpt lat="46.28552" lon="-0.35756">
        <ele>43.2683</ele>
        <time>2011-07-03T13:37:03Z</time>
      </trkpt>
      <trkpt lat="46.28551" lon="-0.35754">
        <ele>43.2253</ele>
        <time>2011-07-03T13:37:04Z</time>
      </trkpt>
      <trkpt lat="46.2855" lon="-0.35752">
        <ele>43.1767</ele>
        <time>2011-07-03T13:37:05Z</time>
      </trkpt>
      <trkpt lat="46.28549" lon="-0.3575">
        <ele>43.1218</ele>
        <time>2011-07-03T13:37:06Z</time>
      </trkpt>
      <trkpt lat="46.28548" lon="-0.35747">
        <ele>43.0517</ele>
        <time>2011-07-03T13:37:07Z</time>
      </trkpt>
      <trkpt lat="46.28547" lon="-0.35744">
        <ele>42.9875</ele>
        <time>2011-07-03T13:37:08Z</time>
      </trkpt>
      <trkpt lat="46.28546" lon="-0.35741">
        <ele>42.9271</ele>
        <time>2011-07-03T13:37:09Z</time>
      </trkpt>
      <trkpt lat="46.28545" lon="-0.3574">
        <ele>42.8688</ele>
        <time>2011-07-03T13:37:10Z</time>
      </trkpt>
      <trkpt lat="46.28545" lon="-0.35738">
        <ele>42.8187</ele>
        <time>2011-07-03T13:37:11Z</time>
      </trkpt>
      <trkpt lat="46.28545" lon="-0.35736">
        <ele>42.7689</ele>
        <time>2011-07-03T13:37:12Z</time>
      </trkpt>
      <trkpt lat="46.28545" lon="-0.35735">
        <ele>42.7297</ele>
        <time>2011-07-03T13:37:13Z</time>
      </trkpt>
      <trkpt lat="46.28544" lon="-0.35733">
        <ele>42.7037</ele>
        <time>2011-07-03T13:37:14Z</time>
      </trkpt>
      <trkpt lat="46.28544" lon="-0.35732">
        <ele>42.6851</ele>
        <time>2011-07-03T13:37:15Z</time>
      </trkpt>
      <trkpt lat="46.28544" lon="-0.35731">
        <ele>42.672</ele>
        <time>2011-07-03T13:37:16Z</time>
      </trkpt>
      <trkpt lat="46.28543" lon="-0.35729">
        <ele>42.663</ele>
        <time>2011-07-03T13:37:17Z</time>
      </trkpt>
      <trkpt lat="46.28543" lon="-0.35728">
        <ele>42.6594</ele>
        <time>2011-07-03T13:37:18Z</time>
      </trkpt>
      <trkpt lat="46.28542" lon="-0.35726">
        <ele>42.6575</ele>
        <time>2011-07-03T13:37:19Z</time>
      </trkpt>
      <trkpt lat="46.28542" lon="-0.35725">
        <ele>42.6575</ele>
        <time>2011-07-03T13:37:20Z</time>
      </trkpt>
      <trkpt lat="46.28541" lon="-0.35723">
        <ele>42.6598</ele>
        <time>2011-07-03T13:37:21Z</time>
      </trkpt>
      <trkpt lat="46.2854" lon="-0.35722">
        <ele>42.6626</ele>
        <time>2011-07-03T13:37:22Z</time>
      </trkpt>
      <trkpt lat="46.2854" lon="-0.3572">
        <ele>42.6637</ele>
        <time>2011-07-03T13:37:23Z</time>
      </trkpt>
      <trkpt lat="46.28539" lon="-0.35718">
        <ele>42.6657</ele>
        <time>2011-07-03T13:37:24Z</time>
      </trkpt>
      <trkpt lat="46.28539" lon="-0.35716">
        <ele>42.669</ele>
        <time>2011-07-03T13:37:25Z</time>
      </trkpt>
      <trkpt lat="46.28538" lon="-0.35715">
        <ele>42.6741</ele>
        <time>2011-07-03T13:37:26Z</time>
      </trkpt>
      <trkpt lat="46.28538" lon="-0.35713">
        <ele>42.678</ele>
        <time>2011-07-03T13:37:27Z</time>
      </trkpt>
      <trkpt lat="46.28537" lon="-0.35711">
        <ele>42.6832</ele>
        <time>2011-07-03T13:37:28Z</time>
      </trkpt>
      <trkpt lat="46.28537" lon="-0.35709">
        <ele>42.6888</ele>
        <time>2011-07-03T13:37:29Z</time>
      </trkpt>
      <trkpt lat="46.28536" lon="-0.35708">
        <ele>42.6942</ele>
        <time>2011-07-03T13:37:30Z</time>
      </trkpt>
      <trkpt lat="46.28536" lon="-0.35706">
        <ele>42.7016</ele>
        <time>2011-07-03T13:37:31Z</time>
      </trkpt>
      <trkpt lat="46.28535" lon="-0.35704">
        <ele>42.7083</ele>
        <time>2011-07-03T13:37:32Z</time>
      </trkpt>
      <trkpt lat="46.28535" lon="-0.35702">
        <ele>42.7166</ele>
        <time>2011-07-03T13:37:33Z</time>
      </trkpt>
      <trkpt lat="46.28534" lon="-0.357">
        <ele>42.724</ele>
        <time>2011-07-03T13:37:34Z</time>
      </trkpt>
      <trkpt lat="46.28534" lon="-0.35698">
        <ele>42.7311</ele>
        <time>2011-07-03T13:37:35Z</time>
      </trkpt>
      <trkpt lat="46.28533" lon="-0.35697">
        <ele>42.7382</ele>
        <time>2011-07-03T13:37:36Z</time>
      </trkpt>
      <trkpt lat="46.28532" lon="-0.35695">
        <ele>42.7458</ele>
        <time>2011-07-03T13:37:37Z</time>
      </trkpt>
      <trkpt lat="46.28532" lon="-0.35693">
        <ele>42.7545</ele>
        <time>2011-07-03T13:37:38Z</time>
      </trkpt>
      <trkpt lat="46.28531" lon="-0.35691">
        <ele>42.7678</ele>
        <time>2011-07-03T13:37:39Z</time>
      </trkpt>
      <trkpt lat="46.28531" lon="-0.35689">
        <ele>42.7828</ele>
        <time>2011-07-03T13:37:40Z</time>
      </trkpt>
      <trkpt lat="46.2853" lon="-0.35688">
        <ele>42.7979</ele>
        <time>2011-07-03T13:37:41Z</time>
      </trkpt>
      <trkpt lat="46.2853" lon="-0.35686">
        <ele>42.814</ele>
        <time>2011-07-03T13:37:42Z</time>
      </trkpt>
      <trkpt lat="46.28529" lon="-0.35684">
        <ele>42.8295</ele>
        <time>2011-07-03T13:37:43Z</time>
      </trkpt>
      <trkpt lat="46.28529" lon="-0.35682">
        <ele>42.8457</ele>
        <time>2011-07-03T13:37:44Z</time>
      </trkpt>
      <trkpt lat="46.28528" lon="-0.35681">
        <ele>42.8609</ele>
        <time>2011-07-03T13:37:45Z</time>
      </trkpt>
      <trkpt lat="46.28528" lon="-0.35679">
        <ele>42.8753</ele>
        <time>2011-07-03T13:37:46Z</time>
      </trkpt>
      <trkpt lat="46.28528" lon="-0.35677">
        <ele>42.8892</ele>
        <time>2011-07-03T13:37:47Z</time>
      </trkpt>
      <trkpt lat="46.28527" lon="-0.35675">
        <ele>42.9039</ele>
        <time>2011-07-03T13:37:48Z</time>
      </trkpt>
      <trkpt lat="46.28526" lon="-0.35673">
        <ele>42.9173</ele>
        <time>2011-07-03T13:37:49Z</time>
      </trkpt>
      <trkpt lat="46.28526" lon="-0.35672">
        <ele>42.931</ele>
        <time>2011-07-03T13:37:50Z</time>
      </trkpt>
      <trkpt lat="46.28525" lon="-0.3567">
        <ele>42.9489</ele>
        <time>2011-07-03T13:37:51Z</time>
      </trkpt>
      <trkpt lat="46.28525" lon="-0.35668">
        <ele>42.9684</ele>
        <time>2011-07-03T13:37:52Z</time>
      </trkpt>
      <trkpt lat="46.28524" lon="-0.35667">
        <ele>42.9873</ele>
        <time>2011-07-03T13:37:53Z</time>
      </trkpt>
      <trkpt lat="46.28524" lon="-0.35665">
        <ele>43.0066</ele>
        <time>2011-07-03T13:37:54Z</time>
      </trkpt>
      <trkpt lat="46.28523" lon="-0.35664">
        <ele>43.0235</ele>
        <time>2011-07-03T13:37:55Z</time>
      </trkpt>
      <trkpt lat="46.28523" lon="-0.35662">
        <ele>43.0393</ele>
        <time>2011-07-03T13:37:56Z</time>
      </trkpt>
      <trkpt lat="46.28523" lon="-0.3566">
        <ele>43.054</ele>
        <time>2011-07-03T13:37:57Z</time>
      </trkpt>
      <trkpt lat="46.28522" lon="-0.35659">
        <ele>43.0679</ele>
        <time>2011-07-03T13:37:58Z</time>
      </trkpt>
      <trkpt lat="46.28521" lon="-0.35657">
        <ele>43.082</ele>
        <time>2011-07-03T13:37:59Z</time>
      </trkpt>
      <trkpt lat="46.28521" lon="-0.35655">
        <ele>43.0972</ele>
        <time>2011-07-03T13:38:00Z</time>
      </trkpt>
      <trkpt lat="46.2852" lon="-0.35653">
        <ele>43.1111</ele>
        <time>2011-07-03T13:38:01Z</time>
      </trkpt>
      <trkpt lat="46.28519" lon="-0.35652">
        <ele>43.1231</ele>
        <time>2011-07-03T13:38:02Z</time>
      </trkpt>
      <trkpt lat="46.28519" lon="-0.3565">
        <ele>43.1366</ele>
        <time>2011-07-03T13:38:03Z</time>
      </trkpt>
      <trkpt lat="46.28519" lon="-0.35648">
        <ele>43.1547</ele>
        <time>2011-07-03T13:38:04Z</time>
      </trkpt>
      <trkpt lat="46.28518" lon="-0.35647">
        <ele>43.1735</ele>
        <time>2011-07-03T13:38:05Z</time>
      </trkpt>
      <trkpt lat="46.28518" lon="-0.35645">
        <ele>43.1905</ele>
        <time>2011-07-03T13:38:06Z</time>
      </trkpt>
      <trkpt lat="46.28517" lon="-0.35643">
        <ele>43.208</ele>
        <time>2011-07-03T13:38:07Z</time>
      </trkpt>
      <trkpt lat="46.28516" lon="-0.35642">
        <ele>43.2249</ele>
        <time>2011-07-03T13:38:08Z</time>
      </trkpt>
      <trkpt lat="46.28516" lon="-0.3564">
        <ele>43.2424</ele>
        <time>2011-07-03T13:38:09Z</time>
      </trkpt>
      <trkpt lat="46.28515" lon="-0.35638">
        <ele>43.2615</ele>
        <time>2011-07-03T13:38:10Z</time>
      </trkpt>
      <trkpt lat="46.28515" lon="-0.35636">
        <ele>43.2781</ele>
        <time>2011-07-03T13:38:11Z</time>
      </trkpt>
      <trkpt lat="46.28515" lon="-0.35635">
        <ele>43.2949</ele>
        <time>2011-07-03T13:38:12Z</time>
      </trkpt>
      <trkpt lat="46.28514" lon="-0.35633">
        <ele>43.313</ele>
        <time>2011-07-03T13:38:13Z</time>
      </trkpt>
      <trkpt lat="46.28514" lon="-0.35631">
        <ele>43.3308</ele>
        <time>2011-07-03T13:38:14Z</time>
      </trkpt>
      <trkpt lat="46.28513" lon="-0.3563">
        <ele>43.3507</ele>
        <time>2011-07-03T13:38:15Z</time>
      </trkpt>
      <trkpt lat="46.28513" lon="-0.35628">
        <ele>43.3706</ele>
        <time>2011-07-03T13:38:16Z</time>
      </trkpt>
      <trkpt lat="46.28513" lon="-0.35626">
        <ele>43.3898</ele>
        <time>2011-07-03T13:38:17Z</time>
      </trkpt>
      <trkpt lat="46.28512" lon="-0.35625">
        <ele>43.4107</ele>
        <time>2011-07-03T13:38:18Z</time>
      </trkpt>
      <trkpt lat="46.28512" lon="-0.35623">
        <ele>43.4318</ele>
        <time>2011-07-03T13:38:19Z</time>
      </trkpt>
      <trkpt lat="46.28511" lon="-0.35621">
        <ele>43.4532</ele>
        <time>2011-07-03T13:38:20Z</time>
      </trkpt>
      <trkpt lat="46.28511" lon="-0.35619">
        <ele>43.4753</ele>
        <time>2011-07-03T13:38:21Z</time>
      </trkpt>
      <trkpt lat="46.28511" lon="-0.35618">
        <ele>43.4975</ele>
        <time>2011-07-03T13:38:22Z</time>
      </trkpt>
      <trkpt lat="46.2851" lon="-0.35616">
        <ele>43.5194</ele>
        <time>2011-07-03T13:38:23Z</time>
      </trkpt>
      <trkpt lat="46.2851" lon="-0.35614">
        <ele>43.5412</ele>
        <time>2011-07-03T13:38:24Z</time>
      </trkpt>
      <trkpt lat="46.2851" lon="-0.35612">
        <ele>43.5642</ele>
        <time>2011-07-03T13:38:25Z</time>
      </trkpt>
      <trkpt lat="46.28509" lon="-0.35611">
        <ele>43.5863</ele>
        <time>2011-07-03T13:38:26Z</time>
      </trkpt>
      <trkpt lat="46.28509" lon="-0.35609">
        <ele>43.6081</ele>
        <time>2011-07-03T13:38:27Z</time>
      </trkpt>
      <trkpt lat="46.28508" lon="-0.35607">
        <ele>43.6289</ele>
        <time>2011-07-03T13:38:28Z</time>
      </trkpt>
      <trkpt lat="46.28508" lon="-0.35605">
        <ele>43.6482</ele>
        <time>2011-07-03T13:38:29Z</time>
      </trkpt>
      <trkpt lat="46.28507" lon="-0.35604">
        <ele>43.6657</ele>
        <time>2011-07-03T13:38:30Z</time>
      </trkpt>
      <trkpt lat="46.28507" lon="-0.35602">
        <ele>43.6827</ele>
        <time>2011-07-03T13:38:31Z</time>
      </trkpt>
      <trkpt lat="46.28506" lon="-0.356">
        <ele>43.6992</ele>
        <time>2011-07-03T13:38:32Z</time>
      </trkpt>
      <trkpt lat="46.28505" lon="-0.35598">
        <ele>43.7142</ele>
        <time>2011-07-03T13:38:33Z</time>
      </trkpt>
      <trkpt lat="46.28504" lon="-0.35597">
        <ele>43.7295</ele>
        <time>2011-07-03T13:38:34Z</time>
      </trkpt>
      <trkpt lat="46.28504" lon="-0.35595">
        <ele>43.7458</ele>
        <time>2011-07-03T13:38:35Z</time>
      </trkpt>
      <trkpt lat="46.28503" lon="-0.35593">
        <ele>43.7622</ele>
        <time>2011-07-03T13:38:36Z</time>
      </trkpt>
      <trkpt lat="46.28503" lon="-0.35591">
        <ele>43.7779</ele>
        <time>2011-07-03T13:38:37Z</time>
      </trkpt>
      <trkpt lat="46.28502" lon="-0.35589">
        <ele>43.7951</ele>
        <time>2011-07-03T13:38:38Z</time>
      </trkpt>
      <trkpt lat="46.28502" lon="-0.35587">
        <ele>43.8114</ele>
        <time>2011-07-03T13:38:39Z</time>
      </trkpt>
      <trkpt lat="46.28502" lon="-0.35585">
        <ele>43.8295</ele>
        <time>2011-07-03T13:38:40Z</time>
      </trkpt>
      <trkpt lat="46.28501" lon="-0.35584">
        <ele>43.8461</ele>
        <time>2011-07-03T13:38:41Z</time>
      </trkpt>
      <trkpt lat="46.28501" lon="-0.35582">
        <ele>43.8647</ele>
        <time>2011-07-03T13:38:42Z</time>
      </trkpt>
      <trkpt lat="46.285" lon="-0.35581">
        <ele>43.8845</ele>
        <time>2011-07-03T13:38:43Z</time>
      </trkpt>
      <trkpt lat="46.285" lon="-0.3558">
        <ele>43.9088</ele>
        <time>2011-07-03T13:38:44Z</time>
      </trkpt>
      <trkpt lat="46.28499" lon="-0.35578">
        <ele>43.9401</ele>
        <time>2011-07-03T13:38:45Z</time>
      </trkpt>
      <trkpt lat="46.28499" lon="-0.35576">
        <ele>43.9782</ele>
        <time>2011-07-03T13:38:46Z</time>
      </trkpt>
      <trkpt lat="46.28498" lon="-0.35574">
        <ele>44.0157</ele>
        <time>2011-07-03T13:38:47Z</time>
      </trkpt>
      <trkpt lat="46.28497" lon="-0.35573">
        <ele>44.0348</ele>
        <time>2011-07-03T13:38:48Z</time>
      </trkpt>
      <trkpt lat="46.28497" lon="-0.35571">
        <ele>44.0323</ele>
        <time>2011-07-03T13:38:49Z</time>
      </trkpt>
      <trkpt lat="46.28496" lon="-0.35568">
        <ele>44.045</ele>
        <time>2011-07-03T13:38:50Z</time>
      </trkpt>
      <trkpt lat="46.28495" lon="-0.35565">
        <ele>44.058</ele>
        <time>2011-07-03T13:38:51Z</time>
      </trkpt>
      <trkpt lat="46.28495" lon="-0.35562">
        <ele>44.0693</ele>
        <time>2011-07-03T13:38:52Z</time>
      </trkpt>
      <trkpt lat="46.28495" lon="-0.3556">
        <ele>44.0711</ele>
        <time>2011-07-03T13:38:53Z</time>
      </trkpt>
      <trkpt lat="46.28495" lon="-0.35559">
        <ele>44.0744</ele>
        <time>2011-07-03T13:38:54Z</time>
      </trkpt>
      <trkpt lat="46.28496" lon="-0.35559">
        <ele>44.0706</ele>
        <time>2011-07-03T13:38:55Z</time>
      </trkpt>
      <trkpt lat="46.28495" lon="-0.35558">
        <ele>44.0754</ele>
        <time>2011-07-03T13:38:56Z</time>
      </trkpt>
      <trkpt lat="46.28495" lon="-0.35557">
        <ele>44.0736</ele>
        <time>2011-07-03T13:38:57Z</time>
      </trkpt>
      <trkpt lat="46.28495" lon="-0.35555">
        <ele>44.0755</ele>
        <time>2011-07-03T13:38:58Z</time>
      </trkpt>
      <trkpt lat="46.28494" lon="-0.35553">
        <ele>44.0759</ele>
        <time>2011-07-03T13:38:59Z</time>
      </trkpt>
      <trkpt lat="46.28494" lon="-0.35551">
        <ele>44.0784</ele>
        <time>2011-07-03T13:39:00Z</time>
      </trkpt>
      <trkpt lat="46.28493" lon="-0.35549">
        <ele>44.0779</ele>
        <time>2011-07-03T13:39:01Z</time>
      </trkpt>
      <trkpt lat="46.28492" lon="-0.35547">
        <ele>44.0606</ele>
        <time>2011-07-03T13:39:02Z</time>
      </trkpt>
      <trkpt lat="46.28492" lon="-0.35546">
        <ele>44.0483</ele>
        <time>2011-07-03T13:39:03Z</time>
      </trkpt>
      <trkpt lat="46.28492" lon="-0.35544">
        <ele>44.0365</ele>
        <time>2011-07-03T13:39:04Z</time>
      </trkpt>
      <trkpt lat="46.28492" lon="-0.35542">
        <ele>44.0314</ele>
        <time>2011-07-03T13:39:05Z</time>
      </trkpt>
      <trkpt lat="46.28492" lon="-0.3554">
        <ele>44.0315</ele>
        <time>2011-07-03T13:39:06Z</time>
      </trkpt>
      <trkpt lat="46.28491" lon="-0.35539">
        <ele>44.0348</ele>
        <time>2011-07-03T13:39:07Z</time>
      </trkpt>
      <trkpt lat="46.28491" lon="-0.35538">
        <ele>44.0375</ele>
        <time>2011-07-03T13:39:08Z</time>
      </trkpt>
      <trkpt lat="46.2849" lon="-0.35536">
        <ele>44.0414</ele>
        <time>2011-07-03T13:39:09Z</time>
      </trkpt>
      <trkpt lat="46.2849" lon="-0.35534">
        <ele>44.0732</ele>
        <time>2011-07-03T13:39:10Z</time>
      </trkpt>
      <trkpt lat="46.28489" lon="-0.35532">
        <ele>44.1056</ele>
        <time>2011-07-03T13:39:11Z</time>
      </trkpt>
      <trkpt lat="46.28489" lon="-0.35531">
        <ele>44.1569</ele>
        <time>2011-07-03T13:39:12Z</time>
      </trkpt>
      <trkpt lat="46.28488" lon="-0.3553">
        <ele>44.2202</ele>
        <time>2011-07-03T13:39:13Z</time>
      </trkpt>
      <trkpt lat="46.28488" lon="-0.35528">
        <ele>44.2806</ele>
        <time>2011-07-03T13:39:14Z</time>
      </trkpt>
      <trkpt lat="46.28487" lon="-0.35527">
        <ele>44.3509</ele>
        <time>2011-07-03T13:39:15Z</time>
      </trkpt>
      <trkpt lat="46.28487" lon="-0.35526">
        <ele>44.4239</ele>
        <time>2011-07-03T13:39:16Z</time>
      </trkpt>
      <trkpt lat="46.28486" lon="-0.35524">
        <ele>44.4986</ele>
        <time>2011-07-03T13:39:17Z</time>
      </trkpt>
      <trkpt lat="46.28486" lon="-0.35523">
        <ele>44.5745</ele>
        <time>2011-07-03T13:39:18Z</time>
      </trkpt>
      <trkpt lat="46.28485" lon="-0.35522">
        <ele>44.647</ele>
        <time>2011-07-03T13:39:19Z</time>
      </trkpt>
      <trkpt lat="46.28485" lon="-0.3552">
        <ele>44.7171</ele>
        <time>2011-07-03T13:39:20Z</time>
      </trkpt>
      <trkpt lat="46.28484" lon="-0.35518">
        <ele>44.7827</ele>
        <time>2011-07-03T13:39:21Z</time>
      </trkpt>
      <trkpt lat="46.28484" lon="-0.35517">
        <ele>44.8561</ele>
        <time>2011-07-03T13:39:22Z</time>
      </trkpt>
      <trkpt lat="46.28483" lon="-0.35515">
        <ele>44.9347</ele>
        <time>2011-07-03T13:39:23Z</time>
      </trkpt>
      <trkpt lat="46.28483" lon="-0.35513">
        <ele>45.0062</ele>
        <time>2011-07-03T13:39:24Z</time>
      </trkpt>
      <trkpt lat="46.28482" lon="-0.35512">
        <ele>45.0753</ele>
        <time>2011-07-03T13:39:25Z</time>
      </trkpt>
      <trkpt lat="46.28481" lon="-0.3551">
        <ele>45.1436</ele>
        <time>2011-07-03T13:39:26Z</time>
      </trkpt>
      <trkpt lat="46.28481" lon="-0.35508">
        <ele>45.2166</ele>
        <time>2011-07-03T13:39:27Z</time>
      </trkpt>
      <trkpt lat="46.28481" lon="-0.35506">
        <ele>45.2823</ele>
        <time>2011-07-03T13:39:28Z</time>
      </trkpt>
      <trkpt lat="46.2848" lon="-0.35504">
        <ele>45.3552</ele>
        <time>2011-07-03T13:39:29Z</time>
      </trkpt>
      <trkpt lat="46.28479" lon="-0.35502">
        <ele>45.4233</ele>
        <time>2011-07-03T13:39:30Z</time>
      </trkpt>
      <trkpt lat="46.28479" lon="-0.35501">
        <ele>45.4819</ele>
        <time>2011-07-03T13:39:31Z</time>
      </trkpt>
      <trkpt lat="46.28478" lon="-0.35499">
        <ele>45.5369</ele>
        <time>2011-07-03T13:39:32Z</time>
      </trkpt>
      <trkpt lat="46.28477" lon="-0.35498">
        <ele>45.5902</ele>
        <time>2011-07-03T13:39:33Z</time>
      </trkpt>
      <trkpt lat="46.28477" lon="-0.35496">
        <ele>45.6428</ele>
        <time>2011-07-03T13:39:34Z</time>
      </trkpt>
      <trkpt lat="46.28476" lon="-0.35495">
        <ele>45.6954</ele>
        <time>2011-07-03T13:39:35Z</time>
      </trkpt>
      <trkpt lat="46.28476" lon="-0.35493">
        <ele>45.75</ele>
        <time>2011-07-03T13:39:36Z</time>
      </trkpt>
      <trkpt lat="46.28475" lon="-0.35492">
        <ele>45.8076</ele>
        <time>2011-07-03T13:39:37Z</time>
      </trkpt>
      <trkpt lat="46.28474" lon="-0.3549">
        <ele>45.8675</ele>
        <time>2011-07-03T13:39:38Z</time>
      </trkpt>
      <trkpt lat="46.28474" lon="-0.35489">
        <ele>45.9293</ele>
        <time>2011-07-03T13:39:39Z</time>
      </trkpt>
      <trkpt lat="46.28474" lon="-0.35488">
        <ele>45.9929</ele>
        <time>2011-07-03T13:39:40Z</time>
      </trkpt>
      <trkpt lat="46.28473" lon="-0.35486">
        <ele>46.0576</ele>
        <time>2011-07-03T13:39:41Z</time>
      </trkpt>
      <trkpt lat="46.28473" lon="-0.35485">
        <ele>46.1231</ele>
        <time>2011-07-03T13:39:42Z</time>
      </trkpt>
      <trkpt lat="46.28472" lon="-0.35483">
        <ele>46.1883</ele>
        <time>2011-07-03T13:39:43Z</time>
      </trkpt>
      <trkpt lat="46.28472" lon="-0.35482">
        <ele>46.2521</ele>
        <time>2011-07-03T13:39:44Z</time>
      </trkpt>
      <trkpt lat="46.28471" lon="-0.35481">
        <ele>46.3164</ele>
        <time>2011-07-03T13:39:45Z</time>
      </trkpt>
      <trkpt lat="46.28471" lon="-0.35479">
        <ele>46.3798</ele>
        <time>2011-07-03T13:39:46Z</time>
      </trkpt>
      <trkpt lat="46.2847" lon="-0.35478">
        <ele>46.4434</ele>
        <time>2011-07-03T13:39:47Z</time>
      </trkpt>
      <trkpt lat="46.2847" lon="-0.35476">
        <ele>46.5054</ele>
        <time>2011-07-03T13:39:48Z</time>
      </trkpt>
      <trkpt lat="46.28469" lon="-0.35475">
        <ele>46.5665</ele>
        <time>2011-07-03T13:39:49Z</time>
      </trkpt>
      <trkpt lat="46.28468" lon="-0.35473">
        <ele>46.6489</ele>
        <time>2011-07-03T13:39:50Z</time>
      </trkpt>
      <trkpt lat="46.28468" lon="-0.35471">
        <ele>46.7295</ele>
        <time>2011-07-03T13:39:51Z</time>
      </trkpt>
      <trkpt lat="46.28468" lon="-0.35469">
        <ele>46.8094</ele>
        <time>2011-07-03T13:39:52Z</time>
      </trkpt>
      <trkpt lat="46.28467" lon="-0.35467">
        <ele>46.888</ele>
        <time>2011-07-03T13:39:53Z</time>
      </trkpt>
      <trkpt lat="46.28466" lon="-0.35465">
        <ele>46.9658</ele>
        <time>2011-07-03T13:39:54Z</time>
      </trkpt>
      <trkpt lat="46.28466" lon="-0.35464">
        <ele>47.0422</ele>
        <time>2011-07-03T13:39:55Z</time>
      </trkpt>
      <trkpt lat="46.28465" lon="-0.35462">
        <ele>47.1175</ele>
        <time>2011-07-03T13:39:56Z</time>
      </trkpt>
      <trkpt lat="46.28465" lon="-0.3546">
        <ele>47.1908</ele>
        <time>2011-07-03T13:39:57Z</time>
      </trkpt>
      <trkpt lat="46.28465" lon="-0.35458">
        <ele>47.2627</ele>
        <time>2011-07-03T13:39:58Z</time>
      </trkpt>
      <trkpt lat="46.28464" lon="-0.35456">
        <ele>47.3332</ele>
        <time>2011-07-03T13:39:59Z</time>
      </trkpt>
      <trkpt lat="46.28464" lon="-0.35454">
        <ele>47.4033</ele>
        <time>2011-07-03T13:40:00Z</time>
      </trkpt>
      <trkpt lat="46.28463" lon="-0.35453">
        <ele>47.4729</ele>
        <time>2011-07-03T13:40:01Z</time>
      </trkpt>
      <trkpt lat="46.28463" lon="-0.35451">
        <ele>47.5422</ele>
        <time>2011-07-03T13:40:02Z</time>
      </trkpt>
      <trkpt lat="46.28462" lon="-0.3545">
        <ele>47.6105</ele>
        <time>2011-07-03T13:40:03Z</time>
      </trkpt>
      <trkpt lat="46.28462" lon="-0.35448">
        <ele>47.6798</ele>
        <time>2011-07-03T13:40:04Z</time>
      </trkpt>
      <trkpt lat="46.28462" lon="-0.35446">
        <ele>47.749</ele>
        <time>2011-07-03T13:40:05Z</time>
      </trkpt>
      <trkpt lat="46.28461" lon="-0.35445">
        <ele>47.8165</ele>
        <time>2011-07-03T13:40:06Z</time>
      </trkpt>
      <trkpt lat="46.2846" lon="-0.35443">
        <ele>47.8839</ele>
        <time>2011-07-03T13:40:07Z</time>
      </trkpt>
      <trkpt lat="46.2846" lon="-0.35441">
        <ele>47.9513</ele>
        <time>2011-07-03T13:40:08Z</time>
      </trkpt>
      <trkpt lat="46.2846" lon="-0.35439">
        <ele>48.0187</ele>
        <time>2011-07-03T13:40:09Z</time>
      </trkpt>
      <trkpt lat="46.28459" lon="-0.35437">
        <ele>48.0842</ele>
        <time>2011-07-03T13:40:10Z</time>
      </trkpt>
      <trkpt lat="46.28459" lon="-0.35436">
        <ele>48.15</ele>
        <time>2011-07-03T13:40:11Z</time>
      </trkpt>
      <trkpt lat="46.28458" lon="-0.35434">
        <ele>48.2167</ele>
        <time>2011-07-03T13:40:12Z</time>
      </trkpt>
      <trkpt lat="46.28458" lon="-0.35432">
        <ele>48.2885</ele>
        <time>2011-07-03T13:40:13Z</time>
      </trkpt>
      <trkpt lat="46.28457" lon="-0.3543">
        <ele>48.3632</ele>
        <time>2011-07-03T13:40:14Z</time>
      </trkpt>
      <trkpt lat="46.28457" lon="-0.35429">
        <ele>48.4409</ele>
        <time>2011-07-03T13:40:15Z</time>
      </trkpt>
      <trkpt lat="46.28456" lon="-0.35427">
        <ele>48.5176</ele>
        <time>2011-07-03T13:40:16Z</time>
      </trkpt>
      <trkpt lat="46.28455" lon="-0.35425">
        <ele>48.5925</ele>
        <time>2011-07-03T13:40:17Z</time>
      </trkpt>
      <trkpt lat="46.28455" lon="-0.35424">
        <ele>48.6655</ele>
        <time>2011-07-03T13:40:18Z</time>
      </trkpt>
      <trkpt lat="46.28454" lon="-0.35422">
        <ele>48.7379</ele>
        <time>2011-07-03T13:40:19Z</time>
      </trkpt>
      <trkpt lat="46.28453" lon="-0.3542">
        <ele>48.8105</ele>
        <time>2011-07-03T13:40:20Z</time>
      </trkpt>
      <trkpt lat="46.28453" lon="-0.35419">
        <ele>48.8805</ele>
        <time>2011-07-03T13:40:21Z</time>
      </trkpt>
      <trkpt lat="46.28453" lon="-0.35417">
        <ele>48.9494</ele>
        <time>2011-07-03T13:40:22Z</time>
      </trkpt>
      <trkpt lat="46.28452" lon="-0.35415">
        <ele>49.0183</ele>
        <time>2011-07-03T13:40:23Z</time>
      </trkpt>
      <trkpt lat="46.28452" lon="-0.35413">
        <ele>49.0865</ele>
        <time>2011-07-03T13:40:24Z</time>
      </trkpt>
      <trkpt lat="46.28452" lon="-0.35412">
        <ele>49.154</ele>
        <time>2011-07-03T13:40:25Z</time>
      </trkpt>
      <trkpt lat="46.28451" lon="-0.3541">
        <ele>49.2206</ele>
        <time>2011-07-03T13:40:26Z</time>
      </trkpt>
      <trkpt lat="46.2845" lon="-0.35409">
        <ele>49.287</ele>
        <time>2011-07-03T13:40:27Z</time>
      </trkpt>
      <trkpt lat="46.2845" lon="-0.35407">
        <ele>49.3533</ele>
        <time>2011-07-03T13:40:28Z</time>
      </trkpt>
      <trkpt lat="46.28449" lon="-0.35406">
        <ele>49.421</ele>
        <time>2011-07-03T13:40:29Z</time>
      </trkpt>
      <trkpt lat="46.28449" lon="-0.35404">
        <ele>49.49</ele>
        <time>2011-07-03T13:40:30Z</time>
      </trkpt>
      <trkpt lat="46.28448" lon="-0.35403">
        <ele>49.56</ele>
        <time>2011-07-03T13:40:31Z</time>
      </trkpt>
      <trkpt lat="46.28447" lon="-0.35401">
        <ele>49.6298</ele>
        <time>2011-07-03T13:40:32Z</time>
      </trkpt>
      <trkpt lat="46.28447" lon="-0.354">
        <ele>49.6974</ele>
        <time>2011-07-03T13:40:33Z</time>
      </trkpt>
      <trkpt lat="46.28446" lon="-0.35398">
        <ele>49.7639</ele>
        <time>2011-07-03T13:40:34Z</time>
      </trkpt>
      <trkpt lat="46.28445" lon="-0.35396">
        <ele>49.8291</ele>
        <time>2011-07-03T13:40:35Z</time>
      </trkpt>
      <trkpt lat="46.28445" lon="-0.35395">
        <ele>49.895</ele>
        <time>2011-07-03T13:40:36Z</time>
      </trkpt>
      <trkpt lat="46.28444" lon="-0.35393">
        <ele>49.9588</ele>
        <time>2011-07-03T13:40:37Z</time>
      </trkpt>
      <trkpt lat="46.28444" lon="-0.35391">
        <ele>50.0211</ele>
        <time>2011-07-03T13:40:38Z</time>
      </trkpt>
      <trkpt lat="46.28444" lon="-0.35389">
        <ele>50.0824</ele>
        <time>2011-07-03T13:40:39Z</time>
      </trkpt>
      <trkpt lat="46.28443" lon="-0.35388">
        <ele>50.1431</ele>
        <time>2011-07-03T13:40:40Z</time>
      </trkpt>
      <trkpt lat="46.28442" lon="-0.35386">
        <ele>50.2038</ele>
        <time>2011-07-03T13:40:41Z</time>
      </trkpt>
      <trkpt lat="46.28442" lon="-0.35384">
        <ele>50.2649</ele>
        <time>2011-07-03T13:40:42Z</time>
      </trkpt>
      <trkpt lat="46.28442" lon="-0.35382">
        <ele>50.3268</ele>
        <time>2011-07-03T13:40:43Z</time>
      </trkpt>
      <trkpt lat="46.28441" lon="-0.35381">
        <ele>50.3892</ele>
        <time>2011-07-03T13:40:44Z</time>
      </trkpt>
      <trkpt lat="46.28441" lon="-0.35379">
        <ele>50.4515</ele>
        <time>2011-07-03T13:40:45Z</time>
      </trkpt>
      <trkpt lat="46.2844" lon="-0.35378">
        <ele>50.5128</ele>
        <time>2011-07-03T13:40:46Z</time>
      </trkpt>
      <trkpt lat="46.2844" lon="-0.35376">
        <ele>50.5723</ele>
        <time>2011-07-03T13:40:47Z</time>
      </trkpt>
      <trkpt lat="46.28439" lon="-0.35375">
        <ele>50.6295</ele>
        <time>2011-07-03T13:40:48Z</time>
      </trkpt>
      <trkpt lat="46.28439" lon="-0.35374">
        <ele>50.6845</ele>
        <time>2011-07-03T13:40:49Z</time>
      </trkpt>
      <trkpt lat="46.28439" lon="-0.35372">
        <ele>50.7373</ele>
        <time>2011-07-03T13:40:51Z</time>
      </trkpt>
      <trkpt lat="46.28438" lon="-0.3537">
        <ele>50.7887</ele>
        <time>2011-07-03T13:40:51Z</time>
      </trkpt>
      <trkpt lat="46.28438" lon="-0.35368">
        <ele>50.836</ele>
        <time>2011-07-03T13:40:52Z</time>
      </trkpt>
      <trkpt lat="46.28437" lon="-0.35366">
        <ele>50.8819</ele>
        <time>2011-07-03T13:40:53Z</time>
      </trkpt>
      <trkpt lat="46.28437" lon="-0.35365">
        <ele>50.9269</ele>
        <time>2011-07-03T13:40:54Z</time>
      </trkpt>
      <trkpt lat="46.28436" lon="-0.35363">
        <ele>50.9715</ele>
        <time>2011-07-03T13:40:55Z</time>
      </trkpt>
      <trkpt lat="46.28436" lon="-0.3536">
        <ele>51.015</ele>
        <time>2011-07-03T13:40:56Z</time>
      </trkpt>
      <trkpt lat="46.28435" lon="-0.35358">
        <ele>51.0567</ele>
        <time>2011-07-03T13:40:57Z</time>
      </trkpt>
      <trkpt lat="46.28434" lon="-0.35356">
        <ele>51.0968</ele>
        <time>2011-07-03T13:40:58Z</time>
      </trkpt>
      <trkpt lat="46.28434" lon="-0.35354">
        <ele>51.1357</ele>
        <time>2011-07-03T13:40:59Z</time>
      </trkpt>
      <trkpt lat="46.28433" lon="-0.35352">
        <ele>51.1743</ele>
        <time>2011-07-03T13:41:00Z</time>
      </trkpt>
      <trkpt lat="46.28433" lon="-0.3535">
        <ele>51.212</ele>
        <time>2011-07-03T13:41:01Z</time>
      </trkpt>
      <trkpt lat="46.28432" lon="-0.35348">
        <ele>51.2486</ele>
        <time>2011-07-03T13:41:02Z</time>
      </trkpt>
      <trkpt lat="46.28431" lon="-0.35345">
        <ele>51.2842</ele>
        <time>2011-07-03T13:41:03Z</time>
      </trkpt>
      <trkpt lat="46.28431" lon="-0.35343">
        <ele>51.3185</ele>
        <time>2011-07-03T13:41:04Z</time>
      </trkpt>
      <trkpt lat="46.2843" lon="-0.35341">
        <ele>51.3513</ele>
        <time>2011-07-03T13:41:05Z</time>
      </trkpt>
      <trkpt lat="46.2843" lon="-0.35339">
        <ele>51.3821</ele>
        <time>2011-07-03T13:41:06Z</time>
      </trkpt>
      <trkpt lat="46.28429" lon="-0.35337">
        <ele>51.4126</ele>
        <time>2011-07-03T13:41:07Z</time>
      </trkpt>
      <trkpt lat="46.28429" lon="-0.35335">
        <ele>51.4427</ele>
        <time>2011-07-03T13:41:08Z</time>
      </trkpt>
      <trkpt lat="46.28429" lon="-0.35333">
        <ele>51.472</ele>
        <time>2011-07-03T13:41:09Z</time>
      </trkpt>
      <trkpt lat="46.28428" lon="-0.35332">
        <ele>51.5011</ele>
        <time>2011-07-03T13:41:10Z</time>
      </trkpt>
      <trkpt lat="46.28427" lon="-0.3533">
        <ele>51.529</ele>
        <time>2011-07-03T13:41:11Z</time>
      </trkpt>
      <trkpt lat="46.28426" lon="-0.35329">
        <ele>51.5574</ele>
        <time>2011-07-03T13:41:12Z</time>
      </trkpt>
      <trkpt lat="46.28425" lon="-0.35327">
        <ele>51.5855</ele>
        <time>2011-07-03T13:41:13Z</time>
      </trkpt>
      <trkpt lat="46.28424" lon="-0.35326">
        <ele>51.6127</ele>
        <time>2011-07-03T13:41:14Z</time>
      </trkpt>
      <trkpt lat="46.28423" lon="-0.35324">
        <ele>51.6383</ele>
        <time>2011-07-03T13:41:15Z</time>
      </trkpt>
      <trkpt lat="46.28423" lon="-0.35322">
        <ele>51.6626</ele>
        <time>2011-07-03T13:41:16Z</time>
      </trkpt>
      <trkpt lat="46.28422" lon="-0.35321">
        <ele>51.6857</ele>
        <time>2011-07-03T13:41:17Z</time>
      </trkpt>
      <trkpt lat="46.28421" lon="-0.35319">
        <ele>51.7076</ele>
        <time>2011-07-03T13:41:18Z</time>
      </trkpt>
      <trkpt lat="46.28421" lon="-0.35318">
        <ele>51.7282</ele>
        <time>2011-07-03T13:41:19Z</time>
      </trkpt>
      <trkpt lat="46.2842" lon="-0.35316">
        <ele>51.7462</ele>
        <time>2011-07-03T13:41:20Z</time>
      </trkpt>
      <trkpt lat="46.2842" lon="-0.35315">
        <ele>51.7634</ele>
        <time>2011-07-03T13:41:21Z</time>
      </trkpt>
      <trkpt lat="46.2842" lon="-0.35313">
        <ele>51.7793</ele>
        <time>2011-07-03T13:41:22Z</time>
      </trkpt>
      <trkpt lat="46.2842" lon="-0.35312">
        <ele>51.7944</ele>
        <time>2011-07-03T13:41:23Z</time>
      </trkpt>
      <trkpt lat="46.2842" lon="-0.35311">
        <ele>51.8115</ele>
        <time>2011-07-03T13:41:24Z</time>
      </trkpt>
      <trkpt lat="46.2842" lon="-0.3531">
        <ele>51.8292</ele>
        <time>2011-07-03T13:41:25Z</time>
      </trkpt>
      <trkpt lat="46.28419" lon="-0.35309">
        <ele>51.8497</ele>
        <time>2011-07-03T13:41:26Z</time>
      </trkpt>
      <trkpt lat="46.28418" lon="-0.35308">
        <ele>51.8698</ele>
        <time>2011-07-03T13:41:27Z</time>
      </trkpt>
      <trkpt lat="46.28418" lon="-0.35306">
        <ele>51.8883</ele>
        <time>2011-07-03T13:41:28Z</time>
      </trkpt>
      <trkpt lat="46.28418" lon="-0.35304">
        <ele>51.9075</ele>
        <time>2011-07-03T13:41:29Z</time>
      </trkpt>
      <trkpt lat="46.28417" lon="-0.35302">
        <ele>51.9275</ele>
        <time>2011-07-03T13:41:30Z</time>
      </trkpt>
      <trkpt lat="46.28416" lon="-0.353">
        <ele>51.945</ele>
        <time>2011-07-03T13:41:31Z</time>
      </trkpt>
      <trkpt lat="46.28416" lon="-0.35299">
        <ele>51.9619</ele>
        <time>2011-07-03T13:41:32Z</time>
      </trkpt>
      <trkpt lat="46.28415" lon="-0.35297">
        <ele>51.9764</ele>
        <time>2011-07-03T13:41:33Z</time>
      </trkpt>
      <trkpt lat="46.28415" lon="-0.35295">
        <ele>51.9853</ele>
        <time>2011-07-03T13:41:34Z</time>
      </trkpt>
      <trkpt lat="46.28415" lon="-0.35293">
        <ele>51.9923</ele>
        <time>2011-07-03T13:41:35Z</time>
      </trkpt>
      <trkpt lat="46.28414" lon="-0.35291">
        <ele>51.9995</ele>
        <time>2011-07-03T13:41:36Z</time>
      </trkpt>
      <trkpt lat="46.28413" lon="-0.35289">
        <ele>52.0113</ele>
        <time>2011-07-03T13:41:37Z</time>
      </trkpt>
      <trkpt lat="46.28413" lon="-0.35287">
        <ele>52.027</ele>
        <time>2011-07-03T13:41:38Z</time>
      </trkpt>
      <trkpt lat="46.28413" lon="-0.35285">
        <ele>52.0375</ele>
        <time>2011-07-03T13:41:39Z</time>
      </trkpt>
      <trkpt lat="46.28412" lon="-0.35283">
        <ele>52.0448</ele>
        <time>2011-07-03T13:41:40Z</time>
      </trkpt>
      <trkpt lat="46.28412" lon="-0.35281">
        <ele>52.0486</ele>
        <time>2011-07-03T13:41:41Z</time>
      </trkpt>
      <trkpt lat="46.28411" lon="-0.35279">
        <ele>52.0553</ele>
        <time>2011-07-03T13:41:42Z</time>
      </trkpt>
      <trkpt lat="46.2841" lon="-0.35277">
        <ele>52.0604</ele>
        <time>2011-07-03T13:41:43Z</time>
      </trkpt>
      <trkpt lat="46.2841" lon="-0.35275">
        <ele>52.0645</ele>
        <time>2011-07-03T13:41:44Z</time>
      </trkpt>
      <trkpt lat="46.28409" lon="-0.35273">
        <ele>52.067</ele>
        <time>2011-07-03T13:41:45Z</time>
      </trkpt>
      <trkpt lat="46.28409" lon="-0.35271">
        <ele>52.067</ele>
        <time>2011-07-03T13:41:46Z</time>
      </trkpt>
      <trkpt lat="46.28408" lon="-0.35269">
        <ele>52.0694</ele>
        <time>2011-07-03T13:41:47Z</time>
      </trkpt>
      <trkpt lat="46.28408" lon="-0.35267">
        <ele>52.0753</ele>
        <time>2011-07-03T13:41:48Z</time>
      </trkpt>
      <trkpt lat="46.28408" lon="-0.35265">
        <ele>52.0818</ele>
        <time>2011-07-03T13:41:49Z</time>
      </trkpt>
      <trkpt lat="46.28407" lon="-0.35263">
        <ele>52.0878</ele>
        <time>2011-07-03T13:41:50Z</time>
      </trkpt>
      <trkpt lat="46.28407" lon="-0.35261">
        <ele>52.0927</ele>
        <time>2011-07-03T13:41:51Z</time>
      </trkpt>
      <trkpt lat="46.28406" lon="-0.35259">
        <ele>52.1009</ele>
        <time>2011-07-03T13:41:52Z</time>
      </trkpt>
      <trkpt lat="46.28405" lon="-0.35257">
        <ele>52.1085</ele>
        <time>2011-07-03T13:41:53Z</time>
      </trkpt>
      <trkpt lat="46.28405" lon="-0.35255">
        <ele>52.1155</ele>
        <time>2011-07-03T13:41:54Z</time>
      </trkpt>
      <trkpt lat="46.28404" lon="-0.35253">
        <ele>52.1218</ele>
        <time>2011-07-03T13:41:55Z</time>
      </trkpt>
      <trkpt lat="46.28404" lon="-0.35251">
        <ele>52.1362</ele>
        <time>2011-07-03T13:41:56Z</time>
      </trkpt>
      <trkpt lat="46.28403" lon="-0.35249">
        <ele>52.1494</ele>
        <time>2011-07-03T13:41:57Z</time>
      </trkpt>
      <trkpt lat="46.28403" lon="-0.35248">
        <ele>52.1639</ele>
        <time>2011-07-03T13:41:58Z</time>
      </trkpt>
      <trkpt lat="46.28402" lon="-0.35246">
        <ele>52.1754</ele>
        <time>2011-07-03T13:41:59Z</time>
      </trkpt>
      <trkpt lat="46.28402" lon="-0.35244">
        <ele>52.185</ele>
        <time>2011-07-03T13:42:00Z</time>
      </trkpt>
      <trkpt lat="46.28401" lon="-0.35242">
        <ele>52.1925</ele>
        <time>2011-07-03T13:42:01Z</time>
      </trkpt>
      <trkpt lat="46.28401" lon="-0.35241">
        <ele>52.1984</ele>
        <time>2011-07-03T13:42:02Z</time>
      </trkpt>
      <trkpt lat="46.284" lon="-0.35239">
        <ele>52.2034</ele>
        <time>2011-07-03T13:42:03Z</time>
      </trkpt>
      <trkpt lat="46.284" lon="-0.35238">
        <ele>52.2045</ele>
        <time>2011-07-03T13:42:04Z</time>
      </trkpt>
      <trkpt lat="46.284" lon="-0.35236">
        <ele>52.2055</ele>
        <time>2011-07-03T13:42:05Z</time>
      </trkpt>
      <trkpt lat="46.28399" lon="-0.35235">
        <ele>52.2065</ele>
        <time>2011-07-03T13:42:06Z</time>
      </trkpt>
      <trkpt lat="46.28399" lon="-0.35233">
        <ele>52.2087</ele>
        <time>2011-07-03T13:42:07Z</time>
      </trkpt>
      <trkpt lat="46.28398" lon="-0.35231">
        <ele>52.2105</ele>
        <time>2011-07-03T13:42:08Z</time>
      </trkpt>
      <trkpt lat="46.28398" lon="-0.35229">
        <ele>52.2138</ele>
        <time>2011-07-03T13:42:09Z</time>
      </trkpt>
      <trkpt lat="46.28397" lon="-0.35227">
        <ele>52.2167</ele>
        <time>2011-07-03T13:42:10Z</time>
      </trkpt>
      <trkpt lat="46.28397" lon="-0.35225">
        <ele>52.2194</ele>
        <time>2011-07-03T13:42:11Z</time>
      </trkpt>
      <trkpt lat="46.28396" lon="-0.35223">
        <ele>52.2237</ele>
        <time>2011-07-03T13:42:12Z</time>
      </trkpt>
      <trkpt lat="46.28396" lon="-0.35221">
        <ele>52.2282</ele>
        <time>2011-07-03T13:42:13Z</time>
      </trkpt>
      <trkpt lat="46.28395" lon="-0.35219">
        <ele>52.2339</ele>
        <time>2011-07-03T13:42:14Z</time>
      </trkpt>
      <trkpt lat="46.28394" lon="-0.35217">
        <ele>52.2383</ele>
        <time>2011-07-03T13:42:15Z</time>
      </trkpt>
      <trkpt lat="46.28394" lon="-0.35216">
        <ele>52.2428</ele>
        <time>2011-07-03T13:42:16Z</time>
      </trkpt>
      <trkpt lat="46.28393" lon="-0.35214">
        <ele>52.2458</ele>
        <time>2011-07-03T13:42:17Z</time>
      </trkpt>
      <trkpt lat="46.28393" lon="-0.35212">
        <ele>52.2486</ele>
        <time>2011-07-03T13:42:18Z</time>
      </trkpt>
      <trkpt lat="46.28392" lon="-0.35211">
        <ele>52.2517</ele>
        <time>2011-07-03T13:42:19Z</time>
      </trkpt>
      <trkpt lat="46.28392" lon="-0.35209">
        <ele>52.2526</ele>
        <time>2011-07-03T13:42:20Z</time>
      </trkpt>
      <trkpt lat="46.28392" lon="-0.35207">
        <ele>52.2524</ele>
        <time>2011-07-03T13:42:21Z</time>
      </trkpt>
      <trkpt lat="46.28391" lon="-0.35205">
        <ele>52.2517</ele>
        <time>2011-07-03T13:42:22Z</time>
      </trkpt>
      <trkpt lat="46.2839" lon="-0.35203">
        <ele>52.254</ele>
        <time>2011-07-03T13:42:23Z</time>
      </trkpt>
      <trkpt lat="46.2839" lon="-0.35201">
        <ele>52.2558</ele>
        <time>2011-07-03T13:42:24Z</time>
      </trkpt>
      <trkpt lat="46.28389" lon="-0.35199">
        <ele>52.2569</ele>
        <time>2011-07-03T13:42:25Z</time>
      </trkpt>
      <trkpt lat="46.28389" lon="-0.35198">
        <ele>52.2578</ele>
        <time>2011-07-03T13:42:26Z</time>
      </trkpt>
      <trkpt lat="46.28388" lon="-0.35196">
        <ele>52.2575</ele>
        <time>2011-07-03T13:42:27Z</time>
      </trkpt>
      <trkpt lat="46.28388" lon="-0.35194">
        <ele>52.2601</ele>
        <time>2011-07-03T13:42:28Z</time>
      </trkpt>
      <trkpt lat="46.28388" lon="-0.35192">
        <ele>52.263</ele>
        <time>2011-07-03T13:42:29Z</time>
      </trkpt>
      <trkpt lat="46.28387" lon="-0.35191">
        <ele>52.2659</ele>
        <time>2011-07-03T13:42:30Z</time>
      </trkpt>
      <trkpt lat="46.28386" lon="-0.35189">
        <ele>52.2689</ele>
        <time>2011-07-03T13:42:31Z</time>
      </trkpt>
      <trkpt lat="46.28386" lon="-0.35187">
        <ele>52.2706</ele>
        <time>2011-07-03T13:42:32Z</time>
      </trkpt>
      <trkpt lat="46.28386" lon="-0.35186">
        <ele>52.2728</ele>
        <time>2011-07-03T13:42:33Z</time>
      </trkpt>
      <trkpt lat="46.28386" lon="-0.35184">
        <ele>52.2758</ele>
        <time>2011-07-03T13:42:34Z</time>
      </trkpt>
      <trkpt lat="46.28385" lon="-0.35182">
        <ele>52.2776</ele>
        <time>2011-07-03T13:42:35Z</time>
      </trkpt>
      <trkpt lat="46.28384" lon="-0.3518">
        <ele>52.2809</ele>
        <time>2011-07-03T13:42:36Z</time>
      </trkpt>
      <trkpt lat="46.28384" lon="-0.35178">
        <ele>52.2839</ele>
        <time>2011-07-03T13:42:37Z</time>
      </trkpt>
      <trkpt lat="46.28384" lon="-0.35176">
        <ele>52.2866</ele>
        <time>2011-07-03T13:42:38Z</time>
      </trkpt>
      <trkpt lat="46.28383" lon="-0.35174">
        <ele>52.2903</ele>
        <time>2011-07-03T13:42:39Z</time>
      </trkpt>
      <trkpt lat="46.28383" lon="-0.35172">
        <ele>52.2936</ele>
        <time>2011-07-03T13:42:40Z</time>
      </trkpt>
      <trkpt lat="46.28382" lon="-0.3517">
        <ele>52.2969</ele>
        <time>2011-07-03T13:42:41Z</time>
      </trkpt>
      <trkpt lat="46.28381" lon="-0.35168">
        <ele>52.2993</ele>
        <time>2011-07-03T13:42:42Z</time>
      </trkpt>
      <trkpt lat="46.28381" lon="-0.35167">
        <ele>52.3013</ele>
        <time>2011-07-03T13:42:43Z</time>
      </trkpt>
      <trkpt lat="46.2838" lon="-0.35165">
        <ele>52.3036</ele>
        <time>2011-07-03T13:42:44Z</time>
      </trkpt>
      <trkpt lat="46.28379" lon="-0.35163">
        <ele>52.3077</ele>
        <time>2011-07-03T13:42:45Z</time>
      </trkpt>
      <trkpt lat="46.28379" lon="-0.35162">
        <ele>52.3145</ele>
        <time>2011-07-03T13:42:46Z</time>
      </trkpt>
      <trkpt lat="46.28378" lon="-0.3516">
        <ele>52.3238</ele>
        <time>2011-07-03T13:42:47Z</time>
      </trkpt>
      <trkpt lat="46.28377" lon="-0.35159">
        <ele>52.3354</ele>
        <time>2011-07-03T13:42:48Z</time>
      </trkpt>
      <trkpt lat="46.28377" lon="-0.35157">
        <ele>52.3477</ele>
        <time>2011-07-03T13:42:49Z</time>
      </trkpt>
      <trkpt lat="46.28376" lon="-0.35156">
        <ele>52.3618</ele>
        <time>2011-07-03T13:42:50Z</time>
      </trkpt>
      <trkpt lat="46.28376" lon="-0.35154">
        <ele>52.378</ele>
        <time>2011-07-03T13:42:51Z</time>
      </trkpt>
      <trkpt lat="46.28375" lon="-0.35152">
        <ele>52.3941</ele>
        <time>2011-07-03T13:42:52Z</time>
      </trkpt>
      <trkpt lat="46.28374" lon="-0.35151">
        <ele>52.4102</ele>
        <time>2011-07-03T13:42:53Z</time>
      </trkpt>
      <trkpt lat="46.28374" lon="-0.35149">
        <ele>52.4251</ele>
        <time>2011-07-03T13:42:54Z</time>
      </trkpt>
      <trkpt lat="46.28373" lon="-0.35147">
        <ele>52.439</ele>
        <time>2011-07-03T13:42:55Z</time>
      </trkpt>
      <trkpt lat="46.28373" lon="-0.35145">
        <ele>52.4528</ele>
        <time>2011-07-03T13:42:56Z</time>
      </trkpt>
      <trkpt lat="46.28372" lon="-0.35143">
        <ele>52.4666</ele>
        <time>2011-07-03T13:42:57Z</time>
      </trkpt>
      <trkpt lat="46.28371" lon="-0.35142">
        <ele>52.4797</ele>
        <time>2011-07-03T13:42:58Z</time>
      </trkpt>
      <trkpt lat="46.28371" lon="-0.3514">
        <ele>52.4955</ele>
        <time>2011-07-03T13:42:59Z</time>
      </trkpt>
      <trkpt lat="46.28371" lon="-0.35138">
        <ele>52.5111</ele>
        <time>2011-07-03T13:43:00Z</time>
      </trkpt>
      <trkpt lat="46.2837" lon="-0.35137">
        <ele>52.528</ele>
        <time>2011-07-03T13:43:01Z</time>
      </trkpt>
      <trkpt lat="46.28369" lon="-0.35135">
        <ele>52.5443</ele>
        <time>2011-07-03T13:43:02Z</time>
      </trkpt>
      <trkpt lat="46.28369" lon="-0.35133">
        <ele>52.5609</ele>
        <time>2011-07-03T13:43:03Z</time>
      </trkpt>
      <trkpt lat="46.28368" lon="-0.35132">
        <ele>52.592</ele>
        <time>2011-07-03T13:43:04Z</time>
      </trkpt>
      <trkpt lat="46.28368" lon="-0.3513">
        <ele>52.6223</ele>
        <time>2011-07-03T13:43:05Z</time>
      </trkpt>
      <trkpt lat="46.28367" lon="-0.35128">
        <ele>52.6537</ele>
        <time>2011-07-03T13:43:06Z</time>
      </trkpt>
      <trkpt lat="46.28367" lon="-0.35127">
        <ele>52.679</ele>
        <time>2011-07-03T13:43:07Z</time>
      </trkpt>
      <trkpt lat="46.28366" lon="-0.35125">
        <ele>52.703</ele>
        <time>2011-07-03T13:43:08Z</time>
      </trkpt>
      <trkpt lat="46.28365" lon="-0.35123">
        <ele>52.7281</ele>
        <time>2011-07-03T13:43:09Z</time>
      </trkpt>
      <trkpt lat="46.28364" lon="-0.35121">
        <ele>52.7554</ele>
        <time>2011-07-03T13:43:10Z</time>
      </trkpt>
      <trkpt lat="46.28364" lon="-0.35119">
        <ele>52.7878</ele>
        <time>2011-07-03T13:43:11Z</time>
      </trkpt>
      <trkpt lat="46.28363" lon="-0.35118">
        <ele>52.8195</ele>
        <time>2011-07-03T13:43:12Z</time>
      </trkpt>
      <trkpt lat="46.28362" lon="-0.35116">
        <ele>52.8527</ele>
        <time>2011-07-03T13:43:13Z</time>
      </trkpt>
      <trkpt lat="46.28362" lon="-0.35114">
        <ele>52.887</ele>
        <time>2011-07-03T13:43:14Z</time>
      </trkpt>
      <trkpt lat="46.28361" lon="-0.35113">
        <ele>52.9195</ele>
        <time>2011-07-03T13:43:15Z</time>
      </trkpt>
      <trkpt lat="46.2836" lon="-0.35111">
        <ele>52.9543</ele>
        <time>2011-07-03T13:43:16Z</time>
      </trkpt>
      <trkpt lat="46.2836" lon="-0.3511">
        <ele>52.9884</ele>
        <time>2011-07-03T13:43:17Z</time>
      </trkpt>
      <trkpt lat="46.28359" lon="-0.35108">
        <ele>53.0232</ele>
        <time>2011-07-03T13:43:18Z</time>
      </trkpt>
      <trkpt lat="46.28359" lon="-0.35107">
        <ele>53.0656</ele>
        <time>2011-07-03T13:43:19Z</time>
      </trkpt>
      <trkpt lat="46.28359" lon="-0.35105">
        <ele>53.1072</ele>
        <time>2011-07-03T13:43:20Z</time>
      </trkpt>
      <trkpt lat="46.28358" lon="-0.35103">
        <ele>53.1483</ele>
        <time>2011-07-03T13:43:21Z</time>
      </trkpt>
      <trkpt lat="46.28357" lon="-0.35102">
        <ele>53.1894</ele>
        <time>2011-07-03T13:43:22Z</time>
      </trkpt>
      <trkpt lat="46.28357" lon="-0.35101">
        <ele>53.2299</ele>
        <time>2011-07-03T13:43:23Z</time>
      </trkpt>
      <trkpt lat="46.28356" lon="-0.35099">
        <ele>53.2683</ele>
        <time>2011-07-03T13:43:24Z</time>
      </trkpt>
      <trkpt lat="46.28355" lon="-0.35098">
        <ele>53.3048</ele>
        <time>2011-07-03T13:43:25Z</time>
      </trkpt>
      <trkpt lat="46.28355" lon="-0.35096">
        <ele>53.331</ele>
        <time>2011-07-03T13:43:26Z</time>
      </trkpt>
      <trkpt lat="46.28354" lon="-0.35095">
        <ele>53.3574</ele>
        <time>2011-07-03T13:43:27Z</time>
      </trkpt>
      <trkpt lat="46.28354" lon="-0.35092">
        <ele>53.3798</ele>
        <time>2011-07-03T13:43:28Z</time>
      </trkpt>
      <trkpt lat="46.28353" lon="-0.3509">
        <ele>53.4034</ele>
        <time>2011-07-03T13:43:29Z</time>
      </trkpt>
      <trkpt lat="46.28352" lon="-0.35087">
        <ele>53.428</ele>
        <time>2011-07-03T13:43:30Z</time>
      </trkpt>
      <trkpt lat="46.2835" lon="-0.35085">
        <ele>53.428</ele>
        <time>2011-07-03T13:43:31Z</time>
      </trkpt>
      <trkpt lat="46.28351" lon="-0.35084">
        <ele>53.4513</ele>
        <time>2011-07-03T13:43:32Z</time>
      </trkpt>
      <trkpt lat="46.2835" lon="-0.35082">
        <ele>53.474</ele>
        <time>2011-07-03T13:43:33Z</time>
      </trkpt>
      <trkpt lat="46.2835" lon="-0.3508">
        <ele>53.4944</ele>
        <time>2011-07-03T13:43:34Z</time>
      </trkpt>
      <trkpt lat="46.2835" lon="-0.35079">
        <ele>53.5129</ele>
        <time>2011-07-03T13:43:35Z</time>
      </trkpt>
      <trkpt lat="46.2835" lon="-0.35077">
        <ele>53.5314</ele>
        <time>2011-07-03T13:43:36Z</time>
      </trkpt>
      <trkpt lat="46.28349" lon="-0.35075">
        <ele>53.5497</ele>
        <time>2011-07-03T13:43:37Z</time>
      </trkpt>
      <trkpt lat="46.28349" lon="-0.35074">
        <ele>53.5649</ele>
        <time>2011-07-03T13:43:38Z</time>
      </trkpt>
      <trkpt lat="46.28349" lon="-0.35072">
        <ele>53.577</ele>
        <time>2011-07-03T13:43:39Z</time>
      </trkpt>
      <trkpt lat="46.28349" lon="-0.35071">
        <ele>53.584</ele>
        <time>2011-07-03T13:43:40Z</time>
      </trkpt>
      <trkpt lat="46.28348" lon="-0.3507">
        <ele>53.587</ele>
        <time>2011-07-03T13:43:41Z</time>
      </trkpt>
      <trkpt lat="46.28348" lon="-0.35068">
        <ele>53.592</ele>
        <time>2011-07-03T13:43:42Z</time>
      </trkpt>
      <trkpt lat="46.28348" lon="-0.35067">
        <ele>53.5993</ele>
        <time>2011-07-03T13:43:43Z</time>
      </trkpt>
      <trkpt lat="46.28347" lon="-0.35065">
        <ele>53.6081</ele>
        <time>2011-07-03T13:43:44Z</time>
      </trkpt>
      <trkpt lat="46.28347" lon="-0.35064">
        <ele>53.615</ele>
        <time>2011-07-03T13:43:45Z</time>
      </trkpt>
      <trkpt lat="46.28347" lon="-0.35062">
        <ele>53.6203</ele>
        <time>2011-07-03T13:43:46Z</time>
      </trkpt>
      <trkpt lat="46.28347" lon="-0.3506">
        <ele>53.6238</ele>
        <time>2011-07-03T13:43:47Z</time>
      </trkpt>
      <trkpt lat="46.28346" lon="-0.35058">
        <ele>53.6272</ele>
        <time>2011-07-03T13:43:48Z</time>
      </trkpt>
      <trkpt lat="46.28346" lon="-0.35056">
        <ele>53.632</ele>
        <time>2011-07-03T13:43:49Z</time>
      </trkpt>
      <trkpt lat="46.28346" lon="-0.35055">
        <ele>53.6364</ele>
        <time>2011-07-03T13:43:50Z</time>
      </trkpt>
      <trkpt lat="46.28345" lon="-0.35053">
        <ele>53.6405</ele>
        <time>2011-07-03T13:43:51Z</time>
      </trkpt>
      <trkpt lat="46.28345" lon="-0.35051">
        <ele>53.6421</ele>
        <time>2011-07-03T13:43:52Z</time>
      </trkpt>
      <trkpt lat="46.28345" lon="-0.3505">
        <ele>53.6457</ele>
        <time>2011-07-03T13:43:53Z</time>
      </trkpt>
      <trkpt lat="46.28344" lon="-0.35048">
        <ele>53.6514</ele>
        <time>2011-07-03T13:43:54Z</time>
      </trkpt>
      <trkpt lat="46.28344" lon="-0.35046">
        <ele>53.6563</ele>
        <time>2011-07-03T13:43:55Z</time>
      </trkpt>
      <trkpt lat="46.28343" lon="-0.35044">
        <ele>53.6614</ele>
        <time>2011-07-03T13:43:56Z</time>
      </trkpt>
      <trkpt lat="46.28343" lon="-0.35042">
        <ele>53.6649</ele>
        <time>2011-07-03T13:43:57Z</time>
      </trkpt>
      <trkpt lat="46.28342" lon="-0.3504">
        <ele>53.6687</ele>
        <time>2011-07-03T13:43:58Z</time>
      </trkpt>
      <trkpt lat="46.28342" lon="-0.35038">
        <ele>53.6719</ele>
        <time>2011-07-03T13:43:59Z</time>
      </trkpt>
      <trkpt lat="46.28342" lon="-0.35036">
        <ele>53.6711</ele>
        <time>2011-07-03T13:44:00Z</time>
      </trkpt>
      <trkpt lat="46.28341" lon="-0.35034">
        <ele>53.6715</ele>
        <time>2011-07-03T13:44:01Z</time>
      </trkpt>
      <trkpt lat="46.28341" lon="-0.35032">
        <ele>53.669</ele>
        <time>2011-07-03T13:44:02Z</time>
      </trkpt>
      <trkpt lat="46.2834" lon="-0.3503">
        <ele>53.6664</ele>
        <time>2011-07-03T13:44:03Z</time>
      </trkpt>
      <trkpt lat="46.2834" lon="-0.35029">
        <ele>53.6624</ele>
        <time>2011-07-03T13:44:04Z</time>
      </trkpt>
      <trkpt lat="46.28339" lon="-0.35027">
        <ele>53.6587</ele>
        <time>2011-07-03T13:44:05Z</time>
      </trkpt>
      <trkpt lat="46.28339" lon="-0.35026">
        <ele>53.6557</ele>
        <time>2011-07-03T13:44:06Z</time>
      </trkpt>
      <trkpt lat="46.28339" lon="-0.35024">
        <ele>53.6523</ele>
        <time>2011-07-03T13:44:07Z</time>
      </trkpt>
      <trkpt lat="46.28339" lon="-0.35022">
        <ele>53.6494</ele>
        <time>2011-07-03T13:44:08Z</time>
      </trkpt>
      <trkpt lat="46.28338" lon="-0.35021">
        <ele>53.648</ele>
        <time>2011-07-03T13:44:09Z</time>
      </trkpt>
      <trkpt lat="46.28338" lon="-0.35019">
        <ele>53.6486</ele>
        <time>2011-07-03T13:44:10Z</time>
      </trkpt>
      <trkpt lat="46.28338" lon="-0.35017">
        <ele>53.6456</ele>
        <time>2011-07-03T13:44:11Z</time>
      </trkpt>
      <trkpt lat="46.28337" lon="-0.35015">
        <ele>53.6428</ele>
        <time>2011-07-03T13:44:12Z</time>
      </trkpt>
      <trkpt lat="46.28337" lon="-0.35014">
        <ele>53.6406</ele>
        <time>2011-07-03T13:44:13Z</time>
      </trkpt>
      <trkpt lat="46.28336" lon="-0.35012">
        <ele>53.639</ele>
        <time>2011-07-03T13:44:14Z</time>
      </trkpt>
      <trkpt lat="46.28336" lon="-0.3501">
        <ele>53.6363</ele>
        <time>2011-07-03T13:44:15Z</time>
      </trkpt>
      <trkpt lat="46.28336" lon="-0.35009">
        <ele>53.6345</ele>
        <time>2011-07-03T13:44:16Z</time>
      </trkpt>
      <trkpt lat="46.28335" lon="-0.35007">
        <ele>53.6344</ele>
        <time>2011-07-03T13:44:17Z</time>
      </trkpt>
      <trkpt lat="46.28335" lon="-0.35006">
        <ele>53.6331</ele>
        <time>2011-07-03T13:44:18Z</time>
      </trkpt>
      <trkpt lat="46.28334" lon="-0.35004">
        <ele>53.6329</ele>
        <time>2011-07-03T13:44:19Z</time>
      </trkpt>
      <trkpt lat="46.28334" lon="-0.35002">
        <ele>53.6296</ele>
        <time>2011-07-03T13:44:20Z</time>
      </trkpt>
      <trkpt lat="46.28333" lon="-0.35">
        <ele>53.6258</ele>
        <time>2011-07-03T13:44:21Z</time>
      </trkpt>
      <trkpt lat="46.28333" lon="-0.34998">
        <ele>53.6203</ele>
        <time>2011-07-03T13:44:22Z</time>
      </trkpt>
      <trkpt lat="46.28332" lon="-0.34996">
        <ele>53.6169</ele>
        <time>2011-07-03T13:44:23Z</time>
      </trkpt>
      <trkpt lat="46.28332" lon="-0.34994">
        <ele>53.6141</ele>
        <time>2011-07-03T13:44:24Z</time>
      </trkpt>
      <trkpt lat="46.28331" lon="-0.34993">
        <ele>53.6138</ele>
        <time>2011-07-03T13:44:25Z</time>
      </trkpt>
      <trkpt lat="46.28331" lon="-0.34991">
        <ele>53.6115</ele>
        <time>2011-07-03T13:44:26Z</time>
      </trkpt>
      <trkpt lat="46.2833" lon="-0.34989">
        <ele>53.6088</ele>
        <time>2011-07-03T13:44:27Z</time>
      </trkpt>
      <trkpt lat="46.2833" lon="-0.34988">
        <ele>53.605</ele>
        <time>2011-07-03T13:44:28Z</time>
      </trkpt>
      <trkpt lat="46.2833" lon="-0.34986">
        <ele>53.5995</ele>
        <time>2011-07-03T13:44:29Z</time>
      </trkpt>
      <trkpt lat="46.2833" lon="-0.34985">
        <ele>53.5932</ele>
        <time>2011-07-03T13:44:30Z</time>
      </trkpt>
      <trkpt lat="46.28329" lon="-0.34983">
        <ele>53.585</ele>
        <time>2011-07-03T13:44:31Z</time>
      </trkpt>
      <trkpt lat="46.28328" lon="-0.34981">
        <ele>53.5772</ele>
        <time>2011-07-03T13:44:32Z</time>
      </trkpt>
      <trkpt lat="46.28328" lon="-0.34979">
        <ele>53.5679</ele>
        <time>2011-07-03T13:44:33Z</time>
      </trkpt>
      <trkpt lat="46.28328" lon="-0.34978">
        <ele>53.5586</ele>
        <time>2011-07-03T13:44:34Z</time>
      </trkpt>
      <trkpt lat="46.28327" lon="-0.34976">
        <ele>53.5499</ele>
        <time>2011-07-03T13:44:35Z</time>
      </trkpt>
      <trkpt lat="46.28326" lon="-0.34974">
        <ele>53.5416</ele>
        <time>2011-07-03T13:44:36Z</time>
      </trkpt>
      <trkpt lat="46.28326" lon="-0.34973">
        <ele>53.5331</ele>
        <time>2011-07-03T13:44:37Z</time>
      </trkpt>
      <trkpt lat="46.28325" lon="-0.34971">
        <ele>53.5258</ele>
        <time>2011-07-03T13:44:38Z</time>
      </trkpt>
      <trkpt lat="46.28325" lon="-0.34969">
        <ele>53.5205</ele>
        <time>2011-07-03T13:44:39Z</time>
      </trkpt>
      <trkpt lat="46.28325" lon="-0.34968">
        <ele>53.5144</ele>
        <time>2011-07-03T13:44:40Z</time>
      </trkpt>
      <trkpt lat="46.28324" lon="-0.34966">
        <ele>53.506</ele>
        <time>2011-07-03T13:44:41Z</time>
      </trkpt>
      <trkpt lat="46.28324" lon="-0.34965">
        <ele>53.4986</ele>
        <time>2011-07-03T13:44:42Z</time>
      </trkpt>
      <trkpt lat="46.28323" lon="-0.34963">
        <ele>53.4916</ele>
        <time>2011-07-03T13:44:43Z</time>
      </trkpt>
      <trkpt lat="46.28323" lon="-0.34961">
        <ele>53.4842</ele>
        <time>2011-07-03T13:44:44Z</time>
      </trkpt>
      <trkpt lat="46.28323" lon="-0.34959">
        <ele>53.4755</ele>
        <time>2011-07-03T13:44:45Z</time>
      </trkpt>
      <trkpt lat="46.28322" lon="-0.34957">
        <ele>53.4676</ele>
        <time>2011-07-03T13:44:46Z</time>
      </trkpt>
      <trkpt lat="46.28322" lon="-0.34955">
        <ele>53.4594</ele>
        <time>2011-07-03T13:44:47Z</time>
      </trkpt>
      <trkpt lat="46.28321" lon="-0.34953">
        <ele>53.4513</ele>
        <time>2011-07-03T13:44:48Z</time>
      </trkpt>
      <trkpt lat="46.28321" lon="-0.34952">
        <ele>53.443</ele>
        <time>2011-07-03T13:44:49Z</time>
      </trkpt>
      <trkpt lat="46.2832" lon="-0.3495">
        <ele>53.4349</ele>
        <time>2011-07-03T13:44:50Z</time>
      </trkpt>
      <trkpt lat="46.2832" lon="-0.34948">
        <ele>53.4261</ele>
        <time>2011-07-03T13:44:51Z</time>
      </trkpt>
      <trkpt lat="46.28319" lon="-0.34946">
        <ele>53.4179</ele>
        <time>2011-07-03T13:44:52Z</time>
      </trkpt>
      <trkpt lat="46.28319" lon="-0.34945">
        <ele>53.4115</ele>
        <time>2011-07-03T13:44:53Z</time>
      </trkpt>
      <trkpt lat="46.28318" lon="-0.34943">
        <ele>53.4028</ele>
        <time>2011-07-03T13:44:54Z</time>
      </trkpt>
      <trkpt lat="46.28318" lon="-0.34941">
        <ele>53.3955</ele>
        <time>2011-07-03T13:44:55Z</time>
      </trkpt>
      <trkpt lat="46.28317" lon="-0.34939">
        <ele>53.3908</ele>
        <time>2011-07-03T13:44:56Z</time>
      </trkpt>
      <trkpt lat="46.28317" lon="-0.34937">
        <ele>53.3851</ele>
        <time>2011-07-03T13:44:57Z</time>
      </trkpt>
      <trkpt lat="46.28317" lon="-0.34935">
        <ele>53.3784</ele>
        <time>2011-07-03T13:44:58Z</time>
      </trkpt>
      <trkpt lat="46.28316" lon="-0.34933">
        <ele>53.3723</ele>
        <time>2011-07-03T13:44:59Z</time>
      </trkpt>
      <trkpt lat="46.28315" lon="-0.34931">
        <ele>53.3668</ele>
        <time>2011-07-03T13:45:00Z</time>
      </trkpt>
      <trkpt lat="46.28315" lon="-0.3493">
        <ele>53.3626</ele>
        <time>2011-07-03T13:45:01Z</time>
      </trkpt>
      <trkpt lat="46.28315" lon="-0.34928">
        <ele>53.3579</ele>
        <time>2011-07-03T13:45:02Z</time>
      </trkpt>
      <trkpt lat="46.28314" lon="-0.34926">
        <ele>53.3531</ele>
        <time>2011-07-03T13:45:03Z</time>
      </trkpt>
      <trkpt lat="46.28313" lon="-0.34925">
        <ele>53.3476</ele>
        <time>2011-07-03T13:45:04Z</time>
      </trkpt>
      <trkpt lat="46.28313" lon="-0.34923">
        <ele>53.3428</ele>
        <time>2011-07-03T13:45:05Z</time>
      </trkpt>
      <trkpt lat="46.28313" lon="-0.34922">
        <ele>53.3384</ele>
        <time>2011-07-03T13:45:06Z</time>
      </trkpt>
      <trkpt lat="46.28312" lon="-0.3492">
        <ele>53.3342</ele>
        <time>2011-07-03T13:45:07Z</time>
      </trkpt>
      <trkpt lat="46.28312" lon="-0.34919">
        <ele>53.3305</ele>
        <time>2011-07-03T13:45:08Z</time>
      </trkpt>
      <trkpt lat="46.28312" lon="-0.34918">
        <ele>53.3285</ele>
        <time>2011-07-03T13:45:09Z</time>
      </trkpt>
      <trkpt lat="46.28311" lon="-0.34916">
        <ele>53.3266</ele>
        <time>2011-07-03T13:45:10Z</time>
      </trkpt>
      <trkpt lat="46.28311" lon="-0.34914">
        <ele>53.3255</ele>
        <time>2011-07-03T13:45:11Z</time>
      </trkpt>
      <trkpt lat="46.2831" lon="-0.34913">
        <ele>53.3227</ele>
        <time>2011-07-03T13:45:12Z</time>
      </trkpt>
      <trkpt lat="46.2831" lon="-0.34911">
        <ele>53.3045</ele>
        <time>2011-07-03T13:45:13Z</time>
      </trkpt>
      <trkpt lat="46.28309" lon="-0.34909">
        <ele>53.2688</ele>
        <time>2011-07-03T13:45:14Z</time>
      </trkpt>
      <trkpt lat="46.28309" lon="-0.34907">
        <ele>53.2276</ele>
        <time>2011-07-03T13:45:15Z</time>
      </trkpt>
      <trkpt lat="46.28309" lon="-0.34905">
        <ele>53.1883</ele>
        <time>2011-07-03T13:45:16Z</time>
      </trkpt>
      <trkpt lat="46.28309" lon="-0.34904">
        <ele>53.1484</ele>
        <time>2011-07-03T13:45:17Z</time>
      </trkpt>
      <trkpt lat="46.28309" lon="-0.34903">
        <ele>53.1098</ele>
        <time>2011-07-03T13:45:18Z</time>
      </trkpt>
      <trkpt lat="46.28309" lon="-0.34901">
        <ele>53.1214</ele>
        <time>2011-07-03T13:45:19Z</time>
      </trkpt>
      <trkpt lat="46.28308" lon="-0.349">
        <ele>53.1368</ele>
        <time>2011-07-03T13:45:20Z</time>
      </trkpt>
      <trkpt lat="46.28308" lon="-0.34898">
        <ele>53.1478</ele>
        <time>2011-07-03T13:45:21Z</time>
      </trkpt>
      <trkpt lat="46.28307" lon="-0.34895">
        <ele>53.1685</ele>
        <time>2011-07-03T13:45:22Z</time>
      </trkpt>
      <trkpt lat="46.28307" lon="-0.34894">
        <ele>53.1906</ele>
        <time>2011-07-03T13:45:23Z</time>
      </trkpt>
      <trkpt lat="46.28307" lon="-0.34893">
        <ele>53.2146</ele>
        <time>2011-07-03T13:45:24Z</time>
      </trkpt>
      <trkpt lat="46.28306" lon="-0.3489">
        <ele>53.2428</ele>
        <time>2011-07-03T13:45:25Z</time>
      </trkpt>
      <trkpt lat="46.28305" lon="-0.34888">
        <ele>53.2687</ele>
        <time>2011-07-03T13:45:26Z</time>
      </trkpt>
      <trkpt lat="46.28305" lon="-0.34886">
        <ele>53.2912</ele>
        <time>2011-07-03T13:45:27Z</time>
      </trkpt>
      <trkpt lat="46.28304" lon="-0.34884">
        <ele>53.2984</ele>
        <time>2011-07-03T13:45:28Z</time>
      </trkpt>
      <trkpt lat="46.28304" lon="-0.34882">
        <ele>53.2954</ele>
        <time>2011-07-03T13:45:29Z</time>
      </trkpt>
      <trkpt lat="46.28304" lon="-0.34879">
        <ele>53.2858</ele>
        <time>2011-07-03T13:45:30Z</time>
      </trkpt>
      <trkpt lat="46.28303" lon="-0.34877">
        <ele>53.2719</ele>
        <time>2011-07-03T13:45:31Z</time>
      </trkpt>
      <trkpt lat="46.28303" lon="-0.34875">
        <ele>53.2576</ele>
        <time>2011-07-03T13:45:32Z</time>
      </trkpt>
      <trkpt lat="46.28302" lon="-0.34873">
        <ele>53.2395</ele>
        <time>2011-07-03T13:45:33Z</time>
      </trkpt>
      <trkpt lat="46.28302" lon="-0.34871">
        <ele>53.2202</ele>
        <time>2011-07-03T13:45:34Z</time>
      </trkpt>
      <trkpt lat="46.28301" lon="-0.3487">
        <ele>53.1973</ele>
        <time>2011-07-03T13:45:35Z</time>
      </trkpt>
      <trkpt lat="46.28301" lon="-0.34868">
        <ele>53.1764</ele>
        <time>2011-07-03T13:45:36Z</time>
      </trkpt>
      <trkpt lat="46.283" lon="-0.34866">
        <ele>53.1595</ele>
        <time>2011-07-03T13:45:37Z</time>
      </trkpt>
      <trkpt lat="46.28299" lon="-0.34865">
        <ele>53.143</ele>
        <time>2011-07-03T13:45:38Z</time>
      </trkpt>
      <trkpt lat="46.28299" lon="-0.34863">
        <ele>53.1276</ele>
        <time>2011-07-03T13:45:39Z</time>
      </trkpt>
      <trkpt lat="46.28299" lon="-0.34861">
        <ele>53.1157</ele>
        <time>2011-07-03T13:45:40Z</time>
      </trkpt>
      <trkpt lat="46.28298" lon="-0.3486">
        <ele>53.1034</ele>
        <time>2011-07-03T13:45:41Z</time>
      </trkpt>
      <trkpt lat="46.28298" lon="-0.34858">
        <ele>53.0905</ele>
        <time>2011-07-03T13:45:42Z</time>
      </trkpt>
      <trkpt lat="46.28297" lon="-0.34856">
        <ele>53.079</ele>
        <time>2011-07-03T13:45:43Z</time>
      </trkpt>
      <trkpt lat="46.28297" lon="-0.34854">
        <ele>53.067</ele>
        <time>2011-07-03T13:45:44Z</time>
      </trkpt>
      <trkpt lat="46.28296" lon="-0.34852">
        <ele>53.0538</ele>
        <time>2011-07-03T13:45:45Z</time>
      </trkpt>
      <trkpt lat="46.28296" lon="-0.34851">
        <ele>53.0397</ele>
        <time>2011-07-03T13:45:46Z</time>
      </trkpt>
      <trkpt lat="46.28295" lon="-0.34849">
        <ele>53.0214</ele>
        <time>2011-07-03T13:45:47Z</time>
      </trkpt>
      <trkpt lat="46.28294" lon="-0.34847">
        <ele>53.0013</ele>
        <time>2011-07-03T13:45:48Z</time>
      </trkpt>
      <trkpt lat="46.28294" lon="-0.34844">
        <ele>52.971</ele>
        <time>2011-07-03T13:45:49Z</time>
      </trkpt>
      <trkpt lat="46.28293" lon="-0.34842">
        <ele>52.9259</ele>
        <time>2011-07-03T13:45:50Z</time>
      </trkpt>
      <trkpt lat="46.28293" lon="-0.3484">
        <ele>52.8814</ele>
        <time>2011-07-03T13:45:51Z</time>
      </trkpt>
      <trkpt lat="46.28293" lon="-0.34839">
        <ele>52.8364</ele>
        <time>2011-07-03T13:45:52Z</time>
      </trkpt>
      <trkpt lat="46.28293" lon="-0.34838">
        <ele>52.7988</ele>
        <time>2011-07-03T13:45:53Z</time>
      </trkpt>
      <trkpt lat="46.28292" lon="-0.34836">
        <ele>52.7709</ele>
        <time>2011-07-03T13:45:54Z</time>
      </trkpt>
      <trkpt lat="46.28292" lon="-0.34835">
        <ele>52.7425</ele>
        <time>2011-07-03T13:45:55Z</time>
      </trkpt>
      <trkpt lat="46.28291" lon="-0.34833">
        <ele>52.7143</ele>
        <time>2011-07-03T13:45:56Z</time>
      </trkpt>
      <trkpt lat="46.28291" lon="-0.34831">
        <ele>52.691</ele>
        <time>2011-07-03T13:45:57Z</time>
      </trkpt>
      <trkpt lat="46.2829" lon="-0.34828">
        <ele>52.6631</ele>
        <time>2011-07-03T13:45:58Z</time>
      </trkpt>
      <trkpt lat="46.28289" lon="-0.34825">
        <ele>52.622</ele>
        <time>2011-07-03T13:45:59Z</time>
      </trkpt>
      <trkpt lat="46.28289" lon="-0.34824">
        <ele>52.568</ele>
        <time>2011-07-03T13:46:00Z</time>
      </trkpt>
      <trkpt lat="46.28289" lon="-0.34822">
        <ele>52.5176</ele>
        <time>2011-07-03T13:46:01Z</time>
      </trkpt>
      <trkpt lat="46.2829" lon="-0.34822">
        <ele>52.4728</ele>
        <time>2011-07-03T13:46:02Z</time>
      </trkpt>
      <trkpt lat="46.28289" lon="-0.3482">
        <ele>52.431</ele>
        <time>2011-07-03T13:46:03Z</time>
      </trkpt>
      <trkpt lat="46.28289" lon="-0.34819">
        <ele>52.425</ele>
        <time>2011-07-03T13:46:04Z</time>
      </trkpt>
      <trkpt lat="46.28289" lon="-0.34817">
        <ele>52.4312</ele>
        <time>2011-07-03T13:46:05Z</time>
      </trkpt>
      <trkpt lat="46.28288" lon="-0.34816">
        <ele>52.4442</ele>
        <time>2011-07-03T13:46:06Z</time>
      </trkpt>
      <trkpt lat="46.28288" lon="-0.34815">
        <ele>52.4634</ele>
        <time>2011-07-03T13:46:07Z</time>
      </trkpt>
      <trkpt lat="46.28287" lon="-0.34814">
        <ele>52.4873</ele>
        <time>2011-07-03T13:46:08Z</time>
      </trkpt>
      <trkpt lat="46.28286" lon="-0.34813">
        <ele>52.5088</ele>
        <time>2011-07-03T13:46:09Z</time>
      </trkpt>
      <trkpt lat="46.28286" lon="-0.34812">
        <ele>52.5313</ele>
        <time>2011-07-03T13:46:10Z</time>
      </trkpt>
      <trkpt lat="46.28285" lon="-0.3481">
        <ele>52.5533</ele>
        <time>2011-07-03T13:46:11Z</time>
      </trkpt>
      <trkpt lat="46.28285" lon="-0.34809">
        <ele>52.5746</ele>
        <time>2011-07-03T13:46:12Z</time>
      </trkpt>
      <trkpt lat="46.28285" lon="-0.34809">
        <ele>52.5884</ele>
        <time>2011-07-03T13:46:13Z</time>
      </trkpt>
      <trkpt lat="46.28285" lon="-0.34808">
        <ele>52.5987</ele>
        <time>2011-07-03T13:46:14Z</time>
      </trkpt>
      <trkpt lat="46.28284" lon="-0.34806">
        <ele>52.6097</ele>
        <time>2011-07-03T13:46:15Z</time>
      </trkpt>
      <trkpt lat="46.28283" lon="-0.34804">
        <ele>52.6164</ele>
        <time>2011-07-03T13:46:16Z</time>
      </trkpt>
      <trkpt lat="46.28282" lon="-0.34803">
        <ele>52.6087</ele>
        <time>2011-07-03T13:46:17Z</time>
      </trkpt>
      <trkpt lat="46.28282" lon="-0.34802">
        <ele>52.5995</ele>
        <time>2011-07-03T13:46:18Z</time>
      </trkpt>
      <trkpt lat="46.28281" lon="-0.34801">
        <ele>52.5915</ele>
        <time>2011-07-03T13:46:19Z</time>
      </trkpt>
      <trkpt lat="46.28281" lon="-0.34799">
        <ele>52.5869</ele>
        <time>2011-07-03T13:46:20Z</time>
      </trkpt>
      <trkpt lat="46.2828" lon="-0.34796">
        <ele>52.571</ele>
        <time>2011-07-03T13:46:21Z</time>
      </trkpt>
      <trkpt lat="46.2828" lon="-0.34793">
        <ele>52.556</ele>
        <time>2011-07-03T13:46:22Z</time>
      </trkpt>
      <trkpt lat="46.28279" lon="-0.34791">
        <ele>52.5412</ele>
        <time>2011-07-03T13:46:23Z</time>
      </trkpt>
      <trkpt lat="46.28279" lon="-0.3479">
        <ele>52.5256</ele>
        <time>2011-07-03T13:46:24Z</time>
      </trkpt>
      <trkpt lat="46.28279" lon="-0.34789">
        <ele>52.5137</ele>
        <time>2011-07-03T13:46:25Z</time>
      </trkpt>
      <trkpt lat="46.28279" lon="-0.34789">
        <ele>52.495</ele>
        <time>2011-07-03T13:46:26Z</time>
      </trkpt>
      <trkpt lat="46.28279" lon="-0.34788">
        <ele>52.4788</ele>
        <time>2011-07-03T13:46:27Z</time>
      </trkpt>
      <trkpt lat="46.28278" lon="-0.34786">
        <ele>52.4604</ele>
        <time>2011-07-03T13:46:29Z</time>
      </trkpt>
      <trkpt lat="46.28278" lon="-0.34783">
        <ele>52.4736</ele>
        <time>2011-07-03T13:46:30Z</time>
      </trkpt>
      <trkpt lat="46.28277" lon="-0.34781">
        <ele>52.4855</ele>
        <time>2011-07-03T13:46:31Z</time>
      </trkpt>
      <trkpt lat="46.28276" lon="-0.34778">
        <ele>52.4957</ele>
        <time>2011-07-03T13:46:32Z</time>
      </trkpt>
      <trkpt lat="46.28276" lon="-0.34777">
        <ele>52.5034</ele>
        <time>2011-07-03T13:46:33Z</time>
      </trkpt>
      <trkpt lat="46.28276" lon="-0.34775">
        <ele>52.5113</ele>
        <time>2011-07-03T13:46:34Z</time>
      </trkpt>
      <trkpt lat="46.28276" lon="-0.34773">
        <ele>52.5185</ele>
        <time>2011-07-03T13:46:35Z</time>
      </trkpt>
      <trkpt lat="46.28275" lon="-0.34772">
        <ele>52.5314</ele>
        <time>2011-07-03T13:46:36Z</time>
      </trkpt>
      <trkpt lat="46.28275" lon="-0.3477">
        <ele>52.5422</ele>
        <time>2011-07-03T13:46:37Z</time>
      </trkpt>
      <trkpt lat="46.28274" lon="-0.34768">
        <ele>52.5537</ele>
        <time>2011-07-03T13:46:38Z</time>
      </trkpt>
      <trkpt lat="46.28273" lon="-0.34767">
        <ele>52.5637</ele>
        <time>2011-07-03T13:46:39Z</time>
      </trkpt>
      <trkpt lat="46.28273" lon="-0.34765">
        <ele>52.5731</ele>
        <time>2011-07-03T13:46:40Z</time>
      </trkpt>
      <trkpt lat="46.28273" lon="-0.34763">
        <ele>52.5822</ele>
        <time>2011-07-03T13:46:41Z</time>
      </trkpt>
      <trkpt lat="46.28272" lon="-0.34762">
        <ele>52.5886</ele>
        <time>2011-07-03T13:46:42Z</time>
      </trkpt>
      <trkpt lat="46.28272" lon="-0.3476">
        <ele>52.5946</ele>
        <time>2011-07-03T13:46:43Z</time>
      </trkpt>
      <trkpt lat="46.28271" lon="-0.34757">
        <ele>52.6031</ele>
        <time>2011-07-03T13:46:44Z</time>
      </trkpt>
      <trkpt lat="46.2827" lon="-0.34754">
        <ele>52.6136</ele>
        <time>2011-07-03T13:46:45Z</time>
      </trkpt>
      <trkpt lat="46.28269" lon="-0.34752">
        <ele>52.6242</ele>
        <time>2011-07-03T13:46:46Z</time>
      </trkpt>
      <trkpt lat="46.28268" lon="-0.3475">
        <ele>52.634</ele>
        <time>2011-07-03T13:46:47Z</time>
      </trkpt>
      <trkpt lat="46.28268" lon="-0.3475">
        <ele>52.6506</ele>
        <time>2011-07-03T13:46:48Z</time>
      </trkpt>
      <trkpt lat="46.28268" lon="-0.34749">
        <ele>52.6665</ele>
        <time>2011-07-03T13:46:49Z</time>
      </trkpt>
      <trkpt lat="46.28268" lon="-0.34747">
        <ele>52.6815</ele>
        <time>2011-07-03T13:46:50Z</time>
      </trkpt>
      <trkpt lat="46.28267" lon="-0.34745">
        <ele>52.6892</ele>
        <time>2011-07-03T13:46:51Z</time>
      </trkpt>
      <trkpt lat="46.28267" lon="-0.34743">
        <ele>52.6964</ele>
        <time>2011-07-03T13:46:52Z</time>
      </trkpt>
      <trkpt lat="46.28266" lon="-0.34741">
        <ele>52.7052</ele>
        <time>2011-07-03T13:46:53Z</time>
      </trkpt>
      <trkpt lat="46.28266" lon="-0.34739">
        <ele>52.7154</ele>
        <time>2011-07-03T13:46:54Z</time>
      </trkpt>
      <trkpt lat="46.28265" lon="-0.34737">
        <ele>52.7285</ele>
        <time>2011-07-03T13:46:55Z</time>
      </trkpt>
      <trkpt lat="46.28265" lon="-0.34736">
        <ele>52.743</ele>
        <time>2011-07-03T13:46:56Z</time>
      </trkpt>
      <trkpt lat="46.28264" lon="-0.34734">
        <ele>52.759</ele>
        <time>2011-07-03T13:46:57Z</time>
      </trkpt>
      <trkpt lat="46.28264" lon="-0.34732">
        <ele>52.7734</ele>
        <time>2011-07-03T13:46:58Z</time>
      </trkpt>
      <trkpt lat="46.28262" lon="-0.34729">
        <ele>52.7717</ele>
        <time>2011-07-03T13:46:59Z</time>
      </trkpt>
      <trkpt lat="46.28261" lon="-0.34726">
        <ele>52.7688</ele>
        <time>2011-07-03T13:47:00Z</time>
      </trkpt>
      <trkpt lat="46.2826" lon="-0.34723">
        <ele>52.7666</ele>
        <time>2011-07-03T13:47:01Z</time>
      </trkpt>
      <trkpt lat="46.2826" lon="-0.34722">
        <ele>52.7652</ele>
        <time>2011-07-03T13:47:02Z</time>
      </trkpt>
      <trkpt lat="46.2826" lon="-0.3472">
        <ele>52.7646</ele>
        <time>2011-07-03T13:47:03Z</time>
      </trkpt>
      <trkpt lat="46.2826" lon="-0.34719">
        <ele>52.764</ele>
        <time>2011-07-03T13:47:04Z</time>
      </trkpt>
      <trkpt lat="46.2826" lon="-0.34719">
        <ele>52.7665</ele>
        <time>2011-07-03T13:47:05Z</time>
      </trkpt>
      <trkpt lat="46.28259" lon="-0.34717">
        <ele>52.7694</ele>
        <time>2011-07-03T13:47:06Z</time>
      </trkpt>
      <trkpt lat="46.28258" lon="-0.34715">
        <ele>52.779</ele>
        <time>2011-07-03T13:47:07Z</time>
      </trkpt>
      <trkpt lat="46.28258" lon="-0.34713">
        <ele>52.7936</ele>
        <time>2011-07-03T13:47:08Z</time>
      </trkpt>
      <trkpt lat="46.28257" lon="-0.34711">
        <ele>52.8127</ele>
        <time>2011-07-03T13:47:09Z</time>
      </trkpt>
      <trkpt lat="46.28257" lon="-0.3471">
        <ele>52.8371</ele>
        <time>2011-07-03T13:47:10Z</time>
      </trkpt>
      <trkpt lat="46.28256" lon="-0.34708">
        <ele>52.8653</ele>
        <time>2011-07-03T13:47:11Z</time>
      </trkpt>
      <trkpt lat="46.28256" lon="-0.34707">
        <ele>52.8964</ele>
        <time>2011-07-03T13:47:12Z</time>
      </trkpt>
      <trkpt lat="46.28255" lon="-0.34706">
        <ele>52.9291</ele>
        <time>2011-07-03T13:47:13Z</time>
      </trkpt>
      <trkpt lat="46.28255" lon="-0.34704">
        <ele>52.9621</ele>
        <time>2011-07-03T13:47:14Z</time>
      </trkpt>
      <trkpt lat="46.28254" lon="-0.34703">
        <ele>52.9952</ele>
        <time>2011-07-03T13:47:15Z</time>
      </trkpt>
      <trkpt lat="46.28254" lon="-0.34701">
        <ele>53.028</ele>
        <time>2011-07-03T13:47:16Z</time>
      </trkpt>
      <trkpt lat="46.28253" lon="-0.34699">
        <ele>53.0613</ele>
        <time>2011-07-03T13:47:17Z</time>
      </trkpt>
      <trkpt lat="46.28252" lon="-0.34698">
        <ele>53.0922</ele>
        <time>2011-07-03T13:47:18Z</time>
      </trkpt>
      <trkpt lat="46.28252" lon="-0.34696">
        <ele>53.1232</ele>
        <time>2011-07-03T13:47:19Z</time>
      </trkpt>
      <trkpt lat="46.28251" lon="-0.34694">
        <ele>53.1548</ele>
        <time>2011-07-03T13:47:20Z</time>
      </trkpt>
      <trkpt lat="46.28251" lon="-0.34692">
        <ele>53.1874</ele>
        <time>2011-07-03T13:47:21Z</time>
      </trkpt>
      <trkpt lat="46.2825" lon="-0.34691">
        <ele>53.2184</ele>
        <time>2011-07-03T13:47:22Z</time>
      </trkpt>
      <trkpt lat="46.28249" lon="-0.34689">
        <ele>53.2491</ele>
        <time>2011-07-03T13:47:23Z</time>
      </trkpt>
      <trkpt lat="46.28249" lon="-0.34686">
        <ele>53.2796</ele>
        <time>2011-07-03T13:47:24Z</time>
      </trkpt>
      <trkpt lat="46.28249" lon="-0.34683">
        <ele>53.3075</ele>
        <time>2011-07-03T13:47:25Z</time>
      </trkpt>
      <trkpt lat="46.28248" lon="-0.3468">
        <ele>53.3256</ele>
        <time>2011-07-03T13:47:26Z</time>
      </trkpt>
      <trkpt lat="46.28246" lon="-0.34677">
        <ele>53.3348</ele>
        <time>2011-07-03T13:47:27Z</time>
      </trkpt>
      <trkpt lat="46.28246" lon="-0.34675">
        <ele>53.3367</ele>
        <time>2011-07-03T13:47:28Z</time>
      </trkpt>
      <trkpt lat="46.28244" lon="-0.34672">
        <ele>53.3368</ele>
        <time>2011-07-03T13:47:29Z</time>
      </trkpt>
      <trkpt lat="46.28244" lon="-0.3467">
        <ele>53.337</ele>
        <time>2011-07-03T13:47:30Z</time>
      </trkpt>
      <trkpt lat="46.28244" lon="-0.34668">
        <ele>53.3373</ele>
        <time>2011-07-03T13:47:31Z</time>
      </trkpt>
      <trkpt lat="46.28243" lon="-0.34667">
        <ele>53.3478</ele>
        <time>2011-07-03T13:47:32Z</time>
      </trkpt>
      <trkpt lat="46.28242" lon="-0.34665">
        <ele>53.3655</ele>
        <time>2011-07-03T13:47:33Z</time>
      </trkpt>
      <trkpt lat="46.28242" lon="-0.34664">
        <ele>53.3811</ele>
        <time>2011-07-03T13:47:34Z</time>
      </trkpt>
      <trkpt lat="46.28241" lon="-0.34663">
        <ele>53.3883</ele>
        <time>2011-07-03T13:47:35Z</time>
      </trkpt>
      <trkpt lat="46.28241" lon="-0.34662">
        <ele>53.3988</ele>
        <time>2011-07-03T13:47:36Z</time>
      </trkpt>
      <trkpt lat="46.2824" lon="-0.34661">
        <ele>53.4094</ele>
        <time>2011-07-03T13:47:37Z</time>
      </trkpt>
      <trkpt lat="46.28239" lon="-0.3466">
        <ele>53.4167</ele>
        <time>2011-07-03T13:47:38Z</time>
      </trkpt>
      <trkpt lat="46.28239" lon="-0.34658">
        <ele>53.4257</ele>
        <time>2011-07-03T13:47:39Z</time>
      </trkpt>
      <trkpt lat="46.28239" lon="-0.34657">
        <ele>53.4366</ele>
        <time>2011-07-03T13:47:40Z</time>
      </trkpt>
      <trkpt lat="46.28238" lon="-0.34656">
        <ele>53.4471</ele>
        <time>2011-07-03T13:47:41Z</time>
      </trkpt>
      <trkpt lat="46.28238" lon="-0.34654">
        <ele>53.4555</ele>
        <time>2011-07-03T13:47:42Z</time>
      </trkpt>
      <trkpt lat="46.28238" lon="-0.34653">
        <ele>53.4624</ele>
        <time>2011-07-03T13:47:43Z</time>
      </trkpt>
      <trkpt lat="46.28237" lon="-0.34651">
        <ele>53.4679</ele>
        <time>2011-07-03T13:47:44Z</time>
      </trkpt>
      <trkpt lat="46.28237" lon="-0.3465">
        <ele>53.4696</ele>
        <time>2011-07-03T13:47:45Z</time>
      </trkpt>
      <trkpt lat="46.28236" lon="-0.34648">
        <ele>53.4706</ele>
        <time>2011-07-03T13:47:46Z</time>
      </trkpt>
      <trkpt lat="46.28236" lon="-0.34646">
        <ele>53.4722</ele>
        <time>2011-07-03T13:47:47Z</time>
      </trkpt>
      <trkpt lat="46.28235" lon="-0.34644">
        <ele>53.4736</ele>
        <time>2011-07-03T13:47:48Z</time>
      </trkpt>
      <trkpt lat="46.28235" lon="-0.34642">
        <ele>53.4758</ele>
        <time>2011-07-03T13:47:49Z</time>
      </trkpt>
      <trkpt lat="46.28235" lon="-0.34641">
        <ele>53.4778</ele>
        <time>2011-07-03T13:47:50Z</time>
      </trkpt>
      <trkpt lat="46.28234" lon="-0.34639">
        <ele>53.4806</ele>
        <time>2011-07-03T13:47:51Z</time>
      </trkpt>
      <trkpt lat="46.28233" lon="-0.34637">
        <ele>53.4832</ele>
        <time>2011-07-03T13:47:52Z</time>
      </trkpt>
      <trkpt lat="46.28233" lon="-0.34636">
        <ele>53.4843</ele>
        <time>2011-07-03T13:47:53Z</time>
      </trkpt>
      <trkpt lat="46.28233" lon="-0.34634">
        <ele>53.4819</ele>
        <time>2011-07-03T13:47:54Z</time>
      </trkpt>
      <trkpt lat="46.28232" lon="-0.34632">
        <ele>53.4801</ele>
        <time>2011-07-03T13:47:55Z</time>
      </trkpt>
      <trkpt lat="46.28232" lon="-0.34631">
        <ele>53.4783</ele>
        <time>2011-07-03T13:47:56Z</time>
      </trkpt>
      <trkpt lat="46.28231" lon="-0.34629">
        <ele>53.4773</ele>
        <time>2011-07-03T13:47:57Z</time>
      </trkpt>
      <trkpt lat="46.28231" lon="-0.34627">
        <ele>53.4761</ele>
        <time>2011-07-03T13:47:58Z</time>
      </trkpt>
      <trkpt lat="46.28231" lon="-0.34626">
        <ele>53.4742</ele>
        <time>2011-07-03T13:47:59Z</time>
      </trkpt>
      <trkpt lat="46.2823" lon="-0.34624">
        <ele>53.4706</ele>
        <time>2011-07-03T13:48:00Z</time>
      </trkpt>
      <trkpt lat="46.2823" lon="-0.34623">
        <ele>53.4658</ele>
        <time>2011-07-03T13:48:01Z</time>
      </trkpt>
      <trkpt lat="46.2823" lon="-0.34621">
        <ele>53.4592</ele>
        <time>2011-07-03T13:48:02Z</time>
      </trkpt>
      <trkpt lat="46.28229" lon="-0.34619">
        <ele>53.4527</ele>
        <time>2011-07-03T13:48:03Z</time>
      </trkpt>
      <trkpt lat="46.28228" lon="-0.34618">
        <ele>53.447</ele>
        <time>2011-07-03T13:48:04Z</time>
      </trkpt>
      <trkpt lat="46.28228" lon="-0.34616">
        <ele>53.4414</ele>
        <time>2011-07-03T13:48:05Z</time>
      </trkpt>
      <trkpt lat="46.28228" lon="-0.34614">
        <ele>53.4354</ele>
        <time>2011-07-03T13:48:06Z</time>
      </trkpt>
      <trkpt lat="46.28227" lon="-0.34612">
        <ele>53.429</ele>
        <time>2011-07-03T13:48:07Z</time>
      </trkpt>
      <trkpt lat="46.28227" lon="-0.34611">
        <ele>53.4219</ele>
        <time>2011-07-03T13:48:08Z</time>
      </trkpt>
      <trkpt lat="46.28227" lon="-0.34609">
        <ele>53.4187</ele>
        <time>2011-07-03T13:48:09Z</time>
      </trkpt>
      <trkpt lat="46.28226" lon="-0.34608">
        <ele>53.416</ele>
        <time>2011-07-03T13:48:10Z</time>
      </trkpt>
      <trkpt lat="46.28226" lon="-0.34606">
        <ele>53.414</ele>
        <time>2011-07-03T13:48:11Z</time>
      </trkpt>
      <trkpt lat="46.28225" lon="-0.34604">
        <ele>53.4124</ele>
        <time>2011-07-03T13:48:12Z</time>
      </trkpt>
      <trkpt lat="46.28225" lon="-0.34603">
        <ele>53.41</ele>
        <time>2011-07-03T13:48:13Z</time>
      </trkpt>
      <trkpt lat="46.28224" lon="-0.34601">
        <ele>53.4077</ele>
        <time>2011-07-03T13:48:14Z</time>
      </trkpt>
      <trkpt lat="46.28224" lon="-0.34599">
        <ele>53.4047</ele>
        <time>2011-07-03T13:48:15Z</time>
      </trkpt>
      <trkpt lat="46.28223" lon="-0.34597">
        <ele>53.3999</ele>
        <time>2011-07-03T13:48:16Z</time>
      </trkpt>
      <trkpt lat="46.28223" lon="-0.34596">
        <ele>53.3935</ele>
        <time>2011-07-03T13:48:17Z</time>
      </trkpt>
      <trkpt lat="46.28223" lon="-0.34594">
        <ele>53.3845</ele>
        <time>2011-07-03T13:48:18Z</time>
      </trkpt>
      <trkpt lat="46.28222" lon="-0.34592">
        <ele>53.3755</ele>
        <time>2011-07-03T13:48:19Z</time>
      </trkpt>
      <trkpt lat="46.28222" lon="-0.3459">
        <ele>53.3665</ele>
        <time>2011-07-03T13:48:20Z</time>
      </trkpt>
      <trkpt lat="46.28221" lon="-0.34588">
        <ele>53.3583</ele>
        <time>2011-07-03T13:48:21Z</time>
      </trkpt>
      <trkpt lat="46.28221" lon="-0.34587">
        <ele>53.3516</ele>
        <time>2011-07-03T13:48:22Z</time>
      </trkpt>
      <trkpt lat="46.2822" lon="-0.34585">
        <ele>53.3441</ele>
        <time>2011-07-03T13:48:23Z</time>
      </trkpt>
      <trkpt lat="46.2822" lon="-0.34583">
        <ele>53.3377</ele>
        <time>2011-07-03T13:48:24Z</time>
      </trkpt>
      <trkpt lat="46.2822" lon="-0.34581">
        <ele>53.3322</ele>
        <time>2011-07-03T13:48:25Z</time>
      </trkpt>
      <trkpt lat="46.28219" lon="-0.3458">
        <ele>53.3259</ele>
        <time>2011-07-03T13:48:26Z</time>
      </trkpt>
      <trkpt lat="46.28219" lon="-0.34578">
        <ele>53.3152</ele>
        <time>2011-07-03T13:48:27Z</time>
      </trkpt>
      <trkpt lat="46.28218" lon="-0.34576">
        <ele>53.3038</ele>
        <time>2011-07-03T13:48:28Z</time>
      </trkpt>
      <trkpt lat="46.28218" lon="-0.34575">
        <ele>53.2919</ele>
        <time>2011-07-03T13:48:29Z</time>
      </trkpt>
      <trkpt lat="46.28217" lon="-0.34574">
        <ele>53.28</ele>
        <time>2011-07-03T13:48:30Z</time>
      </trkpt>
      <trkpt lat="46.28217" lon="-0.34572">
        <ele>53.2679</ele>
        <time>2011-07-03T13:48:31Z</time>
      </trkpt>
      <trkpt lat="46.28217" lon="-0.34571">
        <ele>53.2554</ele>
        <time>2011-07-03T13:48:32Z</time>
      </trkpt>
      <trkpt lat="46.28216" lon="-0.34569">
        <ele>53.2432</ele>
        <time>2011-07-03T13:48:33Z</time>
      </trkpt>
      <trkpt lat="46.28216" lon="-0.34567">
        <ele>53.2266</ele>
        <time>2011-07-03T13:48:34Z</time>
      </trkpt>
      <trkpt lat="46.28215" lon="-0.34565">
        <ele>53.2122</ele>
        <time>2011-07-03T13:48:35Z</time>
      </trkpt>
      <trkpt lat="46.28215" lon="-0.34564">
        <ele>53.1983</ele>
        <time>2011-07-03T13:48:36Z</time>
      </trkpt>
      <trkpt lat="46.28214" lon="-0.34562">
        <ele>53.184</ele>
        <time>2011-07-03T13:48:37Z</time>
      </trkpt>
      <trkpt lat="46.28214" lon="-0.3456">
        <ele>53.1708</ele>
        <time>2011-07-03T13:48:38Z</time>
      </trkpt>
      <trkpt lat="46.28213" lon="-0.34559">
        <ele>53.1543</ele>
        <time>2011-07-03T13:48:39Z</time>
      </trkpt>
      <trkpt lat="46.28212" lon="-0.34557">
        <ele>53.1372</ele>
        <time>2011-07-03T13:48:40Z</time>
      </trkpt>
      <trkpt lat="46.28212" lon="-0.34556">
        <ele>53.1207</ele>
        <time>2011-07-03T13:48:41Z</time>
      </trkpt>
      <trkpt lat="46.28211" lon="-0.34555">
        <ele>53.1057</ele>
        <time>2011-07-03T13:48:42Z</time>
      </trkpt>
      <trkpt lat="46.28211" lon="-0.34553">
        <ele>53.0934</ele>
        <time>2011-07-03T13:48:43Z</time>
      </trkpt>
      <trkpt lat="46.2821" lon="-0.34552">
        <ele>53.084</ele>
        <time>2011-07-03T13:48:44Z</time>
      </trkpt>
      <trkpt lat="46.28209" lon="-0.34551">
        <ele>53.0777</ele>
        <time>2011-07-03T13:48:45Z</time>
      </trkpt>
      <trkpt lat="46.28209" lon="-0.3455">
        <ele>53.0718</ele>
        <time>2011-07-03T13:48:46Z</time>
      </trkpt>
      <trkpt lat="46.28209" lon="-0.34548">
        <ele>53.0667</ele>
        <time>2011-07-03T13:48:47Z</time>
      </trkpt>
      <trkpt lat="46.28208" lon="-0.34546">
        <ele>53.0625</ele>
        <time>2011-07-03T13:48:48Z</time>
      </trkpt>
      <trkpt lat="46.28207" lon="-0.34545">
        <ele>53.059</ele>
        <time>2011-07-03T13:48:49Z</time>
      </trkpt>
      <trkpt lat="46.28206" lon="-0.34543">
        <ele>53.0571</ele>
        <time>2011-07-03T13:48:50Z</time>
      </trkpt>
      <trkpt lat="46.28206" lon="-0.34541">
        <ele>53.0555</ele>
        <time>2011-07-03T13:48:51Z</time>
      </trkpt>
      <trkpt lat="46.28205" lon="-0.34539">
        <ele>53.0531</ele>
        <time>2011-07-03T13:48:52Z</time>
      </trkpt>
      <trkpt lat="46.28205" lon="-0.34538">
        <ele>53.05</ele>
        <time>2011-07-03T13:48:53Z</time>
      </trkpt>
      <trkpt lat="46.28204" lon="-0.34536">
        <ele>53.0498</ele>
        <time>2011-07-03T13:48:54Z</time>
      </trkpt>
      <trkpt lat="46.28204" lon="-0.34533">
        <ele>53.0531</ele>
        <time>2011-07-03T13:48:55Z</time>
      </trkpt>
      <trkpt lat="46.28204" lon="-0.34531">
        <ele>53.0556</ele>
        <time>2011-07-03T13:48:56Z</time>
      </trkpt>
      <trkpt lat="46.28204" lon="-0.34529">
        <ele>53.0583</ele>
        <time>2011-07-03T13:48:57Z</time>
      </trkpt>
      <trkpt lat="46.28204" lon="-0.34527">
        <ele>53.0608</ele>
        <time>2011-07-03T13:48:58Z</time>
      </trkpt>
      <trkpt lat="46.28204" lon="-0.34525">
        <ele>53.0638</ele>
        <time>2011-07-03T13:48:59Z</time>
      </trkpt>
      <trkpt lat="46.28204" lon="-0.34523">
        <ele>53.0612</ele>
        <time>2011-07-03T13:49:00Z</time>
      </trkpt>
      <trkpt lat="46.28205" lon="-0.34521">
        <ele>53.0536</ele>
        <time>2011-07-03T13:49:01Z</time>
      </trkpt>
      <trkpt lat="46.28206" lon="-0.3452">
        <ele>53.0419</ele>
        <time>2011-07-03T13:49:02Z</time>
      </trkpt>
      <trkpt lat="46.28207" lon="-0.34519">
        <ele>53.0253</ele>
        <time>2011-07-03T13:49:03Z</time>
      </trkpt>
      <trkpt lat="46.28208" lon="-0.34517">
        <ele>53.0047</ele>
        <time>2011-07-03T13:49:04Z</time>
      </trkpt>
      <trkpt lat="46.28209" lon="-0.34516">
        <ele>52.9785</ele>
        <time>2011-07-03T13:49:05Z</time>
      </trkpt>
      <trkpt lat="46.2821" lon="-0.34514">
        <ele>52.9505</ele>
        <time>2011-07-03T13:49:06Z</time>
      </trkpt>
      <trkpt lat="46.2821" lon="-0.34512">
        <ele>52.9221</ele>
        <time>2011-07-03T13:49:07Z</time>
      </trkpt>
      <trkpt lat="46.28211" lon="-0.34511">
        <ele>52.8944</ele>
        <time>2011-07-03T13:49:08Z</time>
      </trkpt>
      <trkpt lat="46.28212" lon="-0.34509">
        <ele>52.8671</ele>
        <time>2011-07-03T13:49:09Z</time>
      </trkpt>
      <trkpt lat="46.28213" lon="-0.34508">
        <ele>52.8396</ele>
        <time>2011-07-03T13:49:10Z</time>
      </trkpt>
      <trkpt lat="46.28214" lon="-0.34506">
        <ele>52.8124</ele>
        <time>2011-07-03T13:49:11Z</time>
      </trkpt>
      <trkpt lat="46.28215" lon="-0.34505">
        <ele>52.7862</ele>
        <time>2011-07-03T13:49:12Z</time>
      </trkpt>
      <trkpt lat="46.28216" lon="-0.34504">
        <ele>52.7587</ele>
        <time>2011-07-03T13:49:13Z</time>
      </trkpt>
      <trkpt lat="46.28218" lon="-0.34503">
        <ele>52.7289</ele>
        <time>2011-07-03T13:49:14Z</time>
      </trkpt>
      <trkpt lat="46.28219" lon="-0.34502">
        <ele>52.6991</ele>
        <time>2011-07-03T13:49:15Z</time>
      </trkpt>
      <trkpt lat="46.2822" lon="-0.34501">
        <ele>52.6682</ele>
        <time>2011-07-03T13:49:16Z</time>
      </trkpt>
      <trkpt lat="46.28221" lon="-0.345">
        <ele>52.6361</ele>
        <time>2011-07-03T13:49:17Z</time>
      </trkpt>
      <trkpt lat="46.28222" lon="-0.345">
        <ele>52.5976</ele>
        <time>2011-07-03T13:49:18Z</time>
      </trkpt>
      <trkpt lat="46.28223" lon="-0.34499">
        <ele>52.5529</ele>
        <time>2011-07-03T13:49:19Z</time>
      </trkpt>
      <trkpt lat="46.28225" lon="-0.34498">
        <ele>52.5028</ele>
        <time>2011-07-03T13:49:20Z</time>
      </trkpt>
      <trkpt lat="46.28226" lon="-0.34498">
        <ele>52.4515</ele>
        <time>2011-07-03T13:49:21Z</time>
      </trkpt>
      <trkpt lat="46.28227" lon="-0.34498">
        <ele>52.4017</ele>
        <time>2011-07-03T13:49:22Z</time>
      </trkpt>
      <trkpt lat="46.28228" lon="-0.34498">
        <ele>52.3535</ele>
        <time>2011-07-03T13:49:23Z</time>
      </trkpt>
      <trkpt lat="46.2823" lon="-0.34498">
        <ele>52.3064</ele>
        <time>2011-07-03T13:49:24Z</time>
      </trkpt>
      <trkpt lat="46.28231" lon="-0.34498">
        <ele>52.2605</ele>
        <time>2011-07-03T13:49:25Z</time>
      </trkpt>
      <trkpt lat="46.28232" lon="-0.34498">
        <ele>52.2145</ele>
        <time>2011-07-03T13:49:26Z</time>
      </trkpt>
      <trkpt lat="46.28233" lon="-0.34498">
        <ele>52.1691</ele>
        <time>2011-07-03T13:49:27Z</time>
      </trkpt>
      <trkpt lat="46.28235" lon="-0.34498">
        <ele>52.1249</ele>
        <time>2011-07-03T13:49:28Z</time>
      </trkpt>
      <trkpt lat="46.28236" lon="-0.34498">
        <ele>52.0812</ele>
        <time>2011-07-03T13:49:29Z</time>
      </trkpt>
      <trkpt lat="46.28237" lon="-0.34499">
        <ele>52.0371</ele>
        <time>2011-07-03T13:49:30Z</time>
      </trkpt>
      <trkpt lat="46.28238" lon="-0.34499">
        <ele>51.9931</ele>
        <time>2011-07-03T13:49:31Z</time>
      </trkpt>
      <trkpt lat="46.28239" lon="-0.34499">
        <ele>51.9505</ele>
        <time>2011-07-03T13:49:32Z</time>
      </trkpt>
      <trkpt lat="46.2824" lon="-0.34499">
        <ele>51.9103</ele>
        <time>2011-07-03T13:49:33Z</time>
      </trkpt>
      <trkpt lat="46.28241" lon="-0.345">
        <ele>51.8727</ele>
        <time>2011-07-03T13:49:34Z</time>
      </trkpt>
      <trkpt lat="46.28243" lon="-0.34499">
        <ele>51.8358</ele>
        <time>2011-07-03T13:49:35Z</time>
      </trkpt>
      <trkpt lat="46.28244" lon="-0.34499">
        <ele>51.7985</ele>
        <time>2011-07-03T13:49:36Z</time>
      </trkpt>
      <trkpt lat="46.28245" lon="-0.34499">
        <ele>51.7616</ele>
        <time>2011-07-03T13:49:37Z</time>
      </trkpt>
      <trkpt lat="46.28246" lon="-0.34498">
        <ele>51.7238</ele>
        <time>2011-07-03T13:49:38Z</time>
      </trkpt>
      <trkpt lat="46.28247" lon="-0.34498">
        <ele>51.6853</ele>
        <time>2011-07-03T13:49:39Z</time>
      </trkpt>
      <trkpt lat="46.28249" lon="-0.34497">
        <ele>51.6466</ele>
        <time>2011-07-03T13:49:40Z</time>
      </trkpt>
      <trkpt lat="46.2825" lon="-0.34496">
        <ele>51.6071</ele>
        <time>2011-07-03T13:49:41Z</time>
      </trkpt>
      <trkpt lat="46.28252" lon="-0.34495">
        <ele>51.5641</ele>
        <time>2011-07-03T13:49:42Z</time>
      </trkpt>
      <trkpt lat="46.28253" lon="-0.34494">
        <ele>51.5182</ele>
        <time>2011-07-03T13:49:43Z</time>
      </trkpt>
      <trkpt lat="46.28255" lon="-0.34493">
        <ele>51.4729</ele>
        <time>2011-07-03T13:49:44Z</time>
      </trkpt>
      <trkpt lat="46.28256" lon="-0.34493">
        <ele>51.4279</ele>
        <time>2011-07-03T13:49:45Z</time>
      </trkpt>
      <trkpt lat="46.28258" lon="-0.34492">
        <ele>51.3832</ele>
        <time>2011-07-03T13:49:46Z</time>
      </trkpt>
      <trkpt lat="46.28259" lon="-0.34491">
        <ele>51.3388</ele>
        <time>2011-07-03T13:49:47Z</time>
      </trkpt>
      <trkpt lat="46.2826" lon="-0.3449">
        <ele>51.2942</ele>
        <time>2011-07-03T13:49:48Z</time>
      </trkpt>
      <trkpt lat="46.28262" lon="-0.3449">
        <ele>51.2491</ele>
        <time>2011-07-03T13:49:49Z</time>
      </trkpt>
      <trkpt lat="46.28263" lon="-0.34489">
        <ele>51.2031</ele>
        <time>2011-07-03T13:49:50Z</time>
      </trkpt>
      <trkpt lat="46.28264" lon="-0.34488">
        <ele>51.1557</ele>
        <time>2011-07-03T13:49:51Z</time>
      </trkpt>
      <trkpt lat="46.28265" lon="-0.34488">
        <ele>51.1081</ele>
        <time>2011-07-03T13:49:52Z</time>
      </trkpt>
      <trkpt lat="46.28266" lon="-0.34487">
        <ele>51.0578</ele>
        <time>2011-07-03T13:49:53Z</time>
      </trkpt>
      <trkpt lat="46.28267" lon="-0.34486">
        <ele>51.0072</ele>
        <time>2011-07-03T13:49:54Z</time>
      </trkpt>
      <trkpt lat="46.28268" lon="-0.34485">
        <ele>50.9615</ele>
        <time>2011-07-03T13:49:55Z</time>
      </trkpt>
      <trkpt lat="46.2827" lon="-0.34485">
        <ele>50.9169</ele>
        <time>2011-07-03T13:49:56Z</time>
      </trkpt>
      <trkpt lat="46.28271" lon="-0.34484">
        <ele>50.8715</ele>
        <time>2011-07-03T13:49:57Z</time>
      </trkpt>
      <trkpt lat="46.28272" lon="-0.34483">
        <ele>50.8302</ele>
        <time>2011-07-03T13:49:58Z</time>
      </trkpt>
      <trkpt lat="46.28273" lon="-0.34482">
        <ele>50.7932</ele>
        <time>2011-07-03T13:49:59Z</time>
      </trkpt>
      <trkpt lat="46.28274" lon="-0.34482">
        <ele>50.7571</ele>
        <time>2011-07-03T13:50:00Z</time>
      </trkpt>
      <trkpt lat="46.28276" lon="-0.34481">
        <ele>50.7211</ele>
        <time>2011-07-03T13:50:01Z</time>
      </trkpt>
      <trkpt lat="46.28277" lon="-0.3448">
        <ele>50.684</ele>
        <time>2011-07-03T13:50:02Z</time>
      </trkpt>
      <trkpt lat="46.28278" lon="-0.34479">
        <ele>50.648</ele>
        <time>2011-07-03T13:50:03Z</time>
      </trkpt>
      <trkpt lat="46.28279" lon="-0.34478">
        <ele>50.612</ele>
        <time>2011-07-03T13:50:04Z</time>
      </trkpt>
      <trkpt lat="46.2828" lon="-0.34477">
        <ele>50.5776</ele>
        <time>2011-07-03T13:50:05Z</time>
      </trkpt>
      <trkpt lat="46.28281" lon="-0.34477">
        <ele>50.5447</ele>
        <time>2011-07-03T13:50:06Z</time>
      </trkpt>
      <trkpt lat="46.28283" lon="-0.34476">
        <ele>50.5121</ele>
        <time>2011-07-03T13:50:07Z</time>
      </trkpt>
      <trkpt lat="46.28284" lon="-0.34475">
        <ele>50.4796</ele>
        <time>2011-07-03T13:50:08Z</time>
      </trkpt>
      <trkpt lat="46.28285" lon="-0.34475">
        <ele>50.4474</ele>
        <time>2011-07-03T13:50:09Z</time>
      </trkpt>
      <trkpt lat="46.28286" lon="-0.34474">
        <ele>50.4152</ele>
        <time>2011-07-03T13:50:10Z</time>
      </trkpt>
      <trkpt lat="46.28287" lon="-0.34473">
        <ele>50.3827</ele>
        <time>2011-07-03T13:50:11Z</time>
      </trkpt>
      <trkpt lat="46.28289" lon="-0.34472">
        <ele>50.3506</ele>
        <time>2011-07-03T13:50:12Z</time>
      </trkpt>
      <trkpt lat="46.2829" lon="-0.34471">
        <ele>50.3199</ele>
        <time>2011-07-03T13:50:13Z</time>
      </trkpt>
      <trkpt lat="46.28291" lon="-0.3447">
        <ele>50.2918</ele>
        <time>2011-07-03T13:50:14Z</time>
      </trkpt>
      <trkpt lat="46.28292" lon="-0.34469">
        <ele>50.268</ele>
        <time>2011-07-03T13:50:15Z</time>
      </trkpt>
      <trkpt lat="46.28293" lon="-0.34469">
        <ele>50.2479</ele>
        <time>2011-07-03T13:50:16Z</time>
      </trkpt>
      <trkpt lat="46.28295" lon="-0.34468">
        <ele>50.2272</ele>
        <time>2011-07-03T13:50:17Z</time>
      </trkpt>
      <trkpt lat="46.28296" lon="-0.34467">
        <ele>50.2062</ele>
        <time>2011-07-03T13:50:18Z</time>
      </trkpt>
      <trkpt lat="46.28297" lon="-0.34467">
        <ele>50.1854</ele>
        <time>2011-07-03T13:50:19Z</time>
      </trkpt>
      <trkpt lat="46.28298" lon="-0.34466">
        <ele>50.1666</ele>
        <time>2011-07-03T13:50:20Z</time>
      </trkpt>
      <trkpt lat="46.28299" lon="-0.34465">
        <ele>50.1496</ele>
        <time>2011-07-03T13:50:21Z</time>
      </trkpt>
      <trkpt lat="46.283" lon="-0.34464">
        <ele>50.1331</ele>
        <time>2011-07-03T13:50:22Z</time>
      </trkpt>
      <trkpt lat="46.28301" lon="-0.34464">
        <ele>50.118</ele>
        <time>2011-07-03T13:50:23Z</time>
      </trkpt>
      <trkpt lat="46.28302" lon="-0.34463">
        <ele>50.1051</ele>
        <time>2011-07-03T13:50:24Z</time>
      </trkpt>
      <trkpt lat="46.28304" lon="-0.34462">
        <ele>50.0919</ele>
        <time>2011-07-03T13:50:25Z</time>
      </trkpt>
      <trkpt lat="46.28305" lon="-0.34461">
        <ele>50.0787</ele>
        <time>2011-07-03T13:50:26Z</time>
      </trkpt>
      <trkpt lat="46.28306" lon="-0.34461">
        <ele>50.0655</ele>
        <time>2011-07-03T13:50:27Z</time>
      </trkpt>
      <trkpt lat="46.28307" lon="-0.3446">
        <ele>50.0522</ele>
        <time>2011-07-03T13:50:28Z</time>
      </trkpt>
      <trkpt lat="46.28308" lon="-0.34459">
        <ele>50.0393</ele>
        <time>2011-07-03T13:50:29Z</time>
      </trkpt>
      <trkpt lat="46.28309" lon="-0.34459">
        <ele>50.0266</ele>
        <time>2011-07-03T13:50:30Z</time>
      </trkpt>
      <trkpt lat="46.28309" lon="-0.34459">
        <ele>50.0162</ele>
        <time>2011-07-03T13:50:31Z</time>
      </trkpt>
      <trkpt lat="46.2831" lon="-0.34458">
        <ele>50.0089</ele>
        <time>2011-07-03T13:50:32Z</time>
      </trkpt>
      <trkpt lat="46.28312" lon="-0.34458">
        <ele>50.0014</ele>
        <time>2011-07-03T13:50:33Z</time>
      </trkpt>
      <trkpt lat="46.28312" lon="-0.34457">
        <ele>49.9933</ele>
        <time>2011-07-03T13:50:34Z</time>
      </trkpt>
      <trkpt lat="46.28313" lon="-0.34456">
        <ele>49.9851</ele>
        <time>2011-07-03T13:50:35Z</time>
      </trkpt>
      <trkpt lat="46.28315" lon="-0.34456">
        <ele>49.9777</ele>
        <time>2011-07-03T13:50:36Z</time>
      </trkpt>
      <trkpt lat="46.28316" lon="-0.34455">
        <ele>49.969</ele>
        <time>2011-07-03T13:50:37Z</time>
      </trkpt>
      <trkpt lat="46.28317" lon="-0.34455">
        <ele>49.96</ele>
        <time>2011-07-03T13:50:38Z</time>
      </trkpt>
      <trkpt lat="46.28318" lon="-0.34454">
        <ele>49.9456</ele>
        <time>2011-07-03T13:50:39Z</time>
      </trkpt>
      <trkpt lat="46.2832" lon="-0.34454">
        <ele>49.9311</ele>
        <time>2011-07-03T13:50:40Z</time>
      </trkpt>
      <trkpt lat="46.28321" lon="-0.34453">
        <ele>49.9117</ele>
        <time>2011-07-03T13:50:41Z</time>
      </trkpt>
      <trkpt lat="46.28323" lon="-0.34453">
        <ele>49.8897</ele>
        <time>2011-07-03T13:50:42Z</time>
      </trkpt>
      <trkpt lat="46.28324" lon="-0.34453">
        <ele>49.8644</ele>
        <time>2011-07-03T13:50:43Z</time>
      </trkpt>
      <trkpt lat="46.28326" lon="-0.34453">
        <ele>49.8361</ele>
        <time>2011-07-03T13:50:44Z</time>
      </trkpt>
      <trkpt lat="46.28327" lon="-0.34452">
        <ele>49.8072</ele>
        <time>2011-07-03T13:50:45Z</time>
      </trkpt>
      <trkpt lat="46.28328" lon="-0.34452">
        <ele>49.7805</ele>
        <time>2011-07-03T13:50:46Z</time>
      </trkpt>
      <trkpt lat="46.2833" lon="-0.34452">
        <ele>49.753</ele>
        <time>2011-07-03T13:50:47Z</time>
      </trkpt>
      <trkpt lat="46.28331" lon="-0.34451">
        <ele>49.7247</ele>
        <time>2011-07-03T13:50:48Z</time>
      </trkpt>
      <trkpt lat="46.28333" lon="-0.34451">
        <ele>49.6957</ele>
        <time>2011-07-03T13:50:49Z</time>
      </trkpt>
      <trkpt lat="46.28334" lon="-0.3445">
        <ele>49.6664</ele>
        <time>2011-07-03T13:50:50Z</time>
      </trkpt>
      <trkpt lat="46.28336" lon="-0.3445">
        <ele>49.6368</ele>
        <time>2011-07-03T13:50:51Z</time>
      </trkpt>
      <trkpt lat="46.28338" lon="-0.3445">
        <ele>49.6094</ele>
        <time>2011-07-03T13:50:52Z</time>
      </trkpt>
      <trkpt lat="46.28339" lon="-0.34449">
        <ele>49.5813</ele>
        <time>2011-07-03T13:50:53Z</time>
      </trkpt>
      <trkpt lat="46.2834" lon="-0.34449">
        <ele>49.5522</ele>
        <time>2011-07-03T13:50:54Z</time>
      </trkpt>
      <trkpt lat="46.28342" lon="-0.34449">
        <ele>49.5222</ele>
        <time>2011-07-03T13:50:55Z</time>
      </trkpt>
      <trkpt lat="46.28343" lon="-0.34448">
        <ele>49.4898</ele>
        <time>2011-07-03T13:50:56Z</time>
      </trkpt>
      <trkpt lat="46.28345" lon="-0.34448">
        <ele>49.4557</ele>
        <time>2011-07-03T13:50:57Z</time>
      </trkpt>
      <trkpt lat="46.28347" lon="-0.34448">
        <ele>49.4203</ele>
        <time>2011-07-03T13:50:58Z</time>
      </trkpt>
      <trkpt lat="46.28348" lon="-0.34448">
        <ele>49.3871</ele>
        <time>2011-07-03T13:50:59Z</time>
      </trkpt>
      <trkpt lat="46.28349" lon="-0.34447">
        <ele>49.3539</ele>
        <time>2011-07-03T13:51:00Z</time>
      </trkpt>
      <trkpt lat="46.28351" lon="-0.34447">
        <ele>49.3201</ele>
        <time>2011-07-03T13:51:01Z</time>
      </trkpt>
      <trkpt lat="46.28352" lon="-0.34447">
        <ele>49.2853</ele>
        <time>2011-07-03T13:51:02Z</time>
      </trkpt>
      <trkpt lat="46.28354" lon="-0.34446">
        <ele>49.2496</ele>
        <time>2011-07-03T13:51:03Z</time>
      </trkpt>
      <trkpt lat="46.28355" lon="-0.34446">
        <ele>49.2151</ele>
        <time>2011-07-03T13:51:04Z</time>
      </trkpt>
      <trkpt lat="46.28356" lon="-0.34446">
        <ele>49.1804</ele>
        <time>2011-07-03T13:51:05Z</time>
      </trkpt>
      <trkpt lat="46.28357" lon="-0.34446">
        <ele>49.1454</ele>
        <time>2011-07-03T13:51:06Z</time>
      </trkpt>
      <trkpt lat="46.28359" lon="-0.34445">
        <ele>49.1106</ele>
        <time>2011-07-03T13:51:07Z</time>
      </trkpt>
      <trkpt lat="46.2836" lon="-0.34444">
        <ele>49.0761</ele>
        <time>2011-07-03T13:51:08Z</time>
      </trkpt>
      <trkpt lat="46.28362" lon="-0.34444">
        <ele>49.0418</ele>
        <time>2011-07-03T13:51:09Z</time>
      </trkpt>
      <trkpt lat="46.28363" lon="-0.34443">
        <ele>49.0065</ele>
        <time>2011-07-03T13:51:10Z</time>
      </trkpt>
      <trkpt lat="46.28364" lon="-0.34442">
        <ele>48.9705</ele>
        <time>2011-07-03T13:51:11Z</time>
      </trkpt>
      <trkpt lat="46.28365" lon="-0.34442">
        <ele>48.9338</ele>
        <time>2011-07-03T13:51:12Z</time>
      </trkpt>
      <trkpt lat="46.28367" lon="-0.34441">
        <ele>48.8972</ele>
        <time>2011-07-03T13:51:13Z</time>
      </trkpt>
      <trkpt lat="46.28368" lon="-0.34441">
        <ele>48.8606</ele>
        <time>2011-07-03T13:51:14Z</time>
      </trkpt>
      <trkpt lat="46.2837" lon="-0.34441">
        <ele>48.8235</ele>
        <time>2011-07-03T13:51:15Z</time>
      </trkpt>
      <trkpt lat="46.28371" lon="-0.3444">
        <ele>48.7868</ele>
        <time>2011-07-03T13:51:16Z</time>
      </trkpt>
      <trkpt lat="46.28372" lon="-0.3444">
        <ele>48.75</ele>
        <time>2011-07-03T13:51:17Z</time>
      </trkpt>
      <trkpt lat="46.28374" lon="-0.3444">
        <ele>48.7133</ele>
        <time>2011-07-03T13:51:18Z</time>
      </trkpt>
      <trkpt lat="46.28375" lon="-0.34439">
        <ele>48.6775</ele>
        <time>2011-07-03T13:51:19Z</time>
      </trkpt>
      <trkpt lat="46.28376" lon="-0.34439">
        <ele>48.6419</ele>
        <time>2011-07-03T13:51:20Z</time>
      </trkpt>
      <trkpt lat="46.28378" lon="-0.34438">
        <ele>48.607</ele>
        <time>2011-07-03T13:51:21Z</time>
      </trkpt>
      <trkpt lat="46.28379" lon="-0.34437">
        <ele>48.5733</ele>
        <time>2011-07-03T13:51:22Z</time>
      </trkpt>
      <trkpt lat="46.28381" lon="-0.34437">
        <ele>48.5427</ele>
        <time>2011-07-03T13:51:23Z</time>
      </trkpt>
      <trkpt lat="46.28382" lon="-0.34436">
        <ele>48.513</ele>
        <time>2011-07-03T13:51:24Z</time>
      </trkpt>
      <trkpt lat="46.28384" lon="-0.34436">
        <ele>48.4867</ele>
        <time>2011-07-03T13:51:25Z</time>
      </trkpt>
      <trkpt lat="46.28385" lon="-0.34435">
        <ele>48.463</ele>
        <time>2011-07-03T13:51:26Z</time>
      </trkpt>
      <trkpt lat="46.28386" lon="-0.34435">
        <ele>48.4404</ele>
        <time>2011-07-03T13:51:27Z</time>
      </trkpt>
      <trkpt lat="46.28388" lon="-0.34434">
        <ele>48.4185</ele>
        <time>2011-07-03T13:51:28Z</time>
      </trkpt>
      <trkpt lat="46.28389" lon="-0.34434">
        <ele>48.3944</ele>
        <time>2011-07-03T13:51:29Z</time>
      </trkpt>
      <trkpt lat="46.2839" lon="-0.34433">
        <ele>48.3698</ele>
        <time>2011-07-03T13:51:30Z</time>
      </trkpt>
      <trkpt lat="46.28392" lon="-0.34433">
        <ele>48.3443</ele>
        <time>2011-07-03T13:51:31Z</time>
      </trkpt>
      <trkpt lat="46.28393" lon="-0.34433">
        <ele>48.3184</ele>
        <time>2011-07-03T13:51:32Z</time>
      </trkpt>
      <trkpt lat="46.28394" lon="-0.34432">
        <ele>48.2925</ele>
        <time>2011-07-03T13:51:33Z</time>
      </trkpt>
      <trkpt lat="46.28395" lon="-0.34432">
        <ele>48.2664</ele>
        <time>2011-07-03T13:51:34Z</time>
      </trkpt>
      <trkpt lat="46.28396" lon="-0.34431">
        <ele>48.2405</ele>
        <time>2011-07-03T13:51:35Z</time>
      </trkpt>
      <trkpt lat="46.28397" lon="-0.34431">
        <ele>48.2168</ele>
        <time>2011-07-03T13:51:36Z</time>
      </trkpt>
      <trkpt lat="46.28399" lon="-0.34431">
        <ele>48.1947</ele>
        <time>2011-07-03T13:51:37Z</time>
      </trkpt>
      <trkpt lat="46.284" lon="-0.34431">
        <ele>48.1749</ele>
        <time>2011-07-03T13:51:38Z</time>
      </trkpt>
      <trkpt lat="46.28402" lon="-0.3443">
        <ele>48.1581</ele>
        <time>2011-07-03T13:51:39Z</time>
      </trkpt>
      <trkpt lat="46.28403" lon="-0.3443">
        <ele>48.1413</ele>
        <time>2011-07-03T13:51:40Z</time>
      </trkpt>
      <trkpt lat="46.28404" lon="-0.3443">
        <ele>48.1286</ele>
        <time>2011-07-03T13:51:41Z</time>
      </trkpt>
      <trkpt lat="46.28405" lon="-0.3443">
        <ele>48.1169</ele>
        <time>2011-07-03T13:51:42Z</time>
      </trkpt>
      <trkpt lat="46.28407" lon="-0.3443">
        <ele>48.1047</ele>
        <time>2011-07-03T13:51:43Z</time>
      </trkpt>
      <trkpt lat="46.28408" lon="-0.3443">
        <ele>48.0928</ele>
        <time>2011-07-03T13:51:44Z</time>
      </trkpt>
      <trkpt lat="46.2841" lon="-0.34429">
        <ele>48.0814</ele>
        <time>2011-07-03T13:51:45Z</time>
      </trkpt>
      <trkpt lat="46.28411" lon="-0.34429">
        <ele>48.0703</ele>
        <time>2011-07-03T13:51:46Z</time>
      </trkpt>
      <trkpt lat="46.28412" lon="-0.34429">
        <ele>48.0592</ele>
        <time>2011-07-03T13:51:47Z</time>
      </trkpt>
      <trkpt lat="46.28414" lon="-0.34428">
        <ele>48.0475</ele>
        <time>2011-07-03T13:51:48Z</time>
      </trkpt>
      <trkpt lat="46.28415" lon="-0.34428">
        <ele>48.0356</ele>
        <time>2011-07-03T13:51:49Z</time>
      </trkpt>
      <trkpt lat="46.28416" lon="-0.34428">
        <ele>48.0247</ele>
        <time>2011-07-03T13:51:50Z</time>
      </trkpt>
      <trkpt lat="46.28418" lon="-0.34428">
        <ele>48.0141</ele>
        <time>2011-07-03T13:51:51Z</time>
      </trkpt>
      <trkpt lat="46.28419" lon="-0.34427">
        <ele>48.0018</ele>
        <time>2011-07-03T13:51:52Z</time>
      </trkpt>
      <trkpt lat="46.28421" lon="-0.34427">
        <ele>47.9892</ele>
        <time>2011-07-03T13:51:53Z</time>
      </trkpt>
      <trkpt lat="46.28422" lon="-0.34427">
        <ele>47.9765</ele>
        <time>2011-07-03T13:51:54Z</time>
      </trkpt>
      <trkpt lat="46.28423" lon="-0.34426">
        <ele>47.9638</ele>
        <time>2011-07-03T13:51:55Z</time>
      </trkpt>
      <trkpt lat="46.28425" lon="-0.34426">
        <ele>47.951</ele>
        <time>2011-07-03T13:51:56Z</time>
      </trkpt>
      <trkpt lat="46.28426" lon="-0.34425">
        <ele>47.9382</ele>
        <time>2011-07-03T13:51:57Z</time>
      </trkpt>
      <trkpt lat="46.28427" lon="-0.34426">
        <ele>47.9251</ele>
        <time>2011-07-03T13:51:58Z</time>
      </trkpt>
      <trkpt lat="46.28428" lon="-0.34425">
        <ele>47.9135</ele>
        <time>2011-07-03T13:51:59Z</time>
      </trkpt>
      <trkpt lat="46.2843" lon="-0.34425">
        <ele>47.9045</ele>
        <time>2011-07-03T13:52:00Z</time>
      </trkpt>
      <trkpt lat="46.28431" lon="-0.34425">
        <ele>47.8987</ele>
        <time>2011-07-03T13:52:01Z</time>
      </trkpt>
      <trkpt lat="46.28432" lon="-0.34424">
        <ele>47.8984</ele>
        <time>2011-07-03T13:52:02Z</time>
      </trkpt>
      <trkpt lat="46.28433" lon="-0.34423">
        <ele>47.9027</ele>
        <time>2011-07-03T13:52:03Z</time>
      </trkpt>
      <trkpt lat="46.28434" lon="-0.34423">
        <ele>47.9169</ele>
        <time>2011-07-03T13:52:04Z</time>
      </trkpt>
      <trkpt lat="46.28436" lon="-0.34422">
        <ele>47.9386</ele>
        <time>2011-07-03T13:52:05Z</time>
      </trkpt>
      <trkpt lat="46.28437" lon="-0.34422">
        <ele>47.9665</ele>
        <time>2011-07-03T13:52:06Z</time>
      </trkpt>
      <trkpt lat="46.28438" lon="-0.34421">
        <ele>48.0004</ele>
        <time>2011-07-03T13:52:07Z</time>
      </trkpt>
      <trkpt lat="46.28439" lon="-0.34421">
        <ele>48.038</ele>
        <time>2011-07-03T13:52:08Z</time>
      </trkpt>
      <trkpt lat="46.2844" lon="-0.3442">
        <ele>48.0751</ele>
        <time>2011-07-03T13:52:09Z</time>
      </trkpt>
      <trkpt lat="46.28441" lon="-0.3442">
        <ele>48.1116</ele>
        <time>2011-07-03T13:52:10Z</time>
      </trkpt>
      <trkpt lat="46.28442" lon="-0.3442">
        <ele>48.1478</ele>
        <time>2011-07-03T13:52:11Z</time>
      </trkpt>
      <trkpt lat="46.28444" lon="-0.3442">
        <ele>48.1829</ele>
        <time>2011-07-03T13:52:12Z</time>
      </trkpt>
      <trkpt lat="46.28445" lon="-0.34419">
        <ele>48.2169</ele>
        <time>2011-07-03T13:52:13Z</time>
      </trkpt>
      <trkpt lat="46.28447" lon="-0.34419">
        <ele>48.249</ele>
        <time>2011-07-03T13:52:14Z</time>
      </trkpt>
      <trkpt lat="46.28448" lon="-0.34418">
        <ele>48.2797</ele>
        <time>2011-07-03T13:52:15Z</time>
      </trkpt>
      <trkpt lat="46.28449" lon="-0.34418">
        <ele>48.3101</ele>
        <time>2011-07-03T13:52:16Z</time>
      </trkpt>
      <trkpt lat="46.2845" lon="-0.34417">
        <ele>48.3403</ele>
        <time>2011-07-03T13:52:17Z</time>
      </trkpt>
      <trkpt lat="46.28452" lon="-0.34417">
        <ele>48.3693</ele>
        <time>2011-07-03T13:52:18Z</time>
      </trkpt>
      <trkpt lat="46.28453" lon="-0.34417">
        <ele>48.3981</ele>
        <time>2011-07-03T13:52:19Z</time>
      </trkpt>
      <trkpt lat="46.28455" lon="-0.34417">
        <ele>48.4281</ele>
        <time>2011-07-03T13:52:20Z</time>
      </trkpt>
      <trkpt lat="46.28457" lon="-0.34416">
        <ele>48.4576</ele>
        <time>2011-07-03T13:52:21Z</time>
      </trkpt>
      <trkpt lat="46.28459" lon="-0.34416">
        <ele>48.4728</ele>
        <time>2011-07-03T13:52:22Z</time>
      </trkpt>
      <trkpt lat="46.28462" lon="-0.34415">
        <ele>48.4785</ele>
        <time>2011-07-03T13:52:23Z</time>
      </trkpt>
      <trkpt lat="46.28464" lon="-0.34414">
        <ele>48.4714</ele>
        <time>2011-07-03T13:52:24Z</time>
      </trkpt>
      <trkpt lat="46.28465" lon="-0.34413">
        <ele>48.4446</ele>
        <time>2011-07-03T13:52:25Z</time>
      </trkpt>
      <trkpt lat="46.28467" lon="-0.34413">
        <ele>48.4201</ele>
        <time>2011-07-03T13:52:26Z</time>
      </trkpt>
      <trkpt lat="46.28468" lon="-0.34412">
        <ele>48.3952</ele>
        <time>2011-07-03T13:52:27Z</time>
      </trkpt>
      <trkpt lat="46.28469" lon="-0.34412">
        <ele>48.3734</ele>
        <time>2011-07-03T13:52:28Z</time>
      </trkpt>
      <trkpt lat="46.2847" lon="-0.34412">
        <ele>48.3563</ele>
        <time>2011-07-03T13:52:29Z</time>
      </trkpt>
      <trkpt lat="46.28471" lon="-0.34412">
        <ele>48.3406</ele>
        <time>2011-07-03T13:52:30Z</time>
      </trkpt>
      <trkpt lat="46.28473" lon="-0.34412">
        <ele>48.3286</ele>
        <time>2011-07-03T13:52:31Z</time>
      </trkpt>
      <trkpt lat="46.28474" lon="-0.34411">
        <ele>48.32</ele>
        <time>2011-07-03T13:52:32Z</time>
      </trkpt>
      <trkpt lat="46.28475" lon="-0.34411">
        <ele>48.3168</ele>
        <time>2011-07-03T13:52:33Z</time>
      </trkpt>
      <trkpt lat="46.28477" lon="-0.3441">
        <ele>48.3225</ele>
        <time>2011-07-03T13:52:34Z</time>
      </trkpt>
      <trkpt lat="46.28478" lon="-0.3441">
        <ele>48.3311</ele>
        <time>2011-07-03T13:52:35Z</time>
      </trkpt>
      <trkpt lat="46.2848" lon="-0.3441">
        <ele>48.3426</ele>
        <time>2011-07-03T13:52:36Z</time>
      </trkpt>
      <trkpt lat="46.28481" lon="-0.34409">
        <ele>48.3573</ele>
        <time>2011-07-03T13:52:37Z</time>
      </trkpt>
      <trkpt lat="46.28482" lon="-0.34409">
        <ele>48.3738</ele>
        <time>2011-07-03T13:52:38Z</time>
      </trkpt>
      <trkpt lat="46.28484" lon="-0.34408">
        <ele>48.3909</ele>
        <time>2011-07-03T13:52:39Z</time>
      </trkpt>
      <trkpt lat="46.28485" lon="-0.34408">
        <ele>48.4178</ele>
        <time>2011-07-03T13:52:40Z</time>
      </trkpt>
      <trkpt lat="46.28487" lon="-0.34408">
        <ele>48.458</ele>
        <time>2011-07-03T13:52:41Z</time>
      </trkpt>
      <trkpt lat="46.28488" lon="-0.34408">
        <ele>48.4981</ele>
        <time>2011-07-03T13:52:42Z</time>
      </trkpt>
      <trkpt lat="46.28489" lon="-0.34407">
        <ele>48.5371</ele>
        <time>2011-07-03T13:52:43Z</time>
      </trkpt>
      <trkpt lat="46.28491" lon="-0.34407">
        <ele>48.5758</ele>
        <time>2011-07-03T13:52:44Z</time>
      </trkpt>
      <trkpt lat="46.28492" lon="-0.34407">
        <ele>48.6126</ele>
        <time>2011-07-03T13:52:45Z</time>
      </trkpt>
      <trkpt lat="46.28494" lon="-0.34407">
        <ele>48.6506</ele>
        <time>2011-07-03T13:52:46Z</time>
      </trkpt>
      <trkpt lat="46.28495" lon="-0.34407">
        <ele>48.6962</ele>
        <time>2011-07-03T13:52:47Z</time>
      </trkpt>
      <trkpt lat="46.28496" lon="-0.34406">
        <ele>48.741</ele>
        <time>2011-07-03T13:52:48Z</time>
      </trkpt>
      <trkpt lat="46.28497" lon="-0.34406">
        <ele>48.7942</ele>
        <time>2011-07-03T13:52:49Z</time>
      </trkpt>
      <trkpt lat="46.28499" lon="-0.34406">
        <ele>48.8541</ele>
        <time>2011-07-03T13:52:50Z</time>
      </trkpt>
      <trkpt lat="46.285" lon="-0.34406">
        <ele>48.9123</ele>
        <time>2011-07-03T13:52:51Z</time>
      </trkpt>
      <trkpt lat="46.28501" lon="-0.34406">
        <ele>48.9696</ele>
        <time>2011-07-03T13:52:52Z</time>
      </trkpt>
      <trkpt lat="46.28503" lon="-0.34406">
        <ele>49.0256</ele>
        <time>2011-07-03T13:52:53Z</time>
      </trkpt>
      <trkpt lat="46.28504" lon="-0.34406">
        <ele>49.0798</ele>
        <time>2011-07-03T13:52:54Z</time>
      </trkpt>
      <trkpt lat="46.28505" lon="-0.34406">
        <ele>49.1309</ele>
        <time>2011-07-03T13:52:55Z</time>
      </trkpt>
      <trkpt lat="46.28506" lon="-0.34406">
        <ele>49.1818</ele>
        <time>2011-07-03T13:52:56Z</time>
      </trkpt>
      <trkpt lat="46.28507" lon="-0.34406">
        <ele>49.2309</ele>
        <time>2011-07-03T13:52:57Z</time>
      </trkpt>
      <trkpt lat="46.28508" lon="-0.34406">
        <ele>49.2752</ele>
        <time>2011-07-03T13:52:58Z</time>
      </trkpt>
      <trkpt lat="46.28509" lon="-0.34406">
        <ele>49.3235</ele>
        <time>2011-07-03T13:52:59Z</time>
      </trkpt>
      <trkpt lat="46.2851" lon="-0.34406">
        <ele>49.3734</ele>
        <time>2011-07-03T13:53:00Z</time>
      </trkpt>
      <trkpt lat="46.28512" lon="-0.34406">
        <ele>49.4179</ele>
        <time>2011-07-03T13:53:01Z</time>
      </trkpt>
      <trkpt lat="46.28513" lon="-0.34406">
        <ele>49.458</ele>
        <time>2011-07-03T13:53:02Z</time>
      </trkpt>
      <trkpt lat="46.28515" lon="-0.34407">
        <ele>49.4977</ele>
        <time>2011-07-03T13:53:03Z</time>
      </trkpt>
      <trkpt lat="46.28516" lon="-0.34407">
        <ele>49.5401</ele>
        <time>2011-07-03T13:53:04Z</time>
      </trkpt>
      <trkpt lat="46.28518" lon="-0.34407">
        <ele>49.5915</ele>
        <time>2011-07-03T13:53:05Z</time>
      </trkpt>
      <trkpt lat="46.28519" lon="-0.34407">
        <ele>49.6515</ele>
        <time>2011-07-03T13:53:06Z</time>
      </trkpt>
      <trkpt lat="46.28521" lon="-0.34406">
        <ele>49.7099</ele>
        <time>2011-07-03T13:53:07Z</time>
      </trkpt>
      <trkpt lat="46.28523" lon="-0.34406">
        <ele>49.7799</ele>
        <time>2011-07-03T13:53:08Z</time>
      </trkpt>
      <trkpt lat="46.28524" lon="-0.34406">
        <ele>49.8586</ele>
        <time>2011-07-03T13:53:09Z</time>
      </trkpt>
      <trkpt lat="46.28526" lon="-0.34406">
        <ele>49.9458</ele>
        <time>2011-07-03T13:53:10Z</time>
      </trkpt>
      <trkpt lat="46.28527" lon="-0.34406">
        <ele>50.0416</ele>
        <time>2011-07-03T13:53:11Z</time>
      </trkpt>
      <trkpt lat="46.28528" lon="-0.34406">
        <ele>50.143</ele>
        <time>2011-07-03T13:53:12Z</time>
      </trkpt>
      <trkpt lat="46.2853" lon="-0.34406">
        <ele>50.249</ele>
        <time>2011-07-03T13:53:13Z</time>
      </trkpt>
      <trkpt lat="46.28531" lon="-0.34406">
        <ele>50.3594</ele>
        <time>2011-07-03T13:53:14Z</time>
      </trkpt>
      <trkpt lat="46.28532" lon="-0.34406">
        <ele>50.473</ele>
        <time>2011-07-03T13:53:15Z</time>
      </trkpt>
      <trkpt lat="46.28534" lon="-0.34405">
        <ele>50.5916</ele>
        <time>2011-07-03T13:53:16Z</time>
      </trkpt>
      <trkpt lat="46.28536" lon="-0.34405">
        <ele>50.7147</ele>
        <time>2011-07-03T13:53:17Z</time>
      </trkpt>
      <trkpt lat="46.28537" lon="-0.34405">
        <ele>50.8429</ele>
        <time>2011-07-03T13:53:18Z</time>
      </trkpt>
      <trkpt lat="46.28538" lon="-0.34405">
        <ele>50.9714</ele>
        <time>2011-07-03T13:53:19Z</time>
      </trkpt>
      <trkpt lat="46.28539" lon="-0.34404">
        <ele>51.0984</ele>
        <time>2011-07-03T13:53:20Z</time>
      </trkpt>
      <trkpt lat="46.2854" lon="-0.34404">
        <ele>51.2241</ele>
        <time>2011-07-03T13:53:21Z</time>
      </trkpt>
      <trkpt lat="46.28542" lon="-0.34403">
        <ele>51.3475</ele>
        <time>2011-07-03T13:53:22Z</time>
      </trkpt>
      <trkpt lat="46.28543" lon="-0.34403">
        <ele>51.4693</ele>
        <time>2011-07-03T13:53:23Z</time>
      </trkpt>
      <trkpt lat="46.28544" lon="-0.34403">
        <ele>51.5898</ele>
        <time>2011-07-03T13:53:24Z</time>
      </trkpt>
      <trkpt lat="46.28545" lon="-0.34403">
        <ele>51.7085</ele>
        <time>2011-07-03T13:53:25Z</time>
      </trkpt>
      <trkpt lat="46.28546" lon="-0.34403">
        <ele>51.8263</ele>
        <time>2011-07-03T13:53:26Z</time>
      </trkpt>
      <trkpt lat="46.28548" lon="-0.34402">
        <ele>51.9425</ele>
        <time>2011-07-03T13:53:27Z</time>
      </trkpt>
      <trkpt lat="46.28549" lon="-0.34402">
        <ele>52.0589</ele>
        <time>2011-07-03T13:53:28Z</time>
      </trkpt>
      <trkpt lat="46.2855" lon="-0.34402">
        <ele>52.1731</ele>
        <time>2011-07-03T13:53:29Z</time>
      </trkpt>
      <trkpt lat="46.28552" lon="-0.34402">
        <ele>52.2849</ele>
        <time>2011-07-03T13:53:30Z</time>
      </trkpt>
      <trkpt lat="46.28553" lon="-0.34402">
        <ele>52.3958</ele>
        <time>2011-07-03T13:53:31Z</time>
      </trkpt>
      <trkpt lat="46.28554" lon="-0.34402">
        <ele>52.5037</ele>
        <time>2011-07-03T13:53:32Z</time>
      </trkpt>
      <trkpt lat="46.28556" lon="-0.34402">
        <ele>52.6095</ele>
        <time>2011-07-03T13:53:33Z</time>
      </trkpt>
      <trkpt lat="46.28557" lon="-0.34402">
        <ele>52.7143</ele>
        <time>2011-07-03T13:53:34Z</time>
      </trkpt>
      <trkpt lat="46.28558" lon="-0.34402">
        <ele>52.8158</ele>
        <time>2011-07-03T13:53:35Z</time>
      </trkpt>
      <trkpt lat="46.2856" lon="-0.34401">
        <ele>52.9141</ele>
        <time>2011-07-03T13:53:36Z</time>
      </trkpt>
      <trkpt lat="46.28561" lon="-0.34401">
        <ele>53.0087</ele>
        <time>2011-07-03T13:53:37Z</time>
      </trkpt>
      <trkpt lat="46.28563" lon="-0.34401">
        <ele>53.0999</ele>
        <time>2011-07-03T13:53:38Z</time>
      </trkpt>
      <trkpt lat="46.28564" lon="-0.34401">
        <ele>53.1881</ele>
        <time>2011-07-03T13:53:39Z</time>
      </trkpt>
      <trkpt lat="46.28566" lon="-0.34402">
        <ele>53.273</ele>
        <time>2011-07-03T13:53:40Z</time>
      </trkpt>
      <trkpt lat="46.28567" lon="-0.34402">
        <ele>53.3566</ele>
        <time>2011-07-03T13:53:41Z</time>
      </trkpt>
      <trkpt lat="46.28569" lon="-0.34401">
        <ele>53.4369</ele>
        <time>2011-07-03T13:53:42Z</time>
      </trkpt>
      <trkpt lat="46.2857" lon="-0.34402">
        <ele>53.5146</ele>
        <time>2011-07-03T13:53:43Z</time>
      </trkpt>
      <trkpt lat="46.28572" lon="-0.34402">
        <ele>53.5902</ele>
        <time>2011-07-03T13:53:44Z</time>
      </trkpt>
      <trkpt lat="46.28573" lon="-0.34402">
        <ele>53.6624</ele>
        <time>2011-07-03T13:53:45Z</time>
      </trkpt>
      <trkpt lat="46.28574" lon="-0.34403">
        <ele>53.7312</ele>
        <time>2011-07-03T13:53:46Z</time>
      </trkpt>
      <trkpt lat="46.28576" lon="-0.34403">
        <ele>53.7966</ele>
        <time>2011-07-03T13:53:47Z</time>
      </trkpt>
      <trkpt lat="46.28577" lon="-0.34403">
        <ele>53.8614</ele>
        <time>2011-07-03T13:53:48Z</time>
      </trkpt>
      <trkpt lat="46.28579" lon="-0.34403">
        <ele>53.9252</ele>
        <time>2011-07-03T13:53:49Z</time>
      </trkpt>
      <trkpt lat="46.28581" lon="-0.34403">
        <ele>53.9877</ele>
        <time>2011-07-03T13:53:50Z</time>
      </trkpt>
      <trkpt lat="46.28582" lon="-0.34403">
        <ele>54.0476</ele>
        <time>2011-07-03T13:53:51Z</time>
      </trkpt>
      <trkpt lat="46.28584" lon="-0.34403">
        <ele>54.1032</ele>
        <time>2011-07-03T13:53:52Z</time>
      </trkpt>
      <trkpt lat="46.28585" lon="-0.34403">
        <ele>54.157</ele>
        <time>2011-07-03T13:53:53Z</time>
      </trkpt>
      <trkpt lat="46.28587" lon="-0.34403">
        <ele>54.2092</ele>
        <time>2011-07-03T13:53:54Z</time>
      </trkpt>
      <trkpt lat="46.28588" lon="-0.34403">
        <ele>54.2609</ele>
        <time>2011-07-03T13:53:55Z</time>
      </trkpt>
      <trkpt lat="46.2859" lon="-0.34403">
        <ele>54.3116</ele>
        <time>2011-07-03T13:53:56Z</time>
      </trkpt>
      <trkpt lat="46.28591" lon="-0.34403">
        <ele>54.3621</ele>
        <time>2011-07-03T13:53:57Z</time>
      </trkpt>
      <trkpt lat="46.28592" lon="-0.34403">
        <ele>54.4122</ele>
        <time>2011-07-03T13:53:58Z</time>
      </trkpt>
      <trkpt lat="46.28594" lon="-0.34403">
        <ele>54.4619</ele>
        <time>2011-07-03T13:53:59Z</time>
      </trkpt>
      <trkpt lat="46.28595" lon="-0.34402">
        <ele>54.5107</ele>
        <time>2011-07-03T13:54:00Z</time>
      </trkpt>
      <trkpt lat="46.28597" lon="-0.34402">
        <ele>54.5584</ele>
        <time>2011-07-03T13:54:01Z</time>
      </trkpt>
      <trkpt lat="46.28598" lon="-0.34402">
        <ele>54.605</ele>
        <time>2011-07-03T13:54:02Z</time>
      </trkpt>
      <trkpt lat="46.28599" lon="-0.34402">
        <ele>54.6505</ele>
        <time>2011-07-03T13:54:03Z</time>
      </trkpt>
      <trkpt lat="46.28601" lon="-0.34402">
        <ele>54.695</ele>
        <time>2011-07-03T13:54:04Z</time>
      </trkpt>
      <trkpt lat="46.28602" lon="-0.34402">
        <ele>54.7378</ele>
        <time>2011-07-03T13:54:05Z</time>
      </trkpt>
      <trkpt lat="46.28604" lon="-0.34403">
        <ele>54.7787</ele>
        <time>2011-07-03T13:54:06Z</time>
      </trkpt>
      <trkpt lat="46.28605" lon="-0.34403">
        <ele>54.8175</ele>
        <time>2011-07-03T13:54:07Z</time>
      </trkpt>
      <trkpt lat="46.28607" lon="-0.34403">
        <ele>54.8539</ele>
        <time>2011-07-03T13:54:08Z</time>
      </trkpt>
      <trkpt lat="46.28608" lon="-0.34402">
        <ele>54.8879</ele>
        <time>2011-07-03T13:54:09Z</time>
      </trkpt>
      <trkpt lat="46.2861" lon="-0.34402">
        <ele>54.9213</ele>
        <time>2011-07-03T13:54:10Z</time>
      </trkpt>
      <trkpt lat="46.28611" lon="-0.34402">
        <ele>54.9522</ele>
        <time>2011-07-03T13:54:11Z</time>
      </trkpt>
      <trkpt lat="46.28613" lon="-0.34402">
        <ele>54.9725</ele>
        <time>2011-07-03T13:54:12Z</time>
      </trkpt>
      <trkpt lat="46.28614" lon="-0.34402">
        <ele>54.991</ele>
        <time>2011-07-03T13:54:13Z</time>
      </trkpt>
      <trkpt lat="46.28616" lon="-0.34402">
        <ele>55.0002</ele>
        <time>2011-07-03T13:54:14Z</time>
      </trkpt>
      <trkpt lat="46.28617" lon="-0.34401">
        <ele>55.0011</ele>
        <time>2011-07-03T13:54:15Z</time>
      </trkpt>
      <trkpt lat="46.28618" lon="-0.34401">
        <ele>55.0019</ele>
        <time>2011-07-03T13:54:16Z</time>
      </trkpt>
      <trkpt lat="46.2862" lon="-0.344">
        <ele>54.996</ele>
        <time>2011-07-03T13:54:17Z</time>
      </trkpt>
      <trkpt lat="46.28621" lon="-0.344">
        <ele>54.9886</ele>
        <time>2011-07-03T13:54:18Z</time>
      </trkpt>
      <trkpt lat="46.28622" lon="-0.344">
        <ele>54.9798</ele>
        <time>2011-07-03T13:54:19Z</time>
      </trkpt>
      <trkpt lat="46.28624" lon="-0.344">
        <ele>54.9697</ele>
        <time>2011-07-03T13:54:20Z</time>
      </trkpt>
      <trkpt lat="46.28625" lon="-0.344">
        <ele>54.958</ele>
        <time>2011-07-03T13:54:21Z</time>
      </trkpt>
      <trkpt lat="46.28626" lon="-0.344">
        <ele>54.9449</ele>
        <time>2011-07-03T13:54:22Z</time>
      </trkpt>
      <trkpt lat="46.28627" lon="-0.344">
        <ele>54.9308</ele>
        <time>2011-07-03T13:54:23Z</time>
      </trkpt>
      <trkpt lat="46.28629" lon="-0.34399">
        <ele>54.9156</ele>
        <time>2011-07-03T13:54:24Z</time>
      </trkpt>
      <trkpt lat="46.2863" lon="-0.34399">
        <ele>54.9013</ele>
        <time>2011-07-03T13:54:25Z</time>
      </trkpt>
      <trkpt lat="46.28632" lon="-0.344">
        <ele>54.8866</ele>
        <time>2011-07-03T13:54:26Z</time>
      </trkpt>
      <trkpt lat="46.28633" lon="-0.344">
        <ele>54.8723</ele>
        <time>2011-07-03T13:54:27Z</time>
      </trkpt>
      <trkpt lat="46.28634" lon="-0.344">
        <ele>54.86</ele>
        <time>2011-07-03T13:54:28Z</time>
      </trkpt>
      <trkpt lat="46.28636" lon="-0.344">
        <ele>54.8478</ele>
        <time>2011-07-03T13:54:29Z</time>
      </trkpt>
      <trkpt lat="46.28637" lon="-0.344">
        <ele>54.8334</ele>
        <time>2011-07-03T13:54:30Z</time>
      </trkpt>
      <trkpt lat="46.28639" lon="-0.344">
        <ele>54.8205</ele>
        <time>2011-07-03T13:54:31Z</time>
      </trkpt>
      <trkpt lat="46.2864" lon="-0.34399">
        <ele>54.8002</ele>
        <time>2011-07-03T13:54:32Z</time>
      </trkpt>
      <trkpt lat="46.28641" lon="-0.34398">
        <ele>54.7817</ele>
        <time>2011-07-03T13:54:33Z</time>
      </trkpt>
      <trkpt lat="46.28643" lon="-0.34398">
        <ele>54.7624</ele>
        <time>2011-07-03T13:54:34Z</time>
      </trkpt>
      <trkpt lat="46.28644" lon="-0.34397">
        <ele>54.7421</ele>
        <time>2011-07-03T13:54:35Z</time>
      </trkpt>
      <trkpt lat="46.28645" lon="-0.34396">
        <ele>54.7185</ele>
        <time>2011-07-03T13:54:36Z</time>
      </trkpt>
      <trkpt lat="46.28647" lon="-0.34395">
        <ele>54.6902</ele>
        <time>2011-07-03T13:54:37Z</time>
      </trkpt>
      <trkpt lat="46.28648" lon="-0.34394">
        <ele>54.6526</ele>
        <time>2011-07-03T13:54:38Z</time>
      </trkpt>
      <trkpt lat="46.2865" lon="-0.34394">
        <ele>54.6161</ele>
        <time>2011-07-03T13:54:39Z</time>
      </trkpt>
      <trkpt lat="46.28651" lon="-0.34394">
        <ele>54.5775</ele>
        <time>2011-07-03T13:54:40Z</time>
      </trkpt>
      <trkpt lat="46.28653" lon="-0.34393">
        <ele>54.5372</ele>
        <time>2011-07-03T13:54:41Z</time>
      </trkpt>
      <trkpt lat="46.28654" lon="-0.34393">
        <ele>54.4953</ele>
        <time>2011-07-03T13:54:42Z</time>
      </trkpt>
      <trkpt lat="46.28655" lon="-0.34392">
        <ele>54.4533</ele>
        <time>2011-07-03T13:54:43Z</time>
      </trkpt>
      <trkpt lat="46.28657" lon="-0.34391">
        <ele>54.4119</ele>
        <time>2011-07-03T13:54:44Z</time>
      </trkpt>
      <trkpt lat="46.28658" lon="-0.34391">
        <ele>54.3692</ele>
        <time>2011-07-03T13:54:45Z</time>
      </trkpt>
      <trkpt lat="46.2866" lon="-0.3439">
        <ele>54.3261</ele>
        <time>2011-07-03T13:54:46Z</time>
      </trkpt>
      <trkpt lat="46.28661" lon="-0.3439">
        <ele>54.2823</ele>
        <time>2011-07-03T13:54:47Z</time>
      </trkpt>
      <trkpt lat="46.28663" lon="-0.34389">
        <ele>54.2383</ele>
        <time>2011-07-03T13:54:48Z</time>
      </trkpt>
      <trkpt lat="46.28664" lon="-0.34389">
        <ele>54.1937</ele>
        <time>2011-07-03T13:54:49Z</time>
      </trkpt>
      <trkpt lat="46.28666" lon="-0.34389">
        <ele>54.1499</ele>
        <time>2011-07-03T13:54:50Z</time>
      </trkpt>
      <trkpt lat="46.28667" lon="-0.34388">
        <ele>54.1069</ele>
        <time>2011-07-03T13:54:51Z</time>
      </trkpt>
      <trkpt lat="46.28669" lon="-0.34387">
        <ele>54.0638</ele>
        <time>2011-07-03T13:54:52Z</time>
      </trkpt>
      <trkpt lat="46.2867" lon="-0.34387">
        <ele>54.0207</ele>
        <time>2011-07-03T13:54:53Z</time>
      </trkpt>
      <trkpt lat="46.28672" lon="-0.34386">
        <ele>53.979</ele>
        <time>2011-07-03T13:54:54Z</time>
      </trkpt>
      <trkpt lat="46.28673" lon="-0.34385">
        <ele>53.9372</ele>
        <time>2011-07-03T13:54:55Z</time>
      </trkpt>
      <trkpt lat="46.28674" lon="-0.34385">
        <ele>53.8965</ele>
        <time>2011-07-03T13:54:56Z</time>
      </trkpt>
      <trkpt lat="46.28676" lon="-0.34384">
        <ele>53.8574</ele>
        <time>2011-07-03T13:54:57Z</time>
      </trkpt>
      <trkpt lat="46.28677" lon="-0.34383">
        <ele>53.8196</ele>
        <time>2011-07-03T13:54:58Z</time>
      </trkpt>
      <trkpt lat="46.28679" lon="-0.34383">
        <ele>53.7829</ele>
        <time>2011-07-03T13:54:59Z</time>
      </trkpt>
      <trkpt lat="46.28679" lon="-0.34383">
        <ele>53.7482</ele>
        <time>2011-07-03T13:55:00Z</time>
      </trkpt>
      <trkpt lat="46.2868" lon="-0.34383">
        <ele>53.7149</ele>
        <time>2011-07-03T13:55:01Z</time>
      </trkpt>
      <trkpt lat="46.28681" lon="-0.34382">
        <ele>53.6823</ele>
        <time>2011-07-03T13:55:02Z</time>
      </trkpt>
      <trkpt lat="46.28681" lon="-0.34381">
        <ele>53.6506</ele>
        <time>2011-07-03T13:55:03Z</time>
      </trkpt>
      <trkpt lat="46.28682" lon="-0.3438">
        <ele>53.6188</ele>
        <time>2011-07-03T13:55:04Z</time>
      </trkpt>
      <trkpt lat="46.28683" lon="-0.34379">
        <ele>53.5896</ele>
        <time>2011-07-03T13:55:05Z</time>
      </trkpt>
      <trkpt lat="46.28684" lon="-0.34379">
        <ele>53.5624</ele>
        <time>2011-07-03T13:55:06Z</time>
      </trkpt>
      <trkpt lat="46.28685" lon="-0.34379">
        <ele>53.5401</ele>
        <time>2011-07-03T13:55:07Z</time>
      </trkpt>
      <trkpt lat="46.28687" lon="-0.34378">
        <ele>53.5221</ele>
        <time>2011-07-03T13:55:08Z</time>
      </trkpt>
      <trkpt lat="46.28688" lon="-0.34378">
        <ele>53.5059</ele>
        <time>2011-07-03T13:55:09Z</time>
      </trkpt>
      <trkpt lat="46.2869" lon="-0.34377">
        <ele>53.4851</ele>
        <time>2011-07-03T13:55:10Z</time>
      </trkpt>
      <trkpt lat="46.28691" lon="-0.34376">
        <ele>53.466</ele>
        <time>2011-07-03T13:55:11Z</time>
      </trkpt>
      <trkpt lat="46.28693" lon="-0.34376">
        <ele>53.4439</ele>
        <time>2011-07-03T13:55:12Z</time>
      </trkpt>
      <trkpt lat="46.28694" lon="-0.34375">
        <ele>53.4161</ele>
        <time>2011-07-03T13:55:13Z</time>
      </trkpt>
      <trkpt lat="46.28695" lon="-0.34374">
        <ele>53.3866</ele>
        <time>2011-07-03T13:55:14Z</time>
      </trkpt>
      <trkpt lat="46.28697" lon="-0.34373">
        <ele>53.3554</ele>
        <time>2011-07-03T13:55:15Z</time>
      </trkpt>
      <trkpt lat="46.28698" lon="-0.34372">
        <ele>53.3213</ele>
        <time>2011-07-03T13:55:16Z</time>
      </trkpt>
      <trkpt lat="46.287" lon="-0.34371">
        <ele>53.2865</ele>
        <time>2011-07-03T13:55:17Z</time>
      </trkpt>
      <trkpt lat="46.28701" lon="-0.34371">
        <ele>53.2515</ele>
        <time>2011-07-03T13:55:18Z</time>
      </trkpt>
      <trkpt lat="46.28703" lon="-0.3437">
        <ele>53.2217</ele>
        <time>2011-07-03T13:55:19Z</time>
      </trkpt>
      <trkpt lat="46.28704" lon="-0.3437">
        <ele>53.1908</ele>
        <time>2011-07-03T13:55:20Z</time>
      </trkpt>
      <trkpt lat="46.28705" lon="-0.34369">
        <ele>53.1614</ele>
        <time>2011-07-03T13:55:21Z</time>
      </trkpt>
      <trkpt lat="46.28706" lon="-0.34369">
        <ele>53.1341</ele>
        <time>2011-07-03T13:55:22Z</time>
      </trkpt>
      <trkpt lat="46.28708" lon="-0.34368">
        <ele>53.1062</ele>
        <time>2011-07-03T13:55:23Z</time>
      </trkpt>
      <trkpt lat="46.28709" lon="-0.34367">
        <ele>53.0805</ele>
        <time>2011-07-03T13:55:24Z</time>
      </trkpt>
      <trkpt lat="46.28711" lon="-0.34367">
        <ele>53.0557</ele>
        <time>2011-07-03T13:55:25Z</time>
      </trkpt>
      <trkpt lat="46.28712" lon="-0.34366">
        <ele>53.0321</ele>
        <time>2011-07-03T13:55:26Z</time>
      </trkpt>
      <trkpt lat="46.28714" lon="-0.34366">
        <ele>53.0105</ele>
        <time>2011-07-03T13:55:27Z</time>
      </trkpt>
      <trkpt lat="46.28715" lon="-0.34365">
        <ele>52.9907</ele>
        <time>2011-07-03T13:55:28Z</time>
      </trkpt>
      <trkpt lat="46.28716" lon="-0.34365">
        <ele>52.9724</ele>
        <time>2011-07-03T13:55:29Z</time>
      </trkpt>
      <trkpt lat="46.28718" lon="-0.34365">
        <ele>52.9565</ele>
        <time>2011-07-03T13:55:30Z</time>
      </trkpt>
      <trkpt lat="46.28719" lon="-0.34364">
        <ele>52.9389</ele>
        <time>2011-07-03T13:55:31Z</time>
      </trkpt>
      <trkpt lat="46.28721" lon="-0.34364">
        <ele>52.9239</ele>
        <time>2011-07-03T13:55:32Z</time>
      </trkpt>
      <trkpt lat="46.28722" lon="-0.34363">
        <ele>52.9114</ele>
        <time>2011-07-03T13:55:33Z</time>
      </trkpt>
      <trkpt lat="46.28723" lon="-0.34363">
        <ele>52.8992</ele>
        <time>2011-07-03T13:55:34Z</time>
      </trkpt>
      <trkpt lat="46.28724" lon="-0.34363">
        <ele>52.8881</ele>
        <time>2011-07-03T13:55:35Z</time>
      </trkpt>
      <trkpt lat="46.28726" lon="-0.34362">
        <ele>52.8854</ele>
        <time>2011-07-03T13:55:36Z</time>
      </trkpt>
      <trkpt lat="46.28727" lon="-0.34362">
        <ele>52.8839</ele>
        <time>2011-07-03T13:55:37Z</time>
      </trkpt>
      <trkpt lat="46.28729" lon="-0.34361">
        <ele>52.8896</ele>
        <time>2011-07-03T13:55:38Z</time>
      </trkpt>
      <trkpt lat="46.2873" lon="-0.34361">
        <ele>52.8946</ele>
        <time>2011-07-03T13:55:39Z</time>
      </trkpt>
      <trkpt lat="46.28732" lon="-0.34361">
        <ele>52.8989</ele>
        <time>2011-07-03T13:55:40Z</time>
      </trkpt>
      <trkpt lat="46.28733" lon="-0.34361">
        <ele>52.9057</ele>
        <time>2011-07-03T13:55:41Z</time>
      </trkpt>
      <trkpt lat="46.28735" lon="-0.3436">
        <ele>52.9113</ele>
        <time>2011-07-03T13:55:42Z</time>
      </trkpt>
      <trkpt lat="46.28736" lon="-0.3436">
        <ele>52.9178</ele>
        <time>2011-07-03T13:55:43Z</time>
      </trkpt>
      <trkpt lat="46.28738" lon="-0.3436">
        <ele>52.9281</ele>
        <time>2011-07-03T13:55:44Z</time>
      </trkpt>
      <trkpt lat="46.28739" lon="-0.3436">
        <ele>52.9412</ele>
        <time>2011-07-03T13:55:45Z</time>
      </trkpt>
      <trkpt lat="46.28741" lon="-0.34359">
        <ele>52.9529</ele>
        <time>2011-07-03T13:55:46Z</time>
      </trkpt>
      <trkpt lat="46.28742" lon="-0.34358">
        <ele>52.9555</ele>
        <time>2011-07-03T13:55:47Z</time>
      </trkpt>
      <trkpt lat="46.28743" lon="-0.34358">
        <ele>52.9435</ele>
        <time>2011-07-03T13:55:48Z</time>
      </trkpt>
      <trkpt lat="46.28744" lon="-0.34358">
        <ele>52.9343</ele>
        <time>2011-07-03T13:55:49Z</time>
      </trkpt>
      <trkpt lat="46.28744" lon="-0.34358">
        <ele>52.9244</ele>
        <time>2011-07-03T13:55:50Z</time>
      </trkpt>
      <trkpt lat="46.28745" lon="-0.34357">
        <ele>52.9151</ele>
        <time>2011-07-03T13:55:51Z</time>
      </trkpt>
      <trkpt lat="46.28745" lon="-0.34357">
        <ele>52.9046</ele>
        <time>2011-07-03T13:55:52Z</time>
      </trkpt>
      <trkpt lat="46.28746" lon="-0.34357">
        <ele>52.896</ele>
        <time>2011-07-03T13:55:53Z</time>
      </trkpt>
      <trkpt lat="46.28746" lon="-0.34356">
        <ele>52.8862</ele>
        <time>2011-07-03T13:55:54Z</time>
      </trkpt>
      <trkpt lat="46.28747" lon="-0.34355">
        <ele>52.8806</ele>
        <time>2011-07-03T13:55:55Z</time>
      </trkpt>
      <trkpt lat="46.28749" lon="-0.34355">
        <ele>52.8772</ele>
        <time>2011-07-03T13:55:56Z</time>
      </trkpt>
      <trkpt lat="46.2875" lon="-0.34354">
        <ele>52.8718</ele>
        <time>2011-07-03T13:55:57Z</time>
      </trkpt>
      <trkpt lat="46.28751" lon="-0.34353">
        <ele>52.862</ele>
        <time>2011-07-03T13:55:58Z</time>
      </trkpt>
      <trkpt lat="46.28753" lon="-0.34353">
        <ele>52.862</ele>
        <time>2011-07-03T13:55:59Z</time>
      </trkpt>
      <trkpt lat="46.28754" lon="-0.34353">
        <ele>52.8539</ele>
        <time>2011-07-03T13:56:00Z</time>
      </trkpt>
      <trkpt lat="46.28755" lon="-0.34353">
        <ele>52.8432</ele>
        <time>2011-07-03T13:56:01Z</time>
      </trkpt>
      <trkpt lat="46.28756" lon="-0.34352">
        <ele>52.8279</ele>
        <time>2011-07-03T13:56:02Z</time>
      </trkpt>
      <trkpt lat="46.28758" lon="-0.34352">
        <ele>52.8138</ele>
        <time>2011-07-03T13:56:03Z</time>
      </trkpt>
      <trkpt lat="46.28759" lon="-0.34351">
        <ele>52.8019</ele>
        <time>2011-07-03T13:56:04Z</time>
      </trkpt>
      <trkpt lat="46.28761" lon="-0.34351">
        <ele>52.7905</ele>
        <time>2011-07-03T13:56:05Z</time>
      </trkpt>
      <trkpt lat="46.28762" lon="-0.3435">
        <ele>52.7807</ele>
        <time>2011-07-03T13:56:06Z</time>
      </trkpt>
      <trkpt lat="46.28763" lon="-0.34349">
        <ele>52.767</ele>
        <time>2011-07-03T13:56:07Z</time>
      </trkpt>
      <trkpt lat="46.28764" lon="-0.34349">
        <ele>52.7512</ele>
        <time>2011-07-03T13:56:08Z</time>
      </trkpt>
      <trkpt lat="46.28766" lon="-0.34348">
        <ele>52.7373</ele>
        <time>2011-07-03T13:56:09Z</time>
      </trkpt>
      <trkpt lat="46.28767" lon="-0.34348">
        <ele>52.7273</ele>
        <time>2011-07-03T13:56:10Z</time>
      </trkpt>
      <trkpt lat="46.28769" lon="-0.34347">
        <ele>52.717</ele>
        <time>2011-07-03T13:56:11Z</time>
      </trkpt>
      <trkpt lat="46.2877" lon="-0.34347">
        <ele>52.7066</ele>
        <time>2011-07-03T13:56:12Z</time>
      </trkpt>
      <trkpt lat="46.28771" lon="-0.34347">
        <ele>52.6962</ele>
        <time>2011-07-03T13:56:13Z</time>
      </trkpt>
      <trkpt lat="46.28773" lon="-0.34347">
        <ele>52.6863</ele>
        <time>2011-07-03T13:56:14Z</time>
      </trkpt>
      <trkpt lat="46.28774" lon="-0.34347">
        <ele>52.6759</ele>
        <time>2011-07-03T13:56:15Z</time>
      </trkpt>
      <trkpt lat="46.28775" lon="-0.34348">
        <ele>52.6674</ele>
        <time>2011-07-03T13:56:16Z</time>
      </trkpt>
      <trkpt lat="46.28777" lon="-0.34349">
        <ele>52.656</ele>
        <time>2011-07-03T13:56:17Z</time>
      </trkpt>
      <trkpt lat="46.28777" lon="-0.34351">
        <ele>52.6463</ele>
        <time>2011-07-03T13:56:18Z</time>
      </trkpt>
      <trkpt lat="46.28778" lon="-0.34353">
        <ele>52.6348</ele>
        <time>2011-07-03T13:56:19Z</time>
      </trkpt>
      <trkpt lat="46.28779" lon="-0.34354">
        <ele>52.6235</ele>
        <time>2011-07-03T13:56:20Z</time>
      </trkpt>
      <trkpt lat="46.2878" lon="-0.34356">
        <ele>52.6125</ele>
        <time>2011-07-03T13:56:21Z</time>
      </trkpt>
      <trkpt lat="46.28781" lon="-0.34358">
        <ele>52.608</ele>
        <time>2011-07-03T13:56:22Z</time>
      </trkpt>
      <trkpt lat="46.28782" lon="-0.3436">
        <ele>52.6064</ele>
        <time>2011-07-03T13:56:23Z</time>
      </trkpt>
      <trkpt lat="46.28783" lon="-0.34363">
        <ele>52.6095</ele>
        <time>2011-07-03T13:56:24Z</time>
      </trkpt>
      <trkpt lat="46.28783" lon="-0.34365">
        <ele>52.6207</ele>
        <time>2011-07-03T13:56:25Z</time>
      </trkpt>
      <trkpt lat="46.28784" lon="-0.34368">
        <ele>52.6405</ele>
        <time>2011-07-03T13:56:26Z</time>
      </trkpt>
      <trkpt lat="46.28785" lon="-0.3437">
        <ele>52.6681</ele>
        <time>2011-07-03T13:56:27Z</time>
      </trkpt>
      <trkpt lat="46.28786" lon="-0.34372">
        <ele>52.7047</ele>
        <time>2011-07-03T13:56:28Z</time>
      </trkpt>
      <trkpt lat="46.28786" lon="-0.34374">
        <ele>52.7476</ele>
        <time>2011-07-03T13:56:29Z</time>
      </trkpt>
      <trkpt lat="46.28787" lon="-0.34376">
        <ele>52.7913</ele>
        <time>2011-07-03T13:56:30Z</time>
      </trkpt>
      <trkpt lat="46.28787" lon="-0.34377">
        <ele>52.8332</ele>
        <time>2011-07-03T13:56:31Z</time>
      </trkpt>
      <trkpt lat="46.28787" lon="-0.34379">
        <ele>52.8733</ele>
        <time>2011-07-03T13:56:32Z</time>
      </trkpt>
      <trkpt lat="46.28788" lon="-0.3438">
        <ele>52.9134</ele>
        <time>2011-07-03T13:56:33Z</time>
      </trkpt>
      <trkpt lat="46.28788" lon="-0.34381">
        <ele>52.983</ele>
        <time>2011-07-03T13:56:34Z</time>
      </trkpt>
      <trkpt lat="46.28788" lon="-0.34383">
        <ele>53.0515</ele>
        <time>2011-07-03T13:56:35Z</time>
      </trkpt>
      <trkpt lat="46.28789" lon="-0.34384">
        <ele>53.1197</ele>
        <time>2011-07-03T13:56:36Z</time>
      </trkpt>
      <trkpt lat="46.2879" lon="-0.34386">
        <ele>53.1845</ele>
        <time>2011-07-03T13:56:37Z</time>
      </trkpt>
      <trkpt lat="46.2879" lon="-0.34387">
        <ele>53.2383</ele>
        <time>2011-07-03T13:56:38Z</time>
      </trkpt>
      <trkpt lat="46.2879" lon="-0.34389">
        <ele>53.2916</ele>
        <time>2011-07-03T13:56:39Z</time>
      </trkpt>
      <trkpt lat="46.28791" lon="-0.34391">
        <ele>53.3411</ele>
        <time>2011-07-03T13:56:40Z</time>
      </trkpt>
      <trkpt lat="46.28791" lon="-0.34392">
        <ele>53.3861</ele>
        <time>2011-07-03T13:56:41Z</time>
      </trkpt>
      <trkpt lat="46.28792" lon="-0.34395">
        <ele>53.427</ele>
        <time>2011-07-03T13:56:42Z</time>
      </trkpt>
      <trkpt lat="46.28793" lon="-0.34397">
        <ele>53.4715</ele>
        <time>2011-07-03T13:56:43Z</time>
      </trkpt>
      <trkpt lat="46.28793" lon="-0.34399">
        <ele>53.5214</ele>
        <time>2011-07-03T13:56:44Z</time>
      </trkpt>
      <trkpt lat="46.28794" lon="-0.34401">
        <ele>53.5771</ele>
        <time>2011-07-03T13:56:45Z</time>
      </trkpt>
      <trkpt lat="46.28794" lon="-0.34403">
        <ele>53.6415</ele>
        <time>2011-07-03T13:56:46Z</time>
      </trkpt>
      <trkpt lat="46.28795" lon="-0.34405">
        <ele>53.7053</ele>
        <time>2011-07-03T13:56:47Z</time>
      </trkpt>
      <trkpt lat="46.28795" lon="-0.34407">
        <ele>53.7672</ele>
        <time>2011-07-03T13:56:48Z</time>
      </trkpt>
      <trkpt lat="46.28795" lon="-0.34409">
        <ele>53.8268</ele>
        <time>2011-07-03T13:56:49Z</time>
      </trkpt>
      <trkpt lat="46.28796" lon="-0.34411">
        <ele>53.8882</ele>
        <time>2011-07-03T13:56:50Z</time>
      </trkpt>
      <trkpt lat="46.28796" lon="-0.34413">
        <ele>53.9551</ele>
        <time>2011-07-03T13:56:51Z</time>
      </trkpt>
      <trkpt lat="46.28797" lon="-0.34415">
        <ele>54.0281</ele>
        <time>2011-07-03T13:56:52Z</time>
      </trkpt>
      <trkpt lat="46.28797" lon="-0.34416">
        <ele>54.1091</ele>
        <time>2011-07-03T13:56:53Z</time>
      </trkpt>
      <trkpt lat="46.28797" lon="-0.34418">
        <ele>54.1891</ele>
        <time>2011-07-03T13:56:54Z</time>
      </trkpt>
      <trkpt lat="46.28798" lon="-0.3442">
        <ele>54.2743</ele>
        <time>2011-07-03T13:56:55Z</time>
      </trkpt>
      <trkpt lat="46.28798" lon="-0.34422">
        <ele>54.3577</ele>
        <time>2011-07-03T13:56:56Z</time>
      </trkpt>
      <trkpt lat="46.28798" lon="-0.34423">
        <ele>54.4493</ele>
        <time>2011-07-03T13:56:57Z</time>
      </trkpt>
      <trkpt lat="46.28799" lon="-0.34425">
        <ele>54.5491</ele>
        <time>2011-07-03T13:56:58Z</time>
      </trkpt>
      <trkpt lat="46.28799" lon="-0.34427">
        <ele>54.6469</ele>
        <time>2011-07-03T13:56:59Z</time>
      </trkpt>
      <trkpt lat="46.28799" lon="-0.34428">
        <ele>54.7424</ele>
        <time>2011-07-03T13:57:00Z</time>
      </trkpt>
      <trkpt lat="46.288" lon="-0.3443">
        <ele>54.8366</ele>
        <time>2011-07-03T13:57:01Z</time>
      </trkpt>
      <trkpt lat="46.288" lon="-0.34432">
        <ele>54.9277</ele>
        <time>2011-07-03T13:57:02Z</time>
      </trkpt>
      <trkpt lat="46.28801" lon="-0.34434">
        <ele>55.0177</ele>
        <time>2011-07-03T13:57:03Z</time>
      </trkpt>
      <trkpt lat="46.28801" lon="-0.34436">
        <ele>55.1086</ele>
        <time>2011-07-03T13:57:04Z</time>
      </trkpt>
      <trkpt lat="46.28801" lon="-0.34438">
        <ele>55.1983</ele>
        <time>2011-07-03T13:57:05Z</time>
      </trkpt>
      <trkpt lat="46.28802" lon="-0.34441">
        <ele>55.2872</ele>
        <time>2011-07-03T13:57:06Z</time>
      </trkpt>
      <trkpt lat="46.28802" lon="-0.34443">
        <ele>55.3747</ele>
        <time>2011-07-03T13:57:07Z</time>
      </trkpt>
      <trkpt lat="46.28803" lon="-0.34445">
        <ele>55.4605</ele>
        <time>2011-07-03T13:57:08Z</time>
      </trkpt>
      <trkpt lat="46.28803" lon="-0.34447">
        <ele>55.5452</ele>
        <time>2011-07-03T13:57:09Z</time>
      </trkpt>
      <trkpt lat="46.28804" lon="-0.34448">
        <ele>55.6325</ele>
        <time>2011-07-03T13:57:10Z</time>
      </trkpt>
      <trkpt lat="46.28804" lon="-0.3445">
        <ele>55.7207</ele>
        <time>2011-07-03T13:57:11Z</time>
      </trkpt>
      <trkpt lat="46.28805" lon="-0.34452">
        <ele>55.8073</ele>
        <time>2011-07-03T13:57:12Z</time>
      </trkpt>
      <trkpt lat="46.28806" lon="-0.34454">
        <ele>55.8955</ele>
        <time>2011-07-03T13:57:13Z</time>
      </trkpt>
      <trkpt lat="46.28806" lon="-0.34456">
        <ele>55.9815</ele>
        <time>2011-07-03T13:57:14Z</time>
      </trkpt>
      <trkpt lat="46.28806" lon="-0.34457">
        <ele>56.0647</ele>
        <time>2011-07-03T13:57:15Z</time>
      </trkpt>
      <trkpt lat="46.28807" lon="-0.34459">
        <ele>56.1484</ele>
        <time>2011-07-03T13:57:16Z</time>
      </trkpt>
      <trkpt lat="46.28807" lon="-0.34461">
        <ele>56.229</ele>
        <time>2011-07-03T13:57:17Z</time>
      </trkpt>
      <trkpt lat="46.28808" lon="-0.34463">
        <ele>56.3076</ele>
        <time>2011-07-03T13:57:18Z</time>
      </trkpt>
      <trkpt lat="46.28808" lon="-0.34465">
        <ele>56.386</ele>
        <time>2011-07-03T13:57:19Z</time>
      </trkpt>
      <trkpt lat="46.28808" lon="-0.34467">
        <ele>56.4626</ele>
        <time>2011-07-03T13:57:20Z</time>
      </trkpt>
      <trkpt lat="46.28809" lon="-0.34468">
        <ele>56.5377</ele>
        <time>2011-07-03T13:57:21Z</time>
      </trkpt>
      <trkpt lat="46.28809" lon="-0.3447">
        <ele>56.6125</ele>
        <time>2011-07-03T13:57:22Z</time>
      </trkpt>
      <trkpt lat="46.28809" lon="-0.34472">
        <ele>56.6853</ele>
        <time>2011-07-03T13:57:23Z</time>
      </trkpt>
      <trkpt lat="46.2881" lon="-0.34474">
        <ele>56.7564</ele>
        <time>2011-07-03T13:57:24Z</time>
      </trkpt>
      <trkpt lat="46.2881" lon="-0.34475">
        <ele>56.8256</ele>
        <time>2011-07-03T13:57:25Z</time>
      </trkpt>
      <trkpt lat="46.2881" lon="-0.34477">
        <ele>56.8949</ele>
        <time>2011-07-03T13:57:26Z</time>
      </trkpt>
      <trkpt lat="46.28811" lon="-0.34479">
        <ele>56.9644</ele>
        <time>2011-07-03T13:57:27Z</time>
      </trkpt>
      <trkpt lat="46.28811" lon="-0.34481">
        <ele>57.0358</ele>
        <time>2011-07-03T13:57:28Z</time>
      </trkpt>
      <trkpt lat="46.28812" lon="-0.34483">
        <ele>57.1075</ele>
        <time>2011-07-03T13:57:29Z</time>
      </trkpt>
      <trkpt lat="46.28812" lon="-0.34485">
        <ele>57.1773</ele>
        <time>2011-07-03T13:57:30Z</time>
      </trkpt>
      <trkpt lat="46.28812" lon="-0.34487">
        <ele>57.2435</ele>
        <time>2011-07-03T13:57:31Z</time>
      </trkpt>
      <trkpt lat="46.28813" lon="-0.34488">
        <ele>57.3086</ele>
        <time>2011-07-03T13:57:32Z</time>
      </trkpt>
      <trkpt lat="46.28814" lon="-0.3449">
        <ele>57.3722</ele>
        <time>2011-07-03T13:57:33Z</time>
      </trkpt>
      <trkpt lat="46.28814" lon="-0.34492">
        <ele>57.432</ele>
        <time>2011-07-03T13:57:34Z</time>
      </trkpt>
      <trkpt lat="46.28814" lon="-0.34494">
        <ele>57.4909</ele>
        <time>2011-07-03T13:57:35Z</time>
      </trkpt>
      <trkpt lat="46.28815" lon="-0.34496">
        <ele>57.5489</ele>
        <time>2011-07-03T13:57:36Z</time>
      </trkpt>
      <trkpt lat="46.28815" lon="-0.34498">
        <ele>57.6087</ele>
        <time>2011-07-03T13:57:37Z</time>
      </trkpt>
      <trkpt lat="46.28816" lon="-0.345">
        <ele>57.6677</ele>
        <time>2011-07-03T13:57:38Z</time>
      </trkpt>
      <trkpt lat="46.28816" lon="-0.34502">
        <ele>57.7317</ele>
        <time>2011-07-03T13:57:39Z</time>
      </trkpt>
      <trkpt lat="46.28816" lon="-0.34504">
        <ele>57.8034</ele>
        <time>2011-07-03T13:57:40Z</time>
      </trkpt>
      <trkpt lat="46.28816" lon="-0.34506">
        <ele>57.8742</ele>
        <time>2011-07-03T13:57:41Z</time>
      </trkpt>
      <trkpt lat="46.28817" lon="-0.34507">
        <ele>57.9441</ele>
        <time>2011-07-03T13:57:42Z</time>
      </trkpt>
      <trkpt lat="46.28817" lon="-0.34509">
        <ele>58.0147</ele>
        <time>2011-07-03T13:57:43Z</time>
      </trkpt>
      <trkpt lat="46.28818" lon="-0.34511">
        <ele>58.0852</ele>
        <time>2011-07-03T13:57:44Z</time>
      </trkpt>
      <trkpt lat="46.28818" lon="-0.34513">
        <ele>58.1535</ele>
        <time>2011-07-03T13:57:45Z</time>
      </trkpt>
      <trkpt lat="46.28819" lon="-0.34515">
        <ele>58.2209</ele>
        <time>2011-07-03T13:57:46Z</time>
      </trkpt>
      <trkpt lat="46.28819" lon="-0.34517">
        <ele>58.2887</ele>
        <time>2011-07-03T13:57:47Z</time>
      </trkpt>
      <trkpt lat="46.28819" lon="-0.34519">
        <ele>58.3547</ele>
        <time>2011-07-03T13:57:48Z</time>
      </trkpt>
      <trkpt lat="46.2882" lon="-0.34521">
        <ele>58.4197</ele>
        <time>2011-07-03T13:57:49Z</time>
      </trkpt>
      <trkpt lat="46.2882" lon="-0.34522">
        <ele>58.484</ele>
        <time>2011-07-03T13:57:50Z</time>
      </trkpt>
      <trkpt lat="46.2882" lon="-0.34524">
        <ele>58.549</ele>
        <time>2011-07-03T13:57:51Z</time>
      </trkpt>
      <trkpt lat="46.2882" lon="-0.34526">
        <ele>58.6177</ele>
        <time>2011-07-03T13:57:52Z</time>
      </trkpt>
      <trkpt lat="46.28821" lon="-0.34529">
        <ele>58.688</ele>
        <time>2011-07-03T13:57:53Z</time>
      </trkpt>
      <trkpt lat="46.28821" lon="-0.34531">
        <ele>58.7628</ele>
        <time>2011-07-03T13:57:54Z</time>
      </trkpt>
      <trkpt lat="46.28822" lon="-0.34533">
        <ele>58.8397</ele>
        <time>2011-07-03T13:57:55Z</time>
      </trkpt>
      <trkpt lat="46.28822" lon="-0.34535">
        <ele>58.9151</ele>
        <time>2011-07-03T13:57:56Z</time>
      </trkpt>
      <trkpt lat="46.28823" lon="-0.34537">
        <ele>58.9915</ele>
        <time>2011-07-03T13:57:57Z</time>
      </trkpt>
      <trkpt lat="46.28824" lon="-0.34539">
        <ele>59.0659</ele>
        <time>2011-07-03T13:57:58Z</time>
      </trkpt>
      <trkpt lat="46.28824" lon="-0.34541">
        <ele>59.1387</ele>
        <time>2011-07-03T13:57:59Z</time>
      </trkpt>
      <trkpt lat="46.28824" lon="-0.34543">
        <ele>59.2112</ele>
        <time>2011-07-03T13:58:00Z</time>
      </trkpt>
      <trkpt lat="46.28824" lon="-0.34545">
        <ele>59.2822</ele>
        <time>2011-07-03T13:58:01Z</time>
      </trkpt>
      <trkpt lat="46.28825" lon="-0.34547">
        <ele>59.3559</ele>
        <time>2011-07-03T13:58:02Z</time>
      </trkpt>
      <trkpt lat="46.28825" lon="-0.34548">
        <ele>59.4344</ele>
        <time>2011-07-03T13:58:03Z</time>
      </trkpt>
      <trkpt lat="46.28826" lon="-0.3455">
        <ele>59.5155</ele>
        <time>2011-07-03T13:58:04Z</time>
      </trkpt>
      <trkpt lat="46.28826" lon="-0.34551">
        <ele>59.5957</ele>
        <time>2011-07-03T13:58:05Z</time>
      </trkpt>
      <trkpt lat="46.28827" lon="-0.34553">
        <ele>59.674</ele>
        <time>2011-07-03T13:58:06Z</time>
      </trkpt>
      <trkpt lat="46.28827" lon="-0.34555">
        <ele>59.7582</ele>
        <time>2011-07-03T13:58:07Z</time>
      </trkpt>
      <trkpt lat="46.28827" lon="-0.34557">
        <ele>59.8502</ele>
        <time>2011-07-03T13:58:08Z</time>
      </trkpt>
      <trkpt lat="46.28828" lon="-0.34559">
        <ele>59.9384</ele>
        <time>2011-07-03T13:58:09Z</time>
      </trkpt>
      <trkpt lat="46.28828" lon="-0.34561">
        <ele>60.0256</ele>
        <time>2011-07-03T13:58:10Z</time>
      </trkpt>
      <trkpt lat="46.28828" lon="-0.34564">
        <ele>60.1135</ele>
        <time>2011-07-03T13:58:11Z</time>
      </trkpt>
      <trkpt lat="46.28829" lon="-0.34566">
        <ele>60.2028</ele>
        <time>2011-07-03T13:58:12Z</time>
      </trkpt>
      <trkpt lat="46.28829" lon="-0.34568">
        <ele>60.2897</ele>
        <time>2011-07-03T13:58:13Z</time>
      </trkpt>
      <trkpt lat="46.2883" lon="-0.3457">
        <ele>60.3737</ele>
        <time>2011-07-03T13:58:14Z</time>
      </trkpt>
      <trkpt lat="46.2883" lon="-0.34573">
        <ele>60.4548</ele>
        <time>2011-07-03T13:58:15Z</time>
      </trkpt>
      <trkpt lat="46.2883" lon="-0.34575">
        <ele>60.5356</ele>
        <time>2011-07-03T13:58:16Z</time>
      </trkpt>
      <trkpt lat="46.28831" lon="-0.34577">
        <ele>60.6182</ele>
        <time>2011-07-03T13:58:17Z</time>
      </trkpt>
      <trkpt lat="46.28831" lon="-0.34578">
        <ele>60.6994</ele>
        <time>2011-07-03T13:58:18Z</time>
      </trkpt>
      <trkpt lat="46.28832" lon="-0.3458">
        <ele>60.7786</ele>
        <time>2011-07-03T13:58:19Z</time>
      </trkpt>
      <trkpt lat="46.28832" lon="-0.34582">
        <ele>60.8561</ele>
        <time>2011-07-03T13:58:20Z</time>
      </trkpt>
      <trkpt lat="46.28832" lon="-0.34584">
        <ele>60.9321</ele>
        <time>2011-07-03T13:58:21Z</time>
      </trkpt>
      <trkpt lat="46.28832" lon="-0.34585">
        <ele>61.0047</ele>
        <time>2011-07-03T13:58:22Z</time>
      </trkpt>
      <trkpt lat="46.28833" lon="-0.34587">
        <ele>61.0777</ele>
        <time>2011-07-03T13:58:23Z</time>
      </trkpt>
      <trkpt lat="46.28833" lon="-0.34589">
        <ele>61.1504</ele>
        <time>2011-07-03T13:58:24Z</time>
      </trkpt>
      <trkpt lat="46.28833" lon="-0.3459">
        <ele>61.2219</ele>
        <time>2011-07-03T13:58:25Z</time>
      </trkpt>
      <trkpt lat="46.28833" lon="-0.34592">
        <ele>61.2957</ele>
        <time>2011-07-03T13:58:26Z</time>
      </trkpt>
      <trkpt lat="46.28834" lon="-0.34594">
        <ele>61.3672</ele>
        <time>2011-07-03T13:58:27Z</time>
      </trkpt>
      <trkpt lat="46.28834" lon="-0.34595">
        <ele>61.4372</ele>
        <time>2011-07-03T13:58:28Z</time>
      </trkpt>
      <trkpt lat="46.28835" lon="-0.34597">
        <ele>61.5061</ele>
        <time>2011-07-03T13:58:29Z</time>
      </trkpt>
      <trkpt lat="46.28835" lon="-0.34598">
        <ele>61.5727</ele>
        <time>2011-07-03T13:58:30Z</time>
      </trkpt>
      <trkpt lat="46.28836" lon="-0.346">
        <ele>61.637</ele>
        <time>2011-07-03T13:58:31Z</time>
      </trkpt>
      <trkpt lat="46.28836" lon="-0.34601">
        <ele>61.6992</ele>
        <time>2011-07-03T13:58:32Z</time>
      </trkpt>
      <trkpt lat="46.28836" lon="-0.34603">
        <ele>61.7569</ele>
        <time>2011-07-03T13:58:33Z</time>
      </trkpt>
      <trkpt lat="46.28836" lon="-0.34605">
        <ele>61.8141</ele>
        <time>2011-07-03T13:58:34Z</time>
      </trkpt>
      <trkpt lat="46.28837" lon="-0.34606">
        <ele>61.8779</ele>
        <time>2011-07-03T13:58:35Z</time>
      </trkpt>
      <trkpt lat="46.28837" lon="-0.34608">
        <ele>61.9446</ele>
        <time>2011-07-03T13:58:36Z</time>
      </trkpt>
      <trkpt lat="46.28838" lon="-0.34617">
        <ele>62.3562</ele>
        <time>2011-07-03T13:58:41Z</time>
      </trkpt>
      <trkpt lat="46.28839" lon="-0.34618">
        <ele>62.4472</ele>
        <time>2011-07-03T13:58:42Z</time>
      </trkpt>
      <trkpt lat="46.28839" lon="-0.3462">
        <ele>62.5374</ele>
        <time>2011-07-03T13:58:43Z</time>
      </trkpt>
      <trkpt lat="46.28839" lon="-0.34622">
        <ele>62.6274</ele>
        <time>2011-07-03T13:58:44Z</time>
      </trkpt>
      <trkpt lat="46.2884" lon="-0.34624">
        <ele>62.7158</ele>
        <time>2011-07-03T13:58:45Z</time>
      </trkpt>
      <trkpt lat="46.2884" lon="-0.34626">
        <ele>62.8026</ele>
        <time>2011-07-03T13:58:46Z</time>
      </trkpt>
      <trkpt lat="46.2884" lon="-0.34628">
        <ele>62.8869</ele>
        <time>2011-07-03T13:58:47Z</time>
      </trkpt>
      <trkpt lat="46.2884" lon="-0.3463">
        <ele>62.9682</ele>
        <time>2011-07-03T13:58:48Z</time>
      </trkpt>
      <trkpt lat="46.2884" lon="-0.34632">
        <ele>63.0476</ele>
        <time>2011-07-03T13:58:49Z</time>
      </trkpt>
      <trkpt lat="46.28841" lon="-0.34633">
        <ele>63.1252</ele>
        <time>2011-07-03T13:58:50Z</time>
      </trkpt>
      <trkpt lat="46.28841" lon="-0.34635">
        <ele>63.2001</ele>
        <time>2011-07-03T13:58:52Z</time>
      </trkpt>
      <trkpt lat="46.28842" lon="-0.34636">
        <ele>63.2719</ele>
        <time>2011-07-03T13:58:52Z</time>
      </trkpt>
      <trkpt lat="46.28842" lon="-0.34638">
        <ele>63.3419</ele>
        <time>2011-07-03T13:58:53Z</time>
      </trkpt>
      <trkpt lat="46.28843" lon="-0.3464">
        <ele>63.4107</ele>
        <time>2011-07-03T13:58:54Z</time>
      </trkpt>
      <trkpt lat="46.28843" lon="-0.34641">
        <ele>63.478</ele>
        <time>2011-07-03T13:58:55Z</time>
      </trkpt>
      <trkpt lat="46.28843" lon="-0.34643">
        <ele>63.5437</ele>
        <time>2011-07-03T13:58:56Z</time>
      </trkpt>
      <trkpt lat="46.28844" lon="-0.34644">
        <ele>63.609</ele>
        <time>2011-07-03T13:58:57Z</time>
      </trkpt>
      <trkpt lat="46.28844" lon="-0.34646">
        <ele>63.6758</ele>
        <time>2011-07-03T13:58:58Z</time>
      </trkpt>
      <trkpt lat="46.28845" lon="-0.34648">
        <ele>63.7437</ele>
        <time>2011-07-03T13:58:59Z</time>
      </trkpt>
      <trkpt lat="46.28845" lon="-0.34649">
        <ele>63.8134</ele>
        <time>2011-07-03T13:59:00Z</time>
      </trkpt>
      <trkpt lat="46.28846" lon="-0.34651">
        <ele>63.8846</ele>
        <time>2011-07-03T13:59:01Z</time>
      </trkpt>
      <trkpt lat="46.28846" lon="-0.34653">
        <ele>63.9539</ele>
        <time>2011-07-03T13:59:02Z</time>
      </trkpt>
      <trkpt lat="46.28847" lon="-0.34655">
        <ele>64.0242</ele>
        <time>2011-07-03T13:59:03Z</time>
      </trkpt>
      <trkpt lat="46.28847" lon="-0.34657">
        <ele>64.0928</ele>
        <time>2011-07-03T13:59:04Z</time>
      </trkpt>
      <trkpt lat="46.28848" lon="-0.34659">
        <ele>64.1609</ele>
        <time>2011-07-03T13:59:05Z</time>
      </trkpt>
      <trkpt lat="46.28848" lon="-0.34661">
        <ele>64.228</ele>
        <time>2011-07-03T13:59:06Z</time>
      </trkpt>
      <trkpt lat="46.28848" lon="-0.34662">
        <ele>64.2932</ele>
        <time>2011-07-03T13:59:07Z</time>
      </trkpt>
      <trkpt lat="46.28848" lon="-0.34664">
        <ele>64.3563</ele>
        <time>2011-07-03T13:59:08Z</time>
      </trkpt>
      <trkpt lat="46.28849" lon="-0.34666">
        <ele>64.4178</ele>
        <time>2011-07-03T13:59:09Z</time>
      </trkpt>
      <trkpt lat="46.28849" lon="-0.34668">
        <ele>64.4775</ele>
        <time>2011-07-03T13:59:10Z</time>
      </trkpt>
      <trkpt lat="46.2885" lon="-0.3467">
        <ele>64.5349</ele>
        <time>2011-07-03T13:59:11Z</time>
      </trkpt>
      <trkpt lat="46.2885" lon="-0.34672">
        <ele>64.5909</ele>
        <time>2011-07-03T13:59:12Z</time>
      </trkpt>
      <trkpt lat="46.28851" lon="-0.34673">
        <ele>64.6443</ele>
        <time>2011-07-03T13:59:13Z</time>
      </trkpt>
      <trkpt lat="46.28851" lon="-0.34675">
        <ele>64.6965</ele>
        <time>2011-07-03T13:59:14Z</time>
      </trkpt>
      <trkpt lat="46.28852" lon="-0.34677">
        <ele>64.747</ele>
        <time>2011-07-03T13:59:15Z</time>
      </trkpt>
      <trkpt lat="46.28853" lon="-0.34679">
        <ele>64.7963</ele>
        <time>2011-07-03T13:59:16Z</time>
      </trkpt>
      <trkpt lat="46.28853" lon="-0.34681">
        <ele>64.8451</ele>
        <time>2011-07-03T13:59:17Z</time>
      </trkpt>
      <trkpt lat="46.28854" lon="-0.34683">
        <ele>64.8925</ele>
        <time>2011-07-03T13:59:18Z</time>
      </trkpt>
      <trkpt lat="46.28854" lon="-0.34685">
        <ele>64.9407</ele>
        <time>2011-07-03T13:59:19Z</time>
      </trkpt>
      <trkpt lat="46.28855" lon="-0.34687">
        <ele>64.9919</ele>
        <time>2011-07-03T13:59:20Z</time>
      </trkpt>
      <trkpt lat="46.28856" lon="-0.34689">
        <ele>65.045</ele>
        <time>2011-07-03T13:59:21Z</time>
      </trkpt>
      <trkpt lat="46.28856" lon="-0.34691">
        <ele>65.0981</ele>
        <time>2011-07-03T13:59:22Z</time>
      </trkpt>
      <trkpt lat="46.28856" lon="-0.34693">
        <ele>65.1629</ele>
        <time>2011-07-03T13:59:23Z</time>
      </trkpt>
      <trkpt lat="46.28856" lon="-0.34694">
        <ele>65.233</ele>
        <time>2011-07-03T13:59:24Z</time>
      </trkpt>
      <trkpt lat="46.28857" lon="-0.34696">
        <ele>65.3071</ele>
        <time>2011-07-03T13:59:25Z</time>
      </trkpt>
      <trkpt lat="46.28857" lon="-0.34698">
        <ele>65.3835</ele>
        <time>2011-07-03T13:59:26Z</time>
      </trkpt>
      <trkpt lat="46.28858" lon="-0.347">
        <ele>65.455</ele>
        <time>2011-07-03T13:59:27Z</time>
      </trkpt>
      <trkpt lat="46.28859" lon="-0.34701">
        <ele>65.5269</ele>
        <time>2011-07-03T13:59:28Z</time>
      </trkpt>
      <trkpt lat="46.28859" lon="-0.34703">
        <ele>65.5985</ele>
        <time>2011-07-03T13:59:29Z</time>
      </trkpt>
      <trkpt lat="46.28859" lon="-0.34705">
        <ele>65.6713</ele>
        <time>2011-07-03T13:59:30Z</time>
      </trkpt>
      <trkpt lat="46.2886" lon="-0.34707">
        <ele>65.7429</ele>
        <time>2011-07-03T13:59:31Z</time>
      </trkpt>
      <trkpt lat="46.28861" lon="-0.34709">
        <ele>65.8128</ele>
        <time>2011-07-03T13:59:32Z</time>
      </trkpt>
      <trkpt lat="46.28861" lon="-0.34711">
        <ele>65.8811</ele>
        <time>2011-07-03T13:59:33Z</time>
      </trkpt>
      <trkpt lat="46.28862" lon="-0.34713">
        <ele>65.9483</ele>
        <time>2011-07-03T13:59:34Z</time>
      </trkpt>
      <trkpt lat="46.28862" lon="-0.34714">
        <ele>66.0148</ele>
        <time>2011-07-03T13:59:35Z</time>
      </trkpt>
      <trkpt lat="46.28862" lon="-0.34716">
        <ele>66.0796</ele>
        <time>2011-07-03T13:59:36Z</time>
      </trkpt>
      <trkpt lat="46.28863" lon="-0.34718">
        <ele>66.1422</ele>
        <time>2011-07-03T13:59:37Z</time>
      </trkpt>
      <trkpt lat="46.28863" lon="-0.3472">
        <ele>66.202</ele>
        <time>2011-07-03T13:59:38Z</time>
      </trkpt>
      <trkpt lat="46.28864" lon="-0.34721">
        <ele>66.2604</ele>
        <time>2011-07-03T13:59:39Z</time>
      </trkpt>
      <trkpt lat="46.28864" lon="-0.34723">
        <ele>66.3155</ele>
        <time>2011-07-03T13:59:40Z</time>
      </trkpt>
      <trkpt lat="46.28864" lon="-0.34725">
        <ele>66.3666</ele>
        <time>2011-07-03T13:59:41Z</time>
      </trkpt>
      <trkpt lat="46.28864" lon="-0.34727">
        <ele>66.4167</ele>
        <time>2011-07-03T13:59:42Z</time>
      </trkpt>
      <trkpt lat="46.28865" lon="-0.34729">
        <ele>66.4661</ele>
        <time>2011-07-03T13:59:43Z</time>
      </trkpt>
      <trkpt lat="46.28865" lon="-0.3473">
        <ele>66.5143</ele>
        <time>2011-07-03T13:59:44Z</time>
      </trkpt>
      <trkpt lat="46.28866" lon="-0.34732">
        <ele>66.5565</ele>
        <time>2011-07-03T13:59:45Z</time>
      </trkpt>
      <trkpt lat="46.28866" lon="-0.34734">
        <ele>66.5942</ele>
        <time>2011-07-03T13:59:46Z</time>
      </trkpt>
      <trkpt lat="46.28866" lon="-0.34736">
        <ele>66.6257</ele>
        <time>2011-07-03T13:59:47Z</time>
      </trkpt>
      <trkpt lat="46.28866" lon="-0.34739">
        <ele>66.6546</ele>
        <time>2011-07-03T13:59:48Z</time>
      </trkpt>
      <trkpt lat="46.28867" lon="-0.34741">
        <ele>66.6821</ele>
        <time>2011-07-03T13:59:49Z</time>
      </trkpt>
      <trkpt lat="46.28867" lon="-0.34743">
        <ele>66.7093</ele>
        <time>2011-07-03T13:59:50Z</time>
      </trkpt>
      <trkpt lat="46.28867" lon="-0.34744">
        <ele>66.737</ele>
        <time>2011-07-03T13:59:51Z</time>
      </trkpt>
      <trkpt lat="46.28867" lon="-0.34746">
        <ele>66.7661</ele>
        <time>2011-07-03T13:59:52Z</time>
      </trkpt>
      <trkpt lat="46.28868" lon="-0.34748">
        <ele>66.795</ele>
        <time>2011-07-03T13:59:53Z</time>
      </trkpt>
      <trkpt lat="46.28868" lon="-0.34749">
        <ele>66.8241</ele>
        <time>2011-07-03T13:59:54Z</time>
      </trkpt>
      <trkpt lat="46.28869" lon="-0.3475">
        <ele>66.8548</ele>
        <time>2011-07-03T13:59:55Z</time>
      </trkpt>
      <trkpt lat="46.28869" lon="-0.34752">
        <ele>66.8867</ele>
        <time>2011-07-03T13:59:56Z</time>
      </trkpt>
      <trkpt lat="46.28869" lon="-0.34753">
        <ele>66.9173</ele>
        <time>2011-07-03T13:59:57Z</time>
      </trkpt>
      <trkpt lat="46.28869" lon="-0.34755">
        <ele>66.9521</ele>
        <time>2011-07-03T13:59:58Z</time>
      </trkpt>
      <trkpt lat="46.2887" lon="-0.34757">
        <ele>66.9865</ele>
        <time>2011-07-03T13:59:59Z</time>
      </trkpt>
      <trkpt lat="46.2887" lon="-0.34758">
        <ele>67.0241</ele>
        <time>2011-07-03T14:00:00Z</time>
      </trkpt>
      <trkpt lat="46.2887" lon="-0.3476">
        <ele>67.0593</ele>
        <time>2011-07-03T14:00:01Z</time>
      </trkpt>
      <trkpt lat="46.2887" lon="-0.34762">
        <ele>67.093</ele>
        <time>2011-07-03T14:00:02Z</time>
      </trkpt>
      <trkpt lat="46.28871" lon="-0.34764">
        <ele>67.1249</ele>
        <time>2011-07-03T14:00:03Z</time>
      </trkpt>
      <trkpt lat="46.28871" lon="-0.34766">
        <ele>67.1556</ele>
        <time>2011-07-03T14:00:04Z</time>
      </trkpt>
      <trkpt lat="46.28871" lon="-0.34768">
        <ele>67.185</ele>
        <time>2011-07-03T14:00:05Z</time>
      </trkpt>
      <trkpt lat="46.28871" lon="-0.3477">
        <ele>67.2116</ele>
        <time>2011-07-03T14:00:06Z</time>
      </trkpt>
      <trkpt lat="46.28872" lon="-0.34772">
        <ele>67.2358</ele>
        <time>2011-07-03T14:00:07Z</time>
      </trkpt>
      <trkpt lat="46.28872" lon="-0.34774">
        <ele>67.2574</ele>
        <time>2011-07-03T14:00:08Z</time>
      </trkpt>
      <trkpt lat="46.28872" lon="-0.34776">
        <ele>67.2815</ele>
        <time>2011-07-03T14:00:09Z</time>
      </trkpt>
      <trkpt lat="46.28872" lon="-0.34777">
        <ele>67.3084</ele>
        <time>2011-07-03T14:00:10Z</time>
      </trkpt>
      <trkpt lat="46.28872" lon="-0.34779">
        <ele>67.3403</ele>
        <time>2011-07-03T14:00:11Z</time>
      </trkpt>
      <trkpt lat="46.28873" lon="-0.34781">
        <ele>67.3702</ele>
        <time>2011-07-03T14:00:12Z</time>
      </trkpt>
      <trkpt lat="46.28873" lon="-0.34783">
        <ele>67.3975</ele>
        <time>2011-07-03T14:00:13Z</time>
      </trkpt>
      <trkpt lat="46.28873" lon="-0.34785">
        <ele>67.4273</ele>
        <time>2011-07-03T14:00:14Z</time>
      </trkpt>
      <trkpt lat="46.28874" lon="-0.34787">
        <ele>67.4603</ele>
        <time>2011-07-03T14:00:15Z</time>
      </trkpt>
      <trkpt lat="46.28875" lon="-0.34789">
        <ele>67.4977</ele>
        <time>2011-07-03T14:00:16Z</time>
      </trkpt>
      <trkpt lat="46.28875" lon="-0.34791">
        <ele>67.5379</ele>
        <time>2011-07-03T14:00:17Z</time>
      </trkpt>
      <trkpt lat="46.28875" lon="-0.34793">
        <ele>67.5733</ele>
        <time>2011-07-03T14:00:18Z</time>
      </trkpt>
      <trkpt lat="46.28875" lon="-0.34795">
        <ele>67.6058</ele>
        <time>2011-07-03T14:00:19Z</time>
      </trkpt>
      <trkpt lat="46.28875" lon="-0.34797">
        <ele>67.6349</ele>
        <time>2011-07-03T14:00:20Z</time>
      </trkpt>
      <trkpt lat="46.28875" lon="-0.34799">
        <ele>67.6607</ele>
        <time>2011-07-03T14:00:21Z</time>
      </trkpt>
      <trkpt lat="46.28875" lon="-0.34801">
        <ele>67.6868</ele>
        <time>2011-07-03T14:00:22Z</time>
      </trkpt>
      <trkpt lat="46.28875" lon="-0.34803">
        <ele>67.7099</ele>
        <time>2011-07-03T14:00:23Z</time>
      </trkpt>
      <trkpt lat="46.28875" lon="-0.34804">
        <ele>67.7314</ele>
        <time>2011-07-03T14:00:24Z</time>
      </trkpt>
      <trkpt lat="46.28875" lon="-0.34806">
        <ele>67.7512</ele>
        <time>2011-07-03T14:00:25Z</time>
      </trkpt>
      <trkpt lat="46.28875" lon="-0.34807">
        <ele>67.7699</ele>
        <time>2011-07-03T14:00:26Z</time>
      </trkpt>
      <trkpt lat="46.28875" lon="-0.34809">
        <ele>67.7867</ele>
        <time>2011-07-03T14:00:27Z</time>
      </trkpt>
      <trkpt lat="46.28876" lon="-0.34811">
        <ele>67.8026</ele>
        <time>2011-07-03T14:00:28Z</time>
      </trkpt>
      <trkpt lat="46.28876" lon="-0.34813">
        <ele>67.8179</ele>
        <time>2011-07-03T14:00:29Z</time>
      </trkpt>
      <trkpt lat="46.28877" lon="-0.34814">
        <ele>67.8288</ele>
        <time>2011-07-03T14:00:30Z</time>
      </trkpt>
      <trkpt lat="46.28877" lon="-0.34816">
        <ele>67.8378</ele>
        <time>2011-07-03T14:00:31Z</time>
      </trkpt>
      <trkpt lat="46.28878" lon="-0.34818">
        <ele>67.8401</ele>
        <time>2011-07-03T14:00:32Z</time>
      </trkpt>
      <trkpt lat="46.28878" lon="-0.3482">
        <ele>67.8386</ele>
        <time>2011-07-03T14:00:33Z</time>
      </trkpt>
      <trkpt lat="46.28878" lon="-0.34822">
        <ele>67.8368</ele>
        <time>2011-07-03T14:00:34Z</time>
      </trkpt>
      <trkpt lat="46.28879" lon="-0.34823">
        <ele>67.829</ele>
        <time>2011-07-03T14:00:35Z</time>
      </trkpt>
      <trkpt lat="46.2888" lon="-0.34825">
        <ele>67.8219</ele>
        <time>2011-07-03T14:00:36Z</time>
      </trkpt>
      <trkpt lat="46.2888" lon="-0.34826">
        <ele>67.815</ele>
        <time>2011-07-03T14:00:37Z</time>
      </trkpt>
      <trkpt lat="46.2888" lon="-0.34828">
        <ele>67.8079</ele>
        <time>2011-07-03T14:00:38Z</time>
      </trkpt>
      <trkpt lat="46.2888" lon="-0.3483">
        <ele>67.7892</ele>
        <time>2011-07-03T14:00:39Z</time>
      </trkpt>
      <trkpt lat="46.28881" lon="-0.34831">
        <ele>67.7612</ele>
        <time>2011-07-03T14:00:40Z</time>
      </trkpt>
      <trkpt lat="46.28881" lon="-0.34833">
        <ele>67.7279</ele>
        <time>2011-07-03T14:00:41Z</time>
      </trkpt>
      <trkpt lat="46.28882" lon="-0.34835">
        <ele>67.6935</ele>
        <time>2011-07-03T14:00:42Z</time>
      </trkpt>
      <trkpt lat="46.28882" lon="-0.34837">
        <ele>67.6591</ele>
        <time>2011-07-03T14:00:43Z</time>
      </trkpt>
      <trkpt lat="46.28882" lon="-0.34839">
        <ele>67.626</ele>
        <time>2011-07-03T14:00:44Z</time>
      </trkpt>
      <trkpt lat="46.28883" lon="-0.3484">
        <ele>67.5943</ele>
        <time>2011-07-03T14:00:45Z</time>
      </trkpt>
      <trkpt lat="46.28883" lon="-0.34842">
        <ele>67.5615</ele>
        <time>2011-07-03T14:00:46Z</time>
      </trkpt>
      <trkpt lat="46.28883" lon="-0.34844">
        <ele>67.5313</ele>
        <time>2011-07-03T14:00:47Z</time>
      </trkpt>
      <trkpt lat="46.28884" lon="-0.34846">
        <ele>67.5006</ele>
        <time>2011-07-03T14:00:48Z</time>
      </trkpt>
      <trkpt lat="46.28885" lon="-0.34847">
        <ele>67.471</ele>
        <time>2011-07-03T14:00:49Z</time>
      </trkpt>
      <trkpt lat="46.28885" lon="-0.34849">
        <ele>67.441</ele>
        <time>2011-07-03T14:00:50Z</time>
      </trkpt>
      <trkpt lat="46.28885" lon="-0.3485">
        <ele>67.4121</ele>
        <time>2011-07-03T14:00:51Z</time>
      </trkpt>
      <trkpt lat="46.28885" lon="-0.34852">
        <ele>67.3832</ele>
        <time>2011-07-03T14:00:52Z</time>
      </trkpt>
      <trkpt lat="46.28886" lon="-0.34854">
        <ele>67.3537</ele>
        <time>2011-07-03T14:00:53Z</time>
      </trkpt>
      <trkpt lat="46.28886" lon="-0.34856">
        <ele>67.325</ele>
        <time>2011-07-03T14:00:54Z</time>
      </trkpt>
      <trkpt lat="46.28886" lon="-0.34857">
        <ele>67.2991</ele>
        <time>2011-07-03T14:00:55Z</time>
      </trkpt>
      <trkpt lat="46.28887" lon="-0.34859">
        <ele>67.2755</ele>
        <time>2011-07-03T14:00:56Z</time>
      </trkpt>
      <trkpt lat="46.28887" lon="-0.34861">
        <ele>67.2517</ele>
        <time>2011-07-03T14:00:57Z</time>
      </trkpt>
      <trkpt lat="46.28888" lon="-0.34863">
        <ele>67.2277</ele>
        <time>2011-07-03T14:00:58Z</time>
      </trkpt>
      <trkpt lat="46.28888" lon="-0.34864">
        <ele>67.2016</ele>
        <time>2011-07-03T14:00:59Z</time>
      </trkpt>
      <trkpt lat="46.28888" lon="-0.34866">
        <ele>67.174</ele>
        <time>2011-07-03T14:01:00Z</time>
      </trkpt>
      <trkpt lat="46.28889" lon="-0.34868">
        <ele>67.1457</ele>
        <time>2011-07-03T14:01:01Z</time>
      </trkpt>
      <trkpt lat="46.28889" lon="-0.34869">
        <ele>67.1179</ele>
        <time>2011-07-03T14:01:02Z</time>
      </trkpt>
      <trkpt lat="46.2889" lon="-0.34871">
        <ele>67.0901</ele>
        <time>2011-07-03T14:01:03Z</time>
      </trkpt>
      <trkpt lat="46.2889" lon="-0.34872">
        <ele>67.0615</ele>
        <time>2011-07-03T14:01:04Z</time>
      </trkpt>
      <trkpt lat="46.2889" lon="-0.34874">
        <ele>67.0343</ele>
        <time>2011-07-03T14:01:05Z</time>
      </trkpt>
      <trkpt lat="46.2889" lon="-0.34876">
        <ele>67.0097</ele>
        <time>2011-07-03T14:01:06Z</time>
      </trkpt>
      <trkpt lat="46.28891" lon="-0.34878">
        <ele>66.9846</ele>
        <time>2011-07-03T14:01:07Z</time>
      </trkpt>
      <trkpt lat="46.28891" lon="-0.3488">
        <ele>66.9591</ele>
        <time>2011-07-03T14:01:08Z</time>
      </trkpt>
      <trkpt lat="46.28892" lon="-0.34882">
        <ele>66.9345</ele>
        <time>2011-07-03T14:01:09Z</time>
      </trkpt>
      <trkpt lat="46.28893" lon="-0.34884">
        <ele>66.9099</ele>
        <time>2011-07-03T14:01:10Z</time>
      </trkpt>
      <trkpt lat="46.28893" lon="-0.34886">
        <ele>66.885</ele>
        <time>2011-07-03T14:01:11Z</time>
      </trkpt>
      <trkpt lat="46.28893" lon="-0.34888">
        <ele>66.8612</ele>
        <time>2011-07-03T14:01:12Z</time>
      </trkpt>
      <trkpt lat="46.28894" lon="-0.3489">
        <ele>66.8373</ele>
        <time>2011-07-03T14:01:13Z</time>
      </trkpt>
      <trkpt lat="46.28894" lon="-0.34892">
        <ele>66.8162</ele>
        <time>2011-07-03T14:01:14Z</time>
      </trkpt>
      <trkpt lat="46.28895" lon="-0.34894">
        <ele>66.7914</ele>
        <time>2011-07-03T14:01:15Z</time>
      </trkpt>
      <trkpt lat="46.28895" lon="-0.34896">
        <ele>66.7601</ele>
        <time>2011-07-03T14:01:16Z</time>
      </trkpt>
      <trkpt lat="46.28896" lon="-0.34898">
        <ele>66.7246</ele>
        <time>2011-07-03T14:01:17Z</time>
      </trkpt>
      <trkpt lat="46.28896" lon="-0.349">
        <ele>66.6893</ele>
        <time>2011-07-03T14:01:18Z</time>
      </trkpt>
      <trkpt lat="46.28896" lon="-0.34901">
        <ele>66.6518</ele>
        <time>2011-07-03T14:01:19Z</time>
      </trkpt>
      <trkpt lat="46.28897" lon="-0.34903">
        <ele>66.614</ele>
        <time>2011-07-03T14:01:20Z</time>
      </trkpt>
      <trkpt lat="46.28897" lon="-0.34904">
        <ele>66.5742</ele>
        <time>2011-07-03T14:01:21Z</time>
      </trkpt>
      <trkpt lat="46.28898" lon="-0.34906">
        <ele>66.5351</ele>
        <time>2011-07-03T14:01:22Z</time>
      </trkpt>
      <trkpt lat="46.28898" lon="-0.34907">
        <ele>66.4959</ele>
        <time>2011-07-03T14:01:23Z</time>
      </trkpt>
      <trkpt lat="46.28898" lon="-0.34909">
        <ele>66.4553</ele>
        <time>2011-07-03T14:01:24Z</time>
      </trkpt>
      <trkpt lat="46.28898" lon="-0.34911">
        <ele>66.4126</ele>
        <time>2011-07-03T14:01:25Z</time>
      </trkpt>
      <trkpt lat="46.28899" lon="-0.34912">
        <ele>66.3708</ele>
        <time>2011-07-03T14:01:26Z</time>
      </trkpt>
      <trkpt lat="46.28899" lon="-0.34914">
        <ele>66.3295</ele>
        <time>2011-07-03T14:01:27Z</time>
      </trkpt>
      <trkpt lat="46.289" lon="-0.34916">
        <ele>66.2927</ele>
        <time>2011-07-03T14:01:28Z</time>
      </trkpt>
      <trkpt lat="46.289" lon="-0.34918">
        <ele>66.2605</ele>
        <time>2011-07-03T14:01:29Z</time>
      </trkpt>
      <trkpt lat="46.289" lon="-0.34919">
        <ele>66.233</ele>
        <time>2011-07-03T14:01:30Z</time>
      </trkpt>
      <trkpt lat="46.289" lon="-0.34921">
        <ele>66.2084</ele>
        <time>2011-07-03T14:01:31Z</time>
      </trkpt>
      <trkpt lat="46.28901" lon="-0.34923">
        <ele>66.1856</ele>
        <time>2011-07-03T14:01:32Z</time>
      </trkpt>
      <trkpt lat="46.28901" lon="-0.34925">
        <ele>66.1629</ele>
        <time>2011-07-03T14:01:33Z</time>
      </trkpt>
      <trkpt lat="46.28901" lon="-0.34927">
        <ele>66.1387</ele>
        <time>2011-07-03T14:01:34Z</time>
      </trkpt>
      <trkpt lat="46.28901" lon="-0.34929">
        <ele>66.1155</ele>
        <time>2011-07-03T14:01:35Z</time>
      </trkpt>
      <trkpt lat="46.28902" lon="-0.34931">
        <ele>66.0934</ele>
        <time>2011-07-03T14:01:36Z</time>
      </trkpt>
      <trkpt lat="46.28902" lon="-0.34933">
        <ele>66.0706</ele>
        <time>2011-07-03T14:01:37Z</time>
      </trkpt>
      <trkpt lat="46.28902" lon="-0.34935">
        <ele>66.0474</ele>
        <time>2011-07-03T14:01:38Z</time>
      </trkpt>
      <trkpt lat="46.28903" lon="-0.34937">
        <ele>66.0237</ele>
        <time>2011-07-03T14:01:39Z</time>
      </trkpt>
      <trkpt lat="46.28903" lon="-0.34939">
        <ele>66.0005</ele>
        <time>2011-07-03T14:01:40Z</time>
      </trkpt>
      <trkpt lat="46.28903" lon="-0.34941">
        <ele>65.9779</ele>
        <time>2011-07-03T14:01:41Z</time>
      </trkpt>
      <trkpt lat="46.28904" lon="-0.34943">
        <ele>65.9556</ele>
        <time>2011-07-03T14:01:42Z</time>
      </trkpt>
      <trkpt lat="46.28904" lon="-0.34945">
        <ele>65.9348</ele>
        <time>2011-07-03T14:01:43Z</time>
      </trkpt>
      <trkpt lat="46.28905" lon="-0.34947">
        <ele>65.9146</ele>
        <time>2011-07-03T14:01:44Z</time>
      </trkpt>
      <trkpt lat="46.28905" lon="-0.34949">
        <ele>65.8946</ele>
        <time>2011-07-03T14:01:45Z</time>
      </trkpt>
      <trkpt lat="46.28905" lon="-0.34951">
        <ele>65.8754</ele>
        <time>2011-07-03T14:01:46Z</time>
      </trkpt>
      <trkpt lat="46.28906" lon="-0.34953">
        <ele>65.8558</ele>
        <time>2011-07-03T14:01:47Z</time>
      </trkpt>
      <trkpt lat="46.28906" lon="-0.34954">
        <ele>65.8348</ele>
        <time>2011-07-03T14:01:48Z</time>
      </trkpt>
      <trkpt lat="46.28907" lon="-0.34956">
        <ele>65.8143</ele>
        <time>2011-07-03T14:01:49Z</time>
      </trkpt>
      <trkpt lat="46.28907" lon="-0.34958">
        <ele>65.7947</ele>
        <time>2011-07-03T14:01:50Z</time>
      </trkpt>
      <trkpt lat="46.28907" lon="-0.3496">
        <ele>65.7755</ele>
        <time>2011-07-03T14:01:51Z</time>
      </trkpt>
      <trkpt lat="46.28907" lon="-0.34962">
        <ele>65.7565</ele>
        <time>2011-07-03T14:01:52Z</time>
      </trkpt>
      <trkpt lat="46.28908" lon="-0.34964">
        <ele>65.7388</ele>
        <time>2011-07-03T14:01:53Z</time>
      </trkpt>
      <trkpt lat="46.28908" lon="-0.34966">
        <ele>65.7236</ele>
        <time>2011-07-03T14:01:54Z</time>
      </trkpt>
      <trkpt lat="46.28908" lon="-0.34968">
        <ele>65.7093</ele>
        <time>2011-07-03T14:01:55Z</time>
      </trkpt>
      <trkpt lat="46.28909" lon="-0.3497">
        <ele>65.6944</ele>
        <time>2011-07-03T14:01:56Z</time>
      </trkpt>
      <trkpt lat="46.28909" lon="-0.34972">
        <ele>65.6788</ele>
        <time>2011-07-03T14:01:57Z</time>
      </trkpt>
      <trkpt lat="46.28909" lon="-0.34974">
        <ele>65.6627</ele>
        <time>2011-07-03T14:01:58Z</time>
      </trkpt>
      <trkpt lat="46.2891" lon="-0.34976">
        <ele>65.6479</ele>
        <time>2011-07-03T14:01:59Z</time>
      </trkpt>
      <trkpt lat="46.2891" lon="-0.34978">
        <ele>65.6327</ele>
        <time>2011-07-03T14:02:00Z</time>
      </trkpt>
      <trkpt lat="46.2891" lon="-0.3498">
        <ele>65.6176</ele>
        <time>2011-07-03T14:02:01Z</time>
      </trkpt>
      <trkpt lat="46.2891" lon="-0.34981">
        <ele>65.6008</ele>
        <time>2011-07-03T14:02:02Z</time>
      </trkpt>
      <trkpt lat="46.2891" lon="-0.34983">
        <ele>65.5824</ele>
        <time>2011-07-03T14:02:03Z</time>
      </trkpt>
      <trkpt lat="46.28911" lon="-0.34985">
        <ele>65.563</ele>
        <time>2011-07-03T14:02:04Z</time>
      </trkpt>
      <trkpt lat="46.28911" lon="-0.34987">
        <ele>65.544</ele>
        <time>2011-07-03T14:02:05Z</time>
      </trkpt>
      <trkpt lat="46.28912" lon="-0.34989">
        <ele>65.5253</ele>
        <time>2011-07-03T14:02:06Z</time>
      </trkpt>
      <trkpt lat="46.28912" lon="-0.34991">
        <ele>65.5066</ele>
        <time>2011-07-03T14:02:07Z</time>
      </trkpt>
      <trkpt lat="46.28912" lon="-0.34992">
        <ele>65.4888</ele>
        <time>2011-07-03T14:02:08Z</time>
      </trkpt>
      <trkpt lat="46.28912" lon="-0.34994">
        <ele>65.4713</ele>
        <time>2011-07-03T14:02:09Z</time>
      </trkpt>
      <trkpt lat="46.28913" lon="-0.34995">
        <ele>65.4542</ele>
        <time>2011-07-03T14:02:10Z</time>
      </trkpt>
      <trkpt lat="46.28913" lon="-0.34997">
        <ele>65.4374</ele>
        <time>2011-07-03T14:02:11Z</time>
      </trkpt>
      <trkpt lat="46.28914" lon="-0.34999">
        <ele>65.4198</ele>
        <time>2011-07-03T14:02:12Z</time>
      </trkpt>
      <trkpt lat="46.28914" lon="-0.35">
        <ele>65.4004</ele>
        <time>2011-07-03T14:02:13Z</time>
      </trkpt>
      <trkpt lat="46.28914" lon="-0.35002">
        <ele>65.3798</ele>
        <time>2011-07-03T14:02:14Z</time>
      </trkpt>
      <trkpt lat="46.28914" lon="-0.35004">
        <ele>65.3589</ele>
        <time>2011-07-03T14:02:15Z</time>
      </trkpt>
      <trkpt lat="46.28915" lon="-0.35005">
        <ele>65.3359</ele>
        <time>2011-07-03T14:02:16Z</time>
      </trkpt>
      <trkpt lat="46.28915" lon="-0.35007">
        <ele>65.3131</ele>
        <time>2011-07-03T14:02:17Z</time>
      </trkpt>
      <trkpt lat="46.28915" lon="-0.35009">
        <ele>65.2906</ele>
        <time>2011-07-03T14:02:18Z</time>
      </trkpt>
      <trkpt lat="46.28916" lon="-0.35011">
        <ele>65.2685</ele>
        <time>2011-07-03T14:02:19Z</time>
      </trkpt>
      <trkpt lat="46.28917" lon="-0.35012">
        <ele>65.2462</ele>
        <time>2011-07-03T14:02:20Z</time>
      </trkpt>
      <trkpt lat="46.28917" lon="-0.35013">
        <ele>65.2241</ele>
        <time>2011-07-03T14:02:21Z</time>
      </trkpt>
      <trkpt lat="46.28918" lon="-0.35014">
        <ele>65.2025</ele>
        <time>2011-07-03T14:02:22Z</time>
      </trkpt>
      <trkpt lat="46.28919" lon="-0.35015">
        <ele>65.1791</ele>
        <time>2011-07-03T14:02:23Z</time>
      </trkpt>
      <trkpt lat="46.2892" lon="-0.35016">
        <ele>65.1536</ele>
        <time>2011-07-03T14:02:24Z</time>
      </trkpt>
      <trkpt lat="46.28921" lon="-0.35016">
        <ele>65.128</ele>
        <time>2011-07-03T14:02:25Z</time>
      </trkpt>
      <trkpt lat="46.28922" lon="-0.35016">
        <ele>65.1034</ele>
        <time>2011-07-03T14:02:26Z</time>
      </trkpt>
      <trkpt lat="46.28923" lon="-0.35016">
        <ele>65.0798</ele>
        <time>2011-07-03T14:02:27Z</time>
      </trkpt>
      <trkpt lat="46.28925" lon="-0.35016">
        <ele>65.053</ele>
        <time>2011-07-03T14:02:28Z</time>
      </trkpt>
      <trkpt lat="46.28926" lon="-0.35016">
        <ele>65.0245</ele>
        <time>2011-07-03T14:02:29Z</time>
      </trkpt>
      <trkpt lat="46.28927" lon="-0.35015">
        <ele>64.9985</ele>
        <time>2011-07-03T14:02:30Z</time>
      </trkpt>
      <trkpt lat="46.28928" lon="-0.35014">
        <ele>64.9728</ele>
        <time>2011-07-03T14:02:31Z</time>
      </trkpt>
      <trkpt lat="46.28929" lon="-0.35013">
        <ele>64.9509</ele>
        <time>2011-07-03T14:02:32Z</time>
      </trkpt>
      <trkpt lat="46.28931" lon="-0.35013">
        <ele>64.9307</ele>
        <time>2011-07-03T14:02:33Z</time>
      </trkpt>
      <trkpt lat="46.28933" lon="-0.35012">
        <ele>64.9127</ele>
        <time>2011-07-03T14:02:34Z</time>
      </trkpt>
      <trkpt lat="46.28934" lon="-0.35011">
        <ele>64.8933</ele>
        <time>2011-07-03T14:02:35Z</time>
      </trkpt>
      <trkpt lat="46.28936" lon="-0.35011">
        <ele>64.8722</ele>
        <time>2011-07-03T14:02:36Z</time>
      </trkpt>
      <trkpt lat="46.28937" lon="-0.3501">
        <ele>64.8496</ele>
        <time>2011-07-03T14:02:37Z</time>
      </trkpt>
      <trkpt lat="46.28939" lon="-0.3501">
        <ele>64.8198</ele>
        <time>2011-07-03T14:02:38Z</time>
      </trkpt>
      <trkpt lat="46.2894" lon="-0.35009">
        <ele>64.7858</ele>
        <time>2011-07-03T14:02:39Z</time>
      </trkpt>
      <trkpt lat="46.28942" lon="-0.35009">
        <ele>64.7461</ele>
        <time>2011-07-03T14:02:40Z</time>
      </trkpt>
      <trkpt lat="46.28943" lon="-0.35008">
        <ele>64.704</ele>
        <time>2011-07-03T14:02:41Z</time>
      </trkpt>
      <trkpt lat="46.28945" lon="-0.35008">
        <ele>64.6614</ele>
        <time>2011-07-03T14:02:42Z</time>
      </trkpt>
      <trkpt lat="46.28946" lon="-0.35007">
        <ele>64.6179</ele>
        <time>2011-07-03T14:02:43Z</time>
      </trkpt>
      <trkpt lat="46.28947" lon="-0.35006">
        <ele>64.5741</ele>
        <time>2011-07-03T14:02:44Z</time>
      </trkpt>
      <trkpt lat="46.28949" lon="-0.35006">
        <ele>64.5303</ele>
        <time>2011-07-03T14:02:45Z</time>
      </trkpt>
      <trkpt lat="46.2895" lon="-0.35005">
        <ele>64.4871</ele>
        <time>2011-07-03T14:02:46Z</time>
      </trkpt>
      <trkpt lat="46.28951" lon="-0.35004">
        <ele>64.4448</ele>
        <time>2011-07-03T14:02:47Z</time>
      </trkpt>
      <trkpt lat="46.28952" lon="-0.35004">
        <ele>64.4022</ele>
        <time>2011-07-03T14:02:48Z</time>
      </trkpt>
      <trkpt lat="46.28954" lon="-0.35003">
        <ele>64.3603</ele>
        <time>2011-07-03T14:02:49Z</time>
      </trkpt>
      <trkpt lat="46.28955" lon="-0.35003">
        <ele>64.3184</ele>
        <time>2011-07-03T14:02:50Z</time>
      </trkpt>
      <trkpt lat="46.28956" lon="-0.35002">
        <ele>64.2763</ele>
        <time>2011-07-03T14:02:51Z</time>
      </trkpt>
      <trkpt lat="46.28965" lon="-0.34995">
        <ele>64.4289</ele>
        <time>2011-07-03T14:02:52Z</time>
      </trkpt>
      <trkpt lat="46.28965" lon="-0.34995">
        <ele>64.3821</ele>
        <time>2011-07-03T14:02:53Z</time>
      </trkpt>
      <trkpt lat="46.28962" lon="-0.34994">
        <ele>64.3984</ele>
        <time>2011-07-03T14:02:54Z</time>
      </trkpt>
      <trkpt lat="46.2896" lon="-0.34993">
        <ele>64.4001</ele>
        <time>2011-07-03T14:02:55Z</time>
      </trkpt>
      <trkpt lat="46.28962" lon="-0.34993">
        <ele>64.3101</ele>
        <time>2011-07-03T14:02:56Z</time>
      </trkpt>
      <trkpt lat="46.28963" lon="-0.34994">
        <ele>64.2498</ele>
        <time>2011-07-03T14:02:57Z</time>
      </trkpt>
      <trkpt lat="46.28964" lon="-0.34994">
        <ele>64.1626</ele>
        <time>2011-07-03T14:02:58Z</time>
      </trkpt>
      <trkpt lat="46.28965" lon="-0.34993">
        <ele>64.0622</ele>
        <time>2011-07-03T14:02:59Z</time>
      </trkpt>
      <trkpt lat="46.28967" lon="-0.34993">
        <ele>64.0622</ele>
        <time>2011-07-03T14:03:00Z</time>
      </trkpt>
      <trkpt lat="46.28968" lon="-0.34993">
        <ele>63.9562</ele>
        <time>2011-07-03T14:03:01Z</time>
      </trkpt>
      <trkpt lat="46.2897" lon="-0.34993">
        <ele>63.8177</ele>
        <time>2011-07-03T14:03:02Z</time>
      </trkpt>
      <trkpt lat="46.28972" lon="-0.34993">
        <ele>63.6726</ele>
        <time>2011-07-03T14:03:03Z</time>
      </trkpt>
      <trkpt lat="46.28974" lon="-0.34993">
        <ele>63.5359</ele>
        <time>2011-07-03T14:03:04Z</time>
      </trkpt>
      <trkpt lat="46.28975" lon="-0.34993">
        <ele>63.3998</ele>
        <time>2011-07-03T14:03:05Z</time>
      </trkpt>
      <trkpt lat="46.28976" lon="-0.34993">
        <ele>63.2765</ele>
        <time>2011-07-03T14:03:06Z</time>
      </trkpt>
      <trkpt lat="46.28977" lon="-0.34992">
        <ele>63.1574</ele>
        <time>2011-07-03T14:03:07Z</time>
      </trkpt>
      <trkpt lat="46.28978" lon="-0.34992">
        <ele>63.0341</ele>
        <time>2011-07-03T14:03:08Z</time>
      </trkpt>
      <trkpt lat="46.2898" lon="-0.34991">
        <ele>62.9115</ele>
        <time>2011-07-03T14:03:09Z</time>
      </trkpt>
      <trkpt lat="46.28981" lon="-0.34991">
        <ele>62.7905</ele>
        <time>2011-07-03T14:03:10Z</time>
      </trkpt>
      <trkpt lat="46.28982" lon="-0.3499">
        <ele>62.6706</ele>
        <time>2011-07-03T14:03:11Z</time>
      </trkpt>
      <trkpt lat="46.28983" lon="-0.3499">
        <ele>62.5494</ele>
        <time>2011-07-03T14:03:12Z</time>
      </trkpt>
      <trkpt lat="46.28985" lon="-0.3499">
        <ele>62.4277</ele>
        <time>2011-07-03T14:03:13Z</time>
      </trkpt>
      <trkpt lat="46.28986" lon="-0.34989">
        <ele>62.3064</ele>
        <time>2011-07-03T14:03:14Z</time>
      </trkpt>
      <trkpt lat="46.28987" lon="-0.34989">
        <ele>62.1862</ele>
        <time>2011-07-03T14:03:15Z</time>
      </trkpt>
      <trkpt lat="46.28989" lon="-0.34988">
        <ele>62.0652</ele>
        <time>2011-07-03T14:03:16Z</time>
      </trkpt>
      <trkpt lat="46.2899" lon="-0.34988">
        <ele>61.9449</ele>
        <time>2011-07-03T14:03:17Z</time>
      </trkpt>
      <trkpt lat="46.28991" lon="-0.34987">
        <ele>61.8248</ele>
        <time>2011-07-03T14:03:18Z</time>
      </trkpt>
      <trkpt lat="46.28993" lon="-0.34987">
        <ele>61.7058</ele>
        <time>2011-07-03T14:03:19Z</time>
      </trkpt>
      <trkpt lat="46.28994" lon="-0.34986">
        <ele>61.588</ele>
        <time>2011-07-03T14:03:20Z</time>
      </trkpt>
      <trkpt lat="46.28996" lon="-0.34986">
        <ele>61.471</ele>
        <time>2011-07-03T14:03:21Z</time>
      </trkpt>
      <trkpt lat="46.29" lon="-0.34985">
        <ele>61.142</ele>
        <time>2011-07-03T14:03:24Z</time>
      </trkpt>
      <trkpt lat="46.29001" lon="-0.34985">
        <ele>61.0368</ele>
        <time>2011-07-03T14:03:25Z</time>
      </trkpt>
      <trkpt lat="46.29002" lon="-0.34984">
        <ele>60.935</ele>
        <time>2011-07-03T14:03:26Z</time>
      </trkpt>
      <trkpt lat="46.29003" lon="-0.34984">
        <ele>60.8342</ele>
        <time>2011-07-03T14:03:27Z</time>
      </trkpt>
      <trkpt lat="46.29004" lon="-0.34983">
        <ele>60.7363</ele>
        <time>2011-07-03T14:03:28Z</time>
      </trkpt>
      <trkpt lat="46.29005" lon="-0.34982">
        <ele>60.6421</ele>
        <time>2011-07-03T14:03:29Z</time>
      </trkpt>
      <trkpt lat="46.29007" lon="-0.34982">
        <ele>60.5504</ele>
        <time>2011-07-03T14:03:30Z</time>
      </trkpt>
      <trkpt lat="46.29008" lon="-0.34981">
        <ele>60.4639</ele>
        <time>2011-07-03T14:03:31Z</time>
      </trkpt>
      <trkpt lat="46.29009" lon="-0.3498">
        <ele>60.3796</ele>
        <time>2011-07-03T14:03:32Z</time>
      </trkpt>
      <trkpt lat="46.2901" lon="-0.34979">
        <ele>60.2977</ele>
        <time>2011-07-03T14:03:33Z</time>
      </trkpt>
      <trkpt lat="46.29012" lon="-0.34979">
        <ele>60.2171</ele>
        <time>2011-07-03T14:03:34Z</time>
      </trkpt>
      <trkpt lat="46.29013" lon="-0.34978">
        <ele>60.1406</ele>
        <time>2011-07-03T14:03:35Z</time>
      </trkpt>
      <trkpt lat="46.29014" lon="-0.34978">
        <ele>60.0659</ele>
        <time>2011-07-03T14:03:36Z</time>
      </trkpt>
      <trkpt lat="46.29015" lon="-0.34977">
        <ele>59.9909</ele>
        <time>2011-07-03T14:03:37Z</time>
      </trkpt>
      <trkpt lat="46.29017" lon="-0.34976">
        <ele>59.9157</ele>
        <time>2011-07-03T14:03:38Z</time>
      </trkpt>
      <trkpt lat="46.29018" lon="-0.34974">
        <ele>59.8473</ele>
        <time>2011-07-03T14:03:39Z</time>
      </trkpt>
      <trkpt lat="46.29019" lon="-0.34974">
        <ele>59.7833</ele>
        <time>2011-07-03T14:03:40Z</time>
      </trkpt>
      <trkpt lat="46.2902" lon="-0.34973">
        <ele>59.7255</ele>
        <time>2011-07-03T14:03:41Z</time>
      </trkpt>
      <trkpt lat="46.29021" lon="-0.34973">
        <ele>59.671</ele>
        <time>2011-07-03T14:03:42Z</time>
      </trkpt>
      <trkpt lat="46.29022" lon="-0.34972">
        <ele>59.6101</ele>
        <time>2011-07-03T14:03:43Z</time>
      </trkpt>
      <trkpt lat="46.29023" lon="-0.34972">
        <ele>59.5493</ele>
        <time>2011-07-03T14:03:44Z</time>
      </trkpt>
      <trkpt lat="46.29024" lon="-0.34973">
        <ele>59.4838</ele>
        <time>2011-07-03T14:03:45Z</time>
      </trkpt>
      <trkpt lat="46.29026" lon="-0.34973">
        <ele>59.4247</ele>
        <time>2011-07-03T14:03:46Z</time>
      </trkpt>
      <trkpt lat="46.29027" lon="-0.34972">
        <ele>59.3694</ele>
        <time>2011-07-03T14:03:47Z</time>
      </trkpt>
      <trkpt lat="46.29028" lon="-0.34972">
        <ele>59.3188</ele>
        <time>2011-07-03T14:03:48Z</time>
      </trkpt>
      <trkpt lat="46.2903" lon="-0.34971">
        <ele>59.2684</ele>
        <time>2011-07-03T14:03:49Z</time>
      </trkpt>
      <trkpt lat="46.29031" lon="-0.3497">
        <ele>59.2159</ele>
        <time>2011-07-03T14:03:50Z</time>
      </trkpt>
      <trkpt lat="46.29032" lon="-0.3497">
        <ele>59.1686</ele>
        <time>2011-07-03T14:03:51Z</time>
      </trkpt>
      <trkpt lat="46.29033" lon="-0.34969">
        <ele>59.1261</ele>
        <time>2011-07-03T14:03:52Z</time>
      </trkpt>
      <trkpt lat="46.29034" lon="-0.34968">
        <ele>59.0882</ele>
        <time>2011-07-03T14:03:53Z</time>
      </trkpt>
      <trkpt lat="46.29035" lon="-0.34967">
        <ele>59.05</ele>
        <time>2011-07-03T14:03:54Z</time>
      </trkpt>
      <trkpt lat="46.29036" lon="-0.34966">
        <ele>59.0119</ele>
        <time>2011-07-03T14:03:55Z</time>
      </trkpt>
      <trkpt lat="46.29037" lon="-0.34966">
        <ele>58.9711</ele>
        <time>2011-07-03T14:03:56Z</time>
      </trkpt>
      <trkpt lat="46.29038" lon="-0.34965">
        <ele>58.9302</ele>
        <time>2011-07-03T14:03:57Z</time>
      </trkpt>
      <trkpt lat="46.29039" lon="-0.34964">
        <ele>58.8856</ele>
        <time>2011-07-03T14:03:58Z</time>
      </trkpt>
      <trkpt lat="46.2904" lon="-0.34964">
        <ele>58.8377</ele>
        <time>2011-07-03T14:03:59Z</time>
      </trkpt>
      <trkpt lat="46.29041" lon="-0.34963">
        <ele>58.7912</ele>
        <time>2011-07-03T14:04:00Z</time>
      </trkpt>
      <trkpt lat="46.29042" lon="-0.34962">
        <ele>58.7439</ele>
        <time>2011-07-03T14:04:01Z</time>
      </trkpt>
      <trkpt lat="46.29043" lon="-0.34962">
        <ele>58.701</ele>
        <time>2011-07-03T14:04:02Z</time>
      </trkpt>
      <trkpt lat="46.29044" lon="-0.34961">
        <ele>58.6635</ele>
        <time>2011-07-03T14:04:03Z</time>
      </trkpt>
      <trkpt lat="46.29045" lon="-0.3496">
        <ele>58.6319</ele>
        <time>2011-07-03T14:04:04Z</time>
      </trkpt>
      <trkpt lat="46.29046" lon="-0.34959">
        <ele>58.605</ele>
        <time>2011-07-03T14:04:05Z</time>
      </trkpt>
      <trkpt lat="46.29047" lon="-0.34959">
        <ele>58.5771</ele>
        <time>2011-07-03T14:04:06Z</time>
      </trkpt>
      <trkpt lat="46.29049" lon="-0.34958">
        <ele>58.5528</ele>
        <time>2011-07-03T14:04:07Z</time>
      </trkpt>
      <trkpt lat="46.2905" lon="-0.34958">
        <ele>58.5305</ele>
        <time>2011-07-03T14:04:08Z</time>
      </trkpt>
      <trkpt lat="46.2905" lon="-0.34957">
        <ele>58.5082</ele>
        <time>2011-07-03T14:04:09Z</time>
      </trkpt>
      <trkpt lat="46.29052" lon="-0.34957">
        <ele>58.4869</ele>
        <time>2011-07-03T14:04:10Z</time>
      </trkpt>
      <trkpt lat="46.29053" lon="-0.34956">
        <ele>58.465</ele>
        <time>2011-07-03T14:04:11Z</time>
      </trkpt>
      <trkpt lat="46.29054" lon="-0.34956">
        <ele>58.453</ele>
        <time>2011-07-03T14:04:12Z</time>
      </trkpt>
      <trkpt lat="46.29055" lon="-0.34955">
        <ele>58.4403</ele>
        <time>2011-07-03T14:04:13Z</time>
      </trkpt>
      <trkpt lat="46.29056" lon="-0.34955">
        <ele>58.4361</ele>
        <time>2011-07-03T14:04:14Z</time>
      </trkpt>
      <trkpt lat="46.29057" lon="-0.34955">
        <ele>58.4314</ele>
        <time>2011-07-03T14:04:15Z</time>
      </trkpt>
      <trkpt lat="46.29059" lon="-0.34954">
        <ele>58.4263</ele>
        <time>2011-07-03T14:04:16Z</time>
      </trkpt>
      <trkpt lat="46.2906" lon="-0.34954">
        <ele>58.4218</ele>
        <time>2011-07-03T14:04:17Z</time>
      </trkpt>
      <trkpt lat="46.29061" lon="-0.34953">
        <ele>58.4173</ele>
        <time>2011-07-03T14:04:18Z</time>
      </trkpt>
      <trkpt lat="46.29062" lon="-0.34953">
        <ele>58.4136</ele>
        <time>2011-07-03T14:04:19Z</time>
      </trkpt>
      <trkpt lat="46.29064" lon="-0.34952">
        <ele>58.411</ele>
        <time>2011-07-03T14:04:20Z</time>
      </trkpt>
      <trkpt lat="46.29065" lon="-0.34952">
        <ele>58.4083</ele>
        <time>2011-07-03T14:04:21Z</time>
      </trkpt>
      <trkpt lat="46.29067" lon="-0.34951">
        <ele>58.405</ele>
        <time>2011-07-03T14:04:22Z</time>
      </trkpt>
      <trkpt lat="46.29068" lon="-0.3495">
        <ele>58.4025</ele>
        <time>2011-07-03T14:04:23Z</time>
      </trkpt>
      <trkpt lat="46.29069" lon="-0.3495">
        <ele>58.3993</ele>
        <time>2011-07-03T14:04:24Z</time>
      </trkpt>
      <trkpt lat="46.2907" lon="-0.34949">
        <ele>58.3962</ele>
        <time>2011-07-03T14:04:25Z</time>
      </trkpt>
      <trkpt lat="46.29072" lon="-0.34948">
        <ele>58.3921</ele>
        <time>2011-07-03T14:04:26Z</time>
      </trkpt>
      <trkpt lat="46.29073" lon="-0.34947">
        <ele>58.3873</ele>
        <time>2011-07-03T14:04:27Z</time>
      </trkpt>
      <trkpt lat="46.29074" lon="-0.34946">
        <ele>58.3831</ele>
        <time>2011-07-03T14:04:28Z</time>
      </trkpt>
      <trkpt lat="46.29075" lon="-0.34946">
        <ele>58.3795</ele>
        <time>2011-07-03T14:04:29Z</time>
      </trkpt>
      <trkpt lat="46.29076" lon="-0.34945">
        <ele>58.389</ele>
        <time>2011-07-03T14:04:30Z</time>
      </trkpt>
      <trkpt lat="46.29078" lon="-0.34944">
        <ele>58.3978</ele>
        <time>2011-07-03T14:04:31Z</time>
      </trkpt>
      <trkpt lat="46.29079" lon="-0.34944">
        <ele>58.407</ele>
        <time>2011-07-03T14:04:32Z</time>
      </trkpt>
      <trkpt lat="46.2908" lon="-0.34943">
        <ele>58.4167</ele>
        <time>2011-07-03T14:04:33Z</time>
      </trkpt>
      <trkpt lat="46.29081" lon="-0.34943">
        <ele>58.4258</ele>
        <time>2011-07-03T14:04:34Z</time>
      </trkpt>
      <trkpt lat="46.29082" lon="-0.34942">
        <ele>58.4351</ele>
        <time>2011-07-03T14:04:35Z</time>
      </trkpt>
      <trkpt lat="46.29083" lon="-0.34941">
        <ele>58.4453</ele>
        <time>2011-07-03T14:04:36Z</time>
      </trkpt>
      <trkpt lat="46.29084" lon="-0.3494">
        <ele>58.4557</ele>
        <time>2011-07-03T14:04:37Z</time>
      </trkpt>
      <trkpt lat="46.29085" lon="-0.3494">
        <ele>58.4656</ele>
        <time>2011-07-03T14:04:38Z</time>
      </trkpt>
      <trkpt lat="46.29086" lon="-0.3494">
        <ele>58.4728</ele>
        <time>2011-07-03T14:04:39Z</time>
      </trkpt>
      <trkpt lat="46.29088" lon="-0.34939">
        <ele>58.48</ele>
        <time>2011-07-03T14:04:40Z</time>
      </trkpt>
      <trkpt lat="46.29089" lon="-0.34938">
        <ele>58.4874</ele>
        <time>2011-07-03T14:04:41Z</time>
      </trkpt>
      <trkpt lat="46.2909" lon="-0.34938">
        <ele>58.4932</ele>
        <time>2011-07-03T14:04:42Z</time>
      </trkpt>
      <trkpt lat="46.29092" lon="-0.34937">
        <ele>58.4962</ele>
        <time>2011-07-03T14:04:43Z</time>
      </trkpt>
      <trkpt lat="46.29094" lon="-0.34937">
        <ele>58.4962</ele>
        <time>2011-07-03T14:04:44Z</time>
      </trkpt>
      <trkpt lat="46.29094" lon="-0.34936">
        <ele>58.5032</ele>
        <time>2011-07-03T14:04:45Z</time>
      </trkpt>
      <trkpt lat="46.29096" lon="-0.34936">
        <ele>58.5041</ele>
        <time>2011-07-03T14:04:46Z</time>
      </trkpt>
      <trkpt lat="46.29097" lon="-0.34935">
        <ele>58.5016</ele>
        <time>2011-07-03T14:04:47Z</time>
      </trkpt>
      <trkpt lat="46.29098" lon="-0.34934">
        <ele>58.4945</ele>
        <time>2011-07-03T14:04:48Z</time>
      </trkpt>
      <trkpt lat="46.29099" lon="-0.34934">
        <ele>58.4938</ele>
        <time>2011-07-03T14:04:49Z</time>
      </trkpt>
      <trkpt lat="46.291" lon="-0.34933">
        <ele>58.4928</ele>
        <time>2011-07-03T14:04:50Z</time>
      </trkpt>
      <trkpt lat="46.29102" lon="-0.34933">
        <ele>58.4906</ele>
        <time>2011-07-03T14:04:51Z</time>
      </trkpt>
      <trkpt lat="46.29104" lon="-0.34932">
        <ele>58.5003</ele>
        <time>2011-07-03T14:04:52Z</time>
      </trkpt>
      <trkpt lat="46.29105" lon="-0.34932">
        <ele>58.5093</ele>
        <time>2011-07-03T14:04:53Z</time>
      </trkpt>
      <trkpt lat="46.29106" lon="-0.34931">
        <ele>58.5282</ele>
        <time>2011-07-03T14:04:54Z</time>
      </trkpt>
      <trkpt lat="46.29108" lon="-0.34931">
        <ele>58.5534</ele>
        <time>2011-07-03T14:04:55Z</time>
      </trkpt>
      <trkpt lat="46.29109" lon="-0.34931">
        <ele>58.5857</ele>
        <time>2011-07-03T14:04:56Z</time>
      </trkpt>
      <trkpt lat="46.29111" lon="-0.34931">
        <ele>58.6223</ele>
        <time>2011-07-03T14:04:57Z</time>
      </trkpt>
      <trkpt lat="46.29112" lon="-0.34931">
        <ele>58.6561</ele>
        <time>2011-07-03T14:04:58Z</time>
      </trkpt>
      <trkpt lat="46.29113" lon="-0.34931">
        <ele>58.693</ele>
        <time>2011-07-03T14:04:59Z</time>
      </trkpt>
      <trkpt lat="46.29115" lon="-0.34931">
        <ele>58.7311</ele>
        <time>2011-07-03T14:05:00Z</time>
      </trkpt>
      <trkpt lat="46.29116" lon="-0.34931">
        <ele>58.7685</ele>
        <time>2011-07-03T14:05:01Z</time>
      </trkpt>
      <trkpt lat="46.29118" lon="-0.3493">
        <ele>58.8036</ele>
        <time>2011-07-03T14:05:02Z</time>
      </trkpt>
      <trkpt lat="46.29119" lon="-0.34929">
        <ele>58.8402</ele>
        <time>2011-07-03T14:05:03Z</time>
      </trkpt>
      <trkpt lat="46.2912" lon="-0.34929">
        <ele>58.8776</ele>
        <time>2011-07-03T14:05:04Z</time>
      </trkpt>
      <trkpt lat="46.29121" lon="-0.34928">
        <ele>58.9161</ele>
        <time>2011-07-03T14:05:05Z</time>
      </trkpt>
      <trkpt lat="46.29123" lon="-0.34927">
        <ele>58.9561</ele>
        <time>2011-07-03T14:05:06Z</time>
      </trkpt>
      <trkpt lat="46.29124" lon="-0.34927">
        <ele>58.9977</ele>
        <time>2011-07-03T14:05:07Z</time>
      </trkpt>
      <trkpt lat="46.29125" lon="-0.34926">
        <ele>59.041</ele>
        <time>2011-07-03T14:05:08Z</time>
      </trkpt>
      <trkpt lat="46.29127" lon="-0.34925">
        <ele>59.086</ele>
        <time>2011-07-03T14:05:09Z</time>
      </trkpt>
      <trkpt lat="46.29128" lon="-0.34925">
        <ele>59.1263</ele>
        <time>2011-07-03T14:05:10Z</time>
      </trkpt>
      <trkpt lat="46.29129" lon="-0.34925">
        <ele>59.1623</ele>
        <time>2011-07-03T14:05:11Z</time>
      </trkpt>
      <trkpt lat="46.2913" lon="-0.34924">
        <ele>59.1988</ele>
        <time>2011-07-03T14:05:12Z</time>
      </trkpt>
      <trkpt lat="46.29132" lon="-0.34924">
        <ele>59.2325</ele>
        <time>2011-07-03T14:05:13Z</time>
      </trkpt>
      <trkpt lat="46.29133" lon="-0.34923">
        <ele>59.2632</ele>
        <time>2011-07-03T14:05:14Z</time>
      </trkpt>
      <trkpt lat="46.29134" lon="-0.34923">
        <ele>59.2975</ele>
        <time>2011-07-03T14:05:15Z</time>
      </trkpt>
      <trkpt lat="46.29135" lon="-0.34923">
        <ele>59.3349</ele>
        <time>2011-07-03T14:05:16Z</time>
      </trkpt>
      <trkpt lat="46.29137" lon="-0.34923">
        <ele>59.3697</ele>
        <time>2011-07-03T14:05:17Z</time>
      </trkpt>
      <trkpt lat="46.29138" lon="-0.34922">
        <ele>59.4032</ele>
        <time>2011-07-03T14:05:18Z</time>
      </trkpt>
      <trkpt lat="46.29139" lon="-0.34921">
        <ele>59.4346</ele>
        <time>2011-07-03T14:05:19Z</time>
      </trkpt>
      <trkpt lat="46.2914" lon="-0.34921">
        <ele>59.4649</ele>
        <time>2011-07-03T14:05:20Z</time>
      </trkpt>
      <trkpt lat="46.29142" lon="-0.3492">
        <ele>59.4936</ele>
        <time>2011-07-03T14:05:21Z</time>
      </trkpt>
      <trkpt lat="46.29143" lon="-0.3492">
        <ele>59.5212</ele>
        <time>2011-07-03T14:05:22Z</time>
      </trkpt>
      <trkpt lat="46.29144" lon="-0.34919">
        <ele>59.5471</ele>
        <time>2011-07-03T14:05:23Z</time>
      </trkpt>
      <trkpt lat="46.29145" lon="-0.34919">
        <ele>59.5704</ele>
        <time>2011-07-03T14:05:24Z</time>
      </trkpt>
      <trkpt lat="46.29147" lon="-0.34918">
        <ele>59.5936</ele>
        <time>2011-07-03T14:05:25Z</time>
      </trkpt>
      <trkpt lat="46.29148" lon="-0.34918">
        <ele>59.618</ele>
        <time>2011-07-03T14:05:26Z</time>
      </trkpt>
      <trkpt lat="46.29149" lon="-0.34917">
        <ele>59.6432</ele>
        <time>2011-07-03T14:05:27Z</time>
      </trkpt>
      <trkpt lat="46.2915" lon="-0.34917">
        <ele>59.6705</ele>
        <time>2011-07-03T14:05:28Z</time>
      </trkpt>
      <trkpt lat="46.29152" lon="-0.34916">
        <ele>59.7001</ele>
        <time>2011-07-03T14:05:29Z</time>
      </trkpt>
      <trkpt lat="46.29153" lon="-0.34916">
        <ele>59.7272</ele>
        <time>2011-07-03T14:05:30Z</time>
      </trkpt>
      <trkpt lat="46.29154" lon="-0.34915">
        <ele>59.7529</ele>
        <time>2011-07-03T14:05:31Z</time>
      </trkpt>
      <trkpt lat="46.29155" lon="-0.34915">
        <ele>59.7774</ele>
        <time>2011-07-03T14:05:32Z</time>
      </trkpt>
      <trkpt lat="46.29157" lon="-0.34914">
        <ele>59.7997</ele>
        <time>2011-07-03T14:05:33Z</time>
      </trkpt>
      <trkpt lat="46.29158" lon="-0.34914">
        <ele>59.8204</ele>
        <time>2011-07-03T14:05:34Z</time>
      </trkpt>
      <trkpt lat="46.29159" lon="-0.34913">
        <ele>59.8393</ele>
        <time>2011-07-03T14:05:35Z</time>
      </trkpt>
      <trkpt lat="46.29161" lon="-0.34913">
        <ele>59.8554</ele>
        <time>2011-07-03T14:05:36Z</time>
      </trkpt>
      <trkpt lat="46.29162" lon="-0.34913">
        <ele>59.8688</ele>
        <time>2011-07-03T14:05:37Z</time>
      </trkpt>
      <trkpt lat="46.29163" lon="-0.34912">
        <ele>59.8821</ele>
        <time>2011-07-03T14:05:38Z</time>
      </trkpt>
      <trkpt lat="46.29165" lon="-0.34912">
        <ele>59.8932</ele>
        <time>2011-07-03T14:05:39Z</time>
      </trkpt>
      <trkpt lat="46.29166" lon="-0.34912">
        <ele>59.9022</ele>
        <time>2011-07-03T14:05:40Z</time>
      </trkpt>
      <trkpt lat="46.29167" lon="-0.34911">
        <ele>59.9099</ele>
        <time>2011-07-03T14:05:41Z</time>
      </trkpt>
      <trkpt lat="46.29168" lon="-0.3491">
        <ele>59.918</ele>
        <time>2011-07-03T14:05:42Z</time>
      </trkpt>
      <trkpt lat="46.29169" lon="-0.34909">
        <ele>59.9258</ele>
        <time>2011-07-03T14:05:43Z</time>
      </trkpt>
      <trkpt lat="46.2917" lon="-0.34909">
        <ele>59.934</ele>
        <time>2011-07-03T14:05:44Z</time>
      </trkpt>
      <trkpt lat="46.29172" lon="-0.34908">
        <ele>59.9403</ele>
        <time>2011-07-03T14:05:45Z</time>
      </trkpt>
      <trkpt lat="46.29173" lon="-0.34907">
        <ele>59.9446</ele>
        <time>2011-07-03T14:05:46Z</time>
      </trkpt>
      <trkpt lat="46.29174" lon="-0.34907">
        <ele>59.951</ele>
        <time>2011-07-03T14:05:47Z</time>
      </trkpt>
      <trkpt lat="46.29175" lon="-0.34906">
        <ele>59.9592</ele>
        <time>2011-07-03T14:05:48Z</time>
      </trkpt>
      <trkpt lat="46.29176" lon="-0.34906">
        <ele>59.9658</ele>
        <time>2011-07-03T14:05:49Z</time>
      </trkpt>
      <trkpt lat="46.29178" lon="-0.34905">
        <ele>59.9708</ele>
        <time>2011-07-03T14:05:50Z</time>
      </trkpt>
      <trkpt lat="46.29179" lon="-0.34905">
        <ele>59.9746</ele>
        <time>2011-07-03T14:05:51Z</time>
      </trkpt>
      <trkpt lat="46.2918" lon="-0.34904">
        <ele>59.9769</ele>
        <time>2011-07-03T14:05:52Z</time>
      </trkpt>
      <trkpt lat="46.29182" lon="-0.34904">
        <ele>59.9777</ele>
        <time>2011-07-03T14:05:53Z</time>
      </trkpt>
      <trkpt lat="46.29183" lon="-0.34903">
        <ele>59.9788</ele>
        <time>2011-07-03T14:05:54Z</time>
      </trkpt>
      <trkpt lat="46.29184" lon="-0.34903">
        <ele>59.9785</ele>
        <time>2011-07-03T14:05:55Z</time>
      </trkpt>
      <trkpt lat="46.29185" lon="-0.34902">
        <ele>59.9766</ele>
        <time>2011-07-03T14:05:56Z</time>
      </trkpt>
      <trkpt lat="46.29186" lon="-0.34901">
        <ele>59.9731</ele>
        <time>2011-07-03T14:05:57Z</time>
      </trkpt>
      <trkpt lat="46.29188" lon="-0.34901">
        <ele>59.9687</ele>
        <time>2011-07-03T14:05:58Z</time>
      </trkpt>
      <trkpt lat="46.29189" lon="-0.34901">
        <ele>59.9628</ele>
        <time>2011-07-03T14:05:59Z</time>
      </trkpt>
      <trkpt lat="46.2919" lon="-0.349">
        <ele>59.9554</ele>
        <time>2011-07-03T14:06:00Z</time>
      </trkpt>
      <trkpt lat="46.29191" lon="-0.349">
        <ele>59.9466</ele>
        <time>2011-07-03T14:06:01Z</time>
      </trkpt>
      <trkpt lat="46.29192" lon="-0.34899">
        <ele>59.9369</ele>
        <time>2011-07-03T14:06:02Z</time>
      </trkpt>
      <trkpt lat="46.29194" lon="-0.34899">
        <ele>59.9264</ele>
        <time>2011-07-03T14:06:03Z</time>
      </trkpt>
      <trkpt lat="46.29195" lon="-0.34898">
        <ele>59.9149</ele>
        <time>2011-07-03T14:06:04Z</time>
      </trkpt>
      <trkpt lat="46.29196" lon="-0.34898">
        <ele>59.902</ele>
        <time>2011-07-03T14:06:05Z</time>
      </trkpt>
      <trkpt lat="46.29197" lon="-0.34898">
        <ele>59.888</ele>
        <time>2011-07-03T14:06:06Z</time>
      </trkpt>
      <trkpt lat="46.29199" lon="-0.34897">
        <ele>59.8734</ele>
        <time>2011-07-03T14:06:07Z</time>
      </trkpt>
      <trkpt lat="46.292" lon="-0.34896">
        <ele>59.8579</ele>
        <time>2011-07-03T14:06:08Z</time>
      </trkpt>
      <trkpt lat="46.29201" lon="-0.34895">
        <ele>59.8411</ele>
        <time>2011-07-03T14:06:09Z</time>
      </trkpt>
      <trkpt lat="46.29202" lon="-0.34895">
        <ele>59.8228</ele>
        <time>2011-07-03T14:06:10Z</time>
      </trkpt>
      <trkpt lat="46.29204" lon="-0.34895">
        <ele>59.803</ele>
        <time>2011-07-03T14:06:11Z</time>
      </trkpt>
      <trkpt lat="46.29205" lon="-0.34895">
        <ele>59.7842</ele>
        <time>2011-07-03T14:06:12Z</time>
      </trkpt>
      <trkpt lat="46.29207" lon="-0.34894">
        <ele>59.7684</ele>
        <time>2011-07-03T14:06:13Z</time>
      </trkpt>
      <trkpt lat="46.29208" lon="-0.34894">
        <ele>59.7557</ele>
        <time>2011-07-03T14:06:14Z</time>
      </trkpt>
      <trkpt lat="46.2921" lon="-0.34894">
        <ele>59.7421</ele>
        <time>2011-07-03T14:06:15Z</time>
      </trkpt>
      <trkpt lat="46.29211" lon="-0.34894">
        <ele>59.7273</ele>
        <time>2011-07-03T14:06:16Z</time>
      </trkpt>
      <trkpt lat="46.29212" lon="-0.34893">
        <ele>59.7113</ele>
        <time>2011-07-03T14:06:17Z</time>
      </trkpt>
      <trkpt lat="46.29214" lon="-0.34893">
        <ele>59.6947</ele>
        <time>2011-07-03T14:06:18Z</time>
      </trkpt>
      <trkpt lat="46.29215" lon="-0.34892">
        <ele>59.6779</ele>
        <time>2011-07-03T14:06:19Z</time>
      </trkpt>
      <trkpt lat="46.29217" lon="-0.34892">
        <ele>59.6595</ele>
        <time>2011-07-03T14:06:20Z</time>
      </trkpt>
      <trkpt lat="46.29218" lon="-0.34891">
        <ele>59.6404</ele>
        <time>2011-07-03T14:06:21Z</time>
      </trkpt>
      <trkpt lat="46.29219" lon="-0.34891">
        <ele>59.6204</ele>
        <time>2011-07-03T14:06:22Z</time>
      </trkpt>
      <trkpt lat="46.29221" lon="-0.34891">
        <ele>59.5993</ele>
        <time>2011-07-03T14:06:23Z</time>
      </trkpt>
      <trkpt lat="46.29222" lon="-0.3489">
        <ele>59.5788</ele>
        <time>2011-07-03T14:06:24Z</time>
      </trkpt>
      <trkpt lat="46.29223" lon="-0.34889">
        <ele>59.5603</ele>
        <time>2011-07-03T14:06:25Z</time>
      </trkpt>
      <trkpt lat="46.29224" lon="-0.34889">
        <ele>59.5406</ele>
        <time>2011-07-03T14:06:26Z</time>
      </trkpt>
      <trkpt lat="46.29226" lon="-0.34888">
        <ele>59.5198</ele>
        <time>2011-07-03T14:06:27Z</time>
      </trkpt>
      <trkpt lat="46.29227" lon="-0.34887">
        <ele>59.4988</ele>
        <time>2011-07-03T14:06:28Z</time>
      </trkpt>
      <trkpt lat="46.29228" lon="-0.34886">
        <ele>59.4799</ele>
        <time>2011-07-03T14:06:29Z</time>
      </trkpt>
      <trkpt lat="46.29229" lon="-0.34886">
        <ele>59.4624</ele>
        <time>2011-07-03T14:06:30Z</time>
      </trkpt>
      <trkpt lat="46.29231" lon="-0.34885">
        <ele>59.444</ele>
        <time>2011-07-03T14:06:31Z</time>
      </trkpt>
      <trkpt lat="46.29232" lon="-0.34884">
        <ele>59.4245</ele>
        <time>2011-07-03T14:06:32Z</time>
      </trkpt>
      <trkpt lat="46.29233" lon="-0.34883">
        <ele>59.405</ele>
        <time>2011-07-03T14:06:33Z</time>
      </trkpt>
      <trkpt lat="46.29235" lon="-0.34882">
        <ele>59.3842</ele>
        <time>2011-07-03T14:06:34Z</time>
      </trkpt>
      <trkpt lat="46.29236" lon="-0.34881">
        <ele>59.3633</ele>
        <time>2011-07-03T14:06:35Z</time>
      </trkpt>
      <trkpt lat="46.29237" lon="-0.34881">
        <ele>59.341</ele>
        <time>2011-07-03T14:06:36Z</time>
      </trkpt>
      <trkpt lat="46.29239" lon="-0.3488">
        <ele>59.3173</ele>
        <time>2011-07-03T14:06:37Z</time>
      </trkpt>
      <trkpt lat="46.2924" lon="-0.3488">
        <ele>59.2924</ele>
        <time>2011-07-03T14:06:38Z</time>
      </trkpt>
      <trkpt lat="46.29241" lon="-0.34879">
        <ele>59.2704</ele>
        <time>2011-07-03T14:06:39Z</time>
      </trkpt>
      <trkpt lat="46.29242" lon="-0.34879">
        <ele>59.2507</ele>
        <time>2011-07-03T14:06:40Z</time>
      </trkpt>
      <trkpt lat="46.29244" lon="-0.34878">
        <ele>59.2343</ele>
        <time>2011-07-03T14:06:41Z</time>
      </trkpt>
      <trkpt lat="46.29245" lon="-0.34877">
        <ele>59.2173</ele>
        <time>2011-07-03T14:06:42Z</time>
      </trkpt>
      <trkpt lat="46.29246" lon="-0.34877">
        <ele>59.2057</ele>
        <time>2011-07-03T14:06:43Z</time>
      </trkpt>
      <trkpt lat="46.29247" lon="-0.34877">
        <ele>59.1997</ele>
        <time>2011-07-03T14:06:44Z</time>
      </trkpt>
      <trkpt lat="46.29248" lon="-0.34877">
        <ele>59.1981</ele>
        <time>2011-07-03T14:06:45Z</time>
      </trkpt>
      <trkpt lat="46.2925" lon="-0.34876">
        <ele>59.1956</ele>
        <time>2011-07-03T14:06:46Z</time>
      </trkpt>
      <trkpt lat="46.29251" lon="-0.34876">
        <ele>59.192</ele>
        <time>2011-07-03T14:06:47Z</time>
      </trkpt>
      <trkpt lat="46.29253" lon="-0.34875">
        <ele>59.1867</ele>
        <time>2011-07-03T14:06:48Z</time>
      </trkpt>
      <trkpt lat="46.29254" lon="-0.34874">
        <ele>59.1796</ele>
        <time>2011-07-03T14:06:49Z</time>
      </trkpt>
      <trkpt lat="46.29255" lon="-0.34873">
        <ele>59.173</ele>
        <time>2011-07-03T14:06:50Z</time>
      </trkpt>
      <trkpt lat="46.29256" lon="-0.34873">
        <ele>59.1673</ele>
        <time>2011-07-03T14:06:51Z</time>
      </trkpt>
      <trkpt lat="46.29258" lon="-0.34872">
        <ele>59.1606</ele>
        <time>2011-07-03T14:06:52Z</time>
      </trkpt>
      <trkpt lat="46.29259" lon="-0.34872">
        <ele>59.1529</ele>
        <time>2011-07-03T14:06:53Z</time>
      </trkpt>
      <trkpt lat="46.2926" lon="-0.34871">
        <ele>59.1464</ele>
        <time>2011-07-03T14:06:54Z</time>
      </trkpt>
      <trkpt lat="46.29261" lon="-0.34871">
        <ele>59.1429</ele>
        <time>2011-07-03T14:06:55Z</time>
      </trkpt>
      <trkpt lat="46.29263" lon="-0.3487">
        <ele>59.1388</ele>
        <time>2011-07-03T14:06:56Z</time>
      </trkpt>
      <trkpt lat="46.29264" lon="-0.3487">
        <ele>59.135</ele>
        <time>2011-07-03T14:06:57Z</time>
      </trkpt>
      <trkpt lat="46.29265" lon="-0.3487">
        <ele>59.1347</ele>
        <time>2011-07-03T14:06:58Z</time>
      </trkpt>
      <trkpt lat="46.29267" lon="-0.34869">
        <ele>59.1337</ele>
        <time>2011-07-03T14:06:59Z</time>
      </trkpt>
      <trkpt lat="46.29268" lon="-0.34869">
        <ele>59.1319</ele>
        <time>2011-07-03T14:07:00Z</time>
      </trkpt>
      <trkpt lat="46.29269" lon="-0.34868">
        <ele>59.1299</ele>
        <time>2011-07-03T14:07:01Z</time>
      </trkpt>
      <trkpt lat="46.2927" lon="-0.34868">
        <ele>59.1289</ele>
        <time>2011-07-03T14:07:02Z</time>
      </trkpt>
      <trkpt lat="46.29272" lon="-0.34867">
        <ele>59.1292</ele>
        <time>2011-07-03T14:07:03Z</time>
      </trkpt>
      <trkpt lat="46.29273" lon="-0.34866">
        <ele>59.1287</ele>
        <time>2011-07-03T14:07:04Z</time>
      </trkpt>
      <trkpt lat="46.29274" lon="-0.34866">
        <ele>59.1275</ele>
        <time>2011-07-03T14:07:05Z</time>
      </trkpt>
      <trkpt lat="46.29275" lon="-0.34865">
        <ele>59.1281</ele>
        <time>2011-07-03T14:07:06Z</time>
      </trkpt>
      <trkpt lat="46.29276" lon="-0.34863">
        <ele>59.1281</ele>
        <time>2011-07-03T14:07:07Z</time>
      </trkpt>
      <trkpt lat="46.29277" lon="-0.34862">
        <ele>59.1272</ele>
        <time>2011-07-03T14:07:08Z</time>
      </trkpt>
      <trkpt lat="46.29277" lon="-0.3486">
        <ele>59.1262</ele>
        <time>2011-07-03T14:07:09Z</time>
      </trkpt>
      <trkpt lat="46.29278" lon="-0.34859">
        <ele>59.1249</ele>
        <time>2011-07-03T14:07:10Z</time>
      </trkpt>
      <trkpt lat="46.29279" lon="-0.34857">
        <ele>59.1224</ele>
        <time>2011-07-03T14:07:11Z</time>
      </trkpt>
      <trkpt lat="46.2928" lon="-0.34855">
        <ele>59.1196</ele>
        <time>2011-07-03T14:07:12Z</time>
      </trkpt>
      <trkpt lat="46.2928" lon="-0.34853">
        <ele>59.1169</ele>
        <time>2011-07-03T14:07:13Z</time>
      </trkpt>
      <trkpt lat="46.29281" lon="-0.34852">
        <ele>59.1139</ele>
        <time>2011-07-03T14:07:14Z</time>
      </trkpt>
      <trkpt lat="46.29281" lon="-0.3485">
        <ele>59.1124</ele>
        <time>2011-07-03T14:07:15Z</time>
      </trkpt>
      <trkpt lat="46.29281" lon="-0.34848">
        <ele>59.1109</ele>
        <time>2011-07-03T14:07:16Z</time>
      </trkpt>
      <trkpt lat="46.29282" lon="-0.34846">
        <ele>59.1089</ele>
        <time>2011-07-03T14:07:17Z</time>
      </trkpt>
      <trkpt lat="46.29282" lon="-0.34845">
        <ele>59.1101</ele>
        <time>2011-07-03T14:07:18Z</time>
      </trkpt>
      <trkpt lat="46.29282" lon="-0.34843">
        <ele>59.113</ele>
        <time>2011-07-03T14:07:19Z</time>
      </trkpt>
      <trkpt lat="46.29283" lon="-0.3484">
        <ele>59.1155</ele>
        <time>2011-07-03T14:07:20Z</time>
      </trkpt>
      <trkpt lat="46.29283" lon="-0.34838">
        <ele>59.1182</ele>
        <time>2011-07-03T14:07:21Z</time>
      </trkpt>
      <trkpt lat="46.29283" lon="-0.34836">
        <ele>59.122</ele>
        <time>2011-07-03T14:07:22Z</time>
      </trkpt>
      <trkpt lat="46.29283" lon="-0.34834">
        <ele>59.126</ele>
        <time>2011-07-03T14:07:23Z</time>
      </trkpt>
      <trkpt lat="46.29283" lon="-0.34832">
        <ele>59.1297</ele>
        <time>2011-07-03T14:07:24Z</time>
      </trkpt>
      <trkpt lat="46.29283" lon="-0.3483">
        <ele>59.134</ele>
        <time>2011-07-03T14:07:25Z</time>
      </trkpt>
      <trkpt lat="46.29283" lon="-0.34828">
        <ele>59.1388</ele>
        <time>2011-07-03T14:07:26Z</time>
      </trkpt>
      <trkpt lat="46.29283" lon="-0.34826">
        <ele>59.1445</ele>
        <time>2011-07-03T14:07:27Z</time>
      </trkpt>
      <trkpt lat="46.29284" lon="-0.34824">
        <ele>59.1506</ele>
        <time>2011-07-03T14:07:28Z</time>
      </trkpt>
      <trkpt lat="46.29284" lon="-0.34822">
        <ele>59.1569</ele>
        <time>2011-07-03T14:07:29Z</time>
      </trkpt>
      <trkpt lat="46.29284" lon="-0.34821">
        <ele>59.163</ele>
        <time>2011-07-03T14:07:30Z</time>
      </trkpt>
      <trkpt lat="46.29284" lon="-0.34819">
        <ele>59.1692</ele>
        <time>2011-07-03T14:07:31Z</time>
      </trkpt>
      <trkpt lat="46.29284" lon="-0.34817">
        <ele>59.1751</ele>
        <time>2011-07-03T14:07:32Z</time>
      </trkpt>
      <trkpt lat="46.29284" lon="-0.34815">
        <ele>59.1825</ele>
        <time>2011-07-03T14:07:33Z</time>
      </trkpt>
      <trkpt lat="46.29284" lon="-0.34813">
        <ele>59.1909</ele>
        <time>2011-07-03T14:07:34Z</time>
      </trkpt>
      <trkpt lat="46.29284" lon="-0.34811">
        <ele>59.2018</ele>
        <time>2011-07-03T14:07:35Z</time>
      </trkpt>
      <trkpt lat="46.29284" lon="-0.34809">
        <ele>59.2118</ele>
        <time>2011-07-03T14:07:36Z</time>
      </trkpt>
      <trkpt lat="46.29284" lon="-0.34807">
        <ele>59.2221</ele>
        <time>2011-07-03T14:07:37Z</time>
      </trkpt>
      <trkpt lat="46.29285" lon="-0.34805">
        <ele>59.2335</ele>
        <time>2011-07-03T14:07:38Z</time>
      </trkpt>
      <trkpt lat="46.29285" lon="-0.34803">
        <ele>59.2462</ele>
        <time>2011-07-03T14:07:39Z</time>
      </trkpt>
      <trkpt lat="46.29285" lon="-0.34801">
        <ele>59.2581</ele>
        <time>2011-07-03T14:07:40Z</time>
      </trkpt>
      <trkpt lat="46.29285" lon="-0.348">
        <ele>59.2695</ele>
        <time>2011-07-03T14:07:41Z</time>
      </trkpt>
      <trkpt lat="46.29285" lon="-0.34798">
        <ele>59.2808</ele>
        <time>2011-07-03T14:07:42Z</time>
      </trkpt>
      <trkpt lat="46.29285" lon="-0.34796">
        <ele>59.2919</ele>
        <time>2011-07-03T14:07:43Z</time>
      </trkpt>
      <trkpt lat="46.29285" lon="-0.34794">
        <ele>59.3029</ele>
        <time>2011-07-03T14:07:44Z</time>
      </trkpt>
      <trkpt lat="46.29285" lon="-0.34792">
        <ele>59.3133</ele>
        <time>2011-07-03T14:07:45Z</time>
      </trkpt>
      <trkpt lat="46.29285" lon="-0.34791">
        <ele>59.3229</ele>
        <time>2011-07-03T14:07:46Z</time>
      </trkpt>
      <trkpt lat="46.29285" lon="-0.34789">
        <ele>59.3314</ele>
        <time>2011-07-03T14:07:47Z</time>
      </trkpt>
      <trkpt lat="46.29285" lon="-0.34787">
        <ele>59.3386</ele>
        <time>2011-07-03T14:07:48Z</time>
      </trkpt>
      <trkpt lat="46.29285" lon="-0.34785">
        <ele>59.3441</ele>
        <time>2011-07-03T14:07:49Z</time>
      </trkpt>
      <trkpt lat="46.29285" lon="-0.34783">
        <ele>59.348</ele>
        <time>2011-07-03T14:07:50Z</time>
      </trkpt>
      <trkpt lat="46.29286" lon="-0.34781">
        <ele>59.3521</ele>
        <time>2011-07-03T14:07:51Z</time>
      </trkpt>
      <trkpt lat="46.29286" lon="-0.34779">
        <ele>59.3559</ele>
        <time>2011-07-03T14:07:52Z</time>
      </trkpt>
      <trkpt lat="46.29287" lon="-0.34776">
        <ele>59.359</ele>
        <time>2011-07-03T14:07:53Z</time>
      </trkpt>
      <trkpt lat="46.29287" lon="-0.34774">
        <ele>59.3614</ele>
        <time>2011-07-03T14:07:54Z</time>
      </trkpt>
      <trkpt lat="46.29287" lon="-0.34772">
        <ele>59.3649</ele>
        <time>2011-07-03T14:07:55Z</time>
      </trkpt>
      <trkpt lat="46.29287" lon="-0.34771">
        <ele>59.37</ele>
        <time>2011-07-03T14:07:56Z</time>
      </trkpt>
      <trkpt lat="46.29287" lon="-0.34769">
        <ele>59.3762</ele>
        <time>2011-07-03T14:07:57Z</time>
      </trkpt>
      <trkpt lat="46.29287" lon="-0.34767">
        <ele>59.3863</ele>
        <time>2011-07-03T14:07:58Z</time>
      </trkpt>
      <trkpt lat="46.29288" lon="-0.34766">
        <ele>59.396</ele>
        <time>2011-07-03T14:07:59Z</time>
      </trkpt>
      <trkpt lat="46.29288" lon="-0.34764">
        <ele>59.4095</ele>
        <time>2011-07-03T14:08:00Z</time>
      </trkpt>
      <trkpt lat="46.29288" lon="-0.34762">
        <ele>59.4213</ele>
        <time>2011-07-03T14:08:01Z</time>
      </trkpt>
      <trkpt lat="46.29288" lon="-0.3476">
        <ele>59.4334</ele>
        <time>2011-07-03T14:08:02Z</time>
      </trkpt>
      <trkpt lat="46.29288" lon="-0.34758">
        <ele>59.4492</ele>
        <time>2011-07-03T14:08:03Z</time>
      </trkpt>
      <trkpt lat="46.29289" lon="-0.34756">
        <ele>59.4657</ele>
        <time>2011-07-03T14:08:04Z</time>
      </trkpt>
      <trkpt lat="46.29289" lon="-0.34755">
        <ele>59.4819</ele>
        <time>2011-07-03T14:08:05Z</time>
      </trkpt>
      <trkpt lat="46.29289" lon="-0.34753">
        <ele>59.4991</ele>
        <time>2011-07-03T14:08:06Z</time>
      </trkpt>
      <trkpt lat="46.29289" lon="-0.34751">
        <ele>59.5149</ele>
        <time>2011-07-03T14:08:07Z</time>
      </trkpt>
      <trkpt lat="46.2929" lon="-0.34749">
        <ele>59.5297</ele>
        <time>2011-07-03T14:08:08Z</time>
      </trkpt>
      <trkpt lat="46.2929" lon="-0.34747">
        <ele>59.5427</ele>
        <time>2011-07-03T14:08:09Z</time>
      </trkpt>
      <trkpt lat="46.2929" lon="-0.34746">
        <ele>59.5544</ele>
        <time>2011-07-03T14:08:10Z</time>
      </trkpt>
      <trkpt lat="46.29291" lon="-0.34744">
        <ele>59.564</ele>
        <time>2011-07-03T14:08:11Z</time>
      </trkpt>
      <trkpt lat="46.29291" lon="-0.34742">
        <ele>59.574</ele>
        <time>2011-07-03T14:08:12Z</time>
      </trkpt>
      <trkpt lat="46.29292" lon="-0.34741">
        <ele>59.5836</ele>
        <time>2011-07-03T14:08:13Z</time>
      </trkpt>
      <trkpt lat="46.29292" lon="-0.34739">
        <ele>59.5927</ele>
        <time>2011-07-03T14:08:14Z</time>
      </trkpt>
      <trkpt lat="46.29292" lon="-0.34737">
        <ele>59.6025</ele>
        <time>2011-07-03T14:08:15Z</time>
      </trkpt>
      <trkpt lat="46.29293" lon="-0.34735">
        <ele>59.6122</ele>
        <time>2011-07-03T14:08:16Z</time>
      </trkpt>
      <trkpt lat="46.29293" lon="-0.34733">
        <ele>59.6226</ele>
        <time>2011-07-03T14:08:17Z</time>
      </trkpt>
      <trkpt lat="46.29294" lon="-0.34732">
        <ele>59.6343</ele>
        <time>2011-07-03T14:08:18Z</time>
      </trkpt>
      <trkpt lat="46.29294" lon="-0.3473">
        <ele>59.6477</ele>
        <time>2011-07-03T14:08:19Z</time>
      </trkpt>
      <trkpt lat="46.29295" lon="-0.34729">
        <ele>59.6636</ele>
        <time>2011-07-03T14:08:20Z</time>
      </trkpt>
      <trkpt lat="46.29295" lon="-0.34727">
        <ele>59.6793</ele>
        <time>2011-07-03T14:08:21Z</time>
      </trkpt>
      <trkpt lat="46.29296" lon="-0.34726">
        <ele>59.6971</ele>
        <time>2011-07-03T14:08:22Z</time>
      </trkpt>
      <trkpt lat="46.29296" lon="-0.34725">
        <ele>59.7157</ele>
        <time>2011-07-03T14:08:23Z</time>
      </trkpt>
      <trkpt lat="46.29297" lon="-0.34723">
        <ele>59.7335</ele>
        <time>2011-07-03T14:08:24Z</time>
      </trkpt>
      <trkpt lat="46.29297" lon="-0.34722">
        <ele>59.7505</ele>
        <time>2011-07-03T14:08:25Z</time>
      </trkpt>
      <trkpt lat="46.29298" lon="-0.3472">
        <ele>59.7663</ele>
        <time>2011-07-03T14:08:26Z</time>
      </trkpt>
      <trkpt lat="46.29298" lon="-0.34719">
        <ele>59.7803</ele>
        <time>2011-07-03T14:08:27Z</time>
      </trkpt>
      <trkpt lat="46.29299" lon="-0.34718">
        <ele>59.794</ele>
        <time>2011-07-03T14:08:28Z</time>
      </trkpt>
      <trkpt lat="46.293" lon="-0.34716">
        <ele>59.8083</ele>
        <time>2011-07-03T14:08:29Z</time>
      </trkpt>
      <trkpt lat="46.29301" lon="-0.34714">
        <ele>59.8223</ele>
        <time>2011-07-03T14:08:30Z</time>
      </trkpt>
      <trkpt lat="46.29302" lon="-0.34712">
        <ele>59.8364</ele>
        <time>2011-07-03T14:08:31Z</time>
      </trkpt>
      <trkpt lat="46.29302" lon="-0.34711">
        <ele>59.8509</ele>
        <time>2011-07-03T14:08:32Z</time>
      </trkpt>
      <trkpt lat="46.29303" lon="-0.34709">
        <ele>59.8636</ele>
        <time>2011-07-03T14:08:33Z</time>
      </trkpt>
      <trkpt lat="46.29305" lon="-0.34707">
        <ele>59.8763</ele>
        <time>2011-07-03T14:08:34Z</time>
      </trkpt>
      <trkpt lat="46.29306" lon="-0.34705">
        <ele>59.887</ele>
        <time>2011-07-03T14:08:35Z</time>
      </trkpt>
      <trkpt lat="46.29307" lon="-0.34704">
        <ele>59.8971</ele>
        <time>2011-07-03T14:08:36Z</time>
      </trkpt>
      <trkpt lat="46.29308" lon="-0.34702">
        <ele>59.9063</ele>
        <time>2011-07-03T14:08:37Z</time>
      </trkpt>
      <trkpt lat="46.29309" lon="-0.34701">
        <ele>59.9151</ele>
        <time>2011-07-03T14:08:38Z</time>
      </trkpt>
      <trkpt lat="46.2931" lon="-0.34699">
        <ele>59.9231</ele>
        <time>2011-07-03T14:08:39Z</time>
      </trkpt>
      <trkpt lat="46.29311" lon="-0.34698">
        <ele>59.9308</ele>
        <time>2011-07-03T14:08:40Z</time>
      </trkpt>
      <trkpt lat="46.29312" lon="-0.34697">
        <ele>59.9389</ele>
        <time>2011-07-03T14:08:41Z</time>
      </trkpt>
      <trkpt lat="46.29313" lon="-0.34696">
        <ele>59.9456</ele>
        <time>2011-07-03T14:08:42Z</time>
      </trkpt>
      <trkpt lat="46.29314" lon="-0.34694">
        <ele>59.9527</ele>
        <time>2011-07-03T14:08:43Z</time>
      </trkpt>
      <trkpt lat="46.29315" lon="-0.34693">
        <ele>59.9611</ele>
        <time>2011-07-03T14:08:44Z</time>
      </trkpt>
      <trkpt lat="46.29316" lon="-0.34692">
        <ele>59.9694</ele>
        <time>2011-07-03T14:08:45Z</time>
      </trkpt>
      <trkpt lat="46.29318" lon="-0.3469">
        <ele>59.9766</ele>
        <time>2011-07-03T14:08:46Z</time>
      </trkpt>
      <trkpt lat="46.29319" lon="-0.34689">
        <ele>59.983</ele>
        <time>2011-07-03T14:08:47Z</time>
      </trkpt>
      <trkpt lat="46.29319" lon="-0.34688">
        <ele>59.9884</ele>
        <time>2011-07-03T14:08:48Z</time>
      </trkpt>
      <trkpt lat="46.29321" lon="-0.34687">
        <ele>59.9923</ele>
        <time>2011-07-03T14:08:49Z</time>
      </trkpt>
      <trkpt lat="46.29322" lon="-0.34686">
        <ele>59.9955</ele>
        <time>2011-07-03T14:08:50Z</time>
      </trkpt>
      <trkpt lat="46.29323" lon="-0.34685">
        <ele>59.9992</ele>
        <time>2011-07-03T14:08:51Z</time>
      </trkpt>
      <trkpt lat="46.29324" lon="-0.34684">
        <ele>60.0037</ele>
        <time>2011-07-03T14:08:52Z</time>
      </trkpt>
      <trkpt lat="46.29325" lon="-0.34682">
        <ele>60.0089</ele>
        <time>2011-07-03T14:08:53Z</time>
      </trkpt>
      <trkpt lat="46.29326" lon="-0.34681">
        <ele>60.0147</ele>
        <time>2011-07-03T14:08:54Z</time>
      </trkpt>
      <trkpt lat="46.29327" lon="-0.3468">
        <ele>60.0208</ele>
        <time>2011-07-03T14:08:55Z</time>
      </trkpt>
      <trkpt lat="46.29328" lon="-0.34678">
        <ele>60.0267</ele>
        <time>2011-07-03T14:08:56Z</time>
      </trkpt>
      <trkpt lat="46.29329" lon="-0.34677">
        <ele>60.0319</ele>
        <time>2011-07-03T14:08:57Z</time>
      </trkpt>
      <trkpt lat="46.2933" lon="-0.34676">
        <ele>60.0359</ele>
        <time>2011-07-03T14:08:58Z</time>
      </trkpt>
      <trkpt lat="46.29331" lon="-0.34675">
        <ele>60.0392</ele>
        <time>2011-07-03T14:08:59Z</time>
      </trkpt>
      <trkpt lat="46.29332" lon="-0.34674">
        <ele>60.0416</ele>
        <time>2011-07-03T14:09:00Z</time>
      </trkpt>
      <trkpt lat="46.29334" lon="-0.34673">
        <ele>60.0439</ele>
        <time>2011-07-03T14:09:01Z</time>
      </trkpt>
      <trkpt lat="46.29335" lon="-0.34672">
        <ele>60.0452</ele>
        <time>2011-07-03T14:09:02Z</time>
      </trkpt>
      <trkpt lat="46.29336" lon="-0.34671">
        <ele>60.0467</ele>
        <time>2011-07-03T14:09:03Z</time>
      </trkpt>
      <trkpt lat="46.29337" lon="-0.3467">
        <ele>60.0472</ele>
        <time>2011-07-03T14:09:04Z</time>
      </trkpt>
      <trkpt lat="46.29338" lon="-0.34669">
        <ele>60.0486</ele>
        <time>2011-07-03T14:09:05Z</time>
      </trkpt>
      <trkpt lat="46.29339" lon="-0.34667">
        <ele>60.0497</ele>
        <time>2011-07-03T14:09:06Z</time>
      </trkpt>
      <trkpt lat="46.2934" lon="-0.34666">
        <ele>60.0499</ele>
        <time>2011-07-03T14:09:07Z</time>
      </trkpt>
      <trkpt lat="46.2934" lon="-0.34665">
        <ele>60.0492</ele>
        <time>2011-07-03T14:09:08Z</time>
      </trkpt>
      <trkpt lat="46.29342" lon="-0.34664">
        <ele>60.0475</ele>
        <time>2011-07-03T14:09:09Z</time>
      </trkpt>
      <trkpt lat="46.29343" lon="-0.34663">
        <ele>60.0459</ele>
        <time>2011-07-03T14:09:10Z</time>
      </trkpt>
      <trkpt lat="46.29344" lon="-0.34663">
        <ele>60.0448</ele>
        <time>2011-07-03T14:09:11Z</time>
      </trkpt>
      <trkpt lat="46.29345" lon="-0.34662">
        <ele>60.0441</ele>
        <time>2011-07-03T14:09:12Z</time>
      </trkpt>
      <trkpt lat="46.29346" lon="-0.34661">
        <ele>60.0437</ele>
        <time>2011-07-03T14:09:13Z</time>
      </trkpt>
      <trkpt lat="46.29347" lon="-0.3466">
        <ele>60.0421</ele>
        <time>2011-07-03T14:09:14Z</time>
      </trkpt>
      <trkpt lat="46.29348" lon="-0.34658">
        <ele>60.0405</ele>
        <time>2011-07-03T14:09:15Z</time>
      </trkpt>
      <trkpt lat="46.2935" lon="-0.34658">
        <ele>60.0374</ele>
        <time>2011-07-03T14:09:16Z</time>
      </trkpt>
      <trkpt lat="46.29351" lon="-0.34657">
        <ele>60.0345</ele>
        <time>2011-07-03T14:09:17Z</time>
      </trkpt>
      <trkpt lat="46.29353" lon="-0.34656">
        <ele>60.0326</ele>
        <time>2011-07-03T14:09:18Z</time>
      </trkpt>
      <trkpt lat="46.29354" lon="-0.34656">
        <ele>60.0379</ele>
        <time>2011-07-03T14:09:19Z</time>
      </trkpt>
      <trkpt lat="46.29356" lon="-0.34656">
        <ele>60.0488</ele>
        <time>2011-07-03T14:09:20Z</time>
      </trkpt>
      <trkpt lat="46.29357" lon="-0.34655">
        <ele>60.0643</ele>
        <time>2011-07-03T14:09:21Z</time>
      </trkpt>
      <trkpt lat="46.29359" lon="-0.34655">
        <ele>60.084</ele>
        <time>2011-07-03T14:09:22Z</time>
      </trkpt>
      <trkpt lat="46.2936" lon="-0.34655">
        <ele>60.1061</ele>
        <time>2011-07-03T14:09:23Z</time>
      </trkpt>
      <trkpt lat="46.29362" lon="-0.34655">
        <ele>60.1301</ele>
        <time>2011-07-03T14:09:24Z</time>
      </trkpt>
      <trkpt lat="46.29363" lon="-0.34654">
        <ele>60.1556</ele>
        <time>2011-07-03T14:09:25Z</time>
      </trkpt>
      <trkpt lat="46.29364" lon="-0.34653">
        <ele>60.1822</ele>
        <time>2011-07-03T14:09:26Z</time>
      </trkpt>
      <trkpt lat="46.29366" lon="-0.34652">
        <ele>60.2096</ele>
        <time>2011-07-03T14:09:27Z</time>
      </trkpt>
      <trkpt lat="46.29367" lon="-0.34651">
        <ele>60.2371</ele>
        <time>2011-07-03T14:09:28Z</time>
      </trkpt>
      <trkpt lat="46.29368" lon="-0.3465">
        <ele>60.2645</ele>
        <time>2011-07-03T14:09:29Z</time>
      </trkpt>
      <trkpt lat="46.29369" lon="-0.3465">
        <ele>60.2914</ele>
        <time>2011-07-03T14:09:30Z</time>
      </trkpt>
      <trkpt lat="46.29371" lon="-0.34649">
        <ele>60.3173</ele>
        <time>2011-07-03T14:09:31Z</time>
      </trkpt>
      <trkpt lat="46.29372" lon="-0.34649">
        <ele>60.3426</ele>
        <time>2011-07-03T14:09:32Z</time>
      </trkpt>
      <trkpt lat="46.29373" lon="-0.34648">
        <ele>60.3671</ele>
        <time>2011-07-03T14:09:33Z</time>
      </trkpt>
      <trkpt lat="46.29374" lon="-0.34647">
        <ele>60.3911</ele>
        <time>2011-07-03T14:09:34Z</time>
      </trkpt>
      <trkpt lat="46.29375" lon="-0.34647">
        <ele>60.414</ele>
        <time>2011-07-03T14:09:35Z</time>
      </trkpt>
      <trkpt lat="46.29376" lon="-0.34646">
        <ele>60.4358</ele>
        <time>2011-07-03T14:09:36Z</time>
      </trkpt>
      <trkpt lat="46.29377" lon="-0.34646">
        <ele>60.4568</ele>
        <time>2011-07-03T14:09:37Z</time>
      </trkpt>
      <trkpt lat="46.29379" lon="-0.34645">
        <ele>60.4769</ele>
        <time>2011-07-03T14:09:38Z</time>
      </trkpt>
      <trkpt lat="46.2938" lon="-0.34645">
        <ele>60.4963</ele>
        <time>2011-07-03T14:09:39Z</time>
      </trkpt>
      <trkpt lat="46.29381" lon="-0.34644">
        <ele>60.5153</ele>
        <time>2011-07-03T14:09:40Z</time>
      </trkpt>
      <trkpt lat="46.29382" lon="-0.34644">
        <ele>60.5344</ele>
        <time>2011-07-03T14:09:41Z</time>
      </trkpt>
      <trkpt lat="46.29383" lon="-0.34643">
        <ele>60.5535</ele>
        <time>2011-07-03T14:09:42Z</time>
      </trkpt>
      <trkpt lat="46.29384" lon="-0.34642">
        <ele>60.5724</ele>
        <time>2011-07-03T14:09:43Z</time>
      </trkpt>
      <trkpt lat="46.29386" lon="-0.34641">
        <ele>60.5918</ele>
        <time>2011-07-03T14:09:44Z</time>
      </trkpt>
      <trkpt lat="46.29387" lon="-0.34641">
        <ele>60.6111</ele>
        <time>2011-07-03T14:09:45Z</time>
      </trkpt>
      <trkpt lat="46.29388" lon="-0.3464">
        <ele>60.6302</ele>
        <time>2011-07-03T14:09:46Z</time>
      </trkpt>
      <trkpt lat="46.29389" lon="-0.34639">
        <ele>60.6495</ele>
        <time>2011-07-03T14:09:47Z</time>
      </trkpt>
      <trkpt lat="46.2939" lon="-0.34638">
        <ele>60.6684</ele>
        <time>2011-07-03T14:09:48Z</time>
      </trkpt>
      <trkpt lat="46.29392" lon="-0.34638">
        <ele>60.6871</ele>
        <time>2011-07-03T14:09:49Z</time>
      </trkpt>
      <trkpt lat="46.29393" lon="-0.34637">
        <ele>60.7058</ele>
        <time>2011-07-03T14:09:50Z</time>
      </trkpt>
      <trkpt lat="46.29394" lon="-0.34636">
        <ele>60.7241</ele>
        <time>2011-07-03T14:09:51Z</time>
      </trkpt>
      <trkpt lat="46.29395" lon="-0.34636">
        <ele>60.7423</ele>
        <time>2011-07-03T14:09:52Z</time>
      </trkpt>
      <trkpt lat="46.29396" lon="-0.34635">
        <ele>60.7605</ele>
        <time>2011-07-03T14:09:53Z</time>
      </trkpt>
      <trkpt lat="46.29398" lon="-0.34635">
        <ele>60.778</ele>
        <time>2011-07-03T14:09:54Z</time>
      </trkpt>
      <trkpt lat="46.29399" lon="-0.34634">
        <ele>60.7947</ele>
        <time>2011-07-03T14:09:55Z</time>
      </trkpt>
      <trkpt lat="46.294" lon="-0.34634">
        <ele>60.8107</ele>
        <time>2011-07-03T14:09:56Z</time>
      </trkpt>
      <trkpt lat="46.29401" lon="-0.34633">
        <ele>60.8262</ele>
        <time>2011-07-03T14:09:57Z</time>
      </trkpt>
      <trkpt lat="46.29402" lon="-0.34632">
        <ele>60.8408</ele>
        <time>2011-07-03T14:09:58Z</time>
      </trkpt>
      <trkpt lat="46.29403" lon="-0.34632">
        <ele>60.8539</ele>
        <time>2011-07-03T14:09:59Z</time>
      </trkpt>
      <trkpt lat="46.29404" lon="-0.34632">
        <ele>60.8656</ele>
        <time>2011-07-03T14:10:00Z</time>
      </trkpt>
      <trkpt lat="46.29406" lon="-0.34631">
        <ele>60.8745</ele>
        <time>2011-07-03T14:10:01Z</time>
      </trkpt>
      <trkpt lat="46.29407" lon="-0.34631">
        <ele>60.8818</ele>
        <time>2011-07-03T14:10:02Z</time>
      </trkpt>
      <trkpt lat="46.29409" lon="-0.34631">
        <ele>60.8882</ele>
        <time>2011-07-03T14:10:03Z</time>
      </trkpt>
      <trkpt lat="46.2941" lon="-0.3463">
        <ele>60.8927</ele>
        <time>2011-07-03T14:10:04Z</time>
      </trkpt>
      <trkpt lat="46.29411" lon="-0.34629">
        <ele>60.8962</ele>
        <time>2011-07-03T14:10:05Z</time>
      </trkpt>
      <trkpt lat="46.29413" lon="-0.34629">
        <ele>60.9003</ele>
        <time>2011-07-03T14:10:06Z</time>
      </trkpt>
      <trkpt lat="46.29414" lon="-0.34628">
        <ele>60.9058</ele>
        <time>2011-07-03T14:10:07Z</time>
      </trkpt>
      <trkpt lat="46.29415" lon="-0.34628">
        <ele>60.913</ele>
        <time>2011-07-03T14:10:08Z</time>
      </trkpt>
      <trkpt lat="46.29416" lon="-0.34627">
        <ele>60.9218</ele>
        <time>2011-07-03T14:10:09Z</time>
      </trkpt>
      <trkpt lat="46.29417" lon="-0.34626">
        <ele>60.932</ele>
        <time>2011-07-03T14:10:10Z</time>
      </trkpt>
      <trkpt lat="46.29418" lon="-0.34626">
        <ele>60.9433</ele>
        <time>2011-07-03T14:10:11Z</time>
      </trkpt>
      <trkpt lat="46.29419" lon="-0.34625">
        <ele>60.9533</ele>
        <time>2011-07-03T14:10:12Z</time>
      </trkpt>
      <trkpt lat="46.29421" lon="-0.34624">
        <ele>60.9621</ele>
        <time>2011-07-03T14:10:13Z</time>
      </trkpt>
      <trkpt lat="46.29422" lon="-0.34623">
        <ele>60.9723</ele>
        <time>2011-07-03T14:10:14Z</time>
      </trkpt>
      <trkpt lat="46.29423" lon="-0.34622">
        <ele>60.9845</ele>
        <time>2011-07-03T14:10:15Z</time>
      </trkpt>
      <trkpt lat="46.29424" lon="-0.34622">
        <ele>60.9955</ele>
        <time>2011-07-03T14:10:16Z</time>
      </trkpt>
      <trkpt lat="46.29425" lon="-0.34621">
        <ele>61.0058</ele>
        <time>2011-07-03T14:10:17Z</time>
      </trkpt>
      <trkpt lat="46.29427" lon="-0.3462">
        <ele>61.0144</ele>
        <time>2011-07-03T14:10:18Z</time>
      </trkpt>
      <trkpt lat="46.29429" lon="-0.3462">
        <ele>61.0217</ele>
        <time>2011-07-03T14:10:19Z</time>
      </trkpt>
      <trkpt lat="46.2943" lon="-0.34619">
        <ele>61.0275</ele>
        <time>2011-07-03T14:10:20Z</time>
      </trkpt>
      <trkpt lat="46.29431" lon="-0.34619">
        <ele>61.0322</ele>
        <time>2011-07-03T14:10:21Z</time>
      </trkpt>
      <trkpt lat="46.29433" lon="-0.34618">
        <ele>61.0359</ele>
        <time>2011-07-03T14:10:22Z</time>
      </trkpt>
      <trkpt lat="46.29434" lon="-0.34617">
        <ele>61.0383</ele>
        <time>2011-07-03T14:10:23Z</time>
      </trkpt>
      <trkpt lat="46.29436" lon="-0.34617">
        <ele>61.0397</ele>
        <time>2011-07-03T14:10:24Z</time>
      </trkpt>
      <trkpt lat="46.29437" lon="-0.34616">
        <ele>61.041</ele>
        <time>2011-07-03T14:10:25Z</time>
      </trkpt>
      <trkpt lat="46.29438" lon="-0.34616">
        <ele>61.0457</ele>
        <time>2011-07-03T14:10:26Z</time>
      </trkpt>
      <trkpt lat="46.2944" lon="-0.34615">
        <ele>61.0501</ele>
        <time>2011-07-03T14:10:27Z</time>
      </trkpt>
      <trkpt lat="46.29441" lon="-0.34614">
        <ele>61.0584</ele>
        <time>2011-07-03T14:10:28Z</time>
      </trkpt>
      <trkpt lat="46.29443" lon="-0.34614">
        <ele>61.0659</ele>
        <time>2011-07-03T14:10:29Z</time>
      </trkpt>
      <trkpt lat="46.29444" lon="-0.34614">
        <ele>61.0736</ele>
        <time>2011-07-03T14:10:30Z</time>
      </trkpt>
      <trkpt lat="46.29446" lon="-0.34614">
        <ele>61.0815</ele>
        <time>2011-07-03T14:10:31Z</time>
      </trkpt>
      <trkpt lat="46.29447" lon="-0.34614">
        <ele>61.0896</ele>
        <time>2011-07-03T14:10:32Z</time>
      </trkpt>
      <trkpt lat="46.29448" lon="-0.34614">
        <ele>61.0947</ele>
        <time>2011-07-03T14:10:33Z</time>
      </trkpt>
      <trkpt lat="46.29448" lon="-0.34613">
        <ele>61.0947</ele>
        <time>2011-07-03T14:10:34Z</time>
      </trkpt>
      <trkpt lat="46.2945" lon="-0.34611">
        <ele>61.0872</ele>
        <time>2011-07-03T14:10:35Z</time>
      </trkpt>
      <trkpt lat="46.29451" lon="-0.34611">
        <ele>61.0665</ele>
        <time>2011-07-03T14:10:36Z</time>
      </trkpt>
      <trkpt lat="46.29452" lon="-0.3461">
        <ele>61.0445</ele>
        <time>2011-07-03T14:10:37Z</time>
      </trkpt>
      <trkpt lat="46.29453" lon="-0.3461">
        <ele>61.0228</ele>
        <time>2011-07-03T14:10:38Z</time>
      </trkpt>
      <trkpt lat="46.29454" lon="-0.3461">
        <ele>60.9979</ele>
        <time>2011-07-03T14:10:39Z</time>
      </trkpt>
      <trkpt lat="46.29456" lon="-0.34609">
        <ele>60.9735</ele>
        <time>2011-07-03T14:10:40Z</time>
      </trkpt>
      <trkpt lat="46.29457" lon="-0.34609">
        <ele>60.9474</ele>
        <time>2011-07-03T14:10:41Z</time>
      </trkpt>
      <trkpt lat="46.29458" lon="-0.34608">
        <ele>60.9194</ele>
        <time>2011-07-03T14:10:42Z</time>
      </trkpt>
      <trkpt lat="46.29459" lon="-0.34608">
        <ele>60.8903</ele>
        <time>2011-07-03T14:10:43Z</time>
      </trkpt>
      <trkpt lat="46.2946" lon="-0.34607">
        <ele>60.8603</ele>
        <time>2011-07-03T14:10:44Z</time>
      </trkpt>
      <trkpt lat="46.29462" lon="-0.34607">
        <ele>60.8303</ele>
        <time>2011-07-03T14:10:45Z</time>
      </trkpt>
      <trkpt lat="46.29463" lon="-0.34606">
        <ele>60.8004</ele>
        <time>2011-07-03T14:10:46Z</time>
      </trkpt>
      <trkpt lat="46.29464" lon="-0.34605">
        <ele>60.7713</ele>
        <time>2011-07-03T14:10:47Z</time>
      </trkpt>
      <trkpt lat="46.29466" lon="-0.34605">
        <ele>60.744</ele>
        <time>2011-07-03T14:10:48Z</time>
      </trkpt>
      <trkpt lat="46.29467" lon="-0.34604">
        <ele>60.7164</ele>
        <time>2011-07-03T14:10:49Z</time>
      </trkpt>
      <trkpt lat="46.29468" lon="-0.34604">
        <ele>60.6923</ele>
        <time>2011-07-03T14:10:50Z</time>
      </trkpt>
      <trkpt lat="46.29469" lon="-0.34604">
        <ele>60.6674</ele>
        <time>2011-07-03T14:10:51Z</time>
      </trkpt>
      <trkpt lat="46.2947" lon="-0.34603">
        <ele>60.6414</ele>
        <time>2011-07-03T14:10:52Z</time>
      </trkpt>
      <trkpt lat="46.29472" lon="-0.34603">
        <ele>60.6143</ele>
        <time>2011-07-03T14:10:53Z</time>
      </trkpt>
      <trkpt lat="46.29473" lon="-0.34602">
        <ele>60.5865</ele>
        <time>2011-07-03T14:10:54Z</time>
      </trkpt>
      <trkpt lat="46.29474" lon="-0.34602">
        <ele>60.562</ele>
        <time>2011-07-03T14:10:55Z</time>
      </trkpt>
      <trkpt lat="46.29476" lon="-0.34601">
        <ele>60.5374</ele>
        <time>2011-07-03T14:10:56Z</time>
      </trkpt>
      <trkpt lat="46.29477" lon="-0.34601">
        <ele>60.5125</ele>
        <time>2011-07-03T14:10:57Z</time>
      </trkpt>
      <trkpt lat="46.29479" lon="-0.346">
        <ele>60.487</ele>
        <time>2011-07-03T14:10:58Z</time>
      </trkpt>
      <trkpt lat="46.2948" lon="-0.346">
        <ele>60.4612</ele>
        <time>2011-07-03T14:10:59Z</time>
      </trkpt>
      <trkpt lat="46.29482" lon="-0.346">
        <ele>60.4348</ele>
        <time>2011-07-03T14:11:00Z</time>
      </trkpt>
      <trkpt lat="46.29484" lon="-0.346">
        <ele>60.408</ele>
        <time>2011-07-03T14:11:01Z</time>
      </trkpt>
      <trkpt lat="46.29485" lon="-0.346">
        <ele>60.3811</ele>
        <time>2011-07-03T14:11:02Z</time>
      </trkpt>
      <trkpt lat="46.29487" lon="-0.346">
        <ele>60.3582</ele>
        <time>2011-07-03T14:11:03Z</time>
      </trkpt>
      <trkpt lat="46.29488" lon="-0.346">
        <ele>60.3342</ele>
        <time>2011-07-03T14:11:04Z</time>
      </trkpt>
      <trkpt lat="46.29489" lon="-0.346">
        <ele>60.3085</ele>
        <time>2011-07-03T14:11:05Z</time>
      </trkpt>
      <trkpt lat="46.2949" lon="-0.346">
        <ele>60.2834</ele>
        <time>2011-07-03T14:11:06Z</time>
      </trkpt>
      <trkpt lat="46.29491" lon="-0.34599">
        <ele>60.2572</ele>
        <time>2011-07-03T14:11:07Z</time>
      </trkpt>
      <trkpt lat="46.29492" lon="-0.34598">
        <ele>60.2317</ele>
        <time>2011-07-03T14:11:08Z</time>
      </trkpt>
      <trkpt lat="46.29494" lon="-0.34597">
        <ele>60.205</ele>
        <time>2011-07-03T14:11:09Z</time>
      </trkpt>
      <trkpt lat="46.29495" lon="-0.34597">
        <ele>60.1775</ele>
        <time>2011-07-03T14:11:10Z</time>
      </trkpt>
      <trkpt lat="46.29496" lon="-0.34596">
        <ele>60.1543</ele>
        <time>2011-07-03T14:11:11Z</time>
      </trkpt>
      <trkpt lat="46.29498" lon="-0.34595">
        <ele>60.1352</ele>
        <time>2011-07-03T14:11:12Z</time>
      </trkpt>
      <trkpt lat="46.29499" lon="-0.34595">
        <ele>60.1154</ele>
        <time>2011-07-03T14:11:13Z</time>
      </trkpt>
      <trkpt lat="46.29501" lon="-0.34594">
        <ele>60.0941</ele>
        <time>2011-07-03T14:11:14Z</time>
      </trkpt>
      <trkpt lat="46.29502" lon="-0.34594">
        <ele>60.073</ele>
        <time>2011-07-03T14:11:15Z</time>
      </trkpt>
      <trkpt lat="46.29503" lon="-0.34593">
        <ele>60.0524</ele>
        <time>2011-07-03T14:11:16Z</time>
      </trkpt>
      <trkpt lat="46.29505" lon="-0.34592">
        <ele>60.0319</ele>
        <time>2011-07-03T14:11:17Z</time>
      </trkpt>
      <trkpt lat="46.29506" lon="-0.34591">
        <ele>60.0121</ele>
        <time>2011-07-03T14:11:18Z</time>
      </trkpt>
      <trkpt lat="46.29507" lon="-0.34591">
        <ele>59.9926</ele>
        <time>2011-07-03T14:11:19Z</time>
      </trkpt>
      <trkpt lat="46.29509" lon="-0.3459">
        <ele>59.9736</ele>
        <time>2011-07-03T14:11:20Z</time>
      </trkpt>
      <trkpt lat="46.2951" lon="-0.34589">
        <ele>59.9542</ele>
        <time>2011-07-03T14:11:21Z</time>
      </trkpt>
      <trkpt lat="46.29512" lon="-0.34589">
        <ele>59.9347</ele>
        <time>2011-07-03T14:11:22Z</time>
      </trkpt>
      <trkpt lat="46.29513" lon="-0.34588">
        <ele>59.9158</ele>
        <time>2011-07-03T14:11:23Z</time>
      </trkpt>
      <trkpt lat="46.29514" lon="-0.34587">
        <ele>59.897</ele>
        <time>2011-07-03T14:11:24Z</time>
      </trkpt>
      <trkpt lat="46.29516" lon="-0.34587">
        <ele>59.8788</ele>
        <time>2011-07-03T14:11:25Z</time>
      </trkpt>
      <trkpt lat="46.29517" lon="-0.34586">
        <ele>59.8604</ele>
        <time>2011-07-03T14:11:26Z</time>
      </trkpt>
      <trkpt lat="46.29519" lon="-0.34586">
        <ele>59.8406</ele>
        <time>2011-07-03T14:11:27Z</time>
      </trkpt>
      <trkpt lat="46.2952" lon="-0.34585">
        <ele>59.8221</ele>
        <time>2011-07-03T14:11:28Z</time>
      </trkpt>
      <trkpt lat="46.29522" lon="-0.34585">
        <ele>59.8028</ele>
        <time>2011-07-03T14:11:29Z</time>
      </trkpt>
      <trkpt lat="46.29523" lon="-0.34584">
        <ele>59.7827</ele>
        <time>2011-07-03T14:11:30Z</time>
      </trkpt>
      <trkpt lat="46.29524" lon="-0.34584">
        <ele>59.7622</ele>
        <time>2011-07-03T14:11:31Z</time>
      </trkpt>
      <trkpt lat="46.29526" lon="-0.34584">
        <ele>59.7453</ele>
        <time>2011-07-03T14:11:32Z</time>
      </trkpt>
      <trkpt lat="46.29528" lon="-0.34584">
        <ele>59.7294</ele>
        <time>2011-07-03T14:11:33Z</time>
      </trkpt>
      <trkpt lat="46.2953" lon="-0.34583">
        <ele>59.7124</ele>
        <time>2011-07-03T14:11:34Z</time>
      </trkpt>
      <trkpt lat="46.29532" lon="-0.34583">
        <ele>59.6976</ele>
        <time>2011-07-03T14:11:35Z</time>
      </trkpt>
      <trkpt lat="46.29533" lon="-0.34582">
        <ele>59.6852</ele>
        <time>2011-07-03T14:11:36Z</time>
      </trkpt>
      <trkpt lat="46.29536" lon="-0.34582">
        <ele>59.6722</ele>
        <time>2011-07-03T14:11:37Z</time>
      </trkpt>
      <trkpt lat="46.29537" lon="-0.34582">
        <ele>59.6586</ele>
        <time>2011-07-03T14:11:38Z</time>
      </trkpt>
      <trkpt lat="46.29538" lon="-0.34582">
        <ele>59.644</ele>
        <time>2011-07-03T14:11:39Z</time>
      </trkpt>
      <trkpt lat="46.29539" lon="-0.34582">
        <ele>59.6254</ele>
        <time>2011-07-03T14:11:40Z</time>
      </trkpt>
      <trkpt lat="46.2954" lon="-0.34581">
        <ele>59.6039</ele>
        <time>2011-07-03T14:11:41Z</time>
      </trkpt>
      <trkpt lat="46.29541" lon="-0.34581">
        <ele>59.5827</ele>
        <time>2011-07-03T14:11:42Z</time>
      </trkpt>
      <trkpt lat="46.29543" lon="-0.34581">
        <ele>59.5616</ele>
        <time>2011-07-03T14:11:43Z</time>
      </trkpt>
      <trkpt lat="46.29544" lon="-0.3458">
        <ele>59.5389</ele>
        <time>2011-07-03T14:11:44Z</time>
      </trkpt>
      <trkpt lat="46.29545" lon="-0.3458">
        <ele>59.5148</ele>
        <time>2011-07-03T14:11:45Z</time>
      </trkpt>
      <trkpt lat="46.29546" lon="-0.34579">
        <ele>59.4926</ele>
        <time>2011-07-03T14:11:46Z</time>
      </trkpt>
      <trkpt lat="46.29548" lon="-0.34579">
        <ele>59.4717</ele>
        <time>2011-07-03T14:11:47Z</time>
      </trkpt>
      <trkpt lat="46.29548" lon="-0.34578">
        <ele>59.4512</ele>
        <time>2011-07-03T14:11:48Z</time>
      </trkpt>
      <trkpt lat="46.29549" lon="-0.34577">
        <ele>59.4309</ele>
        <time>2011-07-03T14:11:49Z</time>
      </trkpt>
      <trkpt lat="46.29551" lon="-0.34576">
        <ele>59.4112</ele>
        <time>2011-07-03T14:11:50Z</time>
      </trkpt>
      <trkpt lat="46.29552" lon="-0.34575">
        <ele>59.3902</ele>
        <time>2011-07-03T14:11:51Z</time>
      </trkpt>
      <trkpt lat="46.29553" lon="-0.34575">
        <ele>59.3684</ele>
        <time>2011-07-03T14:11:52Z</time>
      </trkpt>
      <trkpt lat="46.29554" lon="-0.34574">
        <ele>59.3464</ele>
        <time>2011-07-03T14:11:53Z</time>
      </trkpt>
      <trkpt lat="46.29556" lon="-0.34574">
        <ele>59.3242</ele>
        <time>2011-07-03T14:11:54Z</time>
      </trkpt>
      <trkpt lat="46.29557" lon="-0.34574">
        <ele>59.3017</ele>
        <time>2011-07-03T14:11:55Z</time>
      </trkpt>
      <trkpt lat="46.29558" lon="-0.34573">
        <ele>59.2794</ele>
        <time>2011-07-03T14:11:56Z</time>
      </trkpt>
      <trkpt lat="46.2956" lon="-0.34573">
        <ele>59.2578</ele>
        <time>2011-07-03T14:11:57Z</time>
      </trkpt>
      <trkpt lat="46.29561" lon="-0.34572">
        <ele>59.2357</ele>
        <time>2011-07-03T14:11:58Z</time>
      </trkpt>
      <trkpt lat="46.29562" lon="-0.34572">
        <ele>59.2153</ele>
        <time>2011-07-03T14:11:59Z</time>
      </trkpt>
      <trkpt lat="46.29564" lon="-0.34571">
        <ele>59.1962</ele>
        <time>2011-07-03T14:12:00Z</time>
      </trkpt>
      <trkpt lat="46.29565" lon="-0.34571">
        <ele>59.1765</ele>
        <time>2011-07-03T14:12:01Z</time>
      </trkpt>
      <trkpt lat="46.29566" lon="-0.3457">
        <ele>59.156</ele>
        <time>2011-07-03T14:12:02Z</time>
      </trkpt>
      <trkpt lat="46.29567" lon="-0.3457">
        <ele>59.1349</ele>
        <time>2011-07-03T14:12:03Z</time>
      </trkpt>
      <trkpt lat="46.29569" lon="-0.34569">
        <ele>59.1144</ele>
        <time>2011-07-03T14:12:04Z</time>
      </trkpt>
      <trkpt lat="46.2957" lon="-0.34569">
        <ele>59.0942</ele>
        <time>2011-07-03T14:12:05Z</time>
      </trkpt>
      <trkpt lat="46.29571" lon="-0.34569">
        <ele>59.0742</ele>
        <time>2011-07-03T14:12:06Z</time>
      </trkpt>
      <trkpt lat="46.29572" lon="-0.34568">
        <ele>59.0543</ele>
        <time>2011-07-03T14:12:07Z</time>
      </trkpt>
      <trkpt lat="46.29573" lon="-0.34568">
        <ele>59.0352</ele>
        <time>2011-07-03T14:12:08Z</time>
      </trkpt>
      <trkpt lat="46.29575" lon="-0.34567">
        <ele>59.0156</ele>
        <time>2011-07-03T14:12:09Z</time>
      </trkpt>
      <trkpt lat="46.29576" lon="-0.34567">
        <ele>58.9961</ele>
        <time>2011-07-03T14:12:10Z</time>
      </trkpt>
      <trkpt lat="46.29577" lon="-0.34566">
        <ele>58.9761</ele>
        <time>2011-07-03T14:12:11Z</time>
      </trkpt>
      <trkpt lat="46.29578" lon="-0.34566">
        <ele>58.9543</ele>
        <time>2011-07-03T14:12:12Z</time>
      </trkpt>
      <trkpt lat="46.2958" lon="-0.34565">
        <ele>58.9312</ele>
        <time>2011-07-03T14:12:13Z</time>
      </trkpt>
      <trkpt lat="46.29581" lon="-0.34565">
        <ele>58.9078</ele>
        <time>2011-07-03T14:12:14Z</time>
      </trkpt>
      <trkpt lat="46.29582" lon="-0.34564">
        <ele>58.8843</ele>
        <time>2011-07-03T14:12:15Z</time>
      </trkpt>
      <trkpt lat="46.29584" lon="-0.34564">
        <ele>58.8623</ele>
        <time>2011-07-03T14:12:16Z</time>
      </trkpt>
      <trkpt lat="46.29585" lon="-0.34564">
        <ele>58.8418</ele>
        <time>2011-07-03T14:12:17Z</time>
      </trkpt>
      <trkpt lat="46.29586" lon="-0.34564">
        <ele>58.8223</ele>
        <time>2011-07-03T14:12:18Z</time>
      </trkpt>
      <trkpt lat="46.29587" lon="-0.34564">
        <ele>58.8052</ele>
        <time>2011-07-03T14:12:19Z</time>
      </trkpt>
      <trkpt lat="46.2959" lon="-0.34564">
        <ele>58.7898</ele>
        <time>2011-07-03T14:12:20Z</time>
      </trkpt>
      <trkpt lat="46.29591" lon="-0.34564">
        <ele>58.7698</ele>
        <time>2011-07-03T14:12:21Z</time>
      </trkpt>
      <trkpt lat="46.29593" lon="-0.34563">
        <ele>58.7439</ele>
        <time>2011-07-03T14:12:22Z</time>
      </trkpt>
      <trkpt lat="46.29594" lon="-0.34563">
        <ele>58.7148</ele>
        <time>2011-07-03T14:12:23Z</time>
      </trkpt>
      <trkpt lat="46.29594" lon="-0.34563">
        <ele>58.684</ele>
        <time>2011-07-03T14:12:24Z</time>
      </trkpt>
      <trkpt lat="46.29596" lon="-0.34562">
        <ele>58.6537</ele>
        <time>2011-07-03T14:12:25Z</time>
      </trkpt>
      <trkpt lat="46.29597" lon="-0.34562">
        <ele>58.6225</ele>
        <time>2011-07-03T14:12:26Z</time>
      </trkpt>
      <trkpt lat="46.29598" lon="-0.34561">
        <ele>58.5914</ele>
        <time>2011-07-03T14:12:27Z</time>
      </trkpt>
      <trkpt lat="46.296" lon="-0.34561">
        <ele>58.5605</ele>
        <time>2011-07-03T14:12:28Z</time>
      </trkpt>
      <trkpt lat="46.29601" lon="-0.3456">
        <ele>58.532</ele>
        <time>2011-07-03T14:12:29Z</time>
      </trkpt>
      <trkpt lat="46.29602" lon="-0.34559">
        <ele>58.5041</ele>
        <time>2011-07-03T14:12:30Z</time>
      </trkpt>
      <trkpt lat="46.29604" lon="-0.34558">
        <ele>58.4787</ele>
        <time>2011-07-03T14:12:31Z</time>
      </trkpt>
      <trkpt lat="46.29605" lon="-0.34557">
        <ele>58.4555</ele>
        <time>2011-07-03T14:12:32Z</time>
      </trkpt>
      <trkpt lat="46.29607" lon="-0.34556">
        <ele>58.4325</ele>
        <time>2011-07-03T14:12:33Z</time>
      </trkpt>
      <trkpt lat="46.29608" lon="-0.34555">
        <ele>58.4092</ele>
        <time>2011-07-03T14:12:34Z</time>
      </trkpt>
      <trkpt lat="46.29609" lon="-0.34555">
        <ele>58.3887</ele>
        <time>2011-07-03T14:12:35Z</time>
      </trkpt>
      <trkpt lat="46.2961" lon="-0.34554">
        <ele>58.3696</ele>
        <time>2011-07-03T14:12:36Z</time>
      </trkpt>
      <trkpt lat="46.29611" lon="-0.34554">
        <ele>58.3512</ele>
        <time>2011-07-03T14:12:37Z</time>
      </trkpt>
      <trkpt lat="46.29612" lon="-0.34553">
        <ele>58.3334</ele>
        <time>2011-07-03T14:12:38Z</time>
      </trkpt>
      <trkpt lat="46.29613" lon="-0.34553">
        <ele>58.3155</ele>
        <time>2011-07-03T14:12:39Z</time>
      </trkpt>
      <trkpt lat="46.29614" lon="-0.34552">
        <ele>58.2973</ele>
        <time>2011-07-03T14:12:40Z</time>
      </trkpt>
      <trkpt lat="46.29615" lon="-0.34552">
        <ele>58.2783</ele>
        <time>2011-07-03T14:12:41Z</time>
      </trkpt>
      <trkpt lat="46.29616" lon="-0.34551">
        <ele>58.2629</ele>
        <time>2011-07-03T14:12:42Z</time>
      </trkpt>
      <trkpt lat="46.29617" lon="-0.34551">
        <ele>58.2472</ele>
        <time>2011-07-03T14:12:43Z</time>
      </trkpt>
      <trkpt lat="46.29619" lon="-0.3455">
        <ele>58.2312</ele>
        <time>2011-07-03T14:12:44Z</time>
      </trkpt>
      <trkpt lat="46.2962" lon="-0.3455">
        <ele>58.2153</ele>
        <time>2011-07-03T14:12:45Z</time>
      </trkpt>
      <trkpt lat="46.29621" lon="-0.34549">
        <ele>58.1997</ele>
        <time>2011-07-03T14:12:46Z</time>
      </trkpt>
      <trkpt lat="46.29622" lon="-0.34549">
        <ele>58.1869</ele>
        <time>2011-07-03T14:12:47Z</time>
      </trkpt>
      <trkpt lat="46.29623" lon="-0.34549">
        <ele>58.1751</ele>
        <time>2011-07-03T14:12:48Z</time>
      </trkpt>
      <trkpt lat="46.29625" lon="-0.34548">
        <ele>58.1639</ele>
        <time>2011-07-03T14:12:49Z</time>
      </trkpt>
      <trkpt lat="46.29626" lon="-0.34548">
        <ele>58.1534</ele>
        <time>2011-07-03T14:12:50Z</time>
      </trkpt>
      <trkpt lat="46.29628" lon="-0.34548">
        <ele>58.1427</ele>
        <time>2011-07-03T14:12:51Z</time>
      </trkpt>
      <trkpt lat="46.29629" lon="-0.34547">
        <ele>58.1335</ele>
        <time>2011-07-03T14:12:52Z</time>
      </trkpt>
      <trkpt lat="46.2963" lon="-0.34546">
        <ele>58.1248</ele>
        <time>2011-07-03T14:12:53Z</time>
      </trkpt>
      <trkpt lat="46.29631" lon="-0.34546">
        <ele>58.1143</ele>
        <time>2011-07-03T14:12:54Z</time>
      </trkpt>
      <trkpt lat="46.29633" lon="-0.34545">
        <ele>58.103</ele>
        <time>2011-07-03T14:12:55Z</time>
      </trkpt>
      <trkpt lat="46.29634" lon="-0.34544">
        <ele>58.0916</ele>
        <time>2011-07-03T14:12:56Z</time>
      </trkpt>
      <trkpt lat="46.29635" lon="-0.34543">
        <ele>58.0813</ele>
        <time>2011-07-03T14:12:57Z</time>
      </trkpt>
      <trkpt lat="46.29637" lon="-0.34542">
        <ele>58.0716</ele>
        <time>2011-07-03T14:12:58Z</time>
      </trkpt>
      <trkpt lat="46.29638" lon="-0.34541">
        <ele>58.062</ele>
        <time>2011-07-03T14:12:59Z</time>
      </trkpt>
      <trkpt lat="46.29639" lon="-0.3454">
        <ele>58.0525</ele>
        <time>2011-07-03T14:13:00Z</time>
      </trkpt>
      <trkpt lat="46.29641" lon="-0.3454">
        <ele>58.0413</ele>
        <time>2011-07-03T14:13:01Z</time>
      </trkpt>
      <trkpt lat="46.29641" lon="-0.34539">
        <ele>58.0291</ele>
        <time>2011-07-03T14:13:02Z</time>
      </trkpt>
      <trkpt lat="46.29643" lon="-0.34538">
        <ele>58.0168</ele>
        <time>2011-07-03T14:13:03Z</time>
      </trkpt>
      <trkpt lat="46.29644" lon="-0.34538">
        <ele>58.0043</ele>
        <time>2011-07-03T14:13:04Z</time>
      </trkpt>
      <trkpt lat="46.29645" lon="-0.34537">
        <ele>57.9917</ele>
        <time>2011-07-03T14:13:05Z</time>
      </trkpt>
      <trkpt lat="46.29646" lon="-0.34537">
        <ele>57.9827</ele>
        <time>2011-07-03T14:13:06Z</time>
      </trkpt>
      <trkpt lat="46.29647" lon="-0.34537">
        <ele>57.9737</ele>
        <time>2011-07-03T14:13:07Z</time>
      </trkpt>
      <trkpt lat="46.29649" lon="-0.34536">
        <ele>57.9649</ele>
        <time>2011-07-03T14:13:08Z</time>
      </trkpt>
      <trkpt lat="46.2965" lon="-0.34536">
        <ele>57.9568</ele>
        <time>2011-07-03T14:13:09Z</time>
      </trkpt>
      <trkpt lat="46.29651" lon="-0.34535">
        <ele>57.9488</ele>
        <time>2011-07-03T14:13:10Z</time>
      </trkpt>
      <trkpt lat="46.29652" lon="-0.34534">
        <ele>57.9408</ele>
        <time>2011-07-03T14:13:11Z</time>
      </trkpt>
      <trkpt lat="46.29654" lon="-0.34533">
        <ele>57.9324</ele>
        <time>2011-07-03T14:13:12Z</time>
      </trkpt>
      <trkpt lat="46.29655" lon="-0.34533">
        <ele>57.9237</ele>
        <time>2011-07-03T14:13:13Z</time>
      </trkpt>
      <trkpt lat="46.29656" lon="-0.34532">
        <ele>57.9195</ele>
        <time>2011-07-03T14:13:14Z</time>
      </trkpt>
      <trkpt lat="46.29657" lon="-0.34531">
        <ele>57.9154</ele>
        <time>2011-07-03T14:13:15Z</time>
      </trkpt>
      <trkpt lat="46.29659" lon="-0.3453">
        <ele>57.9158</ele>
        <time>2011-07-03T14:13:16Z</time>
      </trkpt>
      <trkpt lat="46.2966" lon="-0.3453">
        <ele>57.9169</ele>
        <time>2011-07-03T14:13:17Z</time>
      </trkpt>
      <trkpt lat="46.29661" lon="-0.34529">
        <ele>57.9169</ele>
        <time>2011-07-03T14:13:18Z</time>
      </trkpt>
      <trkpt lat="46.29662" lon="-0.34528">
        <ele>57.9168</ele>
        <time>2011-07-03T14:13:19Z</time>
      </trkpt>
      <trkpt lat="46.29664" lon="-0.34527">
        <ele>57.9181</ele>
        <time>2011-07-03T14:13:20Z</time>
      </trkpt>
      <trkpt lat="46.29665" lon="-0.34527">
        <ele>57.9192</ele>
        <time>2011-07-03T14:13:21Z</time>
      </trkpt>
      <trkpt lat="46.29666" lon="-0.34526">
        <ele>57.9203</ele>
        <time>2011-07-03T14:13:22Z</time>
      </trkpt>
      <trkpt lat="46.29667" lon="-0.34525">
        <ele>57.9233</ele>
        <time>2011-07-03T14:13:23Z</time>
      </trkpt>
      <trkpt lat="46.29668" lon="-0.34524">
        <ele>57.9269</ele>
        <time>2011-07-03T14:13:24Z</time>
      </trkpt>
      <trkpt lat="46.2967" lon="-0.34523">
        <ele>57.9315</ele>
        <time>2011-07-03T14:13:25Z</time>
      </trkpt>
      <trkpt lat="46.29671" lon="-0.34523">
        <ele>57.9362</ele>
        <time>2011-07-03T14:13:26Z</time>
      </trkpt>
      <trkpt lat="46.29672" lon="-0.34522">
        <ele>57.9466</ele>
        <time>2011-07-03T14:13:27Z</time>
      </trkpt>
      <trkpt lat="46.29673" lon="-0.34521">
        <ele>57.9579</ele>
        <time>2011-07-03T14:13:28Z</time>
      </trkpt>
      <trkpt lat="46.29675" lon="-0.34521">
        <ele>57.9681</ele>
        <time>2011-07-03T14:13:29Z</time>
      </trkpt>
      <trkpt lat="46.29676" lon="-0.34519">
        <ele>57.9808</ele>
        <time>2011-07-03T14:13:30Z</time>
      </trkpt>
      <trkpt lat="46.29677" lon="-0.34519">
        <ele>57.9975</ele>
        <time>2011-07-03T14:13:31Z</time>
      </trkpt>
      <trkpt lat="46.29679" lon="-0.34519">
        <ele>58.0116</ele>
        <time>2011-07-03T14:13:32Z</time>
      </trkpt>
      <trkpt lat="46.2968" lon="-0.34518">
        <ele>58.0226</ele>
        <time>2011-07-03T14:13:33Z</time>
      </trkpt>
      <trkpt lat="46.29683" lon="-0.34516">
        <ele>58.0262</ele>
        <time>2011-07-03T14:13:34Z</time>
      </trkpt>
      <trkpt lat="46.29685" lon="-0.34515">
        <ele>58.0262</ele>
        <time>2011-07-03T14:13:35Z</time>
      </trkpt>
      <trkpt lat="46.29685" lon="-0.34516">
        <ele>58.0095</ele>
        <time>2011-07-03T14:13:36Z</time>
      </trkpt>
      <trkpt lat="46.29686" lon="-0.34515">
        <ele>57.9936</ele>
        <time>2011-07-03T14:13:37Z</time>
      </trkpt>
      <trkpt lat="46.29688" lon="-0.34515">
        <ele>57.9742</ele>
        <time>2011-07-03T14:13:38Z</time>
      </trkpt>
      <trkpt lat="46.29689" lon="-0.34514">
        <ele>57.9571</ele>
        <time>2011-07-03T14:13:39Z</time>
      </trkpt>
      <trkpt lat="46.2969" lon="-0.34513">
        <ele>57.9453</ele>
        <time>2011-07-03T14:13:40Z</time>
      </trkpt>
      <trkpt lat="46.29691" lon="-0.34513">
        <ele>57.9355</ele>
        <time>2011-07-03T14:13:41Z</time>
      </trkpt>
      <trkpt lat="46.29692" lon="-0.34512">
        <ele>57.9263</ele>
        <time>2011-07-03T14:13:42Z</time>
      </trkpt>
      <trkpt lat="46.29693" lon="-0.34511">
        <ele>57.9203</ele>
        <time>2011-07-03T14:13:43Z</time>
      </trkpt>
      <trkpt lat="46.29695" lon="-0.34511">
        <ele>57.9217</ele>
        <time>2011-07-03T14:13:44Z</time>
      </trkpt>
      <trkpt lat="46.29696" lon="-0.3451">
        <ele>57.9247</ele>
        <time>2011-07-03T14:13:45Z</time>
      </trkpt>
      <trkpt lat="46.29697" lon="-0.34509">
        <ele>57.9289</ele>
        <time>2011-07-03T14:13:46Z</time>
      </trkpt>
      <trkpt lat="46.29699" lon="-0.34508">
        <ele>57.9353</ele>
        <time>2011-07-03T14:13:47Z</time>
      </trkpt>
      <trkpt lat="46.297" lon="-0.34508">
        <ele>57.9445</ele>
        <time>2011-07-03T14:13:48Z</time>
      </trkpt>
      <trkpt lat="46.29701" lon="-0.34507">
        <ele>57.9544</ele>
        <time>2011-07-03T14:13:49Z</time>
      </trkpt>
      <trkpt lat="46.29703" lon="-0.34507">
        <ele>57.9673</ele>
        <time>2011-07-03T14:13:50Z</time>
      </trkpt>
      <trkpt lat="46.29704" lon="-0.34506">
        <ele>57.9832</ele>
        <time>2011-07-03T14:13:51Z</time>
      </trkpt>
      <trkpt lat="46.29705" lon="-0.34506">
        <ele>58.0003</ele>
        <time>2011-07-03T14:13:52Z</time>
      </trkpt>
      <trkpt lat="46.29707" lon="-0.34505">
        <ele>58.0178</ele>
        <time>2011-07-03T14:13:53Z</time>
      </trkpt>
      <trkpt lat="46.29708" lon="-0.34504">
        <ele>58.0349</ele>
        <time>2011-07-03T14:13:54Z</time>
      </trkpt>
      <trkpt lat="46.29709" lon="-0.34504">
        <ele>58.0507</ele>
        <time>2011-07-03T14:13:55Z</time>
      </trkpt>
      <trkpt lat="46.2971" lon="-0.34503">
        <ele>58.0646</ele>
        <time>2011-07-03T14:13:56Z</time>
      </trkpt>
      <trkpt lat="46.29712" lon="-0.34502">
        <ele>58.0793</ele>
        <time>2011-07-03T14:13:57Z</time>
      </trkpt>
      <trkpt lat="46.29713" lon="-0.34502">
        <ele>58.0938</ele>
        <time>2011-07-03T14:13:58Z</time>
      </trkpt>
      <trkpt lat="46.29714" lon="-0.34501">
        <ele>58.1119</ele>
        <time>2011-07-03T14:13:59Z</time>
      </trkpt>
      <trkpt lat="46.29716" lon="-0.34501">
        <ele>58.1323</ele>
        <time>2011-07-03T14:14:00Z</time>
      </trkpt>
      <trkpt lat="46.29717" lon="-0.345">
        <ele>58.1573</ele>
        <time>2011-07-03T14:14:01Z</time>
      </trkpt>
      <trkpt lat="46.29718" lon="-0.34499">
        <ele>58.1831</ele>
        <time>2011-07-03T14:14:02Z</time>
      </trkpt>
      <trkpt lat="46.2972" lon="-0.34499">
        <ele>58.2108</ele>
        <time>2011-07-03T14:14:03Z</time>
      </trkpt>
      <trkpt lat="46.29722" lon="-0.34498">
        <ele>58.2411</ele>
        <time>2011-07-03T14:14:04Z</time>
      </trkpt>
      <trkpt lat="46.29723" lon="-0.34498">
        <ele>58.2703</ele>
        <time>2011-07-03T14:14:05Z</time>
      </trkpt>
      <trkpt lat="46.29724" lon="-0.34497">
        <ele>58.2989</ele>
        <time>2011-07-03T14:14:06Z</time>
      </trkpt>
      <trkpt lat="46.29725" lon="-0.34496">
        <ele>58.3313</ele>
        <time>2011-07-03T14:14:07Z</time>
      </trkpt>
      <trkpt lat="46.29726" lon="-0.34496">
        <ele>58.367</ele>
        <time>2011-07-03T14:14:08Z</time>
      </trkpt>
      <trkpt lat="46.29728" lon="-0.34495">
        <ele>58.4079</ele>
        <time>2011-07-03T14:14:09Z</time>
      </trkpt>
      <trkpt lat="46.29729" lon="-0.34495">
        <ele>58.4492</ele>
        <time>2011-07-03T14:14:10Z</time>
      </trkpt>
      <trkpt lat="46.2973" lon="-0.34494">
        <ele>58.4827</ele>
        <time>2011-07-03T14:14:11Z</time>
      </trkpt>
      <trkpt lat="46.29732" lon="-0.34494">
        <ele>58.5172</ele>
        <time>2011-07-03T14:14:12Z</time>
      </trkpt>
      <trkpt lat="46.29734" lon="-0.34493">
        <ele>58.5172</ele>
        <time>2011-07-03T14:14:13Z</time>
      </trkpt>
      <trkpt lat="46.29734" lon="-0.34493">
        <ele>58.5349</ele>
        <time>2011-07-03T14:14:14Z</time>
      </trkpt>
      <trkpt lat="46.29736" lon="-0.34492">
        <ele>58.5536</ele>
        <time>2011-07-03T14:14:15Z</time>
      </trkpt>
      <trkpt lat="46.29737" lon="-0.34492">
        <ele>58.581</ele>
        <time>2011-07-03T14:14:16Z</time>
      </trkpt>
      <trkpt lat="46.29738" lon="-0.34492">
        <ele>58.6118</ele>
        <time>2011-07-03T14:14:17Z</time>
      </trkpt>
      <trkpt lat="46.29739" lon="-0.34491">
        <ele>58.6507</ele>
        <time>2011-07-03T14:14:18Z</time>
      </trkpt>
      <trkpt lat="46.29741" lon="-0.34491">
        <ele>58.6908</ele>
        <time>2011-07-03T14:14:19Z</time>
      </trkpt>
      <trkpt lat="46.29742" lon="-0.3449">
        <ele>58.736</ele>
        <time>2011-07-03T14:14:20Z</time>
      </trkpt>
      <trkpt lat="46.29744" lon="-0.3449">
        <ele>58.7784</ele>
        <time>2011-07-03T14:14:21Z</time>
      </trkpt>
      <trkpt lat="46.29745" lon="-0.3449">
        <ele>58.8216</ele>
        <time>2011-07-03T14:14:22Z</time>
      </trkpt>
      <trkpt lat="46.29746" lon="-0.34489">
        <ele>58.8653</ele>
        <time>2011-07-03T14:14:23Z</time>
      </trkpt>
      <trkpt lat="46.29747" lon="-0.34489">
        <ele>58.9064</ele>
        <time>2011-07-03T14:14:24Z</time>
      </trkpt>
      <trkpt lat="46.29749" lon="-0.34489">
        <ele>58.9444</ele>
        <time>2011-07-03T14:14:25Z</time>
      </trkpt>
      <trkpt lat="46.2975" lon="-0.34488">
        <ele>58.9823</ele>
        <time>2011-07-03T14:14:26Z</time>
      </trkpt>
      <trkpt lat="46.29752" lon="-0.34488">
        <ele>59.019</ele>
        <time>2011-07-03T14:14:27Z</time>
      </trkpt>
      <trkpt lat="46.29753" lon="-0.34488">
        <ele>59.0547</ele>
        <time>2011-07-03T14:14:28Z</time>
      </trkpt>
      <trkpt lat="46.29755" lon="-0.34488">
        <ele>59.089</ele>
        <time>2011-07-03T14:14:29Z</time>
      </trkpt>
      <trkpt lat="46.29756" lon="-0.34487">
        <ele>59.1213</ele>
        <time>2011-07-03T14:14:30Z</time>
      </trkpt>
      <trkpt lat="46.29757" lon="-0.34487">
        <ele>59.1531</ele>
        <time>2011-07-03T14:14:31Z</time>
      </trkpt>
      <trkpt lat="46.29759" lon="-0.34487">
        <ele>59.1842</ele>
        <time>2011-07-03T14:14:32Z</time>
      </trkpt>
      <trkpt lat="46.2976" lon="-0.34487">
        <ele>59.2152</ele>
        <time>2011-07-03T14:14:33Z</time>
      </trkpt>
      <trkpt lat="46.29761" lon="-0.34486">
        <ele>59.2486</ele>
        <time>2011-07-03T14:14:34Z</time>
      </trkpt>
      <trkpt lat="46.29763" lon="-0.34485">
        <ele>59.2822</ele>
        <time>2011-07-03T14:14:35Z</time>
      </trkpt>
      <trkpt lat="46.29764" lon="-0.34485">
        <ele>59.3165</ele>
        <time>2011-07-03T14:14:36Z</time>
      </trkpt>
      <trkpt lat="46.29766" lon="-0.34484">
        <ele>59.35</ele>
        <time>2011-07-03T14:14:37Z</time>
      </trkpt>
      <trkpt lat="46.29767" lon="-0.34484">
        <ele>59.3825</ele>
        <time>2011-07-03T14:14:38Z</time>
      </trkpt>
      <trkpt lat="46.29769" lon="-0.34484">
        <ele>59.4145</ele>
        <time>2011-07-03T14:14:39Z</time>
      </trkpt>
      <trkpt lat="46.2977" lon="-0.34483">
        <ele>59.4454</ele>
        <time>2011-07-03T14:14:40Z</time>
      </trkpt>
      <trkpt lat="46.29771" lon="-0.34483">
        <ele>59.4768</ele>
        <time>2011-07-03T14:14:41Z</time>
      </trkpt>
      <trkpt lat="46.29773" lon="-0.34483">
        <ele>59.508</ele>
        <time>2011-07-03T14:14:42Z</time>
      </trkpt>
      <trkpt lat="46.29775" lon="-0.34482">
        <ele>59.5395</ele>
        <time>2011-07-03T14:14:43Z</time>
      </trkpt>
      <trkpt lat="46.29776" lon="-0.34482">
        <ele>59.5714</ele>
        <time>2011-07-03T14:14:44Z</time>
      </trkpt>
      <trkpt lat="46.29777" lon="-0.34481">
        <ele>59.6027</ele>
        <time>2011-07-03T14:14:45Z</time>
      </trkpt>
      <trkpt lat="46.29779" lon="-0.34481">
        <ele>59.6374</ele>
        <time>2011-07-03T14:14:46Z</time>
      </trkpt>
      <trkpt lat="46.2978" lon="-0.34481">
        <ele>59.6751</ele>
        <time>2011-07-03T14:14:47Z</time>
      </trkpt>
      <trkpt lat="46.29781" lon="-0.3448">
        <ele>59.7171</ele>
        <time>2011-07-03T14:14:48Z</time>
      </trkpt>
      <trkpt lat="46.29783" lon="-0.34479">
        <ele>59.7649</ele>
        <time>2011-07-03T14:14:49Z</time>
      </trkpt>
      <trkpt lat="46.29784" lon="-0.34479">
        <ele>59.817</ele>
        <time>2011-07-03T14:14:50Z</time>
      </trkpt>
      <trkpt lat="46.29785" lon="-0.34478">
        <ele>59.874</ele>
        <time>2011-07-03T14:14:51Z</time>
      </trkpt>
      <trkpt lat="46.29786" lon="-0.34477">
        <ele>59.9352</ele>
        <time>2011-07-03T14:14:52Z</time>
      </trkpt>
      <trkpt lat="46.29787" lon="-0.34475">
        <ele>59.9985</ele>
        <time>2011-07-03T14:14:53Z</time>
      </trkpt>
      <trkpt lat="46.29788" lon="-0.34474">
        <ele>60.0617</ele>
        <time>2011-07-03T14:14:54Z</time>
      </trkpt>
      <trkpt lat="46.29789" lon="-0.34468">
        <ele>60.2609</ele>
        <time>2011-07-03T14:14:57Z</time>
      </trkpt>
      <trkpt lat="46.29789" lon="-0.34466">
        <ele>60.3276</ele>
        <time>2011-07-03T14:14:58Z</time>
      </trkpt>
      <trkpt lat="46.29789" lon="-0.34464">
        <ele>60.3944</ele>
        <time>2011-07-03T14:14:59Z</time>
      </trkpt>
      <trkpt lat="46.2979" lon="-0.34462">
        <ele>60.4609</ele>
        <time>2011-07-03T14:15:00Z</time>
      </trkpt>
      <trkpt lat="46.2979" lon="-0.3446">
        <ele>60.5276</ele>
        <time>2011-07-03T14:15:01Z</time>
      </trkpt>
      <trkpt lat="46.2979" lon="-0.34458">
        <ele>60.5928</ele>
        <time>2011-07-03T14:15:02Z</time>
      </trkpt>
      <trkpt lat="46.2979" lon="-0.34456">
        <ele>60.6576</ele>
        <time>2011-07-03T14:15:03Z</time>
      </trkpt>
      <trkpt lat="46.2979" lon="-0.34454">
        <ele>60.7217</ele>
        <time>2011-07-03T14:15:04Z</time>
      </trkpt>
      <trkpt lat="46.29789" lon="-0.34452">
        <ele>60.7847</ele>
        <time>2011-07-03T14:15:05Z</time>
      </trkpt>
      <trkpt lat="46.29789" lon="-0.3445">
        <ele>60.8469</ele>
        <time>2011-07-03T14:15:06Z</time>
      </trkpt>
      <trkpt lat="46.29789" lon="-0.34448">
        <ele>60.9091</ele>
        <time>2011-07-03T14:15:07Z</time>
      </trkpt>
      <trkpt lat="46.29788" lon="-0.34447">
        <ele>60.9709</ele>
        <time>2011-07-03T14:15:08Z</time>
      </trkpt>
      <trkpt lat="46.29788" lon="-0.34445">
        <ele>61.0315</ele>
        <time>2011-07-03T14:15:09Z</time>
      </trkpt>
      <trkpt lat="46.29787" lon="-0.34443">
        <ele>61.09</ele>
        <time>2011-07-03T14:15:10Z</time>
      </trkpt>
      <trkpt lat="46.29787" lon="-0.34441">
        <ele>61.1471</ele>
        <time>2011-07-03T14:15:11Z</time>
      </trkpt>
      <trkpt lat="46.29787" lon="-0.34439">
        <ele>61.203</ele>
        <time>2011-07-03T14:15:12Z</time>
      </trkpt>
      <trkpt lat="46.29787" lon="-0.34437">
        <ele>61.2578</ele>
        <time>2011-07-03T14:15:13Z</time>
      </trkpt>
      <trkpt lat="46.29787" lon="-0.34436">
        <ele>61.3117</ele>
        <time>2011-07-03T14:15:14Z</time>
      </trkpt>
      <trkpt lat="46.29787" lon="-0.34434">
        <ele>61.3645</ele>
        <time>2011-07-03T14:15:15Z</time>
      </trkpt>
      <trkpt lat="46.29787" lon="-0.34432">
        <ele>61.4152</ele>
        <time>2011-07-03T14:15:17Z</time>
      </trkpt>
      <trkpt lat="46.29787" lon="-0.3443">
        <ele>61.4656</ele>
        <time>2011-07-03T14:15:17Z</time>
      </trkpt>
      <trkpt lat="46.29787" lon="-0.34428">
        <ele>61.5158</ele>
        <time>2011-07-03T14:15:18Z</time>
      </trkpt>
      <trkpt lat="46.29787" lon="-0.34424">
        <ele>61.6152</ele>
        <time>2011-07-03T14:15:20Z</time>
      </trkpt>
      <trkpt lat="46.29787" lon="-0.34422">
        <ele>61.6648</ele>
        <time>2011-07-03T14:15:21Z</time>
      </trkpt>
      <trkpt lat="46.29787" lon="-0.3442">
        <ele>61.7151</ele>
        <time>2011-07-03T14:15:22Z</time>
      </trkpt>
      <trkpt lat="46.29787" lon="-0.34418">
        <ele>61.7646</ele>
        <time>2011-07-03T14:15:23Z</time>
      </trkpt>
      <trkpt lat="46.29787" lon="-0.34416">
        <ele>61.8144</ele>
        <time>2011-07-03T14:15:24Z</time>
      </trkpt>
      <trkpt lat="46.29787" lon="-0.34414">
        <ele>61.8628</ele>
        <time>2011-07-03T14:15:25Z</time>
      </trkpt>
      <trkpt lat="46.29786" lon="-0.34412">
        <ele>61.9104</ele>
        <time>2011-07-03T14:15:26Z</time>
      </trkpt>
      <trkpt lat="46.29786" lon="-0.34409">
        <ele>61.956</ele>
        <time>2011-07-03T14:15:27Z</time>
      </trkpt>
      <trkpt lat="46.29786" lon="-0.34407">
        <ele>62.0025</ele>
        <time>2011-07-03T14:15:28Z</time>
      </trkpt>
      <trkpt lat="46.29786" lon="-0.34405">
        <ele>62.0474</ele>
        <time>2011-07-03T14:15:29Z</time>
      </trkpt>
      <trkpt lat="46.29786" lon="-0.34403">
        <ele>62.0905</ele>
        <time>2011-07-03T14:15:30Z</time>
      </trkpt>
      <trkpt lat="46.29786" lon="-0.34401">
        <ele>62.1314</ele>
        <time>2011-07-03T14:15:31Z</time>
      </trkpt>
      <trkpt lat="46.29785" lon="-0.34399">
        <ele>62.1706</ele>
        <time>2011-07-03T14:15:32Z</time>
      </trkpt>
      <trkpt lat="46.29785" lon="-0.34397">
        <ele>62.2096</ele>
        <time>2011-07-03T14:15:33Z</time>
      </trkpt>
      <trkpt lat="46.29784" lon="-0.34395">
        <ele>62.2486</ele>
        <time>2011-07-03T14:15:34Z</time>
      </trkpt>
      <trkpt lat="46.29784" lon="-0.34393">
        <ele>62.2868</ele>
        <time>2011-07-03T14:15:35Z</time>
      </trkpt>
      <trkpt lat="46.29784" lon="-0.34391">
        <ele>62.3248</ele>
        <time>2011-07-03T14:15:36Z</time>
      </trkpt>
      <trkpt lat="46.29784" lon="-0.34389">
        <ele>62.3625</ele>
        <time>2011-07-03T14:15:37Z</time>
      </trkpt>
      <trkpt lat="46.29783" lon="-0.34387">
        <ele>62.3978</ele>
        <time>2011-07-03T14:15:38Z</time>
      </trkpt>
      <trkpt lat="46.29783" lon="-0.34386">
        <ele>62.4311</ele>
        <time>2011-07-03T14:15:39Z</time>
      </trkpt>
      <trkpt lat="46.29783" lon="-0.34384">
        <ele>62.4625</ele>
        <time>2011-07-03T14:15:40Z</time>
      </trkpt>
      <trkpt lat="46.29782" lon="-0.34382">
        <ele>62.4914</ele>
        <time>2011-07-03T14:15:41Z</time>
      </trkpt>
      <trkpt lat="46.29781" lon="-0.3438">
        <ele>62.519</ele>
        <time>2011-07-03T14:15:42Z</time>
      </trkpt>
      <trkpt lat="46.29781" lon="-0.34378">
        <ele>62.5444</ele>
        <time>2011-07-03T14:15:43Z</time>
      </trkpt>
      <trkpt lat="46.29781" lon="-0.34376">
        <ele>62.5688</ele>
        <time>2011-07-03T14:15:44Z</time>
      </trkpt>
      <trkpt lat="46.29781" lon="-0.34374">
        <ele>62.5912</ele>
        <time>2011-07-03T14:15:45Z</time>
      </trkpt>
      <trkpt lat="46.29781" lon="-0.34372">
        <ele>62.6122</ele>
        <time>2011-07-03T14:15:46Z</time>
      </trkpt>
      <trkpt lat="46.2978" lon="-0.3437">
        <ele>62.6311</ele>
        <time>2011-07-03T14:15:47Z</time>
      </trkpt>
      <trkpt lat="46.2978" lon="-0.34368">
        <ele>62.6472</ele>
        <time>2011-07-03T14:15:48Z</time>
      </trkpt>
      <trkpt lat="46.2978" lon="-0.34366">
        <ele>62.6613</ele>
        <time>2011-07-03T14:15:49Z</time>
      </trkpt>
      <trkpt lat="46.2978" lon="-0.34363">
        <ele>62.6733</ele>
        <time>2011-07-03T14:15:50Z</time>
      </trkpt>
      <trkpt lat="46.29779" lon="-0.34361">
        <ele>62.6839</ele>
        <time>2011-07-03T14:15:51Z</time>
      </trkpt>
      <trkpt lat="46.29779" lon="-0.34359">
        <ele>62.6919</ele>
        <time>2011-07-03T14:15:52Z</time>
      </trkpt>
      <trkpt lat="46.29779" lon="-0.34358">
        <ele>62.6993</ele>
        <time>2011-07-03T14:15:53Z</time>
      </trkpt>
      <trkpt lat="46.29779" lon="-0.34356">
        <ele>62.7054</ele>
        <time>2011-07-03T14:15:54Z</time>
      </trkpt>
      <trkpt lat="46.29779" lon="-0.34353">
        <ele>62.7098</ele>
        <time>2011-07-03T14:15:55Z</time>
      </trkpt>
      <trkpt lat="46.29779" lon="-0.34352">
        <ele>62.7142</ele>
        <time>2011-07-03T14:15:56Z</time>
      </trkpt>
      <trkpt lat="46.29779" lon="-0.3435">
        <ele>62.7163</ele>
        <time>2011-07-03T14:15:57Z</time>
      </trkpt>
      <trkpt lat="46.29778" lon="-0.34348">
        <ele>62.7171</ele>
        <time>2011-07-03T14:15:58Z</time>
      </trkpt>
      <trkpt lat="46.29778" lon="-0.34346">
        <ele>62.7176</ele>
        <time>2011-07-03T14:15:59Z</time>
      </trkpt>
      <trkpt lat="46.29778" lon="-0.34344">
        <ele>62.7173</ele>
        <time>2011-07-03T14:16:00Z</time>
      </trkpt>
      <trkpt lat="46.29778" lon="-0.34342">
        <ele>62.7161</ele>
        <time>2011-07-03T14:16:01Z</time>
      </trkpt>
      <trkpt lat="46.29778" lon="-0.3434">
        <ele>62.7145</ele>
        <time>2011-07-03T14:16:02Z</time>
      </trkpt>
      <trkpt lat="46.29777" lon="-0.34338">
        <ele>62.713</ele>
        <time>2011-07-03T14:16:03Z</time>
      </trkpt>
      <trkpt lat="46.29777" lon="-0.34336">
        <ele>62.7105</ele>
        <time>2011-07-03T14:16:04Z</time>
      </trkpt>
      <trkpt lat="46.29777" lon="-0.34334">
        <ele>62.7083</ele>
        <time>2011-07-03T14:16:05Z</time>
      </trkpt>
      <trkpt lat="46.29777" lon="-0.34332">
        <ele>62.7063</ele>
        <time>2011-07-03T14:16:06Z</time>
      </trkpt>
      <trkpt lat="46.29776" lon="-0.3433">
        <ele>62.7035</ele>
        <time>2011-07-03T14:16:07Z</time>
      </trkpt>
      <trkpt lat="46.29776" lon="-0.34327">
        <ele>62.7003</ele>
        <time>2011-07-03T14:16:08Z</time>
      </trkpt>
      <trkpt lat="46.29776" lon="-0.34325">
        <ele>62.6979</ele>
        <time>2011-07-03T14:16:09Z</time>
      </trkpt>
      <trkpt lat="46.29776" lon="-0.34323">
        <ele>62.6961</ele>
        <time>2011-07-03T14:16:10Z</time>
      </trkpt>
      <trkpt lat="46.29776" lon="-0.34321">
        <ele>62.695</ele>
        <time>2011-07-03T14:16:11Z</time>
      </trkpt>
      <trkpt lat="46.29776" lon="-0.3432">
        <ele>62.695</ele>
        <time>2011-07-03T14:16:12Z</time>
      </trkpt>
      <trkpt lat="46.29776" lon="-0.34317">
        <ele>62.6957</ele>
        <time>2011-07-03T14:16:13Z</time>
      </trkpt>
      <trkpt lat="46.29775" lon="-0.34315">
        <ele>62.6973</ele>
        <time>2011-07-03T14:16:14Z</time>
      </trkpt>
      <trkpt lat="46.29775" lon="-0.34313">
        <ele>62.6992</ele>
        <time>2011-07-03T14:16:15Z</time>
      </trkpt>
      <trkpt lat="46.29775" lon="-0.34311">
        <ele>62.7022</ele>
        <time>2011-07-03T14:16:16Z</time>
      </trkpt>
      <trkpt lat="46.29775" lon="-0.34309">
        <ele>62.706</ele>
        <time>2011-07-03T14:16:17Z</time>
      </trkpt>
      <trkpt lat="46.29775" lon="-0.34307">
        <ele>62.7105</ele>
        <time>2011-07-03T14:16:18Z</time>
      </trkpt>
      <trkpt lat="46.29774" lon="-0.34305">
        <ele>62.7151</ele>
        <time>2011-07-03T14:16:19Z</time>
      </trkpt>
      <trkpt lat="46.29774" lon="-0.34304">
        <ele>62.7214</ele>
        <time>2011-07-03T14:16:20Z</time>
      </trkpt>
      <trkpt lat="46.29774" lon="-0.34302">
        <ele>62.7307</ele>
        <time>2011-07-03T14:16:21Z</time>
      </trkpt>
      <trkpt lat="46.29774" lon="-0.343">
        <ele>62.7421</ele>
        <time>2011-07-03T14:16:22Z</time>
      </trkpt>
      <trkpt lat="46.29774" lon="-0.34299">
        <ele>62.7559</ele>
        <time>2011-07-03T14:16:23Z</time>
      </trkpt>
      <trkpt lat="46.29773" lon="-0.34297">
        <ele>62.7717</ele>
        <time>2011-07-03T14:16:24Z</time>
      </trkpt>
      <trkpt lat="46.29773" lon="-0.34295">
        <ele>62.7938</ele>
        <time>2011-07-03T14:16:25Z</time>
      </trkpt>
      <trkpt lat="46.29773" lon="-0.34293">
        <ele>62.8177</ele>
        <time>2011-07-03T14:16:26Z</time>
      </trkpt>
      <trkpt lat="46.29773" lon="-0.34291">
        <ele>62.8432</ele>
        <time>2011-07-03T14:16:27Z</time>
      </trkpt>
      <trkpt lat="46.29773" lon="-0.3429">
        <ele>62.8707</ele>
        <time>2011-07-03T14:16:28Z</time>
      </trkpt>
      <trkpt lat="46.29773" lon="-0.3429">
        <ele>62.8981</ele>
        <time>2011-07-03T14:16:29Z</time>
      </trkpt>
      <trkpt lat="46.29773" lon="-0.34289">
        <ele>62.9285</ele>
        <time>2011-07-03T14:16:30Z</time>
      </trkpt>
      <trkpt lat="46.29773" lon="-0.34288">
        <ele>62.9621</ele>
        <time>2011-07-03T14:16:31Z</time>
      </trkpt>
      <trkpt lat="46.29773" lon="-0.34286">
        <ele>62.9871</ele>
        <time>2011-07-03T14:16:32Z</time>
      </trkpt>
      <trkpt lat="46.29773" lon="-0.34284">
        <ele>63.0204</ele>
        <time>2011-07-03T14:16:33Z</time>
      </trkpt>
      <trkpt lat="46.29773" lon="-0.34283">
        <ele>63.0533</ele>
        <time>2011-07-03T14:16:34Z</time>
      </trkpt>
      <trkpt lat="46.29774" lon="-0.34281">
        <ele>63.0874</ele>
        <time>2011-07-03T14:16:35Z</time>
      </trkpt>
      <trkpt lat="46.29775" lon="-0.34279">
        <ele>63.121</ele>
        <time>2011-07-03T14:16:36Z</time>
      </trkpt>
      <trkpt lat="46.29775" lon="-0.34275">
        <ele>63.1535</ele>
        <time>2011-07-03T14:16:37Z</time>
      </trkpt>
      <trkpt lat="46.29775" lon="-0.34272">
        <ele>63.1965</ele>
        <time>2011-07-03T14:16:38Z</time>
      </trkpt>
      <trkpt lat="46.29775" lon="-0.34269">
        <ele>63.2355</ele>
        <time>2011-07-03T14:16:39Z</time>
      </trkpt>
      <trkpt lat="46.29775" lon="-0.34266">
        <ele>63.2839</ele>
        <time>2011-07-03T14:16:40Z</time>
      </trkpt>
      <trkpt lat="46.29774" lon="-0.34264">
        <ele>63.3332</ele>
        <time>2011-07-03T14:16:41Z</time>
      </trkpt>
      <trkpt lat="46.29773" lon="-0.34261">
        <ele>63.3867</ele>
        <time>2011-07-03T14:16:42Z</time>
      </trkpt>
      <trkpt lat="46.29773" lon="-0.34258">
        <ele>63.4384</ele>
        <time>2011-07-03T14:16:43Z</time>
      </trkpt>
      <trkpt lat="46.29773" lon="-0.34255">
        <ele>63.4823</ele>
        <time>2011-07-03T14:16:44Z</time>
      </trkpt>
      <trkpt lat="46.29773" lon="-0.34253">
        <ele>63.5373</ele>
        <time>2011-07-03T14:16:45Z</time>
      </trkpt>
      <trkpt lat="46.29773" lon="-0.3425">
        <ele>63.5989</ele>
        <time>2011-07-03T14:16:46Z</time>
      </trkpt>
      <trkpt lat="46.29773" lon="-0.34248">
        <ele>63.6512</ele>
        <time>2011-07-03T14:16:47Z</time>
      </trkpt>
      <trkpt lat="46.29773" lon="-0.34247">
        <ele>63.7072</ele>
        <time>2011-07-03T14:16:48Z</time>
      </trkpt>
      <trkpt lat="46.29773" lon="-0.34245">
        <ele>63.7675</ele>
        <time>2011-07-03T14:16:49Z</time>
      </trkpt>
      <trkpt lat="46.29773" lon="-0.34244">
        <ele>63.826</ele>
        <time>2011-07-03T14:16:50Z</time>
      </trkpt>
      <trkpt lat="46.29772" lon="-0.34243">
        <ele>63.888</ele>
        <time>2011-07-03T14:16:51Z</time>
      </trkpt>
      <trkpt lat="46.29772" lon="-0.34242">
        <ele>63.944</ele>
        <time>2011-07-03T14:16:52Z</time>
      </trkpt>
      <trkpt lat="46.29772" lon="-0.34242">
        <ele>64.0058</ele>
        <time>2011-07-03T14:16:53Z</time>
      </trkpt>
      <trkpt lat="46.29772" lon="-0.34242">
        <ele>64.075</ele>
        <time>2011-07-03T14:16:54Z</time>
      </trkpt>
      <trkpt lat="46.29772" lon="-0.34242">
        <ele>64.1385</ele>
        <time>2011-07-03T14:16:55Z</time>
      </trkpt>
      <trkpt lat="46.29772" lon="-0.34241">
        <ele>64.2047</ele>
        <time>2011-07-03T14:16:56Z</time>
      </trkpt>
      <trkpt lat="46.29772" lon="-0.34239">
        <ele>64.2651</ele>
        <time>2011-07-03T14:16:57Z</time>
      </trkpt>
      <trkpt lat="46.29771" lon="-0.34237">
        <ele>64.3276</ele>
        <time>2011-07-03T14:16:58Z</time>
      </trkpt>
      <trkpt lat="46.29771" lon="-0.34235">
        <ele>64.3846</ele>
        <time>2011-07-03T14:16:59Z</time>
      </trkpt>
      <trkpt lat="46.29771" lon="-0.34233">
        <ele>64.4431</ele>
        <time>2011-07-03T14:17:00Z</time>
      </trkpt>
      <trkpt lat="46.29771" lon="-0.34232">
        <ele>64.4431</ele>
        <time>2011-07-03T14:17:01Z</time>
      </trkpt>
      <trkpt lat="46.29771" lon="-0.3423">
        <ele>64.4988</ele>
        <time>2011-07-03T14:17:02Z</time>
      </trkpt>
      <trkpt lat="46.29771" lon="-0.34229">
        <ele>64.5469</ele>
        <time>2011-07-03T14:17:03Z</time>
      </trkpt>
      <trkpt lat="46.29771" lon="-0.34227">
        <ele>64.5946</ele>
        <time>2011-07-03T14:17:04Z</time>
      </trkpt>
      <trkpt lat="46.29771" lon="-0.34225">
        <ele>64.6391</ele>
        <time>2011-07-03T14:17:05Z</time>
      </trkpt>
      <trkpt lat="46.29771" lon="-0.34223">
        <ele>64.6819</ele>
        <time>2011-07-03T14:17:06Z</time>
      </trkpt>
      <trkpt lat="46.29771" lon="-0.3422">
        <ele>64.7307</ele>
        <time>2011-07-03T14:17:07Z</time>
      </trkpt>
      <trkpt lat="46.29771" lon="-0.34218">
        <ele>64.7822</ele>
        <time>2011-07-03T14:17:08Z</time>
      </trkpt>
      <trkpt lat="46.29771" lon="-0.34215">
        <ele>64.8439</ele>
        <time>2011-07-03T14:17:09Z</time>
      </trkpt>
      <trkpt lat="46.29771" lon="-0.34213">
        <ele>64.9142</ele>
        <time>2011-07-03T14:17:10Z</time>
      </trkpt>
      <trkpt lat="46.29771" lon="-0.3421">
        <ele>64.9787</ele>
        <time>2011-07-03T14:17:11Z</time>
      </trkpt>
      <trkpt lat="46.29771" lon="-0.34208">
        <ele>65.0419</ele>
        <time>2011-07-03T14:17:12Z</time>
      </trkpt>
      <trkpt lat="46.29771" lon="-0.34206">
        <ele>65.1013</ele>
        <time>2011-07-03T14:17:13Z</time>
      </trkpt>
      <trkpt lat="46.2977" lon="-0.34204">
        <ele>65.1603</ele>
        <time>2011-07-03T14:17:14Z</time>
      </trkpt>
      <trkpt lat="46.2977" lon="-0.34202">
        <ele>65.216</ele>
        <time>2011-07-03T14:17:15Z</time>
      </trkpt>
      <trkpt lat="46.2977" lon="-0.342">
        <ele>65.2716</ele>
        <time>2011-07-03T14:17:16Z</time>
      </trkpt>
      <trkpt lat="46.2977" lon="-0.34199">
        <ele>65.3256</ele>
        <time>2011-07-03T14:17:17Z</time>
      </trkpt>
      <trkpt lat="46.2977" lon="-0.34197">
        <ele>65.3784</ele>
        <time>2011-07-03T14:17:18Z</time>
      </trkpt>
      <trkpt lat="46.2977" lon="-0.34195">
        <ele>65.4313</ele>
        <time>2011-07-03T14:17:19Z</time>
      </trkpt>
      <trkpt lat="46.29769" lon="-0.34193">
        <ele>65.4814</ele>
        <time>2011-07-03T14:17:20Z</time>
      </trkpt>
      <trkpt lat="46.29769" lon="-0.34191">
        <ele>65.5282</ele>
        <time>2011-07-03T14:17:21Z</time>
      </trkpt>
      <trkpt lat="46.29769" lon="-0.34189">
        <ele>65.5747</ele>
        <time>2011-07-03T14:17:22Z</time>
      </trkpt>
      <trkpt lat="46.29769" lon="-0.34187">
        <ele>65.617</ele>
        <time>2011-07-03T14:17:23Z</time>
      </trkpt>
      <trkpt lat="46.29769" lon="-0.34185">
        <ele>65.6556</ele>
        <time>2011-07-03T14:17:24Z</time>
      </trkpt>
      <trkpt lat="46.29769" lon="-0.34183">
        <ele>65.6934</ele>
        <time>2011-07-03T14:17:25Z</time>
      </trkpt>
      <trkpt lat="46.29769" lon="-0.34181">
        <ele>65.7308</ele>
        <time>2011-07-03T14:17:26Z</time>
      </trkpt>
      <trkpt lat="46.29768" lon="-0.34179">
        <ele>65.7677</ele>
        <time>2011-07-03T14:17:27Z</time>
      </trkpt>
      <trkpt lat="46.29768" lon="-0.34177">
        <ele>65.8056</ele>
        <time>2011-07-03T14:17:28Z</time>
      </trkpt>
      <trkpt lat="46.29768" lon="-0.34175">
        <ele>65.845</ele>
        <time>2011-07-03T14:17:29Z</time>
      </trkpt>
      <trkpt lat="46.29768" lon="-0.34173">
        <ele>65.8824</ele>
        <time>2011-07-03T14:17:30Z</time>
      </trkpt>
      <trkpt lat="46.29768" lon="-0.34172">
        <ele>65.9193</ele>
        <time>2011-07-03T14:17:31Z</time>
      </trkpt>
      <trkpt lat="46.29768" lon="-0.3417">
        <ele>65.9562</ele>
        <time>2011-07-03T14:17:32Z</time>
      </trkpt>
      <trkpt lat="46.29768" lon="-0.34169">
        <ele>65.9929</ele>
        <time>2011-07-03T14:17:33Z</time>
      </trkpt>
      <trkpt lat="46.29768" lon="-0.34168">
        <ele>66.0287</ele>
        <time>2011-07-03T14:17:34Z</time>
      </trkpt>
      <trkpt lat="46.29768" lon="-0.34166">
        <ele>66.0637</ele>
        <time>2011-07-03T14:17:35Z</time>
      </trkpt>
      <trkpt lat="46.29768" lon="-0.34165">
        <ele>66.0989</ele>
        <time>2011-07-03T14:17:36Z</time>
      </trkpt>
      <trkpt lat="46.29768" lon="-0.34163">
        <ele>66.1343</ele>
        <time>2011-07-03T14:17:37Z</time>
      </trkpt>
      <trkpt lat="46.29768" lon="-0.34161">
        <ele>66.166</ele>
        <time>2011-07-03T14:17:38Z</time>
      </trkpt>
      <trkpt lat="46.29768" lon="-0.34159">
        <ele>66.2039</ele>
        <time>2011-07-03T14:17:39Z</time>
      </trkpt>
      <trkpt lat="46.29767" lon="-0.34156">
        <ele>66.2466</ele>
        <time>2011-07-03T14:17:40Z</time>
      </trkpt>
      <trkpt lat="46.29767" lon="-0.34154">
        <ele>66.288</ele>
        <time>2011-07-03T14:17:41Z</time>
      </trkpt>
      <trkpt lat="46.29767" lon="-0.34152">
        <ele>66.3266</ele>
        <time>2011-07-03T14:17:42Z</time>
      </trkpt>
      <trkpt lat="46.29767" lon="-0.3415">
        <ele>66.3719</ele>
        <time>2011-07-03T14:17:43Z</time>
      </trkpt>
      <trkpt lat="46.29767" lon="-0.34147">
        <ele>66.4115</ele>
        <time>2011-07-03T14:17:44Z</time>
      </trkpt>
      <trkpt lat="46.29766" lon="-0.34144">
        <ele>66.4373</ele>
        <time>2011-07-03T14:17:45Z</time>
      </trkpt>
      <trkpt lat="46.29766" lon="-0.34142">
        <ele>66.4527</ele>
        <time>2011-07-03T14:17:46Z</time>
      </trkpt>
      <trkpt lat="46.29766" lon="-0.3414">
        <ele>66.4619</ele>
        <time>2011-07-03T14:17:47Z</time>
      </trkpt>
      <trkpt lat="46.29766" lon="-0.34137">
        <ele>66.4657</ele>
        <time>2011-07-03T14:17:48Z</time>
      </trkpt>
      <trkpt lat="46.29766" lon="-0.34135">
        <ele>66.4659</ele>
        <time>2011-07-03T14:17:49Z</time>
      </trkpt>
      <trkpt lat="46.29767" lon="-0.34133">
        <ele>66.4603</ele>
        <time>2011-07-03T14:17:50Z</time>
      </trkpt>
      <trkpt lat="46.29767" lon="-0.34131">
        <ele>66.4539</ele>
        <time>2011-07-03T14:17:51Z</time>
      </trkpt>
      <trkpt lat="46.29767" lon="-0.34129">
        <ele>66.4432</ele>
        <time>2011-07-03T14:17:52Z</time>
      </trkpt>
      <trkpt lat="46.29767" lon="-0.34127">
        <ele>66.4295</ele>
        <time>2011-07-03T14:17:53Z</time>
      </trkpt>
      <trkpt lat="46.29767" lon="-0.34125">
        <ele>66.4101</ele>
        <time>2011-07-03T14:17:54Z</time>
      </trkpt>
      <trkpt lat="46.29766" lon="-0.34123">
        <ele>66.3859</ele>
        <time>2011-07-03T14:17:55Z</time>
      </trkpt>
      <trkpt lat="46.29767" lon="-0.34121">
        <ele>66.3602</ele>
        <time>2011-07-03T14:17:56Z</time>
      </trkpt>
      <trkpt lat="46.29767" lon="-0.3412">
        <ele>66.3356</ele>
        <time>2011-07-03T14:17:57Z</time>
      </trkpt>
      <trkpt lat="46.29767" lon="-0.34118">
        <ele>66.313</ele>
        <time>2011-07-03T14:17:58Z</time>
      </trkpt>
      <trkpt lat="46.29767" lon="-0.34116">
        <ele>66.2929</ele>
        <time>2011-07-03T14:17:59Z</time>
      </trkpt>
      <trkpt lat="46.29767" lon="-0.34115">
        <ele>66.2715</ele>
        <time>2011-07-03T14:18:00Z</time>
      </trkpt>
      <trkpt lat="46.29767" lon="-0.34113">
        <ele>66.249</ele>
        <time>2011-07-03T14:18:01Z</time>
      </trkpt>
      <trkpt lat="46.29766" lon="-0.34111">
        <ele>66.2263</ele>
        <time>2011-07-03T14:18:02Z</time>
      </trkpt>
      <trkpt lat="46.29766" lon="-0.34109">
        <ele>66.2048</ele>
        <time>2011-07-03T14:18:03Z</time>
      </trkpt>
      <trkpt lat="46.29766" lon="-0.34108">
        <ele>66.186</ele>
        <time>2011-07-03T14:18:04Z</time>
      </trkpt>
      <trkpt lat="46.29766" lon="-0.34106">
        <ele>66.168</ele>
        <time>2011-07-03T14:18:05Z</time>
      </trkpt>
      <trkpt lat="46.29766" lon="-0.34104">
        <ele>66.1496</ele>
        <time>2011-07-03T14:18:06Z</time>
      </trkpt>
      <trkpt lat="46.29766" lon="-0.34103">
        <ele>66.1299</ele>
        <time>2011-07-03T14:18:07Z</time>
      </trkpt>
      <trkpt lat="46.29766" lon="-0.341">
        <ele>66.1079</ele>
        <time>2011-07-03T14:18:08Z</time>
      </trkpt>
      <trkpt lat="46.29766" lon="-0.34098">
        <ele>66.0841</ele>
        <time>2011-07-03T14:18:09Z</time>
      </trkpt>
      <trkpt lat="46.29766" lon="-0.34096">
        <ele>66.0579</ele>
        <time>2011-07-03T14:18:10Z</time>
      </trkpt>
      <trkpt lat="46.29766" lon="-0.34094">
        <ele>66.0292</ele>
        <time>2011-07-03T14:18:11Z</time>
      </trkpt>
      <trkpt lat="46.29766" lon="-0.34092">
        <ele>65.9987</ele>
        <time>2011-07-03T14:18:12Z</time>
      </trkpt>
      <trkpt lat="46.29765" lon="-0.3409">
        <ele>65.9676</ele>
        <time>2011-07-03T14:18:13Z</time>
      </trkpt>
      <trkpt lat="46.29765" lon="-0.34089">
        <ele>65.9365</ele>
        <time>2011-07-03T14:18:14Z</time>
      </trkpt>
      <trkpt lat="46.29765" lon="-0.34087">
        <ele>65.9045</ele>
        <time>2011-07-03T14:18:15Z</time>
      </trkpt>
      <trkpt lat="46.29765" lon="-0.34085">
        <ele>65.8734</ele>
        <time>2011-07-03T14:18:16Z</time>
      </trkpt>
      <trkpt lat="46.29764" lon="-0.34083">
        <ele>65.8418</ele>
        <time>2011-07-03T14:18:17Z</time>
      </trkpt>
      <trkpt lat="46.29764" lon="-0.34081">
        <ele>65.8099</ele>
        <time>2011-07-03T14:18:18Z</time>
      </trkpt>
      <trkpt lat="46.29764" lon="-0.3408">
        <ele>65.7772</ele>
        <time>2011-07-03T14:18:19Z</time>
      </trkpt>
      <trkpt lat="46.29764" lon="-0.34078">
        <ele>65.7443</ele>
        <time>2011-07-03T14:18:20Z</time>
      </trkpt>
      <trkpt lat="46.29764" lon="-0.34076">
        <ele>65.7087</ele>
        <time>2011-07-03T14:18:21Z</time>
      </trkpt>
      <trkpt lat="46.29764" lon="-0.34074">
        <ele>65.6724</ele>
        <time>2011-07-03T14:18:22Z</time>
      </trkpt>
      <trkpt lat="46.29763" lon="-0.34071">
        <ele>65.6385</ele>
        <time>2011-07-03T14:18:23Z</time>
      </trkpt>
      <trkpt lat="46.29763" lon="-0.34069">
        <ele>65.6068</ele>
        <time>2011-07-03T14:18:24Z</time>
      </trkpt>
      <trkpt lat="46.29763" lon="-0.34068">
        <ele>65.5782</ele>
        <time>2011-07-03T14:18:25Z</time>
      </trkpt>
      <trkpt lat="46.29763" lon="-0.34066">
        <ele>65.5515</ele>
        <time>2011-07-03T14:18:26Z</time>
      </trkpt>
      <trkpt lat="46.29762" lon="-0.34064">
        <ele>65.5257</ele>
        <time>2011-07-03T14:18:27Z</time>
      </trkpt>
      <trkpt lat="46.29762" lon="-0.34062">
        <ele>65.5005</ele>
        <time>2011-07-03T14:18:28Z</time>
      </trkpt>
      <trkpt lat="46.29762" lon="-0.3406">
        <ele>65.4762</ele>
        <time>2011-07-03T14:18:29Z</time>
      </trkpt>
      <trkpt lat="46.29762" lon="-0.34058">
        <ele>65.4512</ele>
        <time>2011-07-03T14:18:30Z</time>
      </trkpt>
      <trkpt lat="46.29762" lon="-0.34056">
        <ele>65.4268</ele>
        <time>2011-07-03T14:18:31Z</time>
      </trkpt>
      <trkpt lat="46.29761" lon="-0.34054">
        <ele>65.4017</ele>
        <time>2011-07-03T14:18:32Z</time>
      </trkpt>
      <trkpt lat="46.29761" lon="-0.34052">
        <ele>65.3764</ele>
        <time>2011-07-03T14:18:33Z</time>
      </trkpt>
      <trkpt lat="46.29761" lon="-0.3405">
        <ele>65.3523</ele>
        <time>2011-07-03T14:18:34Z</time>
      </trkpt>
      <trkpt lat="46.29761" lon="-0.34048">
        <ele>65.3293</ele>
        <time>2011-07-03T14:18:35Z</time>
      </trkpt>
      <trkpt lat="46.29761" lon="-0.34046">
        <ele>65.3065</ele>
        <time>2011-07-03T14:18:36Z</time>
      </trkpt>
      <trkpt lat="46.2976" lon="-0.34044">
        <ele>65.2838</ele>
        <time>2011-07-03T14:18:37Z</time>
      </trkpt>
      <trkpt lat="46.2976" lon="-0.34042">
        <ele>65.2604</ele>
        <time>2011-07-03T14:18:38Z</time>
      </trkpt>
      <trkpt lat="46.2976" lon="-0.3404">
        <ele>65.2371</ele>
        <time>2011-07-03T14:18:39Z</time>
      </trkpt>
      <trkpt lat="46.2976" lon="-0.34037">
        <ele>65.2139</ele>
        <time>2011-07-03T14:18:40Z</time>
      </trkpt>
      <trkpt lat="46.29759" lon="-0.34034">
        <ele>65.1917</ele>
        <time>2011-07-03T14:18:41Z</time>
      </trkpt>
      <trkpt lat="46.29759" lon="-0.34031">
        <ele>65.1696</ele>
        <time>2011-07-03T14:18:42Z</time>
      </trkpt>
      <trkpt lat="46.29759" lon="-0.34028">
        <ele>65.1469</ele>
        <time>2011-07-03T14:18:43Z</time>
      </trkpt>
      <trkpt lat="46.29759" lon="-0.34026">
        <ele>65.1233</ele>
        <time>2011-07-03T14:18:44Z</time>
      </trkpt>
      <trkpt lat="46.29759" lon="-0.34024">
        <ele>65.0989</ele>
        <time>2011-07-03T14:18:45Z</time>
      </trkpt>
      <trkpt lat="46.2976" lon="-0.34021">
        <ele>65.0815</ele>
        <time>2011-07-03T14:18:46Z</time>
      </trkpt>
      <trkpt lat="46.2976" lon="-0.34019">
        <ele>65.0638</ele>
        <time>2011-07-03T14:18:47Z</time>
      </trkpt>
      <trkpt lat="46.2976" lon="-0.34017">
        <ele>65.0538</ele>
        <time>2011-07-03T14:18:48Z</time>
      </trkpt>
      <trkpt lat="46.29761" lon="-0.34015">
        <ele>65.0432</ele>
        <time>2011-07-03T14:18:49Z</time>
      </trkpt>
      <trkpt lat="46.29763" lon="-0.34014">
        <ele>65.0322</ele>
        <time>2011-07-03T14:18:50Z</time>
      </trkpt>
      <trkpt lat="46.29764" lon="-0.34013">
        <ele>65.0231</ele>
        <time>2011-07-03T14:18:51Z</time>
      </trkpt>
      <trkpt lat="46.29766" lon="-0.34013">
        <ele>65.0197</ele>
        <time>2011-07-03T14:18:52Z</time>
      </trkpt>
      <trkpt lat="46.29767" lon="-0.34012">
        <ele>65.0168</ele>
        <time>2011-07-03T14:18:53Z</time>
      </trkpt>
      <trkpt lat="46.29769" lon="-0.34011">
        <ele>65.012</ele>
        <time>2011-07-03T14:18:54Z</time>
      </trkpt>
      <trkpt lat="46.2977" lon="-0.34011">
        <ele>65.0093</ele>
        <time>2011-07-03T14:18:55Z</time>
      </trkpt>
      <trkpt lat="46.29771" lon="-0.3401">
        <ele>65.006</ele>
        <time>2011-07-03T14:18:56Z</time>
      </trkpt>
      <trkpt lat="46.29773" lon="-0.3401">
        <ele>65.0055</ele>
        <time>2011-07-03T14:18:57Z</time>
      </trkpt>
      <trkpt lat="46.29775" lon="-0.34009">
        <ele>65.0101</ele>
        <time>2011-07-03T14:18:58Z</time>
      </trkpt>
      <trkpt lat="46.29776" lon="-0.34008">
        <ele>65.0197</ele>
        <time>2011-07-03T14:18:59Z</time>
      </trkpt>
      <trkpt lat="46.29777" lon="-0.34007">
        <ele>65.0336</ele>
        <time>2011-07-03T14:19:00Z</time>
      </trkpt>
      <trkpt lat="46.29779" lon="-0.34007">
        <ele>65.0511</ele>
        <time>2011-07-03T14:19:01Z</time>
      </trkpt>
      <trkpt lat="46.2978" lon="-0.34007">
        <ele>65.0689</ele>
        <time>2011-07-03T14:19:02Z</time>
      </trkpt>
      <trkpt lat="46.29781" lon="-0.34006">
        <ele>65.0859</ele>
        <time>2011-07-03T14:19:03Z</time>
      </trkpt>
      <trkpt lat="46.29783" lon="-0.34005">
        <ele>65.1007</ele>
        <time>2011-07-03T14:19:04Z</time>
      </trkpt>
      <trkpt lat="46.29784" lon="-0.34005">
        <ele>65.1136</ele>
        <time>2011-07-03T14:19:05Z</time>
      </trkpt>
      <trkpt lat="46.29786" lon="-0.34004">
        <ele>65.1248</ele>
        <time>2011-07-03T14:19:06Z</time>
      </trkpt>
      <trkpt lat="46.29787" lon="-0.34003">
        <ele>65.1363</ele>
        <time>2011-07-03T14:19:07Z</time>
      </trkpt>
      <trkpt lat="46.29789" lon="-0.34003">
        <ele>65.1465</ele>
        <time>2011-07-03T14:19:08Z</time>
      </trkpt>
      <trkpt lat="46.2979" lon="-0.34002">
        <ele>65.1569</ele>
        <time>2011-07-03T14:19:09Z</time>
      </trkpt>
      <trkpt lat="46.29792" lon="-0.34001">
        <ele>65.1704</ele>
        <time>2011-07-03T14:19:10Z</time>
      </trkpt>
      <trkpt lat="46.29793" lon="-0.34001">
        <ele>65.1823</ele>
        <time>2011-07-03T14:19:11Z</time>
      </trkpt>
      <trkpt lat="46.29794" lon="-0.34">
        <ele>65.1929</ele>
        <time>2011-07-03T14:19:12Z</time>
      </trkpt>
      <trkpt lat="46.29796" lon="-0.34">
        <ele>65.203</ele>
        <time>2011-07-03T14:19:13Z</time>
      </trkpt>
      <trkpt lat="46.29797" lon="-0.34">
        <ele>65.2115</ele>
        <time>2011-07-03T14:19:14Z</time>
      </trkpt>
      <trkpt lat="46.29798" lon="-0.34">
        <ele>65.2195</ele>
        <time>2011-07-03T14:19:15Z</time>
      </trkpt>
      <trkpt lat="46.29799" lon="-0.34">
        <ele>65.2251</ele>
        <time>2011-07-03T14:19:16Z</time>
      </trkpt>
      <trkpt lat="46.298" lon="-0.33999">
        <ele>65.229</ele>
        <time>2011-07-03T14:19:17Z</time>
      </trkpt>
      <trkpt lat="46.29802" lon="-0.33999">
        <ele>65.2347</ele>
        <time>2011-07-03T14:19:18Z</time>
      </trkpt>
      <trkpt lat="46.29803" lon="-0.33999">
        <ele>65.2441</ele>
        <time>2011-07-03T14:19:19Z</time>
      </trkpt>
      <trkpt lat="46.29804" lon="-0.33999">
        <ele>65.252</ele>
        <time>2011-07-03T14:19:20Z</time>
      </trkpt>
      <trkpt lat="46.29806" lon="-0.33998">
        <ele>65.258</ele>
        <time>2011-07-03T14:19:21Z</time>
      </trkpt>
      <trkpt lat="46.29807" lon="-0.33997">
        <ele>65.2629</ele>
        <time>2011-07-03T14:19:22Z</time>
      </trkpt>
      <trkpt lat="46.29808" lon="-0.33997">
        <ele>65.2696</ele>
        <time>2011-07-03T14:19:23Z</time>
      </trkpt>
      <trkpt lat="46.2981" lon="-0.33996">
        <ele>65.279</ele>
        <time>2011-07-03T14:19:24Z</time>
      </trkpt>
      <trkpt lat="46.29811" lon="-0.33995">
        <ele>65.2875</ele>
        <time>2011-07-03T14:19:25Z</time>
      </trkpt>
      <trkpt lat="46.29812" lon="-0.33995">
        <ele>65.2951</ele>
        <time>2011-07-03T14:19:26Z</time>
      </trkpt>
      <trkpt lat="46.29813" lon="-0.33994">
        <ele>65.3017</ele>
        <time>2011-07-03T14:19:27Z</time>
      </trkpt>
      <trkpt lat="46.29815" lon="-0.33994">
        <ele>65.3074</ele>
        <time>2011-07-03T14:19:28Z</time>
      </trkpt>
      <trkpt lat="46.29816" lon="-0.33994">
        <ele>65.3125</ele>
        <time>2011-07-03T14:19:29Z</time>
      </trkpt>
      <trkpt lat="46.29818" lon="-0.33993">
        <ele>65.319</ele>
        <time>2011-07-03T14:19:30Z</time>
      </trkpt>
      <trkpt lat="46.29819" lon="-0.33992">
        <ele>65.3243</ele>
        <time>2011-07-03T14:19:31Z</time>
      </trkpt>
      <trkpt lat="46.2982" lon="-0.33992">
        <ele>65.3297</ele>
        <time>2011-07-03T14:19:32Z</time>
      </trkpt>
      <trkpt lat="46.29821" lon="-0.33991">
        <ele>65.3338</ele>
        <time>2011-07-03T14:19:33Z</time>
      </trkpt>
      <trkpt lat="46.29823" lon="-0.33991">
        <ele>65.3372</ele>
        <time>2011-07-03T14:19:34Z</time>
      </trkpt>
      <trkpt lat="46.29824" lon="-0.3399">
        <ele>65.3422</ele>
        <time>2011-07-03T14:19:35Z</time>
      </trkpt>
      <trkpt lat="46.29825" lon="-0.3399">
        <ele>65.3496</ele>
        <time>2011-07-03T14:19:36Z</time>
      </trkpt>
      <trkpt lat="46.29826" lon="-0.33989">
        <ele>65.3604</ele>
        <time>2011-07-03T14:19:37Z</time>
      </trkpt>
      <trkpt lat="46.29828" lon="-0.33989">
        <ele>65.3748</ele>
        <time>2011-07-03T14:19:38Z</time>
      </trkpt>
      <trkpt lat="46.29829" lon="-0.33988">
        <ele>65.3937</ele>
        <time>2011-07-03T14:19:39Z</time>
      </trkpt>
      <trkpt lat="46.29831" lon="-0.33988">
        <ele>65.4179</ele>
        <time>2011-07-03T14:19:40Z</time>
      </trkpt>
      <trkpt lat="46.29833" lon="-0.33987">
        <ele>65.447</ele>
        <time>2011-07-03T14:19:41Z</time>
      </trkpt>
      <trkpt lat="46.29834" lon="-0.33987">
        <ele>65.4752</ele>
        <time>2011-07-03T14:19:42Z</time>
      </trkpt>
      <trkpt lat="46.29836" lon="-0.33986">
        <ele>65.502</ele>
        <time>2011-07-03T14:19:43Z</time>
      </trkpt>
      <trkpt lat="46.29837" lon="-0.33986">
        <ele>65.5268</ele>
        <time>2011-07-03T14:19:44Z</time>
      </trkpt>
      <trkpt lat="46.29838" lon="-0.33986">
        <ele>65.5516</ele>
        <time>2011-07-03T14:19:45Z</time>
      </trkpt>
      <trkpt lat="46.29839" lon="-0.33985">
        <ele>65.5745</ele>
        <time>2011-07-03T14:19:46Z</time>
      </trkpt>
      <trkpt lat="46.29841" lon="-0.33985">
        <ele>65.5973</ele>
        <time>2011-07-03T14:19:47Z</time>
      </trkpt>
      <trkpt lat="46.29842" lon="-0.33984">
        <ele>65.62</ele>
        <time>2011-07-03T14:19:48Z</time>
      </trkpt>
      <trkpt lat="46.29843" lon="-0.33984">
        <ele>65.6415</ele>
        <time>2011-07-03T14:19:49Z</time>
      </trkpt>
      <trkpt lat="46.29844" lon="-0.33984">
        <ele>65.6633</ele>
        <time>2011-07-03T14:19:50Z</time>
      </trkpt>
      <trkpt lat="46.29845" lon="-0.33984">
        <ele>65.683</ele>
        <time>2011-07-03T14:19:51Z</time>
      </trkpt>
      <trkpt lat="46.29847" lon="-0.33983">
        <ele>65.7032</ele>
        <time>2011-07-03T14:19:52Z</time>
      </trkpt>
      <trkpt lat="46.29848" lon="-0.33983">
        <ele>65.7226</ele>
        <time>2011-07-03T14:19:53Z</time>
      </trkpt>
      <trkpt lat="46.29849" lon="-0.33983">
        <ele>65.7403</ele>
        <time>2011-07-03T14:19:54Z</time>
      </trkpt>
      <trkpt lat="46.2985" lon="-0.33983">
        <ele>65.7574</ele>
        <time>2011-07-03T14:19:55Z</time>
      </trkpt>
      <trkpt lat="46.29852" lon="-0.33983">
        <ele>65.7728</ele>
        <time>2011-07-03T14:19:56Z</time>
      </trkpt>
      <trkpt lat="46.29853" lon="-0.33983">
        <ele>65.7862</ele>
        <time>2011-07-03T14:19:57Z</time>
      </trkpt>
      <trkpt lat="46.29855" lon="-0.33983">
        <ele>65.801</ele>
        <time>2011-07-03T14:19:58Z</time>
      </trkpt>
      <trkpt lat="46.29856" lon="-0.33983">
        <ele>65.8144</ele>
        <time>2011-07-03T14:19:59Z</time>
      </trkpt>
      <trkpt lat="46.29857" lon="-0.33982">
        <ele>65.8272</ele>
        <time>2011-07-03T14:20:00Z</time>
      </trkpt>
      <trkpt lat="46.29858" lon="-0.33982">
        <ele>65.839</ele>
        <time>2011-07-03T14:20:01Z</time>
      </trkpt>
      <trkpt lat="46.2986" lon="-0.33982">
        <ele>65.8516</ele>
        <time>2011-07-03T14:20:02Z</time>
      </trkpt>
      <trkpt lat="46.29861" lon="-0.33981">
        <ele>65.8665</ele>
        <time>2011-07-03T14:20:03Z</time>
      </trkpt>
      <trkpt lat="46.29863" lon="-0.33982">
        <ele>65.8807</ele>
        <time>2011-07-03T14:20:04Z</time>
      </trkpt>
      <trkpt lat="46.29864" lon="-0.33981">
        <ele>65.8937</ele>
        <time>2011-07-03T14:20:05Z</time>
      </trkpt>
      <trkpt lat="46.29866" lon="-0.33981">
        <ele>65.9067</ele>
        <time>2011-07-03T14:20:06Z</time>
      </trkpt>
      <trkpt lat="46.29867" lon="-0.33981">
        <ele>65.9203</ele>
        <time>2011-07-03T14:20:07Z</time>
      </trkpt>
      <trkpt lat="46.29868" lon="-0.33981">
        <ele>65.9337</ele>
        <time>2011-07-03T14:20:08Z</time>
      </trkpt>
      <trkpt lat="46.2987" lon="-0.3398">
        <ele>65.9503</ele>
        <time>2011-07-03T14:20:09Z</time>
      </trkpt>
      <trkpt lat="46.29872" lon="-0.3398">
        <ele>65.9718</ele>
        <time>2011-07-03T14:20:10Z</time>
      </trkpt>
      <trkpt lat="46.29874" lon="-0.3398">
        <ele>66.0006</ele>
        <time>2011-07-03T14:20:11Z</time>
      </trkpt>
      <trkpt lat="46.29876" lon="-0.3398">
        <ele>66.0349</ele>
        <time>2011-07-03T14:20:12Z</time>
      </trkpt>
      <trkpt lat="46.29877" lon="-0.3398">
        <ele>66.0745</ele>
        <time>2011-07-03T14:20:13Z</time>
      </trkpt>
      <trkpt lat="46.29879" lon="-0.33979">
        <ele>66.1157</ele>
        <time>2011-07-03T14:20:14Z</time>
      </trkpt>
      <trkpt lat="46.29881" lon="-0.33979">
        <ele>66.1599</ele>
        <time>2011-07-03T14:20:15Z</time>
      </trkpt>
      <trkpt lat="46.29882" lon="-0.33979">
        <ele>66.2046</ele>
        <time>2011-07-03T14:20:16Z</time>
      </trkpt>
      <trkpt lat="46.29884" lon="-0.33978">
        <ele>66.251</ele>
        <time>2011-07-03T14:20:17Z</time>
      </trkpt>
      <trkpt lat="46.29886" lon="-0.33979">
        <ele>66.2947</ele>
        <time>2011-07-03T14:20:18Z</time>
      </trkpt>
      <trkpt lat="46.29887" lon="-0.33979">
        <ele>66.3345</ele>
        <time>2011-07-03T14:20:19Z</time>
      </trkpt>
      <trkpt lat="46.29888" lon="-0.33978">
        <ele>66.3669</ele>
        <time>2011-07-03T14:20:20Z</time>
      </trkpt>
      <trkpt lat="46.29889" lon="-0.33978">
        <ele>66.3958</ele>
        <time>2011-07-03T14:20:21Z</time>
      </trkpt>
      <trkpt lat="46.2989" lon="-0.33978">
        <ele>66.4227</ele>
        <time>2011-07-03T14:20:22Z</time>
      </trkpt>
      <trkpt lat="46.29891" lon="-0.33978">
        <ele>66.449</ele>
        <time>2011-07-03T14:20:23Z</time>
      </trkpt>
      <trkpt lat="46.29892" lon="-0.33978">
        <ele>66.473</ele>
        <time>2011-07-03T14:20:24Z</time>
      </trkpt>
      <trkpt lat="46.29894" lon="-0.33978">
        <ele>66.4975</ele>
        <time>2011-07-03T14:20:25Z</time>
      </trkpt>
      <trkpt lat="46.29895" lon="-0.33977">
        <ele>66.5214</ele>
        <time>2011-07-03T14:20:26Z</time>
      </trkpt>
      <trkpt lat="46.29896" lon="-0.33977">
        <ele>66.5488</ele>
        <time>2011-07-03T14:20:27Z</time>
      </trkpt>
      <trkpt lat="46.29897" lon="-0.33977">
        <ele>66.5755</ele>
        <time>2011-07-03T14:20:28Z</time>
      </trkpt>
      <trkpt lat="46.29899" lon="-0.33977">
        <ele>66.6007</ele>
        <time>2011-07-03T14:20:29Z</time>
      </trkpt>
      <trkpt lat="46.299" lon="-0.33977">
        <ele>66.6322</ele>
        <time>2011-07-03T14:20:30Z</time>
      </trkpt>
      <trkpt lat="46.29902" lon="-0.33977">
        <ele>66.6622</ele>
        <time>2011-07-03T14:20:31Z</time>
      </trkpt>
      <trkpt lat="46.29903" lon="-0.33977">
        <ele>66.7001</ele>
        <time>2011-07-03T14:20:32Z</time>
      </trkpt>
      <trkpt lat="46.29905" lon="-0.33977">
        <ele>66.7371</ele>
        <time>2011-07-03T14:20:33Z</time>
      </trkpt>
      <trkpt lat="46.29906" lon="-0.33977">
        <ele>66.7738</ele>
        <time>2011-07-03T14:20:34Z</time>
      </trkpt>
      <trkpt lat="46.29908" lon="-0.33976">
        <ele>66.8104</ele>
        <time>2011-07-03T14:20:35Z</time>
      </trkpt>
      <trkpt lat="46.29909" lon="-0.33976">
        <ele>66.8461</ele>
        <time>2011-07-03T14:20:36Z</time>
      </trkpt>
      <trkpt lat="46.29911" lon="-0.33976">
        <ele>66.8813</ele>
        <time>2011-07-03T14:20:37Z</time>
      </trkpt>
      <trkpt lat="46.29912" lon="-0.33976">
        <ele>66.9149</ele>
        <time>2011-07-03T14:20:38Z</time>
      </trkpt>
      <trkpt lat="46.29913" lon="-0.33976">
        <ele>66.9474</ele>
        <time>2011-07-03T14:20:39Z</time>
      </trkpt>
      <trkpt lat="46.29914" lon="-0.33977">
        <ele>66.9798</ele>
        <time>2011-07-03T14:20:40Z</time>
      </trkpt>
      <trkpt lat="46.29915" lon="-0.33977">
        <ele>67.0139</ele>
        <time>2011-07-03T14:20:41Z</time>
      </trkpt>
      <trkpt lat="46.29916" lon="-0.33977">
        <ele>67.0516</ele>
        <time>2011-07-03T14:20:42Z</time>
      </trkpt>
      <trkpt lat="46.29918" lon="-0.33977">
        <ele>67.0917</ele>
        <time>2011-07-03T14:20:43Z</time>
      </trkpt>
      <trkpt lat="46.29919" lon="-0.33977">
        <ele>67.1323</ele>
        <time>2011-07-03T14:20:44Z</time>
      </trkpt>
      <trkpt lat="46.29921" lon="-0.33977">
        <ele>67.1749</ele>
        <time>2011-07-03T14:20:45Z</time>
      </trkpt>
      <trkpt lat="46.29923" lon="-0.33977">
        <ele>67.2188</ele>
        <time>2011-07-03T14:20:46Z</time>
      </trkpt>
      <trkpt lat="46.29924" lon="-0.33977">
        <ele>67.2641</ele>
        <time>2011-07-03T14:20:47Z</time>
      </trkpt>
      <trkpt lat="46.29926" lon="-0.33977">
        <ele>67.3113</ele>
        <time>2011-07-03T14:20:48Z</time>
      </trkpt>
      <trkpt lat="46.29927" lon="-0.33977">
        <ele>67.3591</ele>
        <time>2011-07-03T14:20:49Z</time>
      </trkpt>
      <trkpt lat="46.29929" lon="-0.33977">
        <ele>67.4079</ele>
        <time>2011-07-03T14:20:50Z</time>
      </trkpt>
      <trkpt lat="46.29931" lon="-0.33976">
        <ele>67.4571</ele>
        <time>2011-07-03T14:20:51Z</time>
      </trkpt>
      <trkpt lat="46.29932" lon="-0.33976">
        <ele>67.5044</ele>
        <time>2011-07-03T14:20:52Z</time>
      </trkpt>
      <trkpt lat="46.29933" lon="-0.33977">
        <ele>67.5517</ele>
        <time>2011-07-03T14:20:53Z</time>
      </trkpt>
      <trkpt lat="46.29935" lon="-0.33977">
        <ele>67.5977</ele>
        <time>2011-07-03T14:20:54Z</time>
      </trkpt>
      <trkpt lat="46.29936" lon="-0.33977">
        <ele>67.6447</ele>
        <time>2011-07-03T14:20:55Z</time>
      </trkpt>
      <trkpt lat="46.29938" lon="-0.33977">
        <ele>67.6911</ele>
        <time>2011-07-03T14:20:56Z</time>
      </trkpt>
      <trkpt lat="46.29939" lon="-0.33977">
        <ele>67.7358</ele>
        <time>2011-07-03T14:20:57Z</time>
      </trkpt>
      <trkpt lat="46.29941" lon="-0.33977">
        <ele>67.7764</ele>
        <time>2011-07-03T14:20:58Z</time>
      </trkpt>
      <trkpt lat="46.29943" lon="-0.33977">
        <ele>67.8152</ele>
        <time>2011-07-03T14:20:59Z</time>
      </trkpt>
      <trkpt lat="46.29944" lon="-0.33977">
        <ele>67.852</ele>
        <time>2011-07-03T14:21:00Z</time>
      </trkpt>
      <trkpt lat="46.29945" lon="-0.33976">
        <ele>67.8862</ele>
        <time>2011-07-03T14:21:01Z</time>
      </trkpt>
      <trkpt lat="46.29947" lon="-0.33976">
        <ele>67.9175</ele>
        <time>2011-07-03T14:21:02Z</time>
      </trkpt>
      <trkpt lat="46.29948" lon="-0.33976">
        <ele>67.9483</ele>
        <time>2011-07-03T14:21:03Z</time>
      </trkpt>
      <trkpt lat="46.2995" lon="-0.33976">
        <ele>67.9727</ele>
        <time>2011-07-03T14:21:04Z</time>
      </trkpt>
      <trkpt lat="46.29952" lon="-0.33976">
        <ele>67.9903</ele>
        <time>2011-07-03T14:21:05Z</time>
      </trkpt>
      <trkpt lat="46.29953" lon="-0.33975">
        <ele>68.0009</ele>
        <time>2011-07-03T14:21:06Z</time>
      </trkpt>
      <trkpt lat="46.29955" lon="-0.33974">
        <ele>68.002</ele>
        <time>2011-07-03T14:21:07Z</time>
      </trkpt>
      <trkpt lat="46.29956" lon="-0.33974">
        <ele>68.0008</ele>
        <time>2011-07-03T14:21:08Z</time>
      </trkpt>
      <trkpt lat="46.29957" lon="-0.33974">
        <ele>67.9991</ele>
        <time>2011-07-03T14:21:09Z</time>
      </trkpt>
      <trkpt lat="46.29958" lon="-0.33974">
        <ele>67.9934</ele>
        <time>2011-07-03T14:21:10Z</time>
      </trkpt>
      <trkpt lat="46.29959" lon="-0.33974">
        <ele>67.9863</ele>
        <time>2011-07-03T14:21:11Z</time>
      </trkpt>
      <trkpt lat="46.2996" lon="-0.33973">
        <ele>67.9785</ele>
        <time>2011-07-03T14:21:12Z</time>
      </trkpt>
      <trkpt lat="46.29961" lon="-0.33973">
        <ele>67.9653</ele>
        <time>2011-07-03T14:21:13Z</time>
      </trkpt>
      <trkpt lat="46.29962" lon="-0.33973">
        <ele>67.9466</ele>
        <time>2011-07-03T14:21:14Z</time>
      </trkpt>
      <trkpt lat="46.29963" lon="-0.33973">
        <ele>67.9275</ele>
        <time>2011-07-03T14:21:15Z</time>
      </trkpt>
      <trkpt lat="46.29964" lon="-0.33973">
        <ele>67.9069</ele>
        <time>2011-07-03T14:21:16Z</time>
      </trkpt>
      <trkpt lat="46.29964" lon="-0.33973">
        <ele>67.8857</ele>
        <time>2011-07-03T14:21:17Z</time>
      </trkpt>
      <trkpt lat="46.29966" lon="-0.33973">
        <ele>67.8618</ele>
        <time>2011-07-03T14:21:18Z</time>
      </trkpt>
      <trkpt lat="46.29967" lon="-0.33972">
        <ele>67.8349</ele>
        <time>2011-07-03T14:21:19Z</time>
      </trkpt>
      <trkpt lat="46.29968" lon="-0.33972">
        <ele>67.8064</ele>
        <time>2011-07-03T14:21:20Z</time>
      </trkpt>
      <trkpt lat="46.29969" lon="-0.33972">
        <ele>67.7744</ele>
        <time>2011-07-03T14:21:21Z</time>
      </trkpt>
      <trkpt lat="46.29971" lon="-0.33971">
        <ele>67.7352</ele>
        <time>2011-07-03T14:21:22Z</time>
      </trkpt>
      <trkpt lat="46.29972" lon="-0.33971">
        <ele>67.6951</ele>
        <time>2011-07-03T14:21:23Z</time>
      </trkpt>
      <trkpt lat="46.29973" lon="-0.33971">
        <ele>67.6574</ele>
        <time>2011-07-03T14:21:24Z</time>
      </trkpt>
      <trkpt lat="46.29975" lon="-0.33971">
        <ele>67.6211</ele>
        <time>2011-07-03T14:21:25Z</time>
      </trkpt>
      <trkpt lat="46.29976" lon="-0.33971">
        <ele>67.5853</ele>
        <time>2011-07-03T14:21:26Z</time>
      </trkpt>
      <trkpt lat="46.29977" lon="-0.33971">
        <ele>67.5515</ele>
        <time>2011-07-03T14:21:27Z</time>
      </trkpt>
      <trkpt lat="46.29979" lon="-0.33971">
        <ele>67.5176</ele>
        <time>2011-07-03T14:21:28Z</time>
      </trkpt>
      <trkpt lat="46.29981" lon="-0.33971">
        <ele>67.4839</ele>
        <time>2011-07-03T14:21:29Z</time>
      </trkpt>
      <trkpt lat="46.29982" lon="-0.33971">
        <ele>67.4504</ele>
        <time>2011-07-03T14:21:30Z</time>
      </trkpt>
      <trkpt lat="46.29984" lon="-0.33971">
        <ele>67.4175</ele>
        <time>2011-07-03T14:21:31Z</time>
      </trkpt>
      <trkpt lat="46.29985" lon="-0.33971">
        <ele>67.3844</ele>
        <time>2011-07-03T14:21:32Z</time>
      </trkpt>
      <trkpt lat="46.29987" lon="-0.3397">
        <ele>67.3528</ele>
        <time>2011-07-03T14:21:33Z</time>
      </trkpt>
      <trkpt lat="46.29988" lon="-0.3397">
        <ele>67.3196</ele>
        <time>2011-07-03T14:21:34Z</time>
      </trkpt>
      <trkpt lat="46.2999" lon="-0.3397">
        <ele>67.2842</ele>
        <time>2011-07-03T14:21:35Z</time>
      </trkpt>
      <trkpt lat="46.29992" lon="-0.3397">
        <ele>67.2465</ele>
        <time>2011-07-03T14:21:36Z</time>
      </trkpt>
      <trkpt lat="46.29993" lon="-0.3397">
        <ele>67.209</ele>
        <time>2011-07-03T14:21:37Z</time>
      </trkpt>
      <trkpt lat="46.29994" lon="-0.3397">
        <ele>67.1725</ele>
        <time>2011-07-03T14:21:38Z</time>
      </trkpt>
      <trkpt lat="46.29996" lon="-0.3397">
        <ele>67.1381</ele>
        <time>2011-07-03T14:21:39Z</time>
      </trkpt>
      <trkpt lat="46.29997" lon="-0.3397">
        <ele>67.1056</ele>
        <time>2011-07-03T14:21:40Z</time>
      </trkpt>
      <trkpt lat="46.29998" lon="-0.3397">
        <ele>67.0741</ele>
        <time>2011-07-03T14:21:41Z</time>
      </trkpt>
      <trkpt lat="46.3" lon="-0.33971">
        <ele>67.0435</ele>
        <time>2011-07-03T14:21:42Z</time>
      </trkpt>
      <trkpt lat="46.30001" lon="-0.33971">
        <ele>67.014</ele>
        <time>2011-07-03T14:21:43Z</time>
      </trkpt>
      <trkpt lat="46.30002" lon="-0.33971">
        <ele>66.9867</ele>
        <time>2011-07-03T14:21:44Z</time>
      </trkpt>
      <trkpt lat="46.30004" lon="-0.33971">
        <ele>66.9613</ele>
        <time>2011-07-03T14:21:45Z</time>
      </trkpt>
      <trkpt lat="46.30005" lon="-0.33971">
        <ele>66.9372</ele>
        <time>2011-07-03T14:21:46Z</time>
      </trkpt>
      <trkpt lat="46.30006" lon="-0.33971">
        <ele>66.9143</ele>
        <time>2011-07-03T14:21:47Z</time>
      </trkpt>
      <trkpt lat="46.30008" lon="-0.33971">
        <ele>66.8922</ele>
        <time>2011-07-03T14:21:48Z</time>
      </trkpt>
      <trkpt lat="46.30009" lon="-0.33971">
        <ele>66.8714</ele>
        <time>2011-07-03T14:21:49Z</time>
      </trkpt>
      <trkpt lat="46.3001" lon="-0.33971">
        <ele>66.8502</ele>
        <time>2011-07-03T14:21:50Z</time>
      </trkpt>
      <trkpt lat="46.30012" lon="-0.33971">
        <ele>66.8283</ele>
        <time>2011-07-03T14:21:51Z</time>
      </trkpt>
      <trkpt lat="46.30013" lon="-0.33971">
        <ele>66.8078</ele>
        <time>2011-07-03T14:21:52Z</time>
      </trkpt>
      <trkpt lat="46.30015" lon="-0.33971">
        <ele>66.7879</ele>
        <time>2011-07-03T14:21:53Z</time>
      </trkpt>
      <trkpt lat="46.30016" lon="-0.33971">
        <ele>66.772</ele>
        <time>2011-07-03T14:21:54Z</time>
      </trkpt>
      <trkpt lat="46.30018" lon="-0.33971">
        <ele>66.7576</ele>
        <time>2011-07-03T14:21:55Z</time>
      </trkpt>
      <trkpt lat="46.30019" lon="-0.33971">
        <ele>66.744</ele>
        <time>2011-07-03T14:21:56Z</time>
      </trkpt>
      <trkpt lat="46.3002" lon="-0.33971">
        <ele>66.7339</ele>
        <time>2011-07-03T14:21:57Z</time>
      </trkpt>
      <trkpt lat="46.30022" lon="-0.33971">
        <ele>66.7228</ele>
        <time>2011-07-03T14:21:58Z</time>
      </trkpt>
      <trkpt lat="46.30023" lon="-0.3397">
        <ele>66.7122</ele>
        <time>2011-07-03T14:21:59Z</time>
      </trkpt>
      <trkpt lat="46.30024" lon="-0.33971">
        <ele>66.7015</ele>
        <time>2011-07-03T14:22:00Z</time>
      </trkpt>
      <trkpt lat="46.30026" lon="-0.33971">
        <ele>66.6894</ele>
        <time>2011-07-03T14:22:01Z</time>
      </trkpt>
      <trkpt lat="46.30027" lon="-0.33971">
        <ele>66.6786</ele>
        <time>2011-07-03T14:22:02Z</time>
      </trkpt>
      <trkpt lat="46.30029" lon="-0.3397">
        <ele>66.6665</ele>
        <time>2011-07-03T14:22:03Z</time>
      </trkpt>
      <trkpt lat="46.3003" lon="-0.3397">
        <ele>66.6529</ele>
        <time>2011-07-03T14:22:04Z</time>
      </trkpt>
      <trkpt lat="46.30031" lon="-0.3397">
        <ele>66.6396</ele>
        <time>2011-07-03T14:22:05Z</time>
      </trkpt>
      <trkpt lat="46.30033" lon="-0.3397">
        <ele>66.6255</ele>
        <time>2011-07-03T14:22:06Z</time>
      </trkpt>
      <trkpt lat="46.30034" lon="-0.3397">
        <ele>66.6122</ele>
        <time>2011-07-03T14:22:07Z</time>
      </trkpt>
      <trkpt lat="46.30036" lon="-0.3397">
        <ele>66.6033</ele>
        <time>2011-07-03T14:22:08Z</time>
      </trkpt>
      <trkpt lat="46.30037" lon="-0.33969">
        <ele>66.6014</ele>
        <time>2011-07-03T14:22:09Z</time>
      </trkpt>
      <trkpt lat="46.30039" lon="-0.3397">
        <ele>66.5985</ele>
        <time>2011-07-03T14:22:10Z</time>
      </trkpt>
      <trkpt lat="46.3004" lon="-0.33969">
        <ele>66.6039</ele>
        <time>2011-07-03T14:22:11Z</time>
      </trkpt>
      <trkpt lat="46.30042" lon="-0.33969">
        <ele>66.6169</ele>
        <time>2011-07-03T14:22:12Z</time>
      </trkpt>
      <trkpt lat="46.30043" lon="-0.33969">
        <ele>66.6276</ele>
        <time>2011-07-03T14:22:13Z</time>
      </trkpt>
      <trkpt lat="46.30045" lon="-0.33969">
        <ele>66.6432</ele>
        <time>2011-07-03T14:22:14Z</time>
      </trkpt>
      <trkpt lat="46.30047" lon="-0.33969">
        <ele>66.6651</ele>
        <time>2011-07-03T14:22:15Z</time>
      </trkpt>
      <trkpt lat="46.30048" lon="-0.33969">
        <ele>66.6875</ele>
        <time>2011-07-03T14:22:16Z</time>
      </trkpt>
      <trkpt lat="46.30049" lon="-0.33969">
        <ele>66.7109</ele>
        <time>2011-07-03T14:22:17Z</time>
      </trkpt>
      <trkpt lat="46.30051" lon="-0.33969">
        <ele>66.7332</ele>
        <time>2011-07-03T14:22:18Z</time>
      </trkpt>
      <trkpt lat="46.30052" lon="-0.33969">
        <ele>66.7565</ele>
        <time>2011-07-03T14:22:19Z</time>
      </trkpt>
      <trkpt lat="46.30053" lon="-0.33969">
        <ele>66.7757</ele>
        <time>2011-07-03T14:22:20Z</time>
      </trkpt>
      <trkpt lat="46.30055" lon="-0.33969">
        <ele>66.7967</ele>
        <time>2011-07-03T14:22:21Z</time>
      </trkpt>
      <trkpt lat="46.30057" lon="-0.33969">
        <ele>66.8173</ele>
        <time>2011-07-03T14:22:22Z</time>
      </trkpt>
      <trkpt lat="46.30058" lon="-0.33969">
        <ele>66.8426</ele>
        <time>2011-07-03T14:22:23Z</time>
      </trkpt>
      <trkpt lat="46.30059" lon="-0.33969">
        <ele>66.8724</ele>
        <time>2011-07-03T14:22:24Z</time>
      </trkpt>
      <trkpt lat="46.30061" lon="-0.33969">
        <ele>66.9056</ele>
        <time>2011-07-03T14:22:25Z</time>
      </trkpt>
      <trkpt lat="46.30062" lon="-0.3397">
        <ele>66.9405</ele>
        <time>2011-07-03T14:22:26Z</time>
      </trkpt>
      <trkpt lat="46.30063" lon="-0.3397">
        <ele>66.9772</ele>
        <time>2011-07-03T14:22:27Z</time>
      </trkpt>
      <trkpt lat="46.30065" lon="-0.3397">
        <ele>67.0152</ele>
        <time>2011-07-03T14:22:28Z</time>
      </trkpt>
      <trkpt lat="46.30066" lon="-0.3397">
        <ele>67.0534</ele>
        <time>2011-07-03T14:22:29Z</time>
      </trkpt>
      <trkpt lat="46.30067" lon="-0.3397">
        <ele>67.0918</ele>
        <time>2011-07-03T14:22:30Z</time>
      </trkpt>
      <trkpt lat="46.30068" lon="-0.3397">
        <ele>67.1301</ele>
        <time>2011-07-03T14:22:31Z</time>
      </trkpt>
      <trkpt lat="46.30069" lon="-0.3397">
        <ele>67.1675</ele>
        <time>2011-07-03T14:22:32Z</time>
      </trkpt>
      <trkpt lat="46.30071" lon="-0.3397">
        <ele>67.204</ele>
        <time>2011-07-03T14:22:33Z</time>
      </trkpt>
      <trkpt lat="46.30072" lon="-0.33971">
        <ele>67.2403</ele>
        <time>2011-07-03T14:22:34Z</time>
      </trkpt>
      <trkpt lat="46.30073" lon="-0.33971">
        <ele>67.2762</ele>
        <time>2011-07-03T14:22:35Z</time>
      </trkpt>
      <trkpt lat="46.30074" lon="-0.33971">
        <ele>67.3109</ele>
        <time>2011-07-03T14:22:36Z</time>
      </trkpt>
      <trkpt lat="46.30076" lon="-0.33971">
        <ele>67.3459</ele>
        <time>2011-07-03T14:22:37Z</time>
      </trkpt>
      <trkpt lat="46.30077" lon="-0.33971">
        <ele>67.38</ele>
        <time>2011-07-03T14:22:38Z</time>
      </trkpt>
      <trkpt lat="46.30078" lon="-0.33971">
        <ele>67.4141</ele>
        <time>2011-07-03T14:22:39Z</time>
      </trkpt>
      <trkpt lat="46.3008" lon="-0.33972">
        <ele>67.451</ele>
        <time>2011-07-03T14:22:40Z</time>
      </trkpt>
      <trkpt lat="46.30081" lon="-0.33972">
        <ele>67.4962</ele>
        <time>2011-07-03T14:22:41Z</time>
      </trkpt>
      <trkpt lat="46.30083" lon="-0.33971">
        <ele>67.5386</ele>
        <time>2011-07-03T14:22:42Z</time>
      </trkpt>
      <trkpt lat="46.30084" lon="-0.33971">
        <ele>67.5759</ele>
        <time>2011-07-03T14:22:43Z</time>
      </trkpt>
      <trkpt lat="46.30086" lon="-0.3397">
        <ele>67.6143</ele>
        <time>2011-07-03T14:22:44Z</time>
      </trkpt>
      <trkpt lat="46.30087" lon="-0.3397">
        <ele>67.6538</ele>
        <time>2011-07-03T14:22:45Z</time>
      </trkpt>
      <trkpt lat="46.30088" lon="-0.33971">
        <ele>67.704</ele>
        <time>2011-07-03T14:22:46Z</time>
      </trkpt>
      <trkpt lat="46.3009" lon="-0.3397">
        <ele>67.7479</ele>
        <time>2011-07-03T14:22:47Z</time>
      </trkpt>
      <trkpt lat="46.30091" lon="-0.3397">
        <ele>67.7891</ele>
        <time>2011-07-03T14:22:48Z</time>
      </trkpt>
      <trkpt lat="46.30092" lon="-0.3397">
        <ele>67.8297</ele>
        <time>2011-07-03T14:22:49Z</time>
      </trkpt>
      <trkpt lat="46.30094" lon="-0.3397">
        <ele>67.8686</ele>
        <time>2011-07-03T14:22:50Z</time>
      </trkpt>
      <trkpt lat="46.30095" lon="-0.3397">
        <ele>67.9074</ele>
        <time>2011-07-03T14:22:51Z</time>
      </trkpt>
      <trkpt lat="46.30096" lon="-0.3397">
        <ele>67.9477</ele>
        <time>2011-07-03T14:22:52Z</time>
      </trkpt>
      <trkpt lat="46.30097" lon="-0.3397">
        <ele>67.9861</ele>
        <time>2011-07-03T14:22:53Z</time>
      </trkpt>
      <trkpt lat="46.30098" lon="-0.3397">
        <ele>68.0237</ele>
        <time>2011-07-03T14:22:54Z</time>
      </trkpt>
      <trkpt lat="46.301" lon="-0.3397">
        <ele>68.0608</ele>
        <time>2011-07-03T14:22:55Z</time>
      </trkpt>
      <trkpt lat="46.30101" lon="-0.3397">
        <ele>68.0976</ele>
        <time>2011-07-03T14:22:56Z</time>
      </trkpt>
      <trkpt lat="46.30102" lon="-0.3397">
        <ele>68.1258</ele>
        <time>2011-07-03T14:22:57Z</time>
      </trkpt>
      <trkpt lat="46.30103" lon="-0.3397">
        <ele>68.1536</ele>
        <time>2011-07-03T14:22:58Z</time>
      </trkpt>
      <trkpt lat="46.30104" lon="-0.3397">
        <ele>68.1766</ele>
        <time>2011-07-03T14:22:59Z</time>
      </trkpt>
      <trkpt lat="46.30106" lon="-0.3397">
        <ele>68.1961</ele>
        <time>2011-07-03T14:23:00Z</time>
      </trkpt>
      <trkpt lat="46.30107" lon="-0.33969">
        <ele>68.2091</ele>
        <time>2011-07-03T14:23:01Z</time>
      </trkpt>
      <trkpt lat="46.30108" lon="-0.33969">
        <ele>68.2182</ele>
        <time>2011-07-03T14:23:02Z</time>
      </trkpt>
      <trkpt lat="46.30109" lon="-0.33968">
        <ele>68.2269</ele>
        <time>2011-07-03T14:23:03Z</time>
      </trkpt>
      <trkpt lat="46.30111" lon="-0.33968">
        <ele>68.2352</ele>
        <time>2011-07-03T14:23:04Z</time>
      </trkpt>
      <trkpt lat="46.30112" lon="-0.33967">
        <ele>68.2423</ele>
        <time>2011-07-03T14:23:05Z</time>
      </trkpt>
      <trkpt lat="46.30113" lon="-0.33967">
        <ele>68.2497</ele>
        <time>2011-07-03T14:23:06Z</time>
      </trkpt>
      <trkpt lat="46.30114" lon="-0.33967">
        <ele>68.2556</ele>
        <time>2011-07-03T14:23:07Z</time>
      </trkpt>
      <trkpt lat="46.30116" lon="-0.33967">
        <ele>68.2587</ele>
        <time>2011-07-03T14:23:08Z</time>
      </trkpt>
      <trkpt lat="46.30117" lon="-0.33967">
        <ele>68.2603</ele>
        <time>2011-07-03T14:23:09Z</time>
      </trkpt>
      <trkpt lat="46.30118" lon="-0.33967">
        <ele>68.2599</ele>
        <time>2011-07-03T14:23:10Z</time>
      </trkpt>
      <trkpt lat="46.30119" lon="-0.33967">
        <ele>68.2552</ele>
        <time>2011-07-03T14:23:11Z</time>
      </trkpt>
      <trkpt lat="46.30121" lon="-0.33967">
        <ele>68.2478</ele>
        <time>2011-07-03T14:23:12Z</time>
      </trkpt>
      <trkpt lat="46.30122" lon="-0.33967">
        <ele>68.2399</ele>
        <time>2011-07-03T14:23:13Z</time>
      </trkpt>
      <trkpt lat="46.30123" lon="-0.33967">
        <ele>68.2321</ele>
        <time>2011-07-03T14:23:14Z</time>
      </trkpt>
      <trkpt lat="46.30124" lon="-0.33967">
        <ele>68.2244</ele>
        <time>2011-07-03T14:23:15Z</time>
      </trkpt>
      <trkpt lat="46.30126" lon="-0.33967">
        <ele>68.2169</ele>
        <time>2011-07-03T14:23:16Z</time>
      </trkpt>
      <trkpt lat="46.30127" lon="-0.33967">
        <ele>68.208</ele>
        <time>2011-07-03T14:23:17Z</time>
      </trkpt>
      <trkpt lat="46.30129" lon="-0.33966">
        <ele>68.1973</ele>
        <time>2011-07-03T14:23:18Z</time>
      </trkpt>
      <trkpt lat="46.3013" lon="-0.33966">
        <ele>68.1843</ele>
        <time>2011-07-03T14:23:19Z</time>
      </trkpt>
      <trkpt lat="46.30131" lon="-0.33966">
        <ele>68.1701</ele>
        <time>2011-07-03T14:23:20Z</time>
      </trkpt>
      <trkpt lat="46.30132" lon="-0.33966">
        <ele>68.156</ele>
        <time>2011-07-03T14:23:21Z</time>
      </trkpt>
      <trkpt lat="46.30133" lon="-0.33966">
        <ele>68.1411</ele>
        <time>2011-07-03T14:23:22Z</time>
      </trkpt>
      <trkpt lat="46.30135" lon="-0.33966">
        <ele>68.1284</ele>
        <time>2011-07-03T14:23:23Z</time>
      </trkpt>
      <trkpt lat="46.30136" lon="-0.33965">
        <ele>68.1138</ele>
        <time>2011-07-03T14:23:24Z</time>
      </trkpt>
      <trkpt lat="46.30138" lon="-0.33965">
        <ele>68.1004</ele>
        <time>2011-07-03T14:23:25Z</time>
      </trkpt>
      <trkpt lat="46.30139" lon="-0.33964">
        <ele>68.0853</ele>
        <time>2011-07-03T14:23:26Z</time>
      </trkpt>
      <trkpt lat="46.3014" lon="-0.33964">
        <ele>68.0682</ele>
        <time>2011-07-03T14:23:27Z</time>
      </trkpt>
      <trkpt lat="46.30142" lon="-0.33963">
        <ele>68.0511</ele>
        <time>2011-07-03T14:23:28Z</time>
      </trkpt>
      <trkpt lat="46.30143" lon="-0.33963">
        <ele>68.033</ele>
        <time>2011-07-03T14:23:29Z</time>
      </trkpt>
      <trkpt lat="46.30145" lon="-0.33963">
        <ele>68.0115</ele>
        <time>2011-07-03T14:23:30Z</time>
      </trkpt>
      <trkpt lat="46.30146" lon="-0.33963">
        <ele>67.9871</ele>
        <time>2011-07-03T14:23:31Z</time>
      </trkpt>
      <trkpt lat="46.30147" lon="-0.33963">
        <ele>67.9595</ele>
        <time>2011-07-03T14:23:32Z</time>
      </trkpt>
      <trkpt lat="46.30149" lon="-0.33963">
        <ele>67.9309</ele>
        <time>2011-07-03T14:23:33Z</time>
      </trkpt>
      <trkpt lat="46.3015" lon="-0.33963">
        <ele>67.9028</ele>
        <time>2011-07-03T14:23:34Z</time>
      </trkpt>
      <trkpt lat="46.30152" lon="-0.33963">
        <ele>67.8698</ele>
        <time>2011-07-03T14:23:35Z</time>
      </trkpt>
      <trkpt lat="46.30153" lon="-0.33963">
        <ele>67.836</ele>
        <time>2011-07-03T14:23:36Z</time>
      </trkpt>
      <trkpt lat="46.30154" lon="-0.33963">
        <ele>67.8019</ele>
        <time>2011-07-03T14:23:37Z</time>
      </trkpt>
      <trkpt lat="46.30156" lon="-0.33963">
        <ele>67.7659</ele>
        <time>2011-07-03T14:23:38Z</time>
      </trkpt>
      <trkpt lat="46.30158" lon="-0.33962">
        <ele>67.7241</ele>
        <time>2011-07-03T14:23:39Z</time>
      </trkpt>
      <trkpt lat="46.30159" lon="-0.33962">
        <ele>67.6808</ele>
        <time>2011-07-03T14:23:40Z</time>
      </trkpt>
      <trkpt lat="46.3016" lon="-0.33962">
        <ele>67.6309</ele>
        <time>2011-07-03T14:23:41Z</time>
      </trkpt>
      <trkpt lat="46.30162" lon="-0.33962">
        <ele>67.5808</ele>
        <time>2011-07-03T14:23:42Z</time>
      </trkpt>
      <trkpt lat="46.30163" lon="-0.33962">
        <ele>67.5321</ele>
        <time>2011-07-03T14:23:43Z</time>
      </trkpt>
      <trkpt lat="46.30164" lon="-0.33962">
        <ele>67.485</ele>
        <time>2011-07-03T14:23:44Z</time>
      </trkpt>
      <trkpt lat="46.30166" lon="-0.33962">
        <ele>67.44</ele>
        <time>2011-07-03T14:23:45Z</time>
      </trkpt>
      <trkpt lat="46.30167" lon="-0.33962">
        <ele>67.3974</ele>
        <time>2011-07-03T14:23:46Z</time>
      </trkpt>
      <trkpt lat="46.30169" lon="-0.33962">
        <ele>67.3588</ele>
        <time>2011-07-03T14:23:47Z</time>
      </trkpt>
      <trkpt lat="46.30171" lon="-0.33963">
        <ele>67.3182</ele>
        <time>2011-07-03T14:23:48Z</time>
      </trkpt>
      <trkpt lat="46.30172" lon="-0.33963">
        <ele>67.2722</ele>
        <time>2011-07-03T14:23:49Z</time>
      </trkpt>
      <trkpt lat="46.30174" lon="-0.33962">
        <ele>67.2164</ele>
        <time>2011-07-03T14:23:50Z</time>
      </trkpt>
      <trkpt lat="46.30175" lon="-0.33962">
        <ele>67.1578</ele>
        <time>2011-07-03T14:23:51Z</time>
      </trkpt>
      <trkpt lat="46.30177" lon="-0.33961">
        <ele>67.097</ele>
        <time>2011-07-03T14:23:52Z</time>
      </trkpt>
      <trkpt lat="46.30178" lon="-0.33961">
        <ele>67.0413</ele>
        <time>2011-07-03T14:23:53Z</time>
      </trkpt>
      <trkpt lat="46.30179" lon="-0.3396">
        <ele>66.9865</ele>
        <time>2011-07-03T14:23:54Z</time>
      </trkpt>
      <trkpt lat="46.3018" lon="-0.3396">
        <ele>66.9321</ele>
        <time>2011-07-03T14:23:55Z</time>
      </trkpt>
      <trkpt lat="46.30182" lon="-0.3396">
        <ele>66.8782</ele>
        <time>2011-07-03T14:23:56Z</time>
      </trkpt>
      <trkpt lat="46.30183" lon="-0.3396">
        <ele>66.8251</ele>
        <time>2011-07-03T14:23:57Z</time>
      </trkpt>
      <trkpt lat="46.30185" lon="-0.3396">
        <ele>66.7722</ele>
        <time>2011-07-03T14:23:58Z</time>
      </trkpt>
      <trkpt lat="46.30186" lon="-0.33961">
        <ele>66.7201</ele>
        <time>2011-07-03T14:23:59Z</time>
      </trkpt>
      <trkpt lat="46.30188" lon="-0.33961">
        <ele>66.6688</ele>
        <time>2011-07-03T14:24:00Z</time>
      </trkpt>
      <trkpt lat="46.30189" lon="-0.33961">
        <ele>66.6176</ele>
        <time>2011-07-03T14:24:01Z</time>
      </trkpt>
      <trkpt lat="46.30191" lon="-0.3396">
        <ele>66.5651</ele>
        <time>2011-07-03T14:24:02Z</time>
      </trkpt>
      <trkpt lat="46.30192" lon="-0.3396">
        <ele>66.5126</ele>
        <time>2011-07-03T14:24:03Z</time>
      </trkpt>
      <trkpt lat="46.30194" lon="-0.3396">
        <ele>66.4603</ele>
        <time>2011-07-03T14:24:04Z</time>
      </trkpt>
      <trkpt lat="46.30195" lon="-0.3396">
        <ele>66.4086</ele>
        <time>2011-07-03T14:24:05Z</time>
      </trkpt>
      <trkpt lat="46.30196" lon="-0.3396">
        <ele>66.3561</ele>
        <time>2011-07-03T14:24:06Z</time>
      </trkpt>
      <trkpt lat="46.30198" lon="-0.3396">
        <ele>66.3047</ele>
        <time>2011-07-03T14:24:07Z</time>
      </trkpt>
      <trkpt lat="46.30199" lon="-0.3396">
        <ele>66.2539</ele>
        <time>2011-07-03T14:24:08Z</time>
      </trkpt>
      <trkpt lat="46.30201" lon="-0.3396">
        <ele>66.2045</ele>
        <time>2011-07-03T14:24:09Z</time>
      </trkpt>
      <trkpt lat="46.30202" lon="-0.3396">
        <ele>66.1497</ele>
        <time>2011-07-03T14:24:10Z</time>
      </trkpt>
      <trkpt lat="46.30203" lon="-0.3396">
        <ele>66.0928</ele>
        <time>2011-07-03T14:24:11Z</time>
      </trkpt>
      <trkpt lat="46.30204" lon="-0.33959">
        <ele>66.0365</ele>
        <time>2011-07-03T14:24:12Z</time>
      </trkpt>
      <trkpt lat="46.30206" lon="-0.3396">
        <ele>65.9819</ele>
        <time>2011-07-03T14:24:13Z</time>
      </trkpt>
      <trkpt lat="46.30207" lon="-0.3396">
        <ele>65.9275</ele>
        <time>2011-07-03T14:24:14Z</time>
      </trkpt>
      <trkpt lat="46.30209" lon="-0.3396">
        <ele>65.8734</ele>
        <time>2011-07-03T14:24:15Z</time>
      </trkpt>
      <trkpt lat="46.3021" lon="-0.3396">
        <ele>65.82</ele>
        <time>2011-07-03T14:24:16Z</time>
      </trkpt>
      <trkpt lat="46.30212" lon="-0.3396">
        <ele>65.7669</ele>
        <time>2011-07-03T14:24:17Z</time>
      </trkpt>
      <trkpt lat="46.30213" lon="-0.3396">
        <ele>65.7143</ele>
        <time>2011-07-03T14:24:18Z</time>
      </trkpt>
      <trkpt lat="46.30215" lon="-0.3396">
        <ele>65.6552</ele>
        <time>2011-07-03T14:24:19Z</time>
      </trkpt>
      <trkpt lat="46.30217" lon="-0.33959">
        <ele>65.5968</ele>
        <time>2011-07-03T14:24:20Z</time>
      </trkpt>
      <trkpt lat="46.30218" lon="-0.33959">
        <ele>65.5355</ele>
        <time>2011-07-03T14:24:21Z</time>
      </trkpt>
      <trkpt lat="46.3022" lon="-0.33959">
        <ele>65.4744</ele>
        <time>2011-07-03T14:24:22Z</time>
      </trkpt>
      <trkpt lat="46.30222" lon="-0.33959">
        <ele>65.4099</ele>
        <time>2011-07-03T14:24:23Z</time>
      </trkpt>
      <trkpt lat="46.30223" lon="-0.33959">
        <ele>65.3426</ele>
        <time>2011-07-03T14:24:24Z</time>
      </trkpt>
      <trkpt lat="46.30225" lon="-0.33959">
        <ele>65.2782</ele>
        <time>2011-07-03T14:24:25Z</time>
      </trkpt>
      <trkpt lat="46.30226" lon="-0.33958">
        <ele>65.2153</ele>
        <time>2011-07-03T14:24:26Z</time>
      </trkpt>
      <trkpt lat="46.30228" lon="-0.33958">
        <ele>65.1533</ele>
        <time>2011-07-03T14:24:27Z</time>
      </trkpt>
      <trkpt lat="46.30229" lon="-0.33958">
        <ele>65.0907</ele>
        <time>2011-07-03T14:24:28Z</time>
      </trkpt>
      <trkpt lat="46.30231" lon="-0.33958">
        <ele>65.0287</ele>
        <time>2011-07-03T14:24:29Z</time>
      </trkpt>
      <trkpt lat="46.30232" lon="-0.33958">
        <ele>64.9669</ele>
        <time>2011-07-03T14:24:30Z</time>
      </trkpt>
      <trkpt lat="46.30234" lon="-0.33958">
        <ele>64.9054</ele>
        <time>2011-07-03T14:24:31Z</time>
      </trkpt>
      <trkpt lat="46.30235" lon="-0.33958">
        <ele>64.8457</ele>
        <time>2011-07-03T14:24:32Z</time>
      </trkpt>
      <trkpt lat="46.30237" lon="-0.33959">
        <ele>64.7887</ele>
        <time>2011-07-03T14:24:33Z</time>
      </trkpt>
      <trkpt lat="46.30238" lon="-0.33959">
        <ele>64.7313</ele>
        <time>2011-07-03T14:24:34Z</time>
      </trkpt>
      <trkpt lat="46.3024" lon="-0.33959">
        <ele>64.6735</ele>
        <time>2011-07-03T14:24:35Z</time>
      </trkpt>
      <trkpt lat="46.30241" lon="-0.33959">
        <ele>64.6143</ele>
        <time>2011-07-03T14:24:36Z</time>
      </trkpt>
      <trkpt lat="46.30243" lon="-0.33959">
        <ele>64.5559</ele>
        <time>2011-07-03T14:24:37Z</time>
      </trkpt>
      <trkpt lat="46.30244" lon="-0.33959">
        <ele>64.4978</ele>
        <time>2011-07-03T14:24:38Z</time>
      </trkpt>
      <trkpt lat="46.30245" lon="-0.33959">
        <ele>64.4396</ele>
        <time>2011-07-03T14:24:39Z</time>
      </trkpt>
      <trkpt lat="46.30247" lon="-0.3396">
        <ele>64.3805</ele>
        <time>2011-07-03T14:24:40Z</time>
      </trkpt>
      <trkpt lat="46.30248" lon="-0.33959">
        <ele>64.3145</ele>
        <time>2011-07-03T14:24:41Z</time>
      </trkpt>
      <trkpt lat="46.30249" lon="-0.33959">
        <ele>64.2488</ele>
        <time>2011-07-03T14:24:42Z</time>
      </trkpt>
      <trkpt lat="46.30251" lon="-0.3396">
        <ele>64.1824</ele>
        <time>2011-07-03T14:24:43Z</time>
      </trkpt>
      <trkpt lat="46.30253" lon="-0.3396">
        <ele>64.1107</ele>
        <time>2011-07-03T14:24:44Z</time>
      </trkpt>
      <trkpt lat="46.30254" lon="-0.3396">
        <ele>64.0364</ele>
        <time>2011-07-03T14:24:45Z</time>
      </trkpt>
      <trkpt lat="46.30255" lon="-0.3396">
        <ele>63.9598</ele>
        <time>2011-07-03T14:24:46Z</time>
      </trkpt>
      <trkpt lat="46.30256" lon="-0.3396">
        <ele>63.88</ele>
        <time>2011-07-03T14:24:47Z</time>
      </trkpt>
      <trkpt lat="46.30257" lon="-0.3396">
        <ele>63.7993</ele>
        <time>2011-07-03T14:24:48Z</time>
      </trkpt>
      <trkpt lat="46.30259" lon="-0.33961">
        <ele>63.7179</ele>
        <time>2011-07-03T14:24:49Z</time>
      </trkpt>
      <trkpt lat="46.30261" lon="-0.33961">
        <ele>63.6361</ele>
        <time>2011-07-03T14:24:50Z</time>
      </trkpt>
      <trkpt lat="46.30262" lon="-0.33961">
        <ele>63.554</ele>
        <time>2011-07-03T14:24:51Z</time>
      </trkpt>
      <trkpt lat="46.30263" lon="-0.33962">
        <ele>63.4722</ele>
        <time>2011-07-03T14:24:52Z</time>
      </trkpt>
      <trkpt lat="46.30265" lon="-0.33962">
        <ele>63.3897</ele>
        <time>2011-07-03T14:24:53Z</time>
      </trkpt>
      <trkpt lat="46.30266" lon="-0.33963">
        <ele>63.3063</ele>
        <time>2011-07-03T14:24:54Z</time>
      </trkpt>
      <trkpt lat="46.30267" lon="-0.33963">
        <ele>63.2255</ele>
        <time>2011-07-03T14:24:55Z</time>
      </trkpt>
      <trkpt lat="46.30268" lon="-0.33964">
        <ele>63.1432</ele>
        <time>2011-07-03T14:24:56Z</time>
      </trkpt>
      <trkpt lat="46.3027" lon="-0.33964">
        <ele>63.0604</ele>
        <time>2011-07-03T14:24:57Z</time>
      </trkpt>
      <trkpt lat="46.30271" lon="-0.33965">
        <ele>62.9769</ele>
        <time>2011-07-03T14:24:58Z</time>
      </trkpt>
      <trkpt lat="46.30272" lon="-0.33966">
        <ele>62.8911</ele>
        <time>2011-07-03T14:24:59Z</time>
      </trkpt>
      <trkpt lat="46.30273" lon="-0.33966">
        <ele>62.8041</ele>
        <time>2011-07-03T14:25:00Z</time>
      </trkpt>
      <trkpt lat="46.30275" lon="-0.33967">
        <ele>62.7192</ele>
        <time>2011-07-03T14:25:01Z</time>
      </trkpt>
      <trkpt lat="46.30276" lon="-0.33967">
        <ele>62.6336</ele>
        <time>2011-07-03T14:25:02Z</time>
      </trkpt>
      <trkpt lat="46.30277" lon="-0.33968">
        <ele>62.5491</ele>
        <time>2011-07-03T14:25:03Z</time>
      </trkpt>
      <trkpt lat="46.30278" lon="-0.33968">
        <ele>62.4653</ele>
        <time>2011-07-03T14:25:04Z</time>
      </trkpt>
      <trkpt lat="46.3028" lon="-0.33969">
        <ele>62.384</ele>
        <time>2011-07-03T14:25:05Z</time>
      </trkpt>
      <trkpt lat="46.30281" lon="-0.33969">
        <ele>62.3042</ele>
        <time>2011-07-03T14:25:06Z</time>
      </trkpt>
      <trkpt lat="46.30282" lon="-0.3397">
        <ele>62.2261</ele>
        <time>2011-07-03T14:25:07Z</time>
      </trkpt>
      <trkpt lat="46.30283" lon="-0.3397">
        <ele>62.1495</ele>
        <time>2011-07-03T14:25:08Z</time>
      </trkpt>
      <trkpt lat="46.30285" lon="-0.33971">
        <ele>62.0757</ele>
        <time>2011-07-03T14:25:09Z</time>
      </trkpt>
      <trkpt lat="46.30286" lon="-0.33971">
        <ele>62.0006</ele>
        <time>2011-07-03T14:25:10Z</time>
      </trkpt>
      <trkpt lat="46.30288" lon="-0.33972">
        <ele>61.926</ele>
        <time>2011-07-03T14:25:11Z</time>
      </trkpt>
      <trkpt lat="46.30289" lon="-0.33973">
        <ele>61.8515</ele>
        <time>2011-07-03T14:25:12Z</time>
      </trkpt>
      <trkpt lat="46.30291" lon="-0.33973">
        <ele>61.7718</ele>
        <time>2011-07-03T14:25:13Z</time>
      </trkpt>
      <trkpt lat="46.30292" lon="-0.33974">
        <ele>61.6919</ele>
        <time>2011-07-03T14:25:14Z</time>
      </trkpt>
      <trkpt lat="46.30294" lon="-0.33974">
        <ele>61.61</ele>
        <time>2011-07-03T14:25:15Z</time>
      </trkpt>
      <trkpt lat="46.30295" lon="-0.33974">
        <ele>61.5227</ele>
        <time>2011-07-03T14:25:16Z</time>
      </trkpt>
      <trkpt lat="46.30297" lon="-0.33974">
        <ele>61.4396</ele>
        <time>2011-07-03T14:25:17Z</time>
      </trkpt>
      <trkpt lat="46.30298" lon="-0.33974">
        <ele>61.3607</ele>
        <time>2011-07-03T14:25:18Z</time>
      </trkpt>
      <trkpt lat="46.30299" lon="-0.33975">
        <ele>61.2829</ele>
        <time>2011-07-03T14:25:19Z</time>
      </trkpt>
      <trkpt lat="46.30301" lon="-0.33975">
        <ele>61.2066</ele>
        <time>2011-07-03T14:25:20Z</time>
      </trkpt>
      <trkpt lat="46.30302" lon="-0.33976">
        <ele>61.1336</ele>
        <time>2011-07-03T14:25:21Z</time>
      </trkpt>
      <trkpt lat="46.30303" lon="-0.33977">
        <ele>61.0628</ele>
        <time>2011-07-03T14:25:22Z</time>
      </trkpt>
      <trkpt lat="46.30304" lon="-0.33977">
        <ele>60.9936</ele>
        <time>2011-07-03T14:25:23Z</time>
      </trkpt>
      <trkpt lat="46.30306" lon="-0.33978">
        <ele>60.9267</ele>
        <time>2011-07-03T14:25:24Z</time>
      </trkpt>
      <trkpt lat="46.30307" lon="-0.33979">
        <ele>60.8626</ele>
        <time>2011-07-03T14:25:25Z</time>
      </trkpt>
      <trkpt lat="46.30308" lon="-0.3398">
        <ele>60.8032</ele>
        <time>2011-07-03T14:25:26Z</time>
      </trkpt>
      <trkpt lat="46.30309" lon="-0.3398">
        <ele>60.7448</ele>
        <time>2011-07-03T14:25:27Z</time>
      </trkpt>
      <trkpt lat="46.3031" lon="-0.33981">
        <ele>60.688</ele>
        <time>2011-07-03T14:25:28Z</time>
      </trkpt>
      <trkpt lat="46.30312" lon="-0.33982">
        <ele>60.6332</ele>
        <time>2011-07-03T14:25:29Z</time>
      </trkpt>
      <trkpt lat="46.30313" lon="-0.33983">
        <ele>60.5796</ele>
        <time>2011-07-03T14:25:30Z</time>
      </trkpt>
      <trkpt lat="46.30314" lon="-0.33983">
        <ele>60.5263</ele>
        <time>2011-07-03T14:25:31Z</time>
      </trkpt>
      <trkpt lat="46.30315" lon="-0.33984">
        <ele>60.4723</ele>
        <time>2011-07-03T14:25:32Z</time>
      </trkpt>
      <trkpt lat="46.30317" lon="-0.33985">
        <ele>60.4195</ele>
        <time>2011-07-03T14:25:33Z</time>
      </trkpt>
      <trkpt lat="46.30318" lon="-0.33986">
        <ele>60.3749</ele>
        <time>2011-07-03T14:25:34Z</time>
      </trkpt>
      <trkpt lat="46.30319" lon="-0.33987">
        <ele>60.3315</ele>
        <time>2011-07-03T14:25:35Z</time>
      </trkpt>
      <trkpt lat="46.3032" lon="-0.33989">
        <ele>60.2898</ele>
        <time>2011-07-03T14:25:36Z</time>
      </trkpt>
      <trkpt lat="46.30322" lon="-0.3399">
        <ele>60.2489</ele>
        <time>2011-07-03T14:25:37Z</time>
      </trkpt>
      <trkpt lat="46.30323" lon="-0.3399">
        <ele>60.21</ele>
        <time>2011-07-03T14:25:38Z</time>
      </trkpt>
      <trkpt lat="46.30324" lon="-0.33991">
        <ele>60.177</ele>
        <time>2011-07-03T14:25:39Z</time>
      </trkpt>
      <trkpt lat="46.30325" lon="-0.33992">
        <ele>60.1445</ele>
        <time>2011-07-03T14:25:40Z</time>
      </trkpt>
      <trkpt lat="46.30327" lon="-0.33993">
        <ele>60.113</ele>
        <time>2011-07-03T14:25:41Z</time>
      </trkpt>
      <trkpt lat="46.30328" lon="-0.33993">
        <ele>60.0914</ele>
        <time>2011-07-03T14:25:42Z</time>
      </trkpt>
      <trkpt lat="46.3033" lon="-0.33994">
        <ele>60.0707</ele>
        <time>2011-07-03T14:25:43Z</time>
      </trkpt>
      <trkpt lat="46.30331" lon="-0.33995">
        <ele>60.0545</ele>
        <time>2011-07-03T14:25:44Z</time>
      </trkpt>
      <trkpt lat="46.30333" lon="-0.33996">
        <ele>60.0384</ele>
        <time>2011-07-03T14:25:45Z</time>
      </trkpt>
      <trkpt lat="46.30334" lon="-0.33997">
        <ele>60.0285</ele>
        <time>2011-07-03T14:25:46Z</time>
      </trkpt>
      <trkpt lat="46.30335" lon="-0.33998">
        <ele>60.0182</ele>
        <time>2011-07-03T14:25:47Z</time>
      </trkpt>
      <trkpt lat="46.30337" lon="-0.33998">
        <ele>60.0063</ele>
        <time>2011-07-03T14:25:48Z</time>
      </trkpt>
      <trkpt lat="46.30338" lon="-0.33999">
        <ele>59.9962</ele>
        <time>2011-07-03T14:25:49Z</time>
      </trkpt>
      <trkpt lat="46.30339" lon="-0.34">
        <ele>59.9901</ele>
        <time>2011-07-03T14:25:50Z</time>
      </trkpt>
      <trkpt lat="46.3034" lon="-0.34001">
        <ele>59.9852</ele>
        <time>2011-07-03T14:25:51Z</time>
      </trkpt>
      <trkpt lat="46.30341" lon="-0.34001">
        <ele>59.9843</ele>
        <time>2011-07-03T14:25:52Z</time>
      </trkpt>
      <trkpt lat="46.30343" lon="-0.34002">
        <ele>59.9873</ele>
        <time>2011-07-03T14:25:53Z</time>
      </trkpt>
      <trkpt lat="46.30344" lon="-0.34003">
        <ele>59.9924</ele>
        <time>2011-07-03T14:25:54Z</time>
      </trkpt>
      <trkpt lat="46.30345" lon="-0.34004">
        <ele>60.0055</ele>
        <time>2011-07-03T14:25:55Z</time>
      </trkpt>
      <trkpt lat="46.30346" lon="-0.34006">
        <ele>60.018</ele>
        <time>2011-07-03T14:25:56Z</time>
      </trkpt>
      <trkpt lat="46.30347" lon="-0.34007">
        <ele>60.0288</ele>
        <time>2011-07-03T14:25:57Z</time>
      </trkpt>
      <trkpt lat="46.30347" lon="-0.34008">
        <ele>60.0401</ele>
        <time>2011-07-03T14:25:58Z</time>
      </trkpt>
      <trkpt lat="46.30348" lon="-0.3401">
        <ele>60.0518</ele>
        <time>2011-07-03T14:25:59Z</time>
      </trkpt>
      <trkpt lat="46.30349" lon="-0.34012">
        <ele>60.0631</ele>
        <time>2011-07-03T14:26:00Z</time>
      </trkpt>
      <trkpt lat="46.30351" lon="-0.34013">
        <ele>60.0747</ele>
        <time>2011-07-03T14:26:01Z</time>
      </trkpt>
      <trkpt lat="46.30352" lon="-0.34014">
        <ele>60.0862</ele>
        <time>2011-07-03T14:26:02Z</time>
      </trkpt>
      <trkpt lat="46.30353" lon="-0.34016">
        <ele>60.099</ele>
        <time>2011-07-03T14:26:03Z</time>
      </trkpt>
      <trkpt lat="46.30354" lon="-0.34017">
        <ele>60.1123</ele>
        <time>2011-07-03T14:26:04Z</time>
      </trkpt>
      <trkpt lat="46.30356" lon="-0.34018">
        <ele>60.1255</ele>
        <time>2011-07-03T14:26:05Z</time>
      </trkpt>
      <trkpt lat="46.30357" lon="-0.34019">
        <ele>60.1392</ele>
        <time>2011-07-03T14:26:06Z</time>
      </trkpt>
      <trkpt lat="46.30357" lon="-0.3402">
        <ele>60.1528</ele>
        <time>2011-07-03T14:26:07Z</time>
      </trkpt>
      <trkpt lat="46.30359" lon="-0.34022">
        <ele>60.1673</ele>
        <time>2011-07-03T14:26:08Z</time>
      </trkpt>
      <trkpt lat="46.3036" lon="-0.34022">
        <ele>60.1848</ele>
        <time>2011-07-03T14:26:09Z</time>
      </trkpt>
      <trkpt lat="46.30361" lon="-0.34023">
        <ele>60.2058</ele>
        <time>2011-07-03T14:26:10Z</time>
      </trkpt>
      <trkpt lat="46.30362" lon="-0.34024">
        <ele>60.227</ele>
        <time>2011-07-03T14:26:11Z</time>
      </trkpt>
      <trkpt lat="46.30363" lon="-0.34025">
        <ele>60.2494</ele>
        <time>2011-07-03T14:26:12Z</time>
      </trkpt>
      <trkpt lat="46.30364" lon="-0.34026">
        <ele>60.279</ele>
        <time>2011-07-03T14:26:13Z</time>
      </trkpt>
      <trkpt lat="46.30365" lon="-0.34027">
        <ele>60.3094</ele>
        <time>2011-07-03T14:26:14Z</time>
      </trkpt>
      <trkpt lat="46.30367" lon="-0.34028">
        <ele>60.3416</ele>
        <time>2011-07-03T14:26:15Z</time>
      </trkpt>
      <trkpt lat="46.30368" lon="-0.34029">
        <ele>60.3747</ele>
        <time>2011-07-03T14:26:16Z</time>
      </trkpt>
      <trkpt lat="46.30369" lon="-0.3403">
        <ele>60.4067</ele>
        <time>2011-07-03T14:26:17Z</time>
      </trkpt>
      <trkpt lat="46.3037" lon="-0.34031">
        <ele>60.4388</ele>
        <time>2011-07-03T14:26:18Z</time>
      </trkpt>
      <trkpt lat="46.30371" lon="-0.34032">
        <ele>60.4722</ele>
        <time>2011-07-03T14:26:19Z</time>
      </trkpt>
      <trkpt lat="46.30372" lon="-0.34034">
        <ele>60.5065</ele>
        <time>2011-07-03T14:26:20Z</time>
      </trkpt>
      <trkpt lat="46.30373" lon="-0.34035">
        <ele>60.5411</ele>
        <time>2011-07-03T14:26:21Z</time>
      </trkpt>
      <trkpt lat="46.30375" lon="-0.34037">
        <ele>60.5778</ele>
        <time>2011-07-03T14:26:22Z</time>
      </trkpt>
      <trkpt lat="46.30376" lon="-0.34038">
        <ele>60.6148</ele>
        <time>2011-07-03T14:26:23Z</time>
      </trkpt>
      <trkpt lat="46.30377" lon="-0.3404">
        <ele>60.649</ele>
        <time>2011-07-03T14:26:24Z</time>
      </trkpt>
      <trkpt lat="46.30378" lon="-0.34041">
        <ele>60.6834</ele>
        <time>2011-07-03T14:26:25Z</time>
      </trkpt>
      <trkpt lat="46.3038" lon="-0.34042">
        <ele>60.7209</ele>
        <time>2011-07-03T14:26:26Z</time>
      </trkpt>
      <trkpt lat="46.30381" lon="-0.34043">
        <ele>60.759</ele>
        <time>2011-07-03T14:26:27Z</time>
      </trkpt>
      <trkpt lat="46.30382" lon="-0.34044">
        <ele>60.8039</ele>
        <time>2011-07-03T14:26:28Z</time>
      </trkpt>
      <trkpt lat="46.30383" lon="-0.34046">
        <ele>60.8571</ele>
        <time>2011-07-03T14:26:29Z</time>
      </trkpt>
      <trkpt lat="46.30384" lon="-0.34047">
        <ele>60.9086</ele>
        <time>2011-07-03T14:26:30Z</time>
      </trkpt>
      <trkpt lat="46.30385" lon="-0.34048">
        <ele>60.9536</ele>
        <time>2011-07-03T14:26:31Z</time>
      </trkpt>
      <trkpt lat="46.30386" lon="-0.34049">
        <ele>60.994</ele>
        <time>2011-07-03T14:26:32Z</time>
      </trkpt>
      <trkpt lat="46.30388" lon="-0.34051">
        <ele>61.0334</ele>
        <time>2011-07-03T14:26:33Z</time>
      </trkpt>
      <trkpt lat="46.30389" lon="-0.34052">
        <ele>61.0721</ele>
        <time>2011-07-03T14:26:34Z</time>
      </trkpt>
      <trkpt lat="46.3039" lon="-0.34053">
        <ele>61.1108</ele>
        <time>2011-07-03T14:26:35Z</time>
      </trkpt>
      <trkpt lat="46.30391" lon="-0.34054">
        <ele>61.1487</ele>
        <time>2011-07-03T14:26:36Z</time>
      </trkpt>
      <trkpt lat="46.30393" lon="-0.34055">
        <ele>61.1867</ele>
        <time>2011-07-03T14:26:37Z</time>
      </trkpt>
      <trkpt lat="46.30394" lon="-0.34056">
        <ele>61.225</ele>
        <time>2011-07-03T14:26:38Z</time>
      </trkpt>
      <trkpt lat="46.30395" lon="-0.34057">
        <ele>61.2634</ele>
        <time>2011-07-03T14:26:39Z</time>
      </trkpt>
      <trkpt lat="46.30396" lon="-0.34058">
        <ele>61.3045</ele>
        <time>2011-07-03T14:26:40Z</time>
      </trkpt>
      <trkpt lat="46.30397" lon="-0.34059">
        <ele>61.35</ele>
        <time>2011-07-03T14:26:41Z</time>
      </trkpt>
      <trkpt lat="46.30399" lon="-0.3406">
        <ele>61.3931</ele>
        <time>2011-07-03T14:26:42Z</time>
      </trkpt>
      <trkpt lat="46.304" lon="-0.34061">
        <ele>61.4381</ele>
        <time>2011-07-03T14:26:43Z</time>
      </trkpt>
      <trkpt lat="46.30401" lon="-0.34062">
        <ele>61.4778</ele>
        <time>2011-07-03T14:26:44Z</time>
      </trkpt>
      <trkpt lat="46.30402" lon="-0.34063">
        <ele>61.5104</ele>
        <time>2011-07-03T14:26:45Z</time>
      </trkpt>
      <trkpt lat="46.30402" lon="-0.34065">
        <ele>61.5432</ele>
        <time>2011-07-03T14:26:46Z</time>
      </trkpt>
      <trkpt lat="46.30404" lon="-0.34067">
        <ele>61.5751</ele>
        <time>2011-07-03T14:26:47Z</time>
      </trkpt>
      <trkpt lat="46.30405" lon="-0.34068">
        <ele>61.6056</ele>
        <time>2011-07-03T14:26:48Z</time>
      </trkpt>
      <trkpt lat="46.30406" lon="-0.34069">
        <ele>61.6328</ele>
        <time>2011-07-03T14:26:49Z</time>
      </trkpt>
      <trkpt lat="46.30407" lon="-0.3407">
        <ele>61.6598</ele>
        <time>2011-07-03T14:26:50Z</time>
      </trkpt>
      <trkpt lat="46.30409" lon="-0.34071">
        <ele>61.6851</ele>
        <time>2011-07-03T14:26:51Z</time>
      </trkpt>
      <trkpt lat="46.30409" lon="-0.34072">
        <ele>61.7111</ele>
        <time>2011-07-03T14:26:52Z</time>
      </trkpt>
      <trkpt lat="46.30411" lon="-0.34073">
        <ele>61.7422</ele>
        <time>2011-07-03T14:26:53Z</time>
      </trkpt>
      <trkpt lat="46.30412" lon="-0.34074">
        <ele>61.7748</ele>
        <time>2011-07-03T14:26:54Z</time>
      </trkpt>
      <trkpt lat="46.30413" lon="-0.34075">
        <ele>61.8054</ele>
        <time>2011-07-03T14:26:55Z</time>
      </trkpt>
      <trkpt lat="46.30415" lon="-0.34075">
        <ele>61.836</ele>
        <time>2011-07-03T14:26:56Z</time>
      </trkpt>
      <trkpt lat="46.30417" lon="-0.34074">
        <ele>61.8674</ele>
        <time>2011-07-03T14:26:57Z</time>
      </trkpt>
      <trkpt lat="46.30418" lon="-0.34074">
        <ele>61.8982</ele>
        <time>2011-07-03T14:26:58Z</time>
      </trkpt>
      <trkpt lat="46.3042" lon="-0.34073">
        <ele>61.9302</ele>
        <time>2011-07-03T14:26:59Z</time>
      </trkpt>
      <trkpt lat="46.30421" lon="-0.34072">
        <ele>61.9617</ele>
        <time>2011-07-03T14:27:00Z</time>
      </trkpt>
      <trkpt lat="46.30423" lon="-0.34071">
        <ele>61.9922</ele>
        <time>2011-07-03T14:27:01Z</time>
      </trkpt>
      <trkpt lat="46.30424" lon="-0.3407">
        <ele>62.0245</ele>
        <time>2011-07-03T14:27:02Z</time>
      </trkpt>
      <trkpt lat="46.30426" lon="-0.34069">
        <ele>62.0569</ele>
        <time>2011-07-03T14:27:03Z</time>
      </trkpt>
      <trkpt lat="46.30428" lon="-0.34069">
        <ele>62.0841</ele>
        <time>2011-07-03T14:27:04Z</time>
      </trkpt>
      <trkpt lat="46.3043" lon="-0.34069">
        <ele>62.1116</ele>
        <time>2011-07-03T14:27:05Z</time>
      </trkpt>
      <trkpt lat="46.30431" lon="-0.34069">
        <ele>62.1358</ele>
        <time>2011-07-03T14:27:06Z</time>
      </trkpt>
      <trkpt lat="46.30433" lon="-0.34069">
        <ele>62.1593</ele>
        <time>2011-07-03T14:27:07Z</time>
      </trkpt>
      <trkpt lat="46.30434" lon="-0.3407">
        <ele>62.1837</ele>
        <time>2011-07-03T14:27:08Z</time>
      </trkpt>
      <trkpt lat="46.30435" lon="-0.3407">
        <ele>62.2089</ele>
        <time>2011-07-03T14:27:09Z</time>
      </trkpt>
      <trkpt lat="46.30436" lon="-0.34071">
        <ele>62.2378</ele>
        <time>2011-07-03T14:27:10Z</time>
      </trkpt>
      <trkpt lat="46.30436" lon="-0.34072">
        <ele>62.2721</ele>
        <time>2011-07-03T14:27:11Z</time>
      </trkpt>
      <trkpt lat="46.30437" lon="-0.34073">
        <ele>62.3075</ele>
        <time>2011-07-03T14:27:12Z</time>
      </trkpt>
      <trkpt lat="46.30438" lon="-0.34073">
        <ele>62.3424</ele>
        <time>2011-07-03T14:27:13Z</time>
      </trkpt>
      <trkpt lat="46.30439" lon="-0.34074">
        <ele>62.3775</ele>
        <time>2011-07-03T14:27:14Z</time>
      </trkpt>
      <trkpt lat="46.3044" lon="-0.34075">
        <ele>62.4111</ele>
        <time>2011-07-03T14:27:15Z</time>
      </trkpt>
      <trkpt lat="46.30441" lon="-0.34076">
        <ele>62.444</ele>
        <time>2011-07-03T14:27:16Z</time>
      </trkpt>
      <trkpt lat="46.30442" lon="-0.34077">
        <ele>62.4807</ele>
        <time>2011-07-03T14:27:17Z</time>
      </trkpt>
      <trkpt lat="46.30444" lon="-0.34078">
        <ele>62.5219</ele>
        <time>2011-07-03T14:27:18Z</time>
      </trkpt>
      <trkpt lat="46.30445" lon="-0.34078">
        <ele>62.5666</ele>
        <time>2011-07-03T14:27:19Z</time>
      </trkpt>
      <trkpt lat="46.30446" lon="-0.34079">
        <ele>62.6117</ele>
        <time>2011-07-03T14:27:20Z</time>
      </trkpt>
      <trkpt lat="46.30447" lon="-0.3408">
        <ele>62.6582</ele>
        <time>2011-07-03T14:27:21Z</time>
      </trkpt>
      <trkpt lat="46.30449" lon="-0.34081">
        <ele>62.7055</ele>
        <time>2011-07-03T14:27:22Z</time>
      </trkpt>
      <trkpt lat="46.3045" lon="-0.34082">
        <ele>62.754</ele>
        <time>2011-07-03T14:27:23Z</time>
      </trkpt>
      <trkpt lat="46.30451" lon="-0.34082">
        <ele>62.808</ele>
        <time>2011-07-03T14:27:24Z</time>
      </trkpt>
      <trkpt lat="46.30453" lon="-0.34083">
        <ele>62.8686</ele>
        <time>2011-07-03T14:27:25Z</time>
      </trkpt>
      <trkpt lat="46.30454" lon="-0.34084">
        <ele>62.931</ele>
        <time>2011-07-03T14:27:26Z</time>
      </trkpt>
      <trkpt lat="46.30455" lon="-0.34084">
        <ele>62.9923</ele>
        <time>2011-07-03T14:27:27Z</time>
      </trkpt>
      <trkpt lat="46.30457" lon="-0.34085">
        <ele>63.0531</ele>
        <time>2011-07-03T14:27:28Z</time>
      </trkpt>
      <trkpt lat="46.30458" lon="-0.34085">
        <ele>63.114</ele>
        <time>2011-07-03T14:27:29Z</time>
      </trkpt>
      <trkpt lat="46.30459" lon="-0.34086">
        <ele>63.1732</ele>
        <time>2011-07-03T14:27:30Z</time>
      </trkpt>
      <trkpt lat="46.3046" lon="-0.34087">
        <ele>63.2302</ele>
        <time>2011-07-03T14:27:31Z</time>
      </trkpt>
      <trkpt lat="46.30462" lon="-0.34087">
        <ele>63.2864</ele>
        <time>2011-07-03T14:27:32Z</time>
      </trkpt>
      <trkpt lat="46.30463" lon="-0.34088">
        <ele>63.3421</ele>
        <time>2011-07-03T14:27:33Z</time>
      </trkpt>
      <trkpt lat="46.30465" lon="-0.34088">
        <ele>63.3975</ele>
        <time>2011-07-03T14:27:34Z</time>
      </trkpt>
      <trkpt lat="46.30466" lon="-0.34089">
        <ele>63.452</ele>
        <time>2011-07-03T14:27:35Z</time>
      </trkpt>
      <trkpt lat="46.30467" lon="-0.34089">
        <ele>63.4997</ele>
        <time>2011-07-03T14:27:36Z</time>
      </trkpt>
      <trkpt lat="46.30469" lon="-0.34088">
        <ele>63.5431</ele>
        <time>2011-07-03T14:27:37Z</time>
      </trkpt>
      <trkpt lat="46.3047" lon="-0.34088">
        <ele>63.5861</ele>
        <time>2011-07-03T14:27:38Z</time>
      </trkpt>
      <trkpt lat="46.30471" lon="-0.34088">
        <ele>63.6225</ele>
        <time>2011-07-03T14:27:39Z</time>
      </trkpt>
      <trkpt lat="46.30473" lon="-0.34088">
        <ele>63.6547</ele>
        <time>2011-07-03T14:27:40Z</time>
      </trkpt>
      <trkpt lat="46.30475" lon="-0.34087">
        <ele>63.6865</ele>
        <time>2011-07-03T14:27:41Z</time>
      </trkpt>
      <trkpt lat="46.30476" lon="-0.34087">
        <ele>63.7195</ele>
        <time>2011-07-03T14:27:42Z</time>
      </trkpt>
      <trkpt lat="46.30477" lon="-0.34087">
        <ele>63.7593</ele>
        <time>2011-07-03T14:27:43Z</time>
      </trkpt>
      <trkpt lat="46.30478" lon="-0.34087">
        <ele>63.7985</ele>
        <time>2011-07-03T14:27:44Z</time>
      </trkpt>
      <trkpt lat="46.30479" lon="-0.34088">
        <ele>63.8462</ele>
        <time>2011-07-03T14:27:45Z</time>
      </trkpt>
      <trkpt lat="46.3048" lon="-0.34088">
        <ele>63.9046</ele>
        <time>2011-07-03T14:27:46Z</time>
      </trkpt>
      <trkpt lat="46.30481" lon="-0.34088">
        <ele>63.961</ele>
        <time>2011-07-03T14:27:47Z</time>
      </trkpt>
      <trkpt lat="46.30482" lon="-0.34089">
        <ele>64.0167</ele>
        <time>2011-07-03T14:27:48Z</time>
      </trkpt>
      <trkpt lat="46.30483" lon="-0.34089">
        <ele>64.0733</ele>
        <time>2011-07-03T14:27:49Z</time>
      </trkpt>
      <trkpt lat="46.30484" lon="-0.3409">
        <ele>64.1255</ele>
        <time>2011-07-03T14:27:50Z</time>
      </trkpt>
      <trkpt lat="46.30486" lon="-0.34091">
        <ele>64.1724</ele>
        <time>2011-07-03T14:27:51Z</time>
      </trkpt>
      <trkpt lat="46.30487" lon="-0.34092">
        <ele>64.215</ele>
        <time>2011-07-03T14:27:52Z</time>
      </trkpt>
      <trkpt lat="46.30488" lon="-0.34092">
        <ele>64.2571</ele>
        <time>2011-07-03T14:27:53Z</time>
      </trkpt>
      <trkpt lat="46.30489" lon="-0.34093">
        <ele>64.2984</ele>
        <time>2011-07-03T14:27:54Z</time>
      </trkpt>
      <trkpt lat="46.30491" lon="-0.34093">
        <ele>64.3369</ele>
        <time>2011-07-03T14:27:55Z</time>
      </trkpt>
      <trkpt lat="46.30492" lon="-0.34094">
        <ele>64.3759</ele>
        <time>2011-07-03T14:27:56Z</time>
      </trkpt>
      <trkpt lat="46.30494" lon="-0.34094">
        <ele>64.4163</ele>
        <time>2011-07-03T14:27:57Z</time>
      </trkpt>
      <trkpt lat="46.30495" lon="-0.34094">
        <ele>64.4589</ele>
        <time>2011-07-03T14:27:58Z</time>
      </trkpt>
      <trkpt lat="46.30497" lon="-0.34095">
        <ele>64.5047</ele>
        <time>2011-07-03T14:27:59Z</time>
      </trkpt>
      <trkpt lat="46.30498" lon="-0.34095">
        <ele>64.5543</ele>
        <time>2011-07-03T14:28:00Z</time>
      </trkpt>
      <trkpt lat="46.30499" lon="-0.34096">
        <ele>64.6057</ele>
        <time>2011-07-03T14:28:01Z</time>
      </trkpt>
      <trkpt lat="46.30501" lon="-0.34096">
        <ele>64.658</ele>
        <time>2011-07-03T14:28:02Z</time>
      </trkpt>
      <trkpt lat="46.30502" lon="-0.34097">
        <ele>64.7105</ele>
        <time>2011-07-03T14:28:03Z</time>
      </trkpt>
      <trkpt lat="46.30504" lon="-0.34097">
        <ele>64.7637</ele>
        <time>2011-07-03T14:28:04Z</time>
      </trkpt>
      <trkpt lat="46.30505" lon="-0.34097">
        <ele>64.8224</ele>
        <time>2011-07-03T14:28:05Z</time>
      </trkpt>
      <trkpt lat="46.30507" lon="-0.34098">
        <ele>64.882</ele>
        <time>2011-07-03T14:28:06Z</time>
      </trkpt>
      <trkpt lat="46.30508" lon="-0.34098">
        <ele>64.9413</ele>
        <time>2011-07-03T14:28:07Z</time>
      </trkpt>
      <trkpt lat="46.30509" lon="-0.34099">
        <ele>65.002</ele>
        <time>2011-07-03T14:28:08Z</time>
      </trkpt>
      <trkpt lat="46.30511" lon="-0.34099">
        <ele>65.0616</ele>
        <time>2011-07-03T14:28:09Z</time>
      </trkpt>
      <trkpt lat="46.30512" lon="-0.34099">
        <ele>65.1227</ele>
        <time>2011-07-03T14:28:10Z</time>
      </trkpt>
      <trkpt lat="46.30514" lon="-0.34099">
        <ele>65.1824</ele>
        <time>2011-07-03T14:28:11Z</time>
      </trkpt>
      <trkpt lat="46.30516" lon="-0.34099">
        <ele>65.2394</ele>
        <time>2011-07-03T14:28:12Z</time>
      </trkpt>
      <trkpt lat="46.30517" lon="-0.34098">
        <ele>65.2963</ele>
        <time>2011-07-03T14:28:13Z</time>
      </trkpt>
      <trkpt lat="46.30518" lon="-0.34098">
        <ele>65.3524</ele>
        <time>2011-07-03T14:28:14Z</time>
      </trkpt>
      <trkpt lat="46.3052" lon="-0.34097">
        <ele>65.408</ele>
        <time>2011-07-03T14:28:15Z</time>
      </trkpt>
      <trkpt lat="46.30521" lon="-0.34095">
        <ele>65.4627</ele>
        <time>2011-07-03T14:28:16Z</time>
      </trkpt>
      <trkpt lat="46.30521" lon="-0.34094">
        <ele>65.5182</ele>
        <time>2011-07-03T14:28:17Z</time>
      </trkpt>
      <trkpt lat="46.30522" lon="-0.34092">
        <ele>65.576</ele>
        <time>2011-07-03T14:28:18Z</time>
      </trkpt>
      <trkpt lat="46.30523" lon="-0.3409">
        <ele>65.6358</ele>
        <time>2011-07-03T14:28:19Z</time>
      </trkpt>
      <trkpt lat="46.30523" lon="-0.34088">
        <ele>65.6939</ele>
        <time>2011-07-03T14:28:20Z</time>
      </trkpt>
      <trkpt lat="46.30523" lon="-0.34085">
        <ele>65.7495</ele>
        <time>2011-07-03T14:28:21Z</time>
      </trkpt>
      <trkpt lat="46.30524" lon="-0.34083">
        <ele>65.805</ele>
        <time>2011-07-03T14:28:22Z</time>
      </trkpt>
      <trkpt lat="46.30524" lon="-0.34081">
        <ele>65.8555</ele>
        <time>2011-07-03T14:28:23Z</time>
      </trkpt>
      <trkpt lat="46.30525" lon="-0.34079">
        <ele>65.9022</ele>
        <time>2011-07-03T14:28:24Z</time>
      </trkpt>
      <trkpt lat="46.30526" lon="-0.34076">
        <ele>65.943</ele>
        <time>2011-07-03T14:28:25Z</time>
      </trkpt>
      <trkpt lat="46.30526" lon="-0.34073">
        <ele>65.9783</ele>
        <time>2011-07-03T14:28:26Z</time>
      </trkpt>
      <trkpt lat="46.30527" lon="-0.3407">
        <ele>66.0016</ele>
        <time>2011-07-03T14:28:27Z</time>
      </trkpt>
      <trkpt lat="46.30527" lon="-0.34067">
        <ele>66.0196</ele>
        <time>2011-07-03T14:28:28Z</time>
      </trkpt>
      <trkpt lat="46.30528" lon="-0.34064">
        <ele>66.0324</ele>
        <time>2011-07-03T14:28:29Z</time>
      </trkpt>
      <trkpt lat="46.30528" lon="-0.34062">
        <ele>66.043</ele>
        <time>2011-07-03T14:28:30Z</time>
      </trkpt>
      <trkpt lat="46.30528" lon="-0.3406">
        <ele>66.0511</ele>
        <time>2011-07-03T14:28:31Z</time>
      </trkpt>
      <trkpt lat="46.30528" lon="-0.34057">
        <ele>66.0592</ele>
        <time>2011-07-03T14:28:32Z</time>
      </trkpt>
      <trkpt lat="46.30528" lon="-0.34056">
        <ele>66.0702</ele>
        <time>2011-07-03T14:28:33Z</time>
      </trkpt>
      <trkpt lat="46.30528" lon="-0.34054">
        <ele>66.0833</ele>
        <time>2011-07-03T14:28:34Z</time>
      </trkpt>
      <trkpt lat="46.30528" lon="-0.34052">
        <ele>66.095</ele>
        <time>2011-07-03T14:28:35Z</time>
      </trkpt>
      <trkpt lat="46.30528" lon="-0.3405">
        <ele>66.1055</ele>
        <time>2011-07-03T14:28:36Z</time>
      </trkpt>
      <trkpt lat="46.30528" lon="-0.34047">
        <ele>66.1127</ele>
        <time>2011-07-03T14:28:37Z</time>
      </trkpt>
      <trkpt lat="46.30528" lon="-0.34045">
        <ele>66.1204</ele>
        <time>2011-07-03T14:28:38Z</time>
      </trkpt>
      <trkpt lat="46.30528" lon="-0.34043">
        <ele>66.129</ele>
        <time>2011-07-03T14:28:39Z</time>
      </trkpt>
      <trkpt lat="46.30528" lon="-0.34041">
        <ele>66.1387</ele>
        <time>2011-07-03T14:28:40Z</time>
      </trkpt>
      <trkpt lat="46.30528" lon="-0.3404">
        <ele>66.1507</ele>
        <time>2011-07-03T14:28:41Z</time>
      </trkpt>
      <trkpt lat="46.30528" lon="-0.34038">
        <ele>66.16</ele>
        <time>2011-07-03T14:28:42Z</time>
      </trkpt>
      <trkpt lat="46.30528" lon="-0.34036">
        <ele>66.1696</ele>
        <time>2011-07-03T14:28:43Z</time>
      </trkpt>
      <trkpt lat="46.30529" lon="-0.34034">
        <ele>66.1807</ele>
        <time>2011-07-03T14:28:44Z</time>
      </trkpt>
      <trkpt lat="46.30529" lon="-0.34031">
        <ele>66.193</ele>
        <time>2011-07-03T14:28:45Z</time>
      </trkpt>
      <trkpt lat="46.30529" lon="-0.34029">
        <ele>66.2056</ele>
        <time>2011-07-03T14:28:46Z</time>
      </trkpt>
      <trkpt lat="46.3053" lon="-0.34027">
        <ele>66.2189</ele>
        <time>2011-07-03T14:28:47Z</time>
      </trkpt>
      <trkpt lat="46.3053" lon="-0.34025">
        <ele>66.2351</ele>
        <time>2011-07-03T14:28:48Z</time>
      </trkpt>
      <trkpt lat="46.3053" lon="-0.34023">
        <ele>66.2534</ele>
        <time>2011-07-03T14:28:49Z</time>
      </trkpt>
      <trkpt lat="46.3053" lon="-0.3402">
        <ele>66.274</ele>
        <time>2011-07-03T14:28:50Z</time>
      </trkpt>
      <trkpt lat="46.3053" lon="-0.34018">
        <ele>66.3036</ele>
        <time>2011-07-03T14:28:51Z</time>
      </trkpt>
      <trkpt lat="46.30529" lon="-0.34016">
        <ele>66.3495</ele>
        <time>2011-07-03T14:28:52Z</time>
      </trkpt>
      <trkpt lat="46.30529" lon="-0.34015">
        <ele>66.4095</ele>
        <time>2011-07-03T14:28:53Z</time>
      </trkpt>
      <trkpt lat="46.30528" lon="-0.34013">
        <ele>66.4759</ele>
        <time>2011-07-03T14:28:54Z</time>
      </trkpt>
      <trkpt lat="46.30528" lon="-0.34011">
        <ele>66.5413</ele>
        <time>2011-07-03T14:28:55Z</time>
      </trkpt>
      <trkpt lat="46.30527" lon="-0.34009">
        <ele>66.606</ele>
        <time>2011-07-03T14:28:56Z</time>
      </trkpt>
      <trkpt lat="46.30526" lon="-0.34008">
        <ele>66.6698</ele>
        <time>2011-07-03T14:28:57Z</time>
      </trkpt>
      <trkpt lat="46.30525" lon="-0.34006">
        <ele>66.7362</ele>
        <time>2011-07-03T14:28:58Z</time>
      </trkpt>
      <trkpt lat="46.30525" lon="-0.34004">
        <ele>66.8045</ele>
        <time>2011-07-03T14:28:59Z</time>
      </trkpt>
      <trkpt lat="46.30524" lon="-0.34003">
        <ele>66.8751</ele>
        <time>2011-07-03T14:29:00Z</time>
      </trkpt>
      <trkpt lat="46.30523" lon="-0.34003">
        <ele>66.9447</ele>
        <time>2011-07-03T14:29:01Z</time>
      </trkpt>
      <trkpt lat="46.30522" lon="-0.34002">
        <ele>67.0115</ele>
        <time>2011-07-03T14:29:02Z</time>
      </trkpt>
      <trkpt lat="46.30521" lon="-0.34002">
        <ele>67.0777</ele>
        <time>2011-07-03T14:29:03Z</time>
      </trkpt>
      <trkpt lat="46.3052" lon="-0.34002">
        <ele>67.1434</ele>
        <time>2011-07-03T14:29:04Z</time>
      </trkpt>
      <trkpt lat="46.30519" lon="-0.34001">
        <ele>67.2109</ele>
        <time>2011-07-03T14:29:05Z</time>
      </trkpt>
      <trkpt lat="46.30518" lon="-0.34001">
        <ele>67.2872</ele>
        <time>2011-07-03T14:29:06Z</time>
      </trkpt>
      <trkpt lat="46.30516" lon="-0.34">
        <ele>67.3727</ele>
        <time>2011-07-03T14:29:07Z</time>
      </trkpt>
      <trkpt lat="46.30516" lon="-0.33998">
        <ele>67.469</ele>
        <time>2011-07-03T14:29:08Z</time>
      </trkpt>
      <trkpt lat="46.30515" lon="-0.33996">
        <ele>67.571</ele>
        <time>2011-07-03T14:29:09Z</time>
      </trkpt>
      <trkpt lat="46.30514" lon="-0.33994">
        <ele>67.6764</ele>
        <time>2011-07-03T14:29:10Z</time>
      </trkpt>
      <trkpt lat="46.30513" lon="-0.33992">
        <ele>67.7832</ele>
        <time>2011-07-03T14:29:11Z</time>
      </trkpt>
      <trkpt lat="46.30513" lon="-0.3399">
        <ele>67.8969</ele>
        <time>2011-07-03T14:29:12Z</time>
      </trkpt>
      <trkpt lat="46.30512" lon="-0.3399">
        <ele>68.0195</ele>
        <time>2011-07-03T14:29:13Z</time>
      </trkpt>
      <trkpt lat="46.30511" lon="-0.33989">
        <ele>68.1501</ele>
        <time>2011-07-03T14:29:14Z</time>
      </trkpt>
      <trkpt lat="46.3051" lon="-0.33989">
        <ele>68.2879</ele>
        <time>2011-07-03T14:29:15Z</time>
      </trkpt>
      <trkpt lat="46.30508" lon="-0.33988">
        <ele>68.4296</ele>
        <time>2011-07-03T14:29:16Z</time>
      </trkpt>
      <trkpt lat="46.30499" lon="-0.33983">
        <ele>70.0813</ele>
        <time>2011-07-03T14:29:35Z</time>
      </trkpt>
      <trkpt lat="46.305" lon="-0.33983">
        <ele>70.1117</ele>
        <time>2011-07-03T14:29:36Z</time>
      </trkpt>
      <trkpt lat="46.30501" lon="-0.33984">
        <ele>70.1373</ele>
        <time>2011-07-03T14:29:37Z</time>
      </trkpt>
      <trkpt lat="46.30503" lon="-0.33984">
        <ele>70.1571</ele>
        <time>2011-07-03T14:29:38Z</time>
      </trkpt>
      <trkpt lat="46.30504" lon="-0.33985">
        <ele>70.17</ele>
        <time>2011-07-03T14:29:39Z</time>
      </trkpt>
      <trkpt lat="46.30506" lon="-0.33986">
        <ele>70.1813</ele>
        <time>2011-07-03T14:29:40Z</time>
      </trkpt>
      <trkpt lat="46.30507" lon="-0.33988">
        <ele>70.1928</ele>
        <time>2011-07-03T14:29:41Z</time>
      </trkpt>
      <trkpt lat="46.30508" lon="-0.33989">
        <ele>70.1978</ele>
        <time>2011-07-03T14:29:42Z</time>
      </trkpt>
      <trkpt lat="46.30509" lon="-0.33989">
        <ele>70.2002</ele>
        <time>2011-07-03T14:29:43Z</time>
      </trkpt>
      <trkpt lat="46.30511" lon="-0.3399">
        <ele>70.2019</ele>
        <time>2011-07-03T14:29:44Z</time>
      </trkpt>
      <trkpt lat="46.30512" lon="-0.3399">
        <ele>70.2018</ele>
        <time>2011-07-03T14:29:45Z</time>
      </trkpt>
      <trkpt lat="46.30513" lon="-0.33991">
        <ele>70.2008</ele>
        <time>2011-07-03T14:29:46Z</time>
      </trkpt>
      <trkpt lat="46.30515" lon="-0.33991">
        <ele>70.1983</ele>
        <time>2011-07-03T14:29:47Z</time>
      </trkpt>
      <trkpt lat="46.30515" lon="-0.33992">
        <ele>70.193</ele>
        <time>2011-07-03T14:29:48Z</time>
      </trkpt>
      <trkpt lat="46.30516" lon="-0.33993">
        <ele>70.1913</ele>
        <time>2011-07-03T14:29:49Z</time>
      </trkpt>
      <trkpt lat="46.30517" lon="-0.33993">
        <ele>70.1913</ele>
        <time>2011-07-03T14:29:50Z</time>
      </trkpt>
      <trkpt lat="46.30518" lon="-0.33994">
        <ele>70.1912</ele>
        <time>2011-07-03T14:29:51Z</time>
      </trkpt>
      <trkpt lat="46.3052" lon="-0.33994">
        <ele>70.1892</ele>
        <time>2011-07-03T14:29:52Z</time>
      </trkpt>
      <trkpt lat="46.30521" lon="-0.33994">
        <ele>70.1959</ele>
        <time>2011-07-03T14:29:53Z</time>
      </trkpt>
      <trkpt lat="46.30522" lon="-0.33995">
        <ele>70.2045</ele>
        <time>2011-07-03T14:29:54Z</time>
      </trkpt>
      <trkpt lat="46.30523" lon="-0.33996">
        <ele>70.2134</ele>
        <time>2011-07-03T14:29:55Z</time>
      </trkpt>
      <trkpt lat="46.30524" lon="-0.33997">
        <ele>70.2226</ele>
        <time>2011-07-03T14:29:56Z</time>
      </trkpt>
      <trkpt lat="46.30525" lon="-0.33999">
        <ele>70.2356</ele>
        <time>2011-07-03T14:29:57Z</time>
      </trkpt>
      <trkpt lat="46.30525" lon="-0.34">
        <ele>70.2498</ele>
        <time>2011-07-03T14:29:58Z</time>
      </trkpt>
      <trkpt lat="46.30526" lon="-0.34002">
        <ele>70.2633</ele>
        <time>2011-07-03T14:29:59Z</time>
      </trkpt>
      <trkpt lat="46.30526" lon="-0.34004">
        <ele>70.2744</ele>
        <time>2011-07-03T14:30:00Z</time>
      </trkpt>
      <trkpt lat="46.30526" lon="-0.34005">
        <ele>70.2844</ele>
        <time>2011-07-03T14:30:01Z</time>
      </trkpt>
      <trkpt lat="46.30526" lon="-0.34007">
        <ele>70.2937</ele>
        <time>2011-07-03T14:30:02Z</time>
      </trkpt>
      <trkpt lat="46.30526" lon="-0.34009">
        <ele>70.3017</ele>
        <time>2011-07-03T14:30:03Z</time>
      </trkpt>
      <trkpt lat="46.30526" lon="-0.34011">
        <ele>70.3101</ele>
        <time>2011-07-03T14:30:04Z</time>
      </trkpt>
      <trkpt lat="46.30527" lon="-0.34013">
        <ele>70.3218</ele>
        <time>2011-07-03T14:30:05Z</time>
      </trkpt>
      <trkpt lat="46.30528" lon="-0.34015">
        <ele>70.3351</ele>
        <time>2011-07-03T14:30:06Z</time>
      </trkpt>
      <trkpt lat="46.30528" lon="-0.34016">
        <ele>70.352</ele>
        <time>2011-07-03T14:30:07Z</time>
      </trkpt>
      <trkpt lat="46.30529" lon="-0.34018">
        <ele>70.3641</ele>
        <time>2011-07-03T14:30:08Z</time>
      </trkpt>
      <trkpt lat="46.30529" lon="-0.34021">
        <ele>70.3726</ele>
        <time>2011-07-03T14:30:09Z</time>
      </trkpt>
      <trkpt lat="46.3053" lon="-0.34024">
        <ele>70.3743</ele>
        <time>2011-07-03T14:30:10Z</time>
      </trkpt>
      <trkpt lat="46.30531" lon="-0.34027">
        <ele>70.375</ele>
        <time>2011-07-03T14:30:11Z</time>
      </trkpt>
      <trkpt lat="46.30531" lon="-0.34029">
        <ele>70.3731</ele>
        <time>2011-07-03T14:30:12Z</time>
      </trkpt>
      <trkpt lat="46.30531" lon="-0.34032">
        <ele>70.3686</ele>
        <time>2011-07-03T14:30:13Z</time>
      </trkpt>
      <trkpt lat="46.30532" lon="-0.34034">
        <ele>70.3669</ele>
        <time>2011-07-03T14:30:14Z</time>
      </trkpt>
      <trkpt lat="46.30532" lon="-0.34036">
        <ele>70.3627</ele>
        <time>2011-07-03T14:30:15Z</time>
      </trkpt>
      <trkpt lat="46.30532" lon="-0.34039">
        <ele>70.3624</ele>
        <time>2011-07-03T14:30:16Z</time>
      </trkpt>
      <trkpt lat="46.30533" lon="-0.34041">
        <ele>70.3673</ele>
        <time>2011-07-03T14:30:17Z</time>
      </trkpt>
      <trkpt lat="46.30534" lon="-0.34043">
        <ele>70.3743</ele>
        <time>2011-07-03T14:30:18Z</time>
      </trkpt>
      <trkpt lat="46.30533" lon="-0.34045">
        <ele>70.376</ele>
        <time>2011-07-03T14:30:19Z</time>
      </trkpt>
      <trkpt lat="46.30533" lon="-0.34047">
        <ele>70.3751</ele>
        <time>2011-07-03T14:30:20Z</time>
      </trkpt>
      <trkpt lat="46.30533" lon="-0.34049">
        <ele>70.3709</ele>
        <time>2011-07-03T14:30:21Z</time>
      </trkpt>
      <trkpt lat="46.30533" lon="-0.34051">
        <ele>70.3652</ele>
        <time>2011-07-03T14:30:22Z</time>
      </trkpt>
      <trkpt lat="46.30533" lon="-0.34053">
        <ele>70.3603</ele>
        <time>2011-07-03T14:30:23Z</time>
      </trkpt>
      <trkpt lat="46.30533" lon="-0.34054">
        <ele>70.3566</ele>
        <time>2011-07-03T14:30:24Z</time>
      </trkpt>
      <trkpt lat="46.30533" lon="-0.34056">
        <ele>70.3518</ele>
        <time>2011-07-03T14:30:25Z</time>
      </trkpt>
      <trkpt lat="46.30533" lon="-0.34058">
        <ele>70.3492</ele>
        <time>2011-07-03T14:30:26Z</time>
      </trkpt>
      <trkpt lat="46.30533" lon="-0.3406">
        <ele>70.3466</ele>
        <time>2011-07-03T14:30:27Z</time>
      </trkpt>
      <trkpt lat="46.30533" lon="-0.34062">
        <ele>70.3437</ele>
        <time>2011-07-03T14:30:28Z</time>
      </trkpt>
      <trkpt lat="46.30533" lon="-0.34064">
        <ele>70.3456</ele>
        <time>2011-07-03T14:30:29Z</time>
      </trkpt>
      <trkpt lat="46.30533" lon="-0.34066">
        <ele>70.3482</ele>
        <time>2011-07-03T14:30:30Z</time>
      </trkpt>
      <trkpt lat="46.30532" lon="-0.34068">
        <ele>70.3511</ele>
        <time>2011-07-03T14:30:31Z</time>
      </trkpt>
      <trkpt lat="46.30532" lon="-0.3407">
        <ele>70.3555</ele>
        <time>2011-07-03T14:30:32Z</time>
      </trkpt>
      <trkpt lat="46.30532" lon="-0.34072">
        <ele>70.3614</ele>
        <time>2011-07-03T14:30:33Z</time>
      </trkpt>
      <trkpt lat="46.30533" lon="-0.34074">
        <ele>70.3726</ele>
        <time>2011-07-03T14:30:34Z</time>
      </trkpt>
      <trkpt lat="46.30533" lon="-0.34076">
        <ele>70.3886</ele>
        <time>2011-07-03T14:30:35Z</time>
      </trkpt>
      <trkpt lat="46.30533" lon="-0.34078">
        <ele>70.4037</ele>
        <time>2011-07-03T14:30:36Z</time>
      </trkpt>
      <trkpt lat="46.30532" lon="-0.3408">
        <ele>70.419</ele>
        <time>2011-07-03T14:30:37Z</time>
      </trkpt>
      <trkpt lat="46.30532" lon="-0.34082">
        <ele>70.4317</ele>
        <time>2011-07-03T14:30:38Z</time>
      </trkpt>
      <trkpt lat="46.30533" lon="-0.34084">
        <ele>70.4396</ele>
        <time>2011-07-03T14:30:39Z</time>
      </trkpt>
      <trkpt lat="46.30533" lon="-0.34086">
        <ele>70.449</ele>
        <time>2011-07-03T14:30:40Z</time>
      </trkpt>
      <trkpt lat="46.30533" lon="-0.34088">
        <ele>70.4599</ele>
        <time>2011-07-03T14:30:41Z</time>
      </trkpt>
      <trkpt lat="46.30533" lon="-0.3409">
        <ele>70.4683</ele>
        <time>2011-07-03T14:30:42Z</time>
      </trkpt>
      <trkpt lat="46.30533" lon="-0.34091">
        <ele>70.4783</ele>
        <time>2011-07-03T14:30:43Z</time>
      </trkpt>
      <trkpt lat="46.30533" lon="-0.34093">
        <ele>70.4871</ele>
        <time>2011-07-03T14:30:44Z</time>
      </trkpt>
      <trkpt lat="46.30533" lon="-0.34095">
        <ele>70.4942</ele>
        <time>2011-07-03T14:30:45Z</time>
      </trkpt>
      <trkpt lat="46.30534" lon="-0.34097">
        <ele>70.5037</ele>
        <time>2011-07-03T14:30:46Z</time>
      </trkpt>
      <trkpt lat="46.30534" lon="-0.34099">
        <ele>70.5155</ele>
        <time>2011-07-03T14:30:47Z</time>
      </trkpt>
      <trkpt lat="46.30535" lon="-0.341">
        <ele>70.5268</ele>
        <time>2011-07-03T14:30:48Z</time>
      </trkpt>
      <trkpt lat="46.30536" lon="-0.34101">
        <ele>70.5394</ele>
        <time>2011-07-03T14:30:49Z</time>
      </trkpt>
      <trkpt lat="46.30537" lon="-0.34103">
        <ele>70.5531</ele>
        <time>2011-07-03T14:30:50Z</time>
      </trkpt>
      <trkpt lat="46.30538" lon="-0.34104">
        <ele>70.567</ele>
        <time>2011-07-03T14:30:51Z</time>
      </trkpt>
      <trkpt lat="46.30539" lon="-0.34106">
        <ele>70.5816</ele>
        <time>2011-07-03T14:30:52Z</time>
      </trkpt>
      <trkpt lat="46.3054" lon="-0.34107">
        <ele>70.5947</ele>
        <time>2011-07-03T14:30:53Z</time>
      </trkpt>
      <trkpt lat="46.30541" lon="-0.34107">
        <ele>70.6044</ele>
        <time>2011-07-03T14:30:54Z</time>
      </trkpt>
      <trkpt lat="46.30542" lon="-0.34108">
        <ele>70.6172</ele>
        <time>2011-07-03T14:30:55Z</time>
      </trkpt>
      <trkpt lat="46.30543" lon="-0.34109">
        <ele>70.6292</ele>
        <time>2011-07-03T14:30:56Z</time>
      </trkpt>
      <trkpt lat="46.30544" lon="-0.3411">
        <ele>70.6478</ele>
        <time>2011-07-03T14:30:57Z</time>
      </trkpt>
      <trkpt lat="46.30545" lon="-0.34111">
        <ele>70.6643</ele>
        <time>2011-07-03T14:30:58Z</time>
      </trkpt>
      <trkpt lat="46.30546" lon="-0.34112">
        <ele>70.6859</ele>
        <time>2011-07-03T14:30:59Z</time>
      </trkpt>
      <trkpt lat="46.30547" lon="-0.34113">
        <ele>70.7068</ele>
        <time>2011-07-03T14:31:00Z</time>
      </trkpt>
      <trkpt lat="46.30548" lon="-0.34114">
        <ele>70.7279</ele>
        <time>2011-07-03T14:31:01Z</time>
      </trkpt>
      <trkpt lat="46.3055" lon="-0.34115">
        <ele>70.7514</ele>
        <time>2011-07-03T14:31:02Z</time>
      </trkpt>
      <trkpt lat="46.30551" lon="-0.34115">
        <ele>70.7749</ele>
        <time>2011-07-03T14:31:03Z</time>
      </trkpt>
      <trkpt lat="46.30552" lon="-0.34116">
        <ele>70.7974</ele>
        <time>2011-07-03T14:31:04Z</time>
      </trkpt>
      <trkpt lat="46.30553" lon="-0.34117">
        <ele>70.8189</ele>
        <time>2011-07-03T14:31:05Z</time>
      </trkpt>
      <trkpt lat="46.30554" lon="-0.34118">
        <ele>70.8373</ele>
        <time>2011-07-03T14:31:06Z</time>
      </trkpt>
      <trkpt lat="46.30555" lon="-0.34119">
        <ele>70.8555</ele>
        <time>2011-07-03T14:31:07Z</time>
      </trkpt>
      <trkpt lat="46.30557" lon="-0.3412">
        <ele>70.8711</ele>
        <time>2011-07-03T14:31:08Z</time>
      </trkpt>
      <trkpt lat="46.30558" lon="-0.34121">
        <ele>70.8876</ele>
        <time>2011-07-03T14:31:09Z</time>
      </trkpt>
      <trkpt lat="46.30559" lon="-0.34121">
        <ele>70.9028</ele>
        <time>2011-07-03T14:31:10Z</time>
      </trkpt>
      <trkpt lat="46.3056" lon="-0.34122">
        <ele>70.9176</ele>
        <time>2011-07-03T14:31:11Z</time>
      </trkpt>
      <trkpt lat="46.30561" lon="-0.34123">
        <ele>70.9333</ele>
        <time>2011-07-03T14:31:12Z</time>
      </trkpt>
      <trkpt lat="46.30563" lon="-0.34124">
        <ele>70.9525</ele>
        <time>2011-07-03T14:31:13Z</time>
      </trkpt>
      <trkpt lat="46.30564" lon="-0.34126">
        <ele>70.9671</ele>
        <time>2011-07-03T14:31:14Z</time>
      </trkpt>
      <trkpt lat="46.30565" lon="-0.34126">
        <ele>70.9783</ele>
        <time>2011-07-03T14:31:15Z</time>
      </trkpt>
      <trkpt lat="46.30566" lon="-0.34127">
        <ele>70.9903</ele>
        <time>2011-07-03T14:31:16Z</time>
      </trkpt>
      <trkpt lat="46.30568" lon="-0.34128">
        <ele>71.0003</ele>
        <time>2011-07-03T14:31:17Z</time>
      </trkpt>
      <trkpt lat="46.3057" lon="-0.34129">
        <ele>71.0103</ele>
        <time>2011-07-03T14:31:18Z</time>
      </trkpt>
      <trkpt lat="46.30571" lon="-0.3413">
        <ele>71.0181</ele>
        <time>2011-07-03T14:31:19Z</time>
      </trkpt>
      <trkpt lat="46.30572" lon="-0.34131">
        <ele>71.0212</ele>
        <time>2011-07-03T14:31:20Z</time>
      </trkpt>
      <trkpt lat="46.30573" lon="-0.34132">
        <ele>71.0233</ele>
        <time>2011-07-03T14:31:21Z</time>
      </trkpt>
      <trkpt lat="46.30575" lon="-0.34133">
        <ele>71.0214</ele>
        <time>2011-07-03T14:31:22Z</time>
      </trkpt>
      <trkpt lat="46.30577" lon="-0.34133">
        <ele>71.0174</ele>
        <time>2011-07-03T14:31:23Z</time>
      </trkpt>
      <trkpt lat="46.30578" lon="-0.34134">
        <ele>71.0112</ele>
        <time>2011-07-03T14:31:24Z</time>
      </trkpt>
      <trkpt lat="46.3058" lon="-0.34134">
        <ele>71.0059</ele>
        <time>2011-07-03T14:31:25Z</time>
      </trkpt>
      <trkpt lat="46.30582" lon="-0.34134">
        <ele>70.9989</ele>
        <time>2011-07-03T14:31:26Z</time>
      </trkpt>
      <trkpt lat="46.30584" lon="-0.34134">
        <ele>70.9953</ele>
        <time>2011-07-03T14:31:27Z</time>
      </trkpt>
      <trkpt lat="46.30585" lon="-0.34134">
        <ele>70.9913</ele>
        <time>2011-07-03T14:31:28Z</time>
      </trkpt>
      <trkpt lat="46.30587" lon="-0.34134">
        <ele>70.9867</ele>
        <time>2011-07-03T14:31:29Z</time>
      </trkpt>
      <trkpt lat="46.30589" lon="-0.34134">
        <ele>70.9819</ele>
        <time>2011-07-03T14:31:30Z</time>
      </trkpt>
      <trkpt lat="46.3059" lon="-0.34134">
        <ele>70.9765</ele>
        <time>2011-07-03T14:31:31Z</time>
      </trkpt>
      <trkpt lat="46.30592" lon="-0.34134">
        <ele>70.969</ele>
        <time>2011-07-03T14:31:32Z</time>
      </trkpt>
      <trkpt lat="46.30594" lon="-0.34134">
        <ele>70.9555</ele>
        <time>2011-07-03T14:31:33Z</time>
      </trkpt>
      <trkpt lat="46.30595" lon="-0.34135">
        <ele>70.9419</ele>
        <time>2011-07-03T14:31:34Z</time>
      </trkpt>
      <trkpt lat="46.30597" lon="-0.34135">
        <ele>70.9279</ele>
        <time>2011-07-03T14:31:35Z</time>
      </trkpt>
      <trkpt lat="46.30599" lon="-0.34135">
        <ele>70.9072</ele>
        <time>2011-07-03T14:31:36Z</time>
      </trkpt>
      <trkpt lat="46.306" lon="-0.34135">
        <ele>70.8865</ele>
        <time>2011-07-03T14:31:37Z</time>
      </trkpt>
      <trkpt lat="46.30602" lon="-0.34135">
        <ele>70.8654</ele>
        <time>2011-07-03T14:31:38Z</time>
      </trkpt>
      <trkpt lat="46.30604" lon="-0.34136">
        <ele>70.8413</ele>
        <time>2011-07-03T14:31:39Z</time>
      </trkpt>
      <trkpt lat="46.30605" lon="-0.34136">
        <ele>70.8145</ele>
        <time>2011-07-03T14:31:40Z</time>
      </trkpt>
      <trkpt lat="46.30607" lon="-0.34136">
        <ele>70.7848</ele>
        <time>2011-07-03T14:31:41Z</time>
      </trkpt>
      <trkpt lat="46.30608" lon="-0.34135">
        <ele>70.7554</ele>
        <time>2011-07-03T14:31:42Z</time>
      </trkpt>
      <trkpt lat="46.30609" lon="-0.34135">
        <ele>70.7303</ele>
        <time>2011-07-03T14:31:43Z</time>
      </trkpt>
      <trkpt lat="46.3061" lon="-0.34135">
        <ele>70.7084</ele>
        <time>2011-07-03T14:31:44Z</time>
      </trkpt>
      <trkpt lat="46.30611" lon="-0.34135">
        <ele>70.6856</ele>
        <time>2011-07-03T14:31:45Z</time>
      </trkpt>
      <trkpt lat="46.30613" lon="-0.34135">
        <ele>70.662</ele>
        <time>2011-07-03T14:31:46Z</time>
      </trkpt>
      <trkpt lat="46.30614" lon="-0.34136">
        <ele>70.6388</ele>
        <time>2011-07-03T14:31:47Z</time>
      </trkpt>
      <trkpt lat="46.30615" lon="-0.34136">
        <ele>70.6178</ele>
        <time>2011-07-03T14:31:48Z</time>
      </trkpt>
      <trkpt lat="46.30617" lon="-0.34136">
        <ele>70.5981</ele>
        <time>2011-07-03T14:31:49Z</time>
      </trkpt>
      <trkpt lat="46.30618" lon="-0.34136">
        <ele>70.5802</ele>
        <time>2011-07-03T14:31:50Z</time>
      </trkpt>
      <trkpt lat="46.30619" lon="-0.34136">
        <ele>70.5654</ele>
        <time>2011-07-03T14:31:51Z</time>
      </trkpt>
      <trkpt lat="46.30621" lon="-0.34136">
        <ele>70.552</ele>
        <time>2011-07-03T14:31:52Z</time>
      </trkpt>
      <trkpt lat="46.30622" lon="-0.34136">
        <ele>70.539</ele>
        <time>2011-07-03T14:31:53Z</time>
      </trkpt>
      <trkpt lat="46.30624" lon="-0.34135">
        <ele>70.5265</ele>
        <time>2011-07-03T14:31:54Z</time>
      </trkpt>
      <trkpt lat="46.30625" lon="-0.34135">
        <ele>70.5134</ele>
        <time>2011-07-03T14:31:55Z</time>
      </trkpt>
      <trkpt lat="46.30626" lon="-0.34136">
        <ele>70.5008</ele>
        <time>2011-07-03T14:31:56Z</time>
      </trkpt>
      <trkpt lat="46.30628" lon="-0.34136">
        <ele>70.4878</ele>
        <time>2011-07-03T14:31:57Z</time>
      </trkpt>
      <trkpt lat="46.30629" lon="-0.34136">
        <ele>70.4758</ele>
        <time>2011-07-03T14:31:58Z</time>
      </trkpt>
      <trkpt lat="46.30631" lon="-0.34136">
        <ele>70.4631</ele>
        <time>2011-07-03T14:31:59Z</time>
      </trkpt>
      <trkpt lat="46.30632" lon="-0.34137">
        <ele>70.4524</ele>
        <time>2011-07-03T14:32:00Z</time>
      </trkpt>
      <trkpt lat="46.30634" lon="-0.34136">
        <ele>70.439</ele>
        <time>2011-07-03T14:32:01Z</time>
      </trkpt>
      <trkpt lat="46.30635" lon="-0.34136">
        <ele>70.4362</ele>
        <time>2011-07-03T14:32:02Z</time>
      </trkpt>
      <trkpt lat="46.30637" lon="-0.34136">
        <ele>70.4427</ele>
        <time>2011-07-03T14:32:03Z</time>
      </trkpt>
      <trkpt lat="46.30638" lon="-0.34137">
        <ele>70.458</ele>
        <time>2011-07-03T14:32:04Z</time>
      </trkpt>
      <trkpt lat="46.30639" lon="-0.34137">
        <ele>70.4695</ele>
        <time>2011-07-03T14:32:05Z</time>
      </trkpt>
      <trkpt lat="46.30641" lon="-0.34137">
        <ele>70.4835</ele>
        <time>2011-07-03T14:32:06Z</time>
      </trkpt>
      <trkpt lat="46.30642" lon="-0.34137">
        <ele>70.4996</ele>
        <time>2011-07-03T14:32:07Z</time>
      </trkpt>
      <trkpt lat="46.30643" lon="-0.34137">
        <ele>70.5153</ele>
        <time>2011-07-03T14:32:08Z</time>
      </trkpt>
      <trkpt lat="46.30644" lon="-0.34137">
        <ele>70.5296</ele>
        <time>2011-07-03T14:32:09Z</time>
      </trkpt>
      <trkpt lat="46.30645" lon="-0.34137">
        <ele>70.5437</ele>
        <time>2011-07-03T14:32:10Z</time>
      </trkpt>
      <trkpt lat="46.30647" lon="-0.34137">
        <ele>70.5532</ele>
        <time>2011-07-03T14:32:11Z</time>
      </trkpt>
      <trkpt lat="46.30648" lon="-0.34137">
        <ele>70.5596</ele>
        <time>2011-07-03T14:32:12Z</time>
      </trkpt>
      <trkpt lat="46.30649" lon="-0.34137">
        <ele>70.5652</ele>
        <time>2011-07-03T14:32:13Z</time>
      </trkpt>
      <trkpt lat="46.30651" lon="-0.34137">
        <ele>70.5681</ele>
        <time>2011-07-03T14:32:14Z</time>
      </trkpt>
      <trkpt lat="46.30652" lon="-0.34138">
        <ele>70.5715</ele>
        <time>2011-07-03T14:32:15Z</time>
      </trkpt>
      <trkpt lat="46.30653" lon="-0.34139">
        <ele>70.5738</ele>
        <time>2011-07-03T14:32:16Z</time>
      </trkpt>
      <trkpt lat="46.30654" lon="-0.3414">
        <ele>70.5735</ele>
        <time>2011-07-03T14:32:17Z</time>
      </trkpt>
      <trkpt lat="46.30655" lon="-0.34141">
        <ele>70.5737</ele>
        <time>2011-07-03T14:32:18Z</time>
      </trkpt>
      <trkpt lat="46.30656" lon="-0.34141">
        <ele>70.5716</ele>
        <time>2011-07-03T14:32:19Z</time>
      </trkpt>
      <trkpt lat="46.30658" lon="-0.34142">
        <ele>70.5685</ele>
        <time>2011-07-03T14:32:20Z</time>
      </trkpt>
      <trkpt lat="46.3066" lon="-0.34143">
        <ele>70.5642</ele>
        <time>2011-07-03T14:32:21Z</time>
      </trkpt>
      <trkpt lat="46.30661" lon="-0.34143">
        <ele>70.5621</ele>
        <time>2011-07-03T14:32:22Z</time>
      </trkpt>
      <trkpt lat="46.30663" lon="-0.34143">
        <ele>70.5507</ele>
        <time>2011-07-03T14:32:23Z</time>
      </trkpt>
      <trkpt lat="46.30664" lon="-0.34143">
        <ele>70.5356</ele>
        <time>2011-07-03T14:32:24Z</time>
      </trkpt>
      <trkpt lat="46.30666" lon="-0.34142">
        <ele>70.5193</ele>
        <time>2011-07-03T14:32:25Z</time>
      </trkpt>
      <trkpt lat="46.30668" lon="-0.34142">
        <ele>70.4952</ele>
        <time>2011-07-03T14:32:26Z</time>
      </trkpt>
      <trkpt lat="46.3067" lon="-0.34142">
        <ele>70.471</ele>
        <time>2011-07-03T14:32:27Z</time>
      </trkpt>
      <trkpt lat="46.30671" lon="-0.34142">
        <ele>70.445</ele>
        <time>2011-07-03T14:32:28Z</time>
      </trkpt>
      <trkpt lat="46.30673" lon="-0.34142">
        <ele>70.4187</ele>
        <time>2011-07-03T14:32:29Z</time>
      </trkpt>
      <trkpt lat="46.30675" lon="-0.34142">
        <ele>70.3866</ele>
        <time>2011-07-03T14:32:30Z</time>
      </trkpt>
      <trkpt lat="46.30677" lon="-0.34142">
        <ele>70.3447</ele>
        <time>2011-07-03T14:32:31Z</time>
      </trkpt>
      <trkpt lat="46.30678" lon="-0.34142">
        <ele>70.2987</ele>
        <time>2011-07-03T14:32:32Z</time>
      </trkpt>
      <trkpt lat="46.3068" lon="-0.34142">
        <ele>70.253</ele>
        <time>2011-07-03T14:32:33Z</time>
      </trkpt>
      <trkpt lat="46.30681" lon="-0.34142">
        <ele>70.2106</ele>
        <time>2011-07-03T14:32:34Z</time>
      </trkpt>
      <trkpt lat="46.30682" lon="-0.34142">
        <ele>70.1704</ele>
        <time>2011-07-03T14:32:35Z</time>
      </trkpt>
      <trkpt lat="46.30684" lon="-0.34142">
        <ele>70.1308</ele>
        <time>2011-07-03T14:32:36Z</time>
      </trkpt>
      <trkpt lat="46.30685" lon="-0.34142">
        <ele>70.0958</ele>
        <time>2011-07-03T14:32:37Z</time>
      </trkpt>
      <trkpt lat="46.30687" lon="-0.34143">
        <ele>70.057</ele>
        <time>2011-07-03T14:32:38Z</time>
      </trkpt>
      <trkpt lat="46.30688" lon="-0.34143">
        <ele>70.0095</ele>
        <time>2011-07-03T14:32:39Z</time>
      </trkpt>
      <trkpt lat="46.30689" lon="-0.34143">
        <ele>69.9569</ele>
        <time>2011-07-03T14:32:40Z</time>
      </trkpt>
      <trkpt lat="46.3069" lon="-0.34143">
        <ele>69.9008</ele>
        <time>2011-07-03T14:32:41Z</time>
      </trkpt>
      <trkpt lat="46.30692" lon="-0.34143">
        <ele>69.8406</ele>
        <time>2011-07-03T14:32:42Z</time>
      </trkpt>
      <trkpt lat="46.30693" lon="-0.34143">
        <ele>69.7771</ele>
        <time>2011-07-03T14:32:43Z</time>
      </trkpt>
      <trkpt lat="46.30695" lon="-0.34143">
        <ele>69.707</ele>
        <time>2011-07-03T14:32:44Z</time>
      </trkpt>
      <trkpt lat="46.30697" lon="-0.34143">
        <ele>69.633</ele>
        <time>2011-07-03T14:32:45Z</time>
      </trkpt>
      <trkpt lat="46.30698" lon="-0.34143">
        <ele>69.5562</ele>
        <time>2011-07-03T14:32:46Z</time>
      </trkpt>
      <trkpt lat="46.307" lon="-0.34143">
        <ele>69.4772</ele>
        <time>2011-07-03T14:32:47Z</time>
      </trkpt>
      <trkpt lat="46.30701" lon="-0.34143">
        <ele>69.3954</ele>
        <time>2011-07-03T14:32:48Z</time>
      </trkpt>
      <trkpt lat="46.30703" lon="-0.34143">
        <ele>69.3107</ele>
        <time>2011-07-03T14:32:49Z</time>
      </trkpt>
      <trkpt lat="46.30705" lon="-0.34143">
        <ele>69.2244</ele>
        <time>2011-07-03T14:32:50Z</time>
      </trkpt>
      <trkpt lat="46.30706" lon="-0.34143">
        <ele>69.1306</ele>
        <time>2011-07-03T14:32:51Z</time>
      </trkpt>
      <trkpt lat="46.30708" lon="-0.34143">
        <ele>69.0327</ele>
        <time>2011-07-03T14:32:52Z</time>
      </trkpt>
      <trkpt lat="46.30709" lon="-0.34143">
        <ele>68.9305</ele>
        <time>2011-07-03T14:32:53Z</time>
      </trkpt>
      <trkpt lat="46.30711" lon="-0.34143">
        <ele>68.8268</ele>
        <time>2011-07-03T14:32:54Z</time>
      </trkpt>
      <trkpt lat="46.30713" lon="-0.34143">
        <ele>68.7222</ele>
        <time>2011-07-03T14:32:55Z</time>
      </trkpt>
      <trkpt lat="46.30714" lon="-0.34144">
        <ele>68.6152</ele>
        <time>2011-07-03T14:32:56Z</time>
      </trkpt>
      <trkpt lat="46.30715" lon="-0.34144">
        <ele>68.5142</ele>
        <time>2011-07-03T14:32:57Z</time>
      </trkpt>
      <trkpt lat="46.30717" lon="-0.34144">
        <ele>68.4156</ele>
        <time>2011-07-03T14:32:58Z</time>
      </trkpt>
      <trkpt lat="46.30718" lon="-0.34144">
        <ele>68.3228</ele>
        <time>2011-07-03T14:32:59Z</time>
      </trkpt>
      <trkpt lat="46.30719" lon="-0.34144">
        <ele>68.2348</ele>
        <time>2011-07-03T14:33:00Z</time>
      </trkpt>
      <trkpt lat="46.30721" lon="-0.34143">
        <ele>68.1523</ele>
        <time>2011-07-03T14:33:01Z</time>
      </trkpt>
      <trkpt lat="46.30722" lon="-0.34143">
        <ele>68.0752</ele>
        <time>2011-07-03T14:33:02Z</time>
      </trkpt>
      <trkpt lat="46.30723" lon="-0.34143">
        <ele>68.0022</ele>
        <time>2011-07-03T14:33:03Z</time>
      </trkpt>
      <trkpt lat="46.30724" lon="-0.34143">
        <ele>67.9304</ele>
        <time>2011-07-03T14:33:04Z</time>
      </trkpt>
      <trkpt lat="46.30724" lon="-0.34144">
        <ele>67.8655</ele>
        <time>2011-07-03T14:33:05Z</time>
      </trkpt>
      <trkpt lat="46.30725" lon="-0.34144">
        <ele>67.7993</ele>
        <time>2011-07-03T14:33:06Z</time>
      </trkpt>
      <trkpt lat="46.30726" lon="-0.34145">
        <ele>67.7437</ele>
        <time>2011-07-03T14:33:07Z</time>
      </trkpt>
      <trkpt lat="46.30726" lon="-0.34146">
        <ele>67.6916</ele>
        <time>2011-07-03T14:33:08Z</time>
      </trkpt>
      <trkpt lat="46.30726" lon="-0.34148">
        <ele>67.6421</ele>
        <time>2011-07-03T14:33:09Z</time>
      </trkpt>
      <trkpt lat="46.30726" lon="-0.3415">
        <ele>67.5955</ele>
        <time>2011-07-03T14:33:10Z</time>
      </trkpt>
      <trkpt lat="46.30726" lon="-0.34152">
        <ele>67.5609</ele>
        <time>2011-07-03T14:33:11Z</time>
      </trkpt>
      <trkpt lat="46.30726" lon="-0.34154">
        <ele>67.5312</ele>
        <time>2011-07-03T14:33:12Z</time>
      </trkpt>
      <trkpt lat="46.30726" lon="-0.34156">
        <ele>67.5044</ele>
        <time>2011-07-03T14:33:13Z</time>
      </trkpt>
      <trkpt lat="46.30726" lon="-0.34158">
        <ele>67.485</ele>
        <time>2011-07-03T14:33:14Z</time>
      </trkpt>
      <trkpt lat="46.30726" lon="-0.3416">
        <ele>67.4715</ele>
        <time>2011-07-03T14:33:15Z</time>
      </trkpt>
      <trkpt lat="46.30726" lon="-0.34162">
        <ele>67.4625</ele>
        <time>2011-07-03T14:33:16Z</time>
      </trkpt>
      <trkpt lat="46.30726" lon="-0.34164">
        <ele>67.4541</ele>
        <time>2011-07-03T14:33:17Z</time>
      </trkpt>
      <trkpt lat="46.30726" lon="-0.34166">
        <ele>67.449</ele>
        <time>2011-07-03T14:33:18Z</time>
      </trkpt>
      <trkpt lat="46.30726" lon="-0.34168">
        <ele>67.4447</ele>
        <time>2011-07-03T14:33:19Z</time>
      </trkpt>
      <trkpt lat="46.30726" lon="-0.3417">
        <ele>67.443</ele>
        <time>2011-07-03T14:33:20Z</time>
      </trkpt>
      <trkpt lat="46.30726" lon="-0.34173">
        <ele>67.4434</ele>
        <time>2011-07-03T14:33:21Z</time>
      </trkpt>
      <trkpt lat="46.30726" lon="-0.34175">
        <ele>67.4451</ele>
        <time>2011-07-03T14:33:22Z</time>
      </trkpt>
      <trkpt lat="46.30726" lon="-0.34177">
        <ele>67.448</ele>
        <time>2011-07-03T14:33:23Z</time>
      </trkpt>
      <trkpt lat="46.30726" lon="-0.34179">
        <ele>67.4527</ele>
        <time>2011-07-03T14:33:24Z</time>
      </trkpt>
      <trkpt lat="46.30726" lon="-0.34181">
        <ele>67.4586</ele>
        <time>2011-07-03T14:33:25Z</time>
      </trkpt>
      <trkpt lat="46.30726" lon="-0.34183">
        <ele>67.4678</ele>
        <time>2011-07-03T14:33:26Z</time>
      </trkpt>
      <trkpt lat="46.30726" lon="-0.34185">
        <ele>67.4803</ele>
        <time>2011-07-03T14:33:27Z</time>
      </trkpt>
      <trkpt lat="46.30726" lon="-0.34187">
        <ele>67.4973</ele>
        <time>2011-07-03T14:33:28Z</time>
      </trkpt>
      <trkpt lat="46.30726" lon="-0.34189">
        <ele>67.515</ele>
        <time>2011-07-03T14:33:29Z</time>
      </trkpt>
      <trkpt lat="46.30726" lon="-0.34192">
        <ele>67.5422</ele>
        <time>2011-07-03T14:33:30Z</time>
      </trkpt>
      <trkpt lat="46.30726" lon="-0.34194">
        <ele>67.5674</ele>
        <time>2011-07-03T14:33:31Z</time>
      </trkpt>
      <trkpt lat="46.30726" lon="-0.34196">
        <ele>67.5975</ele>
        <time>2011-07-03T14:33:32Z</time>
      </trkpt>
      <trkpt lat="46.30726" lon="-0.34198">
        <ele>67.628</ele>
        <time>2011-07-03T14:33:33Z</time>
      </trkpt>
      <trkpt lat="46.30726" lon="-0.342">
        <ele>67.662</ele>
        <time>2011-07-03T14:33:34Z</time>
      </trkpt>
      <trkpt lat="46.30726" lon="-0.34201">
        <ele>67.6946</ele>
        <time>2011-07-03T14:33:35Z</time>
      </trkpt>
      <trkpt lat="46.30726" lon="-0.34203">
        <ele>67.7277</ele>
        <time>2011-07-03T14:33:36Z</time>
      </trkpt>
      <trkpt lat="46.30725" lon="-0.34205">
        <ele>67.7664</ele>
        <time>2011-07-03T14:33:37Z</time>
      </trkpt>
      <trkpt lat="46.30725" lon="-0.34207">
        <ele>67.8046</ele>
        <time>2011-07-03T14:33:38Z</time>
      </trkpt>
      <trkpt lat="46.30725" lon="-0.34209">
        <ele>67.8467</ele>
        <time>2011-07-03T14:33:39Z</time>
      </trkpt>
      <trkpt lat="46.30725" lon="-0.34211">
        <ele>67.8903</ele>
        <time>2011-07-03T14:33:40Z</time>
      </trkpt>
      <trkpt lat="46.30726" lon="-0.34213">
        <ele>67.9311</ele>
        <time>2011-07-03T14:33:41Z</time>
      </trkpt>
      <trkpt lat="46.30726" lon="-0.34214">
        <ele>67.9721</ele>
        <time>2011-07-03T14:33:42Z</time>
      </trkpt>
      <trkpt lat="46.30726" lon="-0.34214">
        <ele>68.0125</ele>
        <time>2011-07-03T14:33:43Z</time>
      </trkpt>
      <trkpt lat="46.30725" lon="-0.34216">
        <ele>68.0523</ele>
        <time>2011-07-03T14:33:44Z</time>
      </trkpt>
      <trkpt lat="46.30724" lon="-0.34218">
        <ele>68.1013</ele>
        <time>2011-07-03T14:33:45Z</time>
      </trkpt>
      <trkpt lat="46.30724" lon="-0.3422">
        <ele>68.1621</ele>
        <time>2011-07-03T14:33:46Z</time>
      </trkpt>
      <trkpt lat="46.30724" lon="-0.34223">
        <ele>68.2345</ele>
        <time>2011-07-03T14:33:47Z</time>
      </trkpt>
    </trkseg>
  </trk>
</gpx>